<?xml version='1.0' encoding='UTF-8'?><gpx version="1.1" creator="JPX - https://github.com/jenetics/jpx" xmlns="http://www.topografix.com/GPX/1/1"><trk><trkseg><trkpt lat="43.9046004" lon="12.8676827"><ele>15.0</ele><time>2026-04-19T09:42:00.029Z</time></trkpt><trkpt lat="43.9045448" lon="12.867728"><ele>15.0</ele><time>2026-04-19T09:42:02.038Z</time></trkpt><trkpt lat="43.904612" lon="12.8677639"><ele>15.0</ele><time>2026-04-19T09:43:14Z</time></trkpt><trkpt lat="43.9046786" lon="12.8677386"><ele>15.0</ele><time>2026-04-19T09:46:17Z</time></trkpt><trkpt lat="43.9047363" lon="12.8677015"><ele>15.0</ele><time>2026-04-19T09:46:19Z</time></trkpt><trkpt lat="43.9047981" lon="12.8676544"><ele>15.0</ele><time>2026-04-19T09:46:21Z</time></trkpt><trkpt lat="43.904864" lon="12.8676157"><ele>15.0</ele><time>2026-04-19T09:46:23Z</time></trkpt><trkpt lat="43.9049186" lon="12.8675549"><ele>14.2</ele><time>2026-04-19T09:46:24.999Z</time></trkpt><trkpt lat="43.904909" lon="12.8674685"><ele>13.4</ele><time>2026-04-19T09:46:27Z</time></trkpt><trkpt lat="43.9047571" lon="12.8674435"><ele>12.600000000000001</ele><time>2026-04-19T09:46:29Z</time></trkpt><trkpt lat="43.9046694" lon="12.86737"><ele>11.8</ele><time>2026-04-19T09:46:31Z</time></trkpt><trkpt lat="43.9046389" lon="12.8672202"><ele>11.0</ele><time>2026-04-19T09:46:33Z</time></trkpt><trkpt lat="43.9046281" lon="12.8671184"><ele>11.0</ele><time>2026-04-19T09:46:34Z</time></trkpt><trkpt lat="43.9046146" lon="12.8670173"><ele>11.0</ele><time>2026-04-19T09:46:35Z</time></trkpt><trkpt lat="43.9046077" lon="12.8669245"><ele>11.0</ele><time>2026-04-19T09:46:36Z</time></trkpt><trkpt lat="43.9045749" lon="12.8667935"><ele>11.0</ele><time>2026-04-19T09:46:38Z</time></trkpt><trkpt lat="43.9045799" lon="12.8667032"><ele>11.0</ele><time>2026-04-19T09:46:40Z</time></trkpt><trkpt lat="43.9046342" lon="12.8666522"><ele>11.0</ele><time>2026-04-19T09:46:41.999Z</time></trkpt><trkpt lat="43.9047204" lon="12.8666527"><ele>10.600000000000001</ele><time>2026-04-19T09:46:45Z</time></trkpt><trkpt lat="43.9047937" lon="12.8667027"><ele>10.200000000000001</ele><time>2026-04-19T09:46:47Z</time></trkpt><trkpt lat="43.9049182" lon="12.8666775"><ele>9.8</ele><time>2026-04-19T09:46:49Z</time></trkpt><trkpt lat="43.9050114" lon="12.8665599"><ele>9.4</ele><time>2026-04-19T09:46:51Z</time></trkpt><trkpt lat="43.9050482" lon="12.866479"><ele>9.0</ele><time>2026-04-19T09:46:52Z</time></trkpt><trkpt lat="43.9050724" lon="12.866393"><ele>9.0</ele><time>2026-04-19T09:46:53Z</time></trkpt><trkpt lat="43.9050761" lon="12.866304"><ele>9.0</ele><time>2026-04-19T09:46:54Z</time></trkpt><trkpt lat="43.9050717" lon="12.8661667"><ele>9.0</ele><time>2026-04-19T09:46:56Z</time></trkpt><trkpt lat="43.9050724" lon="12.8660689"><ele>9.0</ele><time>2026-04-19T09:46:58.999Z</time></trkpt><trkpt lat="43.9051291" lon="12.8659974"><ele>9.0</ele><time>2026-04-19T09:47:02.999Z</time></trkpt><trkpt lat="43.9052026" lon="12.8659797"><ele>9.0</ele><time>2026-04-19T09:47:05Z</time></trkpt><trkpt lat="43.9052836" lon="12.8659618"><ele>9.0</ele><time>2026-04-19T09:47:08Z</time></trkpt><trkpt lat="43.9053583" lon="12.8659576"><ele>9.0</ele><time>2026-04-19T09:47:12Z</time></trkpt><trkpt lat="43.9054447" lon="12.8659668"><ele>9.0</ele><time>2026-04-19T09:47:15Z</time></trkpt><trkpt lat="43.9055258" lon="12.8660062"><ele>9.0</ele><time>2026-04-19T09:47:17Z</time></trkpt><trkpt lat="43.9055755" lon="12.8660668"><ele>9.0</ele><time>2026-04-19T09:47:17.999Z</time></trkpt><trkpt lat="43.905626" lon="12.8662146"><ele>9.0</ele><time>2026-04-19T09:47:20Z</time></trkpt><trkpt lat="43.905636" lon="12.8663162"><ele>9.0</ele><time>2026-04-19T09:47:21Z</time></trkpt><trkpt lat="43.9056413" lon="12.8664165"><ele>9.0</ele><time>2026-04-19T09:47:22Z</time></trkpt><trkpt lat="43.9056453" lon="12.8665267"><ele>9.0</ele><time>2026-04-19T09:47:23Z</time></trkpt><trkpt lat="43.9056504" lon="12.866647"><ele>9.0</ele><time>2026-04-19T09:47:24Z</time></trkpt><trkpt lat="43.9056576" lon="12.8667775"><ele>9.0</ele><time>2026-04-19T09:47:25Z</time></trkpt><trkpt lat="43.9056682" lon="12.8669089"><ele>9.0</ele><time>2026-04-19T09:47:26Z</time></trkpt><trkpt lat="43.9056757" lon="12.8670411"><ele>9.0</ele><time>2026-04-19T09:47:27Z</time></trkpt><trkpt lat="43.9056825" lon="12.867176"><ele>9.0</ele><time>2026-04-19T09:47:28Z</time></trkpt><trkpt lat="43.905692" lon="12.8673109"><ele>9.0</ele><time>2026-04-19T09:47:28.999Z</time></trkpt><trkpt lat="43.9057027" lon="12.8674454"><ele>9.0</ele><time>2026-04-19T09:47:30Z</time></trkpt><trkpt lat="43.9057142" lon="12.8675827"><ele>9.0</ele><time>2026-04-19T09:47:31Z</time></trkpt><trkpt lat="43.9057312" lon="12.8677193"><ele>9.6</ele><time>2026-04-19T09:47:32Z</time></trkpt><trkpt lat="43.9057518" lon="12.8678545"><ele>10.2</ele><time>2026-04-19T09:47:33Z</time></trkpt><trkpt lat="43.9057775" lon="12.8679875"><ele>10.799999999999999</ele><time>2026-04-19T09:47:34Z</time></trkpt><trkpt lat="43.9058083" lon="12.868114"><ele>11.4</ele><time>2026-04-19T09:47:35Z</time></trkpt><trkpt lat="43.9058421" lon="12.8682366"><ele>12.0</ele><time>2026-04-19T09:47:36Z</time></trkpt><trkpt lat="43.9058767" lon="12.8683666"><ele>11.4</ele><time>2026-04-19T09:47:37Z</time></trkpt><trkpt lat="43.9059196" lon="12.8684976"><ele>10.799999999999999</ele><time>2026-04-19T09:47:38Z</time></trkpt><trkpt lat="43.9059604" lon="12.8686266"><ele>10.2</ele><time>2026-04-19T09:47:39Z</time></trkpt><trkpt lat="43.9059992" lon="12.8687413"><ele>9.6</ele><time>2026-04-19T09:47:40Z</time></trkpt><trkpt lat="43.9060351" lon="12.8688472"><ele>9.0</ele><time>2026-04-19T09:47:41Z</time></trkpt><trkpt lat="43.9060638" lon="12.8689457"><ele>9.0</ele><time>2026-04-19T09:47:42Z</time></trkpt><trkpt lat="43.9060971" lon="12.8690452"><ele>9.0</ele><time>2026-04-19T09:47:43Z</time></trkpt><trkpt lat="43.9061276" lon="12.8691342"><ele>9.0</ele><time>2026-04-19T09:47:44Z</time></trkpt><trkpt lat="43.9061526" lon="12.8692172"><ele>9.0</ele><time>2026-04-19T09:47:45Z</time></trkpt><trkpt lat="43.9061745" lon="12.8693034"><ele>9.0</ele><time>2026-04-19T09:47:46Z</time></trkpt><trkpt lat="43.9062101" lon="12.8694648"><ele>9.0</ele><time>2026-04-19T09:47:48Z</time></trkpt><trkpt lat="43.9062096" lon="12.8695568"><ele>8.2</ele><time>2026-04-19T09:47:49Z</time></trkpt><trkpt lat="43.9061986" lon="12.8696558"><ele>7.4</ele><time>2026-04-19T09:47:50Z</time></trkpt><trkpt lat="43.9061782" lon="12.8697623"><ele>6.6</ele><time>2026-04-19T09:47:51Z</time></trkpt><trkpt lat="43.9061526" lon="12.8698921"><ele>5.8</ele><time>2026-04-19T09:47:52Z</time></trkpt><trkpt lat="43.9061132" lon="12.8700316"><ele>5.0</ele><time>2026-04-19T09:47:53Z</time></trkpt><trkpt lat="43.9060528" lon="12.8701617"><ele>4.75</ele><time>2026-04-19T09:47:54Z</time></trkpt><trkpt lat="43.9059781" lon="12.8702774"><ele>4.5</ele><time>2026-04-19T09:47:55Z</time></trkpt><trkpt lat="43.9058864" lon="12.8703771"><ele>4.25</ele><time>2026-04-19T09:47:56Z</time></trkpt><trkpt lat="43.9057818" lon="12.8704762"><ele>4.0</ele><time>2026-04-19T09:47:57Z</time></trkpt><trkpt lat="43.9056769" lon="12.8705787"><ele>4.0</ele><time>2026-04-19T09:47:58Z</time></trkpt><trkpt lat="43.9055673" lon="12.8706802"><ele>4.0</ele><time>2026-04-19T09:47:59Z</time></trkpt><trkpt lat="43.9054505" lon="12.8707889"><ele>4.0</ele><time>2026-04-19T09:48:00Z</time></trkpt><trkpt lat="43.9053242" lon="12.8708958"><ele>4.0</ele><time>2026-04-19T09:48:01Z</time></trkpt><trkpt lat="43.9051847" lon="12.8710098"><ele>4.0</ele><time>2026-04-19T09:48:01.999Z</time></trkpt><trkpt lat="43.9050357" lon="12.8711269"><ele>4.0</ele><time>2026-04-19T09:48:02.999Z</time></trkpt><trkpt lat="43.9048863" lon="12.8712533"><ele>4.0</ele><time>2026-04-19T09:48:04Z</time></trkpt><trkpt lat="43.9047396" lon="12.8713688"><ele>4.0</ele><time>2026-04-19T09:48:05Z</time></trkpt><trkpt lat="43.9045874" lon="12.8714968"><ele>4.0</ele><time>2026-04-19T09:48:06Z</time></trkpt><trkpt lat="43.9044314" lon="12.8716266"><ele>4.0</ele><time>2026-04-19T09:48:07Z</time></trkpt><trkpt lat="43.9042735" lon="12.871763"><ele>4.666666666666666</ele><time>2026-04-19T09:48:08Z</time></trkpt><trkpt lat="43.9041143" lon="12.8719046"><ele>5.333333333333333</ele><time>2026-04-19T09:48:09Z</time></trkpt><trkpt lat="43.9039459" lon="12.8720438"><ele>6.0</ele><time>2026-04-19T09:48:09.999Z</time></trkpt><trkpt lat="43.9037761" lon="12.87219"><ele>6.0</ele><time>2026-04-19T09:48:11Z</time></trkpt><trkpt lat="43.9036012" lon="12.8723352"><ele>6.0</ele><time>2026-04-19T09:48:11.999Z</time></trkpt><trkpt lat="43.9034231" lon="12.8724894"><ele>6.0</ele><time>2026-04-19T09:48:13Z</time></trkpt><trkpt lat="43.9032442" lon="12.8726512"><ele>6.0</ele><time>2026-04-19T09:48:13.999Z</time></trkpt><trkpt lat="43.9030582" lon="12.8728124"><ele>6.0</ele><time>2026-04-19T09:48:15Z</time></trkpt><trkpt lat="43.9028734" lon="12.8729751"><ele>6.0</ele><time>2026-04-19T09:48:16Z</time></trkpt><trkpt lat="43.9026901" lon="12.8731441"><ele>6.0</ele><time>2026-04-19T09:48:17Z</time></trkpt><trkpt lat="43.902508" lon="12.873324"><ele>6.0</ele><time>2026-04-19T09:48:18Z</time></trkpt><trkpt lat="43.9023262" lon="12.8735072"><ele>6.0</ele><time>2026-04-19T09:48:19Z</time></trkpt><trkpt lat="43.9021468" lon="12.8737042"><ele>7.0</ele><time>2026-04-19T09:48:20Z</time></trkpt><trkpt lat="43.9019727" lon="12.8739051"><ele>8.0</ele><time>2026-04-19T09:48:21Z</time></trkpt><trkpt lat="43.9017991" lon="12.8741132"><ele>7.5</ele><time>2026-04-19T09:48:22Z</time></trkpt><trkpt lat="43.9016269" lon="12.8743262"><ele>7.0</ele><time>2026-04-19T09:48:23Z</time></trkpt><trkpt lat="43.9014597" lon="12.8745514"><ele>7.0</ele><time>2026-04-19T09:48:24Z</time></trkpt><trkpt lat="43.9012925" lon="12.8747866"><ele>7.0</ele><time>2026-04-19T09:48:25Z</time></trkpt><trkpt lat="43.9011342" lon="12.8750218"><ele>6.5</ele><time>2026-04-19T09:48:26Z</time></trkpt><trkpt lat="43.9009751" lon="12.8752647"><ele>6.0</ele><time>2026-04-19T09:48:26.999Z</time></trkpt><trkpt lat="43.9008225" lon="12.8755119"><ele>6.0</ele><time>2026-04-19T09:48:28Z</time></trkpt><trkpt lat="43.9006678" lon="12.8757637"><ele>6.0</ele><time>2026-04-19T09:48:29Z</time></trkpt><trkpt lat="43.9005157" lon="12.8760159"><ele>7.0</ele><time>2026-04-19T09:48:30Z</time></trkpt><trkpt lat="43.900358" lon="12.8762697"><ele>8.0</ele><time>2026-04-19T09:48:31Z</time></trkpt><trkpt lat="43.9002032" lon="12.8765191"><ele>9.0</ele><time>2026-04-19T09:48:32Z</time></trkpt><trkpt lat="43.9000447" lon="12.8767647"><ele>10.0</ele><time>2026-04-19T09:48:33Z</time></trkpt><trkpt lat="43.8998922" lon="12.8770147"><ele>7.0</ele><time>2026-04-19T09:48:34Z</time></trkpt><trkpt lat="43.899736" lon="12.8772576"><ele>4.0</ele><time>2026-04-19T09:48:35Z</time></trkpt><trkpt lat="43.8995774" lon="12.8774955"><ele>5.0</ele><time>2026-04-19T09:48:36Z</time></trkpt><trkpt lat="43.8994188" lon="12.8777245"><ele>6.0</ele><time>2026-04-19T09:48:37Z</time></trkpt><trkpt lat="43.8992586" lon="12.8779484"><ele>7.0</ele><time>2026-04-19T09:48:38Z</time></trkpt><trkpt lat="43.8990944" lon="12.8781707"><ele>8.0</ele><time>2026-04-19T09:48:39Z</time></trkpt><trkpt lat="43.8989285" lon="12.8783872"><ele>9.0</ele><time>2026-04-19T09:48:40Z</time></trkpt><trkpt lat="43.8987535" lon="12.8785958"><ele>10.0</ele><time>2026-04-19T09:48:41Z</time></trkpt><trkpt lat="43.8985778" lon="12.8787969"><ele>10.0</ele><time>2026-04-19T09:48:42Z</time></trkpt><trkpt lat="43.8983895" lon="12.8789913"><ele>10.0</ele><time>2026-04-19T09:48:43Z</time></trkpt><trkpt lat="43.8982031" lon="12.879183"><ele>12.0</ele><time>2026-04-19T09:48:44Z</time></trkpt><trkpt lat="43.8980101" lon="12.8793772"><ele>14.0</ele><time>2026-04-19T09:48:45Z</time></trkpt><trkpt lat="43.8978066" lon="12.8795734"><ele>14.0</ele><time>2026-04-19T09:48:46Z</time></trkpt><trkpt lat="43.897606" lon="12.8797752"><ele>14.0</ele><time>2026-04-19T09:48:47Z</time></trkpt><trkpt lat="43.8974123" lon="12.8799775"><ele>12.0</ele><time>2026-04-19T09:48:48Z</time></trkpt><trkpt lat="43.8972185" lon="12.8801713"><ele>10.0</ele><time>2026-04-19T09:48:49Z</time></trkpt><trkpt lat="43.8970206" lon="12.8803707"><ele>10.0</ele><time>2026-04-19T09:48:50Z</time></trkpt><trkpt lat="43.8968199" lon="12.8805683"><ele>10.0</ele><time>2026-04-19T09:48:51Z</time></trkpt><trkpt lat="43.8966209" lon="12.8807618"><ele>9.0</ele><time>2026-04-19T09:48:52Z</time></trkpt><trkpt lat="43.8964258" lon="12.8809615"><ele>8.0</ele><time>2026-04-19T09:48:53Z</time></trkpt><trkpt lat="43.8962297" lon="12.8811532"><ele>8.0</ele><time>2026-04-19T09:48:54Z</time></trkpt><trkpt lat="43.8960257" lon="12.8813401"><ele>8.0</ele><time>2026-04-19T09:48:55Z</time></trkpt><trkpt lat="43.8958283" lon="12.8815309"><ele>7.5</ele><time>2026-04-19T09:48:56Z</time></trkpt><trkpt lat="43.8956385" lon="12.8817219"><ele>7.0</ele><time>2026-04-19T09:48:57Z</time></trkpt><trkpt lat="43.8954421" lon="12.8819081"><ele>7.0</ele><time>2026-04-19T09:48:58Z</time></trkpt><trkpt lat="43.8952523" lon="12.8820991"><ele>7.0</ele><time>2026-04-19T09:48:59Z</time></trkpt><trkpt lat="43.8950705" lon="12.8822863"><ele>6.666666666666667</ele><time>2026-04-19T09:49:00Z</time></trkpt><trkpt lat="43.894891" lon="12.8824703"><ele>6.333333333333334</ele><time>2026-04-19T09:49:01Z</time></trkpt><trkpt lat="43.894721" lon="12.8826421"><ele>6.0</ele><time>2026-04-19T09:49:02Z</time></trkpt><trkpt lat="43.8945639" lon="12.8827966"><ele>6.0</ele><time>2026-04-19T09:49:03Z</time></trkpt><trkpt lat="43.8944126" lon="12.8829424"><ele>6.0</ele><time>2026-04-19T09:49:04Z</time></trkpt><trkpt lat="43.8942681" lon="12.8830825"><ele>6.0</ele><time>2026-04-19T09:49:05Z</time></trkpt><trkpt lat="43.8941359" lon="12.8832166"><ele>7.0</ele><time>2026-04-19T09:49:06Z</time></trkpt><trkpt lat="43.8940127" lon="12.8833371"><ele>8.0</ele><time>2026-04-19T09:49:06.999Z</time></trkpt><trkpt lat="43.8939003" lon="12.8834516"><ele>9.0</ele><time>2026-04-19T09:49:08Z</time></trkpt><trkpt lat="43.8937944" lon="12.8835579"><ele>10.0</ele><time>2026-04-19T09:49:09Z</time></trkpt><trkpt lat="43.8936965" lon="12.8836557"><ele>10.0</ele><time>2026-04-19T09:49:10Z</time></trkpt><trkpt lat="43.893601" lon="12.883746"><ele>10.0</ele><time>2026-04-19T09:49:11Z</time></trkpt><trkpt lat="43.8934984" lon="12.8838151"><ele>10.0</ele><time>2026-04-19T09:49:12Z</time></trkpt><trkpt lat="43.8933893" lon="12.8838546"><ele>10.0</ele><time>2026-04-19T09:49:13Z</time></trkpt><trkpt lat="43.8932738" lon="12.8838656"><ele>9.25</ele><time>2026-04-19T09:49:14Z</time></trkpt><trkpt lat="43.8931628" lon="12.883884"><ele>8.5</ele><time>2026-04-19T09:49:15Z</time></trkpt><trkpt lat="43.8930567" lon="12.8839358"><ele>7.75</ele><time>2026-04-19T09:49:16Z</time></trkpt><trkpt lat="43.8929654" lon="12.8840282"><ele>7.0</ele><time>2026-04-19T09:49:17Z</time></trkpt><trkpt lat="43.8929022" lon="12.884159"><ele>7.75</ele><time>2026-04-19T09:49:17.999Z</time></trkpt><trkpt lat="43.8928681" lon="12.8843143"><ele>8.5</ele><time>2026-04-19T09:49:19Z</time></trkpt><trkpt lat="43.8928525" lon="12.8844934"><ele>9.25</ele><time>2026-04-19T09:49:20Z</time></trkpt><trkpt lat="43.8928221" lon="12.8846879"><ele>10.0</ele><time>2026-04-19T09:49:21Z</time></trkpt><trkpt lat="43.8927611" lon="12.8848665"><ele>10.0</ele><time>2026-04-19T09:49:22Z</time></trkpt><trkpt lat="43.8926628" lon="12.8850421"><ele>10.0</ele><time>2026-04-19T09:49:22.999Z</time></trkpt><trkpt lat="43.8925587" lon="12.8852254"><ele>10.0</ele><time>2026-04-19T09:49:24Z</time></trkpt><trkpt lat="43.8924524" lon="12.8854262"><ele>11.0</ele><time>2026-04-19T09:49:25Z</time></trkpt><trkpt lat="43.8923504" lon="12.8856377"><ele>12.0</ele><time>2026-04-19T09:49:26Z</time></trkpt><trkpt lat="43.8922529" lon="12.8858599"><ele>13.0</ele><time>2026-04-19T09:49:27Z</time></trkpt><trkpt lat="43.8921551" lon="12.8860852"><ele>13.0</ele><time>2026-04-19T09:49:28Z</time></trkpt><trkpt lat="43.8920679" lon="12.8863019"><ele>13.0</ele><time>2026-04-19T09:49:29Z</time></trkpt><trkpt lat="43.8919917" lon="12.8865155"><ele>13.0</ele><time>2026-04-19T09:49:30Z</time></trkpt><trkpt lat="43.8919295" lon="12.8867166"><ele>13.0</ele><time>2026-04-19T09:49:31Z</time></trkpt><trkpt lat="43.891874" lon="12.8868969"><ele>13.0</ele><time>2026-04-19T09:49:32Z</time></trkpt><trkpt lat="43.891828" lon="12.8870656"><ele>13.0</ele><time>2026-04-19T09:49:33Z</time></trkpt><trkpt lat="43.8917894" lon="12.8872211"><ele>13.0</ele><time>2026-04-19T09:49:34Z</time></trkpt><trkpt lat="43.8917543" lon="12.8873596"><ele>12.999999999999998</ele><time>2026-04-19T09:49:35Z</time></trkpt><trkpt lat="43.8917216" lon="12.8874817"><ele>13.0</ele><time>2026-04-19T09:49:36Z</time></trkpt><trkpt lat="43.8916949" lon="12.887583"><ele>13.0</ele><time>2026-04-19T09:49:37Z</time></trkpt><trkpt lat="43.8916574" lon="12.8877013"><ele>13.0</ele><time>2026-04-19T09:49:39Z</time></trkpt><trkpt lat="43.8916152" lon="12.8877927"><ele>12.999999999999998</ele><time>2026-04-19T09:49:41Z</time></trkpt><trkpt lat="43.8915715" lon="12.8878596"><ele>13.0</ele><time>2026-04-19T09:49:43Z</time></trkpt><trkpt lat="43.891475" lon="12.8879585"><ele>12.8</ele><time>2026-04-19T09:49:45Z</time></trkpt><trkpt lat="43.8914063" lon="12.8880295"><ele>12.600000000000001</ele><time>2026-04-19T09:49:46Z</time></trkpt><trkpt lat="43.8913441" lon="12.8881196"><ele>12.399999999999999</ele><time>2026-04-19T09:49:46.999Z</time></trkpt><trkpt lat="43.8912926" lon="12.8882362"><ele>12.2</ele><time>2026-04-19T09:49:48Z</time></trkpt><trkpt lat="43.8912658" lon="12.8883816"><ele>12.0</ele><time>2026-04-19T09:49:49Z</time></trkpt><trkpt lat="43.8912667" lon="12.8885416"><ele>12.0</ele><time>2026-04-19T09:49:50Z</time></trkpt><trkpt lat="43.8912899" lon="12.8886894"><ele>12.0</ele><time>2026-04-19T09:49:51Z</time></trkpt><trkpt lat="43.8913043" lon="12.8888312"><ele>12.0</ele><time>2026-04-19T09:49:52Z</time></trkpt><trkpt lat="43.8913053" lon="12.8889668"><ele>12.0</ele><time>2026-04-19T09:49:53Z</time></trkpt><trkpt lat="43.8912918" lon="12.8891106"><ele>12.0</ele><time>2026-04-19T09:49:54Z</time></trkpt><trkpt lat="43.8912589" lon="12.8892608"><ele>12.0</ele><time>2026-04-19T09:49:55Z</time></trkpt><trkpt lat="43.8912133" lon="12.889411"><ele>12.0</ele><time>2026-04-19T09:49:56Z</time></trkpt><trkpt lat="43.8911657" lon="12.8895584"><ele>12.0</ele><time>2026-04-19T09:49:57Z</time></trkpt><trkpt lat="43.8911151" lon="12.8897028"><ele>12.0</ele><time>2026-04-19T09:49:58Z</time></trkpt><trkpt lat="43.8910646" lon="12.8898491"><ele>12.0</ele><time>2026-04-19T09:49:59Z</time></trkpt><trkpt lat="43.8910133" lon="12.8900012"><ele>12.0</ele><time>2026-04-19T09:50:00Z</time></trkpt><trkpt lat="43.890966" lon="12.8901566"><ele>12.0</ele><time>2026-04-19T09:50:01Z</time></trkpt><trkpt lat="43.8909121" lon="12.8903182"><ele>12.0</ele><time>2026-04-19T09:50:02Z</time></trkpt><trkpt lat="43.8908559" lon="12.8904846"><ele>11.5</ele><time>2026-04-19T09:50:03Z</time></trkpt><trkpt lat="43.8907997" lon="12.8906574"><ele>11.0</ele><time>2026-04-19T09:50:04Z</time></trkpt><trkpt lat="43.8907417" lon="12.8908321"><ele>10.5</ele><time>2026-04-19T09:50:05Z</time></trkpt><trkpt lat="43.8906724" lon="12.8910098"><ele>10.0</ele><time>2026-04-19T09:50:06Z</time></trkpt><trkpt lat="43.8906064" lon="12.8911928"><ele>9.5</ele><time>2026-04-19T09:50:07Z</time></trkpt><trkpt lat="43.8905403" lon="12.891374"><ele>9.0</ele><time>2026-04-19T09:50:08Z</time></trkpt><trkpt lat="43.8904741" lon="12.8915626"><ele>8.5</ele><time>2026-04-19T09:50:09Z</time></trkpt><trkpt lat="43.8904101" lon="12.8917498"><ele>8.0</ele><time>2026-04-19T09:50:09.999Z</time></trkpt><trkpt lat="43.890346" lon="12.8919425"><ele>9.666666666666666</ele><time>2026-04-19T09:50:11Z</time></trkpt><trkpt lat="43.8902789" lon="12.8921367"><ele>11.333333333333332</ele><time>2026-04-19T09:50:12Z</time></trkpt><trkpt lat="43.8902195" lon="12.892325"><ele>13.0</ele><time>2026-04-19T09:50:13Z</time></trkpt><trkpt lat="43.8901548" lon="12.89252"><ele>14.0</ele><time>2026-04-19T09:50:13.999Z</time></trkpt><trkpt lat="43.8900905" lon="12.8927178"><ele>15.0</ele><time>2026-04-19T09:50:15Z</time></trkpt><trkpt lat="43.890026" lon="12.8929222"><ele>16.0</ele><time>2026-04-19T09:50:16Z</time></trkpt><trkpt lat="43.8899665" lon="12.8931165"><ele>16.0</ele><time>2026-04-19T09:50:17Z</time></trkpt><trkpt lat="43.8899121" lon="12.8933112"><ele>16.0</ele><time>2026-04-19T09:50:18Z</time></trkpt><trkpt lat="43.8898573" lon="12.8935019"><ele>16.0</ele><time>2026-04-19T09:50:19Z</time></trkpt><trkpt lat="43.8898133" lon="12.89369"><ele>16.0</ele><time>2026-04-19T09:50:20Z</time></trkpt><trkpt lat="43.8897728" lon="12.8938865"><ele>15.75</ele><time>2026-04-19T09:50:20.999Z</time></trkpt><trkpt lat="43.8897325" lon="12.8940765"><ele>15.5</ele><time>2026-04-19T09:50:22Z</time></trkpt><trkpt lat="43.8896895" lon="12.8942736"><ele>15.25</ele><time>2026-04-19T09:50:23Z</time></trkpt><trkpt lat="43.8896555" lon="12.8944689"><ele>15.0</ele><time>2026-04-19T09:50:24Z</time></trkpt><trkpt lat="43.8896159" lon="12.8946708"><ele>15.0</ele><time>2026-04-19T09:50:25Z</time></trkpt><trkpt lat="43.8895858" lon="12.8948694"><ele>15.0</ele><time>2026-04-19T09:50:26Z</time></trkpt><trkpt lat="43.8895596" lon="12.8950711"><ele>15.0</ele><time>2026-04-19T09:50:27Z</time></trkpt><trkpt lat="43.8895321" lon="12.8952821"><ele>15.0</ele><time>2026-04-19T09:50:28Z</time></trkpt><trkpt lat="43.8895148" lon="12.89549"><ele>15.0</ele><time>2026-04-19T09:50:28.999Z</time></trkpt><trkpt lat="43.8894954" lon="12.8956975"><ele>15.0</ele><time>2026-04-19T09:50:30Z</time></trkpt><trkpt lat="43.8894798" lon="12.8959077"><ele>15.0</ele><time>2026-04-19T09:50:31Z</time></trkpt><trkpt lat="43.8894678" lon="12.8961265"><ele>15.666666666666668</ele><time>2026-04-19T09:50:32Z</time></trkpt><trkpt lat="43.8894609" lon="12.8963447"><ele>16.333333333333336</ele><time>2026-04-19T09:50:33Z</time></trkpt><trkpt lat="43.8894587" lon="12.8965631"><ele>17.0</ele><time>2026-04-19T09:50:34Z</time></trkpt><trkpt lat="43.8894555" lon="12.8967821"><ele>17.333333333333336</ele><time>2026-04-19T09:50:35Z</time></trkpt><trkpt lat="43.8894492" lon="12.8970048"><ele>17.666666666666668</ele><time>2026-04-19T09:50:36Z</time></trkpt><trkpt lat="43.8894441" lon="12.8972192"><ele>18.0</ele><time>2026-04-19T09:50:37Z</time></trkpt><trkpt lat="43.8894404" lon="12.8974252"><ele>17.75</ele><time>2026-04-19T09:50:38Z</time></trkpt><trkpt lat="43.8894421" lon="12.8976262"><ele>17.5</ele><time>2026-04-19T09:50:39Z</time></trkpt><trkpt lat="43.8894382" lon="12.8978138"><ele>17.25</ele><time>2026-04-19T09:50:40Z</time></trkpt><trkpt lat="43.889435" lon="12.8979954"><ele>17.0</ele><time>2026-04-19T09:50:41Z</time></trkpt><trkpt lat="43.8894316" lon="12.8981713"><ele>17.0</ele><time>2026-04-19T09:50:42Z</time></trkpt><trkpt lat="43.8894319" lon="12.8983485"><ele>17.0</ele><time>2026-04-19T09:50:43Z</time></trkpt><trkpt lat="43.8894311" lon="12.8985233"><ele>17.0</ele><time>2026-04-19T09:50:44Z</time></trkpt><trkpt lat="43.8894237" lon="12.8986935"><ele>17.0</ele><time>2026-04-19T09:50:45Z</time></trkpt><trkpt lat="43.8894125" lon="12.8988576"><ele>16.5</ele><time>2026-04-19T09:50:46Z</time></trkpt><trkpt lat="43.8893975" lon="12.8990101"><ele>16.0</ele><time>2026-04-19T09:50:47Z</time></trkpt><trkpt lat="43.8893762" lon="12.8991452"><ele>15.5</ele><time>2026-04-19T09:50:48Z</time></trkpt><trkpt lat="43.8893507" lon="12.899252"><ele>15.0</ele><time>2026-04-19T09:50:49Z</time></trkpt><trkpt lat="43.8893141" lon="12.8993416"><ele>14.500000000000002</ele><time>2026-04-19T09:50:50Z</time></trkpt><trkpt lat="43.8892711" lon="12.8994141"><ele>14.0</ele><time>2026-04-19T09:50:51Z</time></trkpt><trkpt lat="43.889218" lon="12.8994903"><ele>13.6</ele><time>2026-04-19T09:50:52Z</time></trkpt><trkpt lat="43.8891504" lon="12.8995588"><ele>13.2</ele><time>2026-04-19T09:50:53Z</time></trkpt><trkpt lat="43.8890695" lon="12.8996354"><ele>12.799999999999999</ele><time>2026-04-19T09:50:54Z</time></trkpt><trkpt lat="43.8889994" lon="12.8997325"><ele>12.399999999999999</ele><time>2026-04-19T09:50:55Z</time></trkpt><trkpt lat="43.8889231" lon="12.899837"><ele>12.0</ele><time>2026-04-19T09:50:56Z</time></trkpt><trkpt lat="43.8888375" lon="12.8999218"><ele>12.0</ele><time>2026-04-19T09:50:57Z</time></trkpt><trkpt lat="43.888729" lon="12.8999518"><ele>12.0</ele><time>2026-04-19T09:50:58Z</time></trkpt><trkpt lat="43.8886026" lon="12.8999808"><ele>12.0</ele><time>2026-04-19T09:50:59Z</time></trkpt><trkpt lat="43.8884681" lon="12.9000154"><ele>12.0</ele><time>2026-04-19T09:51:00Z</time></trkpt><trkpt lat="43.888344" lon="12.9000641"><ele>12.0</ele><time>2026-04-19T09:51:01Z</time></trkpt><trkpt lat="43.888216" lon="12.9001348"><ele>12.0</ele><time>2026-04-19T09:51:01.999Z</time></trkpt><trkpt lat="43.8880831" lon="12.9002025"><ele>12.0</ele><time>2026-04-19T09:51:03Z</time></trkpt><trkpt lat="43.8879435" lon="12.9002715"><ele>12.0</ele><time>2026-04-19T09:51:04Z</time></trkpt><trkpt lat="43.8878004" lon="12.9003454"><ele>12.0</ele><time>2026-04-19T09:51:05Z</time></trkpt><trkpt lat="43.8876524" lon="12.9004255"><ele>12.0</ele><time>2026-04-19T09:51:06Z</time></trkpt><trkpt lat="43.8875082" lon="12.9005185"><ele>12.0</ele><time>2026-04-19T09:51:07Z</time></trkpt><trkpt lat="43.8873638" lon="12.9006238"><ele>13.0</ele><time>2026-04-19T09:51:08Z</time></trkpt><trkpt lat="43.8872216" lon="12.9007432"><ele>14.0</ele><time>2026-04-19T09:51:09Z</time></trkpt><trkpt lat="43.8870808" lon="12.900858"><ele>15.0</ele><time>2026-04-19T09:51:10Z</time></trkpt><trkpt lat="43.8869413" lon="12.9009727"><ele>15.0</ele><time>2026-04-19T09:51:11Z</time></trkpt><trkpt lat="43.8867962" lon="12.9010869"><ele>15.0</ele><time>2026-04-19T09:51:12Z</time></trkpt><trkpt lat="43.886649" lon="12.9012023"><ele>15.0</ele><time>2026-04-19T09:51:13Z</time></trkpt><trkpt lat="43.8865048" lon="12.9013179"><ele>15.0</ele><time>2026-04-19T09:51:14Z</time></trkpt><trkpt lat="43.8863567" lon="12.901443"><ele>15.0</ele><time>2026-04-19T09:51:15Z</time></trkpt><trkpt lat="43.8862136" lon="12.9015693"><ele>15.0</ele><time>2026-04-19T09:51:16Z</time></trkpt><trkpt lat="43.8860742" lon="12.901698"><ele>14.666666666666668</ele><time>2026-04-19T09:51:16.999Z</time></trkpt><trkpt lat="43.8859335" lon="12.9018213"><ele>14.333333333333334</ele><time>2026-04-19T09:51:18Z</time></trkpt><trkpt lat="43.8857908" lon="12.9019336"><ele>14.0</ele><time>2026-04-19T09:51:18.999Z</time></trkpt><trkpt lat="43.8856403" lon="12.9020174"><ele>14.666666666666668</ele><time>2026-04-19T09:51:20Z</time></trkpt><trkpt lat="43.8854936" lon="12.9020758"><ele>15.333333333333332</ele><time>2026-04-19T09:51:21Z</time></trkpt><trkpt lat="43.8853329" lon="12.9020989"><ele>16.0</ele><time>2026-04-19T09:51:22Z</time></trkpt><trkpt lat="43.8851766" lon="12.9021032"><ele>16.25</ele><time>2026-04-19T09:51:22.999Z</time></trkpt><trkpt lat="43.8850286" lon="12.9021044"><ele>16.5</ele><time>2026-04-19T09:51:24Z</time></trkpt><trkpt lat="43.8848952" lon="12.9020928"><ele>16.75</ele><time>2026-04-19T09:51:25Z</time></trkpt><trkpt lat="43.8847807" lon="12.9020573"><ele>17.0</ele><time>2026-04-19T09:51:26Z</time></trkpt><trkpt lat="43.8847113" lon="12.9020097"><ele>17.0</ele><time>2026-04-19T09:51:28Z</time></trkpt><trkpt lat="43.8846302" lon="12.9020446"><ele>17.0</ele><time>2026-04-19T09:51:41Z</time></trkpt><trkpt lat="43.8844907" lon="12.9020609"><ele>17.0</ele><time>2026-04-19T09:51:43Z</time></trkpt><trkpt lat="43.8843762" lon="12.9020225"><ele>17.0</ele><time>2026-04-19T09:51:44Z</time></trkpt><trkpt lat="43.8842754" lon="12.9019912"><ele>17.0</ele><time>2026-04-19T09:51:45Z</time></trkpt><trkpt lat="43.8841734" lon="12.901952"><ele>18.0</ele><time>2026-04-19T09:51:46Z</time></trkpt><trkpt lat="43.8840581" lon="12.9019245"><ele>19.0</ele><time>2026-04-19T09:51:47Z</time></trkpt><trkpt lat="43.8839461" lon="12.9018802"><ele>20.0</ele><time>2026-04-19T09:51:48Z</time></trkpt><trkpt lat="43.8838327" lon="12.9018338"><ele>21.0</ele><time>2026-04-19T09:51:49Z</time></trkpt><trkpt lat="43.8837161" lon="12.901782"><ele>20.75</ele><time>2026-04-19T09:51:50Z</time></trkpt><trkpt lat="43.8836028" lon="12.9017404"><ele>20.5</ele><time>2026-04-19T09:51:51Z</time></trkpt><trkpt lat="43.8834937" lon="12.9016954"><ele>20.25</ele><time>2026-04-19T09:51:52Z</time></trkpt><trkpt lat="43.8833845" lon="12.9016416"><ele>20.0</ele><time>2026-04-19T09:51:53Z</time></trkpt><trkpt lat="43.8832707" lon="12.9016006"><ele>20.0</ele><time>2026-04-19T09:51:54Z</time></trkpt><trkpt lat="43.8831545" lon="12.9015528"><ele>20.0</ele><time>2026-04-19T09:51:55Z</time></trkpt><trkpt lat="43.8830416" lon="12.9015063"><ele>20.0</ele><time>2026-04-19T09:51:56Z</time></trkpt><trkpt lat="43.882933" lon="12.9014609"><ele>20.0</ele><time>2026-04-19T09:51:57Z</time></trkpt><trkpt lat="43.8828352" lon="12.9014142"><ele>20.0</ele><time>2026-04-19T09:51:58Z</time></trkpt><trkpt lat="43.8827467" lon="12.9013834"><ele>20.0</ele><time>2026-04-19T09:51:59Z</time></trkpt><trkpt lat="43.8826807" lon="12.9013487"><ele>20.0</ele><time>2026-04-19T09:52:00Z</time></trkpt><trkpt lat="43.8826187" lon="12.9013255"><ele>20.0</ele><time>2026-04-19T09:52:01Z</time></trkpt><trkpt lat="43.8825139" lon="12.9013909"><ele>20.0</ele><time>2026-04-19T09:52:04Z</time></trkpt><trkpt lat="43.882466" lon="12.9014774"><ele>20.0</ele><time>2026-04-19T09:52:05Z</time></trkpt><trkpt lat="43.8824158" lon="12.9015548"><ele>20.0</ele><time>2026-04-19T09:52:06Z</time></trkpt><trkpt lat="43.8823308" lon="12.9016456"><ele>20.0</ele><time>2026-04-19T09:52:06.999Z</time></trkpt><trkpt lat="43.8822684" lon="12.901739"><ele>20.0</ele><time>2026-04-19T09:52:08Z</time></trkpt><trkpt lat="43.8821917" lon="12.901825"><ele>20.0</ele><time>2026-04-19T09:52:09Z</time></trkpt><trkpt lat="43.8821085" lon="12.9019126"><ele>20.0</ele><time>2026-04-19T09:52:10Z</time></trkpt><trkpt lat="43.8820331" lon="12.9020008"><ele>19.6</ele><time>2026-04-19T09:52:11Z</time></trkpt><trkpt lat="43.881964" lon="12.9020878"><ele>19.2</ele><time>2026-04-19T09:52:12Z</time></trkpt><trkpt lat="43.8818955" lon="12.902185"><ele>18.8</ele><time>2026-04-19T09:52:13Z</time></trkpt><trkpt lat="43.8818286" lon="12.9022807"><ele>18.4</ele><time>2026-04-19T09:52:14Z</time></trkpt><trkpt lat="43.881771" lon="12.902385"><ele>18.0</ele><time>2026-04-19T09:52:15Z</time></trkpt><trkpt lat="43.8817174" lon="12.9024932"><ele>17.8</ele><time>2026-04-19T09:52:16Z</time></trkpt><trkpt lat="43.8816753" lon="12.9026123"><ele>17.6</ele><time>2026-04-19T09:52:17Z</time></trkpt><trkpt lat="43.8816408" lon="12.9027265"><ele>17.4</ele><time>2026-04-19T09:52:18Z</time></trkpt><trkpt lat="43.8815975" lon="12.9028631"><ele>17.2</ele><time>2026-04-19T09:52:19Z</time></trkpt><trkpt lat="43.8815541" lon="12.9030025"><ele>17.0</ele><time>2026-04-19T09:52:20Z</time></trkpt><trkpt lat="43.8815146" lon="12.9031463"><ele>17.0</ele><time>2026-04-19T09:52:21Z</time></trkpt><trkpt lat="43.8814775" lon="12.9032957"><ele>17.0</ele><time>2026-04-19T09:52:22Z</time></trkpt><trkpt lat="43.8814386" lon="12.9034365"><ele>17.0</ele><time>2026-04-19T09:52:23Z</time></trkpt><trkpt lat="43.8813979" lon="12.9035736"><ele>17.0</ele><time>2026-04-19T09:52:24Z</time></trkpt><trkpt lat="43.8813582" lon="12.9036894"><ele>17.0</ele><time>2026-04-19T09:52:25Z</time></trkpt><trkpt lat="43.88132" lon="12.9038137"><ele>17.166666666666668</ele><time>2026-04-19T09:52:26Z</time></trkpt><trkpt lat="43.8812993" lon="12.9039395"><ele>17.333333333333336</ele><time>2026-04-19T09:52:27Z</time></trkpt><trkpt lat="43.8812887" lon="12.9040605"><ele>17.5</ele><time>2026-04-19T09:52:28Z</time></trkpt><trkpt lat="43.8812949" lon="12.904172"><ele>17.666666666666668</ele><time>2026-04-19T09:52:29Z</time></trkpt><trkpt lat="43.8812928" lon="12.9042711"><ele>17.833333333333332</ele><time>2026-04-19T09:52:30Z</time></trkpt><trkpt lat="43.8812439" lon="12.9044"><ele>18.0</ele><time>2026-04-19T09:52:32Z</time></trkpt><trkpt lat="43.8811064" lon="12.9044616"><ele>19.2</ele><time>2026-04-19T09:52:34Z</time></trkpt><trkpt lat="43.8810133" lon="12.904497"><ele>20.4</ele><time>2026-04-19T09:52:34.999Z</time></trkpt><trkpt lat="43.8809185" lon="12.9045378"><ele>21.599999999999998</ele><time>2026-04-19T09:52:36Z</time></trkpt><trkpt lat="43.8808089" lon="12.9045824"><ele>22.8</ele><time>2026-04-19T09:52:37Z</time></trkpt><trkpt lat="43.88069" lon="12.9046277"><ele>24.0</ele><time>2026-04-19T09:52:37.999Z</time></trkpt><trkpt lat="43.8805607" lon="12.9046734"><ele>24.5</ele><time>2026-04-19T09:52:39Z</time></trkpt><trkpt lat="43.8804197" lon="12.9047085"><ele>25.0</ele><time>2026-04-19T09:52:40Z</time></trkpt><trkpt lat="43.8802718" lon="12.9047305"><ele>25.5</ele><time>2026-04-19T09:52:41Z</time></trkpt><trkpt lat="43.880131" lon="12.9047517"><ele>26.0</ele><time>2026-04-19T09:52:42Z</time></trkpt><trkpt lat="43.8799858" lon="12.9047601"><ele>26.0</ele><time>2026-04-19T09:52:43Z</time></trkpt><trkpt lat="43.8798414" lon="12.9047624"><ele>26.0</ele><time>2026-04-19T09:52:44Z</time></trkpt><trkpt lat="43.8796913" lon="12.9047644"><ele>26.0</ele><time>2026-04-19T09:52:45Z</time></trkpt><trkpt lat="43.87954" lon="12.904776"><ele>26.0</ele><time>2026-04-19T09:52:46Z</time></trkpt><trkpt lat="43.8793814" lon="12.9047578"><ele>25.5</ele><time>2026-04-19T09:52:47Z</time></trkpt><trkpt lat="43.8792361" lon="12.9047263"><ele>25.0</ele><time>2026-04-19T09:52:48Z</time></trkpt><trkpt lat="43.879099" lon="12.9046895"><ele>24.5</ele><time>2026-04-19T09:52:49Z</time></trkpt><trkpt lat="43.8789655" lon="12.9046623"><ele>24.0</ele><time>2026-04-19T09:52:50Z</time></trkpt><trkpt lat="43.8788323" lon="12.9046617"><ele>24.0</ele><time>2026-04-19T09:52:51Z</time></trkpt><trkpt lat="43.8786985" lon="12.9047007"><ele>24.0</ele><time>2026-04-19T09:52:52Z</time></trkpt><trkpt lat="43.8785673" lon="12.9047876"><ele>24.0</ele><time>2026-04-19T09:52:53Z</time></trkpt><trkpt lat="43.8784447" lon="12.9049254"><ele>24.0</ele><time>2026-04-19T09:52:54Z</time></trkpt><trkpt lat="43.8783208" lon="12.9050773"><ele>23.333333333333332</ele><time>2026-04-19T09:52:55Z</time></trkpt><trkpt lat="43.8781941" lon="12.9052348"><ele>22.666666666666664</ele><time>2026-04-19T09:52:56Z</time></trkpt><trkpt lat="43.8780594" lon="12.9054021"><ele>22.0</ele><time>2026-04-19T09:52:57Z</time></trkpt><trkpt lat="43.8779264" lon="12.9055759"><ele>22.0</ele><time>2026-04-19T09:52:57.999Z</time></trkpt><trkpt lat="43.8778059" lon="12.9057615"><ele>22.0</ele><time>2026-04-19T09:52:59Z</time></trkpt><trkpt lat="43.8777042" lon="12.9059572"><ele>22.0</ele><time>2026-04-19T09:53:00Z</time></trkpt><trkpt lat="43.877627" lon="12.9061567"><ele>22.75</ele><time>2026-04-19T09:53:01Z</time></trkpt><trkpt lat="43.8775564" lon="12.9063448"><ele>23.5</ele><time>2026-04-19T09:53:02Z</time></trkpt><trkpt lat="43.8774884" lon="12.9065131"><ele>24.25</ele><time>2026-04-19T09:53:03Z</time></trkpt><trkpt lat="43.8774089" lon="12.9066589"><ele>25.0</ele><time>2026-04-19T09:53:04Z</time></trkpt><trkpt lat="43.8773041" lon="12.906786"><ele>25.0</ele><time>2026-04-19T09:53:04.999Z</time></trkpt><trkpt lat="43.8772104" lon="12.9069197"><ele>25.0</ele><time>2026-04-19T09:53:05.999Z</time></trkpt><trkpt lat="43.8771029" lon="12.9070493"><ele>25.0</ele><time>2026-04-19T09:53:07Z</time></trkpt><trkpt lat="43.877002" lon="12.9071901"><ele>25.0</ele><time>2026-04-19T09:53:08Z</time></trkpt><trkpt lat="43.876916" lon="12.9073166"><ele>25.0</ele><time>2026-04-19T09:53:09Z</time></trkpt><trkpt lat="43.8768519" lon="12.9074612"><ele>25.0</ele><time>2026-04-19T09:53:10Z</time></trkpt><trkpt lat="43.8767888" lon="12.9076297"><ele>25.0</ele><time>2026-04-19T09:53:11Z</time></trkpt><trkpt lat="43.8767674" lon="12.9077825"><ele>25.0</ele><time>2026-04-19T09:53:12Z</time></trkpt><trkpt lat="43.876737" lon="12.9079503"><ele>26.25</ele><time>2026-04-19T09:53:13Z</time></trkpt><trkpt lat="43.8767048" lon="12.9081116"><ele>27.5</ele><time>2026-04-19T09:53:14Z</time></trkpt><trkpt lat="43.8766592" lon="12.9082694"><ele>28.75</ele><time>2026-04-19T09:53:15Z</time></trkpt><trkpt lat="43.8765884" lon="12.9084272"><ele>30.0</ele><time>2026-04-19T09:53:15.999Z</time></trkpt><trkpt lat="43.8765114" lon="12.9085762"><ele>30.0</ele><time>2026-04-19T09:53:17Z</time></trkpt><trkpt lat="43.8764211" lon="12.9087237"><ele>30.0</ele><time>2026-04-19T09:53:18Z</time></trkpt><trkpt lat="43.8763212" lon="12.9088719"><ele>30.0</ele><time>2026-04-19T09:53:19Z</time></trkpt><trkpt lat="43.8762407" lon="12.9090603"><ele>30.0</ele><time>2026-04-19T09:53:20Z</time></trkpt><trkpt lat="43.876167" lon="12.9092504"><ele>30.0</ele><time>2026-04-19T09:53:21Z</time></trkpt><trkpt lat="43.8761273" lon="12.9094713"><ele>30.0</ele><time>2026-04-19T09:53:22Z</time></trkpt><trkpt lat="43.8760848" lon="12.9096868"><ele>30.0</ele><time>2026-04-19T09:53:23Z</time></trkpt><trkpt lat="43.8760247" lon="12.9098898"><ele>30.5</ele><time>2026-04-19T09:53:24Z</time></trkpt><trkpt lat="43.8759472" lon="12.9100795"><ele>31.0</ele><time>2026-04-19T09:53:25Z</time></trkpt><trkpt lat="43.8758795" lon="12.9102547"><ele>31.5</ele><time>2026-04-19T09:53:25.999Z</time></trkpt><trkpt lat="43.8757992" lon="12.9104268"><ele>32.0</ele><time>2026-04-19T09:53:27Z</time></trkpt><trkpt lat="43.8757338" lon="12.9105888"><ele>32.25</ele><time>2026-04-19T09:53:28Z</time></trkpt><trkpt lat="43.8756517" lon="12.9107422"><ele>32.5</ele><time>2026-04-19T09:53:29Z</time></trkpt><trkpt lat="43.8755617" lon="12.9108826"><ele>32.75</ele><time>2026-04-19T09:53:30Z</time></trkpt><trkpt lat="43.8754613" lon="12.9110108"><ele>33.0</ele><time>2026-04-19T09:53:31Z</time></trkpt><trkpt lat="43.8753387" lon="12.9111225"><ele>33.0</ele><time>2026-04-19T09:53:32Z</time></trkpt><trkpt lat="43.8752054" lon="12.9112218"><ele>33.0</ele><time>2026-04-19T09:53:33Z</time></trkpt><trkpt lat="43.8750611" lon="12.9113141"><ele>33.0</ele><time>2026-04-19T09:53:34Z</time></trkpt><trkpt lat="43.8749147" lon="12.9113893"><ele>35.333333333333336</ele><time>2026-04-19T09:53:35Z</time></trkpt><trkpt lat="43.8747438" lon="12.9114576"><ele>37.66666666666667</ele><time>2026-04-19T09:53:36Z</time></trkpt><trkpt lat="43.8745874" lon="12.9115107"><ele>40.0</ele><time>2026-04-19T09:53:37Z</time></trkpt><trkpt lat="43.8744353" lon="12.9115785"><ele>40.0</ele><time>2026-04-19T09:53:38Z</time></trkpt><trkpt lat="43.8742834" lon="12.9116671"><ele>40.0</ele><time>2026-04-19T09:53:39Z</time></trkpt><trkpt lat="43.8741336" lon="12.9117608"><ele>40.0</ele><time>2026-04-19T09:53:40Z</time></trkpt><trkpt lat="43.8739911" lon="12.9118505"><ele>41.0</ele><time>2026-04-19T09:53:41Z</time></trkpt><trkpt lat="43.8738462" lon="12.9119756"><ele>42.0</ele><time>2026-04-19T09:53:42Z</time></trkpt><trkpt lat="43.8737081" lon="12.9121156"><ele>43.0</ele><time>2026-04-19T09:53:43Z</time></trkpt><trkpt lat="43.873569" lon="12.9122641"><ele>43.333333333333336</ele><time>2026-04-19T09:53:44Z</time></trkpt><trkpt lat="43.8734279" lon="12.9124167"><ele>43.666666666666664</ele><time>2026-04-19T09:53:45Z</time></trkpt><trkpt lat="43.8732878" lon="12.9125721"><ele>44.0</ele><time>2026-04-19T09:53:46Z</time></trkpt><trkpt lat="43.8731468" lon="12.9127255"><ele>44.0</ele><time>2026-04-19T09:53:47Z</time></trkpt><trkpt lat="43.8730046" lon="12.9128845"><ele>44.0</ele><time>2026-04-19T09:53:48Z</time></trkpt><trkpt lat="43.8728671" lon="12.9130401"><ele>44.0</ele><time>2026-04-19T09:53:49Z</time></trkpt><trkpt lat="43.8727356" lon="12.9131868"><ele>45.33333333333333</ele><time>2026-04-19T09:53:50Z</time></trkpt><trkpt lat="43.8726018" lon="12.913336"><ele>46.666666666666664</ele><time>2026-04-19T09:53:50.999Z</time></trkpt><trkpt lat="43.8724689" lon="12.9134812"><ele>48.0</ele><time>2026-04-19T09:53:52Z</time></trkpt><trkpt lat="43.8723352" lon="12.9136166"><ele>48.0</ele><time>2026-04-19T09:53:53Z</time></trkpt><trkpt lat="43.8722232" lon="12.9137559"><ele>48.0</ele><time>2026-04-19T09:53:54Z</time></trkpt><trkpt lat="43.8721088" lon="12.9138677"><ele>48.0</ele><time>2026-04-19T09:53:55Z</time></trkpt><trkpt lat="43.8720026" lon="12.9139566"><ele>48.0</ele><time>2026-04-19T09:53:56Z</time></trkpt><trkpt lat="43.871905" lon="12.9140129"><ele>48.0</ele><time>2026-04-19T09:53:57Z</time></trkpt><trkpt lat="43.8718195" lon="12.914026"><ele>48.0</ele><time>2026-04-19T09:53:57.999Z</time></trkpt><trkpt lat="43.8717322" lon="12.9140095"><ele>48.0</ele><time>2026-04-19T09:53:59Z</time></trkpt><trkpt lat="43.8716427" lon="12.9139589"><ele>48.0</ele><time>2026-04-19T09:54:00Z</time></trkpt><trkpt lat="43.871546" lon="12.9138936"><ele>48.0</ele><time>2026-04-19T09:54:01Z</time></trkpt><trkpt lat="43.871441" lon="12.9138194"><ele>49.25</ele><time>2026-04-19T09:54:02Z</time></trkpt><trkpt lat="43.8713393" lon="12.9137345"><ele>50.5</ele><time>2026-04-19T09:54:03Z</time></trkpt><trkpt lat="43.8712342" lon="12.9136565"><ele>51.75</ele><time>2026-04-19T09:54:04Z</time></trkpt><trkpt lat="43.8711115" lon="12.9135632"><ele>53.0</ele><time>2026-04-19T09:54:04.999Z</time></trkpt><trkpt lat="43.8709959" lon="12.9134793"><ele>55.5</ele><time>2026-04-19T09:54:06Z</time></trkpt><trkpt lat="43.8708771" lon="12.9133875"><ele>58.0</ele><time>2026-04-19T09:54:07Z</time></trkpt><trkpt lat="43.8707508" lon="12.9133101"><ele>60.5</ele><time>2026-04-19T09:54:08Z</time></trkpt><trkpt lat="43.870616" lon="12.9132474"><ele>63.0</ele><time>2026-04-19T09:54:09Z</time></trkpt><trkpt lat="43.8704854" lon="12.9131905"><ele>63.0</ele><time>2026-04-19T09:54:09.999Z</time></trkpt><trkpt lat="43.8703455" lon="12.9131354"><ele>63.0</ele><time>2026-04-19T09:54:11Z</time></trkpt><trkpt lat="43.8702054" lon="12.9130947"><ele>63.0</ele><time>2026-04-19T09:54:12Z</time></trkpt><trkpt lat="43.8700734" lon="12.9130449"><ele>63.0</ele><time>2026-04-19T09:54:13Z</time></trkpt><trkpt lat="43.8699532" lon="12.9130157"><ele>65.0</ele><time>2026-04-19T09:54:14Z</time></trkpt><trkpt lat="43.8698268" lon="12.9129887"><ele>67.0</ele><time>2026-04-19T09:54:15Z</time></trkpt><trkpt lat="43.8697002" lon="12.9129512"><ele>69.0</ele><time>2026-04-19T09:54:16Z</time></trkpt><trkpt lat="43.8695813" lon="12.9129157"><ele>71.0</ele><time>2026-04-19T09:54:17Z</time></trkpt><trkpt lat="43.869479" lon="12.9128936"><ele>71.0</ele><time>2026-04-19T09:54:18Z</time></trkpt><trkpt lat="43.8693773" lon="12.9128746"><ele>71.0</ele><time>2026-04-19T09:54:19Z</time></trkpt><trkpt lat="43.869287" lon="12.9129041"><ele>71.0</ele><time>2026-04-19T09:54:20Z</time></trkpt><trkpt lat="43.8691973" lon="12.9129685"><ele>71.0</ele><time>2026-04-19T09:54:21Z</time></trkpt><trkpt lat="43.8691317" lon="12.9130685"><ele>71.0</ele><time>2026-04-19T09:54:22Z</time></trkpt><trkpt lat="43.869087" lon="12.9132106"><ele>73.8</ele><time>2026-04-19T09:54:23Z</time></trkpt><trkpt lat="43.869084" lon="12.9133537"><ele>76.6</ele><time>2026-04-19T09:54:24Z</time></trkpt><trkpt lat="43.8690629" lon="12.9135056"><ele>79.4</ele><time>2026-04-19T09:54:25Z</time></trkpt><trkpt lat="43.869025" lon="12.9136625"><ele>82.2</ele><time>2026-04-19T09:54:26Z</time></trkpt><trkpt lat="43.8689622" lon="12.9137743"><ele>85.0</ele><time>2026-04-19T09:54:27Z</time></trkpt><trkpt lat="43.868888" lon="12.9138462"><ele>88.75</ele><time>2026-04-19T09:54:28Z</time></trkpt><trkpt lat="43.8688147" lon="12.9139114"><ele>92.5</ele><time>2026-04-19T09:54:29Z</time></trkpt><trkpt lat="43.8687259" lon="12.9139386"><ele>96.25</ele><time>2026-04-19T09:54:30Z</time></trkpt><trkpt lat="43.8686038" lon="12.9138518"><ele>100.0</ele><time>2026-04-19T09:54:31Z</time></trkpt><trkpt lat="43.8685121" lon="12.9136975"><ele>100.0</ele><time>2026-04-19T09:54:32Z</time></trkpt><trkpt lat="43.868465" lon="12.9135513"><ele>100.0</ele><time>2026-04-19T09:54:33Z</time></trkpt><trkpt lat="43.8684324" lon="12.9133917"><ele>100.0</ele><time>2026-04-19T09:54:34Z</time></trkpt><trkpt lat="43.868397" lon="12.9132394"><ele>100.0</ele><time>2026-04-19T09:54:35Z</time></trkpt><trkpt lat="43.8683417" lon="12.9131312"><ele>100.0</ele><time>2026-04-19T09:54:36Z</time></trkpt><trkpt lat="43.8682854" lon="12.9130422"><ele>101.2</ele><time>2026-04-19T09:54:37Z</time></trkpt><trkpt lat="43.8682292" lon="12.9129944"><ele>102.4</ele><time>2026-04-19T09:54:38Z</time></trkpt><trkpt lat="43.8681674" lon="12.9130492"><ele>103.6</ele><time>2026-04-19T09:54:40Z</time></trkpt><trkpt lat="43.8682257" lon="12.9131964"><ele>104.8</ele><time>2026-04-19T09:54:41.999Z</time></trkpt><trkpt lat="43.8682828" lon="12.9133121"><ele>106.0</ele><time>2026-04-19T09:54:43Z</time></trkpt><trkpt lat="43.8683204" lon="12.913429"><ele>104.8</ele><time>2026-04-19T09:54:44Z</time></trkpt><trkpt lat="43.8683377" lon="12.913553"><ele>103.6</ele><time>2026-04-19T09:54:45Z</time></trkpt><trkpt lat="43.8683697" lon="12.9136906"><ele>102.4</ele><time>2026-04-19T09:54:46Z</time></trkpt><trkpt lat="43.8683966" lon="12.9138214"><ele>101.2</ele><time>2026-04-19T09:54:47Z</time></trkpt><trkpt lat="43.8684191" lon="12.9139404"><ele>100.0</ele><time>2026-04-19T09:54:48Z</time></trkpt><trkpt lat="43.8684512" lon="12.9140576"><ele>100.00000000000001</ele><time>2026-04-19T09:54:49Z</time></trkpt><trkpt lat="43.8685009" lon="12.9141496"><ele>100.0</ele><time>2026-04-19T09:54:50Z</time></trkpt><trkpt lat="43.8685382" lon="12.9142282"><ele>100.0</ele><time>2026-04-19T09:54:51Z</time></trkpt><trkpt lat="43.8684721" lon="12.9143158"><ele>100.0</ele><time>2026-04-19T09:54:53Z</time></trkpt><trkpt lat="43.8683682" lon="12.9142856"><ele>100.00000000000001</ele><time>2026-04-19T09:54:55Z</time></trkpt><trkpt lat="43.8683064" lon="12.9142248"><ele>100.0</ele><time>2026-04-19T09:54:56Z</time></trkpt><trkpt lat="43.8682652" lon="12.9141542"><ele>102.33333333333334</ele><time>2026-04-19T09:54:57Z</time></trkpt><trkpt lat="43.8682316" lon="12.9140777"><ele>104.66666666666667</ele><time>2026-04-19T09:54:57.999Z</time></trkpt><trkpt lat="43.8681989" lon="12.9139832"><ele>107.0</ele><time>2026-04-19T09:54:59Z</time></trkpt><trkpt lat="43.8681796" lon="12.913895"><ele>109.33333333333334</ele><time>2026-04-19T09:55:00Z</time></trkpt><trkpt lat="43.8681369" lon="12.9137294"><ele>111.66666666666667</ele><time>2026-04-19T09:55:02Z</time></trkpt><trkpt lat="43.8681107" lon="12.9136386"><ele>114.0</ele><time>2026-04-19T09:55:03Z</time></trkpt><trkpt lat="43.8680611" lon="12.9135175"><ele>114.0</ele><time>2026-04-19T09:55:05Z</time></trkpt><trkpt lat="43.868016" lon="12.9134531"><ele>114.0</ele><time>2026-04-19T09:55:06Z</time></trkpt><trkpt lat="43.8679618" lon="12.913399"><ele>114.0</ele><time>2026-04-19T09:55:07Z</time></trkpt><trkpt lat="43.8679047" lon="12.9133538"><ele>114.0</ele><time>2026-04-19T09:55:08Z</time></trkpt><trkpt lat="43.867797" lon="12.9132635"><ele>114.0</ele><time>2026-04-19T09:55:10Z</time></trkpt><trkpt lat="43.8676858" lon="12.9131955"><ele>114.0</ele><time>2026-04-19T09:55:12Z</time></trkpt><trkpt lat="43.8675963" lon="12.9131543"><ele>115.5</ele><time>2026-04-19T09:55:14Z</time></trkpt><trkpt lat="43.867501" lon="12.9131366"><ele>117.0</ele><time>2026-04-19T09:55:16Z</time></trkpt><trkpt lat="43.8673906" lon="12.9131597"><ele>118.5</ele><time>2026-04-19T09:55:18Z</time></trkpt><trkpt lat="43.867341" lon="12.9132282"><ele>120.0</ele><time>2026-04-19T09:55:19Z</time></trkpt><trkpt lat="43.8673114" lon="12.9133148"><ele>121.5</ele><time>2026-04-19T09:55:19.999Z</time></trkpt><trkpt lat="43.8672644" lon="12.9133819"><ele>123.0</ele><time>2026-04-19T09:55:21Z</time></trkpt><trkpt lat="43.8672245" lon="12.9134561"><ele>125.0</ele><time>2026-04-19T09:55:22Z</time></trkpt><trkpt lat="43.8671736" lon="12.9135443"><ele>127.00000000000001</ele><time>2026-04-19T09:55:22.999Z</time></trkpt><trkpt lat="43.867108" lon="12.9136842"><ele>129.0</ele><time>2026-04-19T09:55:25Z</time></trkpt><trkpt lat="43.8670461" lon="12.913831"><ele>131.0</ele><time>2026-04-19T09:55:26.999Z</time></trkpt><trkpt lat="43.8669754" lon="12.9139622"><ele>133.0</ele><time>2026-04-19T09:55:29Z</time></trkpt><trkpt lat="43.8668984" lon="12.914094"><ele>133.0</ele><time>2026-04-19T09:55:31Z</time></trkpt><trkpt lat="43.8668606" lon="12.9141712"><ele>133.0</ele><time>2026-04-19T09:55:31.999Z</time></trkpt><trkpt lat="43.8668123" lon="12.9142533"><ele>133.0</ele><time>2026-04-19T09:55:33Z</time></trkpt><trkpt lat="43.8667695" lon="12.9143364"><ele>133.0</ele><time>2026-04-19T09:55:34Z</time></trkpt><trkpt lat="43.8667282" lon="12.9144222"><ele>133.0</ele><time>2026-04-19T09:55:35Z</time></trkpt><trkpt lat="43.86668" lon="12.9145071"><ele>133.0</ele><time>2026-04-19T09:55:35.999Z</time></trkpt><trkpt lat="43.8666353" lon="12.9145887"><ele>133.0</ele><time>2026-04-19T09:55:37Z</time></trkpt><trkpt lat="43.8665859" lon="12.9146724"><ele>136.0</ele><time>2026-04-19T09:55:38Z</time></trkpt><trkpt lat="43.8665375" lon="12.9147553"><ele>139.0</ele><time>2026-04-19T09:55:39Z</time></trkpt><trkpt lat="43.8664873" lon="12.9148348"><ele>142.0</ele><time>2026-04-19T09:55:40Z</time></trkpt><trkpt lat="43.8664376" lon="12.9149108"><ele>145.0</ele><time>2026-04-19T09:55:41Z</time></trkpt><trkpt lat="43.8663957" lon="12.9149944"><ele>148.0</ele><time>2026-04-19T09:55:42Z</time></trkpt><trkpt lat="43.8663541" lon="12.9150619"><ele>151.0</ele><time>2026-04-19T09:55:43Z</time></trkpt><trkpt lat="43.8662846" lon="12.9151722"><ele>151.83333333333334</ele><time>2026-04-19T09:55:45Z</time></trkpt><trkpt lat="43.8662682" lon="12.9153051"><ele>152.66666666666669</ele><time>2026-04-19T09:55:47Z</time></trkpt><trkpt lat="43.8662951" lon="12.9154712"><ele>153.5</ele><time>2026-04-19T09:55:49Z</time></trkpt><trkpt lat="43.8663116" lon="12.9155587"><ele>154.33333333333334</ele><time>2026-04-19T09:55:50Z</time></trkpt><trkpt lat="43.8663318" lon="12.915651"><ele>155.16666666666666</ele><time>2026-04-19T09:55:51Z</time></trkpt><trkpt lat="43.8663497" lon="12.9157351"><ele>156.0</ele><time>2026-04-19T09:55:52Z</time></trkpt><trkpt lat="43.8663811" lon="12.9158127"><ele>155.2</ele><time>2026-04-19T09:55:53Z</time></trkpt><trkpt lat="43.8664481" lon="12.9159121"><ele>154.39999999999998</ele><time>2026-04-19T09:55:55Z</time></trkpt><trkpt lat="43.8665192" lon="12.9160017"><ele>153.6</ele><time>2026-04-19T09:55:57Z</time></trkpt><trkpt lat="43.8665591" lon="12.9161475"><ele>152.79999999999998</ele><time>2026-04-19T09:55:59Z</time></trkpt><trkpt lat="43.8665573" lon="12.9162519"><ele>152.0</ele><time>2026-04-19T09:56:00Z</time></trkpt><trkpt lat="43.8665564" lon="12.9163538"><ele>152.0</ele><time>2026-04-19T09:56:01Z</time></trkpt><trkpt lat="43.8665283" lon="12.9164774"><ele>152.0</ele><time>2026-04-19T09:56:02Z</time></trkpt><trkpt lat="43.8665143" lon="12.9165955"><ele>152.0</ele><time>2026-04-19T09:56:03Z</time></trkpt><trkpt lat="43.866499" lon="12.9167317"><ele>152.0</ele><time>2026-04-19T09:56:04Z</time></trkpt><trkpt lat="43.8664726" lon="12.916877"><ele>152.0</ele><time>2026-04-19T09:56:05Z</time></trkpt><trkpt lat="43.8664489" lon="12.9170249"><ele>151.2</ele><time>2026-04-19T09:56:05.999Z</time></trkpt><trkpt lat="43.8664361" lon="12.9171645"><ele>150.39999999999998</ele><time>2026-04-19T09:56:07Z</time></trkpt><trkpt lat="43.8664151" lon="12.9172987"><ele>149.60000000000002</ele><time>2026-04-19T09:56:08Z</time></trkpt><trkpt lat="43.8664049" lon="12.9174216"><ele>148.8</ele><time>2026-04-19T09:56:09Z</time></trkpt><trkpt lat="43.8664014" lon="12.9175456"><ele>148.0</ele><time>2026-04-19T09:56:10Z</time></trkpt><trkpt lat="43.8663933" lon="12.9176681"><ele>147.66666666666669</ele><time>2026-04-19T09:56:11Z</time></trkpt><trkpt lat="43.8663893" lon="12.9177827"><ele>147.33333333333334</ele><time>2026-04-19T09:56:12Z</time></trkpt><trkpt lat="43.866385" lon="12.9178816"><ele>147.0</ele><time>2026-04-19T09:56:13Z</time></trkpt><trkpt lat="43.8663791" lon="12.9179863"><ele>146.66666666666666</ele><time>2026-04-19T09:56:14Z</time></trkpt><trkpt lat="43.8663778" lon="12.9181119"><ele>146.33333333333331</ele><time>2026-04-19T09:56:15Z</time></trkpt><trkpt lat="43.8663862" lon="12.9182272"><ele>146.0</ele><time>2026-04-19T09:56:16Z</time></trkpt><trkpt lat="43.8664015" lon="12.9183527"><ele>146.6</ele><time>2026-04-19T09:56:17Z</time></trkpt><trkpt lat="43.8664285" lon="12.9184833"><ele>147.2</ele><time>2026-04-19T09:56:18Z</time></trkpt><trkpt lat="43.8664446" lon="12.9185999"><ele>147.8</ele><time>2026-04-19T09:56:19Z</time></trkpt><trkpt lat="43.8664579" lon="12.918723"><ele>148.4</ele><time>2026-04-19T09:56:20Z</time></trkpt><trkpt lat="43.8664661" lon="12.918847"><ele>149.0</ele><time>2026-04-19T09:56:21Z</time></trkpt><trkpt lat="43.866489" lon="12.9189744"><ele>149.0</ele><time>2026-04-19T09:56:22Z</time></trkpt><trkpt lat="43.8665099" lon="12.9190945"><ele>149.0</ele><time>2026-04-19T09:56:23Z</time></trkpt><trkpt lat="43.8665293" lon="12.9192275"><ele>149.0</ele><time>2026-04-19T09:56:24Z</time></trkpt><trkpt lat="43.8665548" lon="12.9193631"><ele>149.0</ele><time>2026-04-19T09:56:25Z</time></trkpt><trkpt lat="43.8665658" lon="12.9194893"><ele>149.0</ele><time>2026-04-19T09:56:26Z</time></trkpt><trkpt lat="43.8665737" lon="12.9196165"><ele>149.0</ele><time>2026-04-19T09:56:27Z</time></trkpt><trkpt lat="43.8665711" lon="12.9197342"><ele>149.0</ele><time>2026-04-19T09:56:28Z</time></trkpt><trkpt lat="43.8665591" lon="12.9198424"><ele>149.0</ele><time>2026-04-19T09:56:28.999Z</time></trkpt><trkpt lat="43.8665289" lon="12.9199473"><ele>149.0</ele><time>2026-04-19T09:56:30Z</time></trkpt><trkpt lat="43.8665013" lon="12.9200467"><ele>149.0</ele><time>2026-04-19T09:56:31Z</time></trkpt><trkpt lat="43.8664699" lon="12.9201231"><ele>149.0</ele><time>2026-04-19T09:56:32Z</time></trkpt><trkpt lat="43.8664138" lon="12.9202344"><ele>148.83333333333331</ele><time>2026-04-19T09:56:34Z</time></trkpt><trkpt lat="43.8663652" lon="12.9203217"><ele>148.66666666666666</ele><time>2026-04-19T09:56:38Z</time></trkpt><trkpt lat="43.8663491" lon="12.9204101"><ele>148.5</ele><time>2026-04-19T09:56:40Z</time></trkpt><trkpt lat="43.8663659" lon="12.9205632"><ele>148.33333333333334</ele><time>2026-04-19T09:56:42Z</time></trkpt><trkpt lat="43.8663919" lon="12.9207005"><ele>148.16666666666669</ele><time>2026-04-19T09:56:44Z</time></trkpt><trkpt lat="43.8664178" lon="12.9207843"><ele>148.0</ele><time>2026-04-19T09:56:46Z</time></trkpt><trkpt lat="43.8664504" lon="12.9208897"><ele>148.6</ele><time>2026-04-19T09:56:49Z</time></trkpt><trkpt lat="43.8665158" lon="12.9210379"><ele>149.20000000000002</ele><time>2026-04-19T09:56:51Z</time></trkpt><trkpt lat="43.8665558" lon="12.9211268"><ele>149.8</ele><time>2026-04-19T09:56:52Z</time></trkpt><trkpt lat="43.8665742" lon="12.9212569"><ele>150.4</ele><time>2026-04-19T09:56:53Z</time></trkpt><trkpt lat="43.8665926" lon="12.921391"><ele>151.0</ele><time>2026-04-19T09:56:54Z</time></trkpt><trkpt lat="43.866608" lon="12.921539"><ele>151.0</ele><time>2026-04-19T09:56:55Z</time></trkpt><trkpt lat="43.8666187" lon="12.9217039"><ele>151.0</ele><time>2026-04-19T09:56:56Z</time></trkpt><trkpt lat="43.8666275" lon="12.9218547"><ele>151.0</ele><time>2026-04-19T09:56:57Z</time></trkpt><trkpt lat="43.8666354" lon="12.9219884"><ele>151.0</ele><time>2026-04-19T09:56:58Z</time></trkpt><trkpt lat="43.8666653" lon="12.9220886"><ele>151.0</ele><time>2026-04-19T09:56:59Z</time></trkpt><trkpt lat="43.8666944" lon="12.922183"><ele>151.2</ele><time>2026-04-19T09:57:00Z</time></trkpt><trkpt lat="43.8667638" lon="12.9222939"><ele>151.39999999999998</ele><time>2026-04-19T09:57:01.999Z</time></trkpt><trkpt lat="43.8668097" lon="12.9223725"><ele>151.6</ele><time>2026-04-19T09:57:06Z</time></trkpt><trkpt lat="43.8668151" lon="12.9224868"><ele>151.79999999999998</ele><time>2026-04-19T09:57:08Z</time></trkpt><trkpt lat="43.8667801" lon="12.9226398"><ele>152.0</ele><time>2026-04-19T09:57:10Z</time></trkpt><trkpt lat="43.866648" lon="12.9227295"><ele>149.79999999999998</ele><time>2026-04-19T09:57:12Z</time></trkpt><trkpt lat="43.8665624" lon="12.9227761"><ele>147.6</ele><time>2026-04-19T09:57:13Z</time></trkpt><trkpt lat="43.8664771" lon="12.9228209"><ele>145.39999999999998</ele><time>2026-04-19T09:57:14Z</time></trkpt><trkpt lat="43.8663804" lon="12.9228541"><ele>143.2</ele><time>2026-04-19T09:57:15Z</time></trkpt><trkpt lat="43.8662636" lon="12.9229449"><ele>141.0</ele><time>2026-04-19T09:57:16Z</time></trkpt><trkpt lat="43.8661519" lon="12.9230344"><ele>141.0</ele><time>2026-04-19T09:57:17Z</time></trkpt><trkpt lat="43.8660557" lon="12.9231265"><ele>141.0</ele><time>2026-04-19T09:57:18Z</time></trkpt><trkpt lat="43.8659485" lon="12.9232052"><ele>141.0</ele><time>2026-04-19T09:57:19Z</time></trkpt><trkpt lat="43.8658084" lon="12.9232808"><ele>141.0</ele><time>2026-04-19T09:57:20Z</time></trkpt><trkpt lat="43.8656756" lon="12.9233311"><ele>140.5</ele><time>2026-04-19T09:57:20.999Z</time></trkpt><trkpt lat="43.8655378" lon="12.9233732"><ele>140.0</ele><time>2026-04-19T09:57:21.999Z</time></trkpt><trkpt lat="43.8653967" lon="12.9234219"><ele>139.5</ele><time>2026-04-19T09:57:23Z</time></trkpt><trkpt lat="43.8652482" lon="12.9234731"><ele>139.0</ele><time>2026-04-19T09:57:24Z</time></trkpt><trkpt lat="43.8650972" lon="12.923525"><ele>135.5</ele><time>2026-04-19T09:57:25Z</time></trkpt><trkpt lat="43.8649671" lon="12.9235903"><ele>132.0</ele><time>2026-04-19T09:57:26Z</time></trkpt><trkpt lat="43.8648271" lon="12.9236433"><ele>128.5</ele><time>2026-04-19T09:57:27Z</time></trkpt><trkpt lat="43.8646863" lon="12.9236901"><ele>125.0</ele><time>2026-04-19T09:57:28Z</time></trkpt><trkpt lat="43.8645423" lon="12.9237208"><ele>125.0</ele><time>2026-04-19T09:57:29Z</time></trkpt><trkpt lat="43.8643972" lon="12.9237379"><ele>125.0</ele><time>2026-04-19T09:57:30Z</time></trkpt><trkpt lat="43.8642524" lon="12.9237542"><ele>125.0</ele><time>2026-04-19T09:57:31Z</time></trkpt><trkpt lat="43.8641063" lon="12.9237638"><ele>125.0</ele><time>2026-04-19T09:57:32Z</time></trkpt><trkpt lat="43.8639617" lon="12.9237751"><ele>129.66666666666666</ele><time>2026-04-19T09:57:33Z</time></trkpt><trkpt lat="43.863808" lon="12.9237649"><ele>134.33333333333334</ele><time>2026-04-19T09:57:33.999Z</time></trkpt><trkpt lat="43.8636562" lon="12.9237715"><ele>139.0</ele><time>2026-04-19T09:57:35Z</time></trkpt><trkpt lat="43.8635019" lon="12.9237915"><ele>143.0</ele><time>2026-04-19T09:57:36Z</time></trkpt><trkpt lat="43.8633458" lon="12.9237976"><ele>147.0</ele><time>2026-04-19T09:57:37Z</time></trkpt><trkpt lat="43.8631946" lon="12.9238016"><ele>151.0</ele><time>2026-04-19T09:57:38Z</time></trkpt><trkpt lat="43.8630447" lon="12.9237955"><ele>151.0</ele><time>2026-04-19T09:57:38.999Z</time></trkpt><trkpt lat="43.8628873" lon="12.9238172"><ele>151.0</ele><time>2026-04-19T09:57:40Z</time></trkpt><trkpt lat="43.8627602" lon="12.9238065"><ele>151.0</ele><time>2026-04-19T09:57:41Z</time></trkpt><trkpt lat="43.8626376" lon="12.9237799"><ele>151.0</ele><time>2026-04-19T09:57:42Z</time></trkpt><trkpt lat="43.8625162" lon="12.9237811"><ele>151.2</ele><time>2026-04-19T09:57:43Z</time></trkpt><trkpt lat="43.8624189" lon="12.9238227"><ele>151.39999999999998</ele><time>2026-04-19T09:57:43.999Z</time></trkpt><trkpt lat="43.8623335" lon="12.9238802"><ele>151.6</ele><time>2026-04-19T09:57:45Z</time></trkpt><trkpt lat="43.8622643" lon="12.9240011"><ele>151.79999999999998</ele><time>2026-04-19T09:57:46Z</time></trkpt><trkpt lat="43.8622025" lon="12.9241234"><ele>152.0</ele><time>2026-04-19T09:57:47Z</time></trkpt><trkpt lat="43.8621402" lon="12.9242555"><ele>152.0</ele><time>2026-04-19T09:57:48Z</time></trkpt><trkpt lat="43.8620924" lon="12.9243693"><ele>152.0</ele><time>2026-04-19T09:57:49Z</time></trkpt><trkpt lat="43.8620483" lon="12.9244677"><ele>152.0</ele><time>2026-04-19T09:57:50Z</time></trkpt><trkpt lat="43.8620109" lon="12.9245432"><ele>152.0</ele><time>2026-04-19T09:57:51Z</time></trkpt><trkpt lat="43.8619627" lon="12.9246268"><ele>152.0</ele><time>2026-04-19T09:57:53Z</time></trkpt><trkpt lat="43.8618964" lon="12.9246914"><ele>152.0</ele><time>2026-04-19T09:57:57Z</time></trkpt><trkpt lat="43.8618458" lon="12.924859"><ele>152.0</ele><time>2026-04-19T09:57:59Z</time></trkpt><trkpt lat="43.8618222" lon="12.9249849"><ele>152.0</ele><time>2026-04-19T09:58:00Z</time></trkpt><trkpt lat="43.8617917" lon="12.9251093"><ele>152.0</ele><time>2026-04-19T09:58:01Z</time></trkpt><trkpt lat="43.8617646" lon="12.9252541"><ele>152.0</ele><time>2026-04-19T09:58:02Z</time></trkpt><trkpt lat="43.861723" lon="12.9254082"><ele>152.0</ele><time>2026-04-19T09:58:03Z</time></trkpt><trkpt lat="43.8616895" lon="12.9255766"><ele>156.25</ele><time>2026-04-19T09:58:04Z</time></trkpt><trkpt lat="43.8616686" lon="12.9257604"><ele>160.5</ele><time>2026-04-19T09:58:05Z</time></trkpt><trkpt lat="43.8616519" lon="12.9259189"><ele>164.75</ele><time>2026-04-19T09:58:06Z</time></trkpt><trkpt lat="43.8616934" lon="12.9261059"><ele>169.0</ele><time>2026-04-19T09:58:07Z</time></trkpt><trkpt lat="43.8617344" lon="12.9262986"><ele>167.33333333333334</ele><time>2026-04-19T09:58:08Z</time></trkpt><trkpt lat="43.8617854" lon="12.9264898"><ele>165.66666666666666</ele><time>2026-04-19T09:58:09Z</time></trkpt><trkpt lat="43.861842" lon="12.9266947"><ele>164.0</ele><time>2026-04-19T09:58:10Z</time></trkpt><trkpt lat="43.8619017" lon="12.9269028"><ele>164.0</ele><time>2026-04-19T09:58:11Z</time></trkpt><trkpt lat="43.8619544" lon="12.9271079"><ele>164.0</ele><time>2026-04-19T09:58:12Z</time></trkpt><trkpt lat="43.8620082" lon="12.9273114"><ele>164.0</ele><time>2026-04-19T09:58:13Z</time></trkpt><trkpt lat="43.8620567" lon="12.9275098"><ele>166.5</ele><time>2026-04-19T09:58:14Z</time></trkpt><trkpt lat="43.8621073" lon="12.9277144"><ele>169.0</ele><time>2026-04-19T09:58:15Z</time></trkpt><trkpt lat="43.8621583" lon="12.9278983"><ele>171.5</ele><time>2026-04-19T09:58:16Z</time></trkpt><trkpt lat="43.8622002" lon="12.9280656"><ele>174.0</ele><time>2026-04-19T09:58:16.999Z</time></trkpt><trkpt lat="43.8622335" lon="12.9282157"><ele>174.0</ele><time>2026-04-19T09:58:18Z</time></trkpt><trkpt lat="43.8622534" lon="12.9283516"><ele>174.0</ele><time>2026-04-19T09:58:19Z</time></trkpt><trkpt lat="43.8622523" lon="12.9284928"><ele>174.0</ele><time>2026-04-19T09:58:20Z</time></trkpt><trkpt lat="43.8622286" lon="12.9286272"><ele>174.0</ele><time>2026-04-19T09:58:21Z</time></trkpt><trkpt lat="43.8621962" lon="12.9287482"><ele>174.0</ele><time>2026-04-19T09:58:22Z</time></trkpt><trkpt lat="43.8621417" lon="12.9288677"><ele>176.5</ele><time>2026-04-19T09:58:23Z</time></trkpt><trkpt lat="43.8620426" lon="12.9289755"><ele>179.0</ele><time>2026-04-19T09:58:24Z</time></trkpt><trkpt lat="43.8619472" lon="12.9290761"><ele>181.5</ele><time>2026-04-19T09:58:25Z</time></trkpt><trkpt lat="43.8618468" lon="12.9291881"><ele>184.0</ele><time>2026-04-19T09:58:26Z</time></trkpt><trkpt lat="43.8617458" lon="12.9293102"><ele>188.0</ele><time>2026-04-19T09:58:27Z</time></trkpt><trkpt lat="43.8616331" lon="12.9294392"><ele>192.0</ele><time>2026-04-19T09:58:28Z</time></trkpt><trkpt lat="43.861521" lon="12.9295654"><ele>196.0</ele><time>2026-04-19T09:58:29Z</time></trkpt><trkpt lat="43.8614056" lon="12.9296907"><ele>200.0</ele><time>2026-04-19T09:58:30Z</time></trkpt><trkpt lat="43.861293" lon="12.9298021"><ele>200.0</ele><time>2026-04-19T09:58:31Z</time></trkpt><trkpt lat="43.8612046" lon="12.9299261"><ele>200.0</ele><time>2026-04-19T09:58:32Z</time></trkpt><trkpt lat="43.8611713" lon="12.9300681"><ele>200.0</ele><time>2026-04-19T09:58:33Z</time></trkpt><trkpt lat="43.8611403" lon="12.9302092"><ele>200.0</ele><time>2026-04-19T09:58:34Z</time></trkpt><trkpt lat="43.8611694" lon="12.9303557"><ele>200.0</ele><time>2026-04-19T09:58:35Z</time></trkpt><trkpt lat="43.8612123" lon="12.9304762"><ele>199.4</ele><time>2026-04-19T09:58:36Z</time></trkpt><trkpt lat="43.8612449" lon="12.930589"><ele>198.8</ele><time>2026-04-19T09:58:37Z</time></trkpt><trkpt lat="43.8612343" lon="12.9307407"><ele>198.2</ele><time>2026-04-19T09:58:38Z</time></trkpt><trkpt lat="43.8612277" lon="12.9308888"><ele>197.6</ele><time>2026-04-19T09:58:39Z</time></trkpt><trkpt lat="43.8611898" lon="12.931066"><ele>197.0</ele><time>2026-04-19T09:58:40Z</time></trkpt><trkpt lat="43.8611576" lon="12.9312291"><ele>195.75</ele><time>2026-04-19T09:58:40.999Z</time></trkpt><trkpt lat="43.8611173" lon="12.9313478"><ele>194.5</ele><time>2026-04-19T09:58:42Z</time></trkpt><trkpt lat="43.8610772" lon="12.9314819"><ele>193.25</ele><time>2026-04-19T09:58:43Z</time></trkpt><trkpt lat="43.8608824" lon="12.9314916"><ele>192.0</ele><time>2026-04-19T09:58:44Z</time></trkpt><trkpt lat="43.8607766" lon="12.931541"><ele>192.0</ele><time>2026-04-19T09:58:45Z</time></trkpt><trkpt lat="43.8606621" lon="12.9315624"><ele>192.0</ele><time>2026-04-19T09:58:46Z</time></trkpt><trkpt lat="43.860537" lon="12.9315467"><ele>192.0</ele><time>2026-04-19T09:58:47Z</time></trkpt><trkpt lat="43.8604092" lon="12.9315081"><ele>192.0</ele><time>2026-04-19T09:58:48Z</time></trkpt><trkpt lat="43.8602895" lon="12.9314576"><ele>192.0</ele><time>2026-04-19T09:58:49Z</time></trkpt><trkpt lat="43.8601648" lon="12.9314291"><ele>192.0</ele><time>2026-04-19T09:58:50Z</time></trkpt><trkpt lat="43.8600469" lon="12.9314227"><ele>192.0</ele><time>2026-04-19T09:58:51Z</time></trkpt><trkpt lat="43.8599362" lon="12.9314548"><ele>192.0</ele><time>2026-04-19T09:58:52Z</time></trkpt><trkpt lat="43.8598294" lon="12.9315097"><ele>193.5</ele><time>2026-04-19T09:58:53Z</time></trkpt><trkpt lat="43.8597202" lon="12.9315929"><ele>195.0</ele><time>2026-04-19T09:58:54Z</time></trkpt><trkpt lat="43.8596206" lon="12.9316852"><ele>196.5</ele><time>2026-04-19T09:58:55Z</time></trkpt><trkpt lat="43.8595243" lon="12.9317825"><ele>198.0</ele><time>2026-04-19T09:58:56Z</time></trkpt><trkpt lat="43.8594303" lon="12.9318861"><ele>196.60000000000002</ele><time>2026-04-19T09:58:57Z</time></trkpt><trkpt lat="43.8593459" lon="12.9319806"><ele>195.20000000000002</ele><time>2026-04-19T09:58:58Z</time></trkpt><trkpt lat="43.8592528" lon="12.9320637"><ele>193.8</ele><time>2026-04-19T09:58:59Z</time></trkpt><trkpt lat="43.8591655" lon="12.9321397"><ele>192.4</ele><time>2026-04-19T09:59:00Z</time></trkpt><trkpt lat="43.8590911" lon="12.9322215"><ele>191.0</ele><time>2026-04-19T09:59:00.999Z</time></trkpt><trkpt lat="43.8590148" lon="12.9322809"><ele>191.0</ele><time>2026-04-19T09:59:02Z</time></trkpt><trkpt lat="43.8589555" lon="12.9323608"><ele>191.0</ele><time>2026-04-19T09:59:03Z</time></trkpt><trkpt lat="43.8589031" lon="12.932442"><ele>191.0</ele><time>2026-04-19T09:59:03.999Z</time></trkpt><trkpt lat="43.8588688" lon="12.9325516"><ele>191.0</ele><time>2026-04-19T09:59:05Z</time></trkpt><trkpt lat="43.8588255" lon="12.9326642"><ele>191.0</ele><time>2026-04-19T09:59:06Z</time></trkpt><trkpt lat="43.8588191" lon="12.9328065"><ele>191.0</ele><time>2026-04-19T09:59:06.999Z</time></trkpt><trkpt lat="43.8588073" lon="12.9329402"><ele>189.0</ele><time>2026-04-19T09:59:08Z</time></trkpt><trkpt lat="43.8588" lon="12.9331148"><ele>187.0</ele><time>2026-04-19T09:59:09Z</time></trkpt><trkpt lat="43.8587835" lon="12.9332895"><ele>185.0</ele><time>2026-04-19T09:59:10Z</time></trkpt><trkpt lat="43.8587666" lon="12.9334548"><ele>183.0</ele><time>2026-04-19T09:59:11Z</time></trkpt><trkpt lat="43.8587516" lon="12.9336144"><ele>181.2</ele><time>2026-04-19T09:59:11.999Z</time></trkpt><trkpt lat="43.8587428" lon="12.9337817"><ele>179.4</ele><time>2026-04-19T09:59:13Z</time></trkpt><trkpt lat="43.8587414" lon="12.933921"><ele>177.6</ele><time>2026-04-19T09:59:14Z</time></trkpt><trkpt lat="43.8587392" lon="12.9340427"><ele>175.79999999999998</ele><time>2026-04-19T09:59:14.999Z</time></trkpt><trkpt lat="43.8587374" lon="12.9341339"><ele>174.0</ele><time>2026-04-19T09:59:16Z</time></trkpt><trkpt lat="43.8587221" lon="12.9342646"><ele>174.6</ele><time>2026-04-19T09:59:18Z</time></trkpt><trkpt lat="43.8586829" lon="12.9343965"><ele>175.2</ele><time>2026-04-19T09:59:20Z</time></trkpt><trkpt lat="43.858637" lon="12.9344871"><ele>175.79999999999998</ele><time>2026-04-19T09:59:21Z</time></trkpt><trkpt lat="43.8585901" lon="12.9345722"><ele>176.39999999999998</ele><time>2026-04-19T09:59:22Z</time></trkpt><trkpt lat="43.8585194" lon="12.9346901"><ele>177.0</ele><time>2026-04-19T09:59:23Z</time></trkpt><trkpt lat="43.8584267" lon="12.9348282"><ele>177.0</ele><time>2026-04-19T09:59:23.999Z</time></trkpt><trkpt lat="43.858327" lon="12.9349739"><ele>177.0</ele><time>2026-04-19T09:59:25Z</time></trkpt><trkpt lat="43.8582175" lon="12.9351392"><ele>177.0</ele><time>2026-04-19T09:59:26Z</time></trkpt><trkpt lat="43.8580957" lon="12.935319"><ele>177.66666666666666</ele><time>2026-04-19T09:59:27Z</time></trkpt><trkpt lat="43.8579757" lon="12.9354904"><ele>178.33333333333331</ele><time>2026-04-19T09:59:27.999Z</time></trkpt><trkpt lat="43.8578481" lon="12.9356713"><ele>179.0</ele><time>2026-04-19T09:59:29Z</time></trkpt><trkpt lat="43.8577236" lon="12.9358445"><ele>179.0</ele><time>2026-04-19T09:59:30Z</time></trkpt><trkpt lat="43.8575961" lon="12.9360239"><ele>179.0</ele><time>2026-04-19T09:59:31Z</time></trkpt><trkpt lat="43.8574574" lon="12.9361919"><ele>179.0</ele><time>2026-04-19T09:59:32Z</time></trkpt><trkpt lat="43.857305" lon="12.9363564"><ele>179.0</ele><time>2026-04-19T09:59:33Z</time></trkpt><trkpt lat="43.8571435" lon="12.9364844"><ele>179.0</ele><time>2026-04-19T09:59:34Z</time></trkpt><trkpt lat="43.8569885" lon="12.9366101"><ele>179.0</ele><time>2026-04-19T09:59:35Z</time></trkpt><trkpt lat="43.856839" lon="12.9367182"><ele>180.66666666666666</ele><time>2026-04-19T09:59:35.999Z</time></trkpt><trkpt lat="43.8566938" lon="12.9368417"><ele>182.33333333333334</ele><time>2026-04-19T09:59:37Z</time></trkpt><trkpt lat="43.8565591" lon="12.9369414"><ele>184.0</ele><time>2026-04-19T09:59:38Z</time></trkpt><trkpt lat="43.8564167" lon="12.9369973"><ele>184.0</ele><time>2026-04-19T09:59:39Z</time></trkpt><trkpt lat="43.8562579" lon="12.9370163"><ele>184.0</ele><time>2026-04-19T09:59:40Z</time></trkpt><trkpt lat="43.8560986" lon="12.9370312"><ele>184.0</ele><time>2026-04-19T09:59:41Z</time></trkpt><trkpt lat="43.8559286" lon="12.937047"><ele>182.0</ele><time>2026-04-19T09:59:41.999Z</time></trkpt><trkpt lat="43.8557651" lon="12.9370855"><ele>180.0</ele><time>2026-04-19T09:59:43Z</time></trkpt><trkpt lat="43.8556122" lon="12.9371573"><ele>178.0</ele><time>2026-04-19T09:59:44Z</time></trkpt><trkpt lat="43.8554738" lon="12.9372617"><ele>178.0</ele><time>2026-04-19T09:59:45Z</time></trkpt><trkpt lat="43.8553718" lon="12.937428"><ele>178.0</ele><time>2026-04-19T09:59:46Z</time></trkpt><trkpt lat="43.8552577" lon="12.9375994"><ele>178.0</ele><time>2026-04-19T09:59:47Z</time></trkpt><trkpt lat="43.8551477" lon="12.9377924"><ele>176.33333333333334</ele><time>2026-04-19T09:59:48Z</time></trkpt><trkpt lat="43.855038" lon="12.9379873"><ele>174.66666666666666</ele><time>2026-04-19T09:59:49Z</time></trkpt><trkpt lat="43.8549378" lon="12.9381944"><ele>173.0</ele><time>2026-04-19T09:59:50Z</time></trkpt><trkpt lat="43.8548268" lon="12.9384004"><ele>172.66666666666666</ele><time>2026-04-19T09:59:51Z</time></trkpt><trkpt lat="43.8547205" lon="12.9386098"><ele>172.33333333333334</ele><time>2026-04-19T09:59:52Z</time></trkpt><trkpt lat="43.8546084" lon="12.9388154"><ele>172.0</ele><time>2026-04-19T09:59:52.999Z</time></trkpt><trkpt lat="43.8544928" lon="12.9390177"><ele>172.0</ele><time>2026-04-19T09:59:54Z</time></trkpt><trkpt lat="43.854372" lon="12.9392084"><ele>172.0</ele><time>2026-04-19T09:59:55Z</time></trkpt><trkpt lat="43.8542408" lon="12.9393962"><ele>172.0</ele><time>2026-04-19T09:59:56Z</time></trkpt><trkpt lat="43.8541033" lon="12.9395569"><ele>168.33333333333334</ele><time>2026-04-19T09:59:57Z</time></trkpt><trkpt lat="43.8539592" lon="12.939713"><ele>164.66666666666666</ele><time>2026-04-19T09:59:58Z</time></trkpt><trkpt lat="43.8538036" lon="12.9398519"><ele>161.0</ele><time>2026-04-19T09:59:59Z</time></trkpt><trkpt lat="43.8536461" lon="12.9399846"><ele>162.0</ele><time>2026-04-19T10:00:00Z</time></trkpt><trkpt lat="43.8534695" lon="12.9400915"><ele>163.0</ele><time>2026-04-19T10:00:01Z</time></trkpt><trkpt lat="43.8532964" lon="12.940193"><ele>164.0</ele><time>2026-04-19T10:00:02Z</time></trkpt><trkpt lat="43.8531205" lon="12.9402732"><ele>164.0</ele><time>2026-04-19T10:00:02.999Z</time></trkpt><trkpt lat="43.8529417" lon="12.940298"><ele>164.0</ele><time>2026-04-19T10:00:03.999Z</time></trkpt><trkpt lat="43.8527579" lon="12.9403166"><ele>164.0</ele><time>2026-04-19T10:00:05Z</time></trkpt><trkpt lat="43.8525793" lon="12.9403294"><ele>164.0</ele><time>2026-04-19T10:00:06Z</time></trkpt><trkpt lat="43.8523917" lon="12.9403429"><ele>164.0</ele><time>2026-04-19T10:00:07Z</time></trkpt><trkpt lat="43.8522212" lon="12.9403649"><ele>164.0</ele><time>2026-04-19T10:00:08Z</time></trkpt><trkpt lat="43.8520527" lon="12.9403923"><ele>164.0</ele><time>2026-04-19T10:00:09Z</time></trkpt><trkpt lat="43.8518804" lon="12.9404151"><ele>164.0</ele><time>2026-04-19T10:00:10Z</time></trkpt><trkpt lat="43.8517164" lon="12.9404491"><ele>164.0</ele><time>2026-04-19T10:00:11Z</time></trkpt><trkpt lat="43.8515519" lon="12.9405087"><ele>163.33333333333331</ele><time>2026-04-19T10:00:12Z</time></trkpt><trkpt lat="43.8513866" lon="12.9405896"><ele>162.66666666666666</ele><time>2026-04-19T10:00:13Z</time></trkpt><trkpt lat="43.8512225" lon="12.9406982"><ele>162.0</ele><time>2026-04-19T10:00:14Z</time></trkpt><trkpt lat="43.8510623" lon="12.9408272"><ele>161.66666666666666</ele><time>2026-04-19T10:00:14.999Z</time></trkpt><trkpt lat="43.8508991" lon="12.940965"><ele>161.33333333333331</ele><time>2026-04-19T10:00:16Z</time></trkpt><trkpt lat="43.8507483" lon="12.9411053"><ele>161.0</ele><time>2026-04-19T10:00:17Z</time></trkpt><trkpt lat="43.8506023" lon="12.9412668"><ele>161.0</ele><time>2026-04-19T10:00:18Z</time></trkpt><trkpt lat="43.8504638" lon="12.9414369"><ele>161.0</ele><time>2026-04-19T10:00:19Z</time></trkpt><trkpt lat="43.8503309" lon="12.9416066"><ele>161.0</ele><time>2026-04-19T10:00:20Z</time></trkpt><trkpt lat="43.8501974" lon="12.9417815"><ele>161.75</ele><time>2026-04-19T10:00:21Z</time></trkpt><trkpt lat="43.8500784" lon="12.9419485"><ele>162.5</ele><time>2026-04-19T10:00:22Z</time></trkpt><trkpt lat="43.8499902" lon="12.9420654"><ele>163.25</ele><time>2026-04-19T10:00:23Z</time></trkpt><trkpt lat="43.8498967" lon="12.9421994"><ele>164.0</ele><time>2026-04-19T10:00:24Z</time></trkpt><trkpt lat="43.8498095" lon="12.942314"><ele>164.0</ele><time>2026-04-19T10:00:25Z</time></trkpt><trkpt lat="43.8497355" lon="12.9424139"><ele>164.0</ele><time>2026-04-19T10:00:26Z</time></trkpt><trkpt lat="43.8496744" lon="12.9425338"><ele>164.0</ele><time>2026-04-19T10:00:27Z</time></trkpt><trkpt lat="43.8496096" lon="12.9426307"><ele>164.0</ele><time>2026-04-19T10:00:28Z</time></trkpt><trkpt lat="43.8496549" lon="12.9427477"><ele>164.0</ele><time>2026-04-19T10:00:29Z</time></trkpt><trkpt lat="43.8496957" lon="12.9429016"><ele>162.5</ele><time>2026-04-19T10:00:30Z</time></trkpt><trkpt lat="43.8497347" lon="12.9430626"><ele>161.0</ele><time>2026-04-19T10:00:31Z</time></trkpt><trkpt lat="43.8497537" lon="12.9432413"><ele>159.5</ele><time>2026-04-19T10:00:32Z</time></trkpt><trkpt lat="43.8497591" lon="12.9434282"><ele>158.0</ele><time>2026-04-19T10:00:33Z</time></trkpt><trkpt lat="43.8497724" lon="12.9436162"><ele>157.5</ele><time>2026-04-19T10:00:34Z</time></trkpt><trkpt lat="43.8497597" lon="12.9438036"><ele>157.0</ele><time>2026-04-19T10:00:35Z</time></trkpt><trkpt lat="43.8497387" lon="12.9439863"><ele>156.5</ele><time>2026-04-19T10:00:36Z</time></trkpt><trkpt lat="43.8496982" lon="12.9441601"><ele>156.0</ele><time>2026-04-19T10:00:37Z</time></trkpt><trkpt lat="43.8496001" lon="12.9443495"><ele>154.66666666666666</ele><time>2026-04-19T10:00:38Z</time></trkpt><trkpt lat="43.8495026" lon="12.9445233"><ele>153.33333333333331</ele><time>2026-04-19T10:00:39Z</time></trkpt><trkpt lat="43.8494078" lon="12.9446952"><ele>152.0</ele><time>2026-04-19T10:00:40Z</time></trkpt><trkpt lat="43.8493156" lon="12.944862"><ele>150.75</ele><time>2026-04-19T10:00:41Z</time></trkpt><trkpt lat="43.8492209" lon="12.945017"><ele>149.5</ele><time>2026-04-19T10:00:42Z</time></trkpt><trkpt lat="43.8491253" lon="12.9451632"><ele>148.25</ele><time>2026-04-19T10:00:43Z</time></trkpt><trkpt lat="43.8490006" lon="12.945283"><ele>147.0</ele><time>2026-04-19T10:00:44Z</time></trkpt><trkpt lat="43.8488802" lon="12.9453821"><ele>144.25</ele><time>2026-04-19T10:00:45Z</time></trkpt><trkpt lat="43.8487566" lon="12.9454924"><ele>141.5</ele><time>2026-04-19T10:00:46Z</time></trkpt><trkpt lat="43.8486385" lon="12.9456036"><ele>138.75</ele><time>2026-04-19T10:00:47Z</time></trkpt><trkpt lat="43.8485158" lon="12.9457329"><ele>136.0</ele><time>2026-04-19T10:00:48Z</time></trkpt><trkpt lat="43.8483971" lon="12.9458682"><ele>134.5</ele><time>2026-04-19T10:00:49Z</time></trkpt><trkpt lat="43.8482845" lon="12.946"><ele>133.0</ele><time>2026-04-19T10:00:50Z</time></trkpt><trkpt lat="43.8481718" lon="12.9461338"><ele>131.5</ele><time>2026-04-19T10:00:51Z</time></trkpt><trkpt lat="43.8480599" lon="12.9462664"><ele>130.0</ele><time>2026-04-19T10:00:52Z</time></trkpt><trkpt lat="43.8479442" lon="12.946394"><ele>130.0</ele><time>2026-04-19T10:00:53Z</time></trkpt><trkpt lat="43.8478182" lon="12.9465315"><ele>130.0</ele><time>2026-04-19T10:00:54Z</time></trkpt><trkpt lat="43.8476946" lon="12.9466628"><ele>130.0</ele><time>2026-04-19T10:00:55Z</time></trkpt><trkpt lat="43.8475739" lon="12.9468137"><ele>133.0</ele><time>2026-04-19T10:00:56Z</time></trkpt><trkpt lat="43.8474518" lon="12.9469733"><ele>136.0</ele><time>2026-04-19T10:00:57Z</time></trkpt><trkpt lat="43.8473324" lon="12.9471547"><ele>139.0</ele><time>2026-04-19T10:00:58Z</time></trkpt><trkpt lat="43.8472249" lon="12.9473466"><ele>140.33333333333334</ele><time>2026-04-19T10:00:59Z</time></trkpt><trkpt lat="43.8471095" lon="12.9475493"><ele>141.66666666666666</ele><time>2026-04-19T10:01:00Z</time></trkpt><trkpt lat="43.8470027" lon="12.9477511"><ele>143.0</ele><time>2026-04-19T10:01:01Z</time></trkpt><trkpt lat="43.8468936" lon="12.9479599"><ele>142.66666666666666</ele><time>2026-04-19T10:01:02Z</time></trkpt><trkpt lat="43.8467828" lon="12.9481783"><ele>142.33333333333334</ele><time>2026-04-19T10:01:03Z</time></trkpt><trkpt lat="43.8466741" lon="12.9483963"><ele>142.0</ele><time>2026-04-19T10:01:04Z</time></trkpt><trkpt lat="43.8465666" lon="12.9486048"><ele>142.0</ele><time>2026-04-19T10:01:05Z</time></trkpt><trkpt lat="43.8464587" lon="12.9488151"><ele>142.0</ele><time>2026-04-19T10:01:06Z</time></trkpt><trkpt lat="43.8463536" lon="12.94902"><ele>142.0</ele><time>2026-04-19T10:01:07Z</time></trkpt><trkpt lat="43.8462593" lon="12.9492174"><ele>142.0</ele><time>2026-04-19T10:01:08Z</time></trkpt><trkpt lat="43.8461633" lon="12.9494081"><ele>142.0</ele><time>2026-04-19T10:01:09Z</time></trkpt><trkpt lat="43.8460618" lon="12.9496148"><ele>142.0</ele><time>2026-04-19T10:01:10Z</time></trkpt><trkpt lat="43.8459614" lon="12.9498101"><ele>142.0</ele><time>2026-04-19T10:01:11Z</time></trkpt><trkpt lat="43.8458692" lon="12.9500181"><ele>142.0</ele><time>2026-04-19T10:01:12Z</time></trkpt><trkpt lat="43.8457672" lon="12.9502241"><ele>142.0</ele><time>2026-04-19T10:01:13Z</time></trkpt><trkpt lat="43.8456716" lon="12.9504278"><ele>144.66666666666669</ele><time>2026-04-19T10:01:14Z</time></trkpt><trkpt lat="43.8455657" lon="12.9506378"><ele>147.33333333333334</ele><time>2026-04-19T10:01:15Z</time></trkpt><trkpt lat="43.845456" lon="12.9508347"><ele>150.0</ele><time>2026-04-19T10:01:16Z</time></trkpt><trkpt lat="43.8453438" lon="12.9510415"><ele>151.33333333333334</ele><time>2026-04-19T10:01:17Z</time></trkpt><trkpt lat="43.8452297" lon="12.9512448"><ele>152.66666666666669</ele><time>2026-04-19T10:01:18Z</time></trkpt><trkpt lat="43.8451141" lon="12.9514452"><ele>154.0</ele><time>2026-04-19T10:01:19Z</time></trkpt><trkpt lat="43.8449997" lon="12.95164"><ele>150.0</ele><time>2026-04-19T10:01:20Z</time></trkpt><trkpt lat="43.8448873" lon="12.9518213"><ele>146.0</ele><time>2026-04-19T10:01:21Z</time></trkpt><trkpt lat="43.8447804" lon="12.9520015"><ele>142.0</ele><time>2026-04-19T10:01:22Z</time></trkpt><trkpt lat="43.8446749" lon="12.952187"><ele>142.0</ele><time>2026-04-19T10:01:23Z</time></trkpt><trkpt lat="43.8445694" lon="12.9523759"><ele>142.0</ele><time>2026-04-19T10:01:23.999Z</time></trkpt><trkpt lat="43.8444631" lon="12.9525536"><ele>142.0</ele><time>2026-04-19T10:01:25Z</time></trkpt><trkpt lat="43.8443549" lon="12.9527208"><ele>140.0</ele><time>2026-04-19T10:01:26Z</time></trkpt><trkpt lat="43.8442316" lon="12.9528774"><ele>138.0</ele><time>2026-04-19T10:01:27Z</time></trkpt><trkpt lat="43.8441048" lon="12.9530268"><ele>136.0</ele><time>2026-04-19T10:01:28Z</time></trkpt><trkpt lat="43.8439768" lon="12.9531688"><ele>136.0</ele><time>2026-04-19T10:01:29Z</time></trkpt><trkpt lat="43.8438494" lon="12.9533088"><ele>136.0</ele><time>2026-04-19T10:01:30Z</time></trkpt><trkpt lat="43.8437304" lon="12.9534395"><ele>136.0</ele><time>2026-04-19T10:01:31Z</time></trkpt><trkpt lat="43.8436127" lon="12.9535521"><ele>136.75</ele><time>2026-04-19T10:01:31.999Z</time></trkpt><trkpt lat="43.8434871" lon="12.9536552"><ele>137.5</ele><time>2026-04-19T10:01:33Z</time></trkpt><trkpt lat="43.8433706" lon="12.9537714"><ele>138.25</ele><time>2026-04-19T10:01:34Z</time></trkpt><trkpt lat="43.8432631" lon="12.9539"><ele>139.0</ele><time>2026-04-19T10:01:35Z</time></trkpt><trkpt lat="43.8431802" lon="12.9540232"><ele>136.5</ele><time>2026-04-19T10:01:35.999Z</time></trkpt><trkpt lat="43.8431375" lon="12.9541593"><ele>134.0</ele><time>2026-04-19T10:01:37Z</time></trkpt><trkpt lat="43.8431041" lon="12.9543284"><ele>131.5</ele><time>2026-04-19T10:01:38Z</time></trkpt><trkpt lat="43.8431512" lon="12.9545186"><ele>129.0</ele><time>2026-04-19T10:01:39Z</time></trkpt><trkpt lat="43.8432106" lon="12.9547402"><ele>125.33333333333334</ele><time>2026-04-19T10:01:40Z</time></trkpt><trkpt lat="43.8432962" lon="12.9549904"><ele>121.66666666666667</ele><time>2026-04-19T10:01:41Z</time></trkpt><trkpt lat="43.8434264" lon="12.9552384"><ele>118.0</ele><time>2026-04-19T10:01:42Z</time></trkpt><trkpt lat="43.8435258" lon="12.9554409"><ele>117.33333333333334</ele><time>2026-04-19T10:01:43Z</time></trkpt><trkpt lat="43.8436381" lon="12.9556552"><ele>116.66666666666666</ele><time>2026-04-19T10:01:44Z</time></trkpt><trkpt lat="43.843718" lon="12.9558358"><ele>116.0</ele><time>2026-04-19T10:01:45Z</time></trkpt><trkpt lat="43.8437935" lon="12.9560411"><ele>114.66666666666666</ele><time>2026-04-19T10:01:46Z</time></trkpt><trkpt lat="43.8438432" lon="12.9562609"><ele>113.33333333333334</ele><time>2026-04-19T10:01:47Z</time></trkpt><trkpt lat="43.8438654" lon="12.9564724"><ele>112.0</ele><time>2026-04-19T10:01:48Z</time></trkpt><trkpt lat="43.8438663" lon="12.9566854"><ele>110.0</ele><time>2026-04-19T10:01:49Z</time></trkpt><trkpt lat="43.843846" lon="12.9569009"><ele>108.0</ele><time>2026-04-19T10:01:49.999Z</time></trkpt><trkpt lat="43.8438227" lon="12.9571114"><ele>106.0</ele><time>2026-04-19T10:01:51Z</time></trkpt><trkpt lat="43.8437962" lon="12.957318"><ele>106.0</ele><time>2026-04-19T10:01:52Z</time></trkpt><trkpt lat="43.8437641" lon="12.9575185"><ele>106.0</ele><time>2026-04-19T10:01:53Z</time></trkpt><trkpt lat="43.8437102" lon="12.9577038"><ele>106.0</ele><time>2026-04-19T10:01:54Z</time></trkpt><trkpt lat="43.8436275" lon="12.9578848"><ele>106.0</ele><time>2026-04-19T10:01:55Z</time></trkpt><trkpt lat="43.8435255" lon="12.9580355"><ele>100.66666666666667</ele><time>2026-04-19T10:01:55.999Z</time></trkpt><trkpt lat="43.8434219" lon="12.9581964"><ele>95.33333333333334</ele><time>2026-04-19T10:01:57Z</time></trkpt><trkpt lat="43.8432997" lon="12.9583568"><ele>90.0</ele><time>2026-04-19T10:01:58Z</time></trkpt><trkpt lat="43.8431798" lon="12.9585191"><ele>86.0</ele><time>2026-04-19T10:01:59Z</time></trkpt><trkpt lat="43.8430719" lon="12.9586858"><ele>82.0</ele><time>2026-04-19T10:02:00Z</time></trkpt><trkpt lat="43.8429772" lon="12.9588834"><ele>78.0</ele><time>2026-04-19T10:02:01Z</time></trkpt><trkpt lat="43.8429015" lon="12.9590883"><ele>71.33333333333333</ele><time>2026-04-19T10:02:02Z</time></trkpt><trkpt lat="43.8428305" lon="12.9592883"><ele>64.66666666666666</ele><time>2026-04-19T10:02:03Z</time></trkpt><trkpt lat="43.8427703" lon="12.9594962"><ele>58.0</ele><time>2026-04-19T10:02:04Z</time></trkpt><trkpt lat="43.8426948" lon="12.9596994"><ele>56.666666666666664</ele><time>2026-04-19T10:02:05Z</time></trkpt><trkpt lat="43.8426214" lon="12.9599038"><ele>55.33333333333333</ele><time>2026-04-19T10:02:06Z</time></trkpt><trkpt lat="43.8425307" lon="12.9600973"><ele>54.0</ele><time>2026-04-19T10:02:07Z</time></trkpt><trkpt lat="43.8424329" lon="12.9602845"><ele>54.0</ele><time>2026-04-19T10:02:07.998Z</time></trkpt><trkpt lat="43.8423302" lon="12.9604672"><ele>54.0</ele><time>2026-04-19T10:02:09Z</time></trkpt><trkpt lat="43.8422282" lon="12.9606538"><ele>54.0</ele><time>2026-04-19T10:02:10Z</time></trkpt><trkpt lat="43.842132" lon="12.9608382"><ele>51.333333333333336</ele><time>2026-04-19T10:02:11Z</time></trkpt><trkpt lat="43.8420339" lon="12.96101"><ele>48.66666666666667</ele><time>2026-04-19T10:02:11.999Z</time></trkpt><trkpt lat="43.841935" lon="12.9611791"><ele>46.0</ele><time>2026-04-19T10:02:13Z</time></trkpt><trkpt lat="43.8418444" lon="12.9613254"><ele>46.0</ele><time>2026-04-19T10:02:14Z</time></trkpt><trkpt lat="43.8417481" lon="12.9614878"><ele>46.0</ele><time>2026-04-19T10:02:15Z</time></trkpt><trkpt lat="43.8416266" lon="12.9616014"><ele>46.0</ele><time>2026-04-19T10:02:16Z</time></trkpt><trkpt lat="43.8415061" lon="12.9616996"><ele>46.0</ele><time>2026-04-19T10:02:17Z</time></trkpt><trkpt lat="43.8413649" lon="12.9617617"><ele>46.0</ele><time>2026-04-19T10:02:18Z</time></trkpt><trkpt lat="43.8412163" lon="12.9617275"><ele>46.0</ele><time>2026-04-19T10:02:19Z</time></trkpt><trkpt lat="43.8410747" lon="12.9616711"><ele>46.0</ele><time>2026-04-19T10:02:20Z</time></trkpt><trkpt lat="43.8409401" lon="12.9615659"><ele>43.66666666666667</ele><time>2026-04-19T10:02:21Z</time></trkpt><trkpt lat="43.8408047" lon="12.9614429"><ele>41.333333333333336</ele><time>2026-04-19T10:02:22Z</time></trkpt><trkpt lat="43.8406693" lon="12.9613124"><ele>39.0</ele><time>2026-04-19T10:02:23Z</time></trkpt><trkpt lat="43.8405333" lon="12.9611836"><ele>39.0</ele><time>2026-04-19T10:02:23.999Z</time></trkpt><trkpt lat="43.8403876" lon="12.9610488"><ele>39.0</ele><time>2026-04-19T10:02:25Z</time></trkpt><trkpt lat="43.8402438" lon="12.9609109"><ele>39.0</ele><time>2026-04-19T10:02:26Z</time></trkpt><trkpt lat="43.8400947" lon="12.9607684"><ele>37.666666666666664</ele><time>2026-04-19T10:02:27Z</time></trkpt><trkpt lat="43.8399454" lon="12.9606265"><ele>36.33333333333333</ele><time>2026-04-19T10:02:28Z</time></trkpt><trkpt lat="43.839791" lon="12.9604879"><ele>35.0</ele><time>2026-04-19T10:02:29Z</time></trkpt><trkpt lat="43.8396406" lon="12.9603442"><ele>35.0</ele><time>2026-04-19T10:02:29.999Z</time></trkpt><trkpt lat="43.8394879" lon="12.9601965"><ele>35.0</ele><time>2026-04-19T10:02:31Z</time></trkpt><trkpt lat="43.8393465" lon="12.9600576"><ele>35.0</ele><time>2026-04-19T10:02:32Z</time></trkpt><trkpt lat="43.8392076" lon="12.9599239"><ele>34.25</ele><time>2026-04-19T10:02:33Z</time></trkpt><trkpt lat="43.8390777" lon="12.9597991"><ele>33.5</ele><time>2026-04-19T10:02:33.999Z</time></trkpt><trkpt lat="43.8389556" lon="12.9596823"><ele>32.75</ele><time>2026-04-19T10:02:35Z</time></trkpt><trkpt lat="43.838842" lon="12.9595765"><ele>32.0</ele><time>2026-04-19T10:02:36Z</time></trkpt><trkpt lat="43.8387404" lon="12.9594814"><ele>31.999999999999996</ele><time>2026-04-19T10:02:37Z</time></trkpt><trkpt lat="43.83865" lon="12.9593987"><ele>32.0</ele><time>2026-04-19T10:02:38Z</time></trkpt><trkpt lat="43.8385706" lon="12.959326"><ele>32.0</ele><time>2026-04-19T10:02:39Z</time></trkpt><trkpt lat="43.838504" lon="12.9592633"><ele>32.0</ele><time>2026-04-19T10:02:40Z</time></trkpt><trkpt lat="43.8384487" lon="12.9591998"><ele>31.999999999999996</ele><time>2026-04-19T10:02:41Z</time></trkpt><trkpt lat="43.8383947" lon="12.9591269"><ele>32.0</ele><time>2026-04-19T10:02:42Z</time></trkpt><trkpt lat="43.8383507" lon="12.9590327"><ele>31.833333333333332</ele><time>2026-04-19T10:02:43Z</time></trkpt><trkpt lat="43.8383141" lon="12.958921"><ele>31.666666666666664</ele><time>2026-04-19T10:02:44Z</time></trkpt><trkpt lat="43.8382831" lon="12.9588062"><ele>31.5</ele><time>2026-04-19T10:02:45Z</time></trkpt><trkpt lat="43.8382557" lon="12.9587073"><ele>31.333333333333336</ele><time>2026-04-19T10:02:46Z</time></trkpt><trkpt lat="43.8382289" lon="12.9586109"><ele>31.166666666666668</ele><time>2026-04-19T10:02:46.999Z</time></trkpt><trkpt lat="43.8381945" lon="12.9585378"><ele>31.0</ele><time>2026-04-19T10:02:48Z</time></trkpt><trkpt lat="43.8380735" lon="12.9585035"><ele>31.0</ele><time>2026-04-19T10:02:50Z</time></trkpt><trkpt lat="43.837998" lon="12.9585576"><ele>31.0</ele><time>2026-04-19T10:02:50.999Z</time></trkpt><trkpt lat="43.8379239" lon="12.9586278"><ele>31.0</ele><time>2026-04-19T10:02:52Z</time></trkpt><trkpt lat="43.8378217" lon="12.9587398"><ele>31.0</ele><time>2026-04-19T10:02:52.999Z</time></trkpt><trkpt lat="43.8377027" lon="12.9588582"><ele>31.0</ele><time>2026-04-19T10:02:54Z</time></trkpt><trkpt lat="43.8375918" lon="12.9589731"><ele>31.0</ele><time>2026-04-19T10:02:55Z</time></trkpt><trkpt lat="43.8374747" lon="12.9590962"><ele>31.0</ele><time>2026-04-19T10:02:56Z</time></trkpt><trkpt lat="43.8373546" lon="12.9592213"><ele>31.0</ele><time>2026-04-19T10:02:57Z</time></trkpt><trkpt lat="43.8372332" lon="12.9593518"><ele>30.333333333333336</ele><time>2026-04-19T10:02:57.999Z</time></trkpt><trkpt lat="43.8370996" lon="12.9594895"><ele>29.666666666666664</ele><time>2026-04-19T10:02:59Z</time></trkpt><trkpt lat="43.8369648" lon="12.959629"><ele>29.0</ele><time>2026-04-19T10:03:00Z</time></trkpt><trkpt lat="43.8368283" lon="12.9597707"><ele>28.333333333333332</ele><time>2026-04-19T10:03:01Z</time></trkpt><trkpt lat="43.8366909" lon="12.959913"><ele>27.666666666666664</ele><time>2026-04-19T10:03:02Z</time></trkpt><trkpt lat="43.8365647" lon="12.9600468"><ele>27.0</ele><time>2026-04-19T10:03:02.999Z</time></trkpt><trkpt lat="43.8364501" lon="12.9601704"><ele>26.5</ele><time>2026-04-19T10:03:04Z</time></trkpt><trkpt lat="43.8363344" lon="12.9602934"><ele>26.0</ele><time>2026-04-19T10:03:05Z</time></trkpt><trkpt lat="43.8362281" lon="12.9604"><ele>25.5</ele><time>2026-04-19T10:03:06Z</time></trkpt><trkpt lat="43.8361283" lon="12.9605045"><ele>25.0</ele><time>2026-04-19T10:03:07Z</time></trkpt><trkpt lat="43.8360293" lon="12.9606056"><ele>24.75</ele><time>2026-04-19T10:03:08Z</time></trkpt><trkpt lat="43.835903" lon="12.9605353"><ele>24.5</ele><time>2026-04-19T10:03:09Z</time></trkpt><trkpt lat="43.835785" lon="12.9604987"><ele>24.25</ele><time>2026-04-19T10:03:10Z</time></trkpt><trkpt lat="43.8356595" lon="12.9604467"><ele>24.0</ele><time>2026-04-19T10:03:11Z</time></trkpt><trkpt lat="43.8355396" lon="12.9604221"><ele>24.0</ele><time>2026-04-19T10:03:12Z</time></trkpt><trkpt lat="43.8354048" lon="12.9604243"><ele>24.0</ele><time>2026-04-19T10:03:13Z</time></trkpt><trkpt lat="43.8352759" lon="12.9604674"><ele>24.0</ele><time>2026-04-19T10:03:14Z</time></trkpt><trkpt lat="43.8351463" lon="12.9605138"><ele>24.0</ele><time>2026-04-19T10:03:14.999Z</time></trkpt><trkpt lat="43.8350137" lon="12.9605474"><ele>24.75</ele><time>2026-04-19T10:03:16Z</time></trkpt><trkpt lat="43.8348832" lon="12.9605687"><ele>25.5</ele><time>2026-04-19T10:03:17Z</time></trkpt><trkpt lat="43.8347542" lon="12.9605958"><ele>26.25</ele><time>2026-04-19T10:03:18Z</time></trkpt><trkpt lat="43.8346287" lon="12.9606128"><ele>27.0</ele><time>2026-04-19T10:03:19Z</time></trkpt><trkpt lat="43.8345128" lon="12.9606156"><ele>27.0</ele><time>2026-04-19T10:03:20Z</time></trkpt><trkpt lat="43.8344076" lon="12.9605932"><ele>27.000000000000004</ele><time>2026-04-19T10:03:21Z</time></trkpt><trkpt lat="43.834314" lon="12.9605288"><ele>27.000000000000004</ele><time>2026-04-19T10:03:22Z</time></trkpt><trkpt lat="43.8342449" lon="12.960417"><ele>27.0</ele><time>2026-04-19T10:03:23Z</time></trkpt><trkpt lat="43.8341863" lon="12.9602879"><ele>27.0</ele><time>2026-04-19T10:03:24Z</time></trkpt><trkpt lat="43.8341376" lon="12.9601562"><ele>29.25</ele><time>2026-04-19T10:03:25Z</time></trkpt><trkpt lat="43.8340557" lon="12.9600217"><ele>31.5</ele><time>2026-04-19T10:03:26Z</time></trkpt><trkpt lat="43.8339787" lon="12.959883"><ele>33.75</ele><time>2026-04-19T10:03:27Z</time></trkpt><trkpt lat="43.8338976" lon="12.9597398"><ele>36.0</ele><time>2026-04-19T10:03:27.999Z</time></trkpt><trkpt lat="43.8338041" lon="12.9595755"><ele>36.0</ele><time>2026-04-19T10:03:29Z</time></trkpt><trkpt lat="43.8337117" lon="12.9594102"><ele>36.0</ele><time>2026-04-19T10:03:30Z</time></trkpt><trkpt lat="43.8336136" lon="12.9592568"><ele>36.0</ele><time>2026-04-19T10:03:31Z</time></trkpt><trkpt lat="43.8335087" lon="12.959106"><ele>37.666666666666664</ele><time>2026-04-19T10:03:32Z</time></trkpt><trkpt lat="43.8334022" lon="12.9589541"><ele>39.33333333333333</ele><time>2026-04-19T10:03:33Z</time></trkpt><trkpt lat="43.8332614" lon="12.9588706"><ele>41.0</ele><time>2026-04-19T10:03:34Z</time></trkpt><trkpt lat="43.8331189" lon="12.9587727"><ele>41.0</ele><time>2026-04-19T10:03:35Z</time></trkpt><trkpt lat="43.8329709" lon="12.9586887"><ele>41.0</ele><time>2026-04-19T10:03:36Z</time></trkpt><trkpt lat="43.8328269" lon="12.958587"><ele>41.0</ele><time>2026-04-19T10:03:37Z</time></trkpt><trkpt lat="43.832688" lon="12.9584877"><ele>41.0</ele><time>2026-04-19T10:03:38Z</time></trkpt><trkpt lat="43.8325537" lon="12.9583656"><ele>41.0</ele><time>2026-04-19T10:03:38.999Z</time></trkpt><trkpt lat="43.8324245" lon="12.9582396"><ele>41.0</ele><time>2026-04-19T10:03:40Z</time></trkpt><trkpt lat="43.8323027" lon="12.9581057"><ele>41.0</ele><time>2026-04-19T10:03:41Z</time></trkpt><trkpt lat="43.8321962" lon="12.9579549"><ele>41.0</ele><time>2026-04-19T10:03:42Z</time></trkpt><trkpt lat="43.8320963" lon="12.9577839"><ele>41.0</ele><time>2026-04-19T10:03:43Z</time></trkpt><trkpt lat="43.8320054" lon="12.9576166"><ele>42.0</ele><time>2026-04-19T10:03:44Z</time></trkpt><trkpt lat="43.8319092" lon="12.9574609"><ele>43.0</ele><time>2026-04-19T10:03:45Z</time></trkpt><trkpt lat="43.8317948" lon="12.9573277"><ele>44.0</ele><time>2026-04-19T10:03:46Z</time></trkpt><trkpt lat="43.8316722" lon="12.9572128"><ele>45.0</ele><time>2026-04-19T10:03:47Z</time></trkpt><trkpt lat="43.831539" lon="12.9571011"><ele>45.0</ele><time>2026-04-19T10:03:48Z</time></trkpt><trkpt lat="43.8314073" lon="12.9569804"><ele>45.0</ele><time>2026-04-19T10:03:49Z</time></trkpt><trkpt lat="43.8312977" lon="12.9568391"><ele>45.0</ele><time>2026-04-19T10:03:50Z</time></trkpt><trkpt lat="43.8311858" lon="12.9566942"><ele>44.0</ele><time>2026-04-19T10:03:51Z</time></trkpt><trkpt lat="43.8310916" lon="12.9565521"><ele>43.0</ele><time>2026-04-19T10:03:52Z</time></trkpt><trkpt lat="43.8309817" lon="12.9564569"><ele>42.0</ele><time>2026-04-19T10:03:53Z</time></trkpt><trkpt lat="43.8308708" lon="12.9564003"><ele>41.0</ele><time>2026-04-19T10:03:54Z</time></trkpt><trkpt lat="43.8307712" lon="12.9563228"><ele>41.0</ele><time>2026-04-19T10:03:55Z</time></trkpt><trkpt lat="43.8307289" lon="12.9561945"><ele>41.0</ele><time>2026-04-19T10:03:56Z</time></trkpt><trkpt lat="43.8306982" lon="12.9560804"><ele>41.0</ele><time>2026-04-19T10:03:57Z</time></trkpt><trkpt lat="43.8306875" lon="12.955963"><ele>41.0</ele><time>2026-04-19T10:03:58Z</time></trkpt><trkpt lat="43.8306995" lon="12.955832"><ele>41.0</ele><time>2026-04-19T10:03:59Z</time></trkpt><trkpt lat="43.8307113" lon="12.9556929"><ele>39.0</ele><time>2026-04-19T10:04:00Z</time></trkpt><trkpt lat="43.8307258" lon="12.9555478"><ele>37.0</ele><time>2026-04-19T10:04:01Z</time></trkpt><trkpt lat="43.8307502" lon="12.9553969"><ele>35.0</ele><time>2026-04-19T10:04:02Z</time></trkpt><trkpt lat="43.8307704" lon="12.9552387"><ele>33.0</ele><time>2026-04-19T10:04:03Z</time></trkpt><trkpt lat="43.830789" lon="12.9550781"><ele>32.333333333333336</ele><time>2026-04-19T10:04:04Z</time></trkpt><trkpt lat="43.8307937" lon="12.954951"><ele>31.666666666666664</ele><time>2026-04-19T10:04:05Z</time></trkpt><trkpt lat="43.8307741" lon="12.95484"><ele>31.0</ele><time>2026-04-19T10:04:06Z</time></trkpt><trkpt lat="43.830732" lon="12.9547584"><ele>30.333333333333332</ele><time>2026-04-19T10:04:07Z</time></trkpt><trkpt lat="43.830653" lon="12.9547035"><ele>29.666666666666664</ele><time>2026-04-19T10:04:08Z</time></trkpt><trkpt lat="43.8305575" lon="12.954666"><ele>29.0</ele><time>2026-04-19T10:04:09Z</time></trkpt><trkpt lat="43.8304565" lon="12.9546283"><ele>29.0</ele><time>2026-04-19T10:04:10Z</time></trkpt><trkpt lat="43.8303421" lon="12.9545742"><ele>29.0</ele><time>2026-04-19T10:04:11Z</time></trkpt><trkpt lat="43.8302335" lon="12.9544914"><ele>29.0</ele><time>2026-04-19T10:04:12Z</time></trkpt><trkpt lat="43.8301267" lon="12.9544007"><ele>29.0</ele><time>2026-04-19T10:04:13Z</time></trkpt><trkpt lat="43.8300161" lon="12.9542989"><ele>29.5</ele><time>2026-04-19T10:04:14Z</time></trkpt><trkpt lat="43.8298992" lon="12.9541996"><ele>30.0</ele><time>2026-04-19T10:04:15Z</time></trkpt><trkpt lat="43.8297766" lon="12.9540926"><ele>30.5</ele><time>2026-04-19T10:04:16Z</time></trkpt><trkpt lat="43.82965" lon="12.9539816"><ele>31.0</ele><time>2026-04-19T10:04:17Z</time></trkpt><trkpt lat="43.8295246" lon="12.9538695"><ele>31.0</ele><time>2026-04-19T10:04:18Z</time></trkpt><trkpt lat="43.8294021" lon="12.95376"><ele>31.0</ele><time>2026-04-19T10:04:19Z</time></trkpt><trkpt lat="43.8292908" lon="12.9536499"><ele>31.0</ele><time>2026-04-19T10:04:20Z</time></trkpt><trkpt lat="43.8291809" lon="12.9535507"><ele>31.0</ele><time>2026-04-19T10:04:21Z</time></trkpt><trkpt lat="43.8290782" lon="12.9534566"><ele>31.25</ele><time>2026-04-19T10:04:22Z</time></trkpt><trkpt lat="43.8289754" lon="12.9533654"><ele>31.5</ele><time>2026-04-19T10:04:22.999Z</time></trkpt><trkpt lat="43.8288643" lon="12.9532841"><ele>31.75</ele><time>2026-04-19T10:04:24Z</time></trkpt><trkpt lat="43.8287503" lon="12.9531999"><ele>32.0</ele><time>2026-04-19T10:04:25Z</time></trkpt><trkpt lat="43.8286338" lon="12.9531155"><ele>32.0</ele><time>2026-04-19T10:04:25.999Z</time></trkpt><trkpt lat="43.8285128" lon="12.9530279"><ele>32.0</ele><time>2026-04-19T10:04:27Z</time></trkpt><trkpt lat="43.8283851" lon="12.9529381"><ele>32.0</ele><time>2026-04-19T10:04:28Z</time></trkpt><trkpt lat="43.8282562" lon="12.952848"><ele>32.0</ele><time>2026-04-19T10:04:29Z</time></trkpt><trkpt lat="43.8281308" lon="12.952762"><ele>32.75</ele><time>2026-04-19T10:04:30Z</time></trkpt><trkpt lat="43.8280006" lon="12.9526848"><ele>33.5</ele><time>2026-04-19T10:04:31Z</time></trkpt><trkpt lat="43.8278725" lon="12.952596"><ele>34.25</ele><time>2026-04-19T10:04:32Z</time></trkpt><trkpt lat="43.8277359" lon="12.9525191"><ele>35.0</ele><time>2026-04-19T10:04:33Z</time></trkpt><trkpt lat="43.8276145" lon="12.952447"><ele>36.5</ele><time>2026-04-19T10:04:34Z</time></trkpt><trkpt lat="43.827492" lon="12.9523742"><ele>38.0</ele><time>2026-04-19T10:04:34.999Z</time></trkpt><trkpt lat="43.82736" lon="12.9523003"><ele>39.5</ele><time>2026-04-19T10:04:36Z</time></trkpt><trkpt lat="43.8272296" lon="12.9522293"><ele>41.0</ele><time>2026-04-19T10:04:37Z</time></trkpt><trkpt lat="43.8270971" lon="12.952157"><ele>41.0</ele><time>2026-04-19T10:04:38Z</time></trkpt><trkpt lat="43.8269646" lon="12.952087"><ele>41.0</ele><time>2026-04-19T10:04:39Z</time></trkpt><trkpt lat="43.8268328" lon="12.9520133"><ele>41.0</ele><time>2026-04-19T10:04:40Z</time></trkpt><trkpt lat="43.8266995" lon="12.9519273"><ele>41.0</ele><time>2026-04-19T10:04:41Z</time></trkpt><trkpt lat="43.826568" lon="12.9518678"><ele>40.25</ele><time>2026-04-19T10:04:42Z</time></trkpt><trkpt lat="43.8264368" lon="12.9518098"><ele>39.5</ele><time>2026-04-19T10:04:43Z</time></trkpt><trkpt lat="43.8263231" lon="12.9517217"><ele>38.75</ele><time>2026-04-19T10:04:43.999Z</time></trkpt><trkpt lat="43.8262113" lon="12.9516307"><ele>38.0</ele><time>2026-04-19T10:04:45Z</time></trkpt><trkpt lat="43.8261167" lon="12.9515051"><ele>38.5</ele><time>2026-04-19T10:04:46Z</time></trkpt><trkpt lat="43.826019" lon="12.9513881"><ele>39.0</ele><time>2026-04-19T10:04:47Z</time></trkpt><trkpt lat="43.8259238" lon="12.9512549"><ele>39.5</ele><time>2026-04-19T10:04:48Z</time></trkpt><trkpt lat="43.8258381" lon="12.9511208"><ele>40.0</ele><time>2026-04-19T10:04:49Z</time></trkpt><trkpt lat="43.8257635" lon="12.950984"><ele>42.5</ele><time>2026-04-19T10:04:50Z</time></trkpt><trkpt lat="43.8257018" lon="12.9508365"><ele>45.0</ele><time>2026-04-19T10:04:51Z</time></trkpt><trkpt lat="43.8256555" lon="12.9506883"><ele>47.5</ele><time>2026-04-19T10:04:52Z</time></trkpt><trkpt lat="43.8256213" lon="12.9505367"><ele>50.0</ele><time>2026-04-19T10:04:53Z</time></trkpt><trkpt lat="43.8255697" lon="12.9503969"><ele>50.0</ele><time>2026-04-19T10:04:54Z</time></trkpt><trkpt lat="43.82551" lon="12.9502692"><ele>50.0</ele><time>2026-04-19T10:04:55Z</time></trkpt><trkpt lat="43.8254348" lon="12.9501417"><ele>50.0</ele><time>2026-04-19T10:04:56Z</time></trkpt><trkpt lat="43.8253409" lon="12.9500159"><ele>50.0</ele><time>2026-04-19T10:04:57Z</time></trkpt><trkpt lat="43.8252432" lon="12.9499034"><ele>48.4</ele><time>2026-04-19T10:04:58Z</time></trkpt><trkpt lat="43.8251414" lon="12.9498091"><ele>46.8</ele><time>2026-04-19T10:04:58.999Z</time></trkpt><trkpt lat="43.8250471" lon="12.949713"><ele>45.2</ele><time>2026-04-19T10:05:00Z</time></trkpt><trkpt lat="43.8249601" lon="12.9496162"><ele>43.6</ele><time>2026-04-19T10:05:00.999Z</time></trkpt><trkpt lat="43.824888" lon="12.9495236"><ele>42.0</ele><time>2026-04-19T10:05:02Z</time></trkpt><trkpt lat="43.8248292" lon="12.9494466"><ele>42.0</ele><time>2026-04-19T10:05:03Z</time></trkpt><trkpt lat="43.8247715" lon="12.9493933"><ele>42.0</ele><time>2026-04-19T10:05:04Z</time></trkpt><trkpt lat="43.8247063" lon="12.9493793"><ele>42.0</ele><time>2026-04-19T10:05:05Z</time></trkpt><trkpt lat="43.8246445" lon="12.9494071"><ele>42.0</ele><time>2026-04-19T10:05:06Z</time></trkpt><trkpt lat="43.8245741" lon="12.9494648"><ele>42.0</ele><time>2026-04-19T10:05:06.999Z</time></trkpt><trkpt lat="43.8245009" lon="12.9495373"><ele>42.0</ele><time>2026-04-19T10:05:08Z</time></trkpt><trkpt lat="43.8244354" lon="12.9496112"><ele>42.0</ele><time>2026-04-19T10:05:09Z</time></trkpt><trkpt lat="43.8243807" lon="12.9496835"><ele>42.0</ele><time>2026-04-19T10:05:10Z</time></trkpt><trkpt lat="43.8243559" lon="12.9498362"><ele>42.0</ele><time>2026-04-19T10:05:12Z</time></trkpt><trkpt lat="43.8243837" lon="12.9499277"><ele>42.0</ele><time>2026-04-19T10:05:13Z</time></trkpt><trkpt lat="43.8244256" lon="12.9500237"><ele>42.0</ele><time>2026-04-19T10:05:14Z</time></trkpt><trkpt lat="43.8244624" lon="12.9501317"><ele>42.0</ele><time>2026-04-19T10:05:15Z</time></trkpt><trkpt lat="43.8244817" lon="12.9502456"><ele>41.8</ele><time>2026-04-19T10:05:16Z</time></trkpt><trkpt lat="43.8244778" lon="12.950362"><ele>41.6</ele><time>2026-04-19T10:05:17Z</time></trkpt><trkpt lat="43.8244533" lon="12.9504841"><ele>41.4</ele><time>2026-04-19T10:05:18Z</time></trkpt><trkpt lat="43.8244088" lon="12.9506133"><ele>41.199999999999996</ele><time>2026-04-19T10:05:19Z</time></trkpt><trkpt lat="43.8243589" lon="12.9507512"><ele>41.0</ele><time>2026-04-19T10:05:20Z</time></trkpt><trkpt lat="43.8243077" lon="12.9508984"><ele>41.0</ele><time>2026-04-19T10:05:21Z</time></trkpt><trkpt lat="43.8242512" lon="12.9510504"><ele>41.0</ele><time>2026-04-19T10:05:22Z</time></trkpt><trkpt lat="43.8241995" lon="12.9511895"><ele>41.0</ele><time>2026-04-19T10:05:23Z</time></trkpt><trkpt lat="43.8241465" lon="12.9513156"><ele>41.0</ele><time>2026-04-19T10:05:24Z</time></trkpt><trkpt lat="43.824079" lon="12.9514267"><ele>41.0</ele><time>2026-04-19T10:05:25Z</time></trkpt><trkpt lat="43.8239907" lon="12.9515188"><ele>41.0</ele><time>2026-04-19T10:05:26Z</time></trkpt><trkpt lat="43.8238896" lon="12.9515977"><ele>41.0</ele><time>2026-04-19T10:05:27Z</time></trkpt><trkpt lat="43.8237864" lon="12.9516709"><ele>41.0</ele><time>2026-04-19T10:05:28Z</time></trkpt><trkpt lat="43.8236837" lon="12.95175"><ele>41.0</ele><time>2026-04-19T10:05:29Z</time></trkpt><trkpt lat="43.8235841" lon="12.9518244"><ele>40.4</ele><time>2026-04-19T10:05:30Z</time></trkpt><trkpt lat="43.8234879" lon="12.9519012"><ele>39.8</ele><time>2026-04-19T10:05:31Z</time></trkpt><trkpt lat="43.8233919" lon="12.9519787"><ele>39.199999999999996</ele><time>2026-04-19T10:05:31.999Z</time></trkpt><trkpt lat="43.823296" lon="12.952054"><ele>38.599999999999994</ele><time>2026-04-19T10:05:33Z</time></trkpt><trkpt lat="43.8232069" lon="12.9521253"><ele>38.0</ele><time>2026-04-19T10:05:34Z</time></trkpt><trkpt lat="43.8231181" lon="12.9521949"><ele>39.2</ele><time>2026-04-19T10:05:35Z</time></trkpt><trkpt lat="43.823028" lon="12.952261"><ele>40.4</ele><time>2026-04-19T10:05:36Z</time></trkpt><trkpt lat="43.8229441" lon="12.9523229"><ele>41.6</ele><time>2026-04-19T10:05:37Z</time></trkpt><trkpt lat="43.8228571" lon="12.9523877"><ele>42.800000000000004</ele><time>2026-04-19T10:05:38Z</time></trkpt><trkpt lat="43.822772" lon="12.9524536"><ele>44.0</ele><time>2026-04-19T10:05:38.999Z</time></trkpt><trkpt lat="43.8226809" lon="12.9525103"><ele>45.2</ele><time>2026-04-19T10:05:40Z</time></trkpt><trkpt lat="43.8225919" lon="12.9525746"><ele>46.400000000000006</ele><time>2026-04-19T10:05:41Z</time></trkpt><trkpt lat="43.8225024" lon="12.9526363"><ele>47.6</ele><time>2026-04-19T10:05:42Z</time></trkpt><trkpt lat="43.8224059" lon="12.9527317"><ele>48.8</ele><time>2026-04-19T10:05:44Z</time></trkpt><trkpt lat="43.8223422" lon="12.9527591"><ele>50.0</ele><time>2026-04-19T10:05:45Z</time></trkpt><trkpt lat="43.822226" lon="12.9527131"><ele>50.00000000000001</ele><time>2026-04-19T10:05:47Z</time></trkpt><trkpt lat="43.8222339" lon="12.9526044"><ele>50.0</ele><time>2026-04-19T10:05:48Z</time></trkpt><trkpt lat="43.8222532" lon="12.9525049"><ele>50.0</ele><time>2026-04-19T10:05:49Z</time></trkpt><trkpt lat="43.8222893" lon="12.9524041"><ele>50.0</ele><time>2026-04-19T10:05:50Z</time></trkpt><trkpt lat="43.8223381" lon="12.9522315"><ele>50.00000000000001</ele><time>2026-04-19T10:05:52Z</time></trkpt><trkpt lat="43.8223542" lon="12.9521211"><ele>50.0</ele><time>2026-04-19T10:05:53Z</time></trkpt><trkpt lat="43.8223624" lon="12.9520128"><ele>52.0</ele><time>2026-04-19T10:05:54Z</time></trkpt><trkpt lat="43.822379" lon="12.9518894"><ele>54.0</ele><time>2026-04-19T10:05:55Z</time></trkpt><trkpt lat="43.8223928" lon="12.9517672"><ele>56.0</ele><time>2026-04-19T10:05:56Z</time></trkpt><trkpt lat="43.8224077" lon="12.9516557"><ele>58.0</ele><time>2026-04-19T10:05:57Z</time></trkpt><trkpt lat="43.8224204" lon="12.9514959"><ele>60.0</ele><time>2026-04-19T10:05:59Z</time></trkpt><trkpt lat="43.8224319" lon="12.9513439"><ele>62.0</ele><time>2026-04-19T10:06:01Z</time></trkpt><trkpt lat="43.8224475" lon="12.951226"><ele>64.0</ele><time>2026-04-19T10:06:03Z</time></trkpt><trkpt lat="43.8224667" lon="12.951102"><ele>66.0</ele><time>2026-04-19T10:06:05Z</time></trkpt><trkpt lat="43.8224664" lon="12.9509792"><ele>68.0</ele><time>2026-04-19T10:06:07Z</time></trkpt><trkpt lat="43.8224656" lon="12.9508691"><ele>70.0</ele><time>2026-04-19T10:06:09Z</time></trkpt><trkpt lat="43.8224227" lon="12.9507859"><ele>72.0</ele><time>2026-04-19T10:06:11Z</time></trkpt><trkpt lat="43.8223117" lon="12.9507541"><ele>72.0</ele><time>2026-04-19T10:06:13Z</time></trkpt><trkpt lat="43.8222439" lon="12.9507776"><ele>72.0</ele><time>2026-04-19T10:06:14Z</time></trkpt><trkpt lat="43.8221643" lon="12.9508157"><ele>72.0</ele><time>2026-04-19T10:06:14.999Z</time></trkpt><trkpt lat="43.8220743" lon="12.9508586"><ele>72.0</ele><time>2026-04-19T10:06:16Z</time></trkpt><trkpt lat="43.8219772" lon="12.9509036"><ele>72.0</ele><time>2026-04-19T10:06:17Z</time></trkpt><trkpt lat="43.8218784" lon="12.9509465"><ele>75.2</ele><time>2026-04-19T10:06:18Z</time></trkpt><trkpt lat="43.8217751" lon="12.9509946"><ele>78.4</ele><time>2026-04-19T10:06:19Z</time></trkpt><trkpt lat="43.821674" lon="12.9510483"><ele>81.60000000000001</ele><time>2026-04-19T10:06:20Z</time></trkpt><trkpt lat="43.8215729" lon="12.9511039"><ele>84.80000000000001</ele><time>2026-04-19T10:06:21Z</time></trkpt><trkpt lat="43.8214702" lon="12.951164"><ele>88.0</ele><time>2026-04-19T10:06:22Z</time></trkpt><trkpt lat="43.8213725" lon="12.9512238"><ele>88.0</ele><time>2026-04-19T10:06:23Z</time></trkpt><trkpt lat="43.8212738" lon="12.9512864"><ele>88.0</ele><time>2026-04-19T10:06:24Z</time></trkpt><trkpt lat="43.8211761" lon="12.9513536"><ele>88.0</ele><time>2026-04-19T10:06:25Z</time></trkpt><trkpt lat="43.8210792" lon="12.9514212"><ele>88.0</ele><time>2026-04-19T10:06:26Z</time></trkpt><trkpt lat="43.8209806" lon="12.9514851"><ele>88.0</ele><time>2026-04-19T10:06:27Z</time></trkpt><trkpt lat="43.8208879" lon="12.9515328"><ele>91.80000000000001</ele><time>2026-04-19T10:06:28Z</time></trkpt><trkpt lat="43.8207996" lon="12.9515693"><ele>95.6</ele><time>2026-04-19T10:06:29Z</time></trkpt><trkpt lat="43.8207113" lon="12.9515793"><ele>99.39999999999999</ele><time>2026-04-19T10:06:30Z</time></trkpt><trkpt lat="43.8206222" lon="12.9515788"><ele>103.19999999999999</ele><time>2026-04-19T10:06:31Z</time></trkpt><trkpt lat="43.8205345" lon="12.9515626"><ele>107.0</ele><time>2026-04-19T10:06:32Z</time></trkpt><trkpt lat="43.8204383" lon="12.9515472"><ele>107.0</ele><time>2026-04-19T10:06:33Z</time></trkpt><trkpt lat="43.8203358" lon="12.9515485"><ele>106.99999999999999</ele><time>2026-04-19T10:06:33.999Z</time></trkpt><trkpt lat="43.8202384" lon="12.9515498"><ele>106.99999999999999</ele><time>2026-04-19T10:06:35Z</time></trkpt><trkpt lat="43.8201353" lon="12.9515591"><ele>107.0</ele><time>2026-04-19T10:06:36Z</time></trkpt><trkpt lat="43.8200291" lon="12.951584"><ele>107.0</ele><time>2026-04-19T10:06:37Z</time></trkpt><trkpt lat="43.8199228" lon="12.9516155"><ele>107.0</ele><time>2026-04-19T10:06:38Z</time></trkpt><trkpt lat="43.8198149" lon="12.9516523"><ele>106.99999999999999</ele><time>2026-04-19T10:06:39Z</time></trkpt><trkpt lat="43.8197065" lon="12.95169"><ele>106.99999999999999</ele><time>2026-04-19T10:06:40Z</time></trkpt><trkpt lat="43.8196028" lon="12.9517339"><ele>107.0</ele><time>2026-04-19T10:06:41Z</time></trkpt><trkpt lat="43.8195036" lon="12.9517826"><ele>107.0</ele><time>2026-04-19T10:06:42Z</time></trkpt><trkpt lat="43.8194092" lon="12.9518543"><ele>107.0</ele><time>2026-04-19T10:06:43Z</time></trkpt><trkpt lat="43.819323" lon="12.9519314"><ele>106.99999999999999</ele><time>2026-04-19T10:06:44Z</time></trkpt><trkpt lat="43.8192422" lon="12.9520032"><ele>106.99999999999999</ele><time>2026-04-19T10:06:45Z</time></trkpt><trkpt lat="43.8191646" lon="12.9520698"><ele>107.0</ele><time>2026-04-19T10:06:46Z</time></trkpt><trkpt lat="43.8190844" lon="12.952134"><ele>107.0</ele><time>2026-04-19T10:06:47Z</time></trkpt><trkpt lat="43.8190103" lon="12.9521945"><ele>109.66666666666666</ele><time>2026-04-19T10:06:48Z</time></trkpt><trkpt lat="43.8189424" lon="12.9522487"><ele>112.33333333333333</ele><time>2026-04-19T10:06:49Z</time></trkpt><trkpt lat="43.8188949" lon="12.9523152"><ele>115.0</ele><time>2026-04-19T10:06:50Z</time></trkpt><trkpt lat="43.8188448" lon="12.9523936"><ele>117.66666666666666</ele><time>2026-04-19T10:06:51Z</time></trkpt><trkpt lat="43.8187963" lon="12.9524872"><ele>120.33333333333333</ele><time>2026-04-19T10:06:52Z</time></trkpt><trkpt lat="43.8187411" lon="12.9525876"><ele>123.0</ele><time>2026-04-19T10:06:52.999Z</time></trkpt><trkpt lat="43.8186876" lon="12.9526805"><ele>123.0</ele><time>2026-04-19T10:06:54Z</time></trkpt><trkpt lat="43.8186376" lon="12.9527651"><ele>123.0</ele><time>2026-04-19T10:06:55Z</time></trkpt><trkpt lat="43.8185856" lon="12.9528532"><ele>123.0</ele><time>2026-04-19T10:06:56Z</time></trkpt><trkpt lat="43.8185277" lon="12.9529361"><ele>123.0</ele><time>2026-04-19T10:06:57Z</time></trkpt><trkpt lat="43.8184644" lon="12.953018"><ele>123.0</ele><time>2026-04-19T10:06:58Z</time></trkpt><trkpt lat="43.8184061" lon="12.9530954"><ele>123.0</ele><time>2026-04-19T10:06:59Z</time></trkpt><trkpt lat="43.818352" lon="12.9531743"><ele>125.0</ele><time>2026-04-19T10:07:00Z</time></trkpt><trkpt lat="43.8182774" lon="12.9533134"><ele>127.00000000000001</ele><time>2026-04-19T10:07:02Z</time></trkpt><trkpt lat="43.8182292" lon="12.9533974"><ele>129.0</ele><time>2026-04-19T10:07:03Z</time></trkpt><trkpt lat="43.8181788" lon="12.9534987"><ele>131.0</ele><time>2026-04-19T10:07:04Z</time></trkpt><trkpt lat="43.8181277" lon="12.9535989"><ele>133.0</ele><time>2026-04-19T10:07:05Z</time></trkpt><trkpt lat="43.8180734" lon="12.9537132"><ele>133.0</ele><time>2026-04-19T10:07:06Z</time></trkpt><trkpt lat="43.8180176" lon="12.9538239"><ele>133.0</ele><time>2026-04-19T10:07:07Z</time></trkpt><trkpt lat="43.817966" lon="12.9539277"><ele>133.0</ele><time>2026-04-19T10:07:07.999Z</time></trkpt><trkpt lat="43.8179207" lon="12.9540227"><ele>133.0</ele><time>2026-04-19T10:07:09Z</time></trkpt><trkpt lat="43.817867" lon="12.9541058"><ele>133.0</ele><time>2026-04-19T10:07:10Z</time></trkpt><trkpt lat="43.8178147" lon="12.9541769"><ele>133.0</ele><time>2026-04-19T10:07:11Z</time></trkpt><trkpt lat="43.8177603" lon="12.9542411"><ele>131.5</ele><time>2026-04-19T10:07:12Z</time></trkpt><trkpt lat="43.8176972" lon="12.9542998"><ele>130.0</ele><time>2026-04-19T10:07:13Z</time></trkpt><trkpt lat="43.8176315" lon="12.9543547"><ele>128.5</ele><time>2026-04-19T10:07:14Z</time></trkpt><trkpt lat="43.8175576" lon="12.9544163"><ele>127.0</ele><time>2026-04-19T10:07:15Z</time></trkpt><trkpt lat="43.817486" lon="12.9544867"><ele>125.50000000000001</ele><time>2026-04-19T10:07:16Z</time></trkpt><trkpt lat="43.8174188" lon="12.9545572"><ele>124.0</ele><time>2026-04-19T10:07:17Z</time></trkpt><trkpt lat="43.8173496" lon="12.954634"><ele>125.00000000000001</ele><time>2026-04-19T10:07:18Z</time></trkpt><trkpt lat="43.8172858" lon="12.9547145"><ele>126.0</ele><time>2026-04-19T10:07:19Z</time></trkpt><trkpt lat="43.8172202" lon="12.9547985"><ele>127.0</ele><time>2026-04-19T10:07:20Z</time></trkpt><trkpt lat="43.8171606" lon="12.9548796"><ele>128.0</ele><time>2026-04-19T10:07:21Z</time></trkpt><trkpt lat="43.817104" lon="12.9549551"><ele>129.0</ele><time>2026-04-19T10:07:22Z</time></trkpt><trkpt lat="43.8170497" lon="12.9550269"><ele>130.0</ele><time>2026-04-19T10:07:23Z</time></trkpt><trkpt lat="43.8169633" lon="12.9551258"><ele>130.0</ele><time>2026-04-19T10:07:25Z</time></trkpt><trkpt lat="43.8168775" lon="12.9552074"><ele>130.0</ele><time>2026-04-19T10:07:27Z</time></trkpt><trkpt lat="43.816799" lon="12.9553015"><ele>130.0</ele><time>2026-04-19T10:07:29Z</time></trkpt><trkpt lat="43.8167157" lon="12.9554181"><ele>130.0</ele><time>2026-04-19T10:07:31Z</time></trkpt><trkpt lat="43.816628" lon="12.955524"><ele>130.0</ele><time>2026-04-19T10:07:33Z</time></trkpt><trkpt lat="43.8165427" lon="12.9556405"><ele>132.2</ele><time>2026-04-19T10:07:35Z</time></trkpt><trkpt lat="43.8164911" lon="12.9556922"><ele>134.4</ele><time>2026-04-19T10:07:36Z</time></trkpt><trkpt lat="43.8163923" lon="12.9557892"><ele>136.6</ele><time>2026-04-19T10:07:38Z</time></trkpt><trkpt lat="43.8163375" lon="12.9558379"><ele>138.8</ele><time>2026-04-19T10:07:39Z</time></trkpt><trkpt lat="43.8162424" lon="12.9559185"><ele>141.0</ele><time>2026-04-19T10:07:41Z</time></trkpt><trkpt lat="43.8161407" lon="12.9560126"><ele>141.0</ele><time>2026-04-19T10:07:43Z</time></trkpt><trkpt lat="43.8160542" lon="12.9560797"><ele>141.0</ele><time>2026-04-19T10:07:45Z</time></trkpt><trkpt lat="43.815975" lon="12.9561635"><ele>141.0</ele><time>2026-04-19T10:07:47Z</time></trkpt><trkpt lat="43.8159211" lon="12.956237"><ele>141.0</ele><time>2026-04-19T10:07:49Z</time></trkpt><trkpt lat="43.8158586" lon="12.956347"><ele>141.0</ele><time>2026-04-19T10:07:52Z</time></trkpt><trkpt lat="43.8157701" lon="12.9564568"><ele>143.0</ele><time>2026-04-19T10:07:54Z</time></trkpt><trkpt lat="43.8156998" lon="12.9565235"><ele>145.0</ele><time>2026-04-19T10:07:55Z</time></trkpt><trkpt lat="43.8156323" lon="12.9565967"><ele>147.0</ele><time>2026-04-19T10:07:56Z</time></trkpt><trkpt lat="43.8155635" lon="12.9566591"><ele>149.0</ele><time>2026-04-19T10:07:57Z</time></trkpt><trkpt lat="43.8154958" lon="12.9567208"><ele>151.0</ele><time>2026-04-19T10:07:58Z</time></trkpt><trkpt lat="43.8154326" lon="12.9567966"><ele>153.0</ele><time>2026-04-19T10:07:59Z</time></trkpt><trkpt lat="43.8153898" lon="12.9568796"><ele>153.0</ele><time>2026-04-19T10:08:00Z</time></trkpt><trkpt lat="43.8153506" lon="12.9569863"><ele>153.0</ele><time>2026-04-19T10:08:01Z</time></trkpt><trkpt lat="43.8153262" lon="12.9571018"><ele>153.0</ele><time>2026-04-19T10:08:02Z</time></trkpt><trkpt lat="43.8153016" lon="12.9572187"><ele>153.0</ele><time>2026-04-19T10:08:03Z</time></trkpt><trkpt lat="43.815292" lon="12.9573431"><ele>153.0</ele><time>2026-04-19T10:08:04Z</time></trkpt><trkpt lat="43.8152966" lon="12.9574736"><ele>153.0</ele><time>2026-04-19T10:08:05Z</time></trkpt><trkpt lat="43.8153065" lon="12.9576025"><ele>152.4</ele><time>2026-04-19T10:08:06Z</time></trkpt><trkpt lat="43.8153203" lon="12.9577281"><ele>151.8</ele><time>2026-04-19T10:08:07Z</time></trkpt><trkpt lat="43.8153358" lon="12.9578515"><ele>151.2</ele><time>2026-04-19T10:08:08Z</time></trkpt><trkpt lat="43.8153596" lon="12.9579809"><ele>150.6</ele><time>2026-04-19T10:08:09Z</time></trkpt><trkpt lat="43.815392" lon="12.9581121"><ele>150.0</ele><time>2026-04-19T10:08:10Z</time></trkpt><trkpt lat="43.8154355" lon="12.9582475"><ele>150.0</ele><time>2026-04-19T10:08:11Z</time></trkpt><trkpt lat="43.8154756" lon="12.9583658"><ele>150.0</ele><time>2026-04-19T10:08:12Z</time></trkpt><trkpt lat="43.8155122" lon="12.9584713"><ele>150.0</ele><time>2026-04-19T10:08:13Z</time></trkpt><trkpt lat="43.8155336" lon="12.9585708"><ele>150.0</ele><time>2026-04-19T10:08:14Z</time></trkpt><trkpt lat="43.815542" lon="12.9586714"><ele>150.0</ele><time>2026-04-19T10:08:15Z</time></trkpt><trkpt lat="43.8155233" lon="12.958772"><ele>150.0</ele><time>2026-04-19T10:08:16Z</time></trkpt><trkpt lat="43.8155043" lon="12.9588699"><ele>149.28571428571428</ele><time>2026-04-19T10:08:17Z</time></trkpt><trkpt lat="43.8154774" lon="12.9589609"><ele>148.57142857142856</ele><time>2026-04-19T10:08:18Z</time></trkpt><trkpt lat="43.8154482" lon="12.9590553"><ele>147.85714285714286</ele><time>2026-04-19T10:08:19Z</time></trkpt><trkpt lat="43.8154129" lon="12.9591447"><ele>147.14285714285714</ele><time>2026-04-19T10:08:20Z</time></trkpt><trkpt lat="43.8153766" lon="12.9592291"><ele>146.42857142857144</ele><time>2026-04-19T10:08:21Z</time></trkpt><trkpt lat="43.8153437" lon="12.9593168"><ele>145.71428571428572</ele><time>2026-04-19T10:08:22Z</time></trkpt><trkpt lat="43.8153097" lon="12.959407"><ele>145.0</ele><time>2026-04-19T10:08:23Z</time></trkpt><trkpt lat="43.815275" lon="12.9595051"><ele>146.14285714285714</ele><time>2026-04-19T10:08:24Z</time></trkpt><trkpt lat="43.8152375" lon="12.9595972"><ele>147.2857142857143</ele><time>2026-04-19T10:08:25Z</time></trkpt><trkpt lat="43.8152023" lon="12.959688"><ele>148.42857142857144</ele><time>2026-04-19T10:08:26Z</time></trkpt><trkpt lat="43.815167" lon="12.9597847"><ele>149.57142857142858</ele><time>2026-04-19T10:08:27Z</time></trkpt><trkpt lat="43.8151357" lon="12.9598767"><ele>150.71428571428572</ele><time>2026-04-19T10:08:28Z</time></trkpt><trkpt lat="43.8151043" lon="12.9599632"><ele>151.85714285714286</ele><time>2026-04-19T10:08:29Z</time></trkpt><trkpt lat="43.815067" lon="12.9600556"><ele>153.0</ele><time>2026-04-19T10:08:30Z</time></trkpt><trkpt lat="43.8150403" lon="12.960155"><ele>153.6</ele><time>2026-04-19T10:08:31Z</time></trkpt><trkpt lat="43.8150277" lon="12.9602726"><ele>154.20000000000002</ele><time>2026-04-19T10:08:32Z</time></trkpt><trkpt lat="43.8150206" lon="12.9603911"><ele>154.8</ele><time>2026-04-19T10:08:33Z</time></trkpt><trkpt lat="43.8150212" lon="12.9605167"><ele>155.4</ele><time>2026-04-19T10:08:34Z</time></trkpt><trkpt lat="43.815024" lon="12.9606536"><ele>156.0</ele><time>2026-04-19T10:08:35Z</time></trkpt><trkpt lat="43.815034" lon="12.9607933"><ele>156.2</ele><time>2026-04-19T10:08:36Z</time></trkpt><trkpt lat="43.8150421" lon="12.9609359"><ele>156.39999999999998</ele><time>2026-04-19T10:08:37Z</time></trkpt><trkpt lat="43.8150488" lon="12.961082"><ele>156.6</ele><time>2026-04-19T10:08:38Z</time></trkpt><trkpt lat="43.8150571" lon="12.9612327"><ele>156.79999999999998</ele><time>2026-04-19T10:08:38.999Z</time></trkpt><trkpt lat="43.8150545" lon="12.961375"><ele>157.0</ele><time>2026-04-19T10:08:40Z</time></trkpt><trkpt lat="43.8150468" lon="12.9615127"><ele>157.0</ele><time>2026-04-19T10:08:41Z</time></trkpt><trkpt lat="43.8150396" lon="12.96166"><ele>157.0</ele><time>2026-04-19T10:08:42Z</time></trkpt><trkpt lat="43.8150166" lon="12.9618037"><ele>157.0</ele><time>2026-04-19T10:08:43Z</time></trkpt><trkpt lat="43.8149971" lon="12.9619501"><ele>157.0</ele><time>2026-04-19T10:08:43.999Z</time></trkpt><trkpt lat="43.8149823" lon="12.9621115"><ele>157.0</ele><time>2026-04-19T10:08:45Z</time></trkpt><trkpt lat="43.8149725" lon="12.962271"><ele>156.75</ele><time>2026-04-19T10:08:46Z</time></trkpt><trkpt lat="43.8149769" lon="12.9624399"><ele>156.5</ele><time>2026-04-19T10:08:47Z</time></trkpt><trkpt lat="43.8149783" lon="12.9626033"><ele>156.25</ele><time>2026-04-19T10:08:48Z</time></trkpt><trkpt lat="43.8149773" lon="12.962771"><ele>156.0</ele><time>2026-04-19T10:08:49Z</time></trkpt><trkpt lat="43.814963" lon="12.9629407"><ele>155.0</ele><time>2026-04-19T10:08:50Z</time></trkpt><trkpt lat="43.8149357" lon="12.9631087"><ele>154.0</ele><time>2026-04-19T10:08:51Z</time></trkpt><trkpt lat="43.8149096" lon="12.9632782"><ele>153.0</ele><time>2026-04-19T10:08:52Z</time></trkpt><trkpt lat="43.81488" lon="12.963442"><ele>152.0</ele><time>2026-04-19T10:08:53Z</time></trkpt><trkpt lat="43.8148467" lon="12.9636036"><ele>148.25</ele><time>2026-04-19T10:08:54Z</time></trkpt><trkpt lat="43.8148019" lon="12.9637575"><ele>144.5</ele><time>2026-04-19T10:08:55Z</time></trkpt><trkpt lat="43.8147338" lon="12.963898"><ele>140.75</ele><time>2026-04-19T10:08:56Z</time></trkpt><trkpt lat="43.814659" lon="12.9640403"><ele>137.0</ele><time>2026-04-19T10:08:57Z</time></trkpt><trkpt lat="43.814586" lon="12.9641925"><ele>135.75</ele><time>2026-04-19T10:08:58Z</time></trkpt><trkpt lat="43.8145294" lon="12.9643462"><ele>134.5</ele><time>2026-04-19T10:08:59Z</time></trkpt><trkpt lat="43.8144722" lon="12.9645115"><ele>133.25</ele><time>2026-04-19T10:09:00Z</time></trkpt><trkpt lat="43.8144215" lon="12.9646647"><ele>132.0</ele><time>2026-04-19T10:09:01Z</time></trkpt><trkpt lat="43.8143572" lon="12.9648349"><ele>136.25</ele><time>2026-04-19T10:09:02Z</time></trkpt><trkpt lat="43.8143028" lon="12.9649817"><ele>140.5</ele><time>2026-04-19T10:09:03Z</time></trkpt><trkpt lat="43.8142321" lon="12.9651015"><ele>144.75</ele><time>2026-04-19T10:09:04Z</time></trkpt><trkpt lat="43.8141699" lon="12.9652502"><ele>149.0</ele><time>2026-04-19T10:09:05Z</time></trkpt><trkpt lat="43.8141296" lon="12.9654036"><ele>149.0</ele><time>2026-04-19T10:09:06Z</time></trkpt><trkpt lat="43.8141072" lon="12.9655595"><ele>149.0</ele><time>2026-04-19T10:09:07Z</time></trkpt><trkpt lat="43.8140912" lon="12.965702"><ele>149.0</ele><time>2026-04-19T10:09:08Z</time></trkpt><trkpt lat="43.8140657" lon="12.9658348"><ele>149.0</ele><time>2026-04-19T10:09:09Z</time></trkpt><trkpt lat="43.8140563" lon="12.9659833"><ele>149.0</ele><time>2026-04-19T10:09:10Z</time></trkpt><trkpt lat="43.8140428" lon="12.9661087"><ele>148.6</ele><time>2026-04-19T10:09:11Z</time></trkpt><trkpt lat="43.8140304" lon="12.9662084"><ele>148.2</ele><time>2026-04-19T10:09:12Z</time></trkpt><trkpt lat="43.8139993" lon="12.9663768"><ele>147.79999999999998</ele><time>2026-04-19T10:09:14Z</time></trkpt><trkpt lat="43.8139155" lon="12.9665072"><ele>147.4</ele><time>2026-04-19T10:09:16Z</time></trkpt><trkpt lat="43.8138586" lon="12.9665646"><ele>147.0</ele><time>2026-04-19T10:09:17Z</time></trkpt><trkpt lat="43.8137949" lon="12.9666206"><ele>147.0</ele><time>2026-04-19T10:09:18Z</time></trkpt><trkpt lat="43.8137265" lon="12.9666017"><ele>147.0</ele><time>2026-04-19T10:09:19Z</time></trkpt><trkpt lat="43.8136509" lon="12.9665874"><ele>147.0</ele><time>2026-04-19T10:09:20Z</time></trkpt><trkpt lat="43.8135727" lon="12.9665707"><ele>147.0</ele><time>2026-04-19T10:09:20.999Z</time></trkpt><trkpt lat="43.8135023" lon="12.9665497"><ele>147.0</ele><time>2026-04-19T10:09:22Z</time></trkpt><trkpt lat="43.8134057" lon="12.9665214"><ele>147.0</ele><time>2026-04-19T10:09:23Z</time></trkpt><trkpt lat="43.8133111" lon="12.9664918"><ele>146.2</ele><time>2026-04-19T10:09:24Z</time></trkpt><trkpt lat="43.8132147" lon="12.966451"><ele>145.39999999999998</ele><time>2026-04-19T10:09:25Z</time></trkpt><trkpt lat="43.8131292" lon="12.9664237"><ele>144.60000000000002</ele><time>2026-04-19T10:09:26Z</time></trkpt><trkpt lat="43.8130264" lon="12.9664171"><ele>143.8</ele><time>2026-04-19T10:09:27Z</time></trkpt><trkpt lat="43.8129241" lon="12.9663999"><ele>143.0</ele><time>2026-04-19T10:09:28Z</time></trkpt><trkpt lat="43.8128248" lon="12.9663911"><ele>143.0</ele><time>2026-04-19T10:09:29Z</time></trkpt><trkpt lat="43.8127206" lon="12.9663844"><ele>143.0</ele><time>2026-04-19T10:09:30Z</time></trkpt><trkpt lat="43.8126224" lon="12.9664"><ele>143.0</ele><time>2026-04-19T10:09:31Z</time></trkpt><trkpt lat="43.8125283" lon="12.9664218"><ele>143.0</ele><time>2026-04-19T10:09:32Z</time></trkpt><trkpt lat="43.8124303" lon="12.9664386"><ele>143.0</ele><time>2026-04-19T10:09:33Z</time></trkpt><trkpt lat="43.8123481" lon="12.9663934"><ele>143.0</ele><time>2026-04-19T10:09:34Z</time></trkpt><trkpt lat="43.8122689" lon="12.9663639"><ele>143.0</ele><time>2026-04-19T10:09:35Z</time></trkpt><trkpt lat="43.8121912" lon="12.9663295"><ele>143.0</ele><time>2026-04-19T10:09:36Z</time></trkpt><trkpt lat="43.8121122" lon="12.9662837"><ele>143.0</ele><time>2026-04-19T10:09:37Z</time></trkpt><trkpt lat="43.8120409" lon="12.9662029"><ele>143.0</ele><time>2026-04-19T10:09:38Z</time></trkpt><trkpt lat="43.81197" lon="12.9661143"><ele>143.0</ele><time>2026-04-19T10:09:38.999Z</time></trkpt><trkpt lat="43.8119064" lon="12.9660249"><ele>143.0</ele><time>2026-04-19T10:09:40Z</time></trkpt><trkpt lat="43.8118535" lon="12.9659212"><ele>143.0</ele><time>2026-04-19T10:09:41Z</time></trkpt><trkpt lat="43.811805" lon="12.9658105"><ele>143.0</ele><time>2026-04-19T10:09:42Z</time></trkpt><trkpt lat="43.811764" lon="12.9656886"><ele>143.0</ele><time>2026-04-19T10:09:43Z</time></trkpt><trkpt lat="43.8117123" lon="12.9655634"><ele>143.0</ele><time>2026-04-19T10:09:44Z</time></trkpt><trkpt lat="43.811649" lon="12.9654331"><ele>144.6</ele><time>2026-04-19T10:09:45Z</time></trkpt><trkpt lat="43.8115956" lon="12.9653309"><ele>146.20000000000002</ele><time>2026-04-19T10:09:46Z</time></trkpt><trkpt lat="43.8115282" lon="12.96521"><ele>147.8</ele><time>2026-04-19T10:09:47Z</time></trkpt><trkpt lat="43.8114545" lon="12.9651034"><ele>149.4</ele><time>2026-04-19T10:09:48Z</time></trkpt><trkpt lat="43.8113792" lon="12.9649876"><ele>151.0</ele><time>2026-04-19T10:09:49Z</time></trkpt><trkpt lat="43.8112975" lon="12.9648863"><ele>150.8</ele><time>2026-04-19T10:09:50Z</time></trkpt><trkpt lat="43.8112057" lon="12.9647834"><ele>150.6</ele><time>2026-04-19T10:09:51Z</time></trkpt><trkpt lat="43.811126" lon="12.9646731"><ele>150.4</ele><time>2026-04-19T10:09:52Z</time></trkpt><trkpt lat="43.8110468" lon="12.9645701"><ele>150.2</ele><time>2026-04-19T10:09:53Z</time></trkpt><trkpt lat="43.8109729" lon="12.9644621"><ele>150.0</ele><time>2026-04-19T10:09:53.999Z</time></trkpt><trkpt lat="43.8109051" lon="12.9643583"><ele>150.0</ele><time>2026-04-19T10:09:55Z</time></trkpt><trkpt lat="43.8108385" lon="12.9642572"><ele>150.0</ele><time>2026-04-19T10:09:56Z</time></trkpt><trkpt lat="43.8107708" lon="12.9641467"><ele>150.0</ele><time>2026-04-19T10:09:57Z</time></trkpt><trkpt lat="43.8107105" lon="12.9640454"><ele>150.0</ele><time>2026-04-19T10:09:58Z</time></trkpt><trkpt lat="43.8106519" lon="12.9639529"><ele>150.0</ele><time>2026-04-19T10:09:59Z</time></trkpt><trkpt lat="43.8105898" lon="12.9638809"><ele>150.28571428571428</ele><time>2026-04-19T10:10:00Z</time></trkpt><trkpt lat="43.8105221" lon="12.9638148"><ele>150.57142857142856</ele><time>2026-04-19T10:10:00.999Z</time></trkpt><trkpt lat="43.8104505" lon="12.963762"><ele>150.85714285714283</ele><time>2026-04-19T10:10:02Z</time></trkpt><trkpt lat="43.8103837" lon="12.9637219"><ele>151.14285714285714</ele><time>2026-04-19T10:10:03Z</time></trkpt><trkpt lat="43.8103155" lon="12.963691"><ele>151.42857142857144</ele><time>2026-04-19T10:10:04Z</time></trkpt><trkpt lat="43.8102514" lon="12.9636548"><ele>151.7142857142857</ele><time>2026-04-19T10:10:05Z</time></trkpt><trkpt lat="43.8101909" lon="12.9636182"><ele>152.0</ele><time>2026-04-19T10:10:06Z</time></trkpt><trkpt lat="43.8101331" lon="12.9635797"><ele>152.0</ele><time>2026-04-19T10:10:07Z</time></trkpt><trkpt lat="43.8100762" lon="12.9635416"><ele>152.0</ele><time>2026-04-19T10:10:08Z</time></trkpt><trkpt lat="43.8099533" lon="12.9634646"><ele>152.0</ele><time>2026-04-19T10:10:10Z</time></trkpt><trkpt lat="43.8098838" lon="12.9634198"><ele>152.0</ele><time>2026-04-19T10:10:11Z</time></trkpt><trkpt lat="43.8098198" lon="12.9633582"><ele>152.0</ele><time>2026-04-19T10:10:12Z</time></trkpt><trkpt lat="43.8097508" lon="12.9632881"><ele>152.0</ele><time>2026-04-19T10:10:13Z</time></trkpt><trkpt lat="43.8096774" lon="12.9632266"><ele>152.6</ele><time>2026-04-19T10:10:14Z</time></trkpt><trkpt lat="43.8095969" lon="12.9631587"><ele>153.2</ele><time>2026-04-19T10:10:15Z</time></trkpt><trkpt lat="43.8095081" lon="12.963084"><ele>153.8</ele><time>2026-04-19T10:10:16Z</time></trkpt><trkpt lat="43.8094193" lon="12.9630083"><ele>154.4</ele><time>2026-04-19T10:10:16.999Z</time></trkpt><trkpt lat="43.8093297" lon="12.9629307"><ele>155.0</ele><time>2026-04-19T10:10:18Z</time></trkpt><trkpt lat="43.8092445" lon="12.9628525"><ele>155.0</ele><time>2026-04-19T10:10:19Z</time></trkpt><trkpt lat="43.8091597" lon="12.9627777"><ele>155.0</ele><time>2026-04-19T10:10:20Z</time></trkpt><trkpt lat="43.809083" lon="12.9627084"><ele>155.0</ele><time>2026-04-19T10:10:21Z</time></trkpt><trkpt lat="43.8090085" lon="12.9626393"><ele>155.0</ele><time>2026-04-19T10:10:22Z</time></trkpt><trkpt lat="43.8089318" lon="12.9625611"><ele>155.0</ele><time>2026-04-19T10:10:23Z</time></trkpt><trkpt lat="43.8088512" lon="12.9624845"><ele>158.4</ele><time>2026-04-19T10:10:24Z</time></trkpt><trkpt lat="43.8087779" lon="12.9623875"><ele>161.8</ele><time>2026-04-19T10:10:25Z</time></trkpt><trkpt lat="43.8087055" lon="12.962282"><ele>165.2</ele><time>2026-04-19T10:10:26Z</time></trkpt><trkpt lat="43.8086304" lon="12.9621738"><ele>168.6</ele><time>2026-04-19T10:10:27Z</time></trkpt><trkpt lat="43.8085632" lon="12.9620562"><ele>172.0</ele><time>2026-04-19T10:10:28Z</time></trkpt><trkpt lat="43.808494" lon="12.9619393"><ele>171.39999999999998</ele><time>2026-04-19T10:10:29Z</time></trkpt><trkpt lat="43.8084361" lon="12.9618154"><ele>170.79999999999998</ele><time>2026-04-19T10:10:30Z</time></trkpt><trkpt lat="43.8083738" lon="12.9616962"><ele>170.2</ele><time>2026-04-19T10:10:31Z</time></trkpt><trkpt lat="43.8083097" lon="12.9615742"><ele>169.6</ele><time>2026-04-19T10:10:32Z</time></trkpt><trkpt lat="43.8082505" lon="12.961461"><ele>169.0</ele><time>2026-04-19T10:10:33Z</time></trkpt><trkpt lat="43.8081968" lon="12.9613507"><ele>169.0</ele><time>2026-04-19T10:10:34Z</time></trkpt><trkpt lat="43.8081417" lon="12.9612569"><ele>169.0</ele><time>2026-04-19T10:10:35Z</time></trkpt><trkpt lat="43.8080845" lon="12.9611783"><ele>169.0</ele><time>2026-04-19T10:10:36Z</time></trkpt><trkpt lat="43.8080205" lon="12.9611144"><ele>169.0</ele><time>2026-04-19T10:10:36.999Z</time></trkpt><trkpt lat="43.8079371" lon="12.9610743"><ele>169.0</ele><time>2026-04-19T10:10:38Z</time></trkpt><trkpt lat="43.8078508" lon="12.9610447"><ele>169.0</ele><time>2026-04-19T10:10:39Z</time></trkpt><trkpt lat="43.8077431" lon="12.9610458"><ele>167.79999999999998</ele><time>2026-04-19T10:10:40Z</time></trkpt><trkpt lat="43.8076398" lon="12.9610485"><ele>166.6</ele><time>2026-04-19T10:10:41Z</time></trkpt><trkpt lat="43.8075311" lon="12.9610647"><ele>165.4</ele><time>2026-04-19T10:10:42Z</time></trkpt><trkpt lat="43.8074178" lon="12.9610781"><ele>164.2</ele><time>2026-04-19T10:10:43Z</time></trkpt><trkpt lat="43.807311" lon="12.9611054"><ele>163.0</ele><time>2026-04-19T10:10:44Z</time></trkpt><trkpt lat="43.8072148" lon="12.9611425"><ele>163.0</ele><time>2026-04-19T10:10:45Z</time></trkpt><trkpt lat="43.8071135" lon="12.9611924"><ele>163.0</ele><time>2026-04-19T10:10:46Z</time></trkpt><trkpt lat="43.8070172" lon="12.96127"><ele>163.0</ele><time>2026-04-19T10:10:47Z</time></trkpt><trkpt lat="43.806916" lon="12.9613606"><ele>163.0</ele><time>2026-04-19T10:10:48Z</time></trkpt><trkpt lat="43.8068121" lon="12.9614422"><ele>163.5</ele><time>2026-04-19T10:10:49Z</time></trkpt><trkpt lat="43.806702" lon="12.961515"><ele>164.0</ele><time>2026-04-19T10:10:50Z</time></trkpt><trkpt lat="43.8065936" lon="12.9615575"><ele>164.5</ele><time>2026-04-19T10:10:51Z</time></trkpt><trkpt lat="43.8064775" lon="12.9615811"><ele>165.0</ele><time>2026-04-19T10:10:52Z</time></trkpt><trkpt lat="43.8063643" lon="12.9615795"><ele>165.0</ele><time>2026-04-19T10:10:53Z</time></trkpt><trkpt lat="43.8062418" lon="12.9615957"><ele>165.0</ele><time>2026-04-19T10:10:54Z</time></trkpt><trkpt lat="43.8061378" lon="12.9615648"><ele>165.0</ele><time>2026-04-19T10:10:55Z</time></trkpt><trkpt lat="43.8060165" lon="12.9615782"><ele>165.0</ele><time>2026-04-19T10:10:56Z</time></trkpt><trkpt lat="43.8058983" lon="12.9615891"><ele>165.75</ele><time>2026-04-19T10:10:57Z</time></trkpt><trkpt lat="43.805778" lon="12.9615886"><ele>166.5</ele><time>2026-04-19T10:10:58Z</time></trkpt><trkpt lat="43.8056621" lon="12.9615901"><ele>167.25</ele><time>2026-04-19T10:10:59Z</time></trkpt><trkpt lat="43.8055423" lon="12.9615444"><ele>168.0</ele><time>2026-04-19T10:11:00Z</time></trkpt><trkpt lat="43.8054202" lon="12.9614942"><ele>168.0</ele><time>2026-04-19T10:11:01Z</time></trkpt><trkpt lat="43.8053129" lon="12.9614473"><ele>168.0</ele><time>2026-04-19T10:11:02Z</time></trkpt><trkpt lat="43.8052027" lon="12.9614024"><ele>168.0</ele><time>2026-04-19T10:11:03Z</time></trkpt><trkpt lat="43.8050915" lon="12.961382"><ele>168.0</ele><time>2026-04-19T10:11:04Z</time></trkpt><trkpt lat="43.8049868" lon="12.9613733"><ele>168.0</ele><time>2026-04-19T10:11:05Z</time></trkpt><trkpt lat="43.804897" lon="12.9613623"><ele>168.0</ele><time>2026-04-19T10:11:06Z</time></trkpt><trkpt lat="43.8048233" lon="12.9613599"><ele>168.0</ele><time>2026-04-19T10:11:07Z</time></trkpt><trkpt lat="43.8047155" lon="12.9613938"><ele>168.0</ele><time>2026-04-19T10:11:09Z</time></trkpt><trkpt lat="43.8046508" lon="12.961512"><ele>168.0</ele><time>2026-04-19T10:11:11Z</time></trkpt><trkpt lat="43.8046301" lon="12.961598"><ele>168.0</ele><time>2026-04-19T10:11:12Z</time></trkpt><trkpt lat="43.8046084" lon="12.9616889"><ele>168.0</ele><time>2026-04-19T10:11:13Z</time></trkpt><trkpt lat="43.8045847" lon="12.9617749"><ele>168.4</ele><time>2026-04-19T10:11:14Z</time></trkpt><trkpt lat="43.8045244" lon="12.9619238"><ele>168.8</ele><time>2026-04-19T10:11:16Z</time></trkpt><trkpt lat="43.8044627" lon="12.962037"><ele>169.2</ele><time>2026-04-19T10:11:18Z</time></trkpt><trkpt lat="43.8044135" lon="12.962099"><ele>169.6</ele><time>2026-04-19T10:11:19Z</time></trkpt><trkpt lat="43.8043227" lon="12.9621826"><ele>170.0</ele><time>2026-04-19T10:11:21Z</time></trkpt><trkpt lat="43.8042212" lon="12.9622519"><ele>170.0</ele><time>2026-04-19T10:11:23Z</time></trkpt><trkpt lat="43.804128" lon="12.9623275"><ele>170.0</ele><time>2026-04-19T10:11:24.999Z</time></trkpt><trkpt lat="43.804055" lon="12.9624161"><ele>170.0</ele><time>2026-04-19T10:11:27Z</time></trkpt><trkpt lat="43.8039704" lon="12.9624497"><ele>170.0</ele><time>2026-04-19T10:11:30Z</time></trkpt><trkpt lat="43.8039039" lon="12.9624627"><ele>170.0</ele><time>2026-04-19T10:11:32Z</time></trkpt><trkpt lat="43.8038287" lon="12.9624852"><ele>170.0</ele><time>2026-04-19T10:11:34Z</time></trkpt><trkpt lat="43.8037424" lon="12.9624844"><ele>170.0</ele><time>2026-04-19T10:11:37Z</time></trkpt><trkpt lat="43.8036754" lon="12.9624909"><ele>170.0</ele><time>2026-04-19T10:11:39Z</time></trkpt><trkpt lat="43.8036" lon="12.9624997"><ele>170.0</ele><time>2026-04-19T10:11:41Z</time></trkpt><trkpt lat="43.8035274" lon="12.9625136"><ele>170.0</ele><time>2026-04-19T10:11:43Z</time></trkpt><trkpt lat="43.8034647" lon="12.9625281"><ele>170.0</ele><time>2026-04-19T10:11:45Z</time></trkpt><trkpt lat="43.8034022" lon="12.9625499"><ele>170.0</ele><time>2026-04-19T10:11:47Z</time></trkpt><trkpt lat="43.8033148" lon="12.9626101"><ele>170.0</ele><time>2026-04-19T10:11:50Z</time></trkpt><trkpt lat="43.803232" lon="12.9626597"><ele>165.83333333333331</ele><time>2026-04-19T10:11:52Z</time></trkpt><trkpt lat="43.8031566" lon="12.96271"><ele>161.66666666666666</ele><time>2026-04-19T10:11:54Z</time></trkpt><trkpt lat="43.8031008" lon="12.962758"><ele>157.5</ele><time>2026-04-19T10:11:55Z</time></trkpt><trkpt lat="43.8030369" lon="12.9627968"><ele>153.33333333333334</ele><time>2026-04-19T10:11:57Z</time></trkpt><trkpt lat="43.802961" lon="12.9628349"><ele>149.16666666666669</ele><time>2026-04-19T10:11:59Z</time></trkpt><trkpt lat="43.8028835" lon="12.962872"><ele>145.0</ele><time>2026-04-19T10:12:00.999Z</time></trkpt><trkpt lat="43.8028029" lon="12.96287"><ele>145.0</ele><time>2026-04-19T10:12:03Z</time></trkpt><trkpt lat="43.802708" lon="12.9628615"><ele>145.0</ele><time>2026-04-19T10:12:05Z</time></trkpt><trkpt lat="43.8026153" lon="12.9628299"><ele>145.0</ele><time>2026-04-19T10:12:07Z</time></trkpt><trkpt lat="43.8025106" lon="12.9628037"><ele>145.0</ele><time>2026-04-19T10:12:09Z</time></trkpt><trkpt lat="43.802397" lon="12.9627971"><ele>145.0</ele><time>2026-04-19T10:12:11Z</time></trkpt><trkpt lat="43.8022777" lon="12.9628056"><ele>141.8</ele><time>2026-04-19T10:12:13Z</time></trkpt><trkpt lat="43.802168" lon="12.9627983"><ele>138.6</ele><time>2026-04-19T10:12:15Z</time></trkpt><trkpt lat="43.8020637" lon="12.962785"><ele>135.4</ele><time>2026-04-19T10:12:17Z</time></trkpt><trkpt lat="43.8019564" lon="12.962777"><ele>132.2</ele><time>2026-04-19T10:12:19Z</time></trkpt><trkpt lat="43.8018359" lon="12.9627793"><ele>129.0</ele><time>2026-04-19T10:12:20.999Z</time></trkpt><trkpt lat="43.8017725" lon="12.9627833"><ele>126.80000000000001</ele><time>2026-04-19T10:12:22Z</time></trkpt><trkpt lat="43.8016667" lon="12.9627694"><ele>124.60000000000001</ele><time>2026-04-19T10:12:24Z</time></trkpt><trkpt lat="43.8015535" lon="12.9627953"><ele>122.4</ele><time>2026-04-19T10:12:26Z</time></trkpt><trkpt lat="43.8014475" lon="12.9628307"><ele>120.2</ele><time>2026-04-19T10:12:28Z</time></trkpt><trkpt lat="43.8013476" lon="12.9628449"><ele>118.0</ele><time>2026-04-19T10:12:30Z</time></trkpt><trkpt lat="43.8012475" lon="12.9628337"><ele>118.0</ele><time>2026-04-19T10:12:32Z</time></trkpt><trkpt lat="43.8011633" lon="12.9627696"><ele>118.00000000000001</ele><time>2026-04-19T10:12:34Z</time></trkpt><trkpt lat="43.8010901" lon="12.9626862"><ele>118.00000000000001</ele><time>2026-04-19T10:12:36Z</time></trkpt><trkpt lat="43.8010005" lon="12.962618"><ele>118.0</ele><time>2026-04-19T10:12:38Z</time></trkpt><trkpt lat="43.8009" lon="12.9625797"><ele>118.0</ele><time>2026-04-19T10:12:40Z</time></trkpt><trkpt lat="43.800788" lon="12.962537"><ele>118.4</ele><time>2026-04-19T10:12:42Z</time></trkpt><trkpt lat="43.8006818" lon="12.9624995"><ele>118.80000000000001</ele><time>2026-04-19T10:12:44Z</time></trkpt><trkpt lat="43.8005784" lon="12.9624541"><ele>119.2</ele><time>2026-04-19T10:12:46Z</time></trkpt><trkpt lat="43.800474" lon="12.9624277"><ele>119.6</ele><time>2026-04-19T10:12:48Z</time></trkpt><trkpt lat="43.8003735" lon="12.962397"><ele>120.0</ele><time>2026-04-19T10:12:50Z</time></trkpt><trkpt lat="43.8002668" lon="12.9623542"><ele>116.6</ele><time>2026-04-19T10:12:52Z</time></trkpt><trkpt lat="43.8001648" lon="12.9622948"><ele>113.2</ele><time>2026-04-19T10:12:54Z</time></trkpt><trkpt lat="43.8000778" lon="12.9622454"><ele>109.80000000000001</ele><time>2026-04-19T10:12:56Z</time></trkpt><trkpt lat="43.7999986" lon="12.9621782"><ele>106.4</ele><time>2026-04-19T10:12:58Z</time></trkpt><trkpt lat="43.7999187" lon="12.9621099"><ele>103.0</ele><time>2026-04-19T10:13:00Z</time></trkpt><trkpt lat="43.7998634" lon="12.9619939"><ele>103.00000000000001</ele><time>2026-04-19T10:13:02Z</time></trkpt><trkpt lat="43.7998198" lon="12.9619144"><ele>103.0</ele><time>2026-04-19T10:13:03Z</time></trkpt><trkpt lat="43.7997581" lon="12.9617697"><ele>103.0</ele><time>2026-04-19T10:13:05Z</time></trkpt><trkpt lat="43.799719" lon="12.9616962"><ele>103.0</ele><time>2026-04-19T10:13:06Z</time></trkpt><trkpt lat="43.7996766" lon="12.9616208"><ele>103.00000000000001</ele><time>2026-04-19T10:13:06.999Z</time></trkpt><trkpt lat="43.7996311" lon="12.9615506"><ele>103.0</ele><time>2026-04-19T10:13:08Z</time></trkpt><trkpt lat="43.7995327" lon="12.9614382"><ele>103.66666666666667</ele><time>2026-04-19T10:13:10Z</time></trkpt><trkpt lat="43.7994773" lon="12.9613859"><ele>104.33333333333334</ele><time>2026-04-19T10:13:11Z</time></trkpt><trkpt lat="43.799417" lon="12.9613255"><ele>105.0</ele><time>2026-04-19T10:13:11.999Z</time></trkpt><trkpt lat="43.799355" lon="12.9612633"><ele>105.66666666666666</ele><time>2026-04-19T10:13:13Z</time></trkpt><trkpt lat="43.799299" lon="12.9611891"><ele>106.33333333333333</ele><time>2026-04-19T10:13:14Z</time></trkpt><trkpt lat="43.799243" lon="12.9611153"><ele>107.0</ele><time>2026-04-19T10:13:15Z</time></trkpt><trkpt lat="43.7991891" lon="12.9610298"><ele>103.99999999999999</ele><time>2026-04-19T10:13:16Z</time></trkpt><trkpt lat="43.7991364" lon="12.9609452"><ele>101.0</ele><time>2026-04-19T10:13:16.999Z</time></trkpt><trkpt lat="43.7990844" lon="12.9608527"><ele>98.0</ele><time>2026-04-19T10:13:18Z</time></trkpt><trkpt lat="43.7990303" lon="12.9607661"><ele>95.0</ele><time>2026-04-19T10:13:19Z</time></trkpt><trkpt lat="43.7989879" lon="12.9606582"><ele>92.0</ele><time>2026-04-19T10:13:20Z</time></trkpt><trkpt lat="43.7989427" lon="12.9605478"><ele>89.0</ele><time>2026-04-19T10:13:21Z</time></trkpt><trkpt lat="43.7989038" lon="12.9604545"><ele>89.0</ele><time>2026-04-19T10:13:22Z</time></trkpt><trkpt lat="43.7988616" lon="12.9603557"><ele>89.0</ele><time>2026-04-19T10:13:22.999Z</time></trkpt><trkpt lat="43.7988207" lon="12.9602557"><ele>89.0</ele><time>2026-04-19T10:13:24Z</time></trkpt><trkpt lat="43.7987862" lon="12.9601544"><ele>89.0</ele><time>2026-04-19T10:13:25Z</time></trkpt><trkpt lat="43.7987542" lon="12.9600516"><ele>89.0</ele><time>2026-04-19T10:13:26Z</time></trkpt><trkpt lat="43.7987156" lon="12.9599518"><ele>89.0</ele><time>2026-04-19T10:13:27Z</time></trkpt><trkpt lat="43.7986716" lon="12.9598533"><ele>88.33333333333334</ele><time>2026-04-19T10:13:27.999Z</time></trkpt><trkpt lat="43.7986179" lon="12.9597643"><ele>87.66666666666667</ele><time>2026-04-19T10:13:29Z</time></trkpt><trkpt lat="43.798549" lon="12.9596867"><ele>87.0</ele><time>2026-04-19T10:13:30Z</time></trkpt><trkpt lat="43.7984745" lon="12.9596323"><ele>86.33333333333333</ele><time>2026-04-19T10:13:31Z</time></trkpt><trkpt lat="43.7983965" lon="12.9596063"><ele>85.66666666666666</ele><time>2026-04-19T10:13:31.999Z</time></trkpt><trkpt lat="43.7983132" lon="12.9595996"><ele>85.0</ele><time>2026-04-19T10:13:33Z</time></trkpt><trkpt lat="43.7982312" lon="12.9596276"><ele>83.66666666666666</ele><time>2026-04-19T10:13:34Z</time></trkpt><trkpt lat="43.7981571" lon="12.9596802"><ele>82.33333333333333</ele><time>2026-04-19T10:13:35Z</time></trkpt><trkpt lat="43.7980939" lon="12.9597413"><ele>81.0</ele><time>2026-04-19T10:13:36Z</time></trkpt><trkpt lat="43.7980282" lon="12.9598193"><ele>79.66666666666667</ele><time>2026-04-19T10:13:37Z</time></trkpt><trkpt lat="43.7979639" lon="12.9598974"><ele>78.33333333333334</ele><time>2026-04-19T10:13:38Z</time></trkpt><trkpt lat="43.7978972" lon="12.9599891"><ele>77.0</ele><time>2026-04-19T10:13:39Z</time></trkpt><trkpt lat="43.7978206" lon="12.9600616"><ele>75.4</ele><time>2026-04-19T10:13:40Z</time></trkpt><trkpt lat="43.7977415" lon="12.960124"><ele>73.80000000000001</ele><time>2026-04-19T10:13:41Z</time></trkpt><trkpt lat="43.7976607" lon="12.9601929"><ele>72.2</ele><time>2026-04-19T10:13:42Z</time></trkpt><trkpt lat="43.7975789" lon="12.9602682"><ele>70.60000000000001</ele><time>2026-04-19T10:13:43Z</time></trkpt><trkpt lat="43.7974876" lon="12.9603465"><ele>69.0</ele><time>2026-04-19T10:13:44Z</time></trkpt><trkpt lat="43.7974021" lon="12.9604191"><ele>66.5</ele><time>2026-04-19T10:13:45Z</time></trkpt><trkpt lat="43.7973246" lon="12.9604969"><ele>64.0</ele><time>2026-04-19T10:13:45.999Z</time></trkpt><trkpt lat="43.797252" lon="12.9605729"><ele>61.5</ele><time>2026-04-19T10:13:47Z</time></trkpt><trkpt lat="43.7971912" lon="12.9606413"><ele>59.0</ele><time>2026-04-19T10:13:48Z</time></trkpt><trkpt lat="43.7971451" lon="12.9607073"><ele>56.5</ele><time>2026-04-19T10:13:49Z</time></trkpt><trkpt lat="43.7970807" lon="12.9607925"><ele>54.0</ele><time>2026-04-19T10:13:51Z</time></trkpt><trkpt lat="43.7970017" lon="12.9608214"><ele>54.0</ele><time>2026-04-19T10:13:55Z</time></trkpt><trkpt lat="43.7969245" lon="12.9606993"><ele>54.00000000000001</ele><time>2026-04-19T10:13:57Z</time></trkpt><trkpt lat="43.7968703" lon="12.9605906"><ele>54.00000000000001</ele><time>2026-04-19T10:13:58Z</time></trkpt><trkpt lat="43.7968134" lon="12.9604795"><ele>54.0</ele><time>2026-04-19T10:13:59Z</time></trkpt><trkpt lat="43.7967445" lon="12.9603552"><ele>54.0</ele><time>2026-04-19T10:14:00Z</time></trkpt><trkpt lat="43.7966695" lon="12.9602144"><ele>53.5</ele><time>2026-04-19T10:14:01Z</time></trkpt><trkpt lat="43.796592" lon="12.960072"><ele>53.0</ele><time>2026-04-19T10:14:02Z</time></trkpt><trkpt lat="43.7965129" lon="12.9599189"><ele>52.5</ele><time>2026-04-19T10:14:03Z</time></trkpt><trkpt lat="43.7964308" lon="12.9597636"><ele>52.0</ele><time>2026-04-19T10:14:04Z</time></trkpt><trkpt lat="43.7963613" lon="12.9596155"><ele>52.0</ele><time>2026-04-19T10:14:05Z</time></trkpt><trkpt lat="43.7962927" lon="12.9594745"><ele>52.0</ele><time>2026-04-19T10:14:06Z</time></trkpt><trkpt lat="43.7962258" lon="12.959341"><ele>52.0</ele><time>2026-04-19T10:14:07Z</time></trkpt><trkpt lat="43.79617" lon="12.9592232"><ele>52.0</ele><time>2026-04-19T10:14:08Z</time></trkpt><trkpt lat="43.7961056" lon="12.959113"><ele>52.0</ele><time>2026-04-19T10:14:09Z</time></trkpt><trkpt lat="43.7960463" lon="12.9590101"><ele>51.8</ele><time>2026-04-19T10:14:10Z</time></trkpt><trkpt lat="43.7959883" lon="12.9589117"><ele>51.6</ele><time>2026-04-19T10:14:11Z</time></trkpt><trkpt lat="43.7959413" lon="12.9588245"><ele>51.4</ele><time>2026-04-19T10:14:11.999Z</time></trkpt><trkpt lat="43.7958778" lon="12.958757"><ele>51.199999999999996</ele><time>2026-04-19T10:14:14Z</time></trkpt><trkpt lat="43.7957964" lon="12.9587801"><ele>51.0</ele><time>2026-04-19T10:14:16Z</time></trkpt><trkpt lat="43.7956399" lon="12.9589469"><ele>51.0</ele><time>2026-04-19T10:14:18Z</time></trkpt><trkpt lat="43.7955562" lon="12.9590321"><ele>51.0</ele><time>2026-04-19T10:14:19Z</time></trkpt><trkpt lat="43.7954459" lon="12.9591282"><ele>51.0</ele><time>2026-04-19T10:14:20Z</time></trkpt><trkpt lat="43.7953385" lon="12.9592183"><ele>51.0</ele><time>2026-04-19T10:14:21Z</time></trkpt><trkpt lat="43.7952423" lon="12.9592917"><ele>49.75</ele><time>2026-04-19T10:14:22Z</time></trkpt><trkpt lat="43.7951436" lon="12.9593811"><ele>48.5</ele><time>2026-04-19T10:14:23Z</time></trkpt><trkpt lat="43.7950461" lon="12.9594778"><ele>47.25</ele><time>2026-04-19T10:14:23.999Z</time></trkpt><trkpt lat="43.7949403" lon="12.9595815"><ele>46.0</ele><time>2026-04-19T10:14:25Z</time></trkpt><trkpt lat="43.7948216" lon="12.959687"><ele>46.0</ele><time>2026-04-19T10:14:26Z</time></trkpt><trkpt lat="43.7947019" lon="12.959792"><ele>46.0</ele><time>2026-04-19T10:14:27Z</time></trkpt><trkpt lat="43.7945763" lon="12.9598892"><ele>46.0</ele><time>2026-04-19T10:14:28Z</time></trkpt><trkpt lat="43.7944496" lon="12.959984"><ele>46.0</ele><time>2026-04-19T10:14:29Z</time></trkpt><trkpt lat="43.7943215" lon="12.960069"><ele>45.5</ele><time>2026-04-19T10:14:29.999Z</time></trkpt><trkpt lat="43.7941847" lon="12.9601539"><ele>45.0</ele><time>2026-04-19T10:14:31Z</time></trkpt><trkpt lat="43.7940507" lon="12.9602389"><ele>44.5</ele><time>2026-04-19T10:14:32Z</time></trkpt><trkpt lat="43.7939291" lon="12.9603231"><ele>44.0</ele><time>2026-04-19T10:14:33Z</time></trkpt><trkpt lat="43.7938016" lon="12.9604327"><ele>44.0</ele><time>2026-04-19T10:14:34Z</time></trkpt><trkpt lat="43.793676" lon="12.9605556"><ele>44.0</ele><time>2026-04-19T10:14:35Z</time></trkpt><trkpt lat="43.7935562" lon="12.9606781"><ele>44.0</ele><time>2026-04-19T10:14:36Z</time></trkpt><trkpt lat="43.793445" lon="12.9607929"><ele>44.0</ele><time>2026-04-19T10:14:37Z</time></trkpt><trkpt lat="43.7933428" lon="12.9609073"><ele>44.75</ele><time>2026-04-19T10:14:38Z</time></trkpt><trkpt lat="43.7932336" lon="12.9610192"><ele>45.5</ele><time>2026-04-19T10:14:39Z</time></trkpt><trkpt lat="43.7931324" lon="12.9611271"><ele>46.25</ele><time>2026-04-19T10:14:40Z</time></trkpt><trkpt lat="43.7930307" lon="12.9612336"><ele>47.0</ele><time>2026-04-19T10:14:41Z</time></trkpt><trkpt lat="43.792926" lon="12.9613275"><ele>47.0</ele><time>2026-04-19T10:14:41.999Z</time></trkpt><trkpt lat="43.7928128" lon="12.9614071"><ele>47.0</ele><time>2026-04-19T10:14:43Z</time></trkpt><trkpt lat="43.7926884" lon="12.9614703"><ele>47.0</ele><time>2026-04-19T10:14:44Z</time></trkpt><trkpt lat="43.7925577" lon="12.9615092"><ele>47.0</ele><time>2026-04-19T10:14:45Z</time></trkpt><trkpt lat="43.7924173" lon="12.9615525"><ele>47.0</ele><time>2026-04-19T10:14:46Z</time></trkpt><trkpt lat="43.7922828" lon="12.961611"><ele>47.0</ele><time>2026-04-19T10:14:47Z</time></trkpt><trkpt lat="43.7921529" lon="12.9616867"><ele>47.0</ele><time>2026-04-19T10:14:48Z</time></trkpt><trkpt lat="43.7920341" lon="12.961781"><ele>47.0</ele><time>2026-04-19T10:14:49Z</time></trkpt><trkpt lat="43.7919269" lon="12.9618854"><ele>46.25</ele><time>2026-04-19T10:14:50Z</time></trkpt><trkpt lat="43.7918288" lon="12.9619913"><ele>45.5</ele><time>2026-04-19T10:14:51Z</time></trkpt><trkpt lat="43.7917294" lon="12.9621045"><ele>44.75</ele><time>2026-04-19T10:14:52Z</time></trkpt><trkpt lat="43.7916317" lon="12.9622174"><ele>44.0</ele><time>2026-04-19T10:14:53Z</time></trkpt><trkpt lat="43.7915356" lon="12.9623277"><ele>44.0</ele><time>2026-04-19T10:14:53.999Z</time></trkpt><trkpt lat="43.7914451" lon="12.9624329"><ele>44.0</ele><time>2026-04-19T10:14:55Z</time></trkpt><trkpt lat="43.7913517" lon="12.9625425"><ele>44.0</ele><time>2026-04-19T10:14:56Z</time></trkpt><trkpt lat="43.7912571" lon="12.9626453"><ele>44.0</ele><time>2026-04-19T10:14:57Z</time></trkpt><trkpt lat="43.7911608" lon="12.9627516"><ele>43.75</ele><time>2026-04-19T10:14:58Z</time></trkpt><trkpt lat="43.7910674" lon="12.9628529"><ele>43.5</ele><time>2026-04-19T10:14:59Z</time></trkpt><trkpt lat="43.7909776" lon="12.9629513"><ele>43.25</ele><time>2026-04-19T10:14:59.999Z</time></trkpt><trkpt lat="43.7908854" lon="12.9630454"><ele>43.0</ele><time>2026-04-19T10:15:01Z</time></trkpt><trkpt lat="43.7907981" lon="12.9631274"><ele>43.0</ele><time>2026-04-19T10:15:02Z</time></trkpt><trkpt lat="43.790715" lon="12.9631977"><ele>43.0</ele><time>2026-04-19T10:15:03Z</time></trkpt><trkpt lat="43.7906402" lon="12.9632567"><ele>43.0</ele><time>2026-04-19T10:15:04Z</time></trkpt><trkpt lat="43.7905848" lon="12.9633052"><ele>43.0</ele><time>2026-04-19T10:15:05Z</time></trkpt><trkpt lat="43.7905507" lon="12.9634028"><ele>43.0</ele><time>2026-04-19T10:15:07Z</time></trkpt><trkpt lat="43.7906116" lon="12.9633719"><ele>43.0</ele><time>2026-04-19T10:15:11Z</time></trkpt><trkpt lat="43.7906813" lon="12.9632433"><ele>43.0</ele><time>2026-04-19T10:15:17Z</time></trkpt><trkpt lat="43.7907502" lon="12.9631827"><ele>43.0</ele><time>2026-04-19T10:15:18Z</time></trkpt><trkpt lat="43.790832" lon="12.9631151"><ele>43.0</ele><time>2026-04-19T10:15:19Z</time></trkpt><trkpt lat="43.7909145" lon="12.9630301"><ele>43.0</ele><time>2026-04-19T10:15:19.999Z</time></trkpt><trkpt lat="43.7910035" lon="12.9629426"><ele>43.0</ele><time>2026-04-19T10:15:21Z</time></trkpt><trkpt lat="43.7911233" lon="12.9628103"><ele>43.25</ele><time>2026-04-19T10:15:22Z</time></trkpt><trkpt lat="43.7912341" lon="12.9626875"><ele>43.5</ele><time>2026-04-19T10:15:23Z</time></trkpt><trkpt lat="43.791344" lon="12.9625595"><ele>43.75</ele><time>2026-04-19T10:15:24Z</time></trkpt><trkpt lat="43.7914655" lon="12.9624231"><ele>44.0</ele><time>2026-04-19T10:15:24.999Z</time></trkpt><trkpt lat="43.7915797" lon="12.9622915"><ele>44.0</ele><time>2026-04-19T10:15:26Z</time></trkpt><trkpt lat="43.7916926" lon="12.9621718"><ele>44.0</ele><time>2026-04-19T10:15:27Z</time></trkpt><trkpt lat="43.7917947" lon="12.9620583"><ele>44.0</ele><time>2026-04-19T10:15:28Z</time></trkpt><trkpt lat="43.7918943" lon="12.9619461"><ele>44.0</ele><time>2026-04-19T10:15:29Z</time></trkpt><trkpt lat="43.7919932" lon="12.9618413"><ele>44.6</ele><time>2026-04-19T10:15:30Z</time></trkpt><trkpt lat="43.7920877" lon="12.9617501"><ele>45.2</ele><time>2026-04-19T10:15:31Z</time></trkpt><trkpt lat="43.7921829" lon="12.96168"><ele>45.800000000000004</ele><time>2026-04-19T10:15:32Z</time></trkpt><trkpt lat="43.7922695" lon="12.9616314"><ele>46.400000000000006</ele><time>2026-04-19T10:15:33Z</time></trkpt><trkpt lat="43.7923453" lon="12.9615999"><ele>47.0</ele><time>2026-04-19T10:15:34Z</time></trkpt><trkpt lat="43.7924398" lon="12.9615292"><ele>47.33333333333333</ele><time>2026-04-19T10:15:36Z</time></trkpt><trkpt lat="43.7924442" lon="12.9613984"><ele>47.666666666666664</ele><time>2026-04-19T10:15:37.999Z</time></trkpt><trkpt lat="43.7923773" lon="12.9613144"><ele>48.0</ele><time>2026-04-19T10:15:39Z</time></trkpt><trkpt lat="43.7923109" lon="12.9612349"><ele>48.33333333333333</ele><time>2026-04-19T10:15:40Z</time></trkpt><trkpt lat="43.7922404" lon="12.9611741"><ele>48.666666666666664</ele><time>2026-04-19T10:15:41Z</time></trkpt><trkpt lat="43.7921584" lon="12.9611442"><ele>49.0</ele><time>2026-04-19T10:15:42Z</time></trkpt><trkpt lat="43.7920566" lon="12.9611421"><ele>49.0</ele><time>2026-04-19T10:15:43Z</time></trkpt><trkpt lat="43.7919494" lon="12.9611501"><ele>49.0</ele><time>2026-04-19T10:15:44Z</time></trkpt><trkpt lat="43.7918387" lon="12.9611413"><ele>49.0</ele><time>2026-04-19T10:15:45Z</time></trkpt><trkpt lat="43.7917279" lon="12.9611273"><ele>49.0</ele><time>2026-04-19T10:15:46Z</time></trkpt><trkpt lat="43.7916175" lon="12.9610888"><ele>49.0</ele><time>2026-04-19T10:15:47Z</time></trkpt><trkpt lat="43.7915187" lon="12.9610031"><ele>48.75</ele><time>2026-04-19T10:15:48Z</time></trkpt><trkpt lat="43.79144" lon="12.9608972"><ele>48.5</ele><time>2026-04-19T10:15:49Z</time></trkpt><trkpt lat="43.7913586" lon="12.9607766"><ele>48.25</ele><time>2026-04-19T10:15:50Z</time></trkpt><trkpt lat="43.7912864" lon="12.9606228"><ele>48.0</ele><time>2026-04-19T10:15:51Z</time></trkpt><trkpt lat="43.791217" lon="12.9604651"><ele>48.0</ele><time>2026-04-19T10:15:52Z</time></trkpt><trkpt lat="43.791139" lon="12.9603058"><ele>48.0</ele><time>2026-04-19T10:15:53Z</time></trkpt><trkpt lat="43.7910553" lon="12.9601699"><ele>48.0</ele><time>2026-04-19T10:15:54Z</time></trkpt><trkpt lat="43.7909523" lon="12.9600582"><ele>48.0</ele><time>2026-04-19T10:15:55Z</time></trkpt><trkpt lat="43.7908401" lon="12.9599652"><ele>47.75</ele><time>2026-04-19T10:15:56Z</time></trkpt><trkpt lat="43.7907157" lon="12.9598991"><ele>47.5</ele><time>2026-04-19T10:15:57Z</time></trkpt><trkpt lat="43.7905818" lon="12.9598503"><ele>47.25</ele><time>2026-04-19T10:15:58Z</time></trkpt><trkpt lat="43.7904558" lon="12.9598027"><ele>47.0</ele><time>2026-04-19T10:15:59Z</time></trkpt><trkpt lat="43.7903401" lon="12.95976"><ele>47.0</ele><time>2026-04-19T10:16:00Z</time></trkpt><trkpt lat="43.7902337" lon="12.9597264"><ele>47.0</ele><time>2026-04-19T10:16:01Z</time></trkpt><trkpt lat="43.790142" lon="12.9597014"><ele>47.0</ele><time>2026-04-19T10:16:02Z</time></trkpt><trkpt lat="43.7900722" lon="12.9596761"><ele>47.0</ele><time>2026-04-19T10:16:03Z</time></trkpt><trkpt lat="43.7899765" lon="12.9596347"><ele>47.0</ele><time>2026-04-19T10:16:05Z</time></trkpt><trkpt lat="43.7899097" lon="12.9596335"><ele>47.0</ele><time>2026-04-19T10:16:11Z</time></trkpt><trkpt lat="43.7898256" lon="12.9597092"><ele>47.400000000000006</ele><time>2026-04-19T10:16:14Z</time></trkpt><trkpt lat="43.7897444" lon="12.9597948"><ele>47.800000000000004</ele><time>2026-04-19T10:16:16Z</time></trkpt><trkpt lat="43.7896577" lon="12.9598825"><ele>48.2</ele><time>2026-04-19T10:16:18Z</time></trkpt><trkpt lat="43.789594" lon="12.9599202"><ele>48.6</ele><time>2026-04-19T10:16:19Z</time></trkpt><trkpt lat="43.7895185" lon="12.959941"><ele>49.0</ele><time>2026-04-19T10:16:20Z</time></trkpt><trkpt lat="43.7894237" lon="12.9599428"><ele>48.800000000000004</ele><time>2026-04-19T10:16:21Z</time></trkpt><trkpt lat="43.7893243" lon="12.9599205"><ele>48.6</ele><time>2026-04-19T10:16:22Z</time></trkpt><trkpt lat="43.7892184" lon="12.9598959"><ele>48.4</ele><time>2026-04-19T10:16:23Z</time></trkpt><trkpt lat="43.789116" lon="12.9598595"><ele>48.2</ele><time>2026-04-19T10:16:24Z</time></trkpt><trkpt lat="43.789014" lon="12.9598119"><ele>48.0</ele><time>2026-04-19T10:16:25Z</time></trkpt><trkpt lat="43.7889125" lon="12.959746"><ele>48.0</ele><time>2026-04-19T10:16:26Z</time></trkpt><trkpt lat="43.7888166" lon="12.9596571"><ele>48.0</ele><time>2026-04-19T10:16:27Z</time></trkpt><trkpt lat="43.788723" lon="12.9595533"><ele>48.0</ele><time>2026-04-19T10:16:28Z</time></trkpt><trkpt lat="43.7886323" lon="12.9594532"><ele>48.0</ele><time>2026-04-19T10:16:29Z</time></trkpt><trkpt lat="43.7885423" lon="12.9593571"><ele>47.599999999999994</ele><time>2026-04-19T10:16:30Z</time></trkpt><trkpt lat="43.7884597" lon="12.9592622"><ele>47.199999999999996</ele><time>2026-04-19T10:16:31Z</time></trkpt><trkpt lat="43.7883751" lon="12.9591988"><ele>46.8</ele><time>2026-04-19T10:16:32Z</time></trkpt><trkpt lat="43.7882853" lon="12.9591639"><ele>46.4</ele><time>2026-04-19T10:16:33Z</time></trkpt><trkpt lat="43.788194" lon="12.9591611"><ele>46.0</ele><time>2026-04-19T10:16:34Z</time></trkpt><trkpt lat="43.7881006" lon="12.9591993"><ele>45.75</ele><time>2026-04-19T10:16:35Z</time></trkpt><trkpt lat="43.7880038" lon="12.9592676"><ele>45.5</ele><time>2026-04-19T10:16:36Z</time></trkpt><trkpt lat="43.7879013" lon="12.9593475"><ele>45.25</ele><time>2026-04-19T10:16:37Z</time></trkpt><trkpt lat="43.7877889" lon="12.9594264"><ele>45.0</ele><time>2026-04-19T10:16:38Z</time></trkpt><trkpt lat="43.7876696" lon="12.9595064"><ele>45.5</ele><time>2026-04-19T10:16:39Z</time></trkpt><trkpt lat="43.7875547" lon="12.9595868"><ele>46.0</ele><time>2026-04-19T10:16:40Z</time></trkpt><trkpt lat="43.7874461" lon="12.959655"><ele>46.5</ele><time>2026-04-19T10:16:41Z</time></trkpt><trkpt lat="43.7873498" lon="12.9597154"><ele>47.0</ele><time>2026-04-19T10:16:42Z</time></trkpt><trkpt lat="43.7872587" lon="12.9597772"><ele>47.0</ele><time>2026-04-19T10:16:42.999Z</time></trkpt><trkpt lat="43.7871671" lon="12.95984"><ele>47.0</ele><time>2026-04-19T10:16:44Z</time></trkpt><trkpt lat="43.7870775" lon="12.9599004"><ele>47.0</ele><time>2026-04-19T10:16:45Z</time></trkpt><trkpt lat="43.7869883" lon="12.9599589"><ele>47.0</ele><time>2026-04-19T10:16:46Z</time></trkpt><trkpt lat="43.7868995" lon="12.9600195"><ele>47.0</ele><time>2026-04-19T10:16:47Z</time></trkpt><trkpt lat="43.7868037" lon="12.9600818"><ele>47.0</ele><time>2026-04-19T10:16:48Z</time></trkpt><trkpt lat="43.7867056" lon="12.9601468"><ele>47.0</ele><time>2026-04-19T10:16:49Z</time></trkpt><trkpt lat="43.7865996" lon="12.9602129"><ele>47.0</ele><time>2026-04-19T10:16:50Z</time></trkpt><trkpt lat="43.7864992" lon="12.9602771"><ele>47.0</ele><time>2026-04-19T10:16:50.999Z</time></trkpt><trkpt lat="43.7863893" lon="12.9603424"><ele>47.0</ele><time>2026-04-19T10:16:52Z</time></trkpt><trkpt lat="43.7862655" lon="12.9604047"><ele>47.0</ele><time>2026-04-19T10:16:53Z</time></trkpt><trkpt lat="43.7861457" lon="12.9604678"><ele>47.0</ele><time>2026-04-19T10:16:54Z</time></trkpt><trkpt lat="43.7860152" lon="12.9605285"><ele>47.0</ele><time>2026-04-19T10:16:55Z</time></trkpt><trkpt lat="43.7858779" lon="12.96059"><ele>46.5</ele><time>2026-04-19T10:16:56Z</time></trkpt><trkpt lat="43.7857407" lon="12.9606534"><ele>46.0</ele><time>2026-04-19T10:16:57Z</time></trkpt><trkpt lat="43.785601" lon="12.9607198"><ele>45.5</ele><time>2026-04-19T10:16:58Z</time></trkpt><trkpt lat="43.7854571" lon="12.9607844"><ele>45.0</ele><time>2026-04-19T10:16:59Z</time></trkpt><trkpt lat="43.7853076" lon="12.9608479"><ele>45.0</ele><time>2026-04-19T10:17:00Z</time></trkpt><trkpt lat="43.785155" lon="12.9608958"><ele>45.0</ele><time>2026-04-19T10:17:01Z</time></trkpt><trkpt lat="43.7850115" lon="12.9609337"><ele>45.0</ele><time>2026-04-19T10:17:02Z</time></trkpt><trkpt lat="43.7848724" lon="12.9609428"><ele>45.0</ele><time>2026-04-19T10:17:03Z</time></trkpt><trkpt lat="43.7847275" lon="12.9609371"><ele>45.0</ele><time>2026-04-19T10:17:04Z</time></trkpt><trkpt lat="43.7845861" lon="12.9609077"><ele>45.0</ele><time>2026-04-19T10:17:05Z</time></trkpt><trkpt lat="43.7844404" lon="12.960875"><ele>45.0</ele><time>2026-04-19T10:17:06Z</time></trkpt><trkpt lat="43.784289" lon="12.9608488"><ele>45.0</ele><time>2026-04-19T10:17:07Z</time></trkpt><trkpt lat="43.7841321" lon="12.9608417"><ele>44.666666666666664</ele><time>2026-04-19T10:17:08Z</time></trkpt><trkpt lat="43.7839737" lon="12.9608492"><ele>44.33333333333333</ele><time>2026-04-19T10:17:09Z</time></trkpt><trkpt lat="43.7838151" lon="12.9608872"><ele>44.0</ele><time>2026-04-19T10:17:10Z</time></trkpt><trkpt lat="43.7836567" lon="12.9609524"><ele>44.666666666666664</ele><time>2026-04-19T10:17:11Z</time></trkpt><trkpt lat="43.7835052" lon="12.9610178"><ele>45.333333333333336</ele><time>2026-04-19T10:17:11.999Z</time></trkpt><trkpt lat="43.7833559" lon="12.9610874"><ele>46.0</ele><time>2026-04-19T10:17:13Z</time></trkpt><trkpt lat="43.7832061" lon="12.9611567"><ele>46.0</ele><time>2026-04-19T10:17:14Z</time></trkpt><trkpt lat="43.783063" lon="12.9612266"><ele>46.0</ele><time>2026-04-19T10:17:15Z</time></trkpt><trkpt lat="43.7829162" lon="12.9612866"><ele>46.0</ele><time>2026-04-19T10:17:16Z</time></trkpt><trkpt lat="43.7827648" lon="12.9613303"><ele>46.333333333333336</ele><time>2026-04-19T10:17:17Z</time></trkpt><trkpt lat="43.782611" lon="12.9613614"><ele>46.666666666666664</ele><time>2026-04-19T10:17:18Z</time></trkpt><trkpt lat="43.7824588" lon="12.9613828"><ele>47.0</ele><time>2026-04-19T10:17:19Z</time></trkpt><trkpt lat="43.7823078" lon="12.961408"><ele>47.0</ele><time>2026-04-19T10:17:20Z</time></trkpt><trkpt lat="43.7821662" lon="12.9614492"><ele>47.0</ele><time>2026-04-19T10:17:20.999Z</time></trkpt><trkpt lat="43.7820245" lon="12.9615204"><ele>47.0</ele><time>2026-04-19T10:17:22Z</time></trkpt><trkpt lat="43.7818836" lon="12.9616044"><ele>47.0</ele><time>2026-04-19T10:17:23Z</time></trkpt><trkpt lat="43.7817426" lon="12.9616905"><ele>47.0</ele><time>2026-04-19T10:17:24Z</time></trkpt><trkpt lat="43.7815934" lon="12.9617839"><ele>47.0</ele><time>2026-04-19T10:17:25Z</time></trkpt><trkpt lat="43.7814457" lon="12.9618817"><ele>47.0</ele><time>2026-04-19T10:17:26Z</time></trkpt><trkpt lat="43.7812926" lon="12.9619784"><ele>47.0</ele><time>2026-04-19T10:17:27Z</time></trkpt><trkpt lat="43.7811436" lon="12.9620729"><ele>47.0</ele><time>2026-04-19T10:17:28Z</time></trkpt><trkpt lat="43.7809871" lon="12.9621708"><ele>47.0</ele><time>2026-04-19T10:17:29Z</time></trkpt><trkpt lat="43.7808237" lon="12.9622656"><ele>46.666666666666664</ele><time>2026-04-19T10:17:30Z</time></trkpt><trkpt lat="43.7806705" lon="12.9623591"><ele>46.333333333333336</ele><time>2026-04-19T10:17:31Z</time></trkpt><trkpt lat="43.7805247" lon="12.9624496"><ele>46.0</ele><time>2026-04-19T10:17:32Z</time></trkpt><trkpt lat="43.7803851" lon="12.9625427"><ele>45.66666666666667</ele><time>2026-04-19T10:17:33Z</time></trkpt><trkpt lat="43.7802457" lon="12.9626379"><ele>45.333333333333336</ele><time>2026-04-19T10:17:34Z</time></trkpt><trkpt lat="43.780106" lon="12.9627402"><ele>45.0</ele><time>2026-04-19T10:17:35Z</time></trkpt><trkpt lat="43.7799652" lon="12.962865"><ele>45.0</ele><time>2026-04-19T10:17:36Z</time></trkpt><trkpt lat="43.7798261" lon="12.9629887"><ele>45.0</ele><time>2026-04-19T10:17:37Z</time></trkpt><trkpt lat="43.7796851" lon="12.9631295"><ele>45.0</ele><time>2026-04-19T10:17:38Z</time></trkpt><trkpt lat="43.7795535" lon="12.9632673"><ele>45.333333333333336</ele><time>2026-04-19T10:17:39Z</time></trkpt><trkpt lat="43.7794214" lon="12.9634165"><ele>45.66666666666667</ele><time>2026-04-19T10:17:40Z</time></trkpt><trkpt lat="43.779292" lon="12.9635585"><ele>46.0</ele><time>2026-04-19T10:17:41Z</time></trkpt><trkpt lat="43.7791671" lon="12.9636918"><ele>46.0</ele><time>2026-04-19T10:17:42Z</time></trkpt><trkpt lat="43.7790512" lon="12.9638206"><ele>46.0</ele><time>2026-04-19T10:17:43Z</time></trkpt><trkpt lat="43.7789354" lon="12.9639583"><ele>46.0</ele><time>2026-04-19T10:17:44Z</time></trkpt><trkpt lat="43.7788227" lon="12.9640931"><ele>45.333333333333336</ele><time>2026-04-19T10:17:45Z</time></trkpt><trkpt lat="43.7787069" lon="12.9642385"><ele>44.666666666666664</ele><time>2026-04-19T10:17:46Z</time></trkpt><trkpt lat="43.7785892" lon="12.9643789"><ele>44.0</ele><time>2026-04-19T10:17:47Z</time></trkpt><trkpt lat="43.7784838" lon="12.9645204"><ele>44.0</ele><time>2026-04-19T10:17:48Z</time></trkpt><trkpt lat="43.7783702" lon="12.9646653"><ele>44.0</ele><time>2026-04-19T10:17:49Z</time></trkpt><trkpt lat="43.7782566" lon="12.9648196"><ele>44.0</ele><time>2026-04-19T10:17:50Z</time></trkpt><trkpt lat="43.7781409" lon="12.9649722"><ele>44.0</ele><time>2026-04-19T10:17:51Z</time></trkpt><trkpt lat="43.7780243" lon="12.9651233"><ele>44.0</ele><time>2026-04-19T10:17:52Z</time></trkpt><trkpt lat="43.7779095" lon="12.9652777"><ele>44.0</ele><time>2026-04-19T10:17:53Z</time></trkpt><trkpt lat="43.7777933" lon="12.9654312"><ele>44.0</ele><time>2026-04-19T10:17:53.999Z</time></trkpt><trkpt lat="43.7776787" lon="12.965588"><ele>44.0</ele><time>2026-04-19T10:17:55Z</time></trkpt><trkpt lat="43.7775617" lon="12.9657473"><ele>44.0</ele><time>2026-04-19T10:17:56Z</time></trkpt><trkpt lat="43.7774411" lon="12.9659096"><ele>43.666666666666664</ele><time>2026-04-19T10:17:57Z</time></trkpt><trkpt lat="43.7773246" lon="12.9660816"><ele>43.333333333333336</ele><time>2026-04-19T10:17:58Z</time></trkpt><trkpt lat="43.7772052" lon="12.9662468"><ele>43.0</ele><time>2026-04-19T10:17:59Z</time></trkpt><trkpt lat="43.7770841" lon="12.9664143"><ele>43.0</ele><time>2026-04-19T10:18:00Z</time></trkpt><trkpt lat="43.7769627" lon="12.9665832"><ele>43.0</ele><time>2026-04-19T10:18:01Z</time></trkpt><trkpt lat="43.7768367" lon="12.9667519"><ele>43.0</ele><time>2026-04-19T10:18:01.999Z</time></trkpt><trkpt lat="43.7767144" lon="12.9669161"><ele>42.75</ele><time>2026-04-19T10:18:03Z</time></trkpt><trkpt lat="43.7766044" lon="12.9670666"><ele>42.5</ele><time>2026-04-19T10:18:04Z</time></trkpt><trkpt lat="43.7765062" lon="12.9671979"><ele>42.25</ele><time>2026-04-19T10:18:05Z</time></trkpt><trkpt lat="43.7764178" lon="12.9673271"><ele>42.0</ele><time>2026-04-19T10:18:06Z</time></trkpt><trkpt lat="43.7763426" lon="12.9674312"><ele>42.0</ele><time>2026-04-19T10:18:07Z</time></trkpt><trkpt lat="43.7762816" lon="12.9675126"><ele>42.0</ele><time>2026-04-19T10:18:08Z</time></trkpt><trkpt lat="43.7762367" lon="12.9675772"><ele>42.0</ele><time>2026-04-19T10:18:09Z</time></trkpt><trkpt lat="43.7761424" lon="12.9675957"><ele>42.0</ele><time>2026-04-19T10:18:11Z</time></trkpt><trkpt lat="43.7760551" lon="12.9675046"><ele>42.0</ele><time>2026-04-19T10:18:13Z</time></trkpt><trkpt lat="43.7760143" lon="12.9674316"><ele>42.0</ele><time>2026-04-19T10:18:14Z</time></trkpt><trkpt lat="43.775961" lon="12.9673513"><ele>42.0</ele><time>2026-04-19T10:18:15Z</time></trkpt><trkpt lat="43.7759185" lon="12.9672786"><ele>42.0</ele><time>2026-04-19T10:18:16Z</time></trkpt><trkpt lat="43.7758726" lon="12.9672175"><ele>42.0</ele><time>2026-04-19T10:18:17Z</time></trkpt><trkpt lat="43.7758112" lon="12.9671814"><ele>42.0</ele><time>2026-04-19T10:18:18Z</time></trkpt><trkpt lat="43.7757399" lon="12.9671771"><ele>42.0</ele><time>2026-04-19T10:18:19Z</time></trkpt><trkpt lat="43.7756704" lon="12.9672043"><ele>42.0</ele><time>2026-04-19T10:18:20Z</time></trkpt><trkpt lat="43.7756112" lon="12.9672563"><ele>42.0</ele><time>2026-04-19T10:18:21Z</time></trkpt><trkpt lat="43.7755674" lon="12.9673212"><ele>42.0</ele><time>2026-04-19T10:18:21.999Z</time></trkpt><trkpt lat="43.7755279" lon="12.9673945"><ele>42.0</ele><time>2026-04-19T10:18:23Z</time></trkpt><trkpt lat="43.77549" lon="12.9674841"><ele>42.0</ele><time>2026-04-19T10:18:24Z</time></trkpt><trkpt lat="43.7754424" lon="12.9675653"><ele>42.0</ele><time>2026-04-19T10:18:25Z</time></trkpt><trkpt lat="43.7753793" lon="12.9676362"><ele>42.0</ele><time>2026-04-19T10:18:26Z</time></trkpt><trkpt lat="43.7752785" lon="12.9676762"><ele>42.0</ele><time>2026-04-19T10:18:28Z</time></trkpt><trkpt lat="43.7751606" lon="12.9677248"><ele>41.333333333333336</ele><time>2026-04-19T10:18:30Z</time></trkpt><trkpt lat="43.7750872" lon="12.9677664"><ele>40.666666666666664</ele><time>2026-04-19T10:18:31Z</time></trkpt><trkpt lat="43.7750133" lon="12.967831"><ele>40.0</ele><time>2026-04-19T10:18:32Z</time></trkpt><trkpt lat="43.7749461" lon="12.9679197"><ele>39.33333333333333</ele><time>2026-04-19T10:18:33Z</time></trkpt><trkpt lat="43.7748996" lon="12.9680313"><ele>38.666666666666664</ele><time>2026-04-19T10:18:34Z</time></trkpt><trkpt lat="43.7748507" lon="12.9681471"><ele>38.0</ele><time>2026-04-19T10:18:35Z</time></trkpt><trkpt lat="43.7748008" lon="12.9682475"><ele>38.0</ele><time>2026-04-19T10:18:36Z</time></trkpt><trkpt lat="43.7747454" lon="12.9683464"><ele>38.0</ele><time>2026-04-19T10:18:37Z</time></trkpt><trkpt lat="43.7746965" lon="12.9684396"><ele>38.0</ele><time>2026-04-19T10:18:38Z</time></trkpt><trkpt lat="43.7746578" lon="12.9685305"><ele>38.0</ele><time>2026-04-19T10:18:39Z</time></trkpt><trkpt lat="43.7746155" lon="12.9686247"><ele>38.0</ele><time>2026-04-19T10:18:40Z</time></trkpt><trkpt lat="43.7745718" lon="12.9687216"><ele>38.0</ele><time>2026-04-19T10:18:41Z</time></trkpt><trkpt lat="43.7745254" lon="12.9688192"><ele>38.0</ele><time>2026-04-19T10:18:42Z</time></trkpt><trkpt lat="43.7744839" lon="12.9689235"><ele>38.0</ele><time>2026-04-19T10:18:43Z</time></trkpt><trkpt lat="43.7744301" lon="12.9690215"><ele>38.0</ele><time>2026-04-19T10:18:44Z</time></trkpt><trkpt lat="43.774374" lon="12.9691169"><ele>38.0</ele><time>2026-04-19T10:18:45Z</time></trkpt><trkpt lat="43.7743053" lon="12.9692057"><ele>38.0</ele><time>2026-04-19T10:18:46Z</time></trkpt><trkpt lat="43.7742335" lon="12.9692859"><ele>38.199999999999996</ele><time>2026-04-19T10:18:47Z</time></trkpt><trkpt lat="43.7741518" lon="12.9693553"><ele>38.4</ele><time>2026-04-19T10:18:48Z</time></trkpt><trkpt lat="43.7740687" lon="12.9694255"><ele>38.599999999999994</ele><time>2026-04-19T10:18:49Z</time></trkpt><trkpt lat="43.7739813" lon="12.96949"><ele>38.8</ele><time>2026-04-19T10:18:50Z</time></trkpt><trkpt lat="43.7738926" lon="12.9695591"><ele>39.0</ele><time>2026-04-19T10:18:51Z</time></trkpt><trkpt lat="43.7738071" lon="12.9696188"><ele>39.0</ele><time>2026-04-19T10:18:52Z</time></trkpt><trkpt lat="43.7737218" lon="12.969678"><ele>39.0</ele><time>2026-04-19T10:18:53Z</time></trkpt><trkpt lat="43.7736326" lon="12.9697379"><ele>39.0</ele><time>2026-04-19T10:18:53.999Z</time></trkpt><trkpt lat="43.7735487" lon="12.9697983"><ele>39.0</ele><time>2026-04-19T10:18:55Z</time></trkpt><trkpt lat="43.7734626" lon="12.969859"><ele>39.0</ele><time>2026-04-19T10:18:56Z</time></trkpt><trkpt lat="43.77338" lon="12.9699176"><ele>39.0</ele><time>2026-04-19T10:18:57Z</time></trkpt><trkpt lat="43.773298" lon="12.9699845"><ele>39.0</ele><time>2026-04-19T10:18:58Z</time></trkpt><trkpt lat="43.7732185" lon="12.9700484"><ele>39.0</ele><time>2026-04-19T10:18:59Z</time></trkpt><trkpt lat="43.7731422" lon="12.9701108"><ele>39.0</ele><time>2026-04-19T10:19:00Z</time></trkpt><trkpt lat="43.7730657" lon="12.9701746"><ele>39.0</ele><time>2026-04-19T10:19:01Z</time></trkpt><trkpt lat="43.7729846" lon="12.9702338"><ele>38.833333333333336</ele><time>2026-04-19T10:19:02Z</time></trkpt><trkpt lat="43.7729075" lon="12.9702929"><ele>38.666666666666664</ele><time>2026-04-19T10:19:03Z</time></trkpt><trkpt lat="43.7728419" lon="12.9703451"><ele>38.5</ele><time>2026-04-19T10:19:04Z</time></trkpt><trkpt lat="43.7727843" lon="12.9703968"><ele>38.33333333333333</ele><time>2026-04-19T10:19:05Z</time></trkpt><trkpt lat="43.7726893" lon="12.9704774"><ele>38.166666666666664</ele><time>2026-04-19T10:19:07Z</time></trkpt><trkpt lat="43.7726258" lon="12.9705124"><ele>38.0</ele><time>2026-04-19T10:19:09Z</time></trkpt><trkpt lat="43.7725943" lon="12.9704185"><ele>38.0</ele><time>2026-04-19T10:19:12Z</time></trkpt><trkpt lat="43.7726404" lon="12.9703347"><ele>38.0</ele><time>2026-04-19T10:19:14Z</time></trkpt><trkpt lat="43.7727251" lon="12.9702324"><ele>38.0</ele><time>2026-04-19T10:19:16Z</time></trkpt><trkpt lat="43.7727707" lon="12.9701634"><ele>38.0</ele><time>2026-04-19T10:19:16.999Z</time></trkpt><trkpt lat="43.7728156" lon="12.9700901"><ele>38.0</ele><time>2026-04-19T10:19:18Z</time></trkpt><trkpt lat="43.7728621" lon="12.9699951"><ele>38.0</ele><time>2026-04-19T10:19:19.999Z</time></trkpt><trkpt lat="43.7729066" lon="12.969896"><ele>38.199999999999996</ele><time>2026-04-19T10:19:22Z</time></trkpt><trkpt lat="43.7729851" lon="12.9697461"><ele>38.4</ele><time>2026-04-19T10:19:24Z</time></trkpt><trkpt lat="43.773027" lon="12.9696744"><ele>38.599999999999994</ele><time>2026-04-19T10:19:25Z</time></trkpt><trkpt lat="43.7730992" lon="12.9695547"><ele>38.8</ele><time>2026-04-19T10:19:27Z</time></trkpt><trkpt lat="43.7731612" lon="12.9694141"><ele>39.0</ele><time>2026-04-19T10:19:29Z</time></trkpt><trkpt lat="43.7731628" lon="12.9692827"><ele>39.0</ele><time>2026-04-19T10:19:31Z</time></trkpt><trkpt lat="43.7731406" lon="12.9692005"><ele>39.0</ele><time>2026-04-19T10:19:32Z</time></trkpt><trkpt lat="43.7730897" lon="12.9690757"><ele>39.0</ele><time>2026-04-19T10:19:34Z</time></trkpt><trkpt lat="43.7730669" lon="12.9689859"><ele>39.0</ele><time>2026-04-19T10:19:36Z</time></trkpt><trkpt lat="43.7730227" lon="12.9689095"><ele>39.0</ele><time>2026-04-19T10:19:39Z</time></trkpt><trkpt lat="43.7729764" lon="12.9688375"><ele>39.0</ele><time>2026-04-19T10:19:42Z</time></trkpt><trkpt lat="43.7729611" lon="12.9687434"><ele>39.0</ele><time>2026-04-19T10:19:44Z</time></trkpt><trkpt lat="43.7729051" lon="12.9685848"><ele>38.8</ele><time>2026-04-19T10:19:46Z</time></trkpt><trkpt lat="43.7728672" lon="12.968482"><ele>38.599999999999994</ele><time>2026-04-19T10:19:47Z</time></trkpt><trkpt lat="43.7728227" lon="12.9683673"><ele>38.4</ele><time>2026-04-19T10:19:48Z</time></trkpt><trkpt lat="43.7727772" lon="12.9682427"><ele>38.199999999999996</ele><time>2026-04-19T10:19:49Z</time></trkpt><trkpt lat="43.7727318" lon="12.9681117"><ele>38.0</ele><time>2026-04-19T10:19:50Z</time></trkpt><trkpt lat="43.7726873" lon="12.9679976"><ele>38.0</ele><time>2026-04-19T10:19:51Z</time></trkpt><trkpt lat="43.7726476" lon="12.9678907"><ele>38.0</ele><time>2026-04-19T10:19:52Z</time></trkpt><trkpt lat="43.772608" lon="12.9677886"><ele>38.0</ele><time>2026-04-19T10:19:53Z</time></trkpt><trkpt lat="43.7725575" lon="12.9676965"><ele>38.0</ele><time>2026-04-19T10:19:54Z</time></trkpt><trkpt lat="43.7725044" lon="12.9676196"><ele>38.0</ele><time>2026-04-19T10:19:55Z</time></trkpt><trkpt lat="43.77245" lon="12.9675585"><ele>38.0</ele><time>2026-04-19T10:19:56Z</time></trkpt><trkpt lat="43.7723959" lon="12.9675066"><ele>38.4</ele><time>2026-04-19T10:19:57Z</time></trkpt><trkpt lat="43.7722998" lon="12.967422"><ele>38.8</ele><time>2026-04-19T10:19:59Z</time></trkpt><trkpt lat="43.7722053" lon="12.9673356"><ele>39.2</ele><time>2026-04-19T10:20:01Z</time></trkpt><trkpt lat="43.7721236" lon="12.967192"><ele>39.6</ele><time>2026-04-19T10:20:03Z</time></trkpt><trkpt lat="43.7720803" lon="12.9670996"><ele>40.0</ele><time>2026-04-19T10:20:04Z</time></trkpt><trkpt lat="43.7720329" lon="12.966996"><ele>40.0</ele><time>2026-04-19T10:20:05Z</time></trkpt><trkpt lat="43.7719753" lon="12.9668907"><ele>40.0</ele><time>2026-04-19T10:20:06Z</time></trkpt><trkpt lat="43.771913" lon="12.9667824"><ele>40.0</ele><time>2026-04-19T10:20:07Z</time></trkpt><trkpt lat="43.7718479" lon="12.9666778"><ele>40.0</ele><time>2026-04-19T10:20:08Z</time></trkpt><trkpt lat="43.7717751" lon="12.9665778"><ele>40.0</ele><time>2026-04-19T10:20:09Z</time></trkpt><trkpt lat="43.7716949" lon="12.9664797"><ele>40.0</ele><time>2026-04-19T10:20:10Z</time></trkpt><trkpt lat="43.7716128" lon="12.9663853"><ele>40.0</ele><time>2026-04-19T10:20:11Z</time></trkpt><trkpt lat="43.7715309" lon="12.9662953"><ele>40.0</ele><time>2026-04-19T10:20:12Z</time></trkpt><trkpt lat="43.771451" lon="12.9662066"><ele>40.0</ele><time>2026-04-19T10:20:12.999Z</time></trkpt><trkpt lat="43.7713746" lon="12.9661231"><ele>40.0</ele><time>2026-04-19T10:20:13.999Z</time></trkpt><trkpt lat="43.7713097" lon="12.9660417"><ele>40.0</ele><time>2026-04-19T10:20:15Z</time></trkpt><trkpt lat="43.771253" lon="12.9659635"><ele>40.0</ele><time>2026-04-19T10:20:16Z</time></trkpt><trkpt lat="43.7712008" lon="12.9658912"><ele>40.0</ele><time>2026-04-19T10:20:17Z</time></trkpt><trkpt lat="43.7711209" lon="12.9657799"><ele>40.0</ele><time>2026-04-19T10:20:19Z</time></trkpt><trkpt lat="43.7710771" lon="12.9657119"><ele>40.0</ele><time>2026-04-19T10:20:21Z</time></trkpt><trkpt lat="43.7710312" lon="12.9656343"><ele>40.0</ele><time>2026-04-19T10:20:31Z</time></trkpt><trkpt lat="43.7710214" lon="12.9657229"><ele>40.0</ele><time>2026-04-19T10:20:45Z</time></trkpt><trkpt lat="43.7709393" lon="12.9658165"><ele>40.0</ele><time>2026-04-19T10:20:47Z</time></trkpt><trkpt lat="43.7708736" lon="12.965913"><ele>40.0</ele><time>2026-04-19T10:20:49Z</time></trkpt><trkpt lat="43.7707916" lon="12.9660066"><ele>40.0</ele><time>2026-04-19T10:20:51Z</time></trkpt><trkpt lat="43.7707024" lon="12.9661253"><ele>40.0</ele><time>2026-04-19T10:20:53Z</time></trkpt><trkpt lat="43.7706527" lon="12.9661845"><ele>40.0</ele><time>2026-04-19T10:20:54Z</time></trkpt><trkpt lat="43.7706035" lon="12.9662422"><ele>40.0</ele><time>2026-04-19T10:20:55Z</time></trkpt><trkpt lat="43.7705166" lon="12.9663443"><ele>40.0</ele><time>2026-04-19T10:20:56.999Z</time></trkpt><trkpt lat="43.7704577" lon="12.9663796"><ele>40.0</ele><time>2026-04-19T10:20:58Z</time></trkpt><trkpt lat="43.7703921" lon="12.9664021"><ele>40.0</ele><time>2026-04-19T10:20:59Z</time></trkpt><trkpt lat="43.7702921" lon="12.9664156"><ele>40.0</ele><time>2026-04-19T10:21:01Z</time></trkpt><trkpt lat="43.7701854" lon="12.9664167"><ele>39.2</ele><time>2026-04-19T10:21:03Z</time></trkpt><trkpt lat="43.7700722" lon="12.9664273"><ele>38.4</ele><time>2026-04-19T10:21:05Z</time></trkpt><trkpt lat="43.7699513" lon="12.9664595"><ele>37.6</ele><time>2026-04-19T10:21:07Z</time></trkpt><trkpt lat="43.7698325" lon="12.9665215"><ele>36.8</ele><time>2026-04-19T10:21:09Z</time></trkpt><trkpt lat="43.769773" lon="12.9665597"><ele>36.0</ele><time>2026-04-19T10:21:10Z</time></trkpt><trkpt lat="43.7697167" lon="12.9666109"><ele>36.00000000000001</ele><time>2026-04-19T10:21:11Z</time></trkpt><trkpt lat="43.7696624" lon="12.9666692"><ele>36.0</ele><time>2026-04-19T10:21:12Z</time></trkpt><trkpt lat="43.7696067" lon="12.9667292"><ele>36.0</ele><time>2026-04-19T10:21:13Z</time></trkpt><trkpt lat="43.769546" lon="12.9667931"><ele>36.0</ele><time>2026-04-19T10:21:14Z</time></trkpt><trkpt lat="43.769493" lon="12.9668501"><ele>36.0</ele><time>2026-04-19T10:21:15Z</time></trkpt><trkpt lat="43.7694317" lon="12.9669122"><ele>36.00000000000001</ele><time>2026-04-19T10:21:16Z</time></trkpt><trkpt lat="43.769375" lon="12.9669766"><ele>36.0</ele><time>2026-04-19T10:21:17Z</time></trkpt><trkpt lat="43.7693089" lon="12.9670523"><ele>36.5</ele><time>2026-04-19T10:21:18Z</time></trkpt><trkpt lat="43.7692388" lon="12.9671264"><ele>37.0</ele><time>2026-04-19T10:21:19Z</time></trkpt><trkpt lat="43.7691698" lon="12.9671991"><ele>37.5</ele><time>2026-04-19T10:21:20Z</time></trkpt><trkpt lat="43.769105" lon="12.9672714"><ele>38.0</ele><time>2026-04-19T10:21:21Z</time></trkpt><trkpt lat="43.7690413" lon="12.9673388"><ele>38.5</ele><time>2026-04-19T10:21:22Z</time></trkpt><trkpt lat="43.7689761" lon="12.9674052"><ele>39.0</ele><time>2026-04-19T10:21:23Z</time></trkpt><trkpt lat="43.7689129" lon="12.9674678"><ele>39.0</ele><time>2026-04-19T10:21:24Z</time></trkpt><trkpt lat="43.7688515" lon="12.9675231"><ele>39.0</ele><time>2026-04-19T10:21:25Z</time></trkpt><trkpt lat="43.7687859" lon="12.9675802"><ele>39.0</ele><time>2026-04-19T10:21:26Z</time></trkpt><trkpt lat="43.7686735" lon="12.9676399"><ele>39.0</ele><time>2026-04-19T10:21:28Z</time></trkpt><trkpt lat="43.7685588" lon="12.9676069"><ele>39.0</ele><time>2026-04-19T10:21:30Z</time></trkpt><trkpt lat="43.7685078" lon="12.9675481"><ele>38.833333333333336</ele><time>2026-04-19T10:21:31Z</time></trkpt><trkpt lat="43.7684564" lon="12.9674701"><ele>38.666666666666664</ele><time>2026-04-19T10:21:32Z</time></trkpt><trkpt lat="43.7684015" lon="12.9673836"><ele>38.5</ele><time>2026-04-19T10:21:33Z</time></trkpt><trkpt lat="43.7683429" lon="12.9672948"><ele>38.33333333333333</ele><time>2026-04-19T10:21:34Z</time></trkpt><trkpt lat="43.7682863" lon="12.967202"><ele>38.166666666666664</ele><time>2026-04-19T10:21:35Z</time></trkpt><trkpt lat="43.7682278" lon="12.9671092"><ele>38.0</ele><time>2026-04-19T10:21:36Z</time></trkpt><trkpt lat="43.7681685" lon="12.967018"><ele>38.0</ele><time>2026-04-19T10:21:37Z</time></trkpt><trkpt lat="43.768105" lon="12.9669246"><ele>38.0</ele><time>2026-04-19T10:21:38Z</time></trkpt><trkpt lat="43.7680403" lon="12.9668279"><ele>38.0</ele><time>2026-04-19T10:21:39Z</time></trkpt><trkpt lat="43.7679832" lon="12.9667305"><ele>38.0</ele><time>2026-04-19T10:21:40Z</time></trkpt><trkpt lat="43.7679348" lon="12.9666333"><ele>38.0</ele><time>2026-04-19T10:21:41Z</time></trkpt><trkpt lat="43.7678915" lon="12.9665353"><ele>38.0</ele><time>2026-04-19T10:21:42Z</time></trkpt><trkpt lat="43.7678533" lon="12.9664473"><ele>37.8</ele><time>2026-04-19T10:21:43Z</time></trkpt><trkpt lat="43.7677816" lon="12.9663365"><ele>37.599999999999994</ele><time>2026-04-19T10:21:45Z</time></trkpt><trkpt lat="43.7676889" lon="12.9663308"><ele>37.400000000000006</ele><time>2026-04-19T10:21:47Z</time></trkpt><trkpt lat="43.7676304" lon="12.9663773"><ele>37.2</ele><time>2026-04-19T10:21:48Z</time></trkpt><trkpt lat="43.7675682" lon="12.9664484"><ele>37.0</ele><time>2026-04-19T10:21:49Z</time></trkpt><trkpt lat="43.7674763" lon="12.9665737"><ele>37.25</ele><time>2026-04-19T10:21:50Z</time></trkpt><trkpt lat="43.7673732" lon="12.9667081"><ele>37.5</ele><time>2026-04-19T10:21:51Z</time></trkpt><trkpt lat="43.7672639" lon="12.9668409"><ele>37.75</ele><time>2026-04-19T10:21:52Z</time></trkpt><trkpt lat="43.7671505" lon="12.9669859"><ele>38.0</ele><time>2026-04-19T10:21:53Z</time></trkpt><trkpt lat="43.7670294" lon="12.9671392"><ele>38.0</ele><time>2026-04-19T10:21:54Z</time></trkpt><trkpt lat="43.7668977" lon="12.9673025"><ele>38.0</ele><time>2026-04-19T10:21:55Z</time></trkpt><trkpt lat="43.7667663" lon="12.9674636"><ele>38.0</ele><time>2026-04-19T10:21:56Z</time></trkpt><trkpt lat="43.7666457" lon="12.9676146"><ele>36.75</ele><time>2026-04-19T10:21:57Z</time></trkpt><trkpt lat="43.7665378" lon="12.9677528"><ele>35.5</ele><time>2026-04-19T10:21:58Z</time></trkpt><trkpt lat="43.7664372" lon="12.9678844"><ele>34.25</ele><time>2026-04-19T10:21:59Z</time></trkpt><trkpt lat="43.7663409" lon="12.9680063"><ele>33.0</ele><time>2026-04-19T10:22:00Z</time></trkpt><trkpt lat="43.7662461" lon="12.9681102"><ele>33.0</ele><time>2026-04-19T10:22:01Z</time></trkpt><trkpt lat="43.7661728" lon="12.9681992"><ele>33.0</ele><time>2026-04-19T10:22:02Z</time></trkpt><trkpt lat="43.7661088" lon="12.9682734"><ele>33.0</ele><time>2026-04-19T10:22:03Z</time></trkpt><trkpt lat="43.7660278" lon="12.9683596"><ele>33.0</ele><time>2026-04-19T10:22:05Z</time></trkpt><trkpt lat="43.7659476" lon="12.9683562"><ele>33.0</ele><time>2026-04-19T10:22:12Z</time></trkpt><trkpt lat="43.7658917" lon="12.9683021"><ele>33.0</ele><time>2026-04-19T10:22:13Z</time></trkpt><trkpt lat="43.7658284" lon="12.9682016"><ele>32.75</ele><time>2026-04-19T10:22:14Z</time></trkpt><trkpt lat="43.76576" lon="12.968091"><ele>32.5</ele><time>2026-04-19T10:22:15Z</time></trkpt><trkpt lat="43.7656802" lon="12.9679699"><ele>32.25</ele><time>2026-04-19T10:22:16Z</time></trkpt><trkpt lat="43.7655858" lon="12.9678344"><ele>32.0</ele><time>2026-04-19T10:22:17Z</time></trkpt><trkpt lat="43.7654772" lon="12.9676908"><ele>32.0</ele><time>2026-04-19T10:22:18Z</time></trkpt><trkpt lat="43.765361" lon="12.967548"><ele>32.0</ele><time>2026-04-19T10:22:19Z</time></trkpt><trkpt lat="43.7652334" lon="12.9674292"><ele>32.0</ele><time>2026-04-19T10:22:20Z</time></trkpt><trkpt lat="43.7650857" lon="12.9673325"><ele>31.333333333333332</ele><time>2026-04-19T10:22:21Z</time></trkpt><trkpt lat="43.7649239" lon="12.9672686"><ele>30.666666666666664</ele><time>2026-04-19T10:22:22Z</time></trkpt><trkpt lat="43.7647488" lon="12.9672435"><ele>30.0</ele><time>2026-04-19T10:22:23Z</time></trkpt><trkpt lat="43.7645591" lon="12.9672598"><ele>29.666666666666664</ele><time>2026-04-19T10:22:24Z</time></trkpt><trkpt lat="43.7643602" lon="12.9672818"><ele>29.333333333333332</ele><time>2026-04-19T10:22:25Z</time></trkpt><trkpt lat="43.7641641" lon="12.9673018"><ele>29.0</ele><time>2026-04-19T10:22:26Z</time></trkpt><trkpt lat="43.7639668" lon="12.9673249"><ele>29.0</ele><time>2026-04-19T10:22:27Z</time></trkpt><trkpt lat="43.7637672" lon="12.9673484"><ele>29.0</ele><time>2026-04-19T10:22:28Z</time></trkpt><trkpt lat="43.763567" lon="12.9673694"><ele>29.0</ele><time>2026-04-19T10:22:29Z</time></trkpt><trkpt lat="43.7633667" lon="12.9673906"><ele>28.666666666666664</ele><time>2026-04-19T10:22:30Z</time></trkpt><trkpt lat="43.7631614" lon="12.9674137"><ele>28.333333333333336</ele><time>2026-04-19T10:22:31Z</time></trkpt><trkpt lat="43.7629584" lon="12.9674368"><ele>28.0</ele><time>2026-04-19T10:22:32Z</time></trkpt><trkpt lat="43.7627473" lon="12.967459"><ele>27.666666666666668</ele><time>2026-04-19T10:22:32.999Z</time></trkpt><trkpt lat="43.7625385" lon="12.9674837"><ele>27.333333333333336</ele><time>2026-04-19T10:22:34Z</time></trkpt><trkpt lat="43.762329" lon="12.9675075"><ele>27.0</ele><time>2026-04-19T10:22:35Z</time></trkpt><trkpt lat="43.7621231" lon="12.9675318"><ele>27.0</ele><time>2026-04-19T10:22:36Z</time></trkpt><trkpt lat="43.7619158" lon="12.9675475"><ele>27.0</ele><time>2026-04-19T10:22:37Z</time></trkpt><trkpt lat="43.7617084" lon="12.9675673"><ele>27.0</ele><time>2026-04-19T10:22:38Z</time></trkpt><trkpt lat="43.7615025" lon="12.9675952"><ele>28.666666666666664</ele><time>2026-04-19T10:22:39Z</time></trkpt><trkpt lat="43.7612973" lon="12.9676162"><ele>30.333333333333332</ele><time>2026-04-19T10:22:40Z</time></trkpt><trkpt lat="43.7610908" lon="12.9676389"><ele>32.0</ele><time>2026-04-19T10:22:41Z</time></trkpt><trkpt lat="43.7608821" lon="12.9676631"><ele>32.0</ele><time>2026-04-19T10:22:42Z</time></trkpt><trkpt lat="43.7606745" lon="12.9676942"><ele>32.0</ele><time>2026-04-19T10:22:43Z</time></trkpt><trkpt lat="43.7604652" lon="12.9677215"><ele>32.0</ele><time>2026-04-19T10:22:44Z</time></trkpt><trkpt lat="43.7602549" lon="12.9677449"><ele>31.666666666666664</ele><time>2026-04-19T10:22:45Z</time></trkpt><trkpt lat="43.7600458" lon="12.9677652"><ele>31.333333333333336</ele><time>2026-04-19T10:22:46Z</time></trkpt><trkpt lat="43.7598321" lon="12.9677872"><ele>31.0</ele><time>2026-04-19T10:22:47Z</time></trkpt><trkpt lat="43.7596228" lon="12.9678161"><ele>31.0</ele><time>2026-04-19T10:22:48Z</time></trkpt><trkpt lat="43.7594172" lon="12.9678404"><ele>31.0</ele><time>2026-04-19T10:22:49Z</time></trkpt><trkpt lat="43.7592187" lon="12.9678595"><ele>31.0</ele><time>2026-04-19T10:22:50Z</time></trkpt><trkpt lat="43.7590294" lon="12.9678709"><ele>31.333333333333336</ele><time>2026-04-19T10:22:51Z</time></trkpt><trkpt lat="43.7588385" lon="12.9678691"><ele>31.666666666666664</ele><time>2026-04-19T10:22:52Z</time></trkpt><trkpt lat="43.758646" lon="12.9678374"><ele>32.0</ele><time>2026-04-19T10:22:53Z</time></trkpt><trkpt lat="43.7584537" lon="12.9677894"><ele>32.0</ele><time>2026-04-19T10:22:54Z</time></trkpt><trkpt lat="43.7582659" lon="12.9677213"><ele>32.0</ele><time>2026-04-19T10:22:55Z</time></trkpt><trkpt lat="43.758084" lon="12.9676423"><ele>32.0</ele><time>2026-04-19T10:22:55.999Z</time></trkpt><trkpt lat="43.7579044" lon="12.9675651"><ele>31.333333333333332</ele><time>2026-04-19T10:22:57Z</time></trkpt><trkpt lat="43.7577353" lon="12.9674916"><ele>30.666666666666664</ele><time>2026-04-19T10:22:58Z</time></trkpt><trkpt lat="43.7575731" lon="12.9674214"><ele>30.0</ele><time>2026-04-19T10:22:59Z</time></trkpt><trkpt lat="43.7574229" lon="12.9673532"><ele>31.0</ele><time>2026-04-19T10:23:00Z</time></trkpt><trkpt lat="43.7572832" lon="12.9672904"><ele>32.0</ele><time>2026-04-19T10:23:01Z</time></trkpt><trkpt lat="43.7571515" lon="12.9672311"><ele>33.0</ele><time>2026-04-19T10:23:02Z</time></trkpt><trkpt lat="43.757028" lon="12.9671772"><ele>34.0</ele><time>2026-04-19T10:23:03Z</time></trkpt><trkpt lat="43.7569076" lon="12.9671485"><ele>35.25</ele><time>2026-04-19T10:23:03.999Z</time></trkpt><trkpt lat="43.7567831" lon="12.9671504"><ele>36.5</ele><time>2026-04-19T10:23:05Z</time></trkpt><trkpt lat="43.7566616" lon="12.9671943"><ele>37.75</ele><time>2026-04-19T10:23:06Z</time></trkpt><trkpt lat="43.7565519" lon="12.9672795"><ele>39.0</ele><time>2026-04-19T10:23:07Z</time></trkpt><trkpt lat="43.7564606" lon="12.9673951"><ele>39.0</ele><time>2026-04-19T10:23:08Z</time></trkpt><trkpt lat="43.7563772" lon="12.9675181"><ele>39.0</ele><time>2026-04-19T10:23:09Z</time></trkpt><trkpt lat="43.7563044" lon="12.9676377"><ele>39.0</ele><time>2026-04-19T10:23:10Z</time></trkpt><trkpt lat="43.7562305" lon="12.9677634"><ele>39.0</ele><time>2026-04-19T10:23:11Z</time></trkpt><trkpt lat="43.7561586" lon="12.9678874"><ele>40.5</ele><time>2026-04-19T10:23:12Z</time></trkpt><trkpt lat="43.7560892" lon="12.9680196"><ele>42.0</ele><time>2026-04-19T10:23:13Z</time></trkpt><trkpt lat="43.7560139" lon="12.9681511"><ele>43.5</ele><time>2026-04-19T10:23:14Z</time></trkpt><trkpt lat="43.7559389" lon="12.9682745"><ele>45.0</ele><time>2026-04-19T10:23:15Z</time></trkpt><trkpt lat="43.7558652" lon="12.9684076"><ele>47.75</ele><time>2026-04-19T10:23:16Z</time></trkpt><trkpt lat="43.7557865" lon="12.9685477"><ele>50.5</ele><time>2026-04-19T10:23:17Z</time></trkpt><trkpt lat="43.7557038" lon="12.9686872"><ele>53.25</ele><time>2026-04-19T10:23:18Z</time></trkpt><trkpt lat="43.7556217" lon="12.9688298"><ele>56.0</ele><time>2026-04-19T10:23:19Z</time></trkpt><trkpt lat="43.7555424" lon="12.9689693"><ele>56.0</ele><time>2026-04-19T10:23:20Z</time></trkpt><trkpt lat="43.7554848" lon="12.969123"><ele>56.0</ele><time>2026-04-19T10:23:21Z</time></trkpt><trkpt lat="43.7554448" lon="12.9692925"><ele>56.0</ele><time>2026-04-19T10:23:22Z</time></trkpt><trkpt lat="43.7554393" lon="12.969474"><ele>56.0</ele><time>2026-04-19T10:23:23Z</time></trkpt><trkpt lat="43.755461" lon="12.969661"><ele>56.5</ele><time>2026-04-19T10:23:24Z</time></trkpt><trkpt lat="43.7555118" lon="12.9698285"><ele>57.0</ele><time>2026-04-19T10:23:25Z</time></trkpt><trkpt lat="43.7555964" lon="12.9699919"><ele>57.5</ele><time>2026-04-19T10:23:26Z</time></trkpt><trkpt lat="43.7556964" lon="12.9701415"><ele>58.0</ele><time>2026-04-19T10:23:27Z</time></trkpt><trkpt lat="43.7558007" lon="12.9702988"><ele>57.666666666666664</ele><time>2026-04-19T10:23:28Z</time></trkpt><trkpt lat="43.7559045" lon="12.9704545"><ele>57.33333333333333</ele><time>2026-04-19T10:23:29Z</time></trkpt><trkpt lat="43.7560051" lon="12.9706074"><ele>57.0</ele><time>2026-04-19T10:23:30Z</time></trkpt><trkpt lat="43.7561084" lon="12.9707634"><ele>58.0</ele><time>2026-04-19T10:23:31Z</time></trkpt><trkpt lat="43.7562086" lon="12.9709135"><ele>59.0</ele><time>2026-04-19T10:23:32Z</time></trkpt><trkpt lat="43.7563059" lon="12.9710678"><ele>60.0</ele><time>2026-04-19T10:23:33Z</time></trkpt><trkpt lat="43.7564033" lon="12.9712266"><ele>61.0</ele><time>2026-04-19T10:23:34Z</time></trkpt><trkpt lat="43.7564948" lon="12.9713844"><ele>61.0</ele><time>2026-04-19T10:23:35Z</time></trkpt><trkpt lat="43.7565845" lon="12.9715449"><ele>61.0</ele><time>2026-04-19T10:23:36Z</time></trkpt><trkpt lat="43.756679" lon="12.971706"><ele>61.0</ele><time>2026-04-19T10:23:37Z</time></trkpt><trkpt lat="43.756771" lon="12.9718709"><ele>61.0</ele><time>2026-04-19T10:23:38Z</time></trkpt><trkpt lat="43.756862" lon="12.9720373"><ele>61.25</ele><time>2026-04-19T10:23:39Z</time></trkpt><trkpt lat="43.7569522" lon="12.9722007"><ele>61.5</ele><time>2026-04-19T10:23:40Z</time></trkpt><trkpt lat="43.7570393" lon="12.9723671"><ele>61.75</ele><time>2026-04-19T10:23:41Z</time></trkpt><trkpt lat="43.7571266" lon="12.9725287"><ele>62.0</ele><time>2026-04-19T10:23:42Z</time></trkpt><trkpt lat="43.7572125" lon="12.9726837"><ele>64.0</ele><time>2026-04-19T10:23:43Z</time></trkpt><trkpt lat="43.7572969" lon="12.9728309"><ele>66.0</ele><time>2026-04-19T10:23:44Z</time></trkpt><trkpt lat="43.7573795" lon="12.972974"><ele>68.0</ele><time>2026-04-19T10:23:45Z</time></trkpt><trkpt lat="43.7574495" lon="12.9731066"><ele>70.0</ele><time>2026-04-19T10:23:46Z</time></trkpt><trkpt lat="43.757502" lon="12.9732413"><ele>71.4</ele><time>2026-04-19T10:23:47Z</time></trkpt><trkpt lat="43.7575214" lon="12.9733872"><ele>72.8</ele><time>2026-04-19T10:23:48Z</time></trkpt><trkpt lat="43.7574989" lon="12.9735362"><ele>74.2</ele><time>2026-04-19T10:23:49Z</time></trkpt><trkpt lat="43.7574632" lon="12.9736783"><ele>75.6</ele><time>2026-04-19T10:23:50Z</time></trkpt><trkpt lat="43.7574315" lon="12.9738084"><ele>77.0</ele><time>2026-04-19T10:23:51Z</time></trkpt><trkpt lat="43.7573835" lon="12.9738911"><ele>77.0</ele><time>2026-04-19T10:23:52Z</time></trkpt><trkpt lat="43.7571417" lon="12.9736769"><ele>77.0</ele><time>2026-04-19T10:23:53Z</time></trkpt><trkpt lat="43.7570044" lon="12.9735935"><ele>77.0</ele><time>2026-04-19T10:23:53.999Z</time></trkpt><trkpt lat="43.7568883" lon="12.9735152"><ele>77.5</ele><time>2026-04-19T10:23:55Z</time></trkpt><trkpt lat="43.7567718" lon="12.9734494"><ele>78.0</ele><time>2026-04-19T10:23:56Z</time></trkpt><trkpt lat="43.7566615" lon="12.9733711"><ele>78.5</ele><time>2026-04-19T10:23:57Z</time></trkpt><trkpt lat="43.7565538" lon="12.9732882"><ele>79.0</ele><time>2026-04-19T10:23:58Z</time></trkpt><trkpt lat="43.7564418" lon="12.9732078"><ele>79.0</ele><time>2026-04-19T10:23:59Z</time></trkpt><trkpt lat="43.7563217" lon="12.9731222"><ele>79.0</ele><time>2026-04-19T10:24:00Z</time></trkpt><trkpt lat="43.7561927" lon="12.973031"><ele>79.0</ele><time>2026-04-19T10:24:01Z</time></trkpt><trkpt lat="43.7560522" lon="12.9729406"><ele>79.0</ele><time>2026-04-19T10:24:02Z</time></trkpt><trkpt lat="43.7559016" lon="12.972854"><ele>83.33333333333333</ele><time>2026-04-19T10:24:03Z</time></trkpt><trkpt lat="43.7557433" lon="12.9727748"><ele>87.66666666666667</ele><time>2026-04-19T10:24:04Z</time></trkpt><trkpt lat="43.7555782" lon="12.9727019"><ele>92.0</ele><time>2026-04-19T10:24:05Z</time></trkpt><trkpt lat="43.7554091" lon="12.9726271"><ele>92.0</ele><time>2026-04-19T10:24:06Z</time></trkpt><trkpt lat="43.7552368" lon="12.9725486"><ele>92.0</ele><time>2026-04-19T10:24:07Z</time></trkpt><trkpt lat="43.7550714" lon="12.9724772"><ele>92.0</ele><time>2026-04-19T10:24:08Z</time></trkpt><trkpt lat="43.7549108" lon="12.9724098"><ele>92.33333333333334</ele><time>2026-04-19T10:24:09Z</time></trkpt><trkpt lat="43.7547509" lon="12.9723418"><ele>92.66666666666667</ele><time>2026-04-19T10:24:10Z</time></trkpt><trkpt lat="43.754596" lon="12.9722714"><ele>93.0</ele><time>2026-04-19T10:24:11Z</time></trkpt><trkpt lat="43.7544468" lon="12.9722038"><ele>95.75</ele><time>2026-04-19T10:24:12Z</time></trkpt><trkpt lat="43.7543028" lon="12.9721391"><ele>98.5</ele><time>2026-04-19T10:24:12.999Z</time></trkpt><trkpt lat="43.7541629" lon="12.9720827"><ele>101.25</ele><time>2026-04-19T10:24:14Z</time></trkpt><trkpt lat="43.7540203" lon="12.972031"><ele>104.0</ele><time>2026-04-19T10:24:15Z</time></trkpt><trkpt lat="43.7538749" lon="12.9719879"><ele>104.0</ele><time>2026-04-19T10:24:16Z</time></trkpt><trkpt lat="43.7537281" lon="12.9719565"><ele>104.0</ele><time>2026-04-19T10:24:17Z</time></trkpt><trkpt lat="43.7535825" lon="12.9719528"><ele>104.0</ele><time>2026-04-19T10:24:18Z</time></trkpt><trkpt lat="43.7534328" lon="12.971952"><ele>104.0</ele><time>2026-04-19T10:24:19Z</time></trkpt><trkpt lat="43.7532838" lon="12.9719563"><ele>106.25</ele><time>2026-04-19T10:24:20Z</time></trkpt><trkpt lat="43.7531355" lon="12.9719628"><ele>108.5</ele><time>2026-04-19T10:24:21Z</time></trkpt><trkpt lat="43.7529895" lon="12.9719705"><ele>110.75</ele><time>2026-04-19T10:24:22Z</time></trkpt><trkpt lat="43.7528467" lon="12.9719596"><ele>113.0</ele><time>2026-04-19T10:24:22.999Z</time></trkpt><trkpt lat="43.7527133" lon="12.9719082"><ele>112.25</ele><time>2026-04-19T10:24:24Z</time></trkpt><trkpt lat="43.7525839" lon="12.9718543"><ele>111.5</ele><time>2026-04-19T10:24:25Z</time></trkpt><trkpt lat="43.7524568" lon="12.9717831"><ele>110.75</ele><time>2026-04-19T10:24:26Z</time></trkpt><trkpt lat="43.7523327" lon="12.9717114"><ele>110.0</ele><time>2026-04-19T10:24:27Z</time></trkpt><trkpt lat="43.7522036" lon="12.9716378"><ele>111.75</ele><time>2026-04-19T10:24:28Z</time></trkpt><trkpt lat="43.7520733" lon="12.9715631"><ele>113.5</ele><time>2026-04-19T10:24:29Z</time></trkpt><trkpt lat="43.7519368" lon="12.9714853"><ele>115.25</ele><time>2026-04-19T10:24:30Z</time></trkpt><trkpt lat="43.751798" lon="12.9714104"><ele>117.0</ele><time>2026-04-19T10:24:31Z</time></trkpt><trkpt lat="43.7516564" lon="12.9713334"><ele>117.0</ele><time>2026-04-19T10:24:32Z</time></trkpt><trkpt lat="43.7515096" lon="12.9712518"><ele>117.0</ele><time>2026-04-19T10:24:33Z</time></trkpt><trkpt lat="43.75136" lon="12.9711654"><ele>117.0</ele><time>2026-04-19T10:24:34Z</time></trkpt><trkpt lat="43.7512017" lon="12.9710866"><ele>117.33333333333334</ele><time>2026-04-19T10:24:35Z</time></trkpt><trkpt lat="43.7510388" lon="12.97102"><ele>117.66666666666667</ele><time>2026-04-19T10:24:36Z</time></trkpt><trkpt lat="43.7508684" lon="12.9709707"><ele>118.0</ele><time>2026-04-19T10:24:37Z</time></trkpt><trkpt lat="43.7507024" lon="12.9709302"><ele>118.0</ele><time>2026-04-19T10:24:38Z</time></trkpt><trkpt lat="43.7505298" lon="12.9708956"><ele>118.0</ele><time>2026-04-19T10:24:39Z</time></trkpt><trkpt lat="43.7503584" lon="12.9708599"><ele>118.0</ele><time>2026-04-19T10:24:40Z</time></trkpt><trkpt lat="43.7501858" lon="12.9708274"><ele>119.0</ele><time>2026-04-19T10:24:41Z</time></trkpt><trkpt lat="43.7500123" lon="12.9707974"><ele>120.0</ele><time>2026-04-19T10:24:42Z</time></trkpt><trkpt lat="43.7498412" lon="12.9707645"><ele>121.0</ele><time>2026-04-19T10:24:43Z</time></trkpt><trkpt lat="43.7496689" lon="12.9707255"><ele>121.0</ele><time>2026-04-19T10:24:44Z</time></trkpt><trkpt lat="43.7494988" lon="12.97068"><ele>121.0</ele><time>2026-04-19T10:24:45Z</time></trkpt><trkpt lat="43.749331" lon="12.9706206"><ele>121.0</ele><time>2026-04-19T10:24:46Z</time></trkpt><trkpt lat="43.7491611" lon="12.9705505"><ele>122.33333333333334</ele><time>2026-04-19T10:24:47Z</time></trkpt><trkpt lat="43.7489947" lon="12.9704779"><ele>123.66666666666666</ele><time>2026-04-19T10:24:48Z</time></trkpt><trkpt lat="43.7488273" lon="12.9703975"><ele>125.0</ele><time>2026-04-19T10:24:49Z</time></trkpt><trkpt lat="43.7486589" lon="12.9703155"><ele>125.33333333333333</ele><time>2026-04-19T10:24:50Z</time></trkpt><trkpt lat="43.7484897" lon="12.9702282"><ele>125.66666666666666</ele><time>2026-04-19T10:24:51Z</time></trkpt><trkpt lat="43.7483231" lon="12.9701427"><ele>126.0</ele><time>2026-04-19T10:24:52Z</time></trkpt><trkpt lat="43.748148" lon="12.9700524"><ele>127.0</ele><time>2026-04-19T10:24:53Z</time></trkpt><trkpt lat="43.7479711" lon="12.9699636"><ele>128.0</ele><time>2026-04-19T10:24:54Z</time></trkpt><trkpt lat="43.7477911" lon="12.9698811"><ele>129.0</ele><time>2026-04-19T10:24:55Z</time></trkpt><trkpt lat="43.7476073" lon="12.9698098"><ele>130.33333333333334</ele><time>2026-04-19T10:24:56Z</time></trkpt><trkpt lat="43.7474229" lon="12.9697407"><ele>131.66666666666669</ele><time>2026-04-19T10:24:57Z</time></trkpt><trkpt lat="43.7472373" lon="12.969678"><ele>133.0</ele><time>2026-04-19T10:24:58Z</time></trkpt><trkpt lat="43.7470547" lon="12.9696192"><ele>135.0</ele><time>2026-04-19T10:24:58.999Z</time></trkpt><trkpt lat="43.7468718" lon="12.969558"><ele>137.0</ele><time>2026-04-19T10:25:00Z</time></trkpt><trkpt lat="43.7466896" lon="12.9695025"><ele>139.0</ele><time>2026-04-19T10:25:01Z</time></trkpt><trkpt lat="43.7465068" lon="12.9694418"><ele>139.0</ele><time>2026-04-19T10:25:02Z</time></trkpt><trkpt lat="43.7463278" lon="12.9693869"><ele>139.0</ele><time>2026-04-19T10:25:03Z</time></trkpt><trkpt lat="43.7461464" lon="12.9693296"><ele>139.0</ele><time>2026-04-19T10:25:04Z</time></trkpt><trkpt lat="43.7459673" lon="12.9692699"><ele>141.0</ele><time>2026-04-19T10:25:05Z</time></trkpt><trkpt lat="43.7457888" lon="12.9692138"><ele>143.0</ele><time>2026-04-19T10:25:06Z</time></trkpt><trkpt lat="43.7456077" lon="12.9691614"><ele>145.0</ele><time>2026-04-19T10:25:07Z</time></trkpt><trkpt lat="43.7454286" lon="12.9691043"><ele>147.66666666666669</ele><time>2026-04-19T10:25:08Z</time></trkpt><trkpt lat="43.7452534" lon="12.9690487"><ele>150.33333333333334</ele><time>2026-04-19T10:25:09Z</time></trkpt><trkpt lat="43.7450828" lon="12.9689858"><ele>153.0</ele><time>2026-04-19T10:25:10Z</time></trkpt><trkpt lat="43.7449188" lon="12.9689361"><ele>156.66666666666666</ele><time>2026-04-19T10:25:10.999Z</time></trkpt><trkpt lat="43.7447619" lon="12.9689102"><ele>160.33333333333331</ele><time>2026-04-19T10:25:12Z</time></trkpt><trkpt lat="43.744606" lon="12.9689264"><ele>164.0</ele><time>2026-04-19T10:25:13Z</time></trkpt><trkpt lat="43.7444627" lon="12.9689847"><ele>165.66666666666666</ele><time>2026-04-19T10:25:14Z</time></trkpt><trkpt lat="43.7443279" lon="12.9690788"><ele>167.33333333333334</ele><time>2026-04-19T10:25:15Z</time></trkpt><trkpt lat="43.7441936" lon="12.9691836"><ele>169.0</ele><time>2026-04-19T10:25:16Z</time></trkpt><trkpt lat="43.7440558" lon="12.9692975"><ele>169.0</ele><time>2026-04-19T10:25:17Z</time></trkpt><trkpt lat="43.7439342" lon="12.9694284"><ele>169.0</ele><time>2026-04-19T10:25:18Z</time></trkpt><trkpt lat="43.7438374" lon="12.9695851"><ele>169.0</ele><time>2026-04-19T10:25:18.999Z</time></trkpt><trkpt lat="43.7437647" lon="12.9697688"><ele>169.0</ele><time>2026-04-19T10:25:20Z</time></trkpt><trkpt lat="43.7437054" lon="12.969967"><ele>169.0</ele><time>2026-04-19T10:25:21Z</time></trkpt><trkpt lat="43.7436595" lon="12.9701757"><ele>169.0</ele><time>2026-04-19T10:25:22Z</time></trkpt><trkpt lat="43.7436267" lon="12.9703789"><ele>167.25</ele><time>2026-04-19T10:25:23Z</time></trkpt><trkpt lat="43.7436008" lon="12.970582"><ele>165.5</ele><time>2026-04-19T10:25:24Z</time></trkpt><trkpt lat="43.7435834" lon="12.9707833"><ele>163.75</ele><time>2026-04-19T10:25:25Z</time></trkpt><trkpt lat="43.7435712" lon="12.9709929"><ele>162.0</ele><time>2026-04-19T10:25:26Z</time></trkpt><trkpt lat="43.7435624" lon="12.9712021"><ele>162.0</ele><time>2026-04-19T10:25:27Z</time></trkpt><trkpt lat="43.743558" lon="12.9714093"><ele>162.0</ele><time>2026-04-19T10:25:28Z</time></trkpt><trkpt lat="43.7435499" lon="12.9716176"><ele>162.0</ele><time>2026-04-19T10:25:29Z</time></trkpt><trkpt lat="43.7435386" lon="12.9718238"><ele>165.75</ele><time>2026-04-19T10:25:30Z</time></trkpt><trkpt lat="43.7435229" lon="12.972025"><ele>169.5</ele><time>2026-04-19T10:25:31Z</time></trkpt><trkpt lat="43.7435053" lon="12.9722185"><ele>173.25</ele><time>2026-04-19T10:25:32Z</time></trkpt><trkpt lat="43.74349" lon="12.9724148"><ele>177.0</ele><time>2026-04-19T10:25:33Z</time></trkpt><trkpt lat="43.7434727" lon="12.9726028"><ele>177.0</ele><time>2026-04-19T10:25:34Z</time></trkpt><trkpt lat="43.7434537" lon="12.9727845"><ele>177.0</ele><time>2026-04-19T10:25:35Z</time></trkpt><trkpt lat="43.7434315" lon="12.9729651"><ele>177.0</ele><time>2026-04-19T10:25:36Z</time></trkpt><trkpt lat="43.7433962" lon="12.9731331"><ele>177.0</ele><time>2026-04-19T10:25:37Z</time></trkpt><trkpt lat="43.743348" lon="12.9732913"><ele>175.8</ele><time>2026-04-19T10:25:37.999Z</time></trkpt><trkpt lat="43.7432868" lon="12.9734366"><ele>174.6</ele><time>2026-04-19T10:25:39Z</time></trkpt><trkpt lat="43.743217" lon="12.9735622"><ele>173.4</ele><time>2026-04-19T10:25:40Z</time></trkpt><trkpt lat="43.7431445" lon="12.9736681"><ele>172.20000000000002</ele><time>2026-04-19T10:25:41Z</time></trkpt><trkpt lat="43.7430677" lon="12.9737529"><ele>171.0</ele><time>2026-04-19T10:25:42Z</time></trkpt><trkpt lat="43.7429929" lon="12.9738154"><ele>171.0</ele><time>2026-04-19T10:25:43Z</time></trkpt><trkpt lat="43.7429167" lon="12.9738536"><ele>171.0</ele><time>2026-04-19T10:25:43.999Z</time></trkpt><trkpt lat="43.7428448" lon="12.9738806"><ele>171.0</ele><time>2026-04-19T10:25:45Z</time></trkpt><trkpt lat="43.7427855" lon="12.9739104"><ele>171.0</ele><time>2026-04-19T10:25:46Z</time></trkpt><trkpt lat="43.7427034" lon="12.973982"><ele>171.0</ele><time>2026-04-19T10:25:48Z</time></trkpt><trkpt lat="43.7426573" lon="12.9740729"><ele>171.0</ele><time>2026-04-19T10:25:51Z</time></trkpt><trkpt lat="43.7426486" lon="12.9741818"><ele>170.8</ele><time>2026-04-19T10:25:53Z</time></trkpt><trkpt lat="43.742676" lon="12.9742656"><ele>170.60000000000002</ele><time>2026-04-19T10:25:54Z</time></trkpt><trkpt lat="43.7427178" lon="12.9743665"><ele>170.4</ele><time>2026-04-19T10:25:55Z</time></trkpt><trkpt lat="43.7427638" lon="12.974478"><ele>170.2</ele><time>2026-04-19T10:25:56Z</time></trkpt><trkpt lat="43.742818" lon="12.9746192"><ele>170.0</ele><time>2026-04-19T10:25:57Z</time></trkpt><trkpt lat="43.7428787" lon="12.9747691"><ele>170.0</ele><time>2026-04-19T10:25:58Z</time></trkpt><trkpt lat="43.7429363" lon="12.974919"><ele>170.0</ele><time>2026-04-19T10:25:59Z</time></trkpt><trkpt lat="43.7430011" lon="12.9750755"><ele>170.0</ele><time>2026-04-19T10:26:00Z</time></trkpt><trkpt lat="43.7430644" lon="12.9752347"><ele>170.0</ele><time>2026-04-19T10:26:01Z</time></trkpt><trkpt lat="43.7431338" lon="12.9754017"><ele>169.5</ele><time>2026-04-19T10:26:02Z</time></trkpt><trkpt lat="43.7431945" lon="12.9755625"><ele>169.0</ele><time>2026-04-19T10:26:03Z</time></trkpt><trkpt lat="43.7432614" lon="12.9757276"><ele>168.5</ele><time>2026-04-19T10:26:04Z</time></trkpt><trkpt lat="43.7433231" lon="12.9758811"><ele>168.0</ele><time>2026-04-19T10:26:05Z</time></trkpt><trkpt lat="43.74338" lon="12.976025"><ele>167.5</ele><time>2026-04-19T10:26:05.999Z</time></trkpt><trkpt lat="43.7434337" lon="12.9761661"><ele>167.0</ele><time>2026-04-19T10:26:07Z</time></trkpt><trkpt lat="43.7434917" lon="12.9763112"><ele>166.5</ele><time>2026-04-19T10:26:08Z</time></trkpt><trkpt lat="43.7435432" lon="12.9764559"><ele>166.0</ele><time>2026-04-19T10:26:09Z</time></trkpt><trkpt lat="43.7435976" lon="12.9766002"><ele>164.8</ele><time>2026-04-19T10:26:09.999Z</time></trkpt><trkpt lat="43.7436527" lon="12.9767409"><ele>163.60000000000002</ele><time>2026-04-19T10:26:11Z</time></trkpt><trkpt lat="43.7437007" lon="12.9768766"><ele>162.4</ele><time>2026-04-19T10:26:12Z</time></trkpt><trkpt lat="43.743748" lon="12.9770056"><ele>161.2</ele><time>2026-04-19T10:26:13Z</time></trkpt><trkpt lat="43.7437916" lon="12.977109"><ele>160.0</ele><time>2026-04-19T10:26:14Z</time></trkpt><trkpt lat="43.7438303" lon="12.977203"><ele>160.0</ele><time>2026-04-19T10:26:15Z</time></trkpt><trkpt lat="43.7438495" lon="12.9773277"><ele>160.0</ele><time>2026-04-19T10:26:17Z</time></trkpt><trkpt lat="43.7438804" lon="12.9774135"><ele>160.0</ele><time>2026-04-19T10:26:21Z</time></trkpt><trkpt lat="43.7439289" lon="12.9773307"><ele>160.0</ele><time>2026-04-19T10:26:25Z</time></trkpt><trkpt lat="43.7438551" lon="12.9771683"><ele>160.0</ele><time>2026-04-19T10:26:27Z</time></trkpt><trkpt lat="43.7438122" lon="12.9770626"><ele>160.0</ele><time>2026-04-19T10:26:28Z</time></trkpt><trkpt lat="43.7437654" lon="12.9769448"><ele>160.0</ele><time>2026-04-19T10:26:29Z</time></trkpt><trkpt lat="43.7437125" lon="12.9768074"><ele>160.0</ele><time>2026-04-19T10:26:30Z</time></trkpt><trkpt lat="43.7436493" lon="12.9766429"><ele>160.0</ele><time>2026-04-19T10:26:31Z</time></trkpt><trkpt lat="43.7435839" lon="12.9764781"><ele>161.2</ele><time>2026-04-19T10:26:32Z</time></trkpt><trkpt lat="43.7435258" lon="12.9763352"><ele>162.4</ele><time>2026-04-19T10:26:33Z</time></trkpt><trkpt lat="43.7434755" lon="12.9762055"><ele>163.60000000000002</ele><time>2026-04-19T10:26:34Z</time></trkpt><trkpt lat="43.7434312" lon="12.9760969"><ele>164.8</ele><time>2026-04-19T10:26:35Z</time></trkpt><trkpt lat="43.7433956" lon="12.9759975"><ele>166.0</ele><time>2026-04-19T10:26:36Z</time></trkpt><trkpt lat="43.7433647" lon="12.9759167"><ele>166.0</ele><time>2026-04-19T10:26:37Z</time></trkpt><trkpt lat="43.7433" lon="12.975803"><ele>166.0</ele><time>2026-04-19T10:26:39Z</time></trkpt><trkpt lat="43.7432264" lon="12.9758318"><ele>166.0</ele><time>2026-04-19T10:26:42Z</time></trkpt><trkpt lat="43.7431476" lon="12.9758814"><ele>166.0</ele><time>2026-04-19T10:26:45Z</time></trkpt><trkpt lat="43.7430347" lon="12.9758985"><ele>166.0</ele><time>2026-04-19T10:26:47Z</time></trkpt><trkpt lat="43.74296" lon="12.9759178"><ele>166.0</ele><time>2026-04-19T10:26:48Z</time></trkpt><trkpt lat="43.7428804" lon="12.9759308"><ele>166.0</ele><time>2026-04-19T10:26:48.999Z</time></trkpt><trkpt lat="43.742805" lon="12.9759356"><ele>166.0</ele><time>2026-04-19T10:26:50Z</time></trkpt><trkpt lat="43.7427285" lon="12.9759405"><ele>166.0</ele><time>2026-04-19T10:26:51Z</time></trkpt><trkpt lat="43.742649" lon="12.975953"><ele>166.0</ele><time>2026-04-19T10:26:52Z</time></trkpt><trkpt lat="43.742569" lon="12.9759561"><ele>166.0</ele><time>2026-04-19T10:26:53Z</time></trkpt><trkpt lat="43.7424928" lon="12.9759731"><ele>165.66666666666669</ele><time>2026-04-19T10:26:54Z</time></trkpt><trkpt lat="43.7424208" lon="12.9759829"><ele>165.33333333333334</ele><time>2026-04-19T10:26:55Z</time></trkpt><trkpt lat="43.7423507" lon="12.9760009"><ele>165.0</ele><time>2026-04-19T10:26:56Z</time></trkpt><trkpt lat="43.7422872" lon="12.9760124"><ele>164.66666666666666</ele><time>2026-04-19T10:26:57Z</time></trkpt><trkpt lat="43.7421737" lon="12.9760303"><ele>164.33333333333331</ele><time>2026-04-19T10:26:59Z</time></trkpt><trkpt lat="43.7420787" lon="12.9760523"><ele>164.0</ele><time>2026-04-19T10:27:01Z</time></trkpt><trkpt lat="43.7420004" lon="12.9760587"><ele>164.0</ele><time>2026-04-19T10:27:03Z</time></trkpt><trkpt lat="43.741935" lon="12.9760792"><ele>164.0</ele><time>2026-04-19T10:27:05Z</time></trkpt><trkpt lat="43.7418765" lon="12.9761228"><ele>164.0</ele><time>2026-04-19T10:27:07Z</time></trkpt><trkpt lat="43.7418072" lon="12.9761866"><ele>164.0</ele><time>2026-04-19T10:27:10Z</time></trkpt><trkpt lat="43.7417294" lon="12.9762676"><ele>164.0</ele><time>2026-04-19T10:27:13Z</time></trkpt><trkpt lat="43.741667" lon="12.9763562"><ele>164.0</ele><time>2026-04-19T10:27:15Z</time></trkpt><trkpt lat="43.7415971" lon="12.9764614"><ele>162.79999999999998</ele><time>2026-04-19T10:27:17Z</time></trkpt><trkpt lat="43.7415213" lon="12.9765623"><ele>161.6</ele><time>2026-04-19T10:27:18.999Z</time></trkpt><trkpt lat="43.7414315" lon="12.976674"><ele>160.4</ele><time>2026-04-19T10:27:21Z</time></trkpt><trkpt lat="43.7413778" lon="12.9767434"><ele>159.2</ele><time>2026-04-19T10:27:22Z</time></trkpt><trkpt lat="43.7413189" lon="12.9768159"><ele>158.0</ele><time>2026-04-19T10:27:23Z</time></trkpt><trkpt lat="43.7412601" lon="12.9768908"><ele>156.33333333333331</ele><time>2026-04-19T10:27:24Z</time></trkpt><trkpt lat="43.7412005" lon="12.976968"><ele>154.66666666666666</ele><time>2026-04-19T10:27:25Z</time></trkpt><trkpt lat="43.7411396" lon="12.9770479"><ele>153.0</ele><time>2026-04-19T10:27:26Z</time></trkpt><trkpt lat="43.7410794" lon="12.9771216"><ele>151.33333333333334</ele><time>2026-04-19T10:27:27Z</time></trkpt><trkpt lat="43.7410182" lon="12.9771988"><ele>149.66666666666669</ele><time>2026-04-19T10:27:28Z</time></trkpt><trkpt lat="43.7409604" lon="12.9772738"><ele>148.0</ele><time>2026-04-19T10:27:29Z</time></trkpt><trkpt lat="43.7409004" lon="12.9773454"><ele>147.5</ele><time>2026-04-19T10:27:29.999Z</time></trkpt><trkpt lat="43.740841" lon="12.9774213"><ele>147.0</ele><time>2026-04-19T10:27:30.999Z</time></trkpt><trkpt lat="43.7407844" lon="12.9774931"><ele>146.5</ele><time>2026-04-19T10:27:32Z</time></trkpt><trkpt lat="43.740725" lon="12.9775695"><ele>146.0</ele><time>2026-04-19T10:27:33Z</time></trkpt><trkpt lat="43.740663" lon="12.977647"><ele>145.5</ele><time>2026-04-19T10:27:34Z</time></trkpt><trkpt lat="43.7406035" lon="12.9777209"><ele>145.0</ele><time>2026-04-19T10:27:35Z</time></trkpt><trkpt lat="43.7405457" lon="12.9777922"><ele>144.16666666666669</ele><time>2026-04-19T10:27:36Z</time></trkpt><trkpt lat="43.7404861" lon="12.9778656"><ele>143.33333333333334</ele><time>2026-04-19T10:27:37Z</time></trkpt><trkpt lat="43.7404309" lon="12.9779422"><ele>142.5</ele><time>2026-04-19T10:27:38Z</time></trkpt><trkpt lat="43.7403774" lon="12.9780178"><ele>141.66666666666666</ele><time>2026-04-19T10:27:39Z</time></trkpt><trkpt lat="43.7403212" lon="12.9780948"><ele>140.83333333333331</ele><time>2026-04-19T10:27:40Z</time></trkpt><trkpt lat="43.7402735" lon="12.9781685"><ele>140.0</ele><time>2026-04-19T10:27:41Z</time></trkpt><trkpt lat="43.7402227" lon="12.9782396"><ele>139.0</ele><time>2026-04-19T10:27:42Z</time></trkpt><trkpt lat="43.7401758" lon="12.9783097"><ele>138.0</ele><time>2026-04-19T10:27:43Z</time></trkpt><trkpt lat="43.7401263" lon="12.9783796"><ele>137.0</ele><time>2026-04-19T10:27:44Z</time></trkpt><trkpt lat="43.7400764" lon="12.9784557"><ele>136.0</ele><time>2026-04-19T10:27:45Z</time></trkpt><trkpt lat="43.7400285" lon="12.9785329"><ele>135.0</ele><time>2026-04-19T10:27:46Z</time></trkpt><trkpt lat="43.7399734" lon="12.9786128"><ele>134.0</ele><time>2026-04-19T10:27:47Z</time></trkpt><trkpt lat="43.7399176" lon="12.9786915"><ele>133.0</ele><time>2026-04-19T10:27:48Z</time></trkpt><trkpt lat="43.7398617" lon="12.9787675"><ele>132.66666666666669</ele><time>2026-04-19T10:27:49Z</time></trkpt><trkpt lat="43.739804" lon="12.9788418"><ele>132.33333333333334</ele><time>2026-04-19T10:27:50Z</time></trkpt><trkpt lat="43.739746" lon="12.978918"><ele>132.0</ele><time>2026-04-19T10:27:51Z</time></trkpt><trkpt lat="43.7396964" lon="12.9789865"><ele>131.66666666666666</ele><time>2026-04-19T10:27:51.999Z</time></trkpt><trkpt lat="43.7396447" lon="12.9790511"><ele>131.33333333333331</ele><time>2026-04-19T10:27:53Z</time></trkpt><trkpt lat="43.7395954" lon="12.9791161"><ele>131.0</ele><time>2026-04-19T10:27:54Z</time></trkpt><trkpt lat="43.7395078" lon="12.9792309"><ele>129.4</ele><time>2026-04-19T10:27:56Z</time></trkpt><trkpt lat="43.7394107" lon="12.9793238"><ele>127.8</ele><time>2026-04-19T10:27:58Z</time></trkpt><trkpt lat="43.7392993" lon="12.9794101"><ele>126.20000000000002</ele><time>2026-04-19T10:28:00Z</time></trkpt><trkpt lat="43.7392325" lon="12.9794496"><ele>124.60000000000001</ele><time>2026-04-19T10:28:01Z</time></trkpt><trkpt lat="43.739158" lon="12.9794937"><ele>123.0</ele><time>2026-04-19T10:28:02Z</time></trkpt><trkpt lat="43.739084" lon="12.9795408"><ele>122.33333333333333</ele><time>2026-04-19T10:28:03Z</time></trkpt><trkpt lat="43.7390091" lon="12.9795961"><ele>121.66666666666666</ele><time>2026-04-19T10:28:04Z</time></trkpt><trkpt lat="43.7389381" lon="12.9796496"><ele>121.0</ele><time>2026-04-19T10:28:05Z</time></trkpt><trkpt lat="43.73887" lon="12.9797126"><ele>120.33333333333333</ele><time>2026-04-19T10:28:06Z</time></trkpt><trkpt lat="43.7387985" lon="12.9797804"><ele>119.66666666666666</ele><time>2026-04-19T10:28:07Z</time></trkpt><trkpt lat="43.7387299" lon="12.9798499"><ele>119.0</ele><time>2026-04-19T10:28:08Z</time></trkpt><trkpt lat="43.738666" lon="12.9799221"><ele>118.99999999999999</ele><time>2026-04-19T10:28:09Z</time></trkpt><trkpt lat="43.7386104" lon="12.9799928"><ele>119.0</ele><time>2026-04-19T10:28:10Z</time></trkpt><trkpt lat="43.7385749" lon="12.9800652"><ele>119.0</ele><time>2026-04-19T10:28:11Z</time></trkpt><trkpt lat="43.7385346" lon="12.9801591"><ele>119.0</ele><time>2026-04-19T10:28:12Z</time></trkpt><trkpt lat="43.7384978" lon="12.9802548"><ele>118.99999999999999</ele><time>2026-04-19T10:28:13Z</time></trkpt><trkpt lat="43.7384548" lon="12.9803426"><ele>119.0</ele><time>2026-04-19T10:28:14Z</time></trkpt><trkpt lat="43.7384137" lon="12.9804329"><ele>117.85714285714286</ele><time>2026-04-19T10:28:15Z</time></trkpt><trkpt lat="43.7383666" lon="12.980507"><ele>116.71428571428572</ele><time>2026-04-19T10:28:15.999Z</time></trkpt><trkpt lat="43.7383151" lon="12.9805691"><ele>115.57142857142857</ele><time>2026-04-19T10:28:17Z</time></trkpt><trkpt lat="43.7382583" lon="12.9806152"><ele>114.42857142857143</ele><time>2026-04-19T10:28:18Z</time></trkpt><trkpt lat="43.7381915" lon="12.9806177"><ele>113.28571428571429</ele><time>2026-04-19T10:28:19Z</time></trkpt><trkpt lat="43.7381233" lon="12.9806092"><ele>112.14285714285714</ele><time>2026-04-19T10:28:20Z</time></trkpt><trkpt lat="43.7380501" lon="12.9805996"><ele>111.0</ele><time>2026-04-19T10:28:21Z</time></trkpt><trkpt lat="43.7379749" lon="12.980572"><ele>111.0</ele><time>2026-04-19T10:28:22Z</time></trkpt><trkpt lat="43.7379061" lon="12.9805328"><ele>111.0</ele><time>2026-04-19T10:28:23Z</time></trkpt><trkpt lat="43.7378432" lon="12.9805185"><ele>111.0</ele><time>2026-04-19T10:28:24Z</time></trkpt><trkpt lat="43.7377731" lon="12.9805262"><ele>111.0</ele><time>2026-04-19T10:28:25Z</time></trkpt><trkpt lat="43.7377042" lon="12.9805532"><ele>111.0</ele><time>2026-04-19T10:28:26Z</time></trkpt><trkpt lat="43.7376312" lon="12.9805852"><ele>111.0</ele><time>2026-04-19T10:28:27Z</time></trkpt><trkpt lat="43.7375553" lon="12.9806198"><ele>111.0</ele><time>2026-04-19T10:28:28Z</time></trkpt><trkpt lat="43.7374851" lon="12.9806543"><ele>109.5</ele><time>2026-04-19T10:28:29Z</time></trkpt><trkpt lat="43.7374116" lon="12.9806864"><ele>108.0</ele><time>2026-04-19T10:28:30Z</time></trkpt><trkpt lat="43.7373406" lon="12.9807136"><ele>106.5</ele><time>2026-04-19T10:28:31Z</time></trkpt><trkpt lat="43.7372664" lon="12.9807423"><ele>105.0</ele><time>2026-04-19T10:28:32Z</time></trkpt><trkpt lat="43.7372002" lon="12.9807771"><ele>103.5</ele><time>2026-04-19T10:28:33Z</time></trkpt><trkpt lat="43.7371364" lon="12.9808131"><ele>102.0</ele><time>2026-04-19T10:28:34Z</time></trkpt><trkpt lat="43.7370363" lon="12.9808907"><ele>101.0</ele><time>2026-04-19T10:28:36Z</time></trkpt><trkpt lat="43.7369673" lon="12.9810115"><ele>100.0</ele><time>2026-04-19T10:28:38Z</time></trkpt><trkpt lat="43.7369218" lon="12.9811819"><ele>99.0</ele><time>2026-04-19T10:28:40Z</time></trkpt><trkpt lat="43.7369003" lon="12.9812814"><ele>98.0</ele><time>2026-04-19T10:28:41Z</time></trkpt><trkpt lat="43.736881" lon="12.981386"><ele>97.0</ele><time>2026-04-19T10:28:42Z</time></trkpt><trkpt lat="43.7368622" lon="12.9814991"><ele>95.33333333333334</ele><time>2026-04-19T10:28:43Z</time></trkpt><trkpt lat="43.7368379" lon="12.9816154"><ele>93.66666666666667</ele><time>2026-04-19T10:28:44Z</time></trkpt><trkpt lat="43.7368142" lon="12.9817334"><ele>92.0</ele><time>2026-04-19T10:28:45Z</time></trkpt><trkpt lat="43.7367914" lon="12.9818523"><ele>90.33333333333334</ele><time>2026-04-19T10:28:46Z</time></trkpt><trkpt lat="43.7367709" lon="12.9819699"><ele>88.66666666666667</ele><time>2026-04-19T10:28:47Z</time></trkpt><trkpt lat="43.7367481" lon="12.982082"><ele>87.0</ele><time>2026-04-19T10:28:48Z</time></trkpt><trkpt lat="43.7367242" lon="12.9821954"><ele>86.5</ele><time>2026-04-19T10:28:49Z</time></trkpt><trkpt lat="43.7367013" lon="12.9823125"><ele>86.0</ele><time>2026-04-19T10:28:50Z</time></trkpt><trkpt lat="43.7366814" lon="12.9824265"><ele>85.5</ele><time>2026-04-19T10:28:51Z</time></trkpt><trkpt lat="43.7366602" lon="12.9825404"><ele>85.0</ele><time>2026-04-19T10:28:51.999Z</time></trkpt><trkpt lat="43.736636" lon="12.9826509"><ele>84.5</ele><time>2026-04-19T10:28:53Z</time></trkpt><trkpt lat="43.7366134" lon="12.9827602"><ele>84.0</ele><time>2026-04-19T10:28:54Z</time></trkpt><trkpt lat="43.7365895" lon="12.9828667"><ele>83.83333333333333</ele><time>2026-04-19T10:28:55Z</time></trkpt><trkpt lat="43.736566" lon="12.9829726"><ele>83.66666666666667</ele><time>2026-04-19T10:28:56Z</time></trkpt><trkpt lat="43.736544" lon="12.9830744"><ele>83.5</ele><time>2026-04-19T10:28:57Z</time></trkpt><trkpt lat="43.7365088" lon="12.9832186"><ele>83.33333333333334</ele><time>2026-04-19T10:28:59Z</time></trkpt><trkpt lat="43.736452" lon="12.9832971"><ele>83.16666666666667</ele><time>2026-04-19T10:29:01Z</time></trkpt><trkpt lat="43.7363593" lon="12.9832983"><ele>83.0</ele><time>2026-04-19T10:29:03Z</time></trkpt><trkpt lat="43.7362504" lon="12.983241"><ele>83.0</ele><time>2026-04-19T10:29:05Z</time></trkpt><trkpt lat="43.7361874" lon="12.9832014"><ele>83.0</ele><time>2026-04-19T10:29:06Z</time></trkpt><trkpt lat="43.7361167" lon="12.983167"><ele>83.0</ele><time>2026-04-19T10:29:07Z</time></trkpt><trkpt lat="43.7360412" lon="12.9831302"><ele>83.0</ele><time>2026-04-19T10:29:08Z</time></trkpt><trkpt lat="43.7359637" lon="12.9830978"><ele>83.0</ele><time>2026-04-19T10:29:09Z</time></trkpt><trkpt lat="43.7358871" lon="12.9830747"><ele>83.0</ele><time>2026-04-19T10:29:10Z</time></trkpt><trkpt lat="43.7358099" lon="12.9830627"><ele>83.0</ele><time>2026-04-19T10:29:11Z</time></trkpt><trkpt lat="43.7357311" lon="12.9830572"><ele>83.0</ele><time>2026-04-19T10:29:12Z</time></trkpt><trkpt lat="43.7356488" lon="12.9830556"><ele>83.0</ele><time>2026-04-19T10:29:13Z</time></trkpt><trkpt lat="43.7355613" lon="12.9830601"><ele>83.0</ele><time>2026-04-19T10:29:14Z</time></trkpt><trkpt lat="43.735469" lon="12.9830731"><ele>83.0</ele><time>2026-04-19T10:29:14.999Z</time></trkpt><trkpt lat="43.7353778" lon="12.9830902"><ele>83.0</ele><time>2026-04-19T10:29:16Z</time></trkpt><trkpt lat="43.7352879" lon="12.9831045"><ele>83.66666666666667</ele><time>2026-04-19T10:29:17Z</time></trkpt><trkpt lat="43.7352004" lon="12.9831154"><ele>84.33333333333334</ele><time>2026-04-19T10:29:18Z</time></trkpt><trkpt lat="43.7351136" lon="12.9831284"><ele>85.0</ele><time>2026-04-19T10:29:19Z</time></trkpt><trkpt lat="43.7350295" lon="12.9831465"><ele>85.66666666666667</ele><time>2026-04-19T10:29:20Z</time></trkpt><trkpt lat="43.7349466" lon="12.9831598"><ele>86.33333333333333</ele><time>2026-04-19T10:29:21Z</time></trkpt><trkpt lat="43.7348654" lon="12.9831828"><ele>87.0</ele><time>2026-04-19T10:29:22Z</time></trkpt><trkpt lat="43.7347909" lon="12.9832014"><ele>87.0</ele><time>2026-04-19T10:29:23Z</time></trkpt><trkpt lat="43.7347179" lon="12.9832215"><ele>87.0</ele><time>2026-04-19T10:29:24Z</time></trkpt><trkpt lat="43.7346429" lon="12.9832425"><ele>87.0</ele><time>2026-04-19T10:29:25Z</time></trkpt><trkpt lat="43.7345632" lon="12.9832664"><ele>87.0</ele><time>2026-04-19T10:29:26Z</time></trkpt><trkpt lat="43.7344822" lon="12.9832844"><ele>87.0</ele><time>2026-04-19T10:29:27Z</time></trkpt><trkpt lat="43.7344014" lon="12.983305"><ele>87.0</ele><time>2026-04-19T10:29:28Z</time></trkpt><trkpt lat="43.7343225" lon="12.9833236"><ele>88.85714285714286</ele><time>2026-04-19T10:29:29Z</time></trkpt><trkpt lat="43.7342473" lon="12.9833371"><ele>90.71428571428572</ele><time>2026-04-19T10:29:30Z</time></trkpt><trkpt lat="43.7341721" lon="12.9833412"><ele>92.57142857142858</ele><time>2026-04-19T10:29:31Z</time></trkpt><trkpt lat="43.7340987" lon="12.9833299"><ele>94.42857142857143</ele><time>2026-04-19T10:29:32Z</time></trkpt><trkpt lat="43.7340288" lon="12.9833047"><ele>96.28571428571429</ele><time>2026-04-19T10:29:33Z</time></trkpt><trkpt lat="43.7339658" lon="12.9832686"><ele>98.14285714285715</ele><time>2026-04-19T10:29:34Z</time></trkpt><trkpt lat="43.7339099" lon="12.9832276"><ele>100.0</ele><time>2026-04-19T10:29:35Z</time></trkpt><trkpt lat="43.7338216" lon="12.9831526"><ele>100.0</ele><time>2026-04-19T10:29:37Z</time></trkpt><trkpt lat="43.7337189" lon="12.9831092"><ele>100.0</ele><time>2026-04-19T10:29:39Z</time></trkpt><trkpt lat="43.7335994" lon="12.9831072"><ele>100.0</ele><time>2026-04-19T10:29:41Z</time></trkpt><trkpt lat="43.7335361" lon="12.9831037"><ele>100.0</ele><time>2026-04-19T10:29:41.999Z</time></trkpt><trkpt lat="43.7334101" lon="12.9830931"><ele>100.0</ele><time>2026-04-19T10:29:44Z</time></trkpt><trkpt lat="43.7333454" lon="12.9830824"><ele>102.00000000000001</ele><time>2026-04-19T10:29:45Z</time></trkpt><trkpt lat="43.7332218" lon="12.98306"><ele>104.0</ele><time>2026-04-19T10:29:47Z</time></trkpt><trkpt lat="43.7331552" lon="12.9830446"><ele>106.0</ele><time>2026-04-19T10:29:48Z</time></trkpt><trkpt lat="43.733087" lon="12.983031"><ele>108.0</ele><time>2026-04-19T10:29:49Z</time></trkpt><trkpt lat="43.7330146" lon="12.9830253"><ele>110.00000000000001</ele><time>2026-04-19T10:29:50Z</time></trkpt><trkpt lat="43.732948" lon="12.9830122"><ele>112.0</ele><time>2026-04-19T10:29:51Z</time></trkpt><trkpt lat="43.7328826" lon="12.9829997"><ele>112.0</ele><time>2026-04-19T10:29:52Z</time></trkpt><trkpt lat="43.7328173" lon="12.9829854"><ele>112.0</ele><time>2026-04-19T10:29:52.999Z</time></trkpt><trkpt lat="43.7327534" lon="12.982974"><ele>112.0</ele><time>2026-04-19T10:29:54Z</time></trkpt><trkpt lat="43.7326349" lon="12.9829417"><ele>112.0</ele><time>2026-04-19T10:29:56Z</time></trkpt><trkpt lat="43.7325707" lon="12.982913"><ele>112.0</ele><time>2026-04-19T10:29:57Z</time></trkpt><trkpt lat="43.7325101" lon="12.9828868"><ele>112.0</ele><time>2026-04-19T10:29:58Z</time></trkpt><trkpt lat="43.73245" lon="12.9828535"><ele>112.0</ele><time>2026-04-19T10:29:59Z</time></trkpt><trkpt lat="43.7323914" lon="12.982815"><ele>115.19999999999999</ele><time>2026-04-19T10:30:00Z</time></trkpt><trkpt lat="43.7323309" lon="12.9827723"><ele>118.39999999999999</ele><time>2026-04-19T10:30:01Z</time></trkpt><trkpt lat="43.7322708" lon="12.982735"><ele>121.60000000000001</ele><time>2026-04-19T10:30:02Z</time></trkpt><trkpt lat="43.732158" lon="12.9826707"><ele>124.80000000000001</ele><time>2026-04-19T10:30:04Z</time></trkpt><trkpt lat="43.7320439" lon="12.9826163"><ele>128.0</ele><time>2026-04-19T10:30:06Z</time></trkpt><trkpt lat="43.7319225" lon="12.9825738"><ele>131.8</ele><time>2026-04-19T10:30:08Z</time></trkpt><trkpt lat="43.7318114" lon="12.9825517"><ele>135.60000000000002</ele><time>2026-04-19T10:30:10Z</time></trkpt><trkpt lat="43.7317126" lon="12.9825645"><ele>139.39999999999998</ele><time>2026-04-19T10:30:12Z</time></trkpt><trkpt lat="43.7316127" lon="12.9826174"><ele>143.2</ele><time>2026-04-19T10:30:14Z</time></trkpt><trkpt lat="43.7315249" lon="12.9827153"><ele>147.0</ele><time>2026-04-19T10:30:16Z</time></trkpt><trkpt lat="43.7314423" lon="12.9828298"><ele>147.0</ele><time>2026-04-19T10:30:18Z</time></trkpt><trkpt lat="43.7313511" lon="12.9829441"><ele>147.0</ele><time>2026-04-19T10:30:20Z</time></trkpt><trkpt lat="43.7313078" lon="12.9830087"><ele>147.0</ele><time>2026-04-19T10:30:21Z</time></trkpt><trkpt lat="43.7312622" lon="12.9830711"><ele>147.0</ele><time>2026-04-19T10:30:22Z</time></trkpt><trkpt lat="43.7312149" lon="12.983132"><ele>147.0</ele><time>2026-04-19T10:30:23Z</time></trkpt><trkpt lat="43.7311671" lon="12.9831917"><ele>147.0</ele><time>2026-04-19T10:30:24Z</time></trkpt><trkpt lat="43.7310696" lon="12.9833004"><ele>149.4</ele><time>2026-04-19T10:30:26Z</time></trkpt><trkpt lat="43.7309729" lon="12.9833995"><ele>151.79999999999998</ele><time>2026-04-19T10:30:28Z</time></trkpt><trkpt lat="43.7308792" lon="12.9834831"><ele>154.2</ele><time>2026-04-19T10:30:30Z</time></trkpt><trkpt lat="43.7307839" lon="12.9835356"><ele>156.6</ele><time>2026-04-19T10:30:32Z</time></trkpt><trkpt lat="43.7307024" lon="12.9835014"><ele>159.0</ele><time>2026-04-19T10:30:34Z</time></trkpt><trkpt lat="43.7306466" lon="12.9834044"><ele>159.0</ele><time>2026-04-19T10:30:36Z</time></trkpt><trkpt lat="43.7305819" lon="12.9833162"><ele>159.0</ele><time>2026-04-19T10:30:38Z</time></trkpt><trkpt lat="43.7304978" lon="12.9832243"><ele>159.0</ele><time>2026-04-19T10:30:40Z</time></trkpt><trkpt lat="43.7303968" lon="12.9831169"><ele>159.0</ele><time>2026-04-19T10:30:42Z</time></trkpt><trkpt lat="43.7303357" lon="12.9830691"><ele>159.0</ele><time>2026-04-19T10:30:43Z</time></trkpt><trkpt lat="43.7302761" lon="12.9830281"><ele>160.0</ele><time>2026-04-19T10:30:44Z</time></trkpt><trkpt lat="43.7302161" lon="12.9829915"><ele>161.0</ele><time>2026-04-19T10:30:45Z</time></trkpt><trkpt lat="43.7301096" lon="12.9829222"><ele>162.0</ele><time>2026-04-19T10:30:47Z</time></trkpt><trkpt lat="43.7300138" lon="12.9828618"><ele>163.0</ele><time>2026-04-19T10:30:49Z</time></trkpt><trkpt lat="43.7299306" lon="12.9827994"><ele>164.0</ele><time>2026-04-19T10:30:51Z</time></trkpt><trkpt lat="43.7298579" lon="12.9827224"><ele>164.0</ele><time>2026-04-19T10:30:53Z</time></trkpt><trkpt lat="43.729791" lon="12.9825937"><ele>164.0</ele><time>2026-04-19T10:30:55Z</time></trkpt><trkpt lat="43.7297593" lon="12.9825161"><ele>164.0</ele><time>2026-04-19T10:30:56Z</time></trkpt><trkpt lat="43.729731" lon="12.9824375"><ele>164.0</ele><time>2026-04-19T10:30:57Z</time></trkpt><trkpt lat="43.7297048" lon="12.982355"><ele>164.0</ele><time>2026-04-19T10:30:58Z</time></trkpt><trkpt lat="43.7296794" lon="12.9822635"><ele>164.0</ele><time>2026-04-19T10:30:59Z</time></trkpt><trkpt lat="43.7296536" lon="12.9821578"><ele>164.66666666666666</ele><time>2026-04-19T10:31:00Z</time></trkpt><trkpt lat="43.7296292" lon="12.9820464"><ele>165.33333333333331</ele><time>2026-04-19T10:31:01Z</time></trkpt><trkpt lat="43.7296011" lon="12.9819407"><ele>166.0</ele><time>2026-04-19T10:31:02Z</time></trkpt><trkpt lat="43.729561" lon="12.9818344"><ele>166.66666666666666</ele><time>2026-04-19T10:31:03Z</time></trkpt><trkpt lat="43.7295169" lon="12.9817297"><ele>167.33333333333334</ele><time>2026-04-19T10:31:04Z</time></trkpt><trkpt lat="43.7294677" lon="12.9816284"><ele>168.0</ele><time>2026-04-19T10:31:05Z</time></trkpt><trkpt lat="43.729416" lon="12.9815266"><ele>168.60000000000002</ele><time>2026-04-19T10:31:06Z</time></trkpt><trkpt lat="43.729365" lon="12.9814228"><ele>169.20000000000002</ele><time>2026-04-19T10:31:07Z</time></trkpt><trkpt lat="43.7293149" lon="12.9813203"><ele>169.8</ele><time>2026-04-19T10:31:07.999Z</time></trkpt><trkpt lat="43.7292667" lon="12.9812137"><ele>170.4</ele><time>2026-04-19T10:31:09Z</time></trkpt><trkpt lat="43.7292231" lon="12.9811015"><ele>171.0</ele><time>2026-04-19T10:31:09.999Z</time></trkpt><trkpt lat="43.7291835" lon="12.9809877"><ele>171.0</ele><time>2026-04-19T10:31:11Z</time></trkpt><trkpt lat="43.7291455" lon="12.9808739"><ele>171.0</ele><time>2026-04-19T10:31:12Z</time></trkpt><trkpt lat="43.7291081" lon="12.9807588"><ele>171.0</ele><time>2026-04-19T10:31:13Z</time></trkpt><trkpt lat="43.7290749" lon="12.9806432"><ele>171.0</ele><time>2026-04-19T10:31:14Z</time></trkpt><trkpt lat="43.7290444" lon="12.9805258"><ele>171.0</ele><time>2026-04-19T10:31:15Z</time></trkpt><trkpt lat="43.7290177" lon="12.9804001"><ele>172.0</ele><time>2026-04-19T10:31:16Z</time></trkpt><trkpt lat="43.7289856" lon="12.9802775"><ele>173.0</ele><time>2026-04-19T10:31:17Z</time></trkpt><trkpt lat="43.7289367" lon="12.9801633"><ele>174.0</ele><time>2026-04-19T10:31:18Z</time></trkpt><trkpt lat="43.728878" lon="12.9800613"><ele>175.0</ele><time>2026-04-19T10:31:19Z</time></trkpt><trkpt lat="43.7288111" lon="12.9799661"><ele>176.0</ele><time>2026-04-19T10:31:20Z</time></trkpt><trkpt lat="43.7287427" lon="12.9798798"><ele>176.0</ele><time>2026-04-19T10:31:20.999Z</time></trkpt><trkpt lat="43.7286778" lon="12.9797981"><ele>176.0</ele><time>2026-04-19T10:31:22Z</time></trkpt><trkpt lat="43.7286151" lon="12.9797152"><ele>176.0</ele><time>2026-04-19T10:31:23Z</time></trkpt><trkpt lat="43.7285551" lon="12.9796287"><ele>176.0</ele><time>2026-04-19T10:31:24Z</time></trkpt><trkpt lat="43.7284969" lon="12.9795361"><ele>176.0</ele><time>2026-04-19T10:31:25Z</time></trkpt><trkpt lat="43.728443" lon="12.9794415"><ele>176.0</ele><time>2026-04-19T10:31:26Z</time></trkpt><trkpt lat="43.7283906" lon="12.9793414"><ele>176.33333333333331</ele><time>2026-04-19T10:31:27Z</time></trkpt><trkpt lat="43.7283381" lon="12.9792433"><ele>176.66666666666666</ele><time>2026-04-19T10:31:28Z</time></trkpt><trkpt lat="43.7282881" lon="12.9791461"><ele>177.0</ele><time>2026-04-19T10:31:29Z</time></trkpt><trkpt lat="43.728241" lon="12.9790407"><ele>177.33333333333334</ele><time>2026-04-19T10:31:30Z</time></trkpt><trkpt lat="43.7282067" lon="12.9789327"><ele>177.66666666666669</ele><time>2026-04-19T10:31:31Z</time></trkpt><trkpt lat="43.7281862" lon="12.978823"><ele>178.0</ele><time>2026-04-19T10:31:32Z</time></trkpt><trkpt lat="43.7281722" lon="12.9787099"><ele>179.5</ele><time>2026-04-19T10:31:33Z</time></trkpt><trkpt lat="43.7281581" lon="12.9786004"><ele>181.0</ele><time>2026-04-19T10:31:34Z</time></trkpt><trkpt lat="43.7281494" lon="12.9784916"><ele>182.5</ele><time>2026-04-19T10:31:35Z</time></trkpt><trkpt lat="43.7281482" lon="12.9783854"><ele>184.0</ele><time>2026-04-19T10:31:36Z</time></trkpt><trkpt lat="43.72815" lon="12.9782779"><ele>185.5</ele><time>2026-04-19T10:31:37Z</time></trkpt><trkpt lat="43.7281573" lon="12.9781763"><ele>187.0</ele><time>2026-04-19T10:31:38Z</time></trkpt><trkpt lat="43.7281689" lon="12.9780723"><ele>187.85714285714286</ele><time>2026-04-19T10:31:39Z</time></trkpt><trkpt lat="43.7281837" lon="12.9779716"><ele>188.71428571428572</ele><time>2026-04-19T10:31:40Z</time></trkpt><trkpt lat="43.7282084" lon="12.9778795"><ele>189.57142857142858</ele><time>2026-04-19T10:31:41Z</time></trkpt><trkpt lat="43.7282375" lon="12.9777878"><ele>190.42857142857144</ele><time>2026-04-19T10:31:42Z</time></trkpt><trkpt lat="43.7282578" lon="12.9776921"><ele>191.28571428571428</ele><time>2026-04-19T10:31:43Z</time></trkpt><trkpt lat="43.7282709" lon="12.9776008"><ele>192.14285714285717</ele><time>2026-04-19T10:31:44Z</time></trkpt><trkpt lat="43.7282645" lon="12.9775126"><ele>193.0</ele><time>2026-04-19T10:31:45Z</time></trkpt><trkpt lat="43.7282309" lon="12.9774179"><ele>192.99999999999997</ele><time>2026-04-19T10:31:47Z</time></trkpt><trkpt lat="43.7281402" lon="12.977473"><ele>193.0</ele><time>2026-04-19T10:31:51Z</time></trkpt><trkpt lat="43.7281027" lon="12.9775601"><ele>193.0</ele><time>2026-04-19T10:31:52Z</time></trkpt><trkpt lat="43.7280618" lon="12.97766"><ele>193.0</ele><time>2026-04-19T10:31:53Z</time></trkpt><trkpt lat="43.728011" lon="12.9777635"><ele>192.99999999999997</ele><time>2026-04-19T10:31:54Z</time></trkpt><trkpt lat="43.7279436" lon="12.9778625"><ele>193.0</ele><time>2026-04-19T10:31:55Z</time></trkpt><trkpt lat="43.7278599" lon="12.977955"><ele>193.0</ele><time>2026-04-19T10:31:56Z</time></trkpt><trkpt lat="43.7277602" lon="12.9780294"><ele>193.0</ele><time>2026-04-19T10:31:57Z</time></trkpt><trkpt lat="43.727647" lon="12.9780827"><ele>193.0</ele><time>2026-04-19T10:31:58Z</time></trkpt><trkpt lat="43.7275354" lon="12.9781194"><ele>193.0</ele><time>2026-04-19T10:31:59Z</time></trkpt><trkpt lat="43.727427" lon="12.9781571"><ele>193.75</ele><time>2026-04-19T10:32:00Z</time></trkpt><trkpt lat="43.7273228" lon="12.9781879"><ele>194.5</ele><time>2026-04-19T10:32:01Z</time></trkpt><trkpt lat="43.7272177" lon="12.9782193"><ele>195.25</ele><time>2026-04-19T10:32:02Z</time></trkpt><trkpt lat="43.7271043" lon="12.9782531"><ele>196.0</ele><time>2026-04-19T10:32:03Z</time></trkpt><trkpt lat="43.7269808" lon="12.978287"><ele>195.0</ele><time>2026-04-19T10:32:04Z</time></trkpt><trkpt lat="43.7268498" lon="12.9783327"><ele>194.0</ele><time>2026-04-19T10:32:05Z</time></trkpt><trkpt lat="43.7267053" lon="12.9783784"><ele>193.0</ele><time>2026-04-19T10:32:05.999Z</time></trkpt><trkpt lat="43.7265508" lon="12.9784337"><ele>192.0</ele><time>2026-04-19T10:32:06.999Z</time></trkpt><trkpt lat="43.7264007" lon="12.9784784"><ele>189.5</ele><time>2026-04-19T10:32:08Z</time></trkpt><trkpt lat="43.7262577" lon="12.9785288"><ele>187.0</ele><time>2026-04-19T10:32:09Z</time></trkpt><trkpt lat="43.7261203" lon="12.9785748"><ele>184.5</ele><time>2026-04-19T10:32:10Z</time></trkpt><trkpt lat="43.7259847" lon="12.9786222"><ele>182.0</ele><time>2026-04-19T10:32:11Z</time></trkpt><trkpt lat="43.7258519" lon="12.978663"><ele>182.0</ele><time>2026-04-19T10:32:12Z</time></trkpt><trkpt lat="43.7257163" lon="12.9787112"><ele>182.0</ele><time>2026-04-19T10:32:13Z</time></trkpt><trkpt lat="43.7255772" lon="12.9787522"><ele>182.0</ele><time>2026-04-19T10:32:14Z</time></trkpt><trkpt lat="43.7254361" lon="12.978792"><ele>182.0</ele><time>2026-04-19T10:32:15Z</time></trkpt><trkpt lat="43.7252954" lon="12.9788368"><ele>182.5</ele><time>2026-04-19T10:32:16Z</time></trkpt><trkpt lat="43.725156" lon="12.9788834"><ele>183.0</ele><time>2026-04-19T10:32:17Z</time></trkpt><trkpt lat="43.7250147" lon="12.9789256"><ele>183.5</ele><time>2026-04-19T10:32:18Z</time></trkpt><trkpt lat="43.7248706" lon="12.9789677"><ele>184.0</ele><time>2026-04-19T10:32:19Z</time></trkpt><trkpt lat="43.7247275" lon="12.9790135"><ele>184.0</ele><time>2026-04-19T10:32:19.999Z</time></trkpt><trkpt lat="43.7245821" lon="12.9790596"><ele>184.0</ele><time>2026-04-19T10:32:21Z</time></trkpt><trkpt lat="43.7244374" lon="12.9791046"><ele>184.0</ele><time>2026-04-19T10:32:22Z</time></trkpt><trkpt lat="43.7242921" lon="12.9791496"><ele>184.0</ele><time>2026-04-19T10:32:23Z</time></trkpt><trkpt lat="43.7241466" lon="12.9791982"><ele>182.0</ele><time>2026-04-19T10:32:24Z</time></trkpt><trkpt lat="43.7240045" lon="12.9792425"><ele>180.0</ele><time>2026-04-19T10:32:25Z</time></trkpt><trkpt lat="43.7238635" lon="12.9792852"><ele>178.0</ele><time>2026-04-19T10:32:26Z</time></trkpt><trkpt lat="43.7237261" lon="12.979328"><ele>176.0</ele><time>2026-04-19T10:32:27Z</time></trkpt><trkpt lat="43.7235855" lon="12.9793742"><ele>176.75</ele><time>2026-04-19T10:32:28Z</time></trkpt><trkpt lat="43.7234384" lon="12.979425"><ele>177.5</ele><time>2026-04-19T10:32:28.999Z</time></trkpt><trkpt lat="43.7232946" lon="12.9794715"><ele>178.25</ele><time>2026-04-19T10:32:30Z</time></trkpt><trkpt lat="43.7231494" lon="12.9795229"><ele>179.0</ele><time>2026-04-19T10:32:31Z</time></trkpt><trkpt lat="43.7230036" lon="12.9795743"><ele>179.0</ele><time>2026-04-19T10:32:32Z</time></trkpt><trkpt lat="43.7228585" lon="12.9796216"><ele>179.0</ele><time>2026-04-19T10:32:32.999Z</time></trkpt><trkpt lat="43.7227145" lon="12.9796704"><ele>179.0</ele><time>2026-04-19T10:32:34Z</time></trkpt><trkpt lat="43.7225679" lon="12.97972"><ele>179.0</ele><time>2026-04-19T10:32:35Z</time></trkpt><trkpt lat="43.7224232" lon="12.979776"><ele>181.33333333333331</ele><time>2026-04-19T10:32:36Z</time></trkpt><trkpt lat="43.7222801" lon="12.979839"><ele>183.66666666666666</ele><time>2026-04-19T10:32:37Z</time></trkpt><trkpt lat="43.7221322" lon="12.979899"><ele>186.0</ele><time>2026-04-19T10:32:38Z</time></trkpt><trkpt lat="43.7219834" lon="12.9799562"><ele>186.33333333333334</ele><time>2026-04-19T10:32:39Z</time></trkpt><trkpt lat="43.7218383" lon="12.9800108"><ele>186.66666666666669</ele><time>2026-04-19T10:32:40Z</time></trkpt><trkpt lat="43.721694" lon="12.9800678"><ele>187.0</ele><time>2026-04-19T10:32:41Z</time></trkpt><trkpt lat="43.7215503" lon="12.9801312"><ele>185.0</ele><time>2026-04-19T10:32:42Z</time></trkpt><trkpt lat="43.7214073" lon="12.9801971"><ele>183.0</ele><time>2026-04-19T10:32:43Z</time></trkpt><trkpt lat="43.721261" lon="12.9802622"><ele>181.0</ele><time>2026-04-19T10:32:44Z</time></trkpt><trkpt lat="43.7211147" lon="12.9803243"><ele>183.0</ele><time>2026-04-19T10:32:45Z</time></trkpt><trkpt lat="43.7209662" lon="12.9803883"><ele>185.0</ele><time>2026-04-19T10:32:46Z</time></trkpt><trkpt lat="43.7208208" lon="12.9804376"><ele>187.0</ele><time>2026-04-19T10:32:47Z</time></trkpt><trkpt lat="43.7206712" lon="12.9804916"><ele>187.0</ele><time>2026-04-19T10:32:48Z</time></trkpt><trkpt lat="43.7205198" lon="12.9805421"><ele>187.0</ele><time>2026-04-19T10:32:49Z</time></trkpt><trkpt lat="43.7203746" lon="12.98059"><ele>187.0</ele><time>2026-04-19T10:32:50Z</time></trkpt><trkpt lat="43.7202253" lon="12.9806232"><ele>189.25</ele><time>2026-04-19T10:32:51Z</time></trkpt><trkpt lat="43.7200743" lon="12.9806562"><ele>191.5</ele><time>2026-04-19T10:32:52Z</time></trkpt><trkpt lat="43.7199295" lon="12.9806889"><ele>193.75</ele><time>2026-04-19T10:32:53Z</time></trkpt><trkpt lat="43.7197815" lon="12.9807134"><ele>196.0</ele><time>2026-04-19T10:32:54Z</time></trkpt><trkpt lat="43.7196366" lon="12.9807433"><ele>196.0</ele><time>2026-04-19T10:32:55Z</time></trkpt><trkpt lat="43.719489" lon="12.9807709"><ele>196.0</ele><time>2026-04-19T10:32:56Z</time></trkpt><trkpt lat="43.719355" lon="12.9807993"><ele>196.0</ele><time>2026-04-19T10:32:57Z</time></trkpt><trkpt lat="43.719229" lon="12.9808202"><ele>196.0</ele><time>2026-04-19T10:32:58Z</time></trkpt><trkpt lat="43.7191144" lon="12.9808377"><ele>196.8</ele><time>2026-04-19T10:32:59Z</time></trkpt><trkpt lat="43.7189992" lon="12.9808592"><ele>197.60000000000002</ele><time>2026-04-19T10:33:00Z</time></trkpt><trkpt lat="43.71891" lon="12.9808747"><ele>198.4</ele><time>2026-04-19T10:33:01Z</time></trkpt><trkpt lat="43.7188344" lon="12.9808769"><ele>199.2</ele><time>2026-04-19T10:33:02Z</time></trkpt><trkpt lat="43.7187226" lon="12.9808489"><ele>200.0</ele><time>2026-04-19T10:33:04Z</time></trkpt><trkpt lat="43.7186102" lon="12.980885"><ele>200.0</ele><time>2026-04-19T10:33:06Z</time></trkpt><trkpt lat="43.7185718" lon="12.9809685"><ele>200.0</ele><time>2026-04-19T10:33:07Z</time></trkpt><trkpt lat="43.7185173" lon="12.9810575"><ele>200.0</ele><time>2026-04-19T10:33:08Z</time></trkpt><trkpt lat="43.7184447" lon="12.9811431"><ele>200.0</ele><time>2026-04-19T10:33:09Z</time></trkpt><trkpt lat="43.7183575" lon="12.9812236"><ele>200.0</ele><time>2026-04-19T10:33:10Z</time></trkpt><trkpt lat="43.718264" lon="12.9813111"><ele>201.5</ele><time>2026-04-19T10:33:11Z</time></trkpt><trkpt lat="43.718165" lon="12.9813969"><ele>203.0</ele><time>2026-04-19T10:33:12Z</time></trkpt><trkpt lat="43.7180653" lon="12.9814727"><ele>204.5</ele><time>2026-04-19T10:33:13Z</time></trkpt><trkpt lat="43.7179675" lon="12.9815523"><ele>206.0</ele><time>2026-04-19T10:33:14Z</time></trkpt><trkpt lat="43.7178671" lon="12.9816314"><ele>204.5</ele><time>2026-04-19T10:33:15Z</time></trkpt><trkpt lat="43.7177604" lon="12.9817272"><ele>203.0</ele><time>2026-04-19T10:33:16Z</time></trkpt><trkpt lat="43.717651" lon="12.9818152"><ele>201.5</ele><time>2026-04-19T10:33:17Z</time></trkpt><trkpt lat="43.7175413" lon="12.9819135"><ele>200.0</ele><time>2026-04-19T10:33:18Z</time></trkpt><trkpt lat="43.7174273" lon="12.982008"><ele>200.0</ele><time>2026-04-19T10:33:19Z</time></trkpt><trkpt lat="43.7173176" lon="12.9820974"><ele>200.0</ele><time>2026-04-19T10:33:20Z</time></trkpt><trkpt lat="43.7172021" lon="12.9821882"><ele>200.0</ele><time>2026-04-19T10:33:21Z</time></trkpt><trkpt lat="43.7170873" lon="12.9822809"><ele>200.0</ele><time>2026-04-19T10:33:21.999Z</time></trkpt><trkpt lat="43.7169727" lon="12.9823785"><ele>199.0</ele><time>2026-04-19T10:33:23Z</time></trkpt><trkpt lat="43.7168509" lon="12.9824795"><ele>198.0</ele><time>2026-04-19T10:33:24Z</time></trkpt><trkpt lat="43.7167283" lon="12.9825765"><ele>197.0</ele><time>2026-04-19T10:33:25Z</time></trkpt><trkpt lat="43.7166046" lon="12.9826786"><ele>196.0</ele><time>2026-04-19T10:33:26Z</time></trkpt><trkpt lat="43.7164798" lon="12.9827812"><ele>196.0</ele><time>2026-04-19T10:33:27Z</time></trkpt><trkpt lat="43.716356" lon="12.982892"><ele>196.0</ele><time>2026-04-19T10:33:28Z</time></trkpt><trkpt lat="43.7162352" lon="12.9830118"><ele>196.0</ele><time>2026-04-19T10:33:29Z</time></trkpt><trkpt lat="43.7161141" lon="12.9831385"><ele>196.0</ele><time>2026-04-19T10:33:30Z</time></trkpt><trkpt lat="43.7159945" lon="12.9832703"><ele>195.33333333333331</ele><time>2026-04-19T10:33:31Z</time></trkpt><trkpt lat="43.7158795" lon="12.983408"><ele>194.66666666666669</ele><time>2026-04-19T10:33:32Z</time></trkpt><trkpt lat="43.7157636" lon="12.9835519"><ele>194.0</ele><time>2026-04-19T10:33:33Z</time></trkpt><trkpt lat="43.7156429" lon="12.983696"><ele>194.0</ele><time>2026-04-19T10:33:34Z</time></trkpt><trkpt lat="43.7155175" lon="12.9838404"><ele>194.0</ele><time>2026-04-19T10:33:34.999Z</time></trkpt><trkpt lat="43.7153905" lon="12.9839875"><ele>194.0</ele><time>2026-04-19T10:33:35.999Z</time></trkpt><trkpt lat="43.7152623" lon="12.9841337"><ele>195.0</ele><time>2026-04-19T10:33:36.999Z</time></trkpt><trkpt lat="43.7151385" lon="12.9842797"><ele>196.0</ele><time>2026-04-19T10:33:38Z</time></trkpt><trkpt lat="43.7150109" lon="12.9844236"><ele>197.0</ele><time>2026-04-19T10:33:39Z</time></trkpt><trkpt lat="43.7148725" lon="12.9845588"><ele>197.0</ele><time>2026-04-19T10:33:40Z</time></trkpt><trkpt lat="43.7147282" lon="12.9846946"><ele>197.0</ele><time>2026-04-19T10:33:41Z</time></trkpt><trkpt lat="43.7145784" lon="12.9848157"><ele>197.0</ele><time>2026-04-19T10:33:42Z</time></trkpt><trkpt lat="43.7144221" lon="12.9849295"><ele>196.33333333333334</ele><time>2026-04-19T10:33:43Z</time></trkpt><trkpt lat="43.7142658" lon="12.9850438"><ele>195.66666666666669</ele><time>2026-04-19T10:33:44Z</time></trkpt><trkpt lat="43.7141054" lon="12.9851624"><ele>195.0</ele><time>2026-04-19T10:33:44.999Z</time></trkpt><trkpt lat="43.7139462" lon="12.9852768"><ele>195.0</ele><time>2026-04-19T10:33:46Z</time></trkpt><trkpt lat="43.7137876" lon="12.9853892"><ele>195.0</ele><time>2026-04-19T10:33:47Z</time></trkpt><trkpt lat="43.7136328" lon="12.9855007"><ele>195.0</ele><time>2026-04-19T10:33:48Z</time></trkpt><trkpt lat="43.7134759" lon="12.9856166"><ele>196.33333333333331</ele><time>2026-04-19T10:33:49Z</time></trkpt><trkpt lat="43.7133227" lon="12.985721"><ele>197.66666666666666</ele><time>2026-04-19T10:33:50Z</time></trkpt><trkpt lat="43.713167" lon="12.9858346"><ele>199.0</ele><time>2026-04-19T10:33:51Z</time></trkpt><trkpt lat="43.7130114" lon="12.9859469"><ele>199.33333333333331</ele><time>2026-04-19T10:33:52Z</time></trkpt><trkpt lat="43.7128561" lon="12.9860573"><ele>199.66666666666669</ele><time>2026-04-19T10:33:53Z</time></trkpt><trkpt lat="43.7127035" lon="12.986168"><ele>200.0</ele><time>2026-04-19T10:33:54Z</time></trkpt><trkpt lat="43.712552" lon="12.9862769"><ele>200.0</ele><time>2026-04-19T10:33:55Z</time></trkpt><trkpt lat="43.7123972" lon="12.9863969"><ele>200.0</ele><time>2026-04-19T10:33:56Z</time></trkpt><trkpt lat="43.7122477" lon="12.9865089"><ele>200.0</ele><time>2026-04-19T10:33:57Z</time></trkpt><trkpt lat="43.7120928" lon="12.9866256"><ele>199.66666666666669</ele><time>2026-04-19T10:33:57.999Z</time></trkpt><trkpt lat="43.7119368" lon="12.9867299"><ele>199.33333333333331</ele><time>2026-04-19T10:33:59Z</time></trkpt><trkpt lat="43.71179" lon="12.9868312"><ele>199.0</ele><time>2026-04-19T10:34:00Z</time></trkpt><trkpt lat="43.7116392" lon="12.98695"><ele>199.0</ele><time>2026-04-19T10:34:01Z</time></trkpt><trkpt lat="43.7114944" lon="12.9870565"><ele>199.0</ele><time>2026-04-19T10:34:02Z</time></trkpt><trkpt lat="43.7113505" lon="12.9871643"><ele>199.0</ele><time>2026-04-19T10:34:03Z</time></trkpt><trkpt lat="43.7112081" lon="12.9872632"><ele>201.0</ele><time>2026-04-19T10:34:04Z</time></trkpt><trkpt lat="43.7110696" lon="12.9873628"><ele>203.0</ele><time>2026-04-19T10:34:05Z</time></trkpt><trkpt lat="43.7109356" lon="12.9874591"><ele>205.0</ele><time>2026-04-19T10:34:06Z</time></trkpt><trkpt lat="43.7108012" lon="12.9875494"><ele>205.0</ele><time>2026-04-19T10:34:07Z</time></trkpt><trkpt lat="43.7106627" lon="12.9876104"><ele>205.0</ele><time>2026-04-19T10:34:08Z</time></trkpt><trkpt lat="43.7105174" lon="12.987639"><ele>205.0</ele><time>2026-04-19T10:34:09Z</time></trkpt><trkpt lat="43.7103721" lon="12.9876211"><ele>205.0</ele><time>2026-04-19T10:34:10Z</time></trkpt><trkpt lat="43.7102284" lon="12.9875692"><ele>208.33333333333331</ele><time>2026-04-19T10:34:11Z</time></trkpt><trkpt lat="43.7100875" lon="12.987509"><ele>211.66666666666669</ele><time>2026-04-19T10:34:12Z</time></trkpt><trkpt lat="43.7099461" lon="12.9874259"><ele>215.0</ele><time>2026-04-19T10:34:13Z</time></trkpt><trkpt lat="43.7098014" lon="12.9873414"><ele>215.0</ele><time>2026-04-19T10:34:14Z</time></trkpt><trkpt lat="43.7096622" lon="12.9872547"><ele>215.0</ele><time>2026-04-19T10:34:15Z</time></trkpt><trkpt lat="43.7095213" lon="12.9871719"><ele>215.0</ele><time>2026-04-19T10:34:16Z</time></trkpt><trkpt lat="43.709379" lon="12.9870874"><ele>216.5</ele><time>2026-04-19T10:34:17Z</time></trkpt><trkpt lat="43.709235" lon="12.987003"><ele>218.0</ele><time>2026-04-19T10:34:18Z</time></trkpt><trkpt lat="43.7090966" lon="12.9869258"><ele>219.5</ele><time>2026-04-19T10:34:19Z</time></trkpt><trkpt lat="43.7089679" lon="12.9868522"><ele>221.0</ele><time>2026-04-19T10:34:20Z</time></trkpt><trkpt lat="43.7088416" lon="12.9867771"><ele>221.0</ele><time>2026-04-19T10:34:21Z</time></trkpt><trkpt lat="43.7087208" lon="12.9866896"><ele>221.0</ele><time>2026-04-19T10:34:22Z</time></trkpt><trkpt lat="43.7085996" lon="12.9865841"><ele>221.0</ele><time>2026-04-19T10:34:23Z</time></trkpt><trkpt lat="43.7084837" lon="12.9864637"><ele>221.0</ele><time>2026-04-19T10:34:24Z</time></trkpt><trkpt lat="43.7083658" lon="12.9863303"><ele>221.0</ele><time>2026-04-19T10:34:24.999Z</time></trkpt><trkpt lat="43.7082499" lon="12.9861837"><ele>221.0</ele><time>2026-04-19T10:34:26Z</time></trkpt><trkpt lat="43.7081352" lon="12.9860231"><ele>221.0</ele><time>2026-04-19T10:34:27Z</time></trkpt><trkpt lat="43.7080221" lon="12.9858459"><ele>221.0</ele><time>2026-04-19T10:34:27.999Z</time></trkpt><trkpt lat="43.7079138" lon="12.9856583"><ele>221.0</ele><time>2026-04-19T10:34:29Z</time></trkpt><trkpt lat="43.7078073" lon="12.98548"><ele>221.0</ele><time>2026-04-19T10:34:30Z</time></trkpt><trkpt lat="43.7076963" lon="12.9853056"><ele>220.66666666666669</ele><time>2026-04-19T10:34:31Z</time></trkpt><trkpt lat="43.7075817" lon="12.9851296"><ele>220.33333333333331</ele><time>2026-04-19T10:34:32Z</time></trkpt><trkpt lat="43.7074635" lon="12.98495"><ele>220.0</ele><time>2026-04-19T10:34:33Z</time></trkpt><trkpt lat="43.7073508" lon="12.9847692"><ele>222.0</ele><time>2026-04-19T10:34:34Z</time></trkpt><trkpt lat="43.7072444" lon="12.9845986"><ele>224.0</ele><time>2026-04-19T10:34:34.999Z</time></trkpt><trkpt lat="43.70714" lon="12.9844262"><ele>226.0</ele><time>2026-04-19T10:34:36Z</time></trkpt><trkpt lat="43.7070335" lon="12.9842547"><ele>225.66666666666666</ele><time>2026-04-19T10:34:37Z</time></trkpt><trkpt lat="43.7069273" lon="12.9840851"><ele>225.33333333333331</ele><time>2026-04-19T10:34:38Z</time></trkpt><trkpt lat="43.706824" lon="12.9839144"><ele>225.0</ele><time>2026-04-19T10:34:39Z</time></trkpt><trkpt lat="43.7067182" lon="12.9837381"><ele>226.0</ele><time>2026-04-19T10:34:40Z</time></trkpt><trkpt lat="43.7066128" lon="12.983558"><ele>227.0</ele><time>2026-04-19T10:34:41Z</time></trkpt><trkpt lat="43.7065103" lon="12.9833736"><ele>228.0</ele><time>2026-04-19T10:34:42Z</time></trkpt><trkpt lat="43.7064039" lon="12.9831825"><ele>228.0</ele><time>2026-04-19T10:34:42.999Z</time></trkpt><trkpt lat="43.7062963" lon="12.9829882"><ele>228.0</ele><time>2026-04-19T10:34:44Z</time></trkpt><trkpt lat="43.7061781" lon="12.9827918"><ele>228.0</ele><time>2026-04-19T10:34:45Z</time></trkpt><trkpt lat="43.706062" lon="12.9826031"><ele>229.66666666666669</ele><time>2026-04-19T10:34:46Z</time></trkpt><trkpt lat="43.7059461" lon="12.9824315"><ele>231.33333333333334</ele><time>2026-04-19T10:34:47Z</time></trkpt><trkpt lat="43.7058188" lon="12.9822703"><ele>233.0</ele><time>2026-04-19T10:34:48Z</time></trkpt><trkpt lat="43.7056855" lon="12.982133"><ele>233.0</ele><time>2026-04-19T10:34:48.999Z</time></trkpt><trkpt lat="43.7055522" lon="12.9820063"><ele>233.0</ele><time>2026-04-19T10:34:50Z</time></trkpt><trkpt lat="43.7054006" lon="12.9818785"><ele>233.0</ele><time>2026-04-19T10:34:51Z</time></trkpt><trkpt lat="43.7052466" lon="12.9817564"><ele>231.0</ele><time>2026-04-19T10:34:52Z</time></trkpt><trkpt lat="43.7050956" lon="12.9816302"><ele>229.0</ele><time>2026-04-19T10:34:53Z</time></trkpt><trkpt lat="43.704941" lon="12.9814943"><ele>227.0</ele><time>2026-04-19T10:34:54Z</time></trkpt><trkpt lat="43.7047898" lon="12.981368"><ele>227.0</ele><time>2026-04-19T10:34:55Z</time></trkpt><trkpt lat="43.7046383" lon="12.9812424"><ele>227.0</ele><time>2026-04-19T10:34:56Z</time></trkpt><trkpt lat="43.7044861" lon="12.9811187"><ele>227.0</ele><time>2026-04-19T10:34:57Z</time></trkpt><trkpt lat="43.7043337" lon="12.9809963"><ele>225.0</ele><time>2026-04-19T10:34:58Z</time></trkpt><trkpt lat="43.7041845" lon="12.9808698"><ele>223.0</ele><time>2026-04-19T10:34:59Z</time></trkpt><trkpt lat="43.7040339" lon="12.9807432"><ele>221.0</ele><time>2026-04-19T10:35:00Z</time></trkpt><trkpt lat="43.7038798" lon="12.9806091"><ele>220.33333333333334</ele><time>2026-04-19T10:35:01Z</time></trkpt><trkpt lat="43.7037281" lon="12.9804723"><ele>219.66666666666669</ele><time>2026-04-19T10:35:02Z</time></trkpt><trkpt lat="43.7035757" lon="12.9803307"><ele>219.0</ele><time>2026-04-19T10:35:03Z</time></trkpt><trkpt lat="43.703429" lon="12.9801903"><ele>218.0</ele><time>2026-04-19T10:35:04Z</time></trkpt><trkpt lat="43.7032786" lon="12.9800455"><ele>217.0</ele><time>2026-04-19T10:35:05Z</time></trkpt><trkpt lat="43.7031355" lon="12.9798909"><ele>216.0</ele><time>2026-04-19T10:35:06Z</time></trkpt><trkpt lat="43.7029961" lon="12.9797372"><ele>216.0</ele><time>2026-04-19T10:35:07Z</time></trkpt><trkpt lat="43.7028565" lon="12.9795812"><ele>216.0</ele><time>2026-04-19T10:35:08Z</time></trkpt><trkpt lat="43.7027221" lon="12.9794239"><ele>216.0</ele><time>2026-04-19T10:35:08.999Z</time></trkpt><trkpt lat="43.7025881" lon="12.9792731"><ele>216.66666666666669</ele><time>2026-04-19T10:35:10Z</time></trkpt><trkpt lat="43.7024531" lon="12.9791224"><ele>217.33333333333334</ele><time>2026-04-19T10:35:11Z</time></trkpt><trkpt lat="43.7023227" lon="12.9789734"><ele>218.0</ele><time>2026-04-19T10:35:12Z</time></trkpt><trkpt lat="43.7021924" lon="12.9788183"><ele>218.0</ele><time>2026-04-19T10:35:13Z</time></trkpt><trkpt lat="43.7020616" lon="12.9786829"><ele>218.0</ele><time>2026-04-19T10:35:14Z</time></trkpt><trkpt lat="43.7019357" lon="12.9785378"><ele>218.0</ele><time>2026-04-19T10:35:15Z</time></trkpt><trkpt lat="43.7018117" lon="12.9783894"><ele>219.0</ele><time>2026-04-19T10:35:16Z</time></trkpt><trkpt lat="43.7016909" lon="12.9782607"><ele>220.0</ele><time>2026-04-19T10:35:17Z</time></trkpt><trkpt lat="43.7015599" lon="12.9781297"><ele>221.0</ele><time>2026-04-19T10:35:18Z</time></trkpt><trkpt lat="43.7014227" lon="12.9780132"><ele>221.0</ele><time>2026-04-19T10:35:19Z</time></trkpt><trkpt lat="43.7012836" lon="12.9779134"><ele>221.0</ele><time>2026-04-19T10:35:20Z</time></trkpt><trkpt lat="43.7011331" lon="12.9778363"><ele>221.0</ele><time>2026-04-19T10:35:21Z</time></trkpt><trkpt lat="43.7009796" lon="12.9777844"><ele>220.5</ele><time>2026-04-19T10:35:22Z</time></trkpt><trkpt lat="43.7008311" lon="12.9777608"><ele>220.0</ele><time>2026-04-19T10:35:23Z</time></trkpt><trkpt lat="43.7006807" lon="12.9777606"><ele>219.5</ele><time>2026-04-19T10:35:24Z</time></trkpt><trkpt lat="43.7005324" lon="12.9777835"><ele>219.0</ele><time>2026-04-19T10:35:25Z</time></trkpt><trkpt lat="43.700385" lon="12.9778206"><ele>219.0</ele><time>2026-04-19T10:35:26Z</time></trkpt><trkpt lat="43.7002359" lon="12.9778691"><ele>219.0</ele><time>2026-04-19T10:35:27Z</time></trkpt><trkpt lat="43.7000842" lon="12.9779226"><ele>219.0</ele><time>2026-04-19T10:35:28Z</time></trkpt><trkpt lat="43.6999301" lon="12.9779771"><ele>219.0</ele><time>2026-04-19T10:35:29Z</time></trkpt><trkpt lat="43.6997732" lon="12.97803"><ele>219.0</ele><time>2026-04-19T10:35:30Z</time></trkpt><trkpt lat="43.699617" lon="12.9780823"><ele>219.0</ele><time>2026-04-19T10:35:31Z</time></trkpt><trkpt lat="43.6994544" lon="12.9781434"><ele>217.66666666666669</ele><time>2026-04-19T10:35:32Z</time></trkpt><trkpt lat="43.6992925" lon="12.978203"><ele>216.33333333333334</ele><time>2026-04-19T10:35:33Z</time></trkpt><trkpt lat="43.6991311" lon="12.9782592"><ele>215.0</ele><time>2026-04-19T10:35:34Z</time></trkpt><trkpt lat="43.6989673" lon="12.9783145"><ele>212.33333333333334</ele><time>2026-04-19T10:35:35Z</time></trkpt><trkpt lat="43.6988079" lon="12.9783731"><ele>209.66666666666669</ele><time>2026-04-19T10:35:36Z</time></trkpt><trkpt lat="43.6986422" lon="12.9784342"><ele>207.0</ele><time>2026-04-19T10:35:37Z</time></trkpt><trkpt lat="43.6984829" lon="12.9784916"><ele>206.33333333333331</ele><time>2026-04-19T10:35:37.999Z</time></trkpt><trkpt lat="43.6983248" lon="12.9785353"><ele>205.66666666666666</ele><time>2026-04-19T10:35:39Z</time></trkpt><trkpt lat="43.6981671" lon="12.9785804"><ele>205.0</ele><time>2026-04-19T10:35:40Z</time></trkpt><trkpt lat="43.6980105" lon="12.9786162"><ele>205.0</ele><time>2026-04-19T10:35:41Z</time></trkpt><trkpt lat="43.6978537" lon="12.9786492"><ele>205.0</ele><time>2026-04-19T10:35:42Z</time></trkpt><trkpt lat="43.6976923" lon="12.9786723"><ele>205.0</ele><time>2026-04-19T10:35:43Z</time></trkpt><trkpt lat="43.6975294" lon="12.9786829"><ele>205.0</ele><time>2026-04-19T10:35:44Z</time></trkpt><trkpt lat="43.6973633" lon="12.978681"><ele>205.0</ele><time>2026-04-19T10:35:45Z</time></trkpt><trkpt lat="43.6971991" lon="12.9786829"><ele>205.0</ele><time>2026-04-19T10:35:46Z</time></trkpt><trkpt lat="43.6970333" lon="12.9786807"><ele>204.66666666666666</ele><time>2026-04-19T10:35:47Z</time></trkpt><trkpt lat="43.6968662" lon="12.9786758"><ele>204.33333333333331</ele><time>2026-04-19T10:35:48Z</time></trkpt><trkpt lat="43.696699" lon="12.9786719"><ele>204.0</ele><time>2026-04-19T10:35:49Z</time></trkpt><trkpt lat="43.6965302" lon="12.9786725"><ele>204.0</ele><time>2026-04-19T10:35:50Z</time></trkpt><trkpt lat="43.6963616" lon="12.9786675"><ele>204.0</ele><time>2026-04-19T10:35:51Z</time></trkpt><trkpt lat="43.6961946" lon="12.9786665"><ele>204.0</ele><time>2026-04-19T10:35:52Z</time></trkpt><trkpt lat="43.696022" lon="12.9786752"><ele>205.66666666666669</ele><time>2026-04-19T10:35:53Z</time></trkpt><trkpt lat="43.6958511" lon="12.9786891"><ele>207.33333333333334</ele><time>2026-04-19T10:35:54Z</time></trkpt><trkpt lat="43.6956836" lon="12.978714"><ele>209.0</ele><time>2026-04-19T10:35:55Z</time></trkpt><trkpt lat="43.6955165" lon="12.9787429"><ele>209.0</ele><time>2026-04-19T10:35:56Z</time></trkpt><trkpt lat="43.6953509" lon="12.9787815"><ele>209.0</ele><time>2026-04-19T10:35:57Z</time></trkpt><trkpt lat="43.6951943" lon="12.978809"><ele>209.0</ele><time>2026-04-19T10:35:58Z</time></trkpt><trkpt lat="43.6950488" lon="12.9788424"><ele>210.0</ele><time>2026-04-19T10:35:59Z</time></trkpt><trkpt lat="43.694914" lon="12.9788703"><ele>211.0</ele><time>2026-04-19T10:36:00Z</time></trkpt><trkpt lat="43.694801" lon="12.9788825"><ele>211.99999999999997</ele><time>2026-04-19T10:36:01Z</time></trkpt><trkpt lat="43.694696" lon="12.9789044"><ele>213.0</ele><time>2026-04-19T10:36:02Z</time></trkpt><trkpt lat="43.6946104" lon="12.97892"><ele>214.0</ele><time>2026-04-19T10:36:02.999Z</time></trkpt><trkpt lat="43.69453" lon="12.9789368"><ele>214.0</ele><time>2026-04-19T10:36:04Z</time></trkpt><trkpt lat="43.6944647" lon="12.9789453"><ele>213.99999999999997</ele><time>2026-04-19T10:36:05Z</time></trkpt><trkpt lat="43.6943688" lon="12.9789586"><ele>213.99999999999997</ele><time>2026-04-19T10:36:07Z</time></trkpt><trkpt lat="43.6943001" lon="12.9790923"><ele>214.0</ele><time>2026-04-19T10:36:09Z</time></trkpt><trkpt lat="43.6942638" lon="12.9792001"><ele>214.0</ele><time>2026-04-19T10:36:10Z</time></trkpt><trkpt lat="43.6942149" lon="12.9793103"><ele>215.25</ele><time>2026-04-19T10:36:10.999Z</time></trkpt><trkpt lat="43.6941585" lon="12.9794307"><ele>216.5</ele><time>2026-04-19T10:36:12Z</time></trkpt><trkpt lat="43.6940936" lon="12.9795688"><ele>217.75</ele><time>2026-04-19T10:36:13Z</time></trkpt><trkpt lat="43.6940187" lon="12.9797213"><ele>219.0</ele><time>2026-04-19T10:36:14Z</time></trkpt><trkpt lat="43.6939462" lon="12.979881"><ele>216.5</ele><time>2026-04-19T10:36:15Z</time></trkpt><trkpt lat="43.6938681" lon="12.9800458"><ele>214.0</ele><time>2026-04-19T10:36:16Z</time></trkpt><trkpt lat="43.6937854" lon="12.9802146"><ele>211.5</ele><time>2026-04-19T10:36:17Z</time></trkpt><trkpt lat="43.6937014" lon="12.9803923"><ele>209.0</ele><time>2026-04-19T10:36:18Z</time></trkpt><trkpt lat="43.6936219" lon="12.9805608"><ele>209.5</ele><time>2026-04-19T10:36:19Z</time></trkpt><trkpt lat="43.6935379" lon="12.9807232"><ele>210.0</ele><time>2026-04-19T10:36:20Z</time></trkpt><trkpt lat="43.6934429" lon="12.9808543"><ele>210.5</ele><time>2026-04-19T10:36:21Z</time></trkpt><trkpt lat="43.6933307" lon="12.9809627"><ele>211.0</ele><time>2026-04-19T10:36:22Z</time></trkpt><trkpt lat="43.6932067" lon="12.9810537"><ele>211.0</ele><time>2026-04-19T10:36:23Z</time></trkpt><trkpt lat="43.6930689" lon="12.9811029"><ele>211.0</ele><time>2026-04-19T10:36:24Z</time></trkpt><trkpt lat="43.6929285" lon="12.9810916"><ele>211.0</ele><time>2026-04-19T10:36:25Z</time></trkpt><trkpt lat="43.6927854" lon="12.9810887"><ele>211.0</ele><time>2026-04-19T10:36:26Z</time></trkpt><trkpt lat="43.6926404" lon="12.9810953"><ele>213.75</ele><time>2026-04-19T10:36:27Z</time></trkpt><trkpt lat="43.6924906" lon="12.9811033"><ele>216.5</ele><time>2026-04-19T10:36:28Z</time></trkpt><trkpt lat="43.6923425" lon="12.9811063"><ele>219.25</ele><time>2026-04-19T10:36:29Z</time></trkpt><trkpt lat="43.6922017" lon="12.9811097"><ele>222.0</ele><time>2026-04-19T10:36:30Z</time></trkpt><trkpt lat="43.6920704" lon="12.9811148"><ele>222.0</ele><time>2026-04-19T10:36:31Z</time></trkpt><trkpt lat="43.691954" lon="12.9811187"><ele>222.0</ele><time>2026-04-19T10:36:32Z</time></trkpt><trkpt lat="43.6918581" lon="12.9811181"><ele>222.0</ele><time>2026-04-19T10:36:33Z</time></trkpt><trkpt lat="43.6917891" lon="12.9811212"><ele>222.0</ele><time>2026-04-19T10:36:34Z</time></trkpt><trkpt lat="43.6917136" lon="12.9811333"><ele>222.0</ele><time>2026-04-19T10:36:36Z</time></trkpt><trkpt lat="43.6916651" lon="12.9812139"><ele>222.0</ele><time>2026-04-19T10:36:43Z</time></trkpt><trkpt lat="43.6916748" lon="12.9813928"><ele>223.75</ele><time>2026-04-19T10:36:45Z</time></trkpt><trkpt lat="43.6916805" lon="12.9815222"><ele>225.5</ele><time>2026-04-19T10:36:46Z</time></trkpt><trkpt lat="43.6916836" lon="12.9816708"><ele>227.25</ele><time>2026-04-19T10:36:47Z</time></trkpt><trkpt lat="43.6916856" lon="12.9818423"><ele>229.0</ele><time>2026-04-19T10:36:48Z</time></trkpt><trkpt lat="43.6916869" lon="12.9820205"><ele>229.0</ele><time>2026-04-19T10:36:49Z</time></trkpt><trkpt lat="43.6916872" lon="12.9822127"><ele>229.0</ele><time>2026-04-19T10:36:50Z</time></trkpt><trkpt lat="43.6916823" lon="12.9824142"><ele>229.0</ele><time>2026-04-19T10:36:51Z</time></trkpt><trkpt lat="43.69168" lon="12.982632"><ele>229.0</ele><time>2026-04-19T10:36:52Z</time></trkpt><trkpt lat="43.6916771" lon="12.9828491"><ele>228.0</ele><time>2026-04-19T10:36:53Z</time></trkpt><trkpt lat="43.6916729" lon="12.9830665"><ele>227.0</ele><time>2026-04-19T10:36:53.999Z</time></trkpt><trkpt lat="43.6916674" lon="12.9832866"><ele>226.0</ele><time>2026-04-19T10:36:55Z</time></trkpt><trkpt lat="43.6916584" lon="12.9835132"><ele>225.66666666666666</ele><time>2026-04-19T10:36:56Z</time></trkpt><trkpt lat="43.6916349" lon="12.9837338"><ele>225.33333333333331</ele><time>2026-04-19T10:36:57Z</time></trkpt><trkpt lat="43.6915968" lon="12.9839583"><ele>225.0</ele><time>2026-04-19T10:36:58Z</time></trkpt><trkpt lat="43.6915415" lon="12.9841748"><ele>226.0</ele><time>2026-04-19T10:36:59Z</time></trkpt><trkpt lat="43.6914684" lon="12.984383"><ele>227.0</ele><time>2026-04-19T10:37:00Z</time></trkpt><trkpt lat="43.6913901" lon="12.9845928"><ele>228.0</ele><time>2026-04-19T10:37:00.999Z</time></trkpt><trkpt lat="43.6913091" lon="12.9847996"><ele>228.0</ele><time>2026-04-19T10:37:02Z</time></trkpt><trkpt lat="43.6912252" lon="12.9849976"><ele>228.0</ele><time>2026-04-19T10:37:03Z</time></trkpt><trkpt lat="43.6911416" lon="12.9851913"><ele>228.0</ele><time>2026-04-19T10:37:04Z</time></trkpt><trkpt lat="43.6910567" lon="12.9853819"><ele>227.33333333333331</ele><time>2026-04-19T10:37:05Z</time></trkpt><trkpt lat="43.6909763" lon="12.9855665"><ele>226.66666666666666</ele><time>2026-04-19T10:37:05.999Z</time></trkpt><trkpt lat="43.6908887" lon="12.9857557"><ele>226.0</ele><time>2026-04-19T10:37:07Z</time></trkpt><trkpt lat="43.6908012" lon="12.9859417"><ele>224.5</ele><time>2026-04-19T10:37:08Z</time></trkpt><trkpt lat="43.6907233" lon="12.986117"><ele>223.0</ele><time>2026-04-19T10:37:09Z</time></trkpt><trkpt lat="43.6906389" lon="12.9862855"><ele>221.5</ele><time>2026-04-19T10:37:10Z</time></trkpt><trkpt lat="43.6905457" lon="12.9864524"><ele>220.0</ele><time>2026-04-19T10:37:11Z</time></trkpt><trkpt lat="43.6904327" lon="12.9866082"><ele>217.66666666666666</ele><time>2026-04-19T10:37:12Z</time></trkpt><trkpt lat="43.6903052" lon="12.9867485"><ele>215.33333333333331</ele><time>2026-04-19T10:37:13Z</time></trkpt><trkpt lat="43.6901655" lon="12.9868658"><ele>213.0</ele><time>2026-04-19T10:37:14Z</time></trkpt><trkpt lat="43.6900148" lon="12.9869726"><ele>212.66666666666669</ele><time>2026-04-19T10:37:15Z</time></trkpt><trkpt lat="43.6898564" lon="12.987063"><ele>212.33333333333334</ele><time>2026-04-19T10:37:15.999Z</time></trkpt><trkpt lat="43.689703" lon="12.9871511"><ele>212.0</ele><time>2026-04-19T10:37:17Z</time></trkpt><trkpt lat="43.689552" lon="12.9872405"><ele>213.0</ele><time>2026-04-19T10:37:18Z</time></trkpt><trkpt lat="43.6893992" lon="12.987335"><ele>214.0</ele><time>2026-04-19T10:37:19Z</time></trkpt><trkpt lat="43.6892469" lon="12.9874266"><ele>215.0</ele><time>2026-04-19T10:37:20Z</time></trkpt><trkpt lat="43.6891007" lon="12.9875268"><ele>212.33333333333334</ele><time>2026-04-19T10:37:21Z</time></trkpt><trkpt lat="43.688958" lon="12.9876441"><ele>209.66666666666669</ele><time>2026-04-19T10:37:22Z</time></trkpt><trkpt lat="43.6888239" lon="12.9877851"><ele>207.0</ele><time>2026-04-19T10:37:23Z</time></trkpt><trkpt lat="43.6887016" lon="12.9879405"><ele>207.66666666666669</ele><time>2026-04-19T10:37:24Z</time></trkpt><trkpt lat="43.6885851" lon="12.9881048"><ele>208.33333333333334</ele><time>2026-04-19T10:37:25Z</time></trkpt><trkpt lat="43.6884751" lon="12.9882702"><ele>209.0</ele><time>2026-04-19T10:37:26Z</time></trkpt><trkpt lat="43.6883711" lon="12.988453"><ele>207.66666666666669</ele><time>2026-04-19T10:37:27Z</time></trkpt><trkpt lat="43.6882649" lon="12.9886302"><ele>206.33333333333331</ele><time>2026-04-19T10:37:28Z</time></trkpt><trkpt lat="43.6881597" lon="12.9888095"><ele>205.0</ele><time>2026-04-19T10:37:29Z</time></trkpt><trkpt lat="43.688055" lon="12.9889842"><ele>205.0</ele><time>2026-04-19T10:37:29.999Z</time></trkpt><trkpt lat="43.6879548" lon="12.9891509"><ele>205.0</ele><time>2026-04-19T10:37:31Z</time></trkpt><trkpt lat="43.687852" lon="12.9893192"><ele>205.0</ele><time>2026-04-19T10:37:32Z</time></trkpt><trkpt lat="43.6877485" lon="12.9894921"><ele>203.33333333333331</ele><time>2026-04-19T10:37:33Z</time></trkpt><trkpt lat="43.6876397" lon="12.9896644"><ele>201.66666666666669</ele><time>2026-04-19T10:37:34Z</time></trkpt><trkpt lat="43.6875258" lon="12.9898415"><ele>200.0</ele><time>2026-04-19T10:37:35Z</time></trkpt><trkpt lat="43.6874139" lon="12.9900208"><ele>197.0</ele><time>2026-04-19T10:37:36Z</time></trkpt><trkpt lat="43.6873055" lon="12.9901982"><ele>194.0</ele><time>2026-04-19T10:37:37Z</time></trkpt><trkpt lat="43.6871756" lon="12.9903621"><ele>191.0</ele><time>2026-04-19T10:37:38Z</time></trkpt><trkpt lat="43.6870427" lon="12.9905107"><ele>192.0</ele><time>2026-04-19T10:37:39Z</time></trkpt><trkpt lat="43.6869064" lon="12.9906477"><ele>193.0</ele><time>2026-04-19T10:37:40Z</time></trkpt><trkpt lat="43.6867717" lon="12.9907804"><ele>194.0</ele><time>2026-04-19T10:37:41Z</time></trkpt><trkpt lat="43.6866407" lon="12.9909082"><ele>190.66666666666669</ele><time>2026-04-19T10:37:42Z</time></trkpt><trkpt lat="43.6865022" lon="12.9910361"><ele>187.33333333333334</ele><time>2026-04-19T10:37:43Z</time></trkpt><trkpt lat="43.6863603" lon="12.9911671"><ele>184.0</ele><time>2026-04-19T10:37:44Z</time></trkpt><trkpt lat="43.6862179" lon="12.9912938"><ele>185.33333333333334</ele><time>2026-04-19T10:37:44.999Z</time></trkpt><trkpt lat="43.686075" lon="12.9914252"><ele>186.66666666666666</ele><time>2026-04-19T10:37:46Z</time></trkpt><trkpt lat="43.6859288" lon="12.9915462"><ele>188.0</ele><time>2026-04-19T10:37:47Z</time></trkpt><trkpt lat="43.6857837" lon="12.991654"><ele>184.66666666666666</ele><time>2026-04-19T10:37:48Z</time></trkpt><trkpt lat="43.6856399" lon="12.9917608"><ele>181.33333333333334</ele><time>2026-04-19T10:37:49Z</time></trkpt><trkpt lat="43.6854886" lon="12.9918595"><ele>178.0</ele><time>2026-04-19T10:37:50Z</time></trkpt><trkpt lat="43.6853457" lon="12.9919465"><ele>181.0</ele><time>2026-04-19T10:37:51Z</time></trkpt><trkpt lat="43.6851949" lon="12.9920365"><ele>184.0</ele><time>2026-04-19T10:37:52Z</time></trkpt><trkpt lat="43.6850475" lon="12.9921252"><ele>187.0</ele><time>2026-04-19T10:37:53Z</time></trkpt><trkpt lat="43.6848941" lon="12.9922172"><ele>187.0</ele><time>2026-04-19T10:37:54Z</time></trkpt><trkpt lat="43.6847361" lon="12.9923106"><ele>187.0</ele><time>2026-04-19T10:37:55Z</time></trkpt><trkpt lat="43.6845768" lon="12.9924036"><ele>187.0</ele><time>2026-04-19T10:37:55.999Z</time></trkpt><trkpt lat="43.6844168" lon="12.9924976"><ele>185.33333333333334</ele><time>2026-04-19T10:37:57Z</time></trkpt><trkpt lat="43.6842559" lon="12.9925859"><ele>183.66666666666666</ele><time>2026-04-19T10:37:58Z</time></trkpt><trkpt lat="43.684105" lon="12.9926658"><ele>182.0</ele><time>2026-04-19T10:37:59Z</time></trkpt><trkpt lat="43.6839571" lon="12.9927438"><ele>182.0</ele><time>2026-04-19T10:38:00Z</time></trkpt><trkpt lat="43.6838172" lon="12.992822"><ele>182.0</ele><time>2026-04-19T10:38:01Z</time></trkpt><trkpt lat="43.68369" lon="12.9929024"><ele>182.0</ele><time>2026-04-19T10:38:02Z</time></trkpt><trkpt lat="43.6835713" lon="12.992985"><ele>182.0</ele><time>2026-04-19T10:38:03Z</time></trkpt><trkpt lat="43.6834575" lon="12.9930684"><ele>182.2</ele><time>2026-04-19T10:38:04Z</time></trkpt><trkpt lat="43.68335" lon="12.9931515"><ele>182.39999999999998</ele><time>2026-04-19T10:38:04.999Z</time></trkpt><trkpt lat="43.6832503" lon="12.9932369"><ele>182.60000000000002</ele><time>2026-04-19T10:38:06Z</time></trkpt><trkpt lat="43.6831679" lon="12.9933071"><ele>182.8</ele><time>2026-04-19T10:38:07Z</time></trkpt><trkpt lat="43.6831048" lon="12.9933609"><ele>183.0</ele><time>2026-04-19T10:38:08Z</time></trkpt><trkpt lat="43.6830471" lon="12.9934001"><ele>183.0</ele><time>2026-04-19T10:38:09Z</time></trkpt><trkpt lat="43.6829655" lon="12.9933665"><ele>183.0</ele><time>2026-04-19T10:38:11Z</time></trkpt><trkpt lat="43.6829042" lon="12.9932185"><ele>183.0</ele><time>2026-04-19T10:38:13Z</time></trkpt><trkpt lat="43.6828694" lon="12.9931214"><ele>183.0</ele><time>2026-04-19T10:38:14Z</time></trkpt><trkpt lat="43.6828145" lon="12.9929918"><ele>183.0</ele><time>2026-04-19T10:38:15Z</time></trkpt><trkpt lat="43.6827578" lon="12.9928591"><ele>183.75</ele><time>2026-04-19T10:38:16Z</time></trkpt><trkpt lat="43.6826931" lon="12.9927176"><ele>184.5</ele><time>2026-04-19T10:38:17Z</time></trkpt><trkpt lat="43.6826349" lon="12.9925871"><ele>185.25</ele><time>2026-04-19T10:38:18Z</time></trkpt><trkpt lat="43.6825733" lon="12.9924549"><ele>186.0</ele><time>2026-04-19T10:38:19Z</time></trkpt><trkpt lat="43.682508" lon="12.9923236"><ele>187.0</ele><time>2026-04-19T10:38:19.999Z</time></trkpt><trkpt lat="43.6824346" lon="12.9921991"><ele>188.0</ele><time>2026-04-19T10:38:21Z</time></trkpt><trkpt lat="43.6823618" lon="12.9920817"><ele>189.0</ele><time>2026-04-19T10:38:22Z</time></trkpt><trkpt lat="43.6822873" lon="12.9919601"><ele>190.0</ele><time>2026-04-19T10:38:23Z</time></trkpt><trkpt lat="43.6822172" lon="12.9918407"><ele>190.0</ele><time>2026-04-19T10:38:24Z</time></trkpt><trkpt lat="43.6821495" lon="12.9917234"><ele>190.0</ele><time>2026-04-19T10:38:25Z</time></trkpt><trkpt lat="43.6820893" lon="12.9916268"><ele>190.0</ele><time>2026-04-19T10:38:26Z</time></trkpt><trkpt lat="43.6820286" lon="12.9915368"><ele>190.0</ele><time>2026-04-19T10:38:27Z</time></trkpt><trkpt lat="43.6819701" lon="12.9914579"><ele>190.0</ele><time>2026-04-19T10:38:28Z</time></trkpt><trkpt lat="43.6819087" lon="12.9914079"><ele>190.0</ele><time>2026-04-19T10:38:29Z</time></trkpt><trkpt lat="43.6818398" lon="12.9913945"><ele>191.6</ele><time>2026-04-19T10:38:30Z</time></trkpt><trkpt lat="43.6817667" lon="12.991428"><ele>193.2</ele><time>2026-04-19T10:38:31Z</time></trkpt><trkpt lat="43.6816865" lon="12.9914732"><ele>194.8</ele><time>2026-04-19T10:38:32Z</time></trkpt><trkpt lat="43.6815907" lon="12.9915338"><ele>196.4</ele><time>2026-04-19T10:38:33Z</time></trkpt><trkpt lat="43.681487" lon="12.9915997"><ele>198.0</ele><time>2026-04-19T10:38:34Z</time></trkpt><trkpt lat="43.6813727" lon="12.9916721"><ele>197.5</ele><time>2026-04-19T10:38:35Z</time></trkpt><trkpt lat="43.6812492" lon="12.9917474"><ele>197.0</ele><time>2026-04-19T10:38:36Z</time></trkpt><trkpt lat="43.6811202" lon="12.9918255"><ele>196.5</ele><time>2026-04-19T10:38:37Z</time></trkpt><trkpt lat="43.6810004" lon="12.9919007"><ele>196.0</ele><time>2026-04-19T10:38:38Z</time></trkpt><trkpt lat="43.680883" lon="12.9919791"><ele>198.75</ele><time>2026-04-19T10:38:39Z</time></trkpt><trkpt lat="43.6807934" lon="12.9920786"><ele>201.5</ele><time>2026-04-19T10:38:40Z</time></trkpt><trkpt lat="43.6807174" lon="12.9921873"><ele>204.25</ele><time>2026-04-19T10:38:41Z</time></trkpt><trkpt lat="43.6806432" lon="12.992323"><ele>207.0</ele><time>2026-04-19T10:38:42Z</time></trkpt><trkpt lat="43.6805692" lon="12.992472"><ele>205.25</ele><time>2026-04-19T10:38:43Z</time></trkpt><trkpt lat="43.6804964" lon="12.992636"><ele>203.5</ele><time>2026-04-19T10:38:44Z</time></trkpt><trkpt lat="43.6804224" lon="12.9928074"><ele>201.75</ele><time>2026-04-19T10:38:45Z</time></trkpt><trkpt lat="43.6803475" lon="12.9929814"><ele>200.0</ele><time>2026-04-19T10:38:46Z</time></trkpt><trkpt lat="43.6802729" lon="12.9931564"><ele>203.0</ele><time>2026-04-19T10:38:47Z</time></trkpt><trkpt lat="43.6801996" lon="12.9933157"><ele>206.0</ele><time>2026-04-19T10:38:48Z</time></trkpt><trkpt lat="43.6801281" lon="12.9934526"><ele>209.0</ele><time>2026-04-19T10:38:49Z</time></trkpt><trkpt lat="43.6800605" lon="12.9935743"><ele>212.0</ele><time>2026-04-19T10:38:50Z</time></trkpt><trkpt lat="43.6799993" lon="12.9936737"><ele>212.0</ele><time>2026-04-19T10:38:51Z</time></trkpt><trkpt lat="43.6799509" lon="12.9937478"><ele>212.0</ele><time>2026-04-19T10:38:52Z</time></trkpt><trkpt lat="43.6798624" lon="12.9938323"><ele>212.0</ele><time>2026-04-19T10:38:54Z</time></trkpt><trkpt lat="43.6797909" lon="12.9938654"><ele>212.0</ele><time>2026-04-19T10:38:56Z</time></trkpt><trkpt lat="43.6797711" lon="12.9940015"><ele>212.0</ele><time>2026-04-19T10:38:59Z</time></trkpt><trkpt lat="43.6797636" lon="12.994164"><ele>210.83333333333334</ele><time>2026-04-19T10:39:01Z</time></trkpt><trkpt lat="43.6797298" lon="12.9943311"><ele>209.66666666666669</ele><time>2026-04-19T10:39:03Z</time></trkpt><trkpt lat="43.6797138" lon="12.994418"><ele>208.5</ele><time>2026-04-19T10:39:04Z</time></trkpt><trkpt lat="43.6796891" lon="12.994509"><ele>207.33333333333331</ele><time>2026-04-19T10:39:05Z</time></trkpt><trkpt lat="43.6796695" lon="12.9946007"><ele>206.16666666666666</ele><time>2026-04-19T10:39:06Z</time></trkpt><trkpt lat="43.6796528" lon="12.9946854"><ele>205.0</ele><time>2026-04-19T10:39:07Z</time></trkpt><trkpt lat="43.6796154" lon="12.9948561"><ele>204.16666666666666</ele><time>2026-04-19T10:39:09Z</time></trkpt><trkpt lat="43.6795609" lon="12.9950156"><ele>203.33333333333331</ele><time>2026-04-19T10:39:11Z</time></trkpt><trkpt lat="43.6795264" lon="12.9950928"><ele>202.5</ele><time>2026-04-19T10:39:12Z</time></trkpt><trkpt lat="43.6794833" lon="12.9951848"><ele>201.66666666666669</ele><time>2026-04-19T10:39:13Z</time></trkpt><trkpt lat="43.6794359" lon="12.9952831"><ele>200.83333333333334</ele><time>2026-04-19T10:39:14Z</time></trkpt><trkpt lat="43.6794" lon="12.9953948"><ele>200.0</ele><time>2026-04-19T10:39:15Z</time></trkpt><trkpt lat="43.6793725" lon="12.9955081"><ele>200.00000000000003</ele><time>2026-04-19T10:39:16Z</time></trkpt><trkpt lat="43.6793464" lon="12.9956207"><ele>200.0</ele><time>2026-04-19T10:39:17Z</time></trkpt><trkpt lat="43.679324" lon="12.9957261"><ele>200.0</ele><time>2026-04-19T10:39:17.999Z</time></trkpt><trkpt lat="43.6793031" lon="12.9958293"><ele>200.0</ele><time>2026-04-19T10:39:19Z</time></trkpt><trkpt lat="43.6792857" lon="12.9959285"><ele>200.00000000000003</ele><time>2026-04-19T10:39:19.999Z</time></trkpt><trkpt lat="43.6792719" lon="12.9960316"><ele>200.0</ele><time>2026-04-19T10:39:21Z</time></trkpt><trkpt lat="43.679271" lon="12.9961468"><ele>199.2</ele><time>2026-04-19T10:39:22Z</time></trkpt><trkpt lat="43.6792705" lon="12.9962757"><ele>198.4</ele><time>2026-04-19T10:39:23Z</time></trkpt><trkpt lat="43.6792727" lon="12.9963917"><ele>197.60000000000002</ele><time>2026-04-19T10:39:24Z</time></trkpt><trkpt lat="43.6792854" lon="12.9965133"><ele>196.8</ele><time>2026-04-19T10:39:25Z</time></trkpt><trkpt lat="43.6792995" lon="12.9966418"><ele>196.0</ele><time>2026-04-19T10:39:26Z</time></trkpt><trkpt lat="43.679317" lon="12.9967672"><ele>195.83333333333331</ele><time>2026-04-19T10:39:27Z</time></trkpt><trkpt lat="43.6793328" lon="12.9968956"><ele>195.66666666666666</ele><time>2026-04-19T10:39:28Z</time></trkpt><trkpt lat="43.6793434" lon="12.9970177"><ele>195.5</ele><time>2026-04-19T10:39:29Z</time></trkpt><trkpt lat="43.6793508" lon="12.9971296"><ele>195.33333333333331</ele><time>2026-04-19T10:39:30Z</time></trkpt><trkpt lat="43.6793536" lon="12.9972341"><ele>195.16666666666666</ele><time>2026-04-19T10:39:31Z</time></trkpt><trkpt lat="43.6793618" lon="12.9973274"><ele>195.0</ele><time>2026-04-19T10:39:32Z</time></trkpt><trkpt lat="43.6793665" lon="12.9974252"><ele>195.2</ele><time>2026-04-19T10:39:33Z</time></trkpt><trkpt lat="43.6793658" lon="12.997514"><ele>195.4</ele><time>2026-04-19T10:39:34Z</time></trkpt><trkpt lat="43.6793596" lon="12.9976777"><ele>195.60000000000002</ele><time>2026-04-19T10:39:36Z</time></trkpt><trkpt lat="43.6793564" lon="12.9978368"><ele>195.8</ele><time>2026-04-19T10:39:37.999Z</time></trkpt><trkpt lat="43.6793512" lon="12.9979917"><ele>196.0</ele><time>2026-04-19T10:39:40Z</time></trkpt><trkpt lat="43.6793417" lon="12.9981256"><ele>196.0</ele><time>2026-04-19T10:39:42Z</time></trkpt><trkpt lat="43.6793379" lon="12.9982203"><ele>196.0</ele><time>2026-04-19T10:39:45Z</time></trkpt><trkpt lat="43.6793343" lon="12.9983576"><ele>196.0</ele><time>2026-04-19T10:39:48Z</time></trkpt><trkpt lat="43.679328" lon="12.9984952"><ele>196.0</ele><time>2026-04-19T10:39:50Z</time></trkpt><trkpt lat="43.6793182" lon="12.9986552"><ele>196.0</ele><time>2026-04-19T10:39:52Z</time></trkpt><trkpt lat="43.6793034" lon="12.9988066"><ele>195.20000000000002</ele><time>2026-04-19T10:39:54Z</time></trkpt><trkpt lat="43.679289" lon="12.9989458"><ele>194.4</ele><time>2026-04-19T10:39:56Z</time></trkpt><trkpt lat="43.679272" lon="12.9990963"><ele>193.6</ele><time>2026-04-19T10:39:58Z</time></trkpt><trkpt lat="43.6792555" lon="12.9992531"><ele>192.8</ele><time>2026-04-19T10:40:00Z</time></trkpt><trkpt lat="43.6792326" lon="12.9994185"><ele>192.0</ele><time>2026-04-19T10:40:02Z</time></trkpt><trkpt lat="43.6792136" lon="12.9995068"><ele>191.0</ele><time>2026-04-19T10:40:03Z</time></trkpt><trkpt lat="43.6791903" lon="12.9995983"><ele>190.0</ele><time>2026-04-19T10:40:04Z</time></trkpt><trkpt lat="43.6791657" lon="12.9996921"><ele>189.0</ele><time>2026-04-19T10:40:05Z</time></trkpt><trkpt lat="43.6791375" lon="12.9997857"><ele>188.0</ele><time>2026-04-19T10:40:06Z</time></trkpt><trkpt lat="43.6791072" lon="12.9998813"><ele>187.0</ele><time>2026-04-19T10:40:07Z</time></trkpt><trkpt lat="43.679073" lon="12.9999844"><ele>186.0</ele><time>2026-04-19T10:40:08Z</time></trkpt><trkpt lat="43.6790346" lon="13.0000926"><ele>186.0</ele><time>2026-04-19T10:40:09Z</time></trkpt><trkpt lat="43.678992" lon="13.0002006"><ele>186.0</ele><time>2026-04-19T10:40:10Z</time></trkpt><trkpt lat="43.6789459" lon="13.0003076"><ele>186.0</ele><time>2026-04-19T10:40:11Z</time></trkpt><trkpt lat="43.6788976" lon="13.0004158"><ele>186.0</ele><time>2026-04-19T10:40:12Z</time></trkpt><trkpt lat="43.678847" lon="13.0005236"><ele>186.0</ele><time>2026-04-19T10:40:13Z</time></trkpt><trkpt lat="43.6787983" lon="13.0006218"><ele>186.0</ele><time>2026-04-19T10:40:14Z</time></trkpt><trkpt lat="43.6787529" lon="13.0007272"><ele>186.0</ele><time>2026-04-19T10:40:14.999Z</time></trkpt><trkpt lat="43.6787013" lon="13.000831"><ele>186.0</ele><time>2026-04-19T10:40:16Z</time></trkpt><trkpt lat="43.6786469" lon="13.0009286"><ele>186.0</ele><time>2026-04-19T10:40:17Z</time></trkpt><trkpt lat="43.6785886" lon="13.001025"><ele>186.0</ele><time>2026-04-19T10:40:18Z</time></trkpt><trkpt lat="43.6785327" lon="13.0011132"><ele>186.0</ele><time>2026-04-19T10:40:19Z</time></trkpt><trkpt lat="43.6784745" lon="13.0012035"><ele>184.83333333333334</ele><time>2026-04-19T10:40:20Z</time></trkpt><trkpt lat="43.6784161" lon="13.0012941"><ele>183.66666666666666</ele><time>2026-04-19T10:40:21Z</time></trkpt><trkpt lat="43.6783561" lon="13.0013882"><ele>182.5</ele><time>2026-04-19T10:40:22Z</time></trkpt><trkpt lat="43.6782971" lon="13.0014767"><ele>181.33333333333331</ele><time>2026-04-19T10:40:23Z</time></trkpt><trkpt lat="43.6782379" lon="13.0015603"><ele>180.16666666666666</ele><time>2026-04-19T10:40:24Z</time></trkpt><trkpt lat="43.6781777" lon="13.0016453"><ele>179.0</ele><time>2026-04-19T10:40:25Z</time></trkpt><trkpt lat="43.678112" lon="13.001734"><ele>179.0</ele><time>2026-04-19T10:40:26Z</time></trkpt><trkpt lat="43.678047" lon="13.0018292"><ele>179.0</ele><time>2026-04-19T10:40:27Z</time></trkpt><trkpt lat="43.6779814" lon="13.0019189"><ele>179.0</ele><time>2026-04-19T10:40:28Z</time></trkpt><trkpt lat="43.6779148" lon="13.0020087"><ele>179.0</ele><time>2026-04-19T10:40:29Z</time></trkpt><trkpt lat="43.6778463" lon="13.0020993"><ele>179.0</ele><time>2026-04-19T10:40:30Z</time></trkpt><trkpt lat="43.6777746" lon="13.002192"><ele>179.2</ele><time>2026-04-19T10:40:31Z</time></trkpt><trkpt lat="43.677699" lon="13.0022927"><ele>179.39999999999998</ele><time>2026-04-19T10:40:32Z</time></trkpt><trkpt lat="43.6776148" lon="13.0023961"><ele>179.6</ele><time>2026-04-19T10:40:33Z</time></trkpt><trkpt lat="43.6775282" lon="13.0024974"><ele>179.8</ele><time>2026-04-19T10:40:34Z</time></trkpt><trkpt lat="43.6774443" lon="13.0025807"><ele>180.0</ele><time>2026-04-19T10:40:35Z</time></trkpt><trkpt lat="43.6773584" lon="13.0026499"><ele>180.0</ele><time>2026-04-19T10:40:36Z</time></trkpt><trkpt lat="43.6772743" lon="13.0027082"><ele>180.0</ele><time>2026-04-19T10:40:36.999Z</time></trkpt><trkpt lat="43.6771886" lon="13.0027632"><ele>180.0</ele><time>2026-04-19T10:40:38Z</time></trkpt><trkpt lat="43.6770984" lon="13.0028271"><ele>180.0</ele><time>2026-04-19T10:40:39Z</time></trkpt><trkpt lat="43.6769972" lon="13.0028997"><ele>180.0</ele><time>2026-04-19T10:40:40Z</time></trkpt><trkpt lat="43.6768849" lon="13.0029729"><ele>179.0</ele><time>2026-04-19T10:40:41Z</time></trkpt><trkpt lat="43.6767684" lon="13.0030476"><ele>178.0</ele><time>2026-04-19T10:40:42Z</time></trkpt><trkpt lat="43.6766509" lon="13.0031247"><ele>177.0</ele><time>2026-04-19T10:40:43Z</time></trkpt><trkpt lat="43.6765294" lon="13.0031985"><ele>176.0</ele><time>2026-04-19T10:40:44Z</time></trkpt><trkpt lat="43.6764099" lon="13.0032722"><ele>175.5</ele><time>2026-04-19T10:40:45Z</time></trkpt><trkpt lat="43.6762964" lon="13.0033418"><ele>175.0</ele><time>2026-04-19T10:40:46Z</time></trkpt><trkpt lat="43.676191" lon="13.003407"><ele>174.5</ele><time>2026-04-19T10:40:47Z</time></trkpt><trkpt lat="43.6760867" lon="13.0034736"><ele>174.0</ele><time>2026-04-19T10:40:48Z</time></trkpt><trkpt lat="43.6759761" lon="13.0035423"><ele>173.5</ele><time>2026-04-19T10:40:49Z</time></trkpt><trkpt lat="43.6758621" lon="13.0036139"><ele>173.0</ele><time>2026-04-19T10:40:50Z</time></trkpt><trkpt lat="43.6757453" lon="13.0036903"><ele>172.5</ele><time>2026-04-19T10:40:50.999Z</time></trkpt><trkpt lat="43.6756247" lon="13.003766"><ele>172.0</ele><time>2026-04-19T10:40:52Z</time></trkpt><trkpt lat="43.675502" lon="13.0038424"><ele>172.0</ele><time>2026-04-19T10:40:53Z</time></trkpt><trkpt lat="43.6753797" lon="13.0039174"><ele>172.0</ele><time>2026-04-19T10:40:54Z</time></trkpt><trkpt lat="43.6752596" lon="13.0039912"><ele>172.0</ele><time>2026-04-19T10:40:55Z</time></trkpt><trkpt lat="43.6751416" lon="13.004069"><ele>172.0</ele><time>2026-04-19T10:40:56Z</time></trkpt><trkpt lat="43.6750249" lon="13.0041425"><ele>170.75</ele><time>2026-04-19T10:40:57Z</time></trkpt><trkpt lat="43.6749141" lon="13.0042123"><ele>169.5</ele><time>2026-04-19T10:40:58Z</time></trkpt><trkpt lat="43.6748067" lon="13.0042796"><ele>168.25</ele><time>2026-04-19T10:40:59Z</time></trkpt><trkpt lat="43.6747003" lon="13.0043476"><ele>167.0</ele><time>2026-04-19T10:41:00Z</time></trkpt><trkpt lat="43.6746057" lon="13.0044052"><ele>167.0</ele><time>2026-04-19T10:41:01Z</time></trkpt><trkpt lat="43.6745155" lon="13.0044627"><ele>167.0</ele><time>2026-04-19T10:41:02Z</time></trkpt><trkpt lat="43.6744291" lon="13.0045172"><ele>167.0</ele><time>2026-04-19T10:41:03Z</time></trkpt><trkpt lat="43.6743448" lon="13.0045695"><ele>167.0</ele><time>2026-04-19T10:41:04Z</time></trkpt><trkpt lat="43.6742556" lon="13.004615"><ele>167.0</ele><time>2026-04-19T10:41:05Z</time></trkpt><trkpt lat="43.674166" lon="13.004646"><ele>166.2</ele><time>2026-04-19T10:41:06Z</time></trkpt><trkpt lat="43.6740678" lon="13.004676"><ele>165.39999999999998</ele><time>2026-04-19T10:41:07Z</time></trkpt><trkpt lat="43.6739675" lon="13.0047066"><ele>164.60000000000002</ele><time>2026-04-19T10:41:08Z</time></trkpt><trkpt lat="43.6738694" lon="13.0047341"><ele>163.8</ele><time>2026-04-19T10:41:09Z</time></trkpt><trkpt lat="43.6737702" lon="13.0047597"><ele>163.0</ele><time>2026-04-19T10:41:10Z</time></trkpt><trkpt lat="43.673677" lon="13.0047946"><ele>162.5</ele><time>2026-04-19T10:41:11Z</time></trkpt><trkpt lat="43.6735881" lon="13.0048265"><ele>162.0</ele><time>2026-04-19T10:41:12Z</time></trkpt><trkpt lat="43.6735196" lon="13.0048377"><ele>161.5</ele><time>2026-04-19T10:41:13Z</time></trkpt><trkpt lat="43.6734539" lon="13.0048562"><ele>161.0</ele><time>2026-04-19T10:41:14Z</time></trkpt><trkpt lat="43.6733475" lon="13.0048915"><ele>160.5</ele><time>2026-04-19T10:41:16Z</time></trkpt><trkpt lat="43.6732722" lon="13.0049074"><ele>160.0</ele><time>2026-04-19T10:41:18Z</time></trkpt><trkpt lat="43.6731881" lon="13.0049221"><ele>160.0</ele><time>2026-04-19T10:41:20Z</time></trkpt><trkpt lat="43.673107" lon="13.0049395"><ele>160.0</ele><time>2026-04-19T10:41:22Z</time></trkpt><trkpt lat="43.672993" lon="13.0049675"><ele>160.0</ele><time>2026-04-19T10:41:24Z</time></trkpt><trkpt lat="43.6729257" lon="13.0049814"><ele>160.0</ele><time>2026-04-19T10:41:24.999Z</time></trkpt><trkpt lat="43.6728593" lon="13.005"><ele>160.0</ele><time>2026-04-19T10:41:26Z</time></trkpt><trkpt lat="43.6727944" lon="13.0050114"><ele>160.0</ele><time>2026-04-19T10:41:27Z</time></trkpt><trkpt lat="43.6727249" lon="13.0050216"><ele>159.66666666666669</ele><time>2026-04-19T10:41:28Z</time></trkpt><trkpt lat="43.6726515" lon="13.0050237"><ele>159.33333333333334</ele><time>2026-04-19T10:41:29Z</time></trkpt><trkpt lat="43.6725753" lon="13.0050205"><ele>159.0</ele><time>2026-04-19T10:41:30Z</time></trkpt><trkpt lat="43.6724947" lon="13.0050195"><ele>158.66666666666666</ele><time>2026-04-19T10:41:31Z</time></trkpt><trkpt lat="43.6724133" lon="13.0050171"><ele>158.33333333333331</ele><time>2026-04-19T10:41:32Z</time></trkpt><trkpt lat="43.6723284" lon="13.0050131"><ele>158.0</ele><time>2026-04-19T10:41:33Z</time></trkpt><trkpt lat="43.6722375" lon="13.0050102"><ele>158.0</ele><time>2026-04-19T10:41:34Z</time></trkpt><trkpt lat="43.6721479" lon="13.0050027"><ele>158.0</ele><time>2026-04-19T10:41:35Z</time></trkpt><trkpt lat="43.6720607" lon="13.0050117"><ele>158.0</ele><time>2026-04-19T10:41:36Z</time></trkpt><trkpt lat="43.671967" lon="13.0050206"><ele>158.0</ele><time>2026-04-19T10:41:36.999Z</time></trkpt><trkpt lat="43.6718692" lon="13.0050366"><ele>158.0</ele><time>2026-04-19T10:41:38Z</time></trkpt><trkpt lat="43.6717712" lon="13.0050554"><ele>156.8</ele><time>2026-04-19T10:41:39Z</time></trkpt><trkpt lat="43.6716704" lon="13.0050792"><ele>155.60000000000002</ele><time>2026-04-19T10:41:40Z</time></trkpt><trkpt lat="43.6715727" lon="13.0051024"><ele>154.39999999999998</ele><time>2026-04-19T10:41:41Z</time></trkpt><trkpt lat="43.6714739" lon="13.0051236"><ele>153.2</ele><time>2026-04-19T10:41:42Z</time></trkpt><trkpt lat="43.671375" lon="13.0051511"><ele>152.0</ele><time>2026-04-19T10:41:43Z</time></trkpt><trkpt lat="43.6712722" lon="13.0051791"><ele>152.0</ele><time>2026-04-19T10:41:44Z</time></trkpt><trkpt lat="43.6711723" lon="13.0052101"><ele>152.0</ele><time>2026-04-19T10:41:45Z</time></trkpt><trkpt lat="43.6710795" lon="13.0052357"><ele>152.0</ele><time>2026-04-19T10:41:46Z</time></trkpt><trkpt lat="43.6709866" lon="13.0052676"><ele>152.0</ele><time>2026-04-19T10:41:47Z</time></trkpt><trkpt lat="43.6708923" lon="13.0052944"><ele>152.0</ele><time>2026-04-19T10:41:48Z</time></trkpt><trkpt lat="43.6707947" lon="13.0053229"><ele>151.0</ele><time>2026-04-19T10:41:49Z</time></trkpt><trkpt lat="43.670696" lon="13.0053405"><ele>150.0</ele><time>2026-04-19T10:41:50Z</time></trkpt><trkpt lat="43.6705942" lon="13.0053651"><ele>149.0</ele><time>2026-04-19T10:41:51Z</time></trkpt><trkpt lat="43.6704993" lon="13.0053811"><ele>148.0</ele><time>2026-04-19T10:41:52Z</time></trkpt><trkpt lat="43.6704044" lon="13.0053905"><ele>147.0</ele><time>2026-04-19T10:41:53Z</time></trkpt><trkpt lat="43.6703142" lon="13.0053943"><ele>146.0</ele><time>2026-04-19T10:41:54Z</time></trkpt><trkpt lat="43.6702317" lon="13.0053922"><ele>145.0</ele><time>2026-04-19T10:41:55Z</time></trkpt><trkpt lat="43.6701532" lon="13.0053994"><ele>144.0</ele><time>2026-04-19T10:41:55.999Z</time></trkpt><trkpt lat="43.6700849" lon="13.0053817"><ele>143.0</ele><time>2026-04-19T10:41:57Z</time></trkpt><trkpt lat="43.6700108" lon="13.0053743"><ele>142.0</ele><time>2026-04-19T10:41:58Z</time></trkpt><trkpt lat="43.6699336" lon="13.005369"><ele>141.0</ele><time>2026-04-19T10:41:59Z</time></trkpt><trkpt lat="43.669858" lon="13.0053587"><ele>141.0</ele><time>2026-04-19T10:42:00Z</time></trkpt><trkpt lat="43.669779" lon="13.005347"><ele>141.0</ele><time>2026-04-19T10:42:01Z</time></trkpt><trkpt lat="43.6696854" lon="13.0053417"><ele>141.0</ele><time>2026-04-19T10:42:02Z</time></trkpt><trkpt lat="43.6695841" lon="13.005336"><ele>141.0</ele><time>2026-04-19T10:42:03Z</time></trkpt><trkpt lat="43.669488" lon="13.0053169"><ele>141.0</ele><time>2026-04-19T10:42:04Z</time></trkpt><trkpt lat="43.6693895" lon="13.005301"><ele>139.6</ele><time>2026-04-19T10:42:05Z</time></trkpt><trkpt lat="43.6692819" lon="13.0052937"><ele>138.2</ele><time>2026-04-19T10:42:06Z</time></trkpt><trkpt lat="43.6691724" lon="13.0052841"><ele>136.8</ele><time>2026-04-19T10:42:07Z</time></trkpt><trkpt lat="43.6690658" lon="13.0052747"><ele>135.4</ele><time>2026-04-19T10:42:08Z</time></trkpt><trkpt lat="43.6689588" lon="13.005263"><ele>134.0</ele><time>2026-04-19T10:42:09Z</time></trkpt><trkpt lat="43.6688506" lon="13.0052525"><ele>134.0</ele><time>2026-04-19T10:42:10Z</time></trkpt><trkpt lat="43.6687376" lon="13.0052466"><ele>134.0</ele><time>2026-04-19T10:42:11Z</time></trkpt><trkpt lat="43.6686214" lon="13.0052299"><ele>134.0</ele><time>2026-04-19T10:42:12Z</time></trkpt><trkpt lat="43.6685022" lon="13.0052109"><ele>134.0</ele><time>2026-04-19T10:42:13Z</time></trkpt><trkpt lat="43.6683783" lon="13.005192"><ele>131.0</ele><time>2026-04-19T10:42:14Z</time></trkpt><trkpt lat="43.6682516" lon="13.0051712"><ele>128.0</ele><time>2026-04-19T10:42:15Z</time></trkpt><trkpt lat="43.6681209" lon="13.0051515"><ele>125.0</ele><time>2026-04-19T10:42:16Z</time></trkpt><trkpt lat="43.6679919" lon="13.0051428"><ele>122.0</ele><time>2026-04-19T10:42:17Z</time></trkpt><trkpt lat="43.667858" lon="13.0051374"><ele>119.0</ele><time>2026-04-19T10:42:18Z</time></trkpt><trkpt lat="43.6677281" lon="13.0051189"><ele>116.0</ele><time>2026-04-19T10:42:19Z</time></trkpt><trkpt lat="43.6676004" lon="13.0050958"><ele>113.0</ele><time>2026-04-19T10:42:20Z</time></trkpt><trkpt lat="43.6674744" lon="13.0050784"><ele>110.0</ele><time>2026-04-19T10:42:21Z</time></trkpt><trkpt lat="43.66735" lon="13.0050557"><ele>110.0</ele><time>2026-04-19T10:42:22Z</time></trkpt><trkpt lat="43.667228" lon="13.0050328"><ele>110.0</ele><time>2026-04-19T10:42:23Z</time></trkpt><trkpt lat="43.6671119" lon="13.0050075"><ele>110.0</ele><time>2026-04-19T10:42:24Z</time></trkpt><trkpt lat="43.6669975" lon="13.004982"><ele>110.0</ele><time>2026-04-19T10:42:25Z</time></trkpt><trkpt lat="43.6668873" lon="13.0049594"><ele>109.0</ele><time>2026-04-19T10:42:26Z</time></trkpt><trkpt lat="43.6667818" lon="13.0049334"><ele>108.0</ele><time>2026-04-19T10:42:27Z</time></trkpt><trkpt lat="43.666679" lon="13.0049092"><ele>107.0</ele><time>2026-04-19T10:42:28Z</time></trkpt><trkpt lat="43.6665819" lon="13.0048834"><ele>106.0</ele><time>2026-04-19T10:42:29Z</time></trkpt><trkpt lat="43.666487" lon="13.0048645"><ele>105.0</ele><time>2026-04-19T10:42:30Z</time></trkpt><trkpt lat="43.6663977" lon="13.0048496"><ele>105.0</ele><time>2026-04-19T10:42:31Z</time></trkpt><trkpt lat="43.6663168" lon="13.0048428"><ele>105.0</ele><time>2026-04-19T10:42:32Z</time></trkpt><trkpt lat="43.6662488" lon="13.0048607"><ele>105.0</ele><time>2026-04-19T10:42:33Z</time></trkpt><trkpt lat="43.6661725" lon="13.0049235"><ele>105.0</ele><time>2026-04-19T10:42:35Z</time></trkpt><trkpt lat="43.6661203" lon="13.0050205"><ele>105.0</ele><time>2026-04-19T10:42:40Z</time></trkpt><trkpt lat="43.6661741" lon="13.0051226"><ele>105.0</ele><time>2026-04-19T10:42:42Z</time></trkpt><trkpt lat="43.6662263" lon="13.0052119"><ele>104.8</ele><time>2026-04-19T10:42:43Z</time></trkpt><trkpt lat="43.6662709" lon="13.0053209"><ele>104.6</ele><time>2026-04-19T10:42:44Z</time></trkpt><trkpt lat="43.6663092" lon="13.0054595"><ele>104.4</ele><time>2026-04-19T10:42:45Z</time></trkpt><trkpt lat="43.6663347" lon="13.0056125"><ele>104.2</ele><time>2026-04-19T10:42:46Z</time></trkpt><trkpt lat="43.6663381" lon="13.0057913"><ele>104.0</ele><time>2026-04-19T10:42:47Z</time></trkpt><trkpt lat="43.6663345" lon="13.0059712"><ele>103.75</ele><time>2026-04-19T10:42:48Z</time></trkpt><trkpt lat="43.6663294" lon="13.0061512"><ele>103.5</ele><time>2026-04-19T10:42:49Z</time></trkpt><trkpt lat="43.6663247" lon="13.0063293"><ele>103.25</ele><time>2026-04-19T10:42:50Z</time></trkpt><trkpt lat="43.66632" lon="13.0065088"><ele>103.0</ele><time>2026-04-19T10:42:51Z</time></trkpt><trkpt lat="43.6663194" lon="13.0066938"><ele>102.5</ele><time>2026-04-19T10:42:52Z</time></trkpt><trkpt lat="43.6663398" lon="13.0068748"><ele>102.0</ele><time>2026-04-19T10:42:53Z</time></trkpt><trkpt lat="43.6663761" lon="13.007046"><ele>101.5</ele><time>2026-04-19T10:42:54Z</time></trkpt><trkpt lat="43.6664271" lon="13.0072132"><ele>101.0</ele><time>2026-04-19T10:42:55Z</time></trkpt><trkpt lat="43.6664772" lon="13.0073732"><ele>100.8</ele><time>2026-04-19T10:42:55.999Z</time></trkpt><trkpt lat="43.6665242" lon="13.0075147"><ele>100.6</ele><time>2026-04-19T10:42:57Z</time></trkpt><trkpt lat="43.6665682" lon="13.0076594"><ele>100.4</ele><time>2026-04-19T10:42:58Z</time></trkpt><trkpt lat="43.6666137" lon="13.0077845"><ele>100.2</ele><time>2026-04-19T10:42:59Z</time></trkpt><trkpt lat="43.6666477" lon="13.0079085"><ele>100.0</ele><time>2026-04-19T10:43:00Z</time></trkpt><trkpt lat="43.6666614" lon="13.0080436"><ele>100.0</ele><time>2026-04-19T10:43:01Z</time></trkpt><trkpt lat="43.6666521" lon="13.0081877"><ele>100.0</ele><time>2026-04-19T10:43:02Z</time></trkpt><trkpt lat="43.6666266" lon="13.0083511"><ele>100.0</ele><time>2026-04-19T10:43:03Z</time></trkpt><trkpt lat="43.6665889" lon="13.0085251"><ele>100.0</ele><time>2026-04-19T10:43:04Z</time></trkpt><trkpt lat="43.6665488" lon="13.008712"><ele>100.0</ele><time>2026-04-19T10:43:05Z</time></trkpt><trkpt lat="43.6665023" lon="13.0089193"><ele>100.0</ele><time>2026-04-19T10:43:06Z</time></trkpt><trkpt lat="43.6664561" lon="13.0091404"><ele>100.0</ele><time>2026-04-19T10:43:07Z</time></trkpt><trkpt lat="43.6664107" lon="13.0093597"><ele>99.66666666666667</ele><time>2026-04-19T10:43:08Z</time></trkpt><trkpt lat="43.6663638" lon="13.0095839"><ele>99.33333333333334</ele><time>2026-04-19T10:43:09Z</time></trkpt><trkpt lat="43.6663158" lon="13.0098102"><ele>99.0</ele><time>2026-04-19T10:43:10Z</time></trkpt><trkpt lat="43.6662667" lon="13.0100421"><ele>98.33333333333334</ele><time>2026-04-19T10:43:11Z</time></trkpt><trkpt lat="43.6662131" lon="13.0102812"><ele>97.66666666666667</ele><time>2026-04-19T10:43:12Z</time></trkpt><trkpt lat="43.666162" lon="13.0105238"><ele>97.0</ele><time>2026-04-19T10:43:13Z</time></trkpt><trkpt lat="43.6661092" lon="13.0107705"><ele>95.66666666666667</ele><time>2026-04-19T10:43:14Z</time></trkpt><trkpt lat="43.666058" lon="13.0110201"><ele>94.33333333333334</ele><time>2026-04-19T10:43:15Z</time></trkpt><trkpt lat="43.666006" lon="13.0112679"><ele>93.0</ele><time>2026-04-19T10:43:16Z</time></trkpt><trkpt lat="43.6659541" lon="13.0115139"><ele>92.33333333333333</ele><time>2026-04-19T10:43:17Z</time></trkpt><trkpt lat="43.6659033" lon="13.0117539"><ele>91.66666666666666</ele><time>2026-04-19T10:43:18Z</time></trkpt><trkpt lat="43.6658559" lon="13.0119907"><ele>91.0</ele><time>2026-04-19T10:43:19Z</time></trkpt><trkpt lat="43.6658096" lon="13.0122269"><ele>91.0</ele><time>2026-04-19T10:43:20Z</time></trkpt><trkpt lat="43.6657596" lon="13.0124619"><ele>91.0</ele><time>2026-04-19T10:43:21Z</time></trkpt><trkpt lat="43.6657105" lon="13.0126894"><ele>91.0</ele><time>2026-04-19T10:43:22Z</time></trkpt><trkpt lat="43.6656627" lon="13.0129157"><ele>90.33333333333333</ele><time>2026-04-19T10:43:23Z</time></trkpt><trkpt lat="43.6656124" lon="13.0131407"><ele>89.66666666666667</ele><time>2026-04-19T10:43:24Z</time></trkpt><trkpt lat="43.6655634" lon="13.0133671"><ele>89.0</ele><time>2026-04-19T10:43:25Z</time></trkpt><trkpt lat="43.6655147" lon="13.0135826"><ele>88.66666666666667</ele><time>2026-04-19T10:43:26Z</time></trkpt><trkpt lat="43.6654509" lon="13.0137834"><ele>88.33333333333333</ele><time>2026-04-19T10:43:27Z</time></trkpt><trkpt lat="43.6653639" lon="13.0139664"><ele>88.0</ele><time>2026-04-19T10:43:27.999Z</time></trkpt><trkpt lat="43.6652559" lon="13.0141256"><ele>87.33333333333333</ele><time>2026-04-19T10:43:29Z</time></trkpt><trkpt lat="43.6651313" lon="13.0142687"><ele>86.66666666666667</ele><time>2026-04-19T10:43:30Z</time></trkpt><trkpt lat="43.6650026" lon="13.0144043"><ele>86.0</ele><time>2026-04-19T10:43:31Z</time></trkpt><trkpt lat="43.6648666" lon="13.0145302"><ele>86.0</ele><time>2026-04-19T10:43:32Z</time></trkpt><trkpt lat="43.6647331" lon="13.0146595"><ele>86.0</ele><time>2026-04-19T10:43:33Z</time></trkpt><trkpt lat="43.6646031" lon="13.0147917"><ele>86.0</ele><time>2026-04-19T10:43:34Z</time></trkpt><trkpt lat="43.6644766" lon="13.014926"><ele>86.66666666666667</ele><time>2026-04-19T10:43:35Z</time></trkpt><trkpt lat="43.6643563" lon="13.0150689"><ele>87.33333333333333</ele><time>2026-04-19T10:43:35.999Z</time></trkpt><trkpt lat="43.6642383" lon="13.0152177"><ele>88.0</ele><time>2026-04-19T10:43:37Z</time></trkpt><trkpt lat="43.6641236" lon="13.0153624"><ele>88.0</ele><time>2026-04-19T10:43:38Z</time></trkpt><trkpt lat="43.6640183" lon="13.0154987"><ele>88.0</ele><time>2026-04-19T10:43:39Z</time></trkpt><trkpt lat="43.6639208" lon="13.0156284"><ele>88.0</ele><time>2026-04-19T10:43:40Z</time></trkpt><trkpt lat="43.6638269" lon="13.0157515"><ele>88.0</ele><time>2026-04-19T10:43:41Z</time></trkpt><trkpt lat="43.6637241" lon="13.0158752"><ele>88.33333333333333</ele><time>2026-04-19T10:43:42Z</time></trkpt><trkpt lat="43.6636229" lon="13.0160188"><ele>88.66666666666667</ele><time>2026-04-19T10:43:43Z</time></trkpt><trkpt lat="43.6635096" lon="13.016168"><ele>89.0</ele><time>2026-04-19T10:43:44Z</time></trkpt><trkpt lat="43.6634015" lon="13.0163157"><ele>89.33333333333334</ele><time>2026-04-19T10:43:45Z</time></trkpt><trkpt lat="43.6632809" lon="13.0164665"><ele>89.66666666666667</ele><time>2026-04-19T10:43:46Z</time></trkpt><trkpt lat="43.6631576" lon="13.0166236"><ele>90.0</ele><time>2026-04-19T10:43:47Z</time></trkpt><trkpt lat="43.6630345" lon="13.0167741"><ele>90.0</ele><time>2026-04-19T10:43:47.999Z</time></trkpt><trkpt lat="43.6629274" lon="13.016911"><ele>90.0</ele><time>2026-04-19T10:43:49Z</time></trkpt><trkpt lat="43.662823" lon="13.0170446"><ele>90.0</ele><time>2026-04-19T10:43:50Z</time></trkpt><trkpt lat="43.6627247" lon="13.017159"><ele>90.0</ele><time>2026-04-19T10:43:51Z</time></trkpt><trkpt lat="43.6626567" lon="13.0172617"><ele>90.0</ele><time>2026-04-19T10:43:51.999Z</time></trkpt><trkpt lat="43.6625835" lon="13.0173333"><ele>90.0</ele><time>2026-04-19T10:43:53Z</time></trkpt><trkpt lat="43.6625071" lon="13.0173679"><ele>90.0</ele><time>2026-04-19T10:43:54Z</time></trkpt><trkpt lat="43.6624362" lon="13.0173472"><ele>90.0</ele><time>2026-04-19T10:43:55Z</time></trkpt><trkpt lat="43.6623691" lon="13.0172828"><ele>90.0</ele><time>2026-04-19T10:43:56Z</time></trkpt><trkpt lat="43.6623023" lon="13.0171795"><ele>90.0</ele><time>2026-04-19T10:43:57Z</time></trkpt><trkpt lat="43.6622296" lon="13.0170586"><ele>90.0</ele><time>2026-04-19T10:43:58Z</time></trkpt><trkpt lat="43.6621389" lon="13.0169271"><ele>90.0</ele><time>2026-04-19T10:43:59Z</time></trkpt><trkpt lat="43.6620488" lon="13.0167997"><ele>90.0</ele><time>2026-04-19T10:44:00Z</time></trkpt><trkpt lat="43.6619728" lon="13.0166852"><ele>90.0</ele><time>2026-04-19T10:44:01Z</time></trkpt><trkpt lat="43.6619131" lon="13.0165847"><ele>90.0</ele><time>2026-04-19T10:44:02Z</time></trkpt><trkpt lat="43.6618659" lon="13.0165092"><ele>90.0</ele><time>2026-04-19T10:44:02.999Z</time></trkpt><trkpt lat="43.6618232" lon="13.0164409"><ele>90.0</ele><time>2026-04-19T10:44:04Z</time></trkpt><trkpt lat="43.6617531" lon="13.0164269"><ele>90.0</ele><time>2026-04-19T10:44:06Z</time></trkpt><trkpt lat="43.6616359" lon="13.0164907"><ele>90.0</ele><time>2026-04-19T10:44:08Z</time></trkpt><trkpt lat="43.6615599" lon="13.0166073"><ele>90.0</ele><time>2026-04-19T10:44:09Z</time></trkpt><trkpt lat="43.6614741" lon="13.0167204"><ele>90.25</ele><time>2026-04-19T10:44:10Z</time></trkpt><trkpt lat="43.6613723" lon="13.0168442"><ele>90.5</ele><time>2026-04-19T10:44:10.999Z</time></trkpt><trkpt lat="43.6612665" lon="13.016984"><ele>90.75</ele><time>2026-04-19T10:44:12Z</time></trkpt><trkpt lat="43.6611453" lon="13.0171388"><ele>91.0</ele><time>2026-04-19T10:44:13Z</time></trkpt><trkpt lat="43.661019" lon="13.0172942"><ele>92.0</ele><time>2026-04-19T10:44:14Z</time></trkpt><trkpt lat="43.6608812" lon="13.0174492"><ele>93.0</ele><time>2026-04-19T10:44:15Z</time></trkpt><trkpt lat="43.6607335" lon="13.0175883"><ele>94.0</ele><time>2026-04-19T10:44:16Z</time></trkpt><trkpt lat="43.6605672" lon="13.0177199"><ele>94.0</ele><time>2026-04-19T10:44:16.999Z</time></trkpt><trkpt lat="43.6604059" lon="13.0178601"><ele>94.0</ele><time>2026-04-19T10:44:18Z</time></trkpt><trkpt lat="43.6602273" lon="13.0180007"><ele>94.0</ele><time>2026-04-19T10:44:19Z</time></trkpt><trkpt lat="43.6600525" lon="13.0181529"><ele>94.33333333333333</ele><time>2026-04-19T10:44:20Z</time></trkpt><trkpt lat="43.6598716" lon="13.0183109"><ele>94.66666666666667</ele><time>2026-04-19T10:44:21Z</time></trkpt><trkpt lat="43.6596901" lon="13.018465"><ele>95.0</ele><time>2026-04-19T10:44:22Z</time></trkpt><trkpt lat="43.6595072" lon="13.0186242"><ele>95.66666666666667</ele><time>2026-04-19T10:44:23Z</time></trkpt><trkpt lat="43.6593268" lon="13.018771"><ele>96.33333333333334</ele><time>2026-04-19T10:44:24Z</time></trkpt><trkpt lat="43.6591596" lon="13.0189103"><ele>97.0</ele><time>2026-04-19T10:44:25Z</time></trkpt><trkpt lat="43.6590075" lon="13.0190397"><ele>97.0</ele><time>2026-04-19T10:44:26Z</time></trkpt><trkpt lat="43.6588612" lon="13.0191632"><ele>97.0</ele><time>2026-04-19T10:44:27Z</time></trkpt><trkpt lat="43.658714" lon="13.0192832"><ele>97.0</ele><time>2026-04-19T10:44:28Z</time></trkpt><trkpt lat="43.6585795" lon="13.01939"><ele>97.5</ele><time>2026-04-19T10:44:28.999Z</time></trkpt><trkpt lat="43.658454" lon="13.0194969"><ele>98.0</ele><time>2026-04-19T10:44:30Z</time></trkpt><trkpt lat="43.658342" lon="13.0195925"><ele>98.5</ele><time>2026-04-19T10:44:31Z</time></trkpt><trkpt lat="43.6582397" lon="13.0196805"><ele>99.0</ele><time>2026-04-19T10:44:32Z</time></trkpt><trkpt lat="43.6581441" lon="13.0197566"><ele>99.0</ele><time>2026-04-19T10:44:33Z</time></trkpt><trkpt lat="43.6580694" lon="13.0198189"><ele>99.0</ele><time>2026-04-19T10:44:34Z</time></trkpt><trkpt lat="43.6580051" lon="13.0198661"><ele>99.0</ele><time>2026-04-19T10:44:35Z</time></trkpt><trkpt lat="43.6579134" lon="13.0198854"><ele>99.0</ele><time>2026-04-19T10:44:37Z</time></trkpt><trkpt lat="43.6578414" lon="13.019743"><ele>99.0</ele><time>2026-04-19T10:44:39Z</time></trkpt><trkpt lat="43.6578299" lon="13.0196268"><ele>99.0</ele><time>2026-04-19T10:44:40Z</time></trkpt><trkpt lat="43.657835" lon="13.01946"><ele>99.0</ele><time>2026-04-19T10:44:40.999Z</time></trkpt><trkpt lat="43.6578428" lon="13.0192686"><ele>99.0</ele><time>2026-04-19T10:44:42Z</time></trkpt><trkpt lat="43.6578497" lon="13.0190637"><ele>99.0</ele><time>2026-04-19T10:44:43Z</time></trkpt><trkpt lat="43.6578529" lon="13.0188637"><ele>100.0</ele><time>2026-04-19T10:44:44Z</time></trkpt><trkpt lat="43.6578456" lon="13.0186603"><ele>101.0</ele><time>2026-04-19T10:44:45Z</time></trkpt><trkpt lat="43.6578315" lon="13.0184404"><ele>102.0</ele><time>2026-04-19T10:44:46Z</time></trkpt><trkpt lat="43.6578106" lon="13.0182079"><ele>103.0</ele><time>2026-04-19T10:44:47Z</time></trkpt><trkpt lat="43.6577816" lon="13.01798"><ele>104.0</ele><time>2026-04-19T10:44:48Z</time></trkpt><trkpt lat="43.6577505" lon="13.0177706"><ele>105.0</ele><time>2026-04-19T10:44:49Z</time></trkpt><trkpt lat="43.6577192" lon="13.0175751"><ele>105.0</ele><time>2026-04-19T10:44:50Z</time></trkpt><trkpt lat="43.657692" lon="13.0174138"><ele>105.0</ele><time>2026-04-19T10:44:51Z</time></trkpt><trkpt lat="43.657668" lon="13.0172801"><ele>105.0</ele><time>2026-04-19T10:44:52Z</time></trkpt><trkpt lat="43.6576445" lon="13.0171676"><ele>105.0</ele><time>2026-04-19T10:44:53Z</time></trkpt><trkpt lat="43.6575902" lon="13.0170381"><ele>105.0</ele><time>2026-04-19T10:44:55Z</time></trkpt><trkpt lat="43.6574633" lon="13.0170759"><ele>105.0</ele><time>2026-04-19T10:44:57Z</time></trkpt><trkpt lat="43.6573906" lon="13.0171537"><ele>105.0</ele><time>2026-04-19T10:44:58Z</time></trkpt><trkpt lat="43.657309" lon="13.0172556"><ele>105.0</ele><time>2026-04-19T10:44:59Z</time></trkpt><trkpt lat="43.6572159" lon="13.0173736"><ele>105.0</ele><time>2026-04-19T10:45:00Z</time></trkpt><trkpt lat="43.657113" lon="13.0175039"><ele>105.0</ele><time>2026-04-19T10:45:01Z</time></trkpt><trkpt lat="43.6570069" lon="13.0176322"><ele>105.0</ele><time>2026-04-19T10:45:02Z</time></trkpt><trkpt lat="43.6568933" lon="13.0177671"><ele>105.0</ele><time>2026-04-19T10:45:02.999Z</time></trkpt><trkpt lat="43.6567738" lon="13.0179079"><ele>105.0</ele><time>2026-04-19T10:45:04Z</time></trkpt><trkpt lat="43.6566632" lon="13.0180553"><ele>105.0</ele><time>2026-04-19T10:45:05Z</time></trkpt><trkpt lat="43.6565432" lon="13.018196"><ele>105.0</ele><time>2026-04-19T10:45:06Z</time></trkpt><trkpt lat="43.6564278" lon="13.0183278"><ele>105.0</ele><time>2026-04-19T10:45:07Z</time></trkpt><trkpt lat="43.6563251" lon="13.0184523"><ele>105.0</ele><time>2026-04-19T10:45:08Z</time></trkpt><trkpt lat="43.6562261" lon="13.0185696"><ele>105.0</ele><time>2026-04-19T10:45:09Z</time></trkpt><trkpt lat="43.6561227" lon="13.0186878"><ele>105.0</ele><time>2026-04-19T10:45:09.999Z</time></trkpt><trkpt lat="43.6560188" lon="13.0188198"><ele>105.0</ele><time>2026-04-19T10:45:11Z</time></trkpt><trkpt lat="43.655917" lon="13.0189452"><ele>105.0</ele><time>2026-04-19T10:45:12Z</time></trkpt><trkpt lat="43.6558187" lon="13.0190805"><ele>105.75</ele><time>2026-04-19T10:45:13Z</time></trkpt><trkpt lat="43.6557159" lon="13.0192168"><ele>106.5</ele><time>2026-04-19T10:45:14Z</time></trkpt><trkpt lat="43.6556005" lon="13.0193585"><ele>107.25</ele><time>2026-04-19T10:45:15Z</time></trkpt><trkpt lat="43.6554877" lon="13.0194968"><ele>108.0</ele><time>2026-04-19T10:45:16Z</time></trkpt><trkpt lat="43.6553699" lon="13.0196409"><ele>109.5</ele><time>2026-04-19T10:45:17Z</time></trkpt><trkpt lat="43.6552522" lon="13.019775"><ele>111.0</ele><time>2026-04-19T10:45:18Z</time></trkpt><trkpt lat="43.655141" lon="13.0199128"><ele>112.5</ele><time>2026-04-19T10:45:19Z</time></trkpt><trkpt lat="43.6550331" lon="13.020041"><ele>114.0</ele><time>2026-04-19T10:45:20Z</time></trkpt><trkpt lat="43.6549343" lon="13.0201655"><ele>115.0</ele><time>2026-04-19T10:45:21Z</time></trkpt><trkpt lat="43.6548421" lon="13.0202769"><ele>116.0</ele><time>2026-04-19T10:45:22Z</time></trkpt><trkpt lat="43.6547509" lon="13.0203867"><ele>117.0</ele><time>2026-04-19T10:45:23Z</time></trkpt><trkpt lat="43.654662" lon="13.0204964"><ele>118.0</ele><time>2026-04-19T10:45:24Z</time></trkpt><trkpt lat="43.6545853" lon="13.0205949"><ele>118.0</ele><time>2026-04-19T10:45:25Z</time></trkpt><trkpt lat="43.6545093" lon="13.0206985"><ele>118.00000000000001</ele><time>2026-04-19T10:45:25.999Z</time></trkpt><trkpt lat="43.6544379" lon="13.020799"><ele>118.00000000000001</ele><time>2026-04-19T10:45:27Z</time></trkpt><trkpt lat="43.6543734" lon="13.0208832"><ele>118.0</ele><time>2026-04-19T10:45:28Z</time></trkpt><trkpt lat="43.654305" lon="13.0209377"><ele>118.0</ele><time>2026-04-19T10:45:29Z</time></trkpt><trkpt lat="43.6542196" lon="13.0209629"><ele>120.2</ele><time>2026-04-19T10:45:30Z</time></trkpt><trkpt lat="43.6541262" lon="13.0209568"><ele>122.4</ele><time>2026-04-19T10:45:31Z</time></trkpt><trkpt lat="43.654019" lon="13.0209632"><ele>124.60000000000001</ele><time>2026-04-19T10:45:32Z</time></trkpt><trkpt lat="43.6539144" lon="13.0209896"><ele>126.80000000000001</ele><time>2026-04-19T10:45:33Z</time></trkpt><trkpt lat="43.6537909" lon="13.0210546"><ele>129.0</ele><time>2026-04-19T10:45:34Z</time></trkpt><trkpt lat="43.653671" lon="13.021113"><ele>130.25</ele><time>2026-04-19T10:45:35Z</time></trkpt><trkpt lat="43.6535434" lon="13.0211756"><ele>131.5</ele><time>2026-04-19T10:45:35.999Z</time></trkpt><trkpt lat="43.6534132" lon="13.0212267"><ele>132.75</ele><time>2026-04-19T10:45:37Z</time></trkpt><trkpt lat="43.6532757" lon="13.0212853"><ele>134.0</ele><time>2026-04-19T10:45:38Z</time></trkpt><trkpt lat="43.6531373" lon="13.0213029"><ele>134.0</ele><time>2026-04-19T10:45:39Z</time></trkpt><trkpt lat="43.6530015" lon="13.0213323"><ele>134.0</ele><time>2026-04-19T10:45:40Z</time></trkpt><trkpt lat="43.6528683" lon="13.0213739"><ele>134.0</ele><time>2026-04-19T10:45:41Z</time></trkpt><trkpt lat="43.6527362" lon="13.0214382"><ele>134.0</ele><time>2026-04-19T10:45:42Z</time></trkpt><trkpt lat="43.6526135" lon="13.0215038"><ele>136.75</ele><time>2026-04-19T10:45:42.999Z</time></trkpt><trkpt lat="43.6524875" lon="13.0215612"><ele>139.5</ele><time>2026-04-19T10:45:44Z</time></trkpt><trkpt lat="43.6523572" lon="13.0216099"><ele>142.25</ele><time>2026-04-19T10:45:45Z</time></trkpt><trkpt lat="43.6522311" lon="13.0216478"><ele>145.0</ele><time>2026-04-19T10:45:46Z</time></trkpt><trkpt lat="43.6521101" lon="13.0216796"><ele>145.75</ele><time>2026-04-19T10:45:47Z</time></trkpt><trkpt lat="43.6519883" lon="13.0217211"><ele>146.5</ele><time>2026-04-19T10:45:48Z</time></trkpt><trkpt lat="43.6518729" lon="13.0217767"><ele>147.25</ele><time>2026-04-19T10:45:49Z</time></trkpt><trkpt lat="43.6517563" lon="13.0218415"><ele>148.0</ele><time>2026-04-19T10:45:50Z</time></trkpt><trkpt lat="43.6516459" lon="13.0219146"><ele>152.0</ele><time>2026-04-19T10:45:51Z</time></trkpt><trkpt lat="43.6515346" lon="13.022009"><ele>156.0</ele><time>2026-04-19T10:45:52Z</time></trkpt><trkpt lat="43.6514297" lon="13.0221069"><ele>160.0</ele><time>2026-04-19T10:45:53Z</time></trkpt><trkpt lat="43.6513189" lon="13.0222141"><ele>164.0</ele><time>2026-04-19T10:45:53.999Z</time></trkpt><trkpt lat="43.6512254" lon="13.0223288"><ele>164.0</ele><time>2026-04-19T10:45:55Z</time></trkpt><trkpt lat="43.6511325" lon="13.0224451"><ele>164.0</ele><time>2026-04-19T10:45:56Z</time></trkpt><trkpt lat="43.6510444" lon="13.0225517"><ele>164.0</ele><time>2026-04-19T10:45:57Z</time></trkpt><trkpt lat="43.6509561" lon="13.0226562"><ele>164.0</ele><time>2026-04-19T10:45:58Z</time></trkpt><trkpt lat="43.6508759" lon="13.0227386"><ele>167.6</ele><time>2026-04-19T10:45:59Z</time></trkpt><trkpt lat="43.6507885" lon="13.0228195"><ele>171.2</ele><time>2026-04-19T10:46:00Z</time></trkpt><trkpt lat="43.6507018" lon="13.0228957"><ele>174.79999999999998</ele><time>2026-04-19T10:46:01Z</time></trkpt><trkpt lat="43.6506057" lon="13.0229264"><ele>178.39999999999998</ele><time>2026-04-19T10:46:01.999Z</time></trkpt><trkpt lat="43.6505291" lon="13.0229843"><ele>182.0</ele><time>2026-04-19T10:46:03Z</time></trkpt><trkpt lat="43.650456" lon="13.0230511"><ele>182.0</ele><time>2026-04-19T10:46:04Z</time></trkpt><trkpt lat="43.6504002" lon="13.0231398"><ele>182.0</ele><time>2026-04-19T10:46:05Z</time></trkpt><trkpt lat="43.6503688" lon="13.0232998"><ele>182.0</ele><time>2026-04-19T10:46:06Z</time></trkpt><trkpt lat="43.6503152" lon="13.0234234"><ele>182.0</ele><time>2026-04-19T10:46:07Z</time></trkpt><trkpt lat="43.6502585" lon="13.0235511"><ele>182.0</ele><time>2026-04-19T10:46:08Z</time></trkpt><trkpt lat="43.6502009" lon="13.0236972"><ele>186.5</ele><time>2026-04-19T10:46:09Z</time></trkpt><trkpt lat="43.6501482" lon="13.023833"><ele>191.0</ele><time>2026-04-19T10:46:10Z</time></trkpt><trkpt lat="43.6500844" lon="13.0239738"><ele>195.5</ele><time>2026-04-19T10:46:11Z</time></trkpt><trkpt lat="43.6500182" lon="13.0241136"><ele>200.0</ele><time>2026-04-19T10:46:11.999Z</time></trkpt><trkpt lat="43.6499497" lon="13.0242464"><ele>202.5</ele><time>2026-04-19T10:46:12.999Z</time></trkpt><trkpt lat="43.6498792" lon="13.0243786"><ele>205.0</ele><time>2026-04-19T10:46:14Z</time></trkpt><trkpt lat="43.6498101" lon="13.0245037"><ele>207.5</ele><time>2026-04-19T10:46:15Z</time></trkpt><trkpt lat="43.6497453" lon="13.0246298"><ele>210.0</ele><time>2026-04-19T10:46:16Z</time></trkpt><trkpt lat="43.6496795" lon="13.0247577"><ele>210.0</ele><time>2026-04-19T10:46:17Z</time></trkpt><trkpt lat="43.6496086" lon="13.0248889"><ele>210.0</ele><time>2026-04-19T10:46:18Z</time></trkpt><trkpt lat="43.6495359" lon="13.0250258"><ele>210.0</ele><time>2026-04-19T10:46:19Z</time></trkpt><trkpt lat="43.6494642" lon="13.0251629"><ele>210.0</ele><time>2026-04-19T10:46:20Z</time></trkpt><trkpt lat="43.649396" lon="13.0252994"><ele>215.0</ele><time>2026-04-19T10:46:21Z</time></trkpt><trkpt lat="43.649333" lon="13.0254316"><ele>220.0</ele><time>2026-04-19T10:46:21.999Z</time></trkpt><trkpt lat="43.649286" lon="13.0255416"><ele>225.0</ele><time>2026-04-19T10:46:23Z</time></trkpt><trkpt lat="43.6492457" lon="13.0256328"><ele>230.0</ele><time>2026-04-19T10:46:24Z</time></trkpt><trkpt lat="43.6492099" lon="13.025714"><ele>235.0</ele><time>2026-04-19T10:46:25Z</time></trkpt><trkpt lat="43.6491661" lon="13.0258412"><ele>235.0</ele><time>2026-04-19T10:46:27Z</time></trkpt><trkpt lat="43.6491061" lon="13.0259056"><ele>235.0</ele><time>2026-04-19T10:46:30Z</time></trkpt><trkpt lat="43.6490105" lon="13.0258549"><ele>235.0</ele><time>2026-04-19T10:46:32Z</time></trkpt><trkpt lat="43.6489378" lon="13.0257937"><ele>235.0</ele><time>2026-04-19T10:46:33Z</time></trkpt><trkpt lat="43.6488582" lon="13.025719"><ele>235.0</ele><time>2026-04-19T10:46:34Z</time></trkpt><trkpt lat="43.6487737" lon="13.0256398"><ele>235.0</ele><time>2026-04-19T10:46:35Z</time></trkpt><trkpt lat="43.6486758" lon="13.0255532"><ele>235.0</ele><time>2026-04-19T10:46:36Z</time></trkpt><trkpt lat="43.6485627" lon="13.0254589"><ele>235.0</ele><time>2026-04-19T10:46:37Z</time></trkpt><trkpt lat="43.6484455" lon="13.0253585"><ele>235.0</ele><time>2026-04-19T10:46:38Z</time></trkpt><trkpt lat="43.6483222" lon="13.0252532"><ele>235.75</ele><time>2026-04-19T10:46:39Z</time></trkpt><trkpt lat="43.6481955" lon="13.0251468"><ele>236.5</ele><time>2026-04-19T10:46:40Z</time></trkpt><trkpt lat="43.6480692" lon="13.0250412"><ele>237.25</ele><time>2026-04-19T10:46:41Z</time></trkpt><trkpt lat="43.6479449" lon="13.0249369"><ele>238.0</ele><time>2026-04-19T10:46:42Z</time></trkpt><trkpt lat="43.6478264" lon="13.0248331"><ele>236.5</ele><time>2026-04-19T10:46:42.999Z</time></trkpt><trkpt lat="43.647717" lon="13.0247325"><ele>235.0</ele><time>2026-04-19T10:46:44Z</time></trkpt><trkpt lat="43.6476106" lon="13.0246341"><ele>233.5</ele><time>2026-04-19T10:46:45Z</time></trkpt><trkpt lat="43.6475045" lon="13.0245305"><ele>232.0</ele><time>2026-04-19T10:46:46Z</time></trkpt><trkpt lat="43.6474013" lon="13.0244296"><ele>232.0</ele><time>2026-04-19T10:46:47Z</time></trkpt><trkpt lat="43.6472983" lon="13.0243374"><ele>232.0</ele><time>2026-04-19T10:46:47.999Z</time></trkpt><trkpt lat="43.6472026" lon="13.0242517"><ele>232.0</ele><time>2026-04-19T10:46:49Z</time></trkpt><trkpt lat="43.6471185" lon="13.0241665"><ele>232.0</ele><time>2026-04-19T10:46:50Z</time></trkpt><trkpt lat="43.6470485" lon="13.024086"><ele>232.0</ele><time>2026-04-19T10:46:51Z</time></trkpt><trkpt lat="43.6469904" lon="13.0240089"><ele>231.8</ele><time>2026-04-19T10:46:52Z</time></trkpt><trkpt lat="43.6469531" lon="13.0239345"><ele>231.6</ele><time>2026-04-19T10:46:53Z</time></trkpt><trkpt lat="43.646886" lon="13.0238069"><ele>231.40000000000003</ele><time>2026-04-19T10:46:55Z</time></trkpt><trkpt lat="43.6467713" lon="13.0237607"><ele>231.20000000000002</ele><time>2026-04-19T10:46:56.999Z</time></trkpt><trkpt lat="43.6466985" lon="13.0237836"><ele>231.0</ele><time>2026-04-19T10:46:58Z</time></trkpt><trkpt lat="43.6466259" lon="13.0238429"><ele>231.0</ele><time>2026-04-19T10:46:59Z</time></trkpt><trkpt lat="43.6465499" lon="13.0239251"><ele>231.0</ele><time>2026-04-19T10:47:00Z</time></trkpt><trkpt lat="43.6464573" lon="13.0240203"><ele>231.0</ele><time>2026-04-19T10:47:01Z</time></trkpt><trkpt lat="43.6463528" lon="13.0241376"><ele>231.0</ele><time>2026-04-19T10:47:02Z</time></trkpt><trkpt lat="43.6462443" lon="13.0242633"><ele>230.25</ele><time>2026-04-19T10:47:03Z</time></trkpt><trkpt lat="43.6461402" lon="13.0243923"><ele>229.5</ele><time>2026-04-19T10:47:04Z</time></trkpt><trkpt lat="43.6460338" lon="13.0245158"><ele>228.75</ele><time>2026-04-19T10:47:05Z</time></trkpt><trkpt lat="43.645926" lon="13.0246454"><ele>228.0</ele><time>2026-04-19T10:47:06Z</time></trkpt><trkpt lat="43.645823" lon="13.0247812"><ele>225.5</ele><time>2026-04-19T10:47:06.999Z</time></trkpt><trkpt lat="43.6457156" lon="13.0249165"><ele>223.0</ele><time>2026-04-19T10:47:08Z</time></trkpt><trkpt lat="43.6456081" lon="13.0250539"><ele>220.5</ele><time>2026-04-19T10:47:09Z</time></trkpt><trkpt lat="43.6455029" lon="13.0251907"><ele>218.0</ele><time>2026-04-19T10:47:10Z</time></trkpt><trkpt lat="43.6453913" lon="13.025325"><ele>214.66666666666669</ele><time>2026-04-19T10:47:11Z</time></trkpt><trkpt lat="43.6452731" lon="13.0254563"><ele>211.33333333333331</ele><time>2026-04-19T10:47:12Z</time></trkpt><trkpt lat="43.645145" lon="13.0255778"><ele>208.0</ele><time>2026-04-19T10:47:13Z</time></trkpt><trkpt lat="43.6450129" lon="13.0256988"><ele>208.0</ele><time>2026-04-19T10:47:14Z</time></trkpt><trkpt lat="43.6448726" lon="13.0258055"><ele>208.0</ele><time>2026-04-19T10:47:15Z</time></trkpt><trkpt lat="43.6447247" lon="13.0259039"><ele>208.0</ele><time>2026-04-19T10:47:16Z</time></trkpt><trkpt lat="43.6445688" lon="13.0260041"><ele>205.66666666666666</ele><time>2026-04-19T10:47:17Z</time></trkpt><trkpt lat="43.6444161" lon="13.0261003"><ele>203.33333333333331</ele><time>2026-04-19T10:47:18Z</time></trkpt><trkpt lat="43.6442663" lon="13.0261911"><ele>201.0</ele><time>2026-04-19T10:47:18.999Z</time></trkpt><trkpt lat="43.6441244" lon="13.0262836"><ele>201.0</ele><time>2026-04-19T10:47:20Z</time></trkpt><trkpt lat="43.6439899" lon="13.0263656"><ele>201.0</ele><time>2026-04-19T10:47:21Z</time></trkpt><trkpt lat="43.6438654" lon="13.0264507"><ele>201.0</ele><time>2026-04-19T10:47:22Z</time></trkpt><trkpt lat="43.6437598" lon="13.0265506"><ele>201.0</ele><time>2026-04-19T10:47:22.999Z</time></trkpt><trkpt lat="43.6436718" lon="13.0266686"><ele>201.20000000000002</ele><time>2026-04-19T10:47:24Z</time></trkpt><trkpt lat="43.643594" lon="13.0267861"><ele>201.4</ele><time>2026-04-19T10:47:25Z</time></trkpt><trkpt lat="43.6435277" lon="13.0269071"><ele>201.6</ele><time>2026-04-19T10:47:26Z</time></trkpt><trkpt lat="43.6434553" lon="13.0270019"><ele>201.8</ele><time>2026-04-19T10:47:27Z</time></trkpt><trkpt lat="43.6433641" lon="13.0270713"><ele>202.0</ele><time>2026-04-19T10:47:28Z</time></trkpt><trkpt lat="43.6432574" lon="13.0270992"><ele>202.0</ele><time>2026-04-19T10:47:29Z</time></trkpt><trkpt lat="43.6431292" lon="13.0270957"><ele>202.0</ele><time>2026-04-19T10:47:30Z</time></trkpt><trkpt lat="43.6429837" lon="13.0270573"><ele>202.0</ele><time>2026-04-19T10:47:31Z</time></trkpt><trkpt lat="43.6428226" lon="13.0269949"><ele>202.0</ele><time>2026-04-19T10:47:32Z</time></trkpt><trkpt lat="43.6426449" lon="13.0269296"><ele>203.0</ele><time>2026-04-19T10:47:33Z</time></trkpt><trkpt lat="43.6424654" lon="13.0268616"><ele>204.0</ele><time>2026-04-19T10:47:34Z</time></trkpt><trkpt lat="43.6423018" lon="13.0267932"><ele>205.0</ele><time>2026-04-19T10:47:35Z</time></trkpt><trkpt lat="43.6421475" lon="13.0267401"><ele>205.0</ele><time>2026-04-19T10:47:36Z</time></trkpt><trkpt lat="43.6420026" lon="13.0266854"><ele>205.0</ele><time>2026-04-19T10:47:37Z</time></trkpt><trkpt lat="43.6418654" lon="13.0266356"><ele>205.0</ele><time>2026-04-19T10:47:38Z</time></trkpt><trkpt lat="43.6417333" lon="13.0265826"><ele>205.0</ele><time>2026-04-19T10:47:39Z</time></trkpt><trkpt lat="43.6416095" lon="13.026535"><ele>206.0</ele><time>2026-04-19T10:47:40Z</time></trkpt><trkpt lat="43.6414982" lon="13.026492"><ele>207.0</ele><time>2026-04-19T10:47:41Z</time></trkpt><trkpt lat="43.6413931" lon="13.0264694"><ele>208.0</ele><time>2026-04-19T10:47:42Z</time></trkpt><trkpt lat="43.6412892" lon="13.0264646"><ele>209.0</ele><time>2026-04-19T10:47:43Z</time></trkpt><trkpt lat="43.6411876" lon="13.0264788"><ele>210.0</ele><time>2026-04-19T10:47:44Z</time></trkpt><trkpt lat="43.6410873" lon="13.0265084"><ele>210.8</ele><time>2026-04-19T10:47:45Z</time></trkpt><trkpt lat="43.6410076" lon="13.0265487"><ele>211.6</ele><time>2026-04-19T10:47:45.999Z</time></trkpt><trkpt lat="43.6408929" lon="13.0265584"><ele>212.39999999999998</ele><time>2026-04-19T10:47:48Z</time></trkpt><trkpt lat="43.6407905" lon="13.0264898"><ele>213.2</ele><time>2026-04-19T10:47:50Z</time></trkpt><trkpt lat="43.6407341" lon="13.0264318"><ele>214.0</ele><time>2026-04-19T10:47:50.999Z</time></trkpt><trkpt lat="43.6406701" lon="13.026359"><ele>214.0</ele><time>2026-04-19T10:47:52Z</time></trkpt><trkpt lat="43.640602" lon="13.0262798"><ele>213.99999999999997</ele><time>2026-04-19T10:47:52.999Z</time></trkpt><trkpt lat="43.6405322" lon="13.026191"><ele>213.99999999999997</ele><time>2026-04-19T10:47:54Z</time></trkpt><trkpt lat="43.640458" lon="13.0260966"><ele>214.0</ele><time>2026-04-19T10:47:55Z</time></trkpt><trkpt lat="43.6403786" lon="13.0259985"><ele>214.0</ele><time>2026-04-19T10:47:56Z</time></trkpt><trkpt lat="43.6403045" lon="13.0259057"><ele>214.79999999999998</ele><time>2026-04-19T10:47:57Z</time></trkpt><trkpt lat="43.6402319" lon="13.0258093"><ele>215.59999999999997</ele><time>2026-04-19T10:47:58Z</time></trkpt><trkpt lat="43.6401622" lon="13.0257233"><ele>216.4</ele><time>2026-04-19T10:47:58.999Z</time></trkpt><trkpt lat="43.6400941" lon="13.0256251"><ele>217.2</ele><time>2026-04-19T10:47:59.999Z</time></trkpt><trkpt lat="43.6400277" lon="13.0255287"><ele>218.0</ele><time>2026-04-19T10:48:01Z</time></trkpt><trkpt lat="43.6399617" lon="13.0254261"><ele>218.0</ele><time>2026-04-19T10:48:02Z</time></trkpt><trkpt lat="43.6398982" lon="13.0253259"><ele>218.0</ele><time>2026-04-19T10:48:03Z</time></trkpt><trkpt lat="43.6398373" lon="13.0252233"><ele>218.0</ele><time>2026-04-19T10:48:04Z</time></trkpt><trkpt lat="43.6397783" lon="13.0251187"><ele>218.0</ele><time>2026-04-19T10:48:05Z</time></trkpt><trkpt lat="43.6397257" lon="13.0250148"><ele>218.0</ele><time>2026-04-19T10:48:06Z</time></trkpt><trkpt lat="43.6396749" lon="13.0249052"><ele>219.16666666666669</ele><time>2026-04-19T10:48:07Z</time></trkpt><trkpt lat="43.6396236" lon="13.0248012"><ele>220.33333333333334</ele><time>2026-04-19T10:48:08Z</time></trkpt><trkpt lat="43.6395736" lon="13.0246949"><ele>221.5</ele><time>2026-04-19T10:48:09Z</time></trkpt><trkpt lat="43.6395235" lon="13.024587"><ele>222.66666666666669</ele><time>2026-04-19T10:48:10Z</time></trkpt><trkpt lat="43.6394908" lon="13.0244867"><ele>223.83333333333334</ele><time>2026-04-19T10:48:11Z</time></trkpt><trkpt lat="43.6394436" lon="13.0243897"><ele>225.0</ele><time>2026-04-19T10:48:12Z</time></trkpt><trkpt lat="43.6393964" lon="13.0243051"><ele>225.00000000000003</ele><time>2026-04-19T10:48:13Z</time></trkpt><trkpt lat="43.6393424" lon="13.0242423"><ele>225.0</ele><time>2026-04-19T10:48:13.999Z</time></trkpt><trkpt lat="43.6392798" lon="13.0242003"><ele>225.00000000000003</ele><time>2026-04-19T10:48:15Z</time></trkpt><trkpt lat="43.6392059" lon="13.0241848"><ele>225.00000000000003</ele><time>2026-04-19T10:48:16Z</time></trkpt><trkpt lat="43.6391285" lon="13.0241822"><ele>225.0</ele><time>2026-04-19T10:48:17Z</time></trkpt><trkpt lat="43.6390563" lon="13.0241912"><ele>225.00000000000003</ele><time>2026-04-19T10:48:18Z</time></trkpt><trkpt lat="43.6389802" lon="13.0242136"><ele>225.00000000000003</ele><time>2026-04-19T10:48:19Z</time></trkpt><trkpt lat="43.6389115" lon="13.0242479"><ele>225.0</ele><time>2026-04-19T10:48:20Z</time></trkpt><trkpt lat="43.6388433" lon="13.0242938"><ele>225.0</ele><time>2026-04-19T10:48:21Z</time></trkpt><trkpt lat="43.6387774" lon="13.0243482"><ele>225.0</ele><time>2026-04-19T10:48:22Z</time></trkpt><trkpt lat="43.6387111" lon="13.0244021"><ele>225.0</ele><time>2026-04-19T10:48:23Z</time></trkpt><trkpt lat="43.6386455" lon="13.024446"><ele>225.0</ele><time>2026-04-19T10:48:24Z</time></trkpt><trkpt lat="43.6385729" lon="13.0244763"><ele>225.0</ele><time>2026-04-19T10:48:25Z</time></trkpt><trkpt lat="43.6385" lon="13.0244856"><ele>224.14285714285717</ele><time>2026-04-19T10:48:26Z</time></trkpt><trkpt lat="43.6384313" lon="13.0244813"><ele>223.28571428571428</ele><time>2026-04-19T10:48:27Z</time></trkpt><trkpt lat="43.6383593" lon="13.0244564"><ele>222.42857142857144</ele><time>2026-04-19T10:48:28Z</time></trkpt><trkpt lat="43.6382931" lon="13.0244191"><ele>221.57142857142858</ele><time>2026-04-19T10:48:29Z</time></trkpt><trkpt lat="43.6382303" lon="13.0243768"><ele>220.71428571428572</ele><time>2026-04-19T10:48:30Z</time></trkpt><trkpt lat="43.6381614" lon="13.0243245"><ele>219.85714285714286</ele><time>2026-04-19T10:48:31Z</time></trkpt><trkpt lat="43.6380939" lon="13.024271"><ele>219.0</ele><time>2026-04-19T10:48:31.999Z</time></trkpt><trkpt lat="43.63803" lon="13.0242233"><ele>219.0</ele><time>2026-04-19T10:48:33Z</time></trkpt><trkpt lat="43.6379703" lon="13.0241651"><ele>219.0</ele><time>2026-04-19T10:48:34Z</time></trkpt><trkpt lat="43.6379169" lon="13.0241125"><ele>219.0</ele><time>2026-04-19T10:48:35Z</time></trkpt><trkpt lat="43.6378683" lon="13.0240489"><ele>219.0</ele><time>2026-04-19T10:48:36Z</time></trkpt><trkpt lat="43.6378271" lon="13.0239798"><ele>219.0</ele><time>2026-04-19T10:48:36.999Z</time></trkpt><trkpt lat="43.6377555" lon="13.0238504"><ele>219.0</ele><time>2026-04-19T10:48:39Z</time></trkpt><trkpt lat="43.6376896" lon="13.0237178"><ele>217.2</ele><time>2026-04-19T10:48:41Z</time></trkpt><trkpt lat="43.6376288" lon="13.0235826"><ele>215.39999999999998</ele><time>2026-04-19T10:48:43Z</time></trkpt><trkpt lat="43.6375809" lon="13.0234463"><ele>213.6</ele><time>2026-04-19T10:48:45Z</time></trkpt><trkpt lat="43.6375252" lon="13.0233186"><ele>211.8</ele><time>2026-04-19T10:48:47Z</time></trkpt><trkpt lat="43.6374708" lon="13.0231933"><ele>210.0</ele><time>2026-04-19T10:48:49Z</time></trkpt><trkpt lat="43.6373983" lon="13.0230399"><ele>208.0</ele><time>2026-04-19T10:48:51Z</time></trkpt><trkpt lat="43.6373566" lon="13.0229575"><ele>206.0</ele><time>2026-04-19T10:48:52Z</time></trkpt><trkpt lat="43.6373158" lon="13.0228766"><ele>204.0</ele><time>2026-04-19T10:48:53Z</time></trkpt><trkpt lat="43.637266" lon="13.0227866"><ele>202.0</ele><time>2026-04-19T10:48:54Z</time></trkpt><trkpt lat="43.6372148" lon="13.0227028"><ele>200.0</ele><time>2026-04-19T10:48:55Z</time></trkpt><trkpt lat="43.6371628" lon="13.022619"><ele>198.0</ele><time>2026-04-19T10:48:56Z</time></trkpt><trkpt lat="43.6371122" lon="13.0225361"><ele>197.14285714285714</ele><time>2026-04-19T10:48:57Z</time></trkpt><trkpt lat="43.6370655" lon="13.0224498"><ele>196.28571428571428</ele><time>2026-04-19T10:48:58Z</time></trkpt><trkpt lat="43.6370228" lon="13.022358"><ele>195.42857142857142</ele><time>2026-04-19T10:48:59Z</time></trkpt><trkpt lat="43.6369846" lon="13.0222743"><ele>194.57142857142856</ele><time>2026-04-19T10:49:00Z</time></trkpt><trkpt lat="43.6369493" lon="13.0221979"><ele>193.71428571428572</ele><time>2026-04-19T10:49:01Z</time></trkpt><trkpt lat="43.6369083" lon="13.02211"><ele>192.85714285714283</ele><time>2026-04-19T10:49:02Z</time></trkpt><trkpt lat="43.6368682" lon="13.0220228"><ele>192.0</ele><time>2026-04-19T10:49:03Z</time></trkpt><trkpt lat="43.6368262" lon="13.0219429"><ele>192.0</ele><time>2026-04-19T10:49:03.998Z</time></trkpt><trkpt lat="43.6367738" lon="13.0218783"><ele>192.0</ele><time>2026-04-19T10:49:05Z</time></trkpt><trkpt lat="43.6366779" lon="13.0218053"><ele>192.0</ele><time>2026-04-19T10:49:07Z</time></trkpt><trkpt lat="43.6366014" lon="13.0217689"><ele>192.0</ele><time>2026-04-19T10:49:09Z</time></trkpt><trkpt lat="43.6365215" lon="13.0217328"><ele>192.0</ele><time>2026-04-19T10:49:12Z</time></trkpt><trkpt lat="43.6364452" lon="13.0216661"><ele>192.0</ele><time>2026-04-19T10:49:16Z</time></trkpt><trkpt lat="43.6363698" lon="13.0216084"><ele>189.5</ele><time>2026-04-19T10:49:19Z</time></trkpt><trkpt lat="43.6363117" lon="13.0215484"><ele>187.0</ele><time>2026-04-19T10:49:31Z</time></trkpt><trkpt lat="43.6362414" lon="13.0214911"><ele>184.5</ele><time>2026-04-19T10:49:34Z</time></trkpt><trkpt lat="43.6361809" lon="13.0214435"><ele>182.0</ele><time>2026-04-19T10:49:36Z</time></trkpt><trkpt lat="43.6361157" lon="13.0213896"><ele>179.5</ele><time>2026-04-19T10:49:38Z</time></trkpt><trkpt lat="43.6360389" lon="13.0213124"><ele>177.0</ele><time>2026-04-19T10:49:40Z</time></trkpt><trkpt lat="43.6359673" lon="13.0212497"><ele>176.83333333333334</ele><time>2026-04-19T10:49:42Z</time></trkpt><trkpt lat="43.6359041" lon="13.0211955"><ele>176.66666666666666</ele><time>2026-04-19T10:49:44Z</time></trkpt><trkpt lat="43.6358475" lon="13.0211399"><ele>176.5</ele><time>2026-04-19T10:49:45.999Z</time></trkpt><trkpt lat="43.6357693" lon="13.0210761"><ele>176.33333333333331</ele><time>2026-04-19T10:49:48Z</time></trkpt><trkpt lat="43.6357019" lon="13.02101"><ele>176.16666666666666</ele><time>2026-04-19T10:49:50Z</time></trkpt><trkpt lat="43.6356365" lon="13.0209562"><ele>176.0</ele><time>2026-04-19T10:49:52.999Z</time></trkpt><trkpt lat="43.6355714" lon="13.0209063"><ele>176.0</ele><time>2026-04-19T10:49:56Z</time></trkpt><trkpt lat="43.6355006" lon="13.0208479"><ele>176.0</ele><time>2026-04-19T10:49:59Z</time></trkpt><trkpt lat="43.6354357" lon="13.0207993"><ele>176.0</ele><time>2026-04-19T10:50:02Z</time></trkpt><trkpt lat="43.635365" lon="13.020745"><ele>176.0</ele><time>2026-04-19T10:50:05Z</time></trkpt><trkpt lat="43.6352927" lon="13.0206839"><ele>176.0</ele><time>2026-04-19T10:50:08Z</time></trkpt><trkpt lat="43.6352361" lon="13.0206375"><ele>176.0</ele><time>2026-04-19T10:50:10Z</time></trkpt><trkpt lat="43.6351779" lon="13.0205918"><ele>172.5</ele><time>2026-04-19T10:50:12Z</time></trkpt><trkpt lat="43.6350974" lon="13.0205288"><ele>169.0</ele><time>2026-04-19T10:50:15Z</time></trkpt><trkpt lat="43.6350357" lon="13.02048"><ele>165.5</ele><time>2026-04-19T10:50:16.999Z</time></trkpt><trkpt lat="43.6349725" lon="13.0204299"><ele>162.0</ele><time>2026-04-19T10:50:19Z</time></trkpt><trkpt lat="43.6349142" lon="13.0203858"><ele>158.5</ele><time>2026-04-19T10:50:21Z</time></trkpt><trkpt lat="43.6348497" lon="13.0203388"><ele>155.0</ele><time>2026-04-19T10:50:23Z</time></trkpt><trkpt lat="43.6347819" lon="13.0202894"><ele>155.0</ele><time>2026-04-19T10:50:25Z</time></trkpt><trkpt lat="43.63471" lon="13.0202344"><ele>155.0</ele><time>2026-04-19T10:50:27Z</time></trkpt><trkpt lat="43.6346323" lon="13.0201698"><ele>155.0</ele><time>2026-04-19T10:50:29Z</time></trkpt><trkpt lat="43.6345489" lon="13.0200976"><ele>155.0</ele><time>2026-04-19T10:50:31Z</time></trkpt><trkpt lat="43.6344542" lon="13.0200285"><ele>155.0</ele><time>2026-04-19T10:50:32.999Z</time></trkpt><trkpt lat="43.6343468" lon="13.0199578"><ele>150.5</ele><time>2026-04-19T10:50:35Z</time></trkpt><trkpt lat="43.6342289" lon="13.0198948"><ele>146.0</ele><time>2026-04-19T10:50:37Z</time></trkpt><trkpt lat="43.6341155" lon="13.0198569"><ele>141.5</ele><time>2026-04-19T10:50:39Z</time></trkpt><trkpt lat="43.6339967" lon="13.0198272"><ele>137.0</ele><time>2026-04-19T10:50:41Z</time></trkpt><trkpt lat="43.6338823" lon="13.0197909"><ele>137.0</ele><time>2026-04-19T10:50:43Z</time></trkpt><trkpt lat="43.6337729" lon="13.0197592"><ele>137.0</ele><time>2026-04-19T10:50:45Z</time></trkpt><trkpt lat="43.6336654" lon="13.0197294"><ele>137.0</ele><time>2026-04-19T10:50:47Z</time></trkpt><trkpt lat="43.6335474" lon="13.0197047"><ele>137.0</ele><time>2026-04-19T10:50:49Z</time></trkpt><trkpt lat="43.6334205" lon="13.0196794"><ele>134.6</ele><time>2026-04-19T10:50:51Z</time></trkpt><trkpt lat="43.63335" lon="13.0196591"><ele>132.2</ele><time>2026-04-19T10:50:52Z</time></trkpt><trkpt lat="43.6332861" lon="13.0196273"><ele>129.8</ele><time>2026-04-19T10:50:53Z</time></trkpt><trkpt lat="43.6331829" lon="13.0195686"><ele>127.4</ele><time>2026-04-19T10:50:55Z</time></trkpt><trkpt lat="43.6330635" lon="13.0195161"><ele>125.0</ele><time>2026-04-19T10:50:57Z</time></trkpt><trkpt lat="43.6330082" lon="13.0194475"><ele>124.99999999999999</ele><time>2026-04-19T10:50:58Z</time></trkpt><trkpt lat="43.6329515" lon="13.019378"><ele>125.0</ele><time>2026-04-19T10:50:59Z</time></trkpt><trkpt lat="43.6329028" lon="13.019295"><ele>125.0</ele><time>2026-04-19T10:51:00Z</time></trkpt><trkpt lat="43.6328682" lon="13.0192013"><ele>125.0</ele><time>2026-04-19T10:51:01Z</time></trkpt><trkpt lat="43.6328388" lon="13.0191013"><ele>124.99999999999999</ele><time>2026-04-19T10:51:02Z</time></trkpt><trkpt lat="43.6328117" lon="13.0190005"><ele>125.0</ele><time>2026-04-19T10:51:03Z</time></trkpt><trkpt lat="43.6327814" lon="13.0189027"><ele>122.66666666666666</ele><time>2026-04-19T10:51:03.999Z</time></trkpt><trkpt lat="43.6327379" lon="13.0188034"><ele>120.33333333333333</ele><time>2026-04-19T10:51:05Z</time></trkpt><trkpt lat="43.6326836" lon="13.0187143"><ele>118.0</ele><time>2026-04-19T10:51:05.999Z</time></trkpt><trkpt lat="43.6326268" lon="13.0186308"><ele>115.66666666666666</ele><time>2026-04-19T10:51:07Z</time></trkpt><trkpt lat="43.6325643" lon="13.0185461"><ele>113.33333333333333</ele><time>2026-04-19T10:51:08Z</time></trkpt><trkpt lat="43.6325003" lon="13.0184542"><ele>111.0</ele><time>2026-04-19T10:51:09Z</time></trkpt><trkpt lat="43.6324341" lon="13.0183569"><ele>111.6</ele><time>2026-04-19T10:51:10Z</time></trkpt><trkpt lat="43.6323662" lon="13.0182551"><ele>112.19999999999999</ele><time>2026-04-19T10:51:11Z</time></trkpt><trkpt lat="43.632299" lon="13.0181482"><ele>112.80000000000001</ele><time>2026-04-19T10:51:12Z</time></trkpt><trkpt lat="43.6322389" lon="13.0180427"><ele>113.4</ele><time>2026-04-19T10:51:13Z</time></trkpt><trkpt lat="43.6321811" lon="13.0179396"><ele>114.0</ele><time>2026-04-19T10:51:14Z</time></trkpt><trkpt lat="43.6321281" lon="13.0178273"><ele>114.0</ele><time>2026-04-19T10:51:14.999Z</time></trkpt><trkpt lat="43.63208" lon="13.0177094"><ele>114.0</ele><time>2026-04-19T10:51:16Z</time></trkpt><trkpt lat="43.6320381" lon="13.0175849"><ele>114.0</ele><time>2026-04-19T10:51:16.999Z</time></trkpt><trkpt lat="43.6320025" lon="13.0174571"><ele>114.0</ele><time>2026-04-19T10:51:18Z</time></trkpt><trkpt lat="43.6319675" lon="13.017325"><ele>114.0</ele><time>2026-04-19T10:51:19Z</time></trkpt><trkpt lat="43.6319332" lon="13.017187"><ele>115.6</ele><time>2026-04-19T10:51:20Z</time></trkpt><trkpt lat="43.6318998" lon="13.017047"><ele>117.2</ele><time>2026-04-19T10:51:21Z</time></trkpt><trkpt lat="43.6318685" lon="13.0169072"><ele>118.79999999999998</ele><time>2026-04-19T10:51:22Z</time></trkpt><trkpt lat="43.6318403" lon="13.0167705"><ele>120.39999999999999</ele><time>2026-04-19T10:51:23Z</time></trkpt><trkpt lat="43.6318139" lon="13.0166356"><ele>122.0</ele><time>2026-04-19T10:51:24Z</time></trkpt><trkpt lat="43.6317892" lon="13.0165019"><ele>123.39999999999999</ele><time>2026-04-19T10:51:25Z</time></trkpt><trkpt lat="43.6317642" lon="13.0163682"><ele>124.79999999999998</ele><time>2026-04-19T10:51:26Z</time></trkpt><trkpt lat="43.6317393" lon="13.0162338"><ele>126.2</ele><time>2026-04-19T10:51:27Z</time></trkpt><trkpt lat="43.6317197" lon="13.0160986"><ele>127.6</ele><time>2026-04-19T10:51:28Z</time></trkpt><trkpt lat="43.6317046" lon="13.0159618"><ele>129.0</ele><time>2026-04-19T10:51:29Z</time></trkpt><trkpt lat="43.6316883" lon="13.0158265"><ele>130.8</ele><time>2026-04-19T10:51:30Z</time></trkpt><trkpt lat="43.6316715" lon="13.0156957"><ele>132.60000000000002</ele><time>2026-04-19T10:51:31Z</time></trkpt><trkpt lat="43.6316541" lon="13.0155676"><ele>134.4</ele><time>2026-04-19T10:51:32Z</time></trkpt><trkpt lat="43.6316387" lon="13.0154461"><ele>136.20000000000002</ele><time>2026-04-19T10:51:33Z</time></trkpt><trkpt lat="43.631623" lon="13.0153216"><ele>138.0</ele><time>2026-04-19T10:51:34Z</time></trkpt><trkpt lat="43.6316093" lon="13.0151959"><ele>138.0</ele><time>2026-04-19T10:51:35Z</time></trkpt><trkpt lat="43.6315917" lon="13.0150724"><ele>138.0</ele><time>2026-04-19T10:51:36Z</time></trkpt><trkpt lat="43.6315715" lon="13.0149409"><ele>138.0</ele><time>2026-04-19T10:51:37Z</time></trkpt><trkpt lat="43.6315489" lon="13.0147981"><ele>138.0</ele><time>2026-04-19T10:51:38Z</time></trkpt><trkpt lat="43.631528" lon="13.0146501"><ele>138.0</ele><time>2026-04-19T10:51:39Z</time></trkpt><trkpt lat="43.6315118" lon="13.0145044"><ele>139.4</ele><time>2026-04-19T10:51:39.999Z</time></trkpt><trkpt lat="43.6314959" lon="13.0143575"><ele>140.8</ele><time>2026-04-19T10:51:41Z</time></trkpt><trkpt lat="43.6314807" lon="13.0142131"><ele>142.2</ele><time>2026-04-19T10:51:42Z</time></trkpt><trkpt lat="43.6314648" lon="13.0140728"><ele>143.6</ele><time>2026-04-19T10:51:43Z</time></trkpt><trkpt lat="43.6314522" lon="13.0139426"><ele>145.0</ele><time>2026-04-19T10:51:44Z</time></trkpt><trkpt lat="43.6314409" lon="13.013813"><ele>146.4</ele><time>2026-04-19T10:51:45Z</time></trkpt><trkpt lat="43.6314287" lon="13.0136809"><ele>147.8</ele><time>2026-04-19T10:51:46Z</time></trkpt><trkpt lat="43.6314164" lon="13.0135581"><ele>149.2</ele><time>2026-04-19T10:51:47Z</time></trkpt><trkpt lat="43.6314013" lon="13.0134301"><ele>150.6</ele><time>2026-04-19T10:51:48Z</time></trkpt><trkpt lat="43.631379" lon="13.0132974"><ele>152.0</ele><time>2026-04-19T10:51:49Z</time></trkpt><trkpt lat="43.6313546" lon="13.0131623"><ele>154.0</ele><time>2026-04-19T10:51:50Z</time></trkpt><trkpt lat="43.6313295" lon="13.013026"><ele>156.0</ele><time>2026-04-19T10:51:51Z</time></trkpt><trkpt lat="43.6313043" lon="13.0128943"><ele>158.0</ele><time>2026-04-19T10:51:52Z</time></trkpt><trkpt lat="43.6312812" lon="13.0127661"><ele>160.0</ele><time>2026-04-19T10:51:53Z</time></trkpt><trkpt lat="43.6312612" lon="13.0126418"><ele>162.0</ele><time>2026-04-19T10:51:53.999Z</time></trkpt><trkpt lat="43.6312354" lon="13.0125218"><ele>163.33333333333334</ele><time>2026-04-19T10:51:55Z</time></trkpt><trkpt lat="43.6312036" lon="13.01241"><ele>164.66666666666666</ele><time>2026-04-19T10:51:56Z</time></trkpt><trkpt lat="43.6311656" lon="13.012309"><ele>166.0</ele><time>2026-04-19T10:51:57Z</time></trkpt><trkpt lat="43.6311177" lon="13.0122181"><ele>167.33333333333331</ele><time>2026-04-19T10:51:58Z</time></trkpt><trkpt lat="43.6310636" lon="13.0121344"><ele>168.66666666666666</ele><time>2026-04-19T10:51:59Z</time></trkpt><trkpt lat="43.6310123" lon="13.0120478"><ele>170.0</ele><time>2026-04-19T10:52:00Z</time></trkpt><trkpt lat="43.6309629" lon="13.011954"><ele>170.16666666666666</ele><time>2026-04-19T10:52:01Z</time></trkpt><trkpt lat="43.6309244" lon="13.0118551"><ele>170.33333333333331</ele><time>2026-04-19T10:52:02Z</time></trkpt><trkpt lat="43.6309015" lon="13.0117508"><ele>170.5</ele><time>2026-04-19T10:52:03Z</time></trkpt><trkpt lat="43.6308825" lon="13.011633"><ele>170.66666666666666</ele><time>2026-04-19T10:52:04Z</time></trkpt><trkpt lat="43.6308636" lon="13.0115164"><ele>170.83333333333334</ele><time>2026-04-19T10:52:05Z</time></trkpt><trkpt lat="43.6308467" lon="13.0114004"><ele>171.0</ele><time>2026-04-19T10:52:06Z</time></trkpt><trkpt lat="43.6308296" lon="13.0112911"><ele>172.5</ele><time>2026-04-19T10:52:07Z</time></trkpt><trkpt lat="43.6308097" lon="13.011179"><ele>174.0</ele><time>2026-04-19T10:52:08Z</time></trkpt><trkpt lat="43.6307856" lon="13.0110635"><ele>175.5</ele><time>2026-04-19T10:52:09Z</time></trkpt><trkpt lat="43.63076" lon="13.0109444"><ele>177.0</ele><time>2026-04-19T10:52:10Z</time></trkpt><trkpt lat="43.630734" lon="13.0108249"><ele>178.5</ele><time>2026-04-19T10:52:11Z</time></trkpt><trkpt lat="43.6307071" lon="13.0107064"><ele>180.0</ele><time>2026-04-19T10:52:12Z</time></trkpt><trkpt lat="43.630679" lon="13.0105853"><ele>181.66666666666666</ele><time>2026-04-19T10:52:13Z</time></trkpt><trkpt lat="43.6306557" lon="13.0104656"><ele>183.33333333333334</ele><time>2026-04-19T10:52:13.999Z</time></trkpt><trkpt lat="43.630631" lon="13.0103488"><ele>185.0</ele><time>2026-04-19T10:52:15Z</time></trkpt><trkpt lat="43.6306078" lon="13.0102361"><ele>186.66666666666669</ele><time>2026-04-19T10:52:16Z</time></trkpt><trkpt lat="43.6305884" lon="13.010132"><ele>188.33333333333334</ele><time>2026-04-19T10:52:17Z</time></trkpt><trkpt lat="43.6305703" lon="13.0100279"><ele>190.0</ele><time>2026-04-19T10:52:18Z</time></trkpt><trkpt lat="43.6305546" lon="13.0099239"><ele>190.71428571428572</ele><time>2026-04-19T10:52:19Z</time></trkpt><trkpt lat="43.6305534" lon="13.0098228"><ele>191.42857142857144</ele><time>2026-04-19T10:52:20Z</time></trkpt><trkpt lat="43.6305687" lon="13.0097285"><ele>192.14285714285714</ele><time>2026-04-19T10:52:21Z</time></trkpt><trkpt lat="43.6305875" lon="13.0096359"><ele>192.85714285714286</ele><time>2026-04-19T10:52:22Z</time></trkpt><trkpt lat="43.6306099" lon="13.0095396"><ele>193.57142857142856</ele><time>2026-04-19T10:52:23Z</time></trkpt><trkpt lat="43.6306396" lon="13.009445"><ele>194.28571428571428</ele><time>2026-04-19T10:52:24Z</time></trkpt><trkpt lat="43.6306747" lon="13.0093502"><ele>195.0</ele><time>2026-04-19T10:52:25Z</time></trkpt><trkpt lat="43.6307161" lon="13.0092507"><ele>196.0</ele><time>2026-04-19T10:52:26Z</time></trkpt><trkpt lat="43.6307604" lon="13.0091538"><ele>197.0</ele><time>2026-04-19T10:52:27Z</time></trkpt><trkpt lat="43.6308045" lon="13.0090527"><ele>198.0</ele><time>2026-04-19T10:52:28Z</time></trkpt><trkpt lat="43.6308406" lon="13.0089486"><ele>199.0</ele><time>2026-04-19T10:52:29Z</time></trkpt><trkpt lat="43.6308812" lon="13.0088528"><ele>200.0</ele><time>2026-04-19T10:52:30Z</time></trkpt><trkpt lat="43.6309197" lon="13.008754"><ele>201.0</ele><time>2026-04-19T10:52:30.999Z</time></trkpt><trkpt lat="43.6309455" lon="13.0086555"><ele>201.0</ele><time>2026-04-19T10:52:32Z</time></trkpt><trkpt lat="43.6309608" lon="13.008547"><ele>201.0</ele><time>2026-04-19T10:52:33Z</time></trkpt><trkpt lat="43.6309672" lon="13.0084324"><ele>201.0</ele><time>2026-04-19T10:52:34Z</time></trkpt><trkpt lat="43.6309678" lon="13.0083201"><ele>201.0</ele><time>2026-04-19T10:52:35Z</time></trkpt><trkpt lat="43.6309596" lon="13.0082059"><ele>201.0</ele><time>2026-04-19T10:52:36Z</time></trkpt><trkpt lat="43.6309383" lon="13.0080937"><ele>201.0</ele><time>2026-04-19T10:52:37Z</time></trkpt><trkpt lat="43.6309033" lon="13.0079852"><ele>201.83333333333334</ele><time>2026-04-19T10:52:38Z</time></trkpt><trkpt lat="43.630859" lon="13.0078824"><ele>202.66666666666669</ele><time>2026-04-19T10:52:39Z</time></trkpt><trkpt lat="43.6308089" lon="13.0077824"><ele>203.5</ele><time>2026-04-19T10:52:40Z</time></trkpt><trkpt lat="43.6307572" lon="13.0076896"><ele>204.33333333333334</ele><time>2026-04-19T10:52:41Z</time></trkpt><trkpt lat="43.6307057" lon="13.0075997"><ele>205.16666666666669</ele><time>2026-04-19T10:52:42Z</time></trkpt><trkpt lat="43.6306561" lon="13.0075104"><ele>206.0</ele><time>2026-04-19T10:52:43Z</time></trkpt><trkpt lat="43.6306031" lon="13.0074141"><ele>206.4</ele><time>2026-04-19T10:52:43.999Z</time></trkpt><trkpt lat="43.6305498" lon="13.007313"><ele>206.8</ele><time>2026-04-19T10:52:45Z</time></trkpt><trkpt lat="43.6304954" lon="13.0072113"><ele>207.20000000000002</ele><time>2026-04-19T10:52:46Z</time></trkpt><trkpt lat="43.6304398" lon="13.0071067"><ele>207.60000000000002</ele><time>2026-04-19T10:52:47Z</time></trkpt><trkpt lat="43.6303878" lon="13.0069996"><ele>208.0</ele><time>2026-04-19T10:52:48Z</time></trkpt><trkpt lat="43.6303373" lon="13.0068918"><ele>209.4</ele><time>2026-04-19T10:52:49Z</time></trkpt><trkpt lat="43.6302883" lon="13.0067837"><ele>210.8</ele><time>2026-04-19T10:52:50Z</time></trkpt><trkpt lat="43.6302449" lon="13.0066731"><ele>212.2</ele><time>2026-04-19T10:52:51Z</time></trkpt><trkpt lat="43.6302093" lon="13.0065539"><ele>213.6</ele><time>2026-04-19T10:52:52Z</time></trkpt><trkpt lat="43.6301764" lon="13.0064334"><ele>215.0</ele><time>2026-04-19T10:52:53Z</time></trkpt><trkpt lat="43.6301476" lon="13.0063099"><ele>216.0</ele><time>2026-04-19T10:52:54Z</time></trkpt><trkpt lat="43.6301191" lon="13.0061815"><ele>217.0</ele><time>2026-04-19T10:52:55Z</time></trkpt><trkpt lat="43.6300946" lon="13.0060503"><ele>218.0</ele><time>2026-04-19T10:52:55.999Z</time></trkpt><trkpt lat="43.6300699" lon="13.0059188"><ele>219.0</ele><time>2026-04-19T10:52:57Z</time></trkpt><trkpt lat="43.6300413" lon="13.0057886"><ele>220.0</ele><time>2026-04-19T10:52:58Z</time></trkpt><trkpt lat="43.6300079" lon="13.0056663"><ele>220.4</ele><time>2026-04-19T10:52:59Z</time></trkpt><trkpt lat="43.629975" lon="13.0055467"><ele>220.8</ele><time>2026-04-19T10:53:00Z</time></trkpt><trkpt lat="43.6299418" lon="13.0054268"><ele>221.2</ele><time>2026-04-19T10:53:01Z</time></trkpt><trkpt lat="43.6299065" lon="13.0053073"><ele>221.6</ele><time>2026-04-19T10:53:02Z</time></trkpt><trkpt lat="43.6298691" lon="13.0051833"><ele>222.0</ele><time>2026-04-19T10:53:03Z</time></trkpt><trkpt lat="43.6298381" lon="13.0050597"><ele>223.6</ele><time>2026-04-19T10:53:04Z</time></trkpt><trkpt lat="43.6298081" lon="13.0049342"><ele>225.2</ele><time>2026-04-19T10:53:05Z</time></trkpt><trkpt lat="43.6297859" lon="13.004812"><ele>226.8</ele><time>2026-04-19T10:53:06Z</time></trkpt><trkpt lat="43.6297651" lon="13.0046898"><ele>228.4</ele><time>2026-04-19T10:53:07Z</time></trkpt><trkpt lat="43.6297408" lon="13.0045694"><ele>230.0</ele><time>2026-04-19T10:53:08Z</time></trkpt><trkpt lat="43.6297147" lon="13.0044514"><ele>230.00000000000003</ele><time>2026-04-19T10:53:09Z</time></trkpt><trkpt lat="43.6296854" lon="13.0043368"><ele>230.0</ele><time>2026-04-19T10:53:10Z</time></trkpt><trkpt lat="43.6296558" lon="13.0042299"><ele>230.0</ele><time>2026-04-19T10:53:11Z</time></trkpt><trkpt lat="43.6296247" lon="13.0041268"><ele>230.0</ele><time>2026-04-19T10:53:12Z</time></trkpt><trkpt lat="43.6295896" lon="13.0040166"><ele>230.00000000000003</ele><time>2026-04-19T10:53:13Z</time></trkpt><trkpt lat="43.6295549" lon="13.003916"><ele>230.0</ele><time>2026-04-19T10:53:14Z</time></trkpt><trkpt lat="43.6295136" lon="13.0038081"><ele>232.4</ele><time>2026-04-19T10:53:15Z</time></trkpt><trkpt lat="43.6294718" lon="13.0036996"><ele>234.8</ele><time>2026-04-19T10:53:16Z</time></trkpt><trkpt lat="43.6294282" lon="13.0035867"><ele>237.2</ele><time>2026-04-19T10:53:17Z</time></trkpt><trkpt lat="43.6293842" lon="13.0034694"><ele>239.6</ele><time>2026-04-19T10:53:18Z</time></trkpt><trkpt lat="43.6293368" lon="13.0033521"><ele>242.0</ele><time>2026-04-19T10:53:19Z</time></trkpt><trkpt lat="43.6292885" lon="13.0032384"><ele>243.6</ele><time>2026-04-19T10:53:20Z</time></trkpt><trkpt lat="43.6292359" lon="13.0031232"><ele>245.2</ele><time>2026-04-19T10:53:21Z</time></trkpt><trkpt lat="43.6291803" lon="13.003009"><ele>246.8</ele><time>2026-04-19T10:53:22Z</time></trkpt><trkpt lat="43.6291256" lon="13.0028974"><ele>248.4</ele><time>2026-04-19T10:53:23Z</time></trkpt><trkpt lat="43.6290763" lon="13.0028012"><ele>250.0</ele><time>2026-04-19T10:53:24Z</time></trkpt><trkpt lat="43.6290203" lon="13.0026956"><ele>250.0</ele><time>2026-04-19T10:53:25Z</time></trkpt><trkpt lat="43.6289596" lon="13.0025893"><ele>250.0</ele><time>2026-04-19T10:53:26Z</time></trkpt><trkpt lat="43.628907" lon="13.0024817"><ele>250.0</ele><time>2026-04-19T10:53:27Z</time></trkpt><trkpt lat="43.6288603" lon="13.0023921"><ele>250.0</ele><time>2026-04-19T10:53:28Z</time></trkpt><trkpt lat="43.6288119" lon="13.0022715"><ele>250.0</ele><time>2026-04-19T10:53:30Z</time></trkpt><trkpt lat="43.6287418" lon="13.0022121"><ele>251.0</ele><time>2026-04-19T10:53:34Z</time></trkpt><trkpt lat="43.6286342" lon="13.0023072"><ele>252.0</ele><time>2026-04-19T10:53:36Z</time></trkpt><trkpt lat="43.6285624" lon="13.0023813"><ele>253.0</ele><time>2026-04-19T10:53:37Z</time></trkpt><trkpt lat="43.6284891" lon="13.0024552"><ele>254.0</ele><time>2026-04-19T10:53:38Z</time></trkpt><trkpt lat="43.6284168" lon="13.0025322"><ele>255.0</ele><time>2026-04-19T10:53:39Z</time></trkpt><trkpt lat="43.6283443" lon="13.0026149"><ele>255.0</ele><time>2026-04-19T10:53:40Z</time></trkpt><trkpt lat="43.628267" lon="13.0027054"><ele>255.0</ele><time>2026-04-19T10:53:41Z</time></trkpt><trkpt lat="43.6281805" lon="13.0028038"><ele>255.0</ele><time>2026-04-19T10:53:42Z</time></trkpt><trkpt lat="43.6280908" lon="13.0029016"><ele>255.0</ele><time>2026-04-19T10:53:42.999Z</time></trkpt><trkpt lat="43.6279938" lon="13.0029874"><ele>255.0</ele><time>2026-04-19T10:53:44Z</time></trkpt><trkpt lat="43.6278884" lon="13.0030587"><ele>254.5</ele><time>2026-04-19T10:53:45Z</time></trkpt><trkpt lat="43.6277776" lon="13.0031122"><ele>254.0</ele><time>2026-04-19T10:53:46Z</time></trkpt><trkpt lat="43.6276536" lon="13.0031477"><ele>253.5</ele><time>2026-04-19T10:53:46.999Z</time></trkpt><trkpt lat="43.6275187" lon="13.00317"><ele>253.0</ele><time>2026-04-19T10:53:48Z</time></trkpt><trkpt lat="43.627379" lon="13.0031871"><ele>253.0</ele><time>2026-04-19T10:53:49Z</time></trkpt><trkpt lat="43.6272357" lon="13.0032068"><ele>253.0</ele><time>2026-04-19T10:53:50Z</time></trkpt><trkpt lat="43.6270919" lon="13.0032311"><ele>253.0</ele><time>2026-04-19T10:53:51Z</time></trkpt><trkpt lat="43.6269493" lon="13.0032656"><ele>253.0</ele><time>2026-04-19T10:53:52Z</time></trkpt><trkpt lat="43.6268095" lon="13.0033085"><ele>249.5</ele><time>2026-04-19T10:53:53Z</time></trkpt><trkpt lat="43.6266709" lon="13.0033535"><ele>246.0</ele><time>2026-04-19T10:53:53.999Z</time></trkpt><trkpt lat="43.6265318" lon="13.0033936"><ele>242.5</ele><time>2026-04-19T10:53:55Z</time></trkpt><trkpt lat="43.6263931" lon="13.0034357"><ele>239.0</ele><time>2026-04-19T10:53:56Z</time></trkpt><trkpt lat="43.6262567" lon="13.0034831"><ele>237.5</ele><time>2026-04-19T10:53:57Z</time></trkpt><trkpt lat="43.626119" lon="13.0035341"><ele>236.0</ele><time>2026-04-19T10:53:58Z</time></trkpt><trkpt lat="43.6259804" lon="13.0035921"><ele>234.5</ele><time>2026-04-19T10:53:59Z</time></trkpt><trkpt lat="43.6258438" lon="13.0036514"><ele>233.0</ele><time>2026-04-19T10:54:00Z</time></trkpt><trkpt lat="43.6257098" lon="13.0037131"><ele>233.0</ele><time>2026-04-19T10:54:01Z</time></trkpt><trkpt lat="43.6255768" lon="13.0037864"><ele>233.0</ele><time>2026-04-19T10:54:01.999Z</time></trkpt><trkpt lat="43.6254437" lon="13.0038676"><ele>233.0</ele><time>2026-04-19T10:54:03Z</time></trkpt><trkpt lat="43.6253126" lon="13.0039591"><ele>233.0</ele><time>2026-04-19T10:54:04Z</time></trkpt><trkpt lat="43.625191" lon="13.0040684"><ele>234.0</ele><time>2026-04-19T10:54:04.999Z</time></trkpt><trkpt lat="43.6250811" lon="13.0042062"><ele>235.0</ele><time>2026-04-19T10:54:06Z</time></trkpt><trkpt lat="43.6249844" lon="13.0043646"><ele>236.0</ele><time>2026-04-19T10:54:07Z</time></trkpt><trkpt lat="43.6248957" lon="13.0045346"><ele>236.0</ele><time>2026-04-19T10:54:07.998Z</time></trkpt><trkpt lat="43.6248129" lon="13.0046968"><ele>236.0</ele><time>2026-04-19T10:54:09Z</time></trkpt><trkpt lat="43.6247219" lon="13.0048528"><ele>236.0</ele><time>2026-04-19T10:54:10Z</time></trkpt><trkpt lat="43.624616" lon="13.0049787"><ele>236.0</ele><time>2026-04-19T10:54:11Z</time></trkpt><trkpt lat="43.6244944" lon="13.0050854"><ele>236.5</ele><time>2026-04-19T10:54:12Z</time></trkpt><trkpt lat="43.6243683" lon="13.0051752"><ele>237.0</ele><time>2026-04-19T10:54:12.999Z</time></trkpt><trkpt lat="43.6242361" lon="13.0052469"><ele>237.5</ele><time>2026-04-19T10:54:14Z</time></trkpt><trkpt lat="43.6241125" lon="13.0053118"><ele>238.0</ele><time>2026-04-19T10:54:15Z</time></trkpt><trkpt lat="43.6239994" lon="13.0053761"><ele>238.0</ele><time>2026-04-19T10:54:16Z</time></trkpt><trkpt lat="43.6238976" lon="13.0054507"><ele>238.0</ele><time>2026-04-19T10:54:17Z</time></trkpt><trkpt lat="43.6238065" lon="13.0055296"><ele>238.0</ele><time>2026-04-19T10:54:18Z</time></trkpt><trkpt lat="43.6237341" lon="13.0056037"><ele>238.0</ele><time>2026-04-19T10:54:19Z</time></trkpt><trkpt lat="43.6236716" lon="13.0056658"><ele>238.0</ele><time>2026-04-19T10:54:20Z</time></trkpt><trkpt lat="43.6236248" lon="13.0057536"><ele>238.66666666666666</ele><time>2026-04-19T10:54:23Z</time></trkpt><trkpt lat="43.623586" lon="13.0058401"><ele>239.33333333333331</ele><time>2026-04-19T10:54:27Z</time></trkpt><trkpt lat="43.623585" lon="13.005958"><ele>240.0</ele><time>2026-04-19T10:54:29Z</time></trkpt><trkpt lat="43.6235655" lon="13.0060498"><ele>240.66666666666669</ele><time>2026-04-19T10:54:30Z</time></trkpt><trkpt lat="43.6235433" lon="13.0061514"><ele>241.33333333333334</ele><time>2026-04-19T10:54:31Z</time></trkpt><trkpt lat="43.6235278" lon="13.0062563"><ele>242.0</ele><time>2026-04-19T10:54:32Z</time></trkpt><trkpt lat="43.62352" lon="13.0063566"><ele>242.00000000000003</ele><time>2026-04-19T10:54:33Z</time></trkpt><trkpt lat="43.6235131" lon="13.0064632"><ele>242.0</ele><time>2026-04-19T10:54:34Z</time></trkpt><trkpt lat="43.6235063" lon="13.006578"><ele>242.0</ele><time>2026-04-19T10:54:35Z</time></trkpt><trkpt lat="43.6235035" lon="13.0066976"><ele>242.0</ele><time>2026-04-19T10:54:36Z</time></trkpt><trkpt lat="43.6235086" lon="13.0068247"><ele>242.00000000000003</ele><time>2026-04-19T10:54:37Z</time></trkpt><trkpt lat="43.6235182" lon="13.006952"><ele>242.0</ele><time>2026-04-19T10:54:38Z</time></trkpt><trkpt lat="43.62353" lon="13.0070733"><ele>241.2</ele><time>2026-04-19T10:54:39Z</time></trkpt><trkpt lat="43.6235407" lon="13.0071942"><ele>240.39999999999998</ele><time>2026-04-19T10:54:40Z</time></trkpt><trkpt lat="43.6235486" lon="13.007316"><ele>239.60000000000002</ele><time>2026-04-19T10:54:40.999Z</time></trkpt><trkpt lat="43.6235546" lon="13.0074411"><ele>238.8</ele><time>2026-04-19T10:54:42Z</time></trkpt><trkpt lat="43.623557" lon="13.0075668"><ele>238.0</ele><time>2026-04-19T10:54:43Z</time></trkpt><trkpt lat="43.6235593" lon="13.0076968"><ele>237.66666666666666</ele><time>2026-04-19T10:54:44Z</time></trkpt><trkpt lat="43.6235587" lon="13.0078279"><ele>237.33333333333331</ele><time>2026-04-19T10:54:45Z</time></trkpt><trkpt lat="43.6235585" lon="13.0079469"><ele>237.0</ele><time>2026-04-19T10:54:45.997Z</time></trkpt><trkpt lat="43.623558" lon="13.0080362"><ele>236.66666666666669</ele><time>2026-04-19T10:54:47Z</time></trkpt><trkpt lat="43.6235521" lon="13.0081319"><ele>236.33333333333334</ele><time>2026-04-19T10:54:50Z</time></trkpt><trkpt lat="43.6235821" lon="13.0080433"><ele>236.0</ele><time>2026-04-19T10:54:55Z</time></trkpt><trkpt lat="43.6235802" lon="13.0079515"><ele>236.0</ele><time>2026-04-19T10:54:56Z</time></trkpt><trkpt lat="43.6235758" lon="13.0078328"><ele>236.00000000000003</ele><time>2026-04-19T10:54:57Z</time></trkpt><trkpt lat="43.6235732" lon="13.0077178"><ele>236.00000000000003</ele><time>2026-04-19T10:54:58Z</time></trkpt><trkpt lat="43.6235698" lon="13.007574"><ele>236.0</ele><time>2026-04-19T10:54:59Z</time></trkpt><trkpt lat="43.6235614" lon="13.0074137"><ele>236.0</ele><time>2026-04-19T10:55:00Z</time></trkpt><trkpt lat="43.6235467" lon="13.0072326"><ele>236.5</ele><time>2026-04-19T10:55:01Z</time></trkpt><trkpt lat="43.6235327" lon="13.0070613"><ele>237.0</ele><time>2026-04-19T10:55:02Z</time></trkpt><trkpt lat="43.623516" lon="13.0068779"><ele>237.5</ele><time>2026-04-19T10:55:03Z</time></trkpt><trkpt lat="43.6235068" lon="13.0066889"><ele>238.0</ele><time>2026-04-19T10:55:04Z</time></trkpt><trkpt lat="43.6235148" lon="13.0065072"><ele>238.8</ele><time>2026-04-19T10:55:04.999Z</time></trkpt><trkpt lat="43.6235326" lon="13.006331"><ele>239.60000000000002</ele><time>2026-04-19T10:55:06Z</time></trkpt><trkpt lat="43.6235597" lon="13.0061715"><ele>240.39999999999998</ele><time>2026-04-19T10:55:07Z</time></trkpt><trkpt lat="43.623586" lon="13.006034"><ele>241.2</ele><time>2026-04-19T10:55:08Z</time></trkpt><trkpt lat="43.6236064" lon="13.0059203"><ele>242.0</ele><time>2026-04-19T10:55:09Z</time></trkpt><trkpt lat="43.6236147" lon="13.0058217"><ele>242.0</ele><time>2026-04-19T10:55:10Z</time></trkpt><trkpt lat="43.6235717" lon="13.0057388"><ele>241.99999999999997</ele><time>2026-04-19T10:55:13.999Z</time></trkpt><trkpt lat="43.6235047" lon="13.0057764"><ele>242.0</ele><time>2026-04-19T10:55:16Z</time></trkpt><trkpt lat="43.6234191" lon="13.0057979"><ele>242.0</ele><time>2026-04-19T10:55:18Z</time></trkpt><trkpt lat="43.6233432" lon="13.0058302"><ele>241.99999999999997</ele><time>2026-04-19T10:55:20Z</time></trkpt><trkpt lat="43.6232796" lon="13.0058609"><ele>242.0</ele><time>2026-04-19T10:55:23Z</time></trkpt><trkpt lat="43.6232266" lon="13.0059122"><ele>242.0</ele><time>2026-04-19T10:55:38Z</time></trkpt><trkpt lat="43.6231613" lon="13.0059487"><ele>242.0</ele><time>2026-04-19T10:55:41Z</time></trkpt><trkpt lat="43.623098" lon="13.0059926"><ele>242.0</ele><time>2026-04-19T10:55:43Z</time></trkpt><trkpt lat="43.623005" lon="13.0060618"><ele>242.0</ele><time>2026-04-19T10:55:45Z</time></trkpt><trkpt lat="43.6229077" lon="13.0061159"><ele>242.0</ele><time>2026-04-19T10:55:47Z</time></trkpt><trkpt lat="43.6228118" lon="13.0061848"><ele>242.0</ele><time>2026-04-19T10:55:49Z</time></trkpt><trkpt lat="43.6227306" lon="13.006235"><ele>241.50000000000003</ele><time>2026-04-19T10:55:51Z</time></trkpt><trkpt lat="43.6226355" lon="13.0062967"><ele>241.0</ele><time>2026-04-19T10:55:53Z</time></trkpt><trkpt lat="43.6225744" lon="13.0063331"><ele>240.5</ele><time>2026-04-19T10:55:54Z</time></trkpt><trkpt lat="43.622466" lon="13.0064273"><ele>240.0</ele><time>2026-04-19T10:55:56Z</time></trkpt><trkpt lat="43.6224078" lon="13.0064745"><ele>239.50000000000003</ele><time>2026-04-19T10:55:57Z</time></trkpt><trkpt lat="43.6223425" lon="13.0065286"><ele>239.0</ele><time>2026-04-19T10:55:58Z</time></trkpt><trkpt lat="43.6222779" lon="13.0065832"><ele>239.00000000000003</ele><time>2026-04-19T10:55:59Z</time></trkpt><trkpt lat="43.622175" lon="13.0066782"><ele>239.0</ele><time>2026-04-19T10:56:01Z</time></trkpt><trkpt lat="43.6221238" lon="13.0067294"><ele>239.0</ele><time>2026-04-19T10:56:02Z</time></trkpt><trkpt lat="43.6220675" lon="13.0067777"><ele>239.0</ele><time>2026-04-19T10:56:02.999Z</time></trkpt><trkpt lat="43.6220112" lon="13.0068267"><ele>239.00000000000003</ele><time>2026-04-19T10:56:04Z</time></trkpt><trkpt lat="43.6219155" lon="13.0069042"><ele>239.0</ele><time>2026-04-19T10:56:06Z</time></trkpt><trkpt lat="43.6218284" lon="13.0069745"><ele>237.66666666666669</ele><time>2026-04-19T10:56:08Z</time></trkpt><trkpt lat="43.6217572" lon="13.0069979"><ele>236.33333333333334</ele><time>2026-04-19T10:56:10Z</time></trkpt><trkpt lat="43.6216771" lon="13.006999"><ele>235.0</ele><time>2026-04-19T10:56:12Z</time></trkpt><trkpt lat="43.6216112" lon="13.0069869"><ele>233.66666666666669</ele><time>2026-04-19T10:56:14Z</time></trkpt><trkpt lat="43.6215494" lon="13.0069674"><ele>232.33333333333334</ele><time>2026-04-19T10:56:16Z</time></trkpt><trkpt lat="43.6214797" lon="13.0069452"><ele>231.0</ele><time>2026-04-19T10:56:18Z</time></trkpt><trkpt lat="43.6213839" lon="13.0069109"><ele>231.0</ele><time>2026-04-19T10:56:20Z</time></trkpt><trkpt lat="43.6213223" lon="13.0068877"><ele>231.0</ele><time>2026-04-19T10:56:20.999Z</time></trkpt><trkpt lat="43.6212564" lon="13.0068617"><ele>231.0</ele><time>2026-04-19T10:56:22Z</time></trkpt><trkpt lat="43.6211901" lon="13.006829"><ele>231.0</ele><time>2026-04-19T10:56:23Z</time></trkpt><trkpt lat="43.6211261" lon="13.0067949"><ele>231.0</ele><time>2026-04-19T10:56:24Z</time></trkpt><trkpt lat="43.6210611" lon="13.0067614"><ele>231.0</ele><time>2026-04-19T10:56:25Z</time></trkpt><trkpt lat="43.620994" lon="13.0067268"><ele>231.0</ele><time>2026-04-19T10:56:26Z</time></trkpt><trkpt lat="43.6209274" lon="13.0066959"><ele>231.33333333333334</ele><time>2026-04-19T10:56:27Z</time></trkpt><trkpt lat="43.6208641" lon="13.0066692"><ele>231.66666666666669</ele><time>2026-04-19T10:56:28Z</time></trkpt><trkpt lat="43.6208014" lon="13.0066517"><ele>232.0</ele><time>2026-04-19T10:56:29Z</time></trkpt><trkpt lat="43.6206942" lon="13.0066099"><ele>232.33333333333334</ele><time>2026-04-19T10:56:31Z</time></trkpt><trkpt lat="43.6206211" lon="13.006584"><ele>232.66666666666669</ele><time>2026-04-19T10:56:33Z</time></trkpt><trkpt lat="43.6205542" lon="13.0065558"><ele>233.0</ele><time>2026-04-19T10:59:33Z</time></trkpt><trkpt lat="43.6204742" lon="13.0065335"><ele>231.66666666666669</ele><time>2026-04-19T10:59:36Z</time></trkpt><trkpt lat="43.6203942" lon="13.006511"><ele>230.33333333333334</ele><time>2026-04-19T10:59:39Z</time></trkpt><trkpt lat="43.6203105" lon="13.0064966"><ele>229.0</ele><time>2026-04-19T10:59:42Z</time></trkpt><trkpt lat="43.6202274" lon="13.006481"><ele>227.66666666666669</ele><time>2026-04-19T10:59:44.997Z</time></trkpt><trkpt lat="43.6201479" lon="13.006476"><ele>226.33333333333334</ele><time>2026-04-19T10:59:48Z</time></trkpt><trkpt lat="43.6200659" lon="13.006468"><ele>225.0</ele><time>2026-04-19T10:59:51Z</time></trkpt><trkpt lat="43.6199816" lon="13.0064596"><ele>225.0</ele><time>2026-04-19T10:59:54Z</time></trkpt><trkpt lat="43.6198972" lon="13.0064623"><ele>225.0</ele><time>2026-04-19T10:59:57Z</time></trkpt><trkpt lat="43.6198117" lon="13.0064686"><ele>225.0</ele><time>2026-04-19T11:00:00Z</time></trkpt><trkpt lat="43.6197266" lon="13.0064734"><ele>225.0</ele><time>2026-04-19T11:00:03Z</time></trkpt><trkpt lat="43.6196419" lon="13.0064849"><ele>225.0</ele><time>2026-04-19T11:00:06Z</time></trkpt><trkpt lat="43.6195586" lon="13.0064937"><ele>225.0</ele><time>2026-04-19T11:00:08.999Z</time></trkpt><trkpt lat="43.6194752" lon="13.0065004"><ele>225.0</ele><time>2026-04-19T11:00:11.999Z</time></trkpt><trkpt lat="43.619395" lon="13.0065041"><ele>225.0</ele><time>2026-04-19T11:00:15Z</time></trkpt><trkpt lat="43.6193155" lon="13.0065089"><ele>225.0</ele><time>2026-04-19T11:00:18Z</time></trkpt><trkpt lat="43.6192399" lon="13.0065082"><ele>225.0</ele><time>2026-04-19T11:00:21Z</time></trkpt><trkpt lat="43.6191652" lon="13.0065025"><ele>225.0</ele><time>2026-04-19T11:00:23.999Z</time></trkpt><trkpt lat="43.6191625" lon="13.0066099"><ele>225.0</ele><time>2026-04-19T11:00:44.997Z</time></trkpt><trkpt lat="43.619128" lon="13.0066973"><ele>226.16666666666666</ele><time>2026-04-19T11:23:18.998Z</time></trkpt><trkpt lat="43.6190561" lon="13.0067748"><ele>227.33333333333331</ele><time>2026-04-19T11:23:22Z</time></trkpt><trkpt lat="43.618998" lon="13.0068538"><ele>228.5</ele><time>2026-04-19T11:23:24Z</time></trkpt><trkpt lat="43.6189593" lon="13.0069435"><ele>229.66666666666666</ele><time>2026-04-19T11:23:26Z</time></trkpt><trkpt lat="43.6189366" lon="13.007037"><ele>230.83333333333331</ele><time>2026-04-19T11:23:27.996Z</time></trkpt><trkpt lat="43.6189183" lon="13.0071295"><ele>232.0</ele><time>2026-04-19T11:23:29.999Z</time></trkpt><trkpt lat="43.6188964" lon="13.007233"><ele>231.99999999999997</ele><time>2026-04-19T11:23:31.998Z</time></trkpt><trkpt lat="43.6188788" lon="13.0073274"><ele>232.0</ele><time>2026-04-19T11:23:33.99Z</time></trkpt><trkpt lat="43.6188595" lon="13.0074308"><ele>232.0</ele><time>2026-04-19T11:23:36Z</time></trkpt><trkpt lat="43.6188394" lon="13.0075564"><ele>232.0</ele><time>2026-04-19T11:23:37.998Z</time></trkpt><trkpt lat="43.6188203" lon="13.0076862"><ele>231.99999999999997</ele><time>2026-04-19T11:23:40Z</time></trkpt><trkpt lat="43.6188002" lon="13.0078006"><ele>232.0</ele><time>2026-04-19T11:23:42Z</time></trkpt><trkpt lat="43.618786" lon="13.0078971"><ele>231.16666666666666</ele><time>2026-04-19T11:23:43.993Z</time></trkpt><trkpt lat="43.6187672" lon="13.0080008"><ele>230.33333333333331</ele><time>2026-04-19T11:23:46.995Z</time></trkpt><trkpt lat="43.6187559" lon="13.0080906"><ele>229.5</ele><time>2026-04-19T11:24:10.992Z</time></trkpt><trkpt lat="43.6187132" lon="13.0082029"><ele>228.66666666666669</ele><time>2026-04-19T11:24:14Z</time></trkpt><trkpt lat="43.6186497" lon="13.0082569"><ele>227.83333333333334</ele><time>2026-04-19T11:24:15.996Z</time></trkpt><trkpt lat="43.6185671" lon="13.0082801"><ele>227.0</ele><time>2026-04-19T11:24:19Z</time></trkpt><trkpt lat="43.6184727" lon="13.0083103"><ele>225.83333333333334</ele><time>2026-04-19T11:24:22Z</time></trkpt><trkpt lat="43.6183918" lon="13.0083285"><ele>224.66666666666669</ele><time>2026-04-19T11:24:24Z</time></trkpt><trkpt lat="43.6183069" lon="13.0083495"><ele>223.5</ele><time>2026-04-19T11:24:26Z</time></trkpt><trkpt lat="43.6182273" lon="13.0083725"><ele>222.33333333333331</ele><time>2026-04-19T11:24:28Z</time></trkpt><trkpt lat="43.6181516" lon="13.0083926"><ele>221.16666666666666</ele><time>2026-04-19T11:24:30Z</time></trkpt><trkpt lat="43.618079" lon="13.0084124"><ele>220.0</ele><time>2026-04-19T11:24:31.994Z</time></trkpt><trkpt lat="43.618008" lon="13.0084305"><ele>219.99999999999997</ele><time>2026-04-19T11:24:33.998Z</time></trkpt><trkpt lat="43.6179404" lon="13.0084457"><ele>220.0</ele><time>2026-04-19T11:24:35.996Z</time></trkpt><trkpt lat="43.6178753" lon="13.0084624"><ele>220.0</ele><time>2026-04-19T11:24:38Z</time></trkpt><trkpt lat="43.617805" lon="13.0084764"><ele>220.0</ele><time>2026-04-19T11:24:39.999Z</time></trkpt><trkpt lat="43.6177287" lon="13.008484"><ele>219.99999999999997</ele><time>2026-04-19T11:24:42Z</time></trkpt><trkpt lat="43.6176307" lon="13.0084915"><ele>220.0</ele><time>2026-04-19T11:24:44Z</time></trkpt><trkpt lat="43.6175351" lon="13.0084994"><ele>219.16666666666666</ele><time>2026-04-19T11:24:46Z</time></trkpt><trkpt lat="43.617448" lon="13.008505"><ele>218.33333333333331</ele><time>2026-04-19T11:24:47.997Z</time></trkpt><trkpt lat="43.6173636" lon="13.0085144"><ele>217.5</ele><time>2026-04-19T11:24:50Z</time></trkpt><trkpt lat="43.6172773" lon="13.0085236"><ele>216.66666666666669</ele><time>2026-04-19T11:24:51.994Z</time></trkpt><trkpt lat="43.6171931" lon="13.0085558"><ele>215.83333333333334</ele><time>2026-04-19T11:24:54.998Z</time></trkpt><trkpt lat="43.6170981" lon="13.0085488"><ele>215.0</ele><time>2026-04-19T11:24:57Z</time></trkpt><trkpt lat="43.6170057" lon="13.0085933"><ele>212.8</ele><time>2026-04-19T11:24:59Z</time></trkpt><trkpt lat="43.6169008" lon="13.0086244"><ele>210.6</ele><time>2026-04-19T11:25:01Z</time></trkpt><trkpt lat="43.6168037" lon="13.0086555"><ele>208.39999999999998</ele><time>2026-04-19T11:25:03Z</time></trkpt><trkpt lat="43.6167091" lon="13.0086857"><ele>206.2</ele><time>2026-04-19T11:25:05Z</time></trkpt><trkpt lat="43.616623" lon="13.0087218"><ele>204.0</ele><time>2026-04-19T11:25:07Z</time></trkpt><trkpt lat="43.6165142" lon="13.0087652"><ele>204.0</ele><time>2026-04-19T11:25:09Z</time></trkpt><trkpt lat="43.6164487" lon="13.0087967"><ele>204.0</ele><time>2026-04-19T11:25:10Z</time></trkpt><trkpt lat="43.6163868" lon="13.0088289"><ele>204.0</ele><time>2026-04-19T11:25:11Z</time></trkpt><trkpt lat="43.6163251" lon="13.0088608"><ele>204.0</ele><time>2026-04-19T11:25:12Z</time></trkpt><trkpt lat="43.6162607" lon="13.0088977"><ele>204.0</ele><time>2026-04-19T11:25:13Z</time></trkpt><trkpt lat="43.6161961" lon="13.0089316"><ele>204.0</ele><time>2026-04-19T11:25:13.993Z</time></trkpt><trkpt lat="43.6161259" lon="13.0089696"><ele>204.0</ele><time>2026-04-19T11:25:15Z</time></trkpt><trkpt lat="43.6160602" lon="13.0089987"><ele>203.0</ele><time>2026-04-19T11:25:16Z</time></trkpt><trkpt lat="43.6159904" lon="13.0090338"><ele>202.0</ele><time>2026-04-19T11:25:16.994Z</time></trkpt><trkpt lat="43.6159198" lon="13.0090777"><ele>201.0</ele><time>2026-04-19T11:25:17.995Z</time></trkpt><trkpt lat="43.6158484" lon="13.0091146"><ele>200.0</ele><time>2026-04-19T11:25:18.999Z</time></trkpt><trkpt lat="43.6157749" lon="13.009147"><ele>199.0</ele><time>2026-04-19T11:25:20Z</time></trkpt><trkpt lat="43.6156994" lon="13.0091758"><ele>198.0</ele><time>2026-04-19T11:25:21Z</time></trkpt><trkpt lat="43.6156246" lon="13.0092127"><ele>198.0</ele><time>2026-04-19T11:25:22Z</time></trkpt><trkpt lat="43.615548" lon="13.0092472"><ele>198.0</ele><time>2026-04-19T11:25:23Z</time></trkpt><trkpt lat="43.6154741" lon="13.0092781"><ele>198.0</ele><time>2026-04-19T11:25:23.997Z</time></trkpt><trkpt lat="43.6154018" lon="13.0093009"><ele>198.0</ele><time>2026-04-19T11:25:25Z</time></trkpt><trkpt lat="43.6153234" lon="13.0093304"><ele>198.0</ele><time>2026-04-19T11:25:26Z</time></trkpt><trkpt lat="43.6152557" lon="13.0093513"><ele>198.0</ele><time>2026-04-19T11:25:27Z</time></trkpt><trkpt lat="43.6151907" lon="13.0093725"><ele>198.0</ele><time>2026-04-19T11:25:27.998Z</time></trkpt><trkpt lat="43.6150744" lon="13.0093955"><ele>196.83333333333334</ele><time>2026-04-19T11:25:30Z</time></trkpt><trkpt lat="43.6149547" lon="13.0094294"><ele>195.66666666666666</ele><time>2026-04-19T11:25:31.999Z</time></trkpt><trkpt lat="43.6148866" lon="13.0094577"><ele>194.5</ele><time>2026-04-19T11:25:33Z</time></trkpt><trkpt lat="43.6148139" lon="13.009497"><ele>193.33333333333331</ele><time>2026-04-19T11:25:34Z</time></trkpt><trkpt lat="43.6147381" lon="13.0095464"><ele>192.16666666666666</ele><time>2026-04-19T11:25:34.997Z</time></trkpt><trkpt lat="43.6146567" lon="13.009601"><ele>191.0</ele><time>2026-04-19T11:25:36Z</time></trkpt><trkpt lat="43.6145691" lon="13.0096556"><ele>189.8</ele><time>2026-04-19T11:25:37Z</time></trkpt><trkpt lat="43.6144844" lon="13.0097109"><ele>188.60000000000002</ele><time>2026-04-19T11:25:37.999Z</time></trkpt><trkpt lat="43.6143975" lon="13.0097681"><ele>187.4</ele><time>2026-04-19T11:25:38.998Z</time></trkpt><trkpt lat="43.6143099" lon="13.0098271"><ele>186.2</ele><time>2026-04-19T11:25:39.999Z</time></trkpt><trkpt lat="43.6142187" lon="13.0098706"><ele>185.0</ele><time>2026-04-19T11:25:41Z</time></trkpt><trkpt lat="43.6141272" lon="13.0099244"><ele>185.0</ele><time>2026-04-19T11:25:41.992Z</time></trkpt><trkpt lat="43.6140435" lon="13.0099665"><ele>185.0</ele><time>2026-04-19T11:25:42.995Z</time></trkpt><trkpt lat="43.6139583" lon="13.0100157"><ele>185.0</ele><time>2026-04-19T11:25:44Z</time></trkpt><trkpt lat="43.6138722" lon="13.0100535"><ele>185.0</ele><time>2026-04-19T11:25:45Z</time></trkpt><trkpt lat="43.6137975" lon="13.0101025"><ele>185.0</ele><time>2026-04-19T11:25:46Z</time></trkpt><trkpt lat="43.6137355" lon="13.0101507"><ele>185.0</ele><time>2026-04-19T11:25:47Z</time></trkpt><trkpt lat="43.613637" lon="13.0102443"><ele>186.66666666666666</ele><time>2026-04-19T11:25:49Z</time></trkpt><trkpt lat="43.6135844" lon="13.010297"><ele>188.33333333333331</ele><time>2026-04-19T11:25:49.999Z</time></trkpt><trkpt lat="43.6135291" lon="13.0103501"><ele>190.0</ele><time>2026-04-19T11:25:51Z</time></trkpt><trkpt lat="43.613466" lon="13.0104116"><ele>191.66666666666666</ele><time>2026-04-19T11:25:51.998Z</time></trkpt><trkpt lat="43.6133969" lon="13.0104745"><ele>193.33333333333334</ele><time>2026-04-19T11:25:52.996Z</time></trkpt><trkpt lat="43.6133273" lon="13.0105409"><ele>195.0</ele><time>2026-04-19T11:25:53.997Z</time></trkpt><trkpt lat="43.6132622" lon="13.0106037"><ele>195.0</ele><time>2026-04-19T11:25:54.999Z</time></trkpt><trkpt lat="43.6131977" lon="13.0106578"><ele>195.0</ele><time>2026-04-19T11:25:55.995Z</time></trkpt><trkpt lat="43.6131265" lon="13.0106981"><ele>195.0</ele><time>2026-04-19T11:25:57Z</time></trkpt><trkpt lat="43.6130561" lon="13.0107225"><ele>195.0</ele><time>2026-04-19T11:25:58Z</time></trkpt><trkpt lat="43.6129811" lon="13.0107355"><ele>195.0</ele><time>2026-04-19T11:25:58.998Z</time></trkpt><trkpt lat="43.6129103" lon="13.0107417"><ele>195.0</ele><time>2026-04-19T11:26:00Z</time></trkpt><trkpt lat="43.6128398" lon="13.0107435"><ele>195.0</ele><time>2026-04-19T11:26:00.993Z</time></trkpt><trkpt lat="43.6127654" lon="13.0107425"><ele>194.66666666666666</ele><time>2026-04-19T11:26:01.997Z</time></trkpt><trkpt lat="43.6126908" lon="13.0107377"><ele>194.33333333333331</ele><time>2026-04-19T11:26:02.996Z</time></trkpt><trkpt lat="43.6126262" lon="13.0107228"><ele>194.0</ele><time>2026-04-19T11:26:04Z</time></trkpt><trkpt lat="43.6125626" lon="13.0107028"><ele>193.66666666666666</ele><time>2026-04-19T11:26:05Z</time></trkpt><trkpt lat="43.6124387" lon="13.0106658"><ele>193.33333333333331</ele><time>2026-04-19T11:26:06.999Z</time></trkpt><trkpt lat="43.6123738" lon="13.0106428"><ele>193.0</ele><time>2026-04-19T11:26:08Z</time></trkpt><trkpt lat="43.6123121" lon="13.0106133"><ele>193.00000000000003</ele><time>2026-04-19T11:26:09Z</time></trkpt><trkpt lat="43.6122497" lon="13.0105867"><ele>193.0</ele><time>2026-04-19T11:26:09.998Z</time></trkpt><trkpt lat="43.6121866" lon="13.0105565"><ele>193.0</ele><time>2026-04-19T11:26:10.997Z</time></trkpt><trkpt lat="43.6121239" lon="13.0105242"><ele>193.0</ele><time>2026-04-19T11:26:12Z</time></trkpt><trkpt lat="43.6120632" lon="13.0104795"><ele>193.0</ele><time>2026-04-19T11:26:13Z</time></trkpt><trkpt lat="43.612" lon="13.0104387"><ele>193.00000000000003</ele><time>2026-04-19T11:26:13.999Z</time></trkpt><trkpt lat="43.611941" lon="13.0103853"><ele>193.0</ele><time>2026-04-19T11:26:15Z</time></trkpt><trkpt lat="43.6118831" lon="13.0103324"><ele>192.14285714285717</ele><time>2026-04-19T11:26:15.999Z</time></trkpt><trkpt lat="43.6118239" lon="13.0102802"><ele>191.28571428571428</ele><time>2026-04-19T11:26:16.999Z</time></trkpt><trkpt lat="43.6117689" lon="13.0102203"><ele>190.42857142857144</ele><time>2026-04-19T11:26:17.995Z</time></trkpt><trkpt lat="43.6117171" lon="13.0101524"><ele>189.57142857142858</ele><time>2026-04-19T11:26:19Z</time></trkpt><trkpt lat="43.6116651" lon="13.0100784"><ele>188.71428571428572</ele><time>2026-04-19T11:26:20Z</time></trkpt><trkpt lat="43.6116119" lon="13.009999"><ele>187.85714285714286</ele><time>2026-04-19T11:26:21Z</time></trkpt><trkpt lat="43.6115609" lon="13.0099139"><ele>187.0</ele><time>2026-04-19T11:26:22Z</time></trkpt><trkpt lat="43.6115148" lon="13.0098325"><ele>186.5</ele><time>2026-04-19T11:26:23Z</time></trkpt><trkpt lat="43.6114675" lon="13.0097496"><ele>186.0</ele><time>2026-04-19T11:26:24Z</time></trkpt><trkpt lat="43.6114187" lon="13.0096632"><ele>185.5</ele><time>2026-04-19T11:26:24.995Z</time></trkpt><trkpt lat="43.611375" lon="13.0095737"><ele>185.0</ele><time>2026-04-19T11:26:25.999Z</time></trkpt><trkpt lat="43.6113333" lon="13.00949"><ele>184.5</ele><time>2026-04-19T11:26:26.997Z</time></trkpt><trkpt lat="43.6112891" lon="13.0094099"><ele>184.0</ele><time>2026-04-19T11:26:27.998Z</time></trkpt><trkpt lat="43.6112487" lon="13.0093295"><ele>184.0</ele><time>2026-04-19T11:26:29Z</time></trkpt><trkpt lat="43.6112084" lon="13.0092479"><ele>184.0</ele><time>2026-04-19T11:26:29.998Z</time></trkpt><trkpt lat="43.6111704" lon="13.0091726"><ele>184.0</ele><time>2026-04-19T11:26:31Z</time></trkpt><trkpt lat="43.6110845" lon="13.0090536"><ele>184.0</ele><time>2026-04-19T11:26:33Z</time></trkpt><trkpt lat="43.6109916" lon="13.0089681"><ele>184.0</ele><time>2026-04-19T11:26:34.996Z</time></trkpt><trkpt lat="43.610889" lon="13.0088886"><ele>183.5</ele><time>2026-04-19T11:26:37Z</time></trkpt><trkpt lat="43.6107705" lon="13.0088239"><ele>183.0</ele><time>2026-04-19T11:26:38.997Z</time></trkpt><trkpt lat="43.6107037" lon="13.0087903"><ele>182.5</ele><time>2026-04-19T11:26:39.999Z</time></trkpt><trkpt lat="43.6106357" lon="13.0087543"><ele>182.0</ele><time>2026-04-19T11:26:41Z</time></trkpt><trkpt lat="43.6105684" lon="13.008717"><ele>181.5</ele><time>2026-04-19T11:26:42Z</time></trkpt><trkpt lat="43.610496" lon="13.0086812"><ele>181.0</ele><time>2026-04-19T11:26:43Z</time></trkpt><trkpt lat="43.6104274" lon="13.0086389"><ele>181.0</ele><time>2026-04-19T11:26:43.996Z</time></trkpt><trkpt lat="43.6103579" lon="13.0085987"><ele>181.0</ele><time>2026-04-19T11:26:44.998Z</time></trkpt><trkpt lat="43.6102886" lon="13.0085548"><ele>181.0</ele><time>2026-04-19T11:26:45.997Z</time></trkpt><trkpt lat="43.6102207" lon="13.0085135"><ele>181.0</ele><time>2026-04-19T11:26:46.999Z</time></trkpt><trkpt lat="43.6101518" lon="13.0084632"><ele>181.0</ele><time>2026-04-19T11:26:48Z</time></trkpt><trkpt lat="43.6100793" lon="13.0084106"><ele>181.0</ele><time>2026-04-19T11:26:49Z</time></trkpt><trkpt lat="43.6100108" lon="13.008346"><ele>180.83333333333334</ele><time>2026-04-19T11:26:50Z</time></trkpt><trkpt lat="43.6099463" lon="13.0082759"><ele>180.66666666666669</ele><time>2026-04-19T11:26:51Z</time></trkpt><trkpt lat="43.6098785" lon="13.0082037"><ele>180.5</ele><time>2026-04-19T11:26:51.997Z</time></trkpt><trkpt lat="43.6098145" lon="13.0081317"><ele>180.33333333333334</ele><time>2026-04-19T11:26:52.999Z</time></trkpt><trkpt lat="43.6097536" lon="13.0080546"><ele>180.16666666666666</ele><time>2026-04-19T11:26:54Z</time></trkpt><trkpt lat="43.609693" lon="13.007974"><ele>180.0</ele><time>2026-04-19T11:26:55Z</time></trkpt><trkpt lat="43.6096302" lon="13.0078944"><ele>180.0</ele><time>2026-04-19T11:26:56Z</time></trkpt><trkpt lat="43.6095723" lon="13.0078137"><ele>180.0</ele><time>2026-04-19T11:26:56.999Z</time></trkpt><trkpt lat="43.6095156" lon="13.0077407"><ele>180.0</ele><time>2026-04-19T11:26:57.998Z</time></trkpt><trkpt lat="43.6094597" lon="13.0076716"><ele>180.0</ele><time>2026-04-19T11:26:58.995Z</time></trkpt><trkpt lat="43.6094039" lon="13.0075965"><ele>180.0</ele><time>2026-04-19T11:26:59.997Z</time></trkpt><trkpt lat="43.6093503" lon="13.0075256"><ele>180.0</ele><time>2026-04-19T11:27:01Z</time></trkpt><trkpt lat="43.609298" lon="13.0074503"><ele>180.0</ele><time>2026-04-19T11:27:02Z</time></trkpt><trkpt lat="43.6092464" lon="13.0073854"><ele>180.0</ele><time>2026-04-19T11:27:03Z</time></trkpt><trkpt lat="43.609198" lon="13.0073266"><ele>180.0</ele><time>2026-04-19T11:27:04Z</time></trkpt><trkpt lat="43.6091226" lon="13.0072167"><ele>180.0</ele><time>2026-04-19T11:27:06Z</time></trkpt><trkpt lat="43.6090469" lon="13.0071183"><ele>180.0</ele><time>2026-04-19T11:27:07.999Z</time></trkpt><trkpt lat="43.6089715" lon="13.0070161"><ele>180.0</ele><time>2026-04-19T11:27:10Z</time></trkpt><trkpt lat="43.6088893" lon="13.0069191"><ele>180.0</ele><time>2026-04-19T11:27:12Z</time></trkpt><trkpt lat="43.6088239" lon="13.0068423"><ele>180.0</ele><time>2026-04-19T11:27:14Z</time></trkpt><trkpt lat="43.6087679" lon="13.0067815"><ele>180.0</ele><time>2026-04-19T11:27:15.998Z</time></trkpt><trkpt lat="43.6087056" lon="13.0067201"><ele>180.0</ele><time>2026-04-19T11:27:18Z</time></trkpt><trkpt lat="43.6086438" lon="13.0066585"><ele>180.0</ele><time>2026-04-19T11:27:19.995Z</time></trkpt><trkpt lat="43.608576" lon="13.0065931"><ele>179.0</ele><time>2026-04-19T11:27:21.992Z</time></trkpt><trkpt lat="43.6085108" lon="13.0065295"><ele>178.0</ele><time>2026-04-19T11:27:23.993Z</time></trkpt><trkpt lat="43.6084403" lon="13.0064584"><ele>177.0</ele><time>2026-04-19T11:27:26Z</time></trkpt><trkpt lat="43.6083702" lon="13.0063856"><ele>176.0</ele><time>2026-04-19T11:27:27.995Z</time></trkpt><trkpt lat="43.6082962" lon="13.006304"><ele>175.0</ele><time>2026-04-19T11:27:30Z</time></trkpt><trkpt lat="43.6082163" lon="13.0062283"><ele>174.0</ele><time>2026-04-19T11:27:31.99Z</time></trkpt><trkpt lat="43.6081402" lon="13.0061543"><ele>174.0</ele><time>2026-04-19T11:27:33.997Z</time></trkpt><trkpt lat="43.6080643" lon="13.0060703"><ele>174.0</ele><time>2026-04-19T11:27:36Z</time></trkpt><trkpt lat="43.6079892" lon="13.0059919"><ele>174.0</ele><time>2026-04-19T11:27:38Z</time></trkpt><trkpt lat="43.6079122" lon="13.0059149"><ele>174.0</ele><time>2026-04-19T11:27:40Z</time></trkpt><trkpt lat="43.6078351" lon="13.0058286"><ele>174.0</ele><time>2026-04-19T11:27:41.998Z</time></trkpt><trkpt lat="43.607747" lon="13.0057439"><ele>173.0</ele><time>2026-04-19T11:27:43.996Z</time></trkpt><trkpt lat="43.6076676" lon="13.0056619"><ele>172.0</ele><time>2026-04-19T11:27:45.995Z</time></trkpt><trkpt lat="43.6075864" lon="13.005579"><ele>171.0</ele><time>2026-04-19T11:27:47.997Z</time></trkpt><trkpt lat="43.6074928" lon="13.0054898"><ele>170.0</ele><time>2026-04-19T11:27:50Z</time></trkpt><trkpt lat="43.6074028" lon="13.0054023"><ele>169.0</ele><time>2026-04-19T11:27:52Z</time></trkpt><trkpt lat="43.6073012" lon="13.0053128"><ele>169.0</ele><time>2026-04-19T11:27:54Z</time></trkpt><trkpt lat="43.6072477" lon="13.0052615"><ele>169.0</ele><time>2026-04-19T11:27:55Z</time></trkpt><trkpt lat="43.6071938" lon="13.0052112"><ele>169.0</ele><time>2026-04-19T11:27:56Z</time></trkpt><trkpt lat="43.607087" lon="13.0051252"><ele>169.0</ele><time>2026-04-19T11:27:57.997Z</time></trkpt><trkpt lat="43.6070338" lon="13.0050747"><ele>169.0</ele><time>2026-04-19T11:27:59Z</time></trkpt><trkpt lat="43.6069731" lon="13.0050265"><ele>169.0</ele><time>2026-04-19T11:28:00Z</time></trkpt><trkpt lat="43.6069102" lon="13.004979"><ele>167.6</ele><time>2026-04-19T11:28:01Z</time></trkpt><trkpt lat="43.606851" lon="13.0049392"><ele>166.2</ele><time>2026-04-19T11:28:02Z</time></trkpt><trkpt lat="43.6067909" lon="13.0049068"><ele>164.79999999999998</ele><time>2026-04-19T11:28:02.997Z</time></trkpt><trkpt lat="43.6066742" lon="13.0048613"><ele>163.39999999999998</ele><time>2026-04-19T11:28:05Z</time></trkpt><trkpt lat="43.6065535" lon="13.0048355"><ele>162.0</ele><time>2026-04-19T11:28:06.993Z</time></trkpt><trkpt lat="43.6064357" lon="13.0048251"><ele>162.0</ele><time>2026-04-19T11:28:08.996Z</time></trkpt><trkpt lat="43.6063219" lon="13.0048244"><ele>162.0</ele><time>2026-04-19T11:28:11Z</time></trkpt><trkpt lat="43.6062004" lon="13.0048442"><ele>162.0</ele><time>2026-04-19T11:28:13Z</time></trkpt><trkpt lat="43.606136" lon="13.0048494"><ele>162.0</ele><time>2026-04-19T11:28:14Z</time></trkpt><trkpt lat="43.6060651" lon="13.0048436"><ele>162.0</ele><time>2026-04-19T11:28:14.998Z</time></trkpt><trkpt lat="43.6059958" lon="13.0048361"><ele>162.0</ele><time>2026-04-19T11:28:15.999Z</time></trkpt><trkpt lat="43.605926" lon="13.0048231"><ele>161.0</ele><time>2026-04-19T11:28:17Z</time></trkpt><trkpt lat="43.6058568" lon="13.0048083"><ele>160.0</ele><time>2026-04-19T11:28:17.996Z</time></trkpt><trkpt lat="43.6057854" lon="13.0047865"><ele>159.0</ele><time>2026-04-19T11:28:19Z</time></trkpt><trkpt lat="43.6057199" lon="13.0047607"><ele>158.0</ele><time>2026-04-19T11:28:20Z</time></trkpt><trkpt lat="43.6056478" lon="13.0047452"><ele>157.0</ele><time>2026-04-19T11:28:21Z</time></trkpt><trkpt lat="43.6055751" lon="13.0047237"><ele>156.0</ele><time>2026-04-19T11:28:22Z</time></trkpt><trkpt lat="43.605507" lon="13.0046944"><ele>155.0</ele><time>2026-04-19T11:28:23Z</time></trkpt><trkpt lat="43.60539" lon="13.0046402"><ele>152.33333333333331</ele><time>2026-04-19T11:28:25Z</time></trkpt><trkpt lat="43.6053277" lon="13.0046116"><ele>149.66666666666666</ele><time>2026-04-19T11:28:26Z</time></trkpt><trkpt lat="43.6052111" lon="13.0045864"><ele>147.0</ele><time>2026-04-19T11:28:27.996Z</time></trkpt><trkpt lat="43.6050882" lon="13.0046208"><ele>144.33333333333334</ele><time>2026-04-19T11:28:30Z</time></trkpt><trkpt lat="43.6050282" lon="13.0046617"><ele>141.66666666666669</ele><time>2026-04-19T11:28:30.999Z</time></trkpt><trkpt lat="43.6049699" lon="13.0047128"><ele>139.0</ele><time>2026-04-19T11:28:31.997Z</time></trkpt><trkpt lat="43.604908" lon="13.0047823"><ele>139.0</ele><time>2026-04-19T11:28:33Z</time></trkpt><trkpt lat="43.6048547" lon="13.0048532"><ele>139.0</ele><time>2026-04-19T11:28:34Z</time></trkpt><trkpt lat="43.6047959" lon="13.0049375"><ele>139.0</ele><time>2026-04-19T11:28:34.997Z</time></trkpt><trkpt lat="43.6047438" lon="13.0050135"><ele>139.0</ele><time>2026-04-19T11:28:35.997Z</time></trkpt><trkpt lat="43.6046867" lon="13.0050982"><ele>139.0</ele><time>2026-04-19T11:28:36.992Z</time></trkpt><trkpt lat="43.6046335" lon="13.0051936"><ele>139.0</ele><time>2026-04-19T11:28:38Z</time></trkpt><trkpt lat="43.6045925" lon="13.0052739"><ele>138.5</ele><time>2026-04-19T11:28:39Z</time></trkpt><trkpt lat="43.6045433" lon="13.0053674"><ele>138.0</ele><time>2026-04-19T11:28:39.993Z</time></trkpt><trkpt lat="43.6045018" lon="13.0054419"><ele>137.5</ele><time>2026-04-19T11:28:41Z</time></trkpt><trkpt lat="43.6044507" lon="13.005508"><ele>137.0</ele><time>2026-04-19T11:28:41.997Z</time></trkpt><trkpt lat="43.6043362" lon="13.0055585"><ele>136.5</ele><time>2026-04-19T11:28:44Z</time></trkpt><trkpt lat="43.6042715" lon="13.005552"><ele>136.0</ele><time>2026-04-19T11:28:45Z</time></trkpt><trkpt lat="43.6042039" lon="13.0055249"><ele>134.66666666666669</ele><time>2026-04-19T11:28:46Z</time></trkpt><trkpt lat="43.6041336" lon="13.005484"><ele>133.33333333333334</ele><time>2026-04-19T11:28:47Z</time></trkpt><trkpt lat="43.6040593" lon="13.0054336"><ele>132.0</ele><time>2026-04-19T11:28:47.997Z</time></trkpt><trkpt lat="43.6039794" lon="13.0053769"><ele>130.66666666666666</ele><time>2026-04-19T11:28:49Z</time></trkpt><trkpt lat="43.6038991" lon="13.0053207"><ele>129.33333333333331</ele><time>2026-04-19T11:28:49.999Z</time></trkpt><trkpt lat="43.6038218" lon="13.0052678"><ele>128.0</ele><time>2026-04-19T11:28:51Z</time></trkpt><trkpt lat="43.6037505" lon="13.0052228"><ele>128.0</ele><time>2026-04-19T11:28:52Z</time></trkpt><trkpt lat="43.603685" lon="13.0051904"><ele>127.99999999999999</ele><time>2026-04-19T11:28:52.999Z</time></trkpt><trkpt lat="43.6036224" lon="13.0051719"><ele>128.0</ele><time>2026-04-19T11:28:53.999Z</time></trkpt><trkpt lat="43.6035584" lon="13.0051642"><ele>128.0</ele><time>2026-04-19T11:28:54.996Z</time></trkpt><trkpt lat="43.6034916" lon="13.0051721"><ele>127.99999999999999</ele><time>2026-04-19T11:28:55.998Z</time></trkpt><trkpt lat="43.6034202" lon="13.0052017"><ele>128.0</ele><time>2026-04-19T11:28:56.997Z</time></trkpt><trkpt lat="43.6033538" lon="13.005239"><ele>128.0</ele><time>2026-04-19T11:28:57.996Z</time></trkpt><trkpt lat="43.6032875" lon="13.005276"><ele>127.71428571428571</ele><time>2026-04-19T11:28:58.996Z</time></trkpt><trkpt lat="43.6032238" lon="13.0053139"><ele>127.42857142857142</ele><time>2026-04-19T11:28:59.997Z</time></trkpt><trkpt lat="43.6031597" lon="13.0053493"><ele>127.14285714285714</ele><time>2026-04-19T11:29:00.999Z</time></trkpt><trkpt lat="43.6030931" lon="13.0053895"><ele>126.85714285714286</ele><time>2026-04-19T11:29:02Z</time></trkpt><trkpt lat="43.6030297" lon="13.0054253"><ele>126.57142857142857</ele><time>2026-04-19T11:29:03Z</time></trkpt><trkpt lat="43.6029644" lon="13.0054613"><ele>126.28571428571428</ele><time>2026-04-19T11:29:03.999Z</time></trkpt><trkpt lat="43.6028971" lon="13.0054972"><ele>126.0</ele><time>2026-04-19T11:29:04.998Z</time></trkpt><trkpt lat="43.6028317" lon="13.0055297"><ele>125.83333333333333</ele><time>2026-04-19T11:29:05.998Z</time></trkpt><trkpt lat="43.6027641" lon="13.0055632"><ele>125.66666666666666</ele><time>2026-04-19T11:29:07Z</time></trkpt><trkpt lat="43.602692" lon="13.0056017"><ele>125.5</ele><time>2026-04-19T11:29:08Z</time></trkpt><trkpt lat="43.6026135" lon="13.0056432"><ele>125.33333333333333</ele><time>2026-04-19T11:29:09Z</time></trkpt><trkpt lat="43.6025279" lon="13.005688"><ele>125.16666666666666</ele><time>2026-04-19T11:29:10Z</time></trkpt><trkpt lat="43.6024377" lon="13.0057356"><ele>125.0</ele><time>2026-04-19T11:29:10.998Z</time></trkpt><trkpt lat="43.602343" lon="13.0057851"><ele>124.75</ele><time>2026-04-19T11:29:11.996Z</time></trkpt><trkpt lat="43.6022402" lon="13.0058421"><ele>124.5</ele><time>2026-04-19T11:29:13Z</time></trkpt><trkpt lat="43.6021339" lon="13.0058968"><ele>124.25</ele><time>2026-04-19T11:29:14Z</time></trkpt><trkpt lat="43.602024" lon="13.0059523"><ele>124.0</ele><time>2026-04-19T11:29:14.994Z</time></trkpt><trkpt lat="43.6019173" lon="13.0060051"><ele>124.0</ele><time>2026-04-19T11:29:15.998Z</time></trkpt><trkpt lat="43.6018127" lon="13.0060639"><ele>124.0</ele><time>2026-04-19T11:29:17Z</time></trkpt><trkpt lat="43.6017136" lon="13.0061179"><ele>124.0</ele><time>2026-04-19T11:29:17.998Z</time></trkpt><trkpt lat="43.6016255" lon="13.0061618"><ele>124.0</ele><time>2026-04-19T11:29:19Z</time></trkpt><trkpt lat="43.6015392" lon="13.0061975"><ele>124.0</ele><time>2026-04-19T11:29:20Z</time></trkpt><trkpt lat="43.6014597" lon="13.006236"><ele>124.00000000000001</ele><time>2026-04-19T11:29:20.998Z</time></trkpt><trkpt lat="43.6013841" lon="13.0062763"><ele>124.0</ele><time>2026-04-19T11:29:21.994Z</time></trkpt><trkpt lat="43.6013196" lon="13.0063128"><ele>124.0</ele><time>2026-04-19T11:29:23Z</time></trkpt><trkpt lat="43.6012577" lon="13.0063375"><ele>124.0</ele><time>2026-04-19T11:29:23.997Z</time></trkpt><trkpt lat="43.6011624" lon="13.0063535"><ele>124.00000000000001</ele><time>2026-04-19T11:29:25.997Z</time></trkpt><trkpt lat="43.6010968" lon="13.006284"><ele>124.0</ele><time>2026-04-19T11:29:27.994Z</time></trkpt><trkpt lat="43.601067" lon="13.0062056"><ele>124.0</ele><time>2026-04-19T11:29:28.992Z</time></trkpt><trkpt lat="43.601027" lon="13.0061095"><ele>124.0</ele><time>2026-04-19T11:29:29.997Z</time></trkpt><trkpt lat="43.6009759" lon="13.0060004"><ele>124.0</ele><time>2026-04-19T11:29:31Z</time></trkpt><trkpt lat="43.6009099" lon="13.0058904"><ele>124.0</ele><time>2026-04-19T11:29:32Z</time></trkpt><trkpt lat="43.6008259" lon="13.0057782"><ele>124.0</ele><time>2026-04-19T11:29:32.997Z</time></trkpt><trkpt lat="43.6007216" lon="13.0056567"><ele>124.0</ele><time>2026-04-19T11:29:33.995Z</time></trkpt><trkpt lat="43.6006085" lon="13.0055271"><ele>124.0</ele><time>2026-04-19T11:29:34.998Z</time></trkpt><trkpt lat="43.6004939" lon="13.0053868"><ele>124.0</ele><time>2026-04-19T11:29:35.991Z</time></trkpt><trkpt lat="43.6003732" lon="13.0052292"><ele>122.33333333333334</ele><time>2026-04-19T11:29:36.999Z</time></trkpt><trkpt lat="43.6002542" lon="13.0050495"><ele>120.66666666666666</ele><time>2026-04-19T11:29:37.995Z</time></trkpt><trkpt lat="43.6001364" lon="13.0048499"><ele>119.0</ele><time>2026-04-19T11:29:38.997Z</time></trkpt><trkpt lat="43.6000188" lon="13.0046208"><ele>119.0</ele><time>2026-04-19T11:29:39.996Z</time></trkpt><trkpt lat="43.5998885" lon="13.0043836"><ele>119.0</ele><time>2026-04-19T11:29:40.999Z</time></trkpt><trkpt lat="43.5997481" lon="13.004136"><ele>119.0</ele><time>2026-04-19T11:29:41.996Z</time></trkpt><trkpt lat="43.5996097" lon="13.003885"><ele>118.0</ele><time>2026-04-19T11:29:43Z</time></trkpt><trkpt lat="43.5994708" lon="13.0036278"><ele>117.0</ele><time>2026-04-19T11:29:44Z</time></trkpt><trkpt lat="43.5993204" lon="13.0033652"><ele>118.5</ele><time>2026-04-19T11:29:45Z</time></trkpt><trkpt lat="43.5991699" lon="13.003106"><ele>120.0</ele><time>2026-04-19T11:29:45.991Z</time></trkpt><trkpt lat="43.5990197" lon="13.0028468"><ele>120.0</ele><time>2026-04-19T11:29:46.991Z</time></trkpt><trkpt lat="43.5988739" lon="13.0025956"><ele>120.0</ele><time>2026-04-19T11:29:47.997Z</time></trkpt><trkpt lat="43.5987312" lon="13.0023452"><ele>120.0</ele><time>2026-04-19T11:29:49Z</time></trkpt><trkpt lat="43.5985871" lon="13.0020988"><ele>120.0</ele><time>2026-04-19T11:29:50Z</time></trkpt><trkpt lat="43.5984498" lon="13.001866"><ele>120.0</ele><time>2026-04-19T11:29:51Z</time></trkpt><trkpt lat="43.5983212" lon="13.001635"><ele>121.66666666666666</ele><time>2026-04-19T11:29:52Z</time></trkpt><trkpt lat="43.5981936" lon="13.0014185"><ele>123.33333333333333</ele><time>2026-04-19T11:29:52.998Z</time></trkpt><trkpt lat="43.5980722" lon="13.001196"><ele>125.0</ele><time>2026-04-19T11:29:53.998Z</time></trkpt><trkpt lat="43.5979517" lon="13.0009872"><ele>124.33333333333333</ele><time>2026-04-19T11:29:54.999Z</time></trkpt><trkpt lat="43.5978292" lon="13.0007779"><ele>123.66666666666666</ele><time>2026-04-19T11:29:56Z</time></trkpt><trkpt lat="43.5977074" lon="13.000567"><ele>123.0</ele><time>2026-04-19T11:29:56.999Z</time></trkpt><trkpt lat="43.5975876" lon="13.0003552"><ele>123.0</ele><time>2026-04-19T11:29:58Z</time></trkpt><trkpt lat="43.5974664" lon="13.0001449"><ele>123.0</ele><time>2026-04-19T11:29:58.998Z</time></trkpt><trkpt lat="43.5973472" lon="12.9999343"><ele>123.0</ele><time>2026-04-19T11:30:00Z</time></trkpt><trkpt lat="43.5972343" lon="12.9997436"><ele>123.0</ele><time>2026-04-19T11:30:00.997Z</time></trkpt><trkpt lat="43.597125" lon="12.9995575"><ele>123.0</ele><time>2026-04-19T11:30:01.998Z</time></trkpt><trkpt lat="43.5970184" lon="12.9993811"><ele>123.0</ele><time>2026-04-19T11:30:02.994Z</time></trkpt><trkpt lat="43.5969223" lon="12.9992168"><ele>123.5</ele><time>2026-04-19T11:30:03.996Z</time></trkpt><trkpt lat="43.5968284" lon="12.9990545"><ele>124.0</ele><time>2026-04-19T11:30:04.995Z</time></trkpt><trkpt lat="43.5967415" lon="12.9989013"><ele>124.5</ele><time>2026-04-19T11:30:06Z</time></trkpt><trkpt lat="43.5966495" lon="12.9987394"><ele>125.0</ele><time>2026-04-19T11:30:06.999Z</time></trkpt><trkpt lat="43.5965581" lon="12.9985798"><ele>125.0</ele><time>2026-04-19T11:30:07.996Z</time></trkpt><trkpt lat="43.5964705" lon="12.9984276"><ele>125.0</ele><time>2026-04-19T11:30:08.996Z</time></trkpt><trkpt lat="43.596389" lon="12.9982915"><ele>125.0</ele><time>2026-04-19T11:30:09.992Z</time></trkpt><trkpt lat="43.5963167" lon="12.9981529"><ele>125.0</ele><time>2026-04-19T11:30:11Z</time></trkpt><trkpt lat="43.5962575" lon="12.9980334"><ele>124.66666666666666</ele><time>2026-04-19T11:30:11.99Z</time></trkpt><trkpt lat="43.5962089" lon="12.9979264"><ele>124.33333333333333</ele><time>2026-04-19T11:30:12.997Z</time></trkpt><trkpt lat="43.5961687" lon="12.9978312"><ele>124.0</ele><time>2026-04-19T11:30:13.993Z</time></trkpt><trkpt lat="43.5961265" lon="12.9977444"><ele>123.66666666666666</ele><time>2026-04-19T11:30:15Z</time></trkpt><trkpt lat="43.5960728" lon="12.9976707"><ele>123.33333333333333</ele><time>2026-04-19T11:30:15.999Z</time></trkpt><trkpt lat="43.5960121" lon="12.9975948"><ele>123.0</ele><time>2026-04-19T11:30:16.998Z</time></trkpt><trkpt lat="43.5959424" lon="12.9975091"><ele>123.25</ele><time>2026-04-19T11:30:17.999Z</time></trkpt><trkpt lat="43.5958553" lon="12.9974445"><ele>123.5</ele><time>2026-04-19T11:30:19.001Z</time></trkpt><trkpt lat="43.5957463" lon="12.9974231"><ele>123.75</ele><time>2026-04-19T11:30:20Z</time></trkpt><trkpt lat="43.5956264" lon="12.9974379"><ele>124.0</ele><time>2026-04-19T11:30:20.996Z</time></trkpt><trkpt lat="43.5955021" lon="12.9974769"><ele>124.0</ele><time>2026-04-19T11:30:22Z</time></trkpt><trkpt lat="43.5953739" lon="12.9975002"><ele>124.0</ele><time>2026-04-19T11:30:22.992Z</time></trkpt><trkpt lat="43.5952498" lon="12.9974866"><ele>124.0</ele><time>2026-04-19T11:30:23.999Z</time></trkpt><trkpt lat="43.5951371" lon="12.9974335"><ele>124.0</ele><time>2026-04-19T11:30:24.994Z</time></trkpt><trkpt lat="43.595037" lon="12.9973416"><ele>123.5</ele><time>2026-04-19T11:30:25.995Z</time></trkpt><trkpt lat="43.5949471" lon="12.997224"><ele>123.0</ele><time>2026-04-19T11:30:27Z</time></trkpt><trkpt lat="43.594851" lon="12.9971089"><ele>122.5</ele><time>2026-04-19T11:30:27.998Z</time></trkpt><trkpt lat="43.5947466" lon="12.9969887"><ele>122.0</ele><time>2026-04-19T11:30:28.992Z</time></trkpt><trkpt lat="43.5946403" lon="12.9968803"><ele>122.0</ele><time>2026-04-19T11:30:29.998Z</time></trkpt><trkpt lat="43.5945356" lon="12.9967853"><ele>122.0</ele><time>2026-04-19T11:30:30.998Z</time></trkpt><trkpt lat="43.594435" lon="12.9966984"><ele>122.0</ele><time>2026-04-19T11:30:32Z</time></trkpt><trkpt lat="43.594338" lon="12.9966293"><ele>122.0</ele><time>2026-04-19T11:30:32.998Z</time></trkpt><trkpt lat="43.5942466" lon="12.9965723"><ele>122.8</ele><time>2026-04-19T11:30:34Z</time></trkpt><trkpt lat="43.5941622" lon="12.9965046"><ele>123.6</ele><time>2026-04-19T11:30:34.992Z</time></trkpt><trkpt lat="43.594082" lon="12.996424"><ele>124.39999999999999</ele><time>2026-04-19T11:30:35.992Z</time></trkpt><trkpt lat="43.5940084" lon="12.9963268"><ele>125.19999999999999</ele><time>2026-04-19T11:30:37Z</time></trkpt><trkpt lat="43.5939557" lon="12.9962203"><ele>126.0</ele><time>2026-04-19T11:30:38Z</time></trkpt><trkpt lat="43.5939199" lon="12.9961115"><ele>126.0</ele><time>2026-04-19T11:30:39Z</time></trkpt><trkpt lat="43.5938915" lon="12.9960094"><ele>126.0</ele><time>2026-04-19T11:30:39.993Z</time></trkpt><trkpt lat="43.5938681" lon="12.9959271"><ele>126.0</ele><time>2026-04-19T11:30:40.994Z</time></trkpt><trkpt lat="43.5937838" lon="12.9958282"><ele>126.0</ele><time>2026-04-19T11:30:42.999Z</time></trkpt><trkpt lat="43.5937176" lon="12.995805"><ele>126.0</ele><time>2026-04-19T11:30:43.999Z</time></trkpt><trkpt lat="43.5936499" lon="12.9957809"><ele>126.0</ele><time>2026-04-19T11:30:45Z</time></trkpt><trkpt lat="43.5935754" lon="12.9957874"><ele>126.19999999999999</ele><time>2026-04-19T11:30:45.999Z</time></trkpt><trkpt lat="43.5934976" lon="12.9958258"><ele>126.39999999999999</ele><time>2026-04-19T11:30:47Z</time></trkpt><trkpt lat="43.5934125" lon="12.9959068"><ele>126.6</ele><time>2026-04-19T11:30:48Z</time></trkpt><trkpt lat="43.5933255" lon="12.9959965"><ele>126.8</ele><time>2026-04-19T11:30:49Z</time></trkpt><trkpt lat="43.5932281" lon="12.9961088"><ele>127.0</ele><time>2026-04-19T11:30:50Z</time></trkpt><trkpt lat="43.5931353" lon="12.9962247"><ele>127.0</ele><time>2026-04-19T11:30:50.995Z</time></trkpt><trkpt lat="43.5930288" lon="12.9963339"><ele>127.0</ele><time>2026-04-19T11:30:52Z</time></trkpt><trkpt lat="43.5929133" lon="12.9964207"><ele>127.0</ele><time>2026-04-19T11:30:52.999Z</time></trkpt><trkpt lat="43.592782" lon="12.9964709"><ele>127.0</ele><time>2026-04-19T11:30:53.993Z</time></trkpt><trkpt lat="43.5926437" lon="12.9964618"><ele>127.66666666666667</ele><time>2026-04-19T11:30:54.999Z</time></trkpt><trkpt lat="43.5925069" lon="12.9964062"><ele>128.33333333333334</ele><time>2026-04-19T11:30:56Z</time></trkpt><trkpt lat="43.5923545" lon="12.9963137"><ele>129.0</ele><time>2026-04-19T11:30:57Z</time></trkpt><trkpt lat="43.5921885" lon="12.9962166"><ele>129.0</ele><time>2026-04-19T11:30:57.998Z</time></trkpt><trkpt lat="43.5920375" lon="12.9961333"><ele>129.0</ele><time>2026-04-19T11:30:58.999Z</time></trkpt><trkpt lat="43.5918764" lon="12.9960622"><ele>129.0</ele><time>2026-04-19T11:31:00Z</time></trkpt><trkpt lat="43.5916976" lon="12.9960246"><ele>131.0</ele><time>2026-04-19T11:31:01Z</time></trkpt><trkpt lat="43.5915116" lon="12.9960145"><ele>133.0</ele><time>2026-04-19T11:31:01.998Z</time></trkpt><trkpt lat="43.5913127" lon="12.9960177"><ele>135.0</ele><time>2026-04-19T11:31:03Z</time></trkpt><trkpt lat="43.5911002" lon="12.9960186"><ele>135.0</ele><time>2026-04-19T11:31:03.996Z</time></trkpt><trkpt lat="43.5908997" lon="12.9960233"><ele>135.0</ele><time>2026-04-19T11:31:05Z</time></trkpt><trkpt lat="43.590712" lon="12.9960252"><ele>135.0</ele><time>2026-04-19T11:31:06Z</time></trkpt><trkpt lat="43.590535" lon="12.9960059"><ele>135.0</ele><time>2026-04-19T11:31:06.993Z</time></trkpt><trkpt lat="43.5903808" lon="12.9959494"><ele>135.0</ele><time>2026-04-19T11:31:07.998Z</time></trkpt><trkpt lat="43.5902422" lon="12.9958298"><ele>135.0</ele><time>2026-04-19T11:31:09Z</time></trkpt><trkpt lat="43.5901392" lon="12.995657"><ele>137.33333333333334</ele><time>2026-04-19T11:31:09.998Z</time></trkpt><trkpt lat="43.5900678" lon="12.9954566"><ele>139.66666666666669</ele><time>2026-04-19T11:31:10.998Z</time></trkpt><trkpt lat="43.5900104" lon="12.995237"><ele>142.0</ele><time>2026-04-19T11:31:12Z</time></trkpt><trkpt lat="43.5899411" lon="12.9950225"><ele>142.33333333333334</ele><time>2026-04-19T11:31:13Z</time></trkpt><trkpt lat="43.5898373" lon="12.9948236"><ele>142.66666666666666</ele><time>2026-04-19T11:31:13.995Z</time></trkpt><trkpt lat="43.5896952" lon="12.9946468"><ele>143.0</ele><time>2026-04-19T11:31:15Z</time></trkpt><trkpt lat="43.589524" lon="12.9944825"><ele>146.0</ele><time>2026-04-19T11:31:15.995Z</time></trkpt><trkpt lat="43.5893422" lon="12.9943204"><ele>149.0</ele><time>2026-04-19T11:31:17Z</time></trkpt><trkpt lat="43.5891604" lon="12.9941581"><ele>152.0</ele><time>2026-04-19T11:31:18Z</time></trkpt><trkpt lat="43.5889736" lon="12.9939997"><ele>153.5</ele><time>2026-04-19T11:31:18.996Z</time></trkpt><trkpt lat="43.5887798" lon="12.9938432"><ele>155.0</ele><time>2026-04-19T11:31:19.996Z</time></trkpt><trkpt lat="43.5885751" lon="12.9936803"><ele>157.0</ele><time>2026-04-19T11:31:21Z</time></trkpt><trkpt lat="43.5883854" lon="12.9935295"><ele>159.0</ele><time>2026-04-19T11:31:21.993Z</time></trkpt><trkpt lat="43.5881981" lon="12.9933882"><ele>161.0</ele><time>2026-04-19T11:31:23Z</time></trkpt><trkpt lat="43.5880139" lon="12.9932408"><ele>163.33333333333331</ele><time>2026-04-19T11:31:23.994Z</time></trkpt><trkpt lat="43.5878288" lon="12.9930846"><ele>165.66666666666666</ele><time>2026-04-19T11:31:24.997Z</time></trkpt><trkpt lat="43.5876499" lon="12.9929247"><ele>168.0</ele><time>2026-04-19T11:31:25.997Z</time></trkpt><trkpt lat="43.5874785" lon="12.9927492"><ele>168.0</ele><time>2026-04-19T11:31:26.998Z</time></trkpt><trkpt lat="43.5873056" lon="12.9925678"><ele>168.0</ele><time>2026-04-19T11:31:28Z</time></trkpt><trkpt lat="43.5871286" lon="12.992376"><ele>168.0</ele><time>2026-04-19T11:31:28.997Z</time></trkpt><trkpt lat="43.5869492" lon="12.9921882"><ele>172.33333333333334</ele><time>2026-04-19T11:31:30Z</time></trkpt><trkpt lat="43.586766" lon="12.9920185"><ele>176.66666666666669</ele><time>2026-04-19T11:31:30.999Z</time></trkpt><trkpt lat="43.5865774" lon="12.991865"><ele>181.0</ele><time>2026-04-19T11:31:31.995Z</time></trkpt><trkpt lat="43.5863843" lon="12.9917421"><ele>181.33333333333334</ele><time>2026-04-19T11:31:33Z</time></trkpt><trkpt lat="43.5861857" lon="12.9916406"><ele>181.66666666666666</ele><time>2026-04-19T11:31:33.997Z</time></trkpt><trkpt lat="43.5859912" lon="12.9915467"><ele>182.0</ele><time>2026-04-19T11:31:35Z</time></trkpt><trkpt lat="43.5858185" lon="12.9914495"><ele>183.66666666666666</ele><time>2026-04-19T11:31:36Z</time></trkpt><trkpt lat="43.5856742" lon="12.9913339"><ele>185.33333333333334</ele><time>2026-04-19T11:31:36.997Z</time></trkpt><trkpt lat="43.5855441" lon="12.991193"><ele>187.0</ele><time>2026-04-19T11:31:37.996Z</time></trkpt><trkpt lat="43.5854247" lon="12.9910394"><ele>187.66666666666669</ele><time>2026-04-19T11:31:39Z</time></trkpt><trkpt lat="43.5853076" lon="12.9908726"><ele>188.33333333333334</ele><time>2026-04-19T11:31:39.999Z</time></trkpt><trkpt lat="43.5851866" lon="12.9907007"><ele>189.0</ele><time>2026-04-19T11:31:40.993Z</time></trkpt><trkpt lat="43.5850635" lon="12.9905279"><ele>192.0</ele><time>2026-04-19T11:31:41.991Z</time></trkpt><trkpt lat="43.5849305" lon="12.9903655"><ele>195.0</ele><time>2026-04-19T11:31:42.996Z</time></trkpt><trkpt lat="43.5847865" lon="12.9902162"><ele>198.0</ele><time>2026-04-19T11:31:44.002Z</time></trkpt><trkpt lat="43.5846315" lon="12.9900675"><ele>201.0</ele><time>2026-04-19T11:31:44.998Z</time></trkpt><trkpt lat="43.5844613" lon="12.9899193"><ele>204.0</ele><time>2026-04-19T11:31:46Z</time></trkpt><trkpt lat="43.5842855" lon="12.9897738"><ele>207.0</ele><time>2026-04-19T11:31:46.999Z</time></trkpt><trkpt lat="43.5841059" lon="12.9896258"><ele>207.0</ele><time>2026-04-19T11:31:47.997Z</time></trkpt><trkpt lat="43.583923" lon="12.9894733"><ele>207.0</ele><time>2026-04-19T11:31:49Z</time></trkpt><trkpt lat="43.5837369" lon="12.9893264"><ele>207.0</ele><time>2026-04-19T11:31:49.998Z</time></trkpt><trkpt lat="43.5835498" lon="12.989188"><ele>208.66666666666669</ele><time>2026-04-19T11:31:50.991Z</time></trkpt><trkpt lat="43.5833684" lon="12.9890652"><ele>210.33333333333334</ele><time>2026-04-19T11:31:52Z</time></trkpt><trkpt lat="43.5831878" lon="12.9889612"><ele>212.0</ele><time>2026-04-19T11:31:52.995Z</time></trkpt><trkpt lat="43.5830087" lon="12.988865"><ele>213.66666666666669</ele><time>2026-04-19T11:31:53.999Z</time></trkpt><trkpt lat="43.5828361" lon="12.9887669"><ele>215.33333333333331</ele><time>2026-04-19T11:31:54.994Z</time></trkpt><trkpt lat="43.5826703" lon="12.9886513"><ele>217.0</ele><time>2026-04-19T11:31:56Z</time></trkpt><trkpt lat="43.5825106" lon="12.988522"><ele>217.0</ele><time>2026-04-19T11:31:57Z</time></trkpt><trkpt lat="43.582355" lon="12.9883803"><ele>217.0</ele><time>2026-04-19T11:31:57.996Z</time></trkpt><trkpt lat="43.5822001" lon="12.9882266"><ele>217.0</ele><time>2026-04-19T11:31:59Z</time></trkpt><trkpt lat="43.5820442" lon="12.988066"><ele>220.66666666666666</ele><time>2026-04-19T11:32:00Z</time></trkpt><trkpt lat="43.58189" lon="12.9878968"><ele>224.33333333333331</ele><time>2026-04-19T11:32:00.999Z</time></trkpt><trkpt lat="43.5817279" lon="12.9877301"><ele>228.0</ele><time>2026-04-19T11:32:02Z</time></trkpt><trkpt lat="43.5815615" lon="12.9875621"><ele>228.0</ele><time>2026-04-19T11:32:02.999Z</time></trkpt><trkpt lat="43.5814008" lon="12.9873917"><ele>228.0</ele><time>2026-04-19T11:32:04Z</time></trkpt><trkpt lat="43.58125" lon="12.9872284"><ele>228.0</ele><time>2026-04-19T11:32:04.999Z</time></trkpt><trkpt lat="43.5811059" lon="12.9870727"><ele>228.66666666666669</ele><time>2026-04-19T11:32:06Z</time></trkpt><trkpt lat="43.5809657" lon="12.9869168"><ele>229.33333333333334</ele><time>2026-04-19T11:32:06.996Z</time></trkpt><trkpt lat="43.5808285" lon="12.9867527"><ele>230.0</ele><time>2026-04-19T11:32:08Z</time></trkpt><trkpt lat="43.5806982" lon="12.98659"><ele>230.33333333333334</ele><time>2026-04-19T11:32:09Z</time></trkpt><trkpt lat="43.5805824" lon="12.9864143"><ele>230.66666666666669</ele><time>2026-04-19T11:32:09.994Z</time></trkpt><trkpt lat="43.5804819" lon="12.9862285"><ele>231.0</ele><time>2026-04-19T11:32:10.999Z</time></trkpt><trkpt lat="43.5803958" lon="12.9860417"><ele>230.0</ele><time>2026-04-19T11:32:12Z</time></trkpt><trkpt lat="43.5803295" lon="12.9858512"><ele>229.0</ele><time>2026-04-19T11:32:12.997Z</time></trkpt><trkpt lat="43.580281" lon="12.9856701"><ele>228.0</ele><time>2026-04-19T11:32:14.002Z</time></trkpt><trkpt lat="43.5802377" lon="12.9855015"><ele>227.0</ele><time>2026-04-19T11:32:14.999Z</time></trkpt><trkpt lat="43.5801917" lon="12.9853291"><ele>229.33333333333334</ele><time>2026-04-19T11:32:15.999Z</time></trkpt><trkpt lat="43.580143" lon="12.9851466"><ele>231.66666666666669</ele><time>2026-04-19T11:32:16.996Z</time></trkpt><trkpt lat="43.5800798" lon="12.9849538"><ele>234.0</ele><time>2026-04-19T11:32:18Z</time></trkpt><trkpt lat="43.5799936" lon="12.9847633"><ele>234.0</ele><time>2026-04-19T11:32:18.996Z</time></trkpt><trkpt lat="43.5798936" lon="12.984575"><ele>234.0</ele><time>2026-04-19T11:32:19.997Z</time></trkpt><trkpt lat="43.5797808" lon="12.9843807"><ele>234.0</ele><time>2026-04-19T11:32:21.002Z</time></trkpt><trkpt lat="43.5796624" lon="12.9841742"><ele>231.66666666666669</ele><time>2026-04-19T11:32:21.995Z</time></trkpt><trkpt lat="43.5795418" lon="12.9839617"><ele>229.33333333333334</ele><time>2026-04-19T11:32:23.002Z</time></trkpt><trkpt lat="43.5794187" lon="12.9837447"><ele>227.0</ele><time>2026-04-19T11:32:23.992Z</time></trkpt><trkpt lat="43.5792903" lon="12.983523"><ele>227.0</ele><time>2026-04-19T11:32:24.999Z</time></trkpt><trkpt lat="43.57916" lon="12.9832987"><ele>227.0</ele><time>2026-04-19T11:32:26Z</time></trkpt><trkpt lat="43.5790316" lon="12.9830678"><ele>227.0</ele><time>2026-04-19T11:32:27Z</time></trkpt><trkpt lat="43.5789019" lon="12.9828336"><ele>227.0</ele><time>2026-04-19T11:32:28Z</time></trkpt><trkpt lat="43.5787655" lon="12.9826131"><ele>227.0</ele><time>2026-04-19T11:32:28.999Z</time></trkpt><trkpt lat="43.5786244" lon="12.982395"><ele>227.0</ele><time>2026-04-19T11:32:29.995Z</time></trkpt><trkpt lat="43.5784763" lon="12.9821853"><ele>228.33333333333334</ele><time>2026-04-19T11:32:30.997Z</time></trkpt><trkpt lat="43.5783258" lon="12.9819805"><ele>229.66666666666669</ele><time>2026-04-19T11:32:31.991Z</time></trkpt><trkpt lat="43.5781789" lon="12.9817711"><ele>231.0</ele><time>2026-04-19T11:32:32.995Z</time></trkpt><trkpt lat="43.5780331" lon="12.9815684"><ele>232.0</ele><time>2026-04-19T11:32:33.991Z</time></trkpt><trkpt lat="43.5778845" lon="12.9813591"><ele>233.0</ele><time>2026-04-19T11:32:34.997Z</time></trkpt><trkpt lat="43.5777362" lon="12.9811537"><ele>234.0</ele><time>2026-04-19T11:32:35.995Z</time></trkpt><trkpt lat="43.5775908" lon="12.9809481"><ele>235.33333333333331</ele><time>2026-04-19T11:32:37Z</time></trkpt><trkpt lat="43.577443" lon="12.9807391"><ele>236.66666666666666</ele><time>2026-04-19T11:32:38Z</time></trkpt><trkpt lat="43.5772959" lon="12.9805309"><ele>238.0</ele><time>2026-04-19T11:32:38.998Z</time></trkpt><trkpt lat="43.5771542" lon="12.9803275"><ele>237.66666666666666</ele><time>2026-04-19T11:32:39.999Z</time></trkpt><trkpt lat="43.5770157" lon="12.9801419"><ele>237.33333333333331</ele><time>2026-04-19T11:32:41Z</time></trkpt><trkpt lat="43.5768802" lon="12.9799592"><ele>237.0</ele><time>2026-04-19T11:32:42Z</time></trkpt><trkpt lat="43.5767484" lon="12.979778"><ele>239.0</ele><time>2026-04-19T11:32:42.999Z</time></trkpt><trkpt lat="43.5766111" lon="12.9795964"><ele>241.0</ele><time>2026-04-19T11:32:43.996Z</time></trkpt><trkpt lat="43.5764693" lon="12.9794159"><ele>243.0</ele><time>2026-04-19T11:32:44.998Z</time></trkpt><trkpt lat="43.5763217" lon="12.979246"><ele>243.66666666666669</ele><time>2026-04-19T11:32:46Z</time></trkpt><trkpt lat="43.5761657" lon="12.9790772"><ele>244.33333333333334</ele><time>2026-04-19T11:32:47Z</time></trkpt><trkpt lat="43.5760046" lon="12.9789153"><ele>245.0</ele><time>2026-04-19T11:32:48Z</time></trkpt><trkpt lat="43.5758382" lon="12.9787621"><ele>245.0</ele><time>2026-04-19T11:32:49Z</time></trkpt><trkpt lat="43.5756702" lon="12.978621"><ele>245.0</ele><time>2026-04-19T11:32:50Z</time></trkpt><trkpt lat="43.5754892" lon="12.9785177"><ele>245.0</ele><time>2026-04-19T11:32:51Z</time></trkpt><trkpt lat="43.5753011" lon="12.9784139"><ele>245.0</ele><time>2026-04-19T11:32:51.999Z</time></trkpt><trkpt lat="43.5751184" lon="12.9783757"><ele>245.0</ele><time>2026-04-19T11:32:52.995Z</time></trkpt><trkpt lat="43.5749278" lon="12.9783378"><ele>245.0</ele><time>2026-04-19T11:32:54Z</time></trkpt><trkpt lat="43.5747376" lon="12.9782966"><ele>245.0</ele><time>2026-04-19T11:32:55Z</time></trkpt><trkpt lat="43.5745557" lon="12.9782512"><ele>245.0</ele><time>2026-04-19T11:32:55.999Z</time></trkpt><trkpt lat="43.5743832" lon="12.9781955"><ele>245.0</ele><time>2026-04-19T11:32:57Z</time></trkpt><trkpt lat="43.5742168" lon="12.9781332"><ele>245.66666666666669</ele><time>2026-04-19T11:32:57.998Z</time></trkpt><trkpt lat="43.5740545" lon="12.978057"><ele>246.33333333333331</ele><time>2026-04-19T11:32:58.996Z</time></trkpt><trkpt lat="43.5738935" lon="12.9779668"><ele>247.0</ele><time>2026-04-19T11:33:00Z</time></trkpt><trkpt lat="43.5737407" lon="12.9778597"><ele>247.66666666666666</ele><time>2026-04-19T11:33:01Z</time></trkpt><trkpt lat="43.5735898" lon="12.9777316"><ele>248.33333333333331</ele><time>2026-04-19T11:33:02Z</time></trkpt><trkpt lat="43.5734352" lon="12.9776011"><ele>249.0</ele><time>2026-04-19T11:33:03Z</time></trkpt><trkpt lat="43.5732834" lon="12.9774699"><ele>249.0</ele><time>2026-04-19T11:33:04Z</time></trkpt><trkpt lat="43.5731292" lon="12.9773431"><ele>249.0</ele><time>2026-04-19T11:33:04.995Z</time></trkpt><trkpt lat="43.5729663" lon="12.9772345"><ele>249.0</ele><time>2026-04-19T11:33:05.996Z</time></trkpt><trkpt lat="43.5727943" lon="12.9771372"><ele>251.66666666666669</ele><time>2026-04-19T11:33:06.997Z</time></trkpt><trkpt lat="43.5726232" lon="12.9770341"><ele>254.33333333333334</ele><time>2026-04-19T11:33:08Z</time></trkpt><trkpt lat="43.5724469" lon="12.9769364"><ele>257.0</ele><time>2026-04-19T11:33:08.994Z</time></trkpt><trkpt lat="43.5722722" lon="12.9768325"><ele>257.0</ele><time>2026-04-19T11:33:10Z</time></trkpt><trkpt lat="43.5720955" lon="12.97672"><ele>257.0</ele><time>2026-04-19T11:33:10.992Z</time></trkpt><trkpt lat="43.5719251" lon="12.9766"><ele>257.0</ele><time>2026-04-19T11:33:12Z</time></trkpt><trkpt lat="43.5717621" lon="12.9764608"><ele>256.0</ele><time>2026-04-19T11:33:12.993Z</time></trkpt><trkpt lat="43.571607" lon="12.9763018"><ele>255.0</ele><time>2026-04-19T11:33:14Z</time></trkpt><trkpt lat="43.5714485" lon="12.9761396"><ele>254.0</ele><time>2026-04-19T11:33:14.997Z</time></trkpt><trkpt lat="43.5712908" lon="12.9759729"><ele>253.66666666666669</ele><time>2026-04-19T11:33:15.995Z</time></trkpt><trkpt lat="43.5711303" lon="12.9758083"><ele>253.33333333333331</ele><time>2026-04-19T11:33:16.999Z</time></trkpt><trkpt lat="43.5709761" lon="12.9756419"><ele>253.0</ele><time>2026-04-19T11:33:18Z</time></trkpt><trkpt lat="43.5708241" lon="12.9754853"><ele>253.0</ele><time>2026-04-19T11:33:19Z</time></trkpt><trkpt lat="43.5706694" lon="12.9753382"><ele>253.0</ele><time>2026-04-19T11:33:19.994Z</time></trkpt><trkpt lat="43.570518" lon="12.975206"><ele>253.0</ele><time>2026-04-19T11:33:20.997Z</time></trkpt><trkpt lat="43.5703734" lon="12.9750705"><ele>252.66666666666666</ele><time>2026-04-19T11:33:21.996Z</time></trkpt><trkpt lat="43.5702201" lon="12.9749417"><ele>252.33333333333331</ele><time>2026-04-19T11:33:22.998Z</time></trkpt><trkpt lat="43.5700648" lon="12.9748156"><ele>252.0</ele><time>2026-04-19T11:33:24Z</time></trkpt><trkpt lat="43.5699129" lon="12.9746839"><ele>252.0</ele><time>2026-04-19T11:33:25Z</time></trkpt><trkpt lat="43.5697606" lon="12.9745543"><ele>252.0</ele><time>2026-04-19T11:33:26Z</time></trkpt><trkpt lat="43.5696172" lon="12.974434"><ele>252.0</ele><time>2026-04-19T11:33:26.996Z</time></trkpt><trkpt lat="43.5694711" lon="12.9743117"><ele>251.33333333333331</ele><time>2026-04-19T11:33:27.991Z</time></trkpt><trkpt lat="43.569324" lon="12.9741913"><ele>250.66666666666666</ele><time>2026-04-19T11:33:29Z</time></trkpt><trkpt lat="43.5691802" lon="12.9740697"><ele>250.0</ele><time>2026-04-19T11:33:30Z</time></trkpt><trkpt lat="43.5690334" lon="12.9739492"><ele>250.0</ele><time>2026-04-19T11:33:31Z</time></trkpt><trkpt lat="43.5688858" lon="12.9738265"><ele>250.0</ele><time>2026-04-19T11:33:32Z</time></trkpt><trkpt lat="43.5687372" lon="12.9736997"><ele>250.0</ele><time>2026-04-19T11:33:32.994Z</time></trkpt><trkpt lat="43.5685897" lon="12.9735733"><ele>248.33333333333331</ele><time>2026-04-19T11:33:34Z</time></trkpt><trkpt lat="43.5684463" lon="12.9734513"><ele>246.66666666666669</ele><time>2026-04-19T11:33:35Z</time></trkpt><trkpt lat="43.5683065" lon="12.9733265"><ele>245.0</ele><time>2026-04-19T11:33:35.998Z</time></trkpt><trkpt lat="43.5681705" lon="12.9731887"><ele>245.0</ele><time>2026-04-19T11:33:36.998Z</time></trkpt><trkpt lat="43.568049" lon="12.9730405"><ele>245.0</ele><time>2026-04-19T11:33:37.993Z</time></trkpt><trkpt lat="43.5679296" lon="12.9728957"><ele>245.0</ele><time>2026-04-19T11:33:39Z</time></trkpt><trkpt lat="43.567813" lon="12.9727588"><ele>243.25</ele><time>2026-04-19T11:33:40Z</time></trkpt><trkpt lat="43.5676937" lon="12.9726423"><ele>241.5</ele><time>2026-04-19T11:33:40.997Z</time></trkpt><trkpt lat="43.5675567" lon="12.9725497"><ele>239.75</ele><time>2026-04-19T11:33:41.999Z</time></trkpt><trkpt lat="43.5674142" lon="12.9724834"><ele>238.0</ele><time>2026-04-19T11:33:43Z</time></trkpt><trkpt lat="43.5672677" lon="12.9724517"><ele>238.0</ele><time>2026-04-19T11:33:44Z</time></trkpt><trkpt lat="43.5671076" lon="12.9724238"><ele>238.0</ele><time>2026-04-19T11:33:44.995Z</time></trkpt><trkpt lat="43.5669466" lon="12.972396"><ele>238.0</ele><time>2026-04-19T11:33:45.997Z</time></trkpt><trkpt lat="43.5667778" lon="12.9723603"><ele>237.33333333333331</ele><time>2026-04-19T11:33:47Z</time></trkpt><trkpt lat="43.5666081" lon="12.9723261"><ele>236.66666666666669</ele><time>2026-04-19T11:33:48Z</time></trkpt><trkpt lat="43.5664391" lon="12.9722885"><ele>236.0</ele><time>2026-04-19T11:33:48.993Z</time></trkpt><trkpt lat="43.5662688" lon="12.9722451"><ele>237.66666666666669</ele><time>2026-04-19T11:33:50Z</time></trkpt><trkpt lat="43.5660965" lon="12.9722032"><ele>239.33333333333331</ele><time>2026-04-19T11:33:50.995Z</time></trkpt><trkpt lat="43.5659234" lon="12.9721558"><ele>241.0</ele><time>2026-04-19T11:33:51.996Z</time></trkpt><trkpt lat="43.5657583" lon="12.9721051"><ele>241.0</ele><time>2026-04-19T11:33:52.996Z</time></trkpt><trkpt lat="43.5655921" lon="12.9720591"><ele>241.0</ele><time>2026-04-19T11:33:54Z</time></trkpt><trkpt lat="43.565429" lon="12.9720052"><ele>241.0</ele><time>2026-04-19T11:33:54.998Z</time></trkpt><trkpt lat="43.5652686" lon="12.9719514"><ele>242.66666666666666</ele><time>2026-04-19T11:33:56Z</time></trkpt><trkpt lat="43.5651053" lon="12.9719014"><ele>244.33333333333331</ele><time>2026-04-19T11:33:56.999Z</time></trkpt><trkpt lat="43.5649468" lon="12.9718485"><ele>246.0</ele><time>2026-04-19T11:33:57.999Z</time></trkpt><trkpt lat="43.5647872" lon="12.971804"><ele>246.0</ele><time>2026-04-19T11:33:58.997Z</time></trkpt><trkpt lat="43.5646306" lon="12.9717529"><ele>246.0</ele><time>2026-04-19T11:33:59.992Z</time></trkpt><trkpt lat="43.5644772" lon="12.9716967"><ele>246.0</ele><time>2026-04-19T11:34:00.997Z</time></trkpt><trkpt lat="43.5643348" lon="12.9716068"><ele>250.66666666666669</ele><time>2026-04-19T11:34:02Z</time></trkpt><trkpt lat="43.5641985" lon="12.9715039"><ele>255.33333333333334</ele><time>2026-04-19T11:34:03Z</time></trkpt><trkpt lat="43.5640728" lon="12.9713782"><ele>260.0</ele><time>2026-04-19T11:34:03.998Z</time></trkpt><trkpt lat="43.563953" lon="12.971238"><ele>260.0</ele><time>2026-04-19T11:34:05Z</time></trkpt><trkpt lat="43.5638431" lon="12.9710768"><ele>260.0</ele><time>2026-04-19T11:34:05.991Z</time></trkpt><trkpt lat="43.5637417" lon="12.9709041"><ele>260.0</ele><time>2026-04-19T11:34:07Z</time></trkpt><trkpt lat="43.5636463" lon="12.9707233"><ele>259.6666666666667</ele><time>2026-04-19T11:34:07.999Z</time></trkpt><trkpt lat="43.5635579" lon="12.9705294"><ele>259.3333333333333</ele><time>2026-04-19T11:34:08.998Z</time></trkpt><trkpt lat="43.5634731" lon="12.9703276"><ele>259.0</ele><time>2026-04-19T11:34:09.993Z</time></trkpt><trkpt lat="43.5633873" lon="12.9701324"><ele>261.3333333333333</ele><time>2026-04-19T11:34:10.989Z</time></trkpt><trkpt lat="43.5632977" lon="12.9699412"><ele>263.6666666666667</ele><time>2026-04-19T11:34:12Z</time></trkpt><trkpt lat="43.5632011" lon="12.9697698"><ele>266.0</ele><time>2026-04-19T11:34:13Z</time></trkpt><trkpt lat="43.5630994" lon="12.9696073"><ele>266.0</ele><time>2026-04-19T11:34:13.996Z</time></trkpt><trkpt lat="43.5629889" lon="12.9694579"><ele>266.0</ele><time>2026-04-19T11:34:14.998Z</time></trkpt><trkpt lat="43.5628843" lon="12.969318"><ele>266.0</ele><time>2026-04-19T11:34:15.998Z</time></trkpt><trkpt lat="43.5627825" lon="12.9691824"><ele>266.0</ele><time>2026-04-19T11:34:16.998Z</time></trkpt><trkpt lat="43.5626905" lon="12.9690625"><ele>266.2</ele><time>2026-04-19T11:34:17.995Z</time></trkpt><trkpt lat="43.5626074" lon="12.9689411"><ele>266.40000000000003</ele><time>2026-04-19T11:34:18.999Z</time></trkpt><trkpt lat="43.5625328" lon="12.9688363"><ele>266.6</ele><time>2026-04-19T11:34:19.993Z</time></trkpt><trkpt lat="43.562473" lon="12.9687413"><ele>266.8</ele><time>2026-04-19T11:34:21Z</time></trkpt><trkpt lat="43.5624238" lon="12.9686537"><ele>267.0</ele><time>2026-04-19T11:34:22Z</time></trkpt><trkpt lat="43.5623797" lon="12.9685749"><ele>267.0</ele><time>2026-04-19T11:34:22.995Z</time></trkpt><trkpt lat="43.5623057" lon="12.9684879"><ele>267.0</ele><time>2026-04-19T11:34:25Z</time></trkpt><trkpt lat="43.5622044" lon="12.9685302"><ele>267.0</ele><time>2026-04-19T11:34:27Z</time></trkpt><trkpt lat="43.562145" lon="12.9685737"><ele>267.0</ele><time>2026-04-19T11:34:27.997Z</time></trkpt><trkpt lat="43.5620677" lon="12.968629"><ele>267.0</ele><time>2026-04-19T11:34:28.996Z</time></trkpt><trkpt lat="43.5619779" lon="12.9686786"><ele>265.8</ele><time>2026-04-19T11:34:29.996Z</time></trkpt><trkpt lat="43.5618844" lon="12.9687437"><ele>264.6</ele><time>2026-04-19T11:34:30.995Z</time></trkpt><trkpt lat="43.5617947" lon="12.9688234"><ele>263.40000000000003</ele><time>2026-04-19T11:34:31.998Z</time></trkpt><trkpt lat="43.5617033" lon="12.9688982"><ele>262.2</ele><time>2026-04-19T11:34:33Z</time></trkpt><trkpt lat="43.5616094" lon="12.9689575"><ele>261.0</ele><time>2026-04-19T11:34:33.996Z</time></trkpt><trkpt lat="43.561508" lon="12.969014"><ele>261.0</ele><time>2026-04-19T11:34:34.999Z</time></trkpt><trkpt lat="43.5614026" lon="12.9690475"><ele>261.0</ele><time>2026-04-19T11:34:35.992Z</time></trkpt><trkpt lat="43.5613014" lon="12.9690554"><ele>261.0</ele><time>2026-04-19T11:34:36.996Z</time></trkpt><trkpt lat="43.5612003" lon="12.9690722"><ele>261.0</ele><time>2026-04-19T11:34:38Z</time></trkpt><trkpt lat="43.5611048" lon="12.9691119"><ele>261.0</ele><time>2026-04-19T11:34:38.998Z</time></trkpt><trkpt lat="43.5610042" lon="12.9692005"><ele>257.25</ele><time>2026-04-19T11:34:39.994Z</time></trkpt><trkpt lat="43.5609186" lon="12.9693134"><ele>253.5</ele><time>2026-04-19T11:34:41Z</time></trkpt><trkpt lat="43.5608508" lon="12.9694485"><ele>249.75</ele><time>2026-04-19T11:34:41.99Z</time></trkpt><trkpt lat="43.5607864" lon="12.9695922"><ele>246.0</ele><time>2026-04-19T11:34:43Z</time></trkpt><trkpt lat="43.5607258" lon="12.9697436"><ele>246.0</ele><time>2026-04-19T11:34:43.995Z</time></trkpt><trkpt lat="43.5606647" lon="12.9698943"><ele>246.00000000000003</ele><time>2026-04-19T11:34:45Z</time></trkpt><trkpt lat="43.5606009" lon="12.9700153"><ele>246.00000000000003</ele><time>2026-04-19T11:34:45.995Z</time></trkpt><trkpt lat="43.5605462" lon="12.9701383"><ele>246.0</ele><time>2026-04-19T11:34:46.993Z</time></trkpt><trkpt lat="43.5604716" lon="12.9701529"><ele>246.0</ele><time>2026-04-19T11:34:47.995Z</time></trkpt><trkpt lat="43.560393" lon="12.9701467"><ele>245.60000000000002</ele><time>2026-04-19T11:34:48.991Z</time></trkpt><trkpt lat="43.560311" lon="12.9701128"><ele>245.20000000000002</ele><time>2026-04-19T11:34:49.996Z</time></trkpt><trkpt lat="43.5602192" lon="12.9700416"><ele>244.79999999999998</ele><time>2026-04-19T11:34:51Z</time></trkpt><trkpt lat="43.5601185" lon="12.9699665"><ele>244.39999999999998</ele><time>2026-04-19T11:34:51.994Z</time></trkpt><trkpt lat="43.5600107" lon="12.9698976"><ele>244.0</ele><time>2026-04-19T11:34:53Z</time></trkpt><trkpt lat="43.5598994" lon="12.9698299"><ele>244.0</ele><time>2026-04-19T11:34:53.997Z</time></trkpt><trkpt lat="43.5597876" lon="12.9697604"><ele>243.99999999999997</ele><time>2026-04-19T11:34:55Z</time></trkpt><trkpt lat="43.5596888" lon="12.9697068"><ele>243.99999999999997</ele><time>2026-04-19T11:34:55.993Z</time></trkpt><trkpt lat="43.5595935" lon="12.9696649"><ele>244.0</ele><time>2026-04-19T11:34:56.998Z</time></trkpt><trkpt lat="43.5595012" lon="12.9696469"><ele>244.0</ele><time>2026-04-19T11:34:57.995Z</time></trkpt><trkpt lat="43.5594048" lon="12.9696475"><ele>240.5</ele><time>2026-04-19T11:34:58.994Z</time></trkpt><trkpt lat="43.5593133" lon="12.9697025"><ele>237.0</ele><time>2026-04-19T11:35:00Z</time></trkpt><trkpt lat="43.5592265" lon="12.9697568"><ele>233.5</ele><time>2026-04-19T11:35:00.999Z</time></trkpt><trkpt lat="43.5591086" lon="12.9698719"><ele>230.0</ele><time>2026-04-19T11:35:02Z</time></trkpt><trkpt lat="43.5590089" lon="12.9699837"><ele>229.4</ele><time>2026-04-19T11:35:02.996Z</time></trkpt><trkpt lat="43.5589293" lon="12.970092"><ele>228.8</ele><time>2026-04-19T11:35:03.993Z</time></trkpt><trkpt lat="43.5588526" lon="12.9702061"><ele>228.2</ele><time>2026-04-19T11:35:04.995Z</time></trkpt><trkpt lat="43.558782" lon="12.9703261"><ele>227.6</ele><time>2026-04-19T11:35:05.997Z</time></trkpt><trkpt lat="43.5587392" lon="12.9704576"><ele>227.0</ele><time>2026-04-19T11:35:07Z</time></trkpt><trkpt lat="43.5587119" lon="12.9705876"><ele>224.0</ele><time>2026-04-19T11:35:07.999Z</time></trkpt><trkpt lat="43.5586948" lon="12.9706939"><ele>221.00000000000003</ele><time>2026-04-19T11:35:09Z</time></trkpt><trkpt lat="43.558659" lon="12.9707846"><ele>218.0</ele><time>2026-04-19T11:35:10Z</time></trkpt><trkpt lat="43.5585993" lon="12.970828"><ele>215.0</ele><time>2026-04-19T11:35:10.999Z</time></trkpt><trkpt lat="43.5585352" lon="12.9708562"><ele>212.0</ele><time>2026-04-19T11:35:12.001Z</time></trkpt><trkpt lat="43.5584472" lon="12.9708491"><ele>209.0</ele><time>2026-04-19T11:35:12.996Z</time></trkpt><trkpt lat="43.5583799" lon="12.9708861"><ele>206.0</ele><time>2026-04-19T11:35:13.999Z</time></trkpt><trkpt lat="43.5583154" lon="12.9709243"><ele>205.0</ele><time>2026-04-19T11:35:14.996Z</time></trkpt><trkpt lat="43.5583527" lon="12.9711595"><ele>204.0</ele><time>2026-04-19T11:35:16.998Z</time></trkpt><trkpt lat="43.5583918" lon="12.9712713"><ele>203.0</ele><time>2026-04-19T11:35:18Z</time></trkpt><trkpt lat="43.5584224" lon="12.9713919"><ele>202.0</ele><time>2026-04-19T11:35:18.994Z</time></trkpt><trkpt lat="43.5584561" lon="12.9714921"><ele>201.0</ele><time>2026-04-19T11:35:20Z</time></trkpt><trkpt lat="43.5584544" lon="12.9715911"><ele>201.0</ele><time>2026-04-19T11:35:21Z</time></trkpt><trkpt lat="43.558371" lon="12.971655"><ele>201.0</ele><time>2026-04-19T11:35:22Z</time></trkpt><trkpt lat="43.5583082" lon="12.9717144"><ele>201.0</ele><time>2026-04-19T11:35:23Z</time></trkpt><trkpt lat="43.5582245" lon="12.9717516"><ele>201.0</ele><time>2026-04-19T11:35:23.998Z</time></trkpt><trkpt lat="43.5581482" lon="12.9718158"><ele>201.0</ele><time>2026-04-19T11:35:24.994Z</time></trkpt><trkpt lat="43.5580898" lon="12.9719132"><ele>201.0</ele><time>2026-04-19T11:35:25.995Z</time></trkpt><trkpt lat="43.5580185" lon="12.972029"><ele>198.5</ele><time>2026-04-19T11:35:26.998Z</time></trkpt><trkpt lat="43.5579463" lon="12.9721406"><ele>196.0</ele><time>2026-04-19T11:35:27.994Z</time></trkpt><trkpt lat="43.5578663" lon="12.9722512"><ele>193.5</ele><time>2026-04-19T11:35:28.994Z</time></trkpt><trkpt lat="43.5577853" lon="12.9723812"><ele>191.0</ele><time>2026-04-19T11:35:29.996Z</time></trkpt><trkpt lat="43.557706" lon="12.9725046"><ele>190.0</ele><time>2026-04-19T11:35:30.999Z</time></trkpt><trkpt lat="43.5576287" lon="12.9726051"><ele>189.0</ele><time>2026-04-19T11:35:31.995Z</time></trkpt><trkpt lat="43.5575384" lon="12.9727235"><ele>188.0</ele><time>2026-04-19T11:35:32.996Z</time></trkpt><trkpt lat="43.5574689" lon="12.9727988"><ele>187.0</ele><time>2026-04-19T11:35:33.998Z</time></trkpt><trkpt lat="43.5573855" lon="12.9728918"><ele>186.0</ele><time>2026-04-19T11:35:35Z</time></trkpt><trkpt lat="43.557307" lon="12.9729387"><ele>186.0</ele><time>2026-04-19T11:35:35.997Z</time></trkpt><trkpt lat="43.5572204" lon="12.9730249"><ele>186.0</ele><time>2026-04-19T11:35:37Z</time></trkpt><trkpt lat="43.55715" lon="12.9730873"><ele>186.0</ele><time>2026-04-19T11:35:37.99Z</time></trkpt><trkpt lat="43.5570941" lon="12.9731384"><ele>186.0</ele><time>2026-04-19T11:35:39Z</time></trkpt><trkpt lat="43.5570535" lon="12.9732091"><ele>186.0</ele><time>2026-04-19T11:35:39.998Z</time></trkpt><trkpt lat="43.5570169" lon="12.9733721"><ele>186.0</ele><time>2026-04-19T11:35:41.993Z</time></trkpt><trkpt lat="43.5570419" lon="12.9735033"><ele>186.0</ele><time>2026-04-19T11:35:43.991Z</time></trkpt><trkpt lat="43.5571088" lon="12.9736507"><ele>186.0</ele><time>2026-04-19T11:35:46Z</time></trkpt><trkpt lat="43.5571421" lon="12.9737336"><ele>186.0</ele><time>2026-04-19T11:35:46.999Z</time></trkpt><trkpt lat="43.5571535" lon="12.9738838"><ele>186.0</ele><time>2026-04-19T11:35:49Z</time></trkpt><trkpt lat="43.5570683" lon="12.9739603"><ele>186.0</ele><time>2026-04-19T11:35:50.997Z</time></trkpt><trkpt lat="43.5570049" lon="12.9739308"><ele>187.66666666666666</ele><time>2026-04-19T11:35:51.995Z</time></trkpt><trkpt lat="43.5569481" lon="12.973857"><ele>189.33333333333331</ele><time>2026-04-19T11:35:52.995Z</time></trkpt><trkpt lat="43.5568804" lon="12.9737638"><ele>191.0</ele><time>2026-04-19T11:35:54Z</time></trkpt><trkpt lat="43.556812" lon="12.9736697"><ele>192.66666666666666</ele><time>2026-04-19T11:35:54.997Z</time></trkpt><trkpt lat="43.5567391" lon="12.9735983"><ele>194.33333333333331</ele><time>2026-04-19T11:35:55.999Z</time></trkpt><trkpt lat="43.5566533" lon="12.9735657"><ele>196.0</ele><time>2026-04-19T11:35:57Z</time></trkpt><trkpt lat="43.5565704" lon="12.9735692"><ele>196.0</ele><time>2026-04-19T11:35:57.994Z</time></trkpt><trkpt lat="43.5564885" lon="12.9736072"><ele>196.0</ele><time>2026-04-19T11:35:59Z</time></trkpt><trkpt lat="43.5564147" lon="12.9736743"><ele>196.0</ele><time>2026-04-19T11:36:00Z</time></trkpt><trkpt lat="43.5563452" lon="12.9737621"><ele>196.0</ele><time>2026-04-19T11:36:01Z</time></trkpt><trkpt lat="43.556282" lon="12.9738638"><ele>196.0</ele><time>2026-04-19T11:36:02Z</time></trkpt><trkpt lat="43.5562171" lon="12.9739744"><ele>197.5</ele><time>2026-04-19T11:36:02.998Z</time></trkpt><trkpt lat="43.5561436" lon="12.9741018"><ele>199.0</ele><time>2026-04-19T11:36:03.995Z</time></trkpt><trkpt lat="43.5560631" lon="12.9742376"><ele>200.5</ele><time>2026-04-19T11:36:04.995Z</time></trkpt><trkpt lat="43.5559778" lon="12.9743819"><ele>202.0</ele><time>2026-04-19T11:36:05.996Z</time></trkpt><trkpt lat="43.555875" lon="12.97455"><ele>202.66666666666666</ele><time>2026-04-19T11:36:07Z</time></trkpt><trkpt lat="43.5557837" lon="12.9747246"><ele>203.33333333333331</ele><time>2026-04-19T11:36:07.995Z</time></trkpt><trkpt lat="43.555692" lon="12.9748899"><ele>204.0</ele><time>2026-04-19T11:36:08.998Z</time></trkpt><trkpt lat="43.5555862" lon="12.9750619"><ele>204.33333333333331</ele><time>2026-04-19T11:36:09.995Z</time></trkpt><trkpt lat="43.5554871" lon="12.9752374"><ele>204.66666666666666</ele><time>2026-04-19T11:36:11Z</time></trkpt><trkpt lat="43.5553915" lon="12.9754169"><ele>205.0</ele><time>2026-04-19T11:36:11.995Z</time></trkpt><trkpt lat="43.5552899" lon="12.9755964"><ele>207.66666666666666</ele><time>2026-04-19T11:36:13Z</time></trkpt><trkpt lat="43.5551873" lon="12.9757804"><ele>210.33333333333331</ele><time>2026-04-19T11:36:14Z</time></trkpt><trkpt lat="43.5550834" lon="12.975962"><ele>213.0</ele><time>2026-04-19T11:36:14.996Z</time></trkpt><trkpt lat="43.5549839" lon="12.9761352"><ele>215.33333333333331</ele><time>2026-04-19T11:36:15.994Z</time></trkpt><trkpt lat="43.5548843" lon="12.9763147"><ele>217.66666666666666</ele><time>2026-04-19T11:36:17Z</time></trkpt><trkpt lat="43.554784" lon="12.9764888"><ele>220.0</ele><time>2026-04-19T11:36:17.995Z</time></trkpt><trkpt lat="43.5546784" lon="12.9766722"><ele>222.66666666666666</ele><time>2026-04-19T11:36:18.993Z</time></trkpt><trkpt lat="43.5545732" lon="12.976856"><ele>225.33333333333331</ele><time>2026-04-19T11:36:20Z</time></trkpt><trkpt lat="43.5544697" lon="12.9770441"><ele>228.0</ele><time>2026-04-19T11:36:21Z</time></trkpt><trkpt lat="43.5543672" lon="12.9772253"><ele>230.33333333333331</ele><time>2026-04-19T11:36:21.996Z</time></trkpt><trkpt lat="43.5542668" lon="12.9774098"><ele>232.66666666666666</ele><time>2026-04-19T11:36:22.997Z</time></trkpt><trkpt lat="43.5541692" lon="12.9775905"><ele>235.0</ele><time>2026-04-19T11:36:24Z</time></trkpt><trkpt lat="43.5540687" lon="12.9777778"><ele>237.66666666666666</ele><time>2026-04-19T11:36:25Z</time></trkpt><trkpt lat="43.5539666" lon="12.9779688"><ele>240.33333333333331</ele><time>2026-04-19T11:36:25.999Z</time></trkpt><trkpt lat="43.5538647" lon="12.978154"><ele>243.0</ele><time>2026-04-19T11:36:26.992Z</time></trkpt><trkpt lat="43.5537688" lon="12.978328"><ele>248.66666666666669</ele><time>2026-04-19T11:36:27.997Z</time></trkpt><trkpt lat="43.5536669" lon="12.9785135"><ele>254.33333333333334</ele><time>2026-04-19T11:36:29Z</time></trkpt><trkpt lat="43.5535691" lon="12.9786995"><ele>260.0</ele><time>2026-04-19T11:36:29.999Z</time></trkpt><trkpt lat="43.5534715" lon="12.9788841"><ele>260.0</ele><time>2026-04-19T11:36:30.996Z</time></trkpt><trkpt lat="43.5533794" lon="12.9790699"><ele>260.0</ele><time>2026-04-19T11:36:31.999Z</time></trkpt><trkpt lat="43.5532842" lon="12.9792599"><ele>260.0</ele><time>2026-04-19T11:36:32.997Z</time></trkpt><trkpt lat="43.5531911" lon="12.9794451"><ele>261.6666666666667</ele><time>2026-04-19T11:36:33.999Z</time></trkpt><trkpt lat="43.5530967" lon="12.9796292"><ele>263.3333333333333</ele><time>2026-04-19T11:36:34.998Z</time></trkpt><trkpt lat="43.5529998" lon="12.9798152"><ele>265.0</ele><time>2026-04-19T11:36:35.999Z</time></trkpt><trkpt lat="43.5528994" lon="12.9799843"><ele>269.66666666666663</ele><time>2026-04-19T11:36:36.995Z</time></trkpt><trkpt lat="43.5527922" lon="12.9801506"><ele>274.3333333333333</ele><time>2026-04-19T11:36:37.991Z</time></trkpt><trkpt lat="43.5526827" lon="12.9803017"><ele>279.0</ele><time>2026-04-19T11:36:39Z</time></trkpt><trkpt lat="43.5525759" lon="12.9804315"><ele>279.0</ele><time>2026-04-19T11:36:39.998Z</time></trkpt><trkpt lat="43.5524801" lon="12.9805486"><ele>279.0</ele><time>2026-04-19T11:36:41Z</time></trkpt><trkpt lat="43.5523929" lon="12.9806326"><ele>279.0</ele><time>2026-04-19T11:36:42Z</time></trkpt><trkpt lat="43.5523151" lon="12.9806959"><ele>279.0</ele><time>2026-04-19T11:36:42.999Z</time></trkpt><trkpt lat="43.5522553" lon="12.9807468"><ele>279.0</ele><time>2026-04-19T11:36:43.996Z</time></trkpt><trkpt lat="43.5521714" lon="12.9808193"><ele>279.4</ele><time>2026-04-19T11:36:45.992Z</time></trkpt><trkpt lat="43.5521324" lon="12.9809133"><ele>279.79999999999995</ele><time>2026-04-19T11:36:49.999Z</time></trkpt><trkpt lat="43.5521843" lon="12.9810455"><ele>280.20000000000005</ele><time>2026-04-19T11:36:51.992Z</time></trkpt><trkpt lat="43.5522418" lon="12.981139"><ele>280.6</ele><time>2026-04-19T11:36:52.998Z</time></trkpt><trkpt lat="43.5523003" lon="12.9812425"><ele>281.0</ele><time>2026-04-19T11:36:53.994Z</time></trkpt><trkpt lat="43.5523623" lon="12.9813566"><ele>281.0</ele><time>2026-04-19T11:36:54.992Z</time></trkpt><trkpt lat="43.5524279" lon="12.9814756"><ele>281.0</ele><time>2026-04-19T11:36:55.997Z</time></trkpt><trkpt lat="43.5525002" lon="12.9815905"><ele>281.0</ele><time>2026-04-19T11:36:57Z</time></trkpt><trkpt lat="43.5525644" lon="12.9816889"><ele>281.0</ele><time>2026-04-19T11:36:57.994Z</time></trkpt><trkpt lat="43.5526215" lon="12.981777"><ele>281.0</ele><time>2026-04-19T11:36:58.993Z</time></trkpt><trkpt lat="43.552671" lon="12.9818606"><ele>281.0</ele><time>2026-04-19T11:37:00Z</time></trkpt><trkpt lat="43.552716" lon="12.9819896"><ele>281.0</ele><time>2026-04-19T11:37:01.999Z</time></trkpt><trkpt lat="43.5526858" lon="12.9821195"><ele>281.0</ele><time>2026-04-19T11:37:03.998Z</time></trkpt><trkpt lat="43.5525948" lon="12.9822481"><ele>281.0</ele><time>2026-04-19T11:37:05.993Z</time></trkpt><trkpt lat="43.5525407" lon="12.9823214"><ele>281.0</ele><time>2026-04-19T11:37:07Z</time></trkpt><trkpt lat="43.5524735" lon="12.9824004"><ele>281.00000000000006</ele><time>2026-04-19T11:37:07.999Z</time></trkpt><trkpt lat="43.5524163" lon="12.9824791"><ele>281.0</ele><time>2026-04-19T11:37:09Z</time></trkpt><trkpt lat="43.5523613" lon="12.9825505"><ele>281.0</ele><time>2026-04-19T11:37:09.994Z</time></trkpt><trkpt lat="43.5523177" lon="12.9826303"><ele>281.0</ele><time>2026-04-19T11:37:10.998Z</time></trkpt><trkpt lat="43.5522785" lon="12.9827088"><ele>281.0</ele><time>2026-04-19T11:37:11.996Z</time></trkpt><trkpt lat="43.5522503" lon="12.9828094"><ele>281.00000000000006</ele><time>2026-04-19T11:37:12.995Z</time></trkpt><trkpt lat="43.5522286" lon="12.9828977"><ele>281.0</ele><time>2026-04-19T11:37:14.004Z</time></trkpt><trkpt lat="43.5523003" lon="12.9830997"><ele>280.0</ele><time>2026-04-19T11:37:15Z</time></trkpt><trkpt lat="43.5523244" lon="12.9832241"><ele>279.0</ele><time>2026-04-19T11:37:15.999Z</time></trkpt><trkpt lat="43.5523549" lon="12.9833631"><ele>278.0</ele><time>2026-04-19T11:37:16.996Z</time></trkpt><trkpt lat="43.5523821" lon="12.9834864"><ele>277.0</ele><time>2026-04-19T11:37:17.995Z</time></trkpt><trkpt lat="43.5524088" lon="12.98359"><ele>276.0</ele><time>2026-04-19T11:37:18.992Z</time></trkpt><trkpt lat="43.5524555" lon="12.9837228"><ele>275.3333333333333</ele><time>2026-04-19T11:37:20.999Z</time></trkpt><trkpt lat="43.5524646" lon="12.9838383"><ele>274.6666666666667</ele><time>2026-04-19T11:37:23Z</time></trkpt><trkpt lat="43.5524769" lon="12.9839828"><ele>274.0</ele><time>2026-04-19T11:37:24.996Z</time></trkpt><trkpt lat="43.5524816" lon="12.9840759"><ele>273.33333333333337</ele><time>2026-04-19T11:37:25.992Z</time></trkpt><trkpt lat="43.5524704" lon="12.984186"><ele>272.6666666666667</ele><time>2026-04-19T11:37:26.997Z</time></trkpt><trkpt lat="43.5524548" lon="12.9842891"><ele>272.0</ele><time>2026-04-19T11:37:27.991Z</time></trkpt><trkpt lat="43.5524287" lon="12.9843843"><ele>271.1428571428571</ele><time>2026-04-19T11:37:28.997Z</time></trkpt><trkpt lat="43.5523901" lon="12.9844804"><ele>270.2857142857143</ele><time>2026-04-19T11:37:30Z</time></trkpt><trkpt lat="43.5523383" lon="12.9845611"><ele>269.42857142857144</ele><time>2026-04-19T11:37:30.992Z</time></trkpt><trkpt lat="43.5522807" lon="12.9846306"><ele>268.57142857142856</ele><time>2026-04-19T11:37:32Z</time></trkpt><trkpt lat="43.5522221" lon="12.9846822"><ele>267.7142857142857</ele><time>2026-04-19T11:37:32.995Z</time></trkpt><trkpt lat="43.5521593" lon="12.98474"><ele>266.85714285714283</ele><time>2026-04-19T11:37:33.994Z</time></trkpt><trkpt lat="43.5521115" lon="12.9847989"><ele>266.0</ele><time>2026-04-19T11:37:34.994Z</time></trkpt><trkpt lat="43.5520696" lon="12.9848638"><ele>264.6666666666667</ele><time>2026-04-19T11:37:36Z</time></trkpt><trkpt lat="43.5520336" lon="12.984947"><ele>263.33333333333337</ele><time>2026-04-19T11:37:37Z</time></trkpt><trkpt lat="43.5520075" lon="12.9850374"><ele>262.0</ele><time>2026-04-19T11:37:37.997Z</time></trkpt><trkpt lat="43.5519822" lon="12.9851376"><ele>260.6666666666667</ele><time>2026-04-19T11:37:39Z</time></trkpt><trkpt lat="43.5519554" lon="12.9852315"><ele>259.3333333333333</ele><time>2026-04-19T11:37:39.999Z</time></trkpt><trkpt lat="43.5519183" lon="12.9853396"><ele>258.0</ele><time>2026-04-19T11:37:40.994Z</time></trkpt><trkpt lat="43.5518829" lon="12.9854409"><ele>257.0</ele><time>2026-04-19T11:37:41.996Z</time></trkpt><trkpt lat="43.5518342" lon="12.9855578"><ele>256.0</ele><time>2026-04-19T11:37:42.996Z</time></trkpt><trkpt lat="43.5517791" lon="12.9856673"><ele>255.0</ele><time>2026-04-19T11:37:44Z</time></trkpt><trkpt lat="43.5517217" lon="12.9857753"><ele>254.0</ele><time>2026-04-19T11:37:45Z</time></trkpt><trkpt lat="43.5516633" lon="12.9858788"><ele>253.0</ele><time>2026-04-19T11:37:45.993Z</time></trkpt><trkpt lat="43.5516094" lon="12.9859781"><ele>251.8571428571429</ele><time>2026-04-19T11:37:46.991Z</time></trkpt><trkpt lat="43.5515613" lon="12.9860762"><ele>250.71428571428572</ele><time>2026-04-19T11:37:47.993Z</time></trkpt><trkpt lat="43.5515234" lon="12.9861599"><ele>249.57142857142858</ele><time>2026-04-19T11:37:48.997Z</time></trkpt><trkpt lat="43.5514847" lon="12.9862422"><ele>248.42857142857144</ele><time>2026-04-19T11:37:49.996Z</time></trkpt><trkpt lat="43.5514497" lon="12.986328"><ele>247.28571428571428</ele><time>2026-04-19T11:37:51Z</time></trkpt><trkpt lat="43.5514136" lon="12.986409"><ele>246.14285714285714</ele><time>2026-04-19T11:37:52Z</time></trkpt><trkpt lat="43.5513767" lon="12.9864879"><ele>245.0</ele><time>2026-04-19T11:37:53Z</time></trkpt><trkpt lat="43.551339" lon="12.9865764"><ele>245.0</ele><time>2026-04-19T11:37:53.99Z</time></trkpt><trkpt lat="43.5513006" lon="12.9866574"><ele>245.0</ele><time>2026-04-19T11:37:54.993Z</time></trkpt><trkpt lat="43.5512693" lon="12.9867451"><ele>245.0</ele><time>2026-04-19T11:37:56Z</time></trkpt><trkpt lat="43.551238" lon="12.986832"><ele>245.0</ele><time>2026-04-19T11:37:56.999Z</time></trkpt><trkpt lat="43.5511993" lon="12.9869308"><ele>245.0</ele><time>2026-04-19T11:37:58Z</time></trkpt><trkpt lat="43.5511685" lon="12.9870111"><ele>245.0</ele><time>2026-04-19T11:37:58.997Z</time></trkpt><trkpt lat="43.5511344" lon="12.9871249"><ele>245.0</ele><time>2026-04-19T11:37:59.997Z</time></trkpt><trkpt lat="43.5510996" lon="12.987236"><ele>244.0</ele><time>2026-04-19T11:38:00.999Z</time></trkpt><trkpt lat="43.5510959" lon="12.9873422"><ele>243.0</ele><time>2026-04-19T11:38:01.992Z</time></trkpt><trkpt lat="43.5510721" lon="12.9874817"><ele>242.0</ele><time>2026-04-19T11:38:02.996Z</time></trkpt><trkpt lat="43.5510409" lon="12.987609"><ele>241.0</ele><time>2026-04-19T11:38:03.999Z</time></trkpt><trkpt lat="43.5509907" lon="12.9877612"><ele>240.0</ele><time>2026-04-19T11:38:05Z</time></trkpt><trkpt lat="43.5509467" lon="12.9878922"><ele>238.8</ele><time>2026-04-19T11:38:05.994Z</time></trkpt><trkpt lat="43.5509044" lon="12.988022"><ele>237.6</ele><time>2026-04-19T11:38:06.998Z</time></trkpt><trkpt lat="43.5508616" lon="12.9881451"><ele>236.39999999999998</ele><time>2026-04-19T11:38:08Z</time></trkpt><trkpt lat="43.5508236" lon="12.9882673"><ele>235.2</ele><time>2026-04-19T11:38:08.998Z</time></trkpt><trkpt lat="43.5507764" lon="12.9883855"><ele>234.0</ele><time>2026-04-19T11:38:10Z</time></trkpt><trkpt lat="43.5507389" lon="12.9884929"><ele>233.33333333333334</ele><time>2026-04-19T11:38:11Z</time></trkpt><trkpt lat="43.550704" lon="12.9885988"><ele>232.66666666666669</ele><time>2026-04-19T11:38:11.998Z</time></trkpt><trkpt lat="43.5506636" lon="12.9886965"><ele>232.0</ele><time>2026-04-19T11:38:12.988Z</time></trkpt><trkpt lat="43.5506209" lon="12.9887961"><ele>231.33333333333334</ele><time>2026-04-19T11:38:13.995Z</time></trkpt><trkpt lat="43.5505954" lon="12.9888872"><ele>230.66666666666669</ele><time>2026-04-19T11:38:14.992Z</time></trkpt><trkpt lat="43.5505795" lon="12.9889807"><ele>230.0</ele><time>2026-04-19T11:38:16Z</time></trkpt><trkpt lat="43.5505848" lon="12.9891509"><ele>228.4285714285714</ele><time>2026-04-19T11:38:18Z</time></trkpt><trkpt lat="43.5506378" lon="12.989211"><ele>226.85714285714283</ele><time>2026-04-19T11:38:19Z</time></trkpt><trkpt lat="43.5506767" lon="12.9892793"><ele>225.28571428571428</ele><time>2026-04-19T11:38:19.998Z</time></trkpt><trkpt lat="43.5507177" lon="12.98935"><ele>223.7142857142857</ele><time>2026-04-19T11:38:20.995Z</time></trkpt><trkpt lat="43.550778" lon="12.9894764"><ele>222.1428571428571</ele><time>2026-04-19T11:38:23Z</time></trkpt><trkpt lat="43.5508135" lon="12.9895501"><ele>220.57142857142858</ele><time>2026-04-19T11:38:24Z</time></trkpt><trkpt lat="43.5508518" lon="12.9896413"><ele>219.0</ele><time>2026-04-19T11:38:25Z</time></trkpt><trkpt lat="43.5508919" lon="12.9897316"><ele>219.0</ele><time>2026-04-19T11:38:26Z</time></trkpt><trkpt lat="43.550932" lon="12.9898253"><ele>219.0</ele><time>2026-04-19T11:38:26.998Z</time></trkpt><trkpt lat="43.5509659" lon="12.9899188"><ele>219.0</ele><time>2026-04-19T11:38:27.989Z</time></trkpt><trkpt lat="43.5509968" lon="12.9900105"><ele>219.0</ele><time>2026-04-19T11:38:28.994Z</time></trkpt><trkpt lat="43.5510228" lon="12.9901039"><ele>219.0</ele><time>2026-04-19T11:38:29.994Z</time></trkpt><trkpt lat="43.5510513" lon="12.9901945"><ele>219.0</ele><time>2026-04-19T11:38:30.999Z</time></trkpt><trkpt lat="43.5510818" lon="12.9902835"><ele>219.0</ele><time>2026-04-19T11:38:31.992Z</time></trkpt><trkpt lat="43.5511125" lon="12.9903745"><ele>216.71428571428572</ele><time>2026-04-19T11:38:33Z</time></trkpt><trkpt lat="43.5511433" lon="12.9904634"><ele>214.42857142857142</ele><time>2026-04-19T11:38:34Z</time></trkpt><trkpt lat="43.5511763" lon="12.9905578"><ele>212.14285714285714</ele><time>2026-04-19T11:38:35Z</time></trkpt><trkpt lat="43.5512059" lon="12.9906435"><ele>209.85714285714286</ele><time>2026-04-19T11:38:35.993Z</time></trkpt><trkpt lat="43.5512415" lon="12.9907325"><ele>207.57142857142856</ele><time>2026-04-19T11:38:37Z</time></trkpt><trkpt lat="43.5512757" lon="12.9908198"><ele>205.28571428571428</ele><time>2026-04-19T11:38:37.997Z</time></trkpt><trkpt lat="43.5513124" lon="12.9909076"><ele>203.0</ele><time>2026-04-19T11:38:38.999Z</time></trkpt><trkpt lat="43.5513503" lon="12.9910119"><ele>200.83333333333334</ele><time>2026-04-19T11:38:39.997Z</time></trkpt><trkpt lat="43.5513891" lon="12.9911137"><ele>198.66666666666669</ele><time>2026-04-19T11:38:40.997Z</time></trkpt><trkpt lat="43.5514256" lon="12.9912196"><ele>196.5</ele><time>2026-04-19T11:38:41.996Z</time></trkpt><trkpt lat="43.5514676" lon="12.9913189"><ele>194.33333333333334</ele><time>2026-04-19T11:38:42.999Z</time></trkpt><trkpt lat="43.5515075" lon="12.9914231"><ele>192.16666666666669</ele><time>2026-04-19T11:38:44Z</time></trkpt><trkpt lat="43.5515515" lon="12.9915178"><ele>190.0</ele><time>2026-04-19T11:38:44.994Z</time></trkpt><trkpt lat="43.5515911" lon="12.9916025"><ele>187.2</ele><time>2026-04-19T11:38:46Z</time></trkpt><trkpt lat="43.5516395" lon="12.9917222"><ele>184.4</ele><time>2026-04-19T11:38:47.998Z</time></trkpt><trkpt lat="43.55164" lon="12.991847"><ele>181.60000000000002</ele><time>2026-04-19T11:38:49.99Z</time></trkpt><trkpt lat="43.5515713" lon="12.9919975"><ele>178.8</ele><time>2026-04-19T11:38:51.998Z</time></trkpt><trkpt lat="43.5515239" lon="12.9920732"><ele>176.0</ele><time>2026-04-19T11:38:52.995Z</time></trkpt><trkpt lat="43.5514729" lon="12.992149"><ele>176.0</ele><time>2026-04-19T11:38:54.001Z</time></trkpt><trkpt lat="43.5514202" lon="12.9922217"><ele>176.0</ele><time>2026-04-19T11:38:54.994Z</time></trkpt><trkpt lat="43.5513521" lon="12.9922897"><ele>176.0</ele><time>2026-04-19T11:38:55.999Z</time></trkpt><trkpt lat="43.5512833" lon="12.9923358"><ele>176.0</ele><time>2026-04-19T11:38:56.999Z</time></trkpt><trkpt lat="43.5512086" lon="12.9923563"><ele>176.0</ele><time>2026-04-19T11:38:58Z</time></trkpt><trkpt lat="43.5511268" lon="12.9923525"><ele>176.0</ele><time>2026-04-19T11:38:58.996Z</time></trkpt><trkpt lat="43.5510487" lon="12.9923184"><ele>175.0</ele><time>2026-04-19T11:38:59.992Z</time></trkpt><trkpt lat="43.5509731" lon="12.9922711"><ele>174.0</ele><time>2026-04-19T11:39:00.997Z</time></trkpt><trkpt lat="43.5509054" lon="12.9922263"><ele>173.0</ele><time>2026-04-19T11:39:01.992Z</time></trkpt><trkpt lat="43.5508097" lon="12.9921864"><ele>172.0</ele><time>2026-04-19T11:39:03.993Z</time></trkpt><trkpt lat="43.5507378" lon="12.9922308"><ele>171.0</ele><time>2026-04-19T11:39:05.991Z</time></trkpt><trkpt lat="43.5507191" lon="12.9923306"><ele>170.0</ele><time>2026-04-19T11:39:07.987Z</time></trkpt><trkpt lat="43.5507341" lon="12.9924234"><ele>170.0</ele><time>2026-04-19T11:39:10.991Z</time></trkpt><trkpt lat="43.5507958" lon="12.9924784"><ele>170.0</ele><time>2026-04-19T11:40:23.989Z</time></trkpt><trkpt lat="43.550884" lon="12.9925986"><ele>170.0</ele><time>2026-04-19T11:40:25.992Z</time></trkpt><trkpt lat="43.5509307" lon="12.9926695"><ele>170.0</ele><time>2026-04-19T11:40:26.99Z</time></trkpt><trkpt lat="43.5509669" lon="12.9928172"><ele>170.0</ele><time>2026-04-19T11:40:29Z</time></trkpt><trkpt lat="43.5509377" lon="12.9929304"><ele>170.0</ele><time>2026-04-19T11:40:30.996Z</time></trkpt><trkpt lat="43.5508579" lon="12.9930465"><ele>170.0</ele><time>2026-04-19T11:40:32.989Z</time></trkpt><trkpt lat="43.5507299" lon="12.9931509"><ele>170.0</ele><time>2026-04-19T11:40:34.998Z</time></trkpt><trkpt lat="43.5506419" lon="12.993197"><ele>170.0</ele><time>2026-04-19T11:40:35.998Z</time></trkpt><trkpt lat="43.5505357" lon="12.9932345"><ele>170.0</ele><time>2026-04-19T11:40:36.992Z</time></trkpt><trkpt lat="43.5504108" lon="12.9932768"><ele>170.0</ele><time>2026-04-19T11:40:37.994Z</time></trkpt><trkpt lat="43.5502808" lon="12.9933211"><ele>170.0</ele><time>2026-04-19T11:40:38.996Z</time></trkpt><trkpt lat="43.5501466" lon="12.9933619"><ele>170.0</ele><time>2026-04-19T11:40:39.992Z</time></trkpt><trkpt lat="43.5500073" lon="12.9934138"><ele>175.75</ele><time>2026-04-19T11:40:40.999Z</time></trkpt><trkpt lat="43.5498726" lon="12.9934572"><ele>181.5</ele><time>2026-04-19T11:40:41.99Z</time></trkpt><trkpt lat="43.549751" lon="12.9935108"><ele>187.25</ele><time>2026-04-19T11:40:42.997Z</time></trkpt><trkpt lat="43.5496343" lon="12.9935527"><ele>193.0</ele><time>2026-04-19T11:40:44Z</time></trkpt><trkpt lat="43.549526" lon="12.9935947"><ele>196.2</ele><time>2026-04-19T11:40:44.994Z</time></trkpt><trkpt lat="43.549419" lon="12.9936396"><ele>199.4</ele><time>2026-04-19T11:40:45.994Z</time></trkpt><trkpt lat="43.5493169" lon="12.9936977"><ele>202.6</ele><time>2026-04-19T11:40:46.993Z</time></trkpt><trkpt lat="43.5492152" lon="12.9937538"><ele>205.79999999999998</ele><time>2026-04-19T11:40:48Z</time></trkpt><trkpt lat="43.5491149" lon="12.9938103"><ele>209.0</ele><time>2026-04-19T11:40:48.997Z</time></trkpt><trkpt lat="43.5490207" lon="12.9938757"><ele>209.0</ele><time>2026-04-19T11:40:49.995Z</time></trkpt><trkpt lat="43.5489275" lon="12.9939509"><ele>209.0</ele><time>2026-04-19T11:40:50.992Z</time></trkpt><trkpt lat="43.5488375" lon="12.9940282"><ele>209.0</ele><time>2026-04-19T11:40:51.999Z</time></trkpt><trkpt lat="43.5487544" lon="12.9941192"><ele>209.0</ele><time>2026-04-19T11:40:52.999Z</time></trkpt><trkpt lat="43.5486847" lon="12.9942163"><ele>209.0</ele><time>2026-04-19T11:40:53.996Z</time></trkpt><trkpt lat="43.5486292" lon="12.9943249"><ele>212.50000000000003</ele><time>2026-04-19T11:40:54.999Z</time></trkpt><trkpt lat="43.5485808" lon="12.9944457"><ele>216.0</ele><time>2026-04-19T11:40:55.995Z</time></trkpt><trkpt lat="43.5485426" lon="12.9945612"><ele>219.5</ele><time>2026-04-19T11:40:56.993Z</time></trkpt><trkpt lat="43.5485186" lon="12.9946695"><ele>223.0</ele><time>2026-04-19T11:40:58Z</time></trkpt><trkpt lat="43.5485176" lon="12.9947729"><ele>226.50000000000003</ele><time>2026-04-19T11:40:58.991Z</time></trkpt><trkpt lat="43.5485351" lon="12.9948812"><ele>230.0</ele><time>2026-04-19T11:41:00Z</time></trkpt><trkpt lat="43.5485667" lon="12.9949883"><ele>230.0</ele><time>2026-04-19T11:41:01Z</time></trkpt><trkpt lat="43.5486065" lon="12.9951127"><ele>230.0</ele><time>2026-04-19T11:41:01.994Z</time></trkpt><trkpt lat="43.5486521" lon="12.9952408"><ele>230.0</ele><time>2026-04-19T11:41:02.99Z</time></trkpt><trkpt lat="43.5487037" lon="12.9953725"><ele>230.0</ele><time>2026-04-19T11:41:03.994Z</time></trkpt><trkpt lat="43.548748" lon="12.9954863"><ele>230.0</ele><time>2026-04-19T11:41:04.991Z</time></trkpt><trkpt lat="43.5487886" lon="12.9955879"><ele>230.0</ele><time>2026-04-19T11:41:05.997Z</time></trkpt><trkpt lat="43.548822" lon="12.9956704"><ele>230.0</ele><time>2026-04-19T11:41:07Z</time></trkpt><trkpt lat="43.548878" lon="12.9957899"><ele>230.0</ele><time>2026-04-19T11:41:09Z</time></trkpt><trkpt lat="43.5488453" lon="12.9959036"><ele>230.0</ele><time>2026-04-19T11:41:10.993Z</time></trkpt><trkpt lat="43.5487472" lon="12.9959873"><ele>230.0</ele><time>2026-04-19T11:41:12.996Z</time></trkpt><trkpt lat="43.548678" lon="12.9960264"><ele>231.6</ele><time>2026-04-19T11:41:13.988Z</time></trkpt><trkpt lat="43.548601" lon="12.9960745"><ele>233.2</ele><time>2026-04-19T11:41:14.998Z</time></trkpt><trkpt lat="43.5485154" lon="12.996143"><ele>234.8</ele><time>2026-04-19T11:41:15.994Z</time></trkpt><trkpt lat="43.5484283" lon="12.9962158"><ele>236.4</ele><time>2026-04-19T11:41:16.995Z</time></trkpt><trkpt lat="43.5483378" lon="12.9962875"><ele>238.0</ele><time>2026-04-19T11:41:18Z</time></trkpt><trkpt lat="43.5482479" lon="12.9963598"><ele>237.99999999999997</ele><time>2026-04-19T11:41:18.999Z</time></trkpt><trkpt lat="43.5481641" lon="12.9964284"><ele>238.0</ele><time>2026-04-19T11:41:19.998Z</time></trkpt><trkpt lat="43.5480953" lon="12.9964785"><ele>238.0</ele><time>2026-04-19T11:41:21Z</time></trkpt><trkpt lat="43.5480332" lon="12.9965273"><ele>238.0</ele><time>2026-04-19T11:41:21.994Z</time></trkpt><trkpt lat="43.5479749" lon="12.9965739"><ele>237.99999999999997</ele><time>2026-04-19T11:41:22.993Z</time></trkpt><trkpt lat="43.5478933" lon="12.9966597"><ele>238.0</ele><time>2026-04-19T11:41:24.998Z</time></trkpt><trkpt lat="43.5478385" lon="12.9967309"><ele>238.49999999999997</ele><time>2026-04-19T11:41:27.992Z</time></trkpt><trkpt lat="43.5477562" lon="12.9967576"><ele>239.0</ele><time>2026-04-19T11:41:29.997Z</time></trkpt><trkpt lat="43.5476857" lon="12.9967573"><ele>239.5</ele><time>2026-04-19T11:41:30.991Z</time></trkpt><trkpt lat="43.5475969" lon="12.9967507"><ele>240.0</ele><time>2026-04-19T11:41:31.997Z</time></trkpt><trkpt lat="43.5475102" lon="12.9967357"><ele>240.49999999999997</ele><time>2026-04-19T11:41:32.993Z</time></trkpt><trkpt lat="43.547426" lon="12.9967192"><ele>241.0</ele><time>2026-04-19T11:41:33.992Z</time></trkpt><trkpt lat="43.5473381" lon="12.9967019"><ele>240.99999999999997</ele><time>2026-04-19T11:41:34.997Z</time></trkpt><trkpt lat="43.5472469" lon="12.9966797"><ele>241.0</ele><time>2026-04-19T11:41:36Z</time></trkpt><trkpt lat="43.5471549" lon="12.9966575"><ele>241.0</ele><time>2026-04-19T11:41:36.997Z</time></trkpt><trkpt lat="43.5470724" lon="12.9966293"><ele>241.0</ele><time>2026-04-19T11:41:37.994Z</time></trkpt><trkpt lat="43.5469913" lon="12.9966157"><ele>240.99999999999997</ele><time>2026-04-19T11:41:38.993Z</time></trkpt><trkpt lat="43.546916" lon="12.9966046"><ele>241.0</ele><time>2026-04-19T11:41:39.992Z</time></trkpt><trkpt lat="43.5468475" lon="12.9966005"><ele>243.33333333333331</ele><time>2026-04-19T11:41:41Z</time></trkpt><trkpt lat="43.5467835" lon="12.9966013"><ele>245.66666666666666</ele><time>2026-04-19T11:41:42Z</time></trkpt><trkpt lat="43.5466598" lon="12.9965774"><ele>248.0</ele><time>2026-04-19T11:41:43.998Z</time></trkpt><trkpt lat="43.5465954" lon="12.9965367"><ele>250.33333333333331</ele><time>2026-04-19T11:41:44.997Z</time></trkpt><trkpt lat="43.5465314" lon="12.9964795"><ele>252.66666666666666</ele><time>2026-04-19T11:41:45.999Z</time></trkpt><trkpt lat="43.5464703" lon="12.9963965"><ele>255.0</ele><time>2026-04-19T11:41:46.993Z</time></trkpt><trkpt lat="43.5464105" lon="12.9962984"><ele>255.0</ele><time>2026-04-19T11:41:47.999Z</time></trkpt><trkpt lat="43.5463459" lon="12.9961896"><ele>255.0</ele><time>2026-04-19T11:41:49Z</time></trkpt><trkpt lat="43.5462794" lon="12.9960826"><ele>255.0</ele><time>2026-04-19T11:41:49.988Z</time></trkpt><trkpt lat="43.5462067" lon="12.9959615"><ele>255.0</ele><time>2026-04-19T11:41:50.994Z</time></trkpt><trkpt lat="43.5461362" lon="12.9958501"><ele>255.0</ele><time>2026-04-19T11:41:51.994Z</time></trkpt><trkpt lat="43.5460747" lon="12.9957723"><ele>255.0</ele><time>2026-04-19T11:41:53Z</time></trkpt><trkpt lat="43.5460183" lon="12.9956914"><ele>255.0</ele><time>2026-04-19T11:41:53.994Z</time></trkpt><trkpt lat="43.5459674" lon="12.9956171"><ele>255.0</ele><time>2026-04-19T11:41:54.991Z</time></trkpt><trkpt lat="43.5459209" lon="12.9955561"><ele>255.0</ele><time>2026-04-19T11:41:55.991Z</time></trkpt><trkpt lat="43.5458752" lon="12.9954944"><ele>255.0</ele><time>2026-04-19T11:41:56.995Z</time></trkpt><trkpt lat="43.545814" lon="12.9953976"><ele>255.0</ele><time>2026-04-19T11:41:58.992Z</time></trkpt><trkpt lat="43.545745" lon="12.9952903"><ele>255.0</ele><time>2026-04-19T11:42:01.999Z</time></trkpt><trkpt lat="43.5456575" lon="12.9951592"><ele>255.0</ele><time>2026-04-19T11:42:03.995Z</time></trkpt><trkpt lat="43.5456076" lon="12.9950743"><ele>255.0</ele><time>2026-04-19T11:42:04.993Z</time></trkpt><trkpt lat="43.5455516" lon="12.9950072"><ele>255.0</ele><time>2026-04-19T11:42:05.998Z</time></trkpt><trkpt lat="43.5454943" lon="12.9949421"><ele>255.0</ele><time>2026-04-19T11:42:06.998Z</time></trkpt><trkpt lat="43.5454303" lon="12.9948953"><ele>255.0</ele><time>2026-04-19T11:42:07.994Z</time></trkpt><trkpt lat="43.5453601" lon="12.9948539"><ele>256.5</ele><time>2026-04-19T11:42:09Z</time></trkpt><trkpt lat="43.5452881" lon="12.9948342"><ele>258.0</ele><time>2026-04-19T11:42:09.994Z</time></trkpt><trkpt lat="43.5452144" lon="12.9948136"><ele>259.5</ele><time>2026-04-19T11:42:11Z</time></trkpt><trkpt lat="43.5451439" lon="12.9947895"><ele>261.0</ele><time>2026-04-19T11:42:11.989Z</time></trkpt><trkpt lat="43.5450346" lon="12.994742"><ele>262.5</ele><time>2026-04-19T11:42:14Z</time></trkpt><trkpt lat="43.5449743" lon="12.9946805"><ele>264.0</ele><time>2026-04-19T11:42:15.993Z</time></trkpt><trkpt lat="43.5449298" lon="12.9946071"><ele>264.0</ele><time>2026-04-19T11:42:18Z</time></trkpt><trkpt lat="43.5448605" lon="12.9945225"><ele>264.0</ele><time>2026-04-19T11:42:20Z</time></trkpt><trkpt lat="43.5447734" lon="12.9944372"><ele>264.0</ele><time>2026-04-19T11:42:21.989Z</time></trkpt><trkpt lat="43.5447196" lon="12.9943692"><ele>264.0</ele><time>2026-04-19T11:42:23.994Z</time></trkpt><trkpt lat="43.544653" lon="12.9943874"><ele>264.0</ele><time>2026-04-19T11:42:27.996Z</time></trkpt><trkpt lat="43.5447147" lon="12.9944598"><ele>264.0</ele><time>2026-04-19T11:42:52.993Z</time></trkpt><trkpt lat="43.5447829" lon="12.994501"><ele>264.0</ele><time>2026-04-19T11:42:54.989Z</time></trkpt><trkpt lat="43.544858" lon="12.994544"><ele>264.0</ele><time>2026-04-19T11:42:55.999Z</time></trkpt><trkpt lat="43.5449283" lon="12.9946417"><ele>264.0</ele><time>2026-04-19T11:42:57.991Z</time></trkpt><trkpt lat="43.5450063" lon="12.9947013"><ele>264.0</ele><time>2026-04-19T11:42:59.999Z</time></trkpt><trkpt lat="43.5450953" lon="12.9947466"><ele>264.0</ele><time>2026-04-19T11:43:01.989Z</time></trkpt><trkpt lat="43.5452194" lon="12.9948071"><ele>264.0</ele><time>2026-04-19T11:43:03.991Z</time></trkpt><trkpt lat="43.5452854" lon="12.9948356"><ele>264.0</ele><time>2026-04-19T11:43:04.996Z</time></trkpt><trkpt lat="43.545353" lon="12.9948635"><ele>264.0</ele><time>2026-04-19T11:43:05.993Z</time></trkpt><trkpt lat="43.5454243" lon="12.9948987"><ele>264.0</ele><time>2026-04-19T11:43:06.992Z</time></trkpt><trkpt lat="43.5454915" lon="12.9949462"><ele>264.0</ele><time>2026-04-19T11:43:07.998Z</time></trkpt><trkpt lat="43.5455597" lon="12.9949909"><ele>264.0</ele><time>2026-04-19T11:43:09Z</time></trkpt><trkpt lat="43.5456153" lon="12.9950655"><ele>264.0</ele><time>2026-04-19T11:43:09.997Z</time></trkpt><trkpt lat="43.5456683" lon="12.9951365"><ele>262.2</ele><time>2026-04-19T11:43:10.997Z</time></trkpt><trkpt lat="43.5457071" lon="12.9952583"><ele>260.4</ele><time>2026-04-19T11:43:12.996Z</time></trkpt><trkpt lat="43.5457391" lon="12.9953511"><ele>258.6</ele><time>2026-04-19T11:43:16.991Z</time></trkpt><trkpt lat="43.5455924" lon="12.9953254"><ele>256.8</ele><time>2026-04-19T11:43:20.993Z</time></trkpt><trkpt lat="43.545507" lon="12.9953084"><ele>255.0</ele><time>2026-04-19T11:43:21.984Z</time></trkpt><trkpt lat="43.5454137" lon="12.9952907"><ele>252.2</ele><time>2026-04-19T11:43:22.991Z</time></trkpt><trkpt lat="43.545309" lon="12.9952745"><ele>249.4</ele><time>2026-04-19T11:43:23.995Z</time></trkpt><trkpt lat="43.5451992" lon="12.9952637"><ele>246.60000000000002</ele><time>2026-04-19T11:43:24.989Z</time></trkpt><trkpt lat="43.545088" lon="12.9952495"><ele>243.8</ele><time>2026-04-19T11:43:26Z</time></trkpt><trkpt lat="43.5449851" lon="12.9952299"><ele>241.0</ele><time>2026-04-19T11:43:26.995Z</time></trkpt><trkpt lat="43.5448883" lon="12.9952181"><ele>241.0</ele><time>2026-04-19T11:43:27.995Z</time></trkpt><trkpt lat="43.5447907" lon="12.9951856"><ele>241.00000000000003</ele><time>2026-04-19T11:43:29Z</time></trkpt><trkpt lat="43.5446896" lon="12.9951473"><ele>241.00000000000003</ele><time>2026-04-19T11:43:29.991Z</time></trkpt><trkpt lat="43.5445819" lon="12.9951015"><ele>241.0</ele><time>2026-04-19T11:43:30.994Z</time></trkpt><trkpt lat="43.5444743" lon="12.9950536"><ele>241.0</ele><time>2026-04-19T11:43:31.99Z</time></trkpt><trkpt lat="43.5443674" lon="12.9950081"><ele>242.99999999999997</ele><time>2026-04-19T11:43:32.998Z</time></trkpt><trkpt lat="43.5442703" lon="12.9949556"><ele>245.0</ele><time>2026-04-19T11:43:33.993Z</time></trkpt><trkpt lat="43.5441862" lon="12.9949017"><ele>247.0</ele><time>2026-04-19T11:43:34.997Z</time></trkpt><trkpt lat="43.5441143" lon="12.9948462"><ele>249.0</ele><time>2026-04-19T11:43:35.99Z</time></trkpt><trkpt lat="43.5440491" lon="12.9947988"><ele>250.99999999999997</ele><time>2026-04-19T11:43:36.991Z</time></trkpt><trkpt lat="43.5439885" lon="12.9947543"><ele>253.0</ele><time>2026-04-19T11:43:38Z</time></trkpt><trkpt lat="43.5438958" lon="12.9946899"><ele>252.99999999999997</ele><time>2026-04-19T11:43:39.992Z</time></trkpt><trkpt lat="43.5438186" lon="12.9946348"><ele>253.0</ele><time>2026-04-19T11:43:41.996Z</time></trkpt><trkpt lat="43.5437565" lon="12.9945824"><ele>253.0</ele><time>2026-04-19T11:43:44.99Z</time></trkpt><trkpt lat="43.5436907" lon="12.9945319"><ele>253.0</ele><time>2026-04-19T11:43:47.993Z</time></trkpt><trkpt lat="43.5436206" lon="12.9944607"><ele>252.99999999999997</ele><time>2026-04-19T11:43:49.995Z</time></trkpt><trkpt lat="43.543551" lon="12.9943663"><ele>253.0</ele><time>2026-04-19T11:43:51.998Z</time></trkpt><trkpt lat="43.5434634" lon="12.9943597"><ele>249.60000000000002</ele><time>2026-04-19T11:43:54.986Z</time></trkpt><trkpt lat="43.5433763" lon="12.9944187"><ele>246.20000000000002</ele><time>2026-04-19T11:43:56.997Z</time></trkpt><trkpt lat="43.5432616" lon="12.9944952"><ele>242.8</ele><time>2026-04-19T11:43:58.998Z</time></trkpt><trkpt lat="43.5431934" lon="12.9945542"><ele>239.4</ele><time>2026-04-19T11:43:59.991Z</time></trkpt><trkpt lat="43.5431247" lon="12.994616"><ele>236.0</ele><time>2026-04-19T11:44:01Z</time></trkpt><trkpt lat="43.5430557" lon="12.9946691"><ele>236.00000000000003</ele><time>2026-04-19T11:44:01.997Z</time></trkpt><trkpt lat="43.5429926" lon="12.9947239"><ele>236.0</ele><time>2026-04-19T11:44:03Z</time></trkpt><trkpt lat="43.542919" lon="12.9947835"><ele>236.0</ele><time>2026-04-19T11:44:04Z</time></trkpt><trkpt lat="43.5428439" lon="12.9948387"><ele>236.0</ele><time>2026-04-19T11:44:04.997Z</time></trkpt><trkpt lat="43.5427695" lon="12.9948908"><ele>236.00000000000003</ele><time>2026-04-19T11:44:05.995Z</time></trkpt><trkpt lat="43.5426895" lon="12.9949546"><ele>236.0</ele><time>2026-04-19T11:44:06.989Z</time></trkpt><trkpt lat="43.5426111" lon="12.9950264"><ele>233.16666666666669</ele><time>2026-04-19T11:44:07.993Z</time></trkpt><trkpt lat="43.5425404" lon="12.9950944"><ele>230.33333333333334</ele><time>2026-04-19T11:44:08.998Z</time></trkpt><trkpt lat="43.5424679" lon="12.9951689"><ele>227.5</ele><time>2026-04-19T11:44:09.995Z</time></trkpt><trkpt lat="43.5424012" lon="12.9952486"><ele>224.66666666666669</ele><time>2026-04-19T11:44:11Z</time></trkpt><trkpt lat="43.5423385" lon="12.9953371"><ele>221.83333333333334</ele><time>2026-04-19T11:44:12Z</time></trkpt><trkpt lat="43.5422776" lon="12.9954332"><ele>219.0</ele><time>2026-04-19T11:44:12.997Z</time></trkpt><trkpt lat="43.5422121" lon="12.9955291"><ele>219.0</ele><time>2026-04-19T11:44:13.997Z</time></trkpt><trkpt lat="43.5421374" lon="12.9956204"><ele>219.0</ele><time>2026-04-19T11:44:14.994Z</time></trkpt><trkpt lat="43.5420667" lon="12.9957004"><ele>219.0</ele><time>2026-04-19T11:44:16Z</time></trkpt><trkpt lat="43.5420018" lon="12.9957791"><ele>219.0</ele><time>2026-04-19T11:44:16.994Z</time></trkpt><trkpt lat="43.5419373" lon="12.9958612"><ele>219.0</ele><time>2026-04-19T11:44:17.998Z</time></trkpt><trkpt lat="43.5418789" lon="12.9959269"><ele>219.0</ele><time>2026-04-19T11:44:18.99Z</time></trkpt><trkpt lat="43.5418218" lon="12.9959978"><ele>216.83333333333334</ele><time>2026-04-19T11:44:19.992Z</time></trkpt><trkpt lat="43.5417547" lon="12.9960568"><ele>214.66666666666669</ele><time>2026-04-19T11:44:20.997Z</time></trkpt><trkpt lat="43.5416773" lon="12.9960987"><ele>212.5</ele><time>2026-04-19T11:44:21.993Z</time></trkpt><trkpt lat="43.5415923" lon="12.9961225"><ele>210.33333333333334</ele><time>2026-04-19T11:44:22.997Z</time></trkpt><trkpt lat="43.5414979" lon="12.9961283"><ele>208.16666666666669</ele><time>2026-04-19T11:44:24Z</time></trkpt><trkpt lat="43.5414068" lon="12.9961045"><ele>206.0</ele><time>2026-04-19T11:44:24.994Z</time></trkpt><trkpt lat="43.541324" lon="12.9960525"><ele>206.0</ele><time>2026-04-19T11:44:25.998Z</time></trkpt><trkpt lat="43.5412462" lon="12.9959775"><ele>206.0</ele><time>2026-04-19T11:44:26.995Z</time></trkpt><trkpt lat="43.541175" lon="12.9958919"><ele>206.0</ele><time>2026-04-19T11:44:27.995Z</time></trkpt><trkpt lat="43.5411002" lon="12.9958038"><ele>206.0</ele><time>2026-04-19T11:44:28.993Z</time></trkpt><trkpt lat="43.5410269" lon="12.9957219"><ele>206.0</ele><time>2026-04-19T11:44:29.995Z</time></trkpt><trkpt lat="43.5409432" lon="12.9956655"><ele>206.8</ele><time>2026-04-19T11:44:30.998Z</time></trkpt><trkpt lat="43.5408577" lon="12.9956378"><ele>207.60000000000002</ele><time>2026-04-19T11:44:31.994Z</time></trkpt><trkpt lat="43.540763" lon="12.9956371"><ele>208.4</ele><time>2026-04-19T11:44:33Z</time></trkpt><trkpt lat="43.5406601" lon="12.9956479"><ele>209.2</ele><time>2026-04-19T11:44:33.996Z</time></trkpt><trkpt lat="43.5405488" lon="12.9956856"><ele>210.0</ele><time>2026-04-19T11:44:34.997Z</time></trkpt><trkpt lat="43.5404317" lon="12.9957161"><ele>210.75</ele><time>2026-04-19T11:44:35.998Z</time></trkpt><trkpt lat="43.5403083" lon="12.99576"><ele>211.5</ele><time>2026-04-19T11:44:36.989Z</time></trkpt><trkpt lat="43.5401903" lon="12.9957919"><ele>212.25</ele><time>2026-04-19T11:44:37.992Z</time></trkpt><trkpt lat="43.5400754" lon="12.995804"><ele>213.0</ele><time>2026-04-19T11:44:38.988Z</time></trkpt><trkpt lat="43.5399618" lon="12.9957887"><ele>213.0</ele><time>2026-04-19T11:44:39.992Z</time></trkpt><trkpt lat="43.5398399" lon="12.9957644"><ele>213.0</ele><time>2026-04-19T11:44:40.989Z</time></trkpt><trkpt lat="43.5397143" lon="12.9957389"><ele>213.0</ele><time>2026-04-19T11:44:41.994Z</time></trkpt><trkpt lat="43.5395914" lon="12.9957156"><ele>213.0</ele><time>2026-04-19T11:44:42.99Z</time></trkpt><trkpt lat="43.5394822" lon="12.9957017"><ele>212.4</ele><time>2026-04-19T11:44:43.995Z</time></trkpt><trkpt lat="43.5393866" lon="12.9956886"><ele>211.8</ele><time>2026-04-19T11:44:44.996Z</time></trkpt><trkpt lat="43.5392875" lon="12.9956804"><ele>211.2</ele><time>2026-04-19T11:44:45.99Z</time></trkpt><trkpt lat="43.5391873" lon="12.9956709"><ele>210.6</ele><time>2026-04-19T11:44:46.998Z</time></trkpt><trkpt lat="43.539084" lon="12.9956553"><ele>210.0</ele><time>2026-04-19T11:44:47.994Z</time></trkpt><trkpt lat="43.5389835" lon="12.9956308"><ele>210.0</ele><time>2026-04-19T11:44:48.994Z</time></trkpt><trkpt lat="43.5388827" lon="12.9956142"><ele>210.0</ele><time>2026-04-19T11:44:49.995Z</time></trkpt><trkpt lat="43.5387876" lon="12.9955955"><ele>210.0</ele><time>2026-04-19T11:44:50.99Z</time></trkpt><trkpt lat="43.5386907" lon="12.9955764"><ele>210.0</ele><time>2026-04-19T11:44:51.992Z</time></trkpt><trkpt lat="43.5385927" lon="12.9955526"><ele>210.0</ele><time>2026-04-19T11:44:52.993Z</time></trkpt><trkpt lat="43.5384947" lon="12.9955283"><ele>209.8</ele><time>2026-04-19T11:44:53.998Z</time></trkpt><trkpt lat="43.5383911" lon="12.9955082"><ele>209.6</ele><time>2026-04-19T11:44:54.997Z</time></trkpt><trkpt lat="43.5382928" lon="12.9954895"><ele>209.39999999999998</ele><time>2026-04-19T11:44:55.997Z</time></trkpt><trkpt lat="43.5381896" lon="12.9954694"><ele>209.2</ele><time>2026-04-19T11:44:56.999Z</time></trkpt><trkpt lat="43.5380965" lon="12.9954505"><ele>209.0</ele><time>2026-04-19T11:44:58Z</time></trkpt><trkpt lat="43.5380037" lon="12.9954353"><ele>209.00000000000003</ele><time>2026-04-19T11:44:58.991Z</time></trkpt><trkpt lat="43.5379155" lon="12.9954231"><ele>209.0</ele><time>2026-04-19T11:44:59.997Z</time></trkpt><trkpt lat="43.5378411" lon="12.9954055"><ele>209.0</ele><time>2026-04-19T11:45:01Z</time></trkpt><trkpt lat="43.5377575" lon="12.9953989"><ele>209.0</ele><time>2026-04-19T11:45:01.994Z</time></trkpt><trkpt lat="43.5376739" lon="12.995401"><ele>209.00000000000003</ele><time>2026-04-19T11:45:02.99Z</time></trkpt><trkpt lat="43.537594" lon="12.9954013"><ele>209.0</ele><time>2026-04-19T11:45:03.992Z</time></trkpt><trkpt lat="43.5375101" lon="12.995397"><ele>209.33333333333334</ele><time>2026-04-19T11:45:04.991Z</time></trkpt><trkpt lat="43.5374257" lon="12.9953953"><ele>209.66666666666669</ele><time>2026-04-19T11:45:05.998Z</time></trkpt><trkpt lat="43.5373425" lon="12.9953929"><ele>210.0</ele><time>2026-04-19T11:45:06.999Z</time></trkpt><trkpt lat="43.5372664" lon="12.9953852"><ele>210.33333333333331</ele><time>2026-04-19T11:45:07.995Z</time></trkpt><trkpt lat="43.5371942" lon="12.9953769"><ele>210.66666666666666</ele><time>2026-04-19T11:45:08.994Z</time></trkpt><trkpt lat="43.5371258" lon="12.9953569"><ele>211.0</ele><time>2026-04-19T11:45:10Z</time></trkpt><trkpt lat="43.5370636" lon="12.9953309"><ele>210.60000000000002</ele><time>2026-04-19T11:45:11Z</time></trkpt><trkpt lat="43.5369557" lon="12.9952815"><ele>210.2</ele><time>2026-04-19T11:45:13Z</time></trkpt><trkpt lat="43.5368404" lon="12.995238"><ele>209.8</ele><time>2026-04-19T11:45:15Z</time></trkpt><trkpt lat="43.5367229" lon="12.9951913"><ele>209.39999999999998</ele><time>2026-04-19T11:45:17Z</time></trkpt><trkpt lat="43.5366561" lon="12.9951749"><ele>209.0</ele><time>2026-04-19T11:45:18Z</time></trkpt><trkpt lat="43.5365865" lon="12.9951566"><ele>209.00000000000003</ele><time>2026-04-19T11:45:18.999Z</time></trkpt><trkpt lat="43.5365192" lon="12.9951366"><ele>209.0</ele><time>2026-04-19T11:45:19.995Z</time></trkpt><trkpt lat="43.5364488" lon="12.9951328"><ele>209.0</ele><time>2026-04-19T11:45:20.996Z</time></trkpt><trkpt lat="43.5363722" lon="12.9951364"><ele>209.0</ele><time>2026-04-19T11:45:21.994Z</time></trkpt><trkpt lat="43.5362931" lon="12.9951402"><ele>209.00000000000003</ele><time>2026-04-19T11:45:22.99Z</time></trkpt><trkpt lat="43.5362128" lon="12.9951422"><ele>209.0</ele><time>2026-04-19T11:45:24Z</time></trkpt><trkpt lat="43.5361342" lon="12.995144"><ele>207.83333333333334</ele><time>2026-04-19T11:45:24.996Z</time></trkpt><trkpt lat="43.53605" lon="12.9951478"><ele>206.66666666666669</ele><time>2026-04-19T11:45:26Z</time></trkpt><trkpt lat="43.5359678" lon="12.995151"><ele>205.5</ele><time>2026-04-19T11:45:26.999Z</time></trkpt><trkpt lat="43.5358807" lon="12.9951535"><ele>204.33333333333331</ele><time>2026-04-19T11:45:28Z</time></trkpt><trkpt lat="43.5357957" lon="12.9951503"><ele>203.16666666666666</ele><time>2026-04-19T11:45:28.989Z</time></trkpt><trkpt lat="43.535704" lon="12.9951454"><ele>202.0</ele><time>2026-04-19T11:45:29.99Z</time></trkpt><trkpt lat="43.5356155" lon="12.9951275"><ele>202.0</ele><time>2026-04-19T11:45:30.989Z</time></trkpt><trkpt lat="43.5355261" lon="12.9950882"><ele>202.0</ele><time>2026-04-19T11:45:31.99Z</time></trkpt><trkpt lat="43.535441" lon="12.9950133"><ele>202.0</ele><time>2026-04-19T11:45:32.991Z</time></trkpt><trkpt lat="43.5353638" lon="12.9949214"><ele>202.0</ele><time>2026-04-19T11:45:33.989Z</time></trkpt><trkpt lat="43.5352826" lon="12.9948075"><ele>202.0</ele><time>2026-04-19T11:45:35Z</time></trkpt><trkpt lat="43.5352078" lon="12.9947074"><ele>200.0</ele><time>2026-04-19T11:45:35.991Z</time></trkpt><trkpt lat="43.5351236" lon="12.9946226"><ele>198.0</ele><time>2026-04-19T11:45:36.99Z</time></trkpt><trkpt lat="43.5350334" lon="12.9945479"><ele>196.0</ele><time>2026-04-19T11:45:37.996Z</time></trkpt><trkpt lat="43.5349352" lon="12.9944809"><ele>194.0</ele><time>2026-04-19T11:45:38.991Z</time></trkpt><trkpt lat="43.5348348" lon="12.9944164"><ele>192.0</ele><time>2026-04-19T11:45:40Z</time></trkpt><trkpt lat="43.5347342" lon="12.9943594"><ele>192.0</ele><time>2026-04-19T11:45:40.991Z</time></trkpt><trkpt lat="43.534628" lon="12.9943142"><ele>192.0</ele><time>2026-04-19T11:45:41.993Z</time></trkpt><trkpt lat="43.5345309" lon="12.9942669"><ele>192.0</ele><time>2026-04-19T11:45:42.992Z</time></trkpt><trkpt lat="43.5344333" lon="12.9942174"><ele>192.0</ele><time>2026-04-19T11:45:43.995Z</time></trkpt><trkpt lat="43.5343431" lon="12.9941706"><ele>192.0</ele><time>2026-04-19T11:45:44.995Z</time></trkpt><trkpt lat="43.5342568" lon="12.9941117"><ele>191.39999999999998</ele><time>2026-04-19T11:45:45.995Z</time></trkpt><trkpt lat="43.5341733" lon="12.994039"><ele>190.79999999999998</ele><time>2026-04-19T11:45:47Z</time></trkpt><trkpt lat="43.5340873" lon="12.9939747"><ele>190.2</ele><time>2026-04-19T11:45:47.991Z</time></trkpt><trkpt lat="43.5339969" lon="12.9939181"><ele>189.6</ele><time>2026-04-19T11:45:48.996Z</time></trkpt><trkpt lat="43.5338914" lon="12.9938813"><ele>189.0</ele><time>2026-04-19T11:45:50Z</time></trkpt><trkpt lat="43.533784" lon="12.9938529"><ele>187.2</ele><time>2026-04-19T11:45:50.992Z</time></trkpt><trkpt lat="43.5336635" lon="12.9938362"><ele>185.39999999999998</ele><time>2026-04-19T11:45:51.997Z</time></trkpt><trkpt lat="43.5335554" lon="12.9938031"><ele>183.6</ele><time>2026-04-19T11:45:52.994Z</time></trkpt><trkpt lat="43.5334515" lon="12.9937654"><ele>181.8</ele><time>2026-04-19T11:45:53.994Z</time></trkpt><trkpt lat="43.5333516" lon="12.993719"><ele>180.0</ele><time>2026-04-19T11:45:54.998Z</time></trkpt><trkpt lat="43.5332529" lon="12.9936704"><ele>180.0</ele><time>2026-04-19T11:45:55.994Z</time></trkpt><trkpt lat="43.5331659" lon="12.9936161"><ele>180.0</ele><time>2026-04-19T11:45:57Z</time></trkpt><trkpt lat="43.5330754" lon="12.9935626"><ele>180.0</ele><time>2026-04-19T11:45:57.991Z</time></trkpt><trkpt lat="43.5329869" lon="12.9935051"><ele>180.0</ele><time>2026-04-19T11:45:58.998Z</time></trkpt><trkpt lat="43.5328949" lon="12.9934483"><ele>180.0</ele><time>2026-04-19T11:45:59.992Z</time></trkpt><trkpt lat="43.532803" lon="12.9933941"><ele>179.8</ele><time>2026-04-19T11:46:00.998Z</time></trkpt><trkpt lat="43.5327088" lon="12.9933482"><ele>179.6</ele><time>2026-04-19T11:46:01.996Z</time></trkpt><trkpt lat="43.532618" lon="12.993318"><ele>179.39999999999998</ele><time>2026-04-19T11:46:03Z</time></trkpt><trkpt lat="43.5325218" lon="12.9932969"><ele>179.2</ele><time>2026-04-19T11:46:04Z</time></trkpt><trkpt lat="43.5324282" lon="12.9932732"><ele>179.0</ele><time>2026-04-19T11:46:05Z</time></trkpt><trkpt lat="43.5323368" lon="12.9932356"><ele>179.0</ele><time>2026-04-19T11:46:06Z</time></trkpt><trkpt lat="43.5322399" lon="12.9931981"><ele>179.0</ele><time>2026-04-19T11:46:07Z</time></trkpt><trkpt lat="43.5321558" lon="12.9931401"><ele>179.0</ele><time>2026-04-19T11:46:07.994Z</time></trkpt><trkpt lat="43.5320783" lon="12.9930773"><ele>179.0</ele><time>2026-04-19T11:46:08.989Z</time></trkpt><trkpt lat="43.5319998" lon="12.9930147"><ele>179.0</ele><time>2026-04-19T11:46:10Z</time></trkpt><trkpt lat="43.5319313" lon="12.9929639"><ele>178.2</ele><time>2026-04-19T11:46:10.989Z</time></trkpt><trkpt lat="43.5318355" lon="12.9928754"><ele>177.39999999999998</ele><time>2026-04-19T11:46:12.991Z</time></trkpt><trkpt lat="43.5317527" lon="12.9927754"><ele>176.6</ele><time>2026-04-19T11:46:14.992Z</time></trkpt><trkpt lat="43.5317111" lon="12.99269"><ele>175.8</ele><time>2026-04-19T11:46:15.997Z</time></trkpt><trkpt lat="43.53167" lon="12.9925892"><ele>175.0</ele><time>2026-04-19T11:46:16.997Z</time></trkpt><trkpt lat="43.5316199" lon="12.9924675"><ele>175.0</ele><time>2026-04-19T11:46:17.992Z</time></trkpt><trkpt lat="43.5315687" lon="12.9923316"><ele>175.0</ele><time>2026-04-19T11:46:18.992Z</time></trkpt><trkpt lat="43.5315126" lon="12.992173"><ele>175.0</ele><time>2026-04-19T11:46:19.988Z</time></trkpt><trkpt lat="43.5314546" lon="12.9920079"><ele>175.0</ele><time>2026-04-19T11:46:20.99Z</time></trkpt><trkpt lat="43.5314075" lon="12.99183"><ele>175.66666666666669</ele><time>2026-04-19T11:46:21.996Z</time></trkpt><trkpt lat="43.5313594" lon="12.9916419"><ele>176.33333333333334</ele><time>2026-04-19T11:46:22.995Z</time></trkpt><trkpt lat="43.5313087" lon="12.9914395"><ele>177.0</ele><time>2026-04-19T11:46:24Z</time></trkpt><trkpt lat="43.5312583" lon="12.9912156"><ele>175.0</ele><time>2026-04-19T11:46:24.999Z</time></trkpt><trkpt lat="43.5312158" lon="12.9909786"><ele>173.0</ele><time>2026-04-19T11:46:25.996Z</time></trkpt><trkpt lat="43.5311832" lon="12.9907481"><ele>171.0</ele><time>2026-04-19T11:46:26.991Z</time></trkpt><trkpt lat="43.5311595" lon="12.9905187"><ele>171.0</ele><time>2026-04-19T11:46:27.995Z</time></trkpt><trkpt lat="43.5311455" lon="12.9902872"><ele>171.0</ele><time>2026-04-19T11:46:28.994Z</time></trkpt><trkpt lat="43.5311252" lon="12.990051"><ele>171.0</ele><time>2026-04-19T11:46:29.993Z</time></trkpt><trkpt lat="43.5310847" lon="12.9898191"><ele>171.33333333333334</ele><time>2026-04-19T11:46:30.987Z</time></trkpt><trkpt lat="43.5310149" lon="12.9895984"><ele>171.66666666666669</ele><time>2026-04-19T11:46:31.995Z</time></trkpt><trkpt lat="43.5309158" lon="12.9893867"><ele>172.0</ele><time>2026-04-19T11:46:32.997Z</time></trkpt><trkpt lat="43.530801" lon="12.9891739"><ele>173.66666666666669</ele><time>2026-04-19T11:46:33.994Z</time></trkpt><trkpt lat="43.53068" lon="12.9889468"><ele>175.33333333333334</ele><time>2026-04-19T11:46:35Z</time></trkpt><trkpt lat="43.5305561" lon="12.9887224"><ele>177.0</ele><time>2026-04-19T11:46:35.995Z</time></trkpt><trkpt lat="43.5304262" lon="12.9884911"><ele>176.0</ele><time>2026-04-19T11:46:36.99Z</time></trkpt><trkpt lat="43.5302918" lon="12.9882574"><ele>175.0</ele><time>2026-04-19T11:46:37.987Z</time></trkpt><trkpt lat="43.530163" lon="12.9880366"><ele>174.0</ele><time>2026-04-19T11:46:38.999Z</time></trkpt><trkpt lat="43.5300564" lon="12.9878447"><ele>174.0</ele><time>2026-04-19T11:46:39.996Z</time></trkpt><trkpt lat="43.529956" lon="12.9876734"><ele>174.0</ele><time>2026-04-19T11:46:40.99Z</time></trkpt><trkpt lat="43.5298691" lon="12.9875266"><ele>174.0</ele><time>2026-04-19T11:46:42Z</time></trkpt><trkpt lat="43.5297908" lon="12.9874011"><ele>174.0</ele><time>2026-04-19T11:46:42.998Z</time></trkpt><trkpt lat="43.5297185" lon="12.9872892"><ele>174.6</ele><time>2026-04-19T11:46:44Z</time></trkpt><trkpt lat="43.5296496" lon="12.9871912"><ele>175.2</ele><time>2026-04-19T11:46:44.998Z</time></trkpt><trkpt lat="43.5295799" lon="12.9870915"><ele>175.79999999999998</ele><time>2026-04-19T11:46:45.997Z</time></trkpt><trkpt lat="43.529502" lon="12.9869815"><ele>176.39999999999998</ele><time>2026-04-19T11:46:46.994Z</time></trkpt><trkpt lat="43.5294217" lon="12.9868588"><ele>177.0</ele><time>2026-04-19T11:46:48Z</time></trkpt><trkpt lat="43.5293448" lon="12.9867237"><ele>176.25</ele><time>2026-04-19T11:46:49Z</time></trkpt><trkpt lat="43.5292701" lon="12.9865654"><ele>175.5</ele><time>2026-04-19T11:46:49.993Z</time></trkpt><trkpt lat="43.5291958" lon="12.9864032"><ele>174.75</ele><time>2026-04-19T11:46:50.992Z</time></trkpt><trkpt lat="43.5291198" lon="12.9862331"><ele>174.0</ele><time>2026-04-19T11:46:51.999Z</time></trkpt><trkpt lat="43.5290432" lon="12.9860613"><ele>174.0</ele><time>2026-04-19T11:46:52.991Z</time></trkpt><trkpt lat="43.5289644" lon="12.985885"><ele>174.0</ele><time>2026-04-19T11:46:53.991Z</time></trkpt><trkpt lat="43.5288888" lon="12.9857046"><ele>174.0</ele><time>2026-04-19T11:46:54.993Z</time></trkpt><trkpt lat="43.5288071" lon="12.9855204"><ele>174.66666666666666</ele><time>2026-04-19T11:46:55.991Z</time></trkpt><trkpt lat="43.5287263" lon="12.985345"><ele>175.33333333333331</ele><time>2026-04-19T11:46:56.99Z</time></trkpt><trkpt lat="43.5286428" lon="12.9851651"><ele>176.0</ele><time>2026-04-19T11:46:57.988Z</time></trkpt><trkpt lat="43.5285604" lon="12.9849855"><ele>177.66666666666666</ele><time>2026-04-19T11:46:58.996Z</time></trkpt><trkpt lat="43.5284782" lon="12.9848097"><ele>179.33333333333334</ele><time>2026-04-19T11:46:59.994Z</time></trkpt><trkpt lat="43.5283912" lon="12.984635"><ele>181.0</ele><time>2026-04-19T11:47:00.995Z</time></trkpt><trkpt lat="43.528308" lon="12.984463"><ele>181.0</ele><time>2026-04-19T11:47:01.999Z</time></trkpt><trkpt lat="43.5282227" lon="12.9842935"><ele>181.0</ele><time>2026-04-19T11:47:02.995Z</time></trkpt><trkpt lat="43.5281494" lon="12.9841332"><ele>181.0</ele><time>2026-04-19T11:47:03.998Z</time></trkpt><trkpt lat="43.5280627" lon="12.983956"><ele>181.0</ele><time>2026-04-19T11:47:04.992Z</time></trkpt><trkpt lat="43.5279741" lon="12.9837757"><ele>181.33333333333334</ele><time>2026-04-19T11:47:05.993Z</time></trkpt><trkpt lat="43.5278843" lon="12.9835908"><ele>181.66666666666666</ele><time>2026-04-19T11:47:06.993Z</time></trkpt><trkpt lat="43.5277992" lon="12.9834147"><ele>182.0</ele><time>2026-04-19T11:47:07.992Z</time></trkpt><trkpt lat="43.5277178" lon="12.9832378"><ele>183.66666666666666</ele><time>2026-04-19T11:47:08.998Z</time></trkpt><trkpt lat="43.5276315" lon="12.9830566"><ele>185.33333333333334</ele><time>2026-04-19T11:47:09.997Z</time></trkpt><trkpt lat="43.5275456" lon="12.9828711"><ele>187.0</ele><time>2026-04-19T11:47:11Z</time></trkpt><trkpt lat="43.5274625" lon="12.9826893"><ele>187.0</ele><time>2026-04-19T11:47:11.986Z</time></trkpt><trkpt lat="43.5273758" lon="12.98251"><ele>187.0</ele><time>2026-04-19T11:47:12.995Z</time></trkpt><trkpt lat="43.5272942" lon="12.9823305"><ele>187.0</ele><time>2026-04-19T11:47:13.993Z</time></trkpt><trkpt lat="43.5272084" lon="12.9821636"><ele>187.0</ele><time>2026-04-19T11:47:14.999Z</time></trkpt><trkpt lat="43.5271237" lon="12.9820123"><ele>187.0</ele><time>2026-04-19T11:47:15.994Z</time></trkpt><trkpt lat="43.5270375" lon="12.9818848"><ele>187.0</ele><time>2026-04-19T11:47:17Z</time></trkpt><trkpt lat="43.5269512" lon="12.9817694"><ele>187.0</ele><time>2026-04-19T11:47:17.997Z</time></trkpt><trkpt lat="43.5268693" lon="12.9816568"><ele>187.5</ele><time>2026-04-19T11:47:18.994Z</time></trkpt><trkpt lat="43.5267856" lon="12.9815512"><ele>188.0</ele><time>2026-04-19T11:47:19.997Z</time></trkpt><trkpt lat="43.5266941" lon="12.9814296"><ele>188.5</ele><time>2026-04-19T11:47:20.995Z</time></trkpt><trkpt lat="43.5265962" lon="12.9813018"><ele>189.0</ele><time>2026-04-19T11:47:21.997Z</time></trkpt><trkpt lat="43.526484" lon="12.9811498"><ele>189.0</ele><time>2026-04-19T11:47:23Z</time></trkpt><trkpt lat="43.5263623" lon="12.9809948"><ele>189.0</ele><time>2026-04-19T11:47:23.992Z</time></trkpt><trkpt lat="43.5262414" lon="12.9808253"><ele>189.0</ele><time>2026-04-19T11:47:24.994Z</time></trkpt><trkpt lat="43.5261115" lon="12.9806645"><ele>188.66666666666666</ele><time>2026-04-19T11:47:25.992Z</time></trkpt><trkpt lat="43.5259865" lon="12.9805112"><ele>188.33333333333331</ele><time>2026-04-19T11:47:26.996Z</time></trkpt><trkpt lat="43.5258541" lon="12.9803409"><ele>188.0</ele><time>2026-04-19T11:47:27.994Z</time></trkpt><trkpt lat="43.5257225" lon="12.9801725"><ele>188.33333333333331</ele><time>2026-04-19T11:47:28.992Z</time></trkpt><trkpt lat="43.5255905" lon="12.9800065"><ele>188.66666666666666</ele><time>2026-04-19T11:47:29.993Z</time></trkpt><trkpt lat="43.5254624" lon="12.9798514"><ele>189.0</ele><time>2026-04-19T11:47:30.994Z</time></trkpt><trkpt lat="43.525334" lon="12.9796995"><ele>189.33333333333334</ele><time>2026-04-19T11:47:32Z</time></trkpt><trkpt lat="43.5252076" lon="12.9795456"><ele>189.66666666666669</ele><time>2026-04-19T11:47:32.993Z</time></trkpt><trkpt lat="43.5250872" lon="12.9793962"><ele>190.0</ele><time>2026-04-19T11:47:34Z</time></trkpt><trkpt lat="43.5249619" lon="12.9792512"><ele>189.66666666666669</ele><time>2026-04-19T11:47:34.995Z</time></trkpt><trkpt lat="43.5248296" lon="12.9790951"><ele>189.33333333333334</ele><time>2026-04-19T11:47:35.995Z</time></trkpt><trkpt lat="43.5246913" lon="12.9789352"><ele>189.0</ele><time>2026-04-19T11:47:36.988Z</time></trkpt><trkpt lat="43.5245554" lon="12.9787691"><ele>189.0</ele><time>2026-04-19T11:47:37.991Z</time></trkpt><trkpt lat="43.5244141" lon="12.9785987"><ele>189.0</ele><time>2026-04-19T11:47:39Z</time></trkpt><trkpt lat="43.5242726" lon="12.9784317"><ele>189.0</ele><time>2026-04-19T11:47:39.997Z</time></trkpt><trkpt lat="43.5241276" lon="12.9782618"><ele>189.33333333333334</ele><time>2026-04-19T11:47:40.99Z</time></trkpt><trkpt lat="43.5239813" lon="12.978086"><ele>189.66666666666669</ele><time>2026-04-19T11:47:41.989Z</time></trkpt><trkpt lat="43.5238405" lon="12.97792"><ele>190.0</ele><time>2026-04-19T11:47:42.99Z</time></trkpt><trkpt lat="43.5236998" lon="12.9777492"><ele>190.0</ele><time>2026-04-19T11:47:43.993Z</time></trkpt><trkpt lat="43.5235553" lon="12.977579"><ele>190.0</ele><time>2026-04-19T11:47:45Z</time></trkpt><trkpt lat="43.5234151" lon="12.9774096"><ele>190.0</ele><time>2026-04-19T11:47:45.997Z</time></trkpt><trkpt lat="43.5232727" lon="12.9772409"><ele>190.0</ele><time>2026-04-19T11:47:46.997Z</time></trkpt><trkpt lat="43.5231319" lon="12.9770809"><ele>190.0</ele><time>2026-04-19T11:47:47.989Z</time></trkpt><trkpt lat="43.5229905" lon="12.9769114"><ele>190.0</ele><time>2026-04-19T11:47:48.997Z</time></trkpt><trkpt lat="43.5228457" lon="12.9767506"><ele>191.0</ele><time>2026-04-19T11:47:50Z</time></trkpt><trkpt lat="43.5227004" lon="12.976588"><ele>192.0</ele><time>2026-04-19T11:47:50.989Z</time></trkpt><trkpt lat="43.5225622" lon="12.9764208"><ele>193.0</ele><time>2026-04-19T11:47:51.994Z</time></trkpt><trkpt lat="43.5224216" lon="12.9762588"><ele>193.0</ele><time>2026-04-19T11:47:52.994Z</time></trkpt><trkpt lat="43.5222863" lon="12.9761035"><ele>193.0</ele><time>2026-04-19T11:47:53.992Z</time></trkpt><trkpt lat="43.5221484" lon="12.975943"><ele>193.0</ele><time>2026-04-19T11:47:54.994Z</time></trkpt><trkpt lat="43.522012" lon="12.9757764"><ele>193.0</ele><time>2026-04-19T11:47:55.999Z</time></trkpt><trkpt lat="43.5218761" lon="12.9756114"><ele>193.0</ele><time>2026-04-19T11:47:56.991Z</time></trkpt><trkpt lat="43.5217346" lon="12.9754451"><ele>193.0</ele><time>2026-04-19T11:47:57.993Z</time></trkpt><trkpt lat="43.5215932" lon="12.9752744"><ele>193.0</ele><time>2026-04-19T11:47:58.995Z</time></trkpt><trkpt lat="43.5214484" lon="12.9751142"><ele>193.0</ele><time>2026-04-19T11:47:59.995Z</time></trkpt><trkpt lat="43.5213056" lon="12.974951"><ele>193.0</ele><time>2026-04-19T11:48:00.997Z</time></trkpt><trkpt lat="43.5211613" lon="12.9747925"><ele>193.66666666666666</ele><time>2026-04-19T11:48:01.995Z</time></trkpt><trkpt lat="43.5210229" lon="12.9746464"><ele>194.33333333333331</ele><time>2026-04-19T11:48:02.996Z</time></trkpt><trkpt lat="43.5208841" lon="12.9744949"><ele>195.0</ele><time>2026-04-19T11:48:03.999Z</time></trkpt><trkpt lat="43.5207407" lon="12.9743473"><ele>195.0</ele><time>2026-04-19T11:48:04.989Z</time></trkpt><trkpt lat="43.5205979" lon="12.9742046"><ele>195.0</ele><time>2026-04-19T11:48:05.995Z</time></trkpt><trkpt lat="43.5204518" lon="12.9740527"><ele>195.0</ele><time>2026-04-19T11:48:07Z</time></trkpt><trkpt lat="43.5203019" lon="12.9739059"><ele>197.0</ele><time>2026-04-19T11:48:07.992Z</time></trkpt><trkpt lat="43.5201515" lon="12.9737595"><ele>199.0</ele><time>2026-04-19T11:48:09Z</time></trkpt><trkpt lat="43.5200072" lon="12.9735995"><ele>201.0</ele><time>2026-04-19T11:48:09.996Z</time></trkpt><trkpt lat="43.5198737" lon="12.9734435"><ele>201.0</ele><time>2026-04-19T11:48:11Z</time></trkpt><trkpt lat="43.5197413" lon="12.9732693"><ele>201.0</ele><time>2026-04-19T11:48:11.99Z</time></trkpt><trkpt lat="43.5196091" lon="12.9730927"><ele>201.0</ele><time>2026-04-19T11:48:12.993Z</time></trkpt><trkpt lat="43.5194723" lon="12.9729183"><ele>201.0</ele><time>2026-04-19T11:48:13.993Z</time></trkpt><trkpt lat="43.5193258" lon="12.9727434"><ele>201.0</ele><time>2026-04-19T11:48:14.989Z</time></trkpt><trkpt lat="43.519178" lon="12.9725726"><ele>201.0</ele><time>2026-04-19T11:48:16Z</time></trkpt><trkpt lat="43.5190237" lon="12.9724009"><ele>200.66666666666669</ele><time>2026-04-19T11:48:17Z</time></trkpt><trkpt lat="43.5188671" lon="12.9722371"><ele>200.33333333333334</ele><time>2026-04-19T11:48:17.993Z</time></trkpt><trkpt lat="43.5187172" lon="12.9720723"><ele>200.0</ele><time>2026-04-19T11:48:18.994Z</time></trkpt><trkpt lat="43.5185656" lon="12.9719163"><ele>200.0</ele><time>2026-04-19T11:48:19.993Z</time></trkpt><trkpt lat="43.5184256" lon="12.971762"><ele>200.0</ele><time>2026-04-19T11:48:20.994Z</time></trkpt><trkpt lat="43.5182784" lon="12.9716241"><ele>200.0</ele><time>2026-04-19T11:48:21.995Z</time></trkpt><trkpt lat="43.5181386" lon="12.9714817"><ele>202.0</ele><time>2026-04-19T11:48:22.999Z</time></trkpt><trkpt lat="43.5179969" lon="12.9713296"><ele>204.0</ele><time>2026-04-19T11:48:24Z</time></trkpt><trkpt lat="43.5178564" lon="12.971183"><ele>206.0</ele><time>2026-04-19T11:48:24.991Z</time></trkpt><trkpt lat="43.5177123" lon="12.9710311"><ele>206.0</ele><time>2026-04-19T11:48:26Z</time></trkpt><trkpt lat="43.5175686" lon="12.9708802"><ele>206.0</ele><time>2026-04-19T11:48:26.994Z</time></trkpt><trkpt lat="43.5174312" lon="12.970732"><ele>206.0</ele><time>2026-04-19T11:48:28.003Z</time></trkpt><trkpt lat="43.5172961" lon="12.9705858"><ele>207.0</ele><time>2026-04-19T11:48:28.999Z</time></trkpt><trkpt lat="43.5171559" lon="12.9704249"><ele>208.0</ele><time>2026-04-19T11:48:29.996Z</time></trkpt><trkpt lat="43.517013" lon="12.9702767"><ele>209.0</ele><time>2026-04-19T11:48:30.994Z</time></trkpt><trkpt lat="43.5168816" lon="12.9701183"><ele>211.0</ele><time>2026-04-19T11:48:31.997Z</time></trkpt><trkpt lat="43.5167465" lon="12.9699621"><ele>213.0</ele><time>2026-04-19T11:48:33Z</time></trkpt><trkpt lat="43.5166136" lon="12.9698018"><ele>215.0</ele><time>2026-04-19T11:48:33.993Z</time></trkpt><trkpt lat="43.5164774" lon="12.9696348"><ele>215.0</ele><time>2026-04-19T11:48:34.99Z</time></trkpt><trkpt lat="43.5163366" lon="12.9694558"><ele>215.0</ele><time>2026-04-19T11:48:35.996Z</time></trkpt><trkpt lat="43.5161977" lon="12.9692749"><ele>215.0</ele><time>2026-04-19T11:48:37Z</time></trkpt><trkpt lat="43.5160623" lon="12.9691024"><ele>215.33333333333334</ele><time>2026-04-19T11:48:37.993Z</time></trkpt><trkpt lat="43.5159253" lon="12.9689242"><ele>215.66666666666669</ele><time>2026-04-19T11:48:38.991Z</time></trkpt><trkpt lat="43.5157933" lon="12.9687541"><ele>216.0</ele><time>2026-04-19T11:48:39.993Z</time></trkpt><trkpt lat="43.515665" lon="12.9685842"><ele>216.0</ele><time>2026-04-19T11:48:40.994Z</time></trkpt><trkpt lat="43.5155416" lon="12.9684072"><ele>216.0</ele><time>2026-04-19T11:48:42Z</time></trkpt><trkpt lat="43.5154255" lon="12.9682287"><ele>216.0</ele><time>2026-04-19T11:48:42.999Z</time></trkpt><trkpt lat="43.5153086" lon="12.9680396"><ele>218.0</ele><time>2026-04-19T11:48:44Z</time></trkpt><trkpt lat="43.5151873" lon="12.9678356"><ele>220.0</ele><time>2026-04-19T11:48:44.994Z</time></trkpt><trkpt lat="43.5150787" lon="12.9676291"><ele>222.0</ele><time>2026-04-19T11:48:46Z</time></trkpt><trkpt lat="43.5149686" lon="12.9674139"><ele>224.33333333333331</ele><time>2026-04-19T11:48:46.992Z</time></trkpt><trkpt lat="43.5148625" lon="12.9671909"><ele>226.66666666666666</ele><time>2026-04-19T11:48:47.994Z</time></trkpt><trkpt lat="43.5147625" lon="12.9669799"><ele>229.0</ele><time>2026-04-19T11:48:49Z</time></trkpt><trkpt lat="43.5146669" lon="12.9667874"><ele>229.39999999999998</ele><time>2026-04-19T11:48:49.995Z</time></trkpt><trkpt lat="43.5145949" lon="12.9666372"><ele>229.79999999999998</ele><time>2026-04-19T11:48:50.994Z</time></trkpt><trkpt lat="43.5145267" lon="12.9665484"><ele>230.20000000000002</ele><time>2026-04-19T11:48:52.989Z</time></trkpt><trkpt lat="43.5144614" lon="12.9666382"><ele>230.60000000000002</ele><time>2026-04-19T11:48:55.994Z</time></trkpt><trkpt lat="43.5144117" lon="12.9667284"><ele>231.0</ele><time>2026-04-19T11:48:57.996Z</time></trkpt><trkpt lat="43.5143456" lon="12.9668012"><ele>230.20000000000002</ele><time>2026-04-19T11:48:59.989Z</time></trkpt><trkpt lat="43.5142642" lon="12.9668843"><ele>229.40000000000003</ele><time>2026-04-19T11:49:01.993Z</time></trkpt><trkpt lat="43.514172" lon="12.9669743"><ele>228.6</ele><time>2026-04-19T11:49:03.997Z</time></trkpt><trkpt lat="43.5140756" lon="12.9670371"><ele>227.8</ele><time>2026-04-19T11:49:05.996Z</time></trkpt><trkpt lat="43.5140071" lon="12.9671102"><ele>227.0</ele><time>2026-04-19T11:49:07.995Z</time></trkpt><trkpt lat="43.5139342" lon="12.9671756"><ele>227.0</ele><time>2026-04-19T11:49:09.992Z</time></trkpt><trkpt lat="43.5138524" lon="12.9672333"><ele>227.0</ele><time>2026-04-19T11:49:11.991Z</time></trkpt><trkpt lat="43.5137717" lon="12.9673288"><ele>227.0</ele><time>2026-04-19T11:49:13.992Z</time></trkpt><trkpt lat="43.5136856" lon="12.9674386"><ele>227.0</ele><time>2026-04-19T11:49:15.997Z</time></trkpt><trkpt lat="43.513644" lon="12.9675074"><ele>227.0</ele><time>2026-04-19T11:49:17Z</time></trkpt><trkpt lat="43.5135967" lon="12.9675798"><ele>225.6</ele><time>2026-04-19T11:49:17.991Z</time></trkpt><trkpt lat="43.5135245" lon="12.9677026"><ele>224.2</ele><time>2026-04-19T11:49:19.994Z</time></trkpt><trkpt lat="43.5134653" lon="12.9678336"><ele>222.8</ele><time>2026-04-19T11:49:21.992Z</time></trkpt><trkpt lat="43.5134326" lon="12.96792"><ele>221.4</ele><time>2026-04-19T11:49:22.988Z</time></trkpt><trkpt lat="43.5133969" lon="12.9680771"><ele>220.0</ele><time>2026-04-19T11:49:24.999Z</time></trkpt><trkpt lat="43.5133828" lon="12.9681617"><ele>220.0</ele><time>2026-04-19T11:49:25.998Z</time></trkpt><trkpt lat="43.5133744" lon="12.9682544"><ele>220.0</ele><time>2026-04-19T11:49:26.992Z</time></trkpt><trkpt lat="43.5133614" lon="12.9684268"><ele>220.0</ele><time>2026-04-19T11:49:28.993Z</time></trkpt><trkpt lat="43.5133678" lon="12.9685953"><ele>220.0</ele><time>2026-04-19T11:49:30.992Z</time></trkpt><trkpt lat="43.5133774" lon="12.968759"><ele>220.0</ele><time>2026-04-19T11:49:32.994Z</time></trkpt><trkpt lat="43.5133825" lon="12.9688894"><ele>219.42857142857142</ele><time>2026-04-19T11:49:34.991Z</time></trkpt><trkpt lat="43.5133922" lon="12.9689897"><ele>218.85714285714286</ele><time>2026-04-19T11:49:36.99Z</time></trkpt><trkpt lat="43.5134173" lon="12.9691163"><ele>218.28571428571428</ele><time>2026-04-19T11:49:39.993Z</time></trkpt><trkpt lat="43.5134374" lon="12.9692135"><ele>217.71428571428572</ele><time>2026-04-19T11:49:42.997Z</time></trkpt><trkpt lat="43.5134424" lon="12.9693083"><ele>217.14285714285714</ele><time>2026-04-19T11:49:44.992Z</time></trkpt><trkpt lat="43.5134371" lon="12.9693998"><ele>216.57142857142856</ele><time>2026-04-19T11:49:46.993Z</time></trkpt><trkpt lat="43.5134382" lon="12.9694888"><ele>216.0</ele><time>2026-04-19T11:49:49.989Z</time></trkpt><trkpt lat="43.5134609" lon="12.9693907"><ele>216.0</ele><time>2026-04-19T11:50:02.989Z</time></trkpt><trkpt lat="43.5134483" lon="12.9692878"><ele>216.0</ele><time>2026-04-19T11:50:05.989Z</time></trkpt><trkpt lat="43.5134349" lon="12.9692022"><ele>216.0</ele><time>2026-04-19T11:50:07.989Z</time></trkpt><trkpt lat="43.5134241" lon="12.9691004"><ele>216.0</ele><time>2026-04-19T11:50:09.99Z</time></trkpt><trkpt lat="43.5134025" lon="12.9689818"><ele>216.0</ele><time>2026-04-19T11:50:11.993Z</time></trkpt><trkpt lat="43.5133671" lon="12.9688284"><ele>216.0</ele><time>2026-04-19T11:50:13.993Z</time></trkpt><trkpt lat="43.5133716" lon="12.9686719"><ele>216.0</ele><time>2026-04-19T11:50:16Z</time></trkpt><trkpt lat="43.5133685" lon="12.9685827"><ele>216.00000000000003</ele><time>2026-04-19T11:50:16.997Z</time></trkpt><trkpt lat="43.5133649" lon="12.9684178"><ele>216.00000000000003</ele><time>2026-04-19T11:50:18.987Z</time></trkpt><trkpt lat="43.5133711" lon="12.9682545"><ele>216.0</ele><time>2026-04-19T11:50:20.997Z</time></trkpt><trkpt lat="43.5133734" lon="12.9681641"><ele>216.0</ele><time>2026-04-19T11:50:21.994Z</time></trkpt><trkpt lat="43.5133973" lon="12.9679867"><ele>216.57142857142856</ele><time>2026-04-19T11:50:24Z</time></trkpt><trkpt lat="43.5134228" lon="12.9678962"><ele>217.14285714285714</ele><time>2026-04-19T11:50:25Z</time></trkpt><trkpt lat="43.5134538" lon="12.9678123"><ele>217.71428571428572</ele><time>2026-04-19T11:50:25.992Z</time></trkpt><trkpt lat="43.5134845" lon="12.9677354"><ele>218.28571428571428</ele><time>2026-04-19T11:50:26.986Z</time></trkpt><trkpt lat="43.5135205" lon="12.967659"><ele>218.85714285714286</ele><time>2026-04-19T11:50:27.997Z</time></trkpt><trkpt lat="43.5135599" lon="12.9675872"><ele>219.42857142857142</ele><time>2026-04-19T11:50:29Z</time></trkpt><trkpt lat="43.513602" lon="12.9675169"><ele>220.0</ele><time>2026-04-19T11:50:29.989Z</time></trkpt><trkpt lat="43.5136903" lon="12.9674199"><ele>220.28571428571428</ele><time>2026-04-19T11:50:32Z</time></trkpt><trkpt lat="43.5137382" lon="12.9673578"><ele>220.57142857142856</ele><time>2026-04-19T11:50:32.997Z</time></trkpt><trkpt lat="43.5137919" lon="12.9672989"><ele>220.85714285714283</ele><time>2026-04-19T11:50:33.991Z</time></trkpt><trkpt lat="43.5138499" lon="12.9672418"><ele>221.14285714285714</ele><time>2026-04-19T11:50:34.988Z</time></trkpt><trkpt lat="43.5139164" lon="12.9671808"><ele>221.42857142857144</ele><time>2026-04-19T11:50:35.991Z</time></trkpt><trkpt lat="43.5139763" lon="12.9671265"><ele>221.7142857142857</ele><time>2026-04-19T11:50:36.992Z</time></trkpt><trkpt lat="43.5140398" lon="12.9670746"><ele>222.0</ele><time>2026-04-19T11:50:37.994Z</time></trkpt><trkpt lat="43.5140964" lon="12.9670273"><ele>222.83333333333334</ele><time>2026-04-19T11:50:38.997Z</time></trkpt><trkpt lat="43.5141522" lon="12.966979"><ele>223.66666666666669</ele><time>2026-04-19T11:50:39.995Z</time></trkpt><trkpt lat="43.5142093" lon="12.9669348"><ele>224.5</ele><time>2026-04-19T11:50:40.993Z</time></trkpt><trkpt lat="43.5142649" lon="12.9668903"><ele>225.33333333333334</ele><time>2026-04-19T11:50:41.995Z</time></trkpt><trkpt lat="43.5143635" lon="12.9668"><ele>226.16666666666669</ele><time>2026-04-19T11:50:43.994Z</time></trkpt><trkpt lat="43.5144337" lon="12.9667392"><ele>227.0</ele><time>2026-04-19T11:50:45.996Z</time></trkpt><trkpt lat="43.5144806" lon="12.9666533"><ele>227.8</ele><time>2026-04-19T11:54:52.991Z</time></trkpt><trkpt lat="43.5145307" lon="12.96658"><ele>228.6</ele><time>2026-04-19T11:54:58.989Z</time></trkpt><trkpt lat="43.51452" lon="12.9664875"><ele>229.40000000000003</ele><time>2026-04-19T11:55:00.992Z</time></trkpt><trkpt lat="43.5144186" lon="12.9663428"><ele>230.20000000000002</ele><time>2026-04-19T11:55:02.984Z</time></trkpt><trkpt lat="43.5143631" lon="12.9662232"><ele>231.0</ele><time>2026-04-19T11:55:03.992Z</time></trkpt><trkpt lat="43.5143019" lon="12.9660917"><ele>231.0</ele><time>2026-04-19T11:55:04.991Z</time></trkpt><trkpt lat="43.5142328" lon="12.9659445"><ele>231.0</ele><time>2026-04-19T11:55:05.989Z</time></trkpt><trkpt lat="43.5141643" lon="12.9657961"><ele>231.0</ele><time>2026-04-19T11:55:06.991Z</time></trkpt><trkpt lat="43.5140881" lon="12.9656342"><ele>231.0</ele><time>2026-04-19T11:55:07.989Z</time></trkpt><trkpt lat="43.5140178" lon="12.9654749"><ele>231.25</ele><time>2026-04-19T11:55:08.992Z</time></trkpt><trkpt lat="43.5139428" lon="12.9653125"><ele>231.5</ele><time>2026-04-19T11:55:09.995Z</time></trkpt><trkpt lat="43.5138638" lon="12.9651308"><ele>231.75</ele><time>2026-04-19T11:55:10.994Z</time></trkpt><trkpt lat="43.5137872" lon="12.9649667"><ele>232.0</ele><time>2026-04-19T11:55:11.997Z</time></trkpt><trkpt lat="43.5137002" lon="12.9647825"><ele>232.0</ele><time>2026-04-19T11:55:12.993Z</time></trkpt><trkpt lat="43.5136208" lon="12.9646095"><ele>232.0</ele><time>2026-04-19T11:55:13.99Z</time></trkpt><trkpt lat="43.5135439" lon="12.9644373"><ele>232.0</ele><time>2026-04-19T11:55:14.999Z</time></trkpt><trkpt lat="43.5134639" lon="12.9642619"><ele>232.0</ele><time>2026-04-19T11:55:15.996Z</time></trkpt><trkpt lat="43.5133786" lon="12.9640955"><ele>235.33333333333331</ele><time>2026-04-19T11:55:16.995Z</time></trkpt><trkpt lat="43.5132954" lon="12.9639187"><ele>238.66666666666669</ele><time>2026-04-19T11:55:17.997Z</time></trkpt><trkpt lat="43.5132138" lon="12.9637239"><ele>242.0</ele><time>2026-04-19T11:55:18.998Z</time></trkpt><trkpt lat="43.5131271" lon="12.9635404"><ele>241.33333333333334</ele><time>2026-04-19T11:55:19.986Z</time></trkpt><trkpt lat="43.5130373" lon="12.9633488"><ele>240.66666666666669</ele><time>2026-04-19T11:55:20.99Z</time></trkpt><trkpt lat="43.5129464" lon="12.9631552"><ele>240.0</ele><time>2026-04-19T11:55:21.989Z</time></trkpt><trkpt lat="43.5128579" lon="12.9629638"><ele>240.0</ele><time>2026-04-19T11:55:22.99Z</time></trkpt><trkpt lat="43.5127708" lon="12.9627633"><ele>240.0</ele><time>2026-04-19T11:55:23.993Z</time></trkpt><trkpt lat="43.51268" lon="12.9625592"><ele>240.0</ele><time>2026-04-19T11:55:24.993Z</time></trkpt><trkpt lat="43.5125899" lon="12.962363"><ele>242.33333333333331</ele><time>2026-04-19T11:55:25.994Z</time></trkpt><trkpt lat="43.5124994" lon="12.9621431"><ele>244.66666666666666</ele><time>2026-04-19T11:55:26.988Z</time></trkpt><trkpt lat="43.5124022" lon="12.9619209"><ele>247.0</ele><time>2026-04-19T11:55:27.995Z</time></trkpt><trkpt lat="43.5123045" lon="12.9617045"><ele>245.66666666666666</ele><time>2026-04-19T11:55:28.987Z</time></trkpt><trkpt lat="43.5122036" lon="12.9614886"><ele>244.33333333333331</ele><time>2026-04-19T11:55:30Z</time></trkpt><trkpt lat="43.5121037" lon="12.9612814"><ele>243.0</ele><time>2026-04-19T11:55:30.993Z</time></trkpt><trkpt lat="43.512003" lon="12.9610828"><ele>243.0</ele><time>2026-04-19T11:55:31.991Z</time></trkpt><trkpt lat="43.511906" lon="12.9608774"><ele>243.0</ele><time>2026-04-19T11:55:32.995Z</time></trkpt><trkpt lat="43.5118062" lon="12.9606755"><ele>243.0</ele><time>2026-04-19T11:55:33.988Z</time></trkpt><trkpt lat="43.5117144" lon="12.9604646"><ele>244.66666666666669</ele><time>2026-04-19T11:55:34.998Z</time></trkpt><trkpt lat="43.5116276" lon="12.960243"><ele>246.33333333333334</ele><time>2026-04-19T11:55:35.988Z</time></trkpt><trkpt lat="43.5115496" lon="12.9600217"><ele>248.0</ele><time>2026-04-19T11:55:36.992Z</time></trkpt><trkpt lat="43.511473" lon="12.9597953"><ele>251.0</ele><time>2026-04-19T11:55:37.989Z</time></trkpt><trkpt lat="43.5113974" lon="12.9595703"><ele>254.0</ele><time>2026-04-19T11:55:38.988Z</time></trkpt><trkpt lat="43.5113125" lon="12.9593533"><ele>257.0</ele><time>2026-04-19T11:55:39.992Z</time></trkpt><trkpt lat="43.5112389" lon="12.9591438"><ele>257.0</ele><time>2026-04-19T11:55:40.991Z</time></trkpt><trkpt lat="43.5111594" lon="12.9589251"><ele>257.0</ele><time>2026-04-19T11:55:41.997Z</time></trkpt><trkpt lat="43.5110736" lon="12.9587095"><ele>257.0</ele><time>2026-04-19T11:55:42.989Z</time></trkpt><trkpt lat="43.5109692" lon="12.9584935"><ele>259.33333333333337</ele><time>2026-04-19T11:55:43.991Z</time></trkpt><trkpt lat="43.5108554" lon="12.958297"><ele>261.6666666666667</ele><time>2026-04-19T11:55:44.995Z</time></trkpt><trkpt lat="43.5107368" lon="12.9580995"><ele>264.0</ele><time>2026-04-19T11:55:45.989Z</time></trkpt><trkpt lat="43.5106092" lon="12.9579103"><ele>264.0</ele><time>2026-04-19T11:55:46.994Z</time></trkpt><trkpt lat="43.5104797" lon="12.957723"><ele>264.0</ele><time>2026-04-19T11:55:47.988Z</time></trkpt><trkpt lat="43.5103518" lon="12.9575383"><ele>264.0</ele><time>2026-04-19T11:55:48.999Z</time></trkpt><trkpt lat="43.5102211" lon="12.957358"><ele>264.3333333333333</ele><time>2026-04-19T11:55:49.993Z</time></trkpt><trkpt lat="43.5100933" lon="12.957176"><ele>264.66666666666663</ele><time>2026-04-19T11:55:50.994Z</time></trkpt><trkpt lat="43.5099692" lon="12.9570043"><ele>265.0</ele><time>2026-04-19T11:55:51.991Z</time></trkpt><trkpt lat="43.5098407" lon="12.9568426"><ele>266.66666666666663</ele><time>2026-04-19T11:55:52.991Z</time></trkpt><trkpt lat="43.5097125" lon="12.9566887"><ele>268.3333333333333</ele><time>2026-04-19T11:55:53.992Z</time></trkpt><trkpt lat="43.5095937" lon="12.9565508"><ele>270.0</ele><time>2026-04-19T11:55:54.997Z</time></trkpt><trkpt lat="43.5094899" lon="12.9564164"><ele>270.0</ele><time>2026-04-19T11:55:55.995Z</time></trkpt><trkpt lat="43.509379" lon="12.9562969"><ele>270.0</ele><time>2026-04-19T11:55:56.991Z</time></trkpt><trkpt lat="43.5092766" lon="12.9561901"><ele>270.0</ele><time>2026-04-19T11:55:57.992Z</time></trkpt><trkpt lat="43.509173" lon="12.9560631"><ele>270.0</ele><time>2026-04-19T11:55:58.992Z</time></trkpt><trkpt lat="43.5090732" lon="12.9559409"><ele>271.2</ele><time>2026-04-19T11:55:59.991Z</time></trkpt><trkpt lat="43.5089862" lon="12.9558403"><ele>272.4</ele><time>2026-04-19T11:56:00.988Z</time></trkpt><trkpt lat="43.5089045" lon="12.9557467"><ele>273.6</ele><time>2026-04-19T11:56:01.999Z</time></trkpt><trkpt lat="43.5088241" lon="12.9556503"><ele>274.8</ele><time>2026-04-19T11:56:02.996Z</time></trkpt><trkpt lat="43.5087525" lon="12.9555702"><ele>276.0</ele><time>2026-04-19T11:56:03.989Z</time></trkpt><trkpt lat="43.5086827" lon="12.9554974"><ele>276.0</ele><time>2026-04-19T11:56:04.989Z</time></trkpt><trkpt lat="43.5086243" lon="12.9554319"><ele>276.0</ele><time>2026-04-19T11:56:05.994Z</time></trkpt><trkpt lat="43.5085601" lon="12.9553556"><ele>276.0</ele><time>2026-04-19T11:56:06.995Z</time></trkpt><trkpt lat="43.5084966" lon="12.9552797"><ele>276.0</ele><time>2026-04-19T11:56:07.992Z</time></trkpt><trkpt lat="43.5084187" lon="12.955203"><ele>276.0</ele><time>2026-04-19T11:56:08.994Z</time></trkpt><trkpt lat="43.5083382" lon="12.9551148"><ele>276.0</ele><time>2026-04-19T11:56:09.988Z</time></trkpt><trkpt lat="43.5082557" lon="12.9550283"><ele>279.25</ele><time>2026-04-19T11:56:10.992Z</time></trkpt><trkpt lat="43.5081642" lon="12.9549516"><ele>282.5</ele><time>2026-04-19T11:56:11.992Z</time></trkpt><trkpt lat="43.5080696" lon="12.9548653"><ele>285.75</ele><time>2026-04-19T11:56:13Z</time></trkpt><trkpt lat="43.5079758" lon="12.9547685"><ele>289.0</ele><time>2026-04-19T11:56:13.994Z</time></trkpt><trkpt lat="43.5078843" lon="12.9546686"><ele>289.0</ele><time>2026-04-19T11:56:14.996Z</time></trkpt><trkpt lat="43.5078043" lon="12.9545567"><ele>289.0</ele><time>2026-04-19T11:56:15.991Z</time></trkpt><trkpt lat="43.5077193" lon="12.9544601"><ele>289.0</ele><time>2026-04-19T11:56:16.988Z</time></trkpt><trkpt lat="43.5076583" lon="12.954326"><ele>289.0</ele><time>2026-04-19T11:56:17.989Z</time></trkpt><trkpt lat="43.5075915" lon="12.9541885"><ele>292.25</ele><time>2026-04-19T11:56:18.992Z</time></trkpt><trkpt lat="43.5075145" lon="12.9540265"><ele>295.5</ele><time>2026-04-19T11:56:19.989Z</time></trkpt><trkpt lat="43.5074326" lon="12.9538581"><ele>298.75</ele><time>2026-04-19T11:56:20.997Z</time></trkpt><trkpt lat="43.5073453" lon="12.9536839"><ele>302.0</ele><time>2026-04-19T11:56:21.999Z</time></trkpt><trkpt lat="43.5072479" lon="12.9535042"><ele>306.0</ele><time>2026-04-19T11:56:22.992Z</time></trkpt><trkpt lat="43.5071573" lon="12.9533257"><ele>310.0</ele><time>2026-04-19T11:56:23.989Z</time></trkpt><trkpt lat="43.507061" lon="12.9531443"><ele>314.0</ele><time>2026-04-19T11:56:24.987Z</time></trkpt><trkpt lat="43.5069615" lon="12.9529894"><ele>314.25</ele><time>2026-04-19T11:56:25.987Z</time></trkpt><trkpt lat="43.5068615" lon="12.9528376"><ele>314.5</ele><time>2026-04-19T11:56:26.996Z</time></trkpt><trkpt lat="43.5067541" lon="12.9526966"><ele>314.75</ele><time>2026-04-19T11:56:27.996Z</time></trkpt><trkpt lat="43.5066409" lon="12.9525647"><ele>315.0</ele><time>2026-04-19T11:56:28.998Z</time></trkpt><trkpt lat="43.5065162" lon="12.952462"><ele>317.25</ele><time>2026-04-19T11:56:29.993Z</time></trkpt><trkpt lat="43.5063949" lon="12.9523755"><ele>319.5</ele><time>2026-04-19T11:56:30.992Z</time></trkpt><trkpt lat="43.5062621" lon="12.9522921"><ele>321.75</ele><time>2026-04-19T11:56:31.992Z</time></trkpt><trkpt lat="43.5061394" lon="12.9521983"><ele>324.0</ele><time>2026-04-19T11:56:32.995Z</time></trkpt><trkpt lat="43.5060169" lon="12.9520982"><ele>325.0</ele><time>2026-04-19T11:56:33.993Z</time></trkpt><trkpt lat="43.5058966" lon="12.9519909"><ele>326.0</ele><time>2026-04-19T11:56:34.991Z</time></trkpt><trkpt lat="43.5057942" lon="12.9518879"><ele>327.0</ele><time>2026-04-19T11:56:35.999Z</time></trkpt><trkpt lat="43.5056928" lon="12.9517774"><ele>328.0</ele><time>2026-04-19T11:56:36.99Z</time></trkpt><trkpt lat="43.5055961" lon="12.9516576"><ele>328.75</ele><time>2026-04-19T11:56:37.999Z</time></trkpt><trkpt lat="43.5054956" lon="12.9515352"><ele>329.5</ele><time>2026-04-19T11:56:38.993Z</time></trkpt><trkpt lat="43.5053911" lon="12.951407"><ele>330.25</ele><time>2026-04-19T11:56:39.994Z</time></trkpt><trkpt lat="43.5052916" lon="12.9512841"><ele>331.0</ele><time>2026-04-19T11:56:40.99Z</time></trkpt><trkpt lat="43.505205" lon="12.9511694"><ele>331.0</ele><time>2026-04-19T11:56:41.991Z</time></trkpt><trkpt lat="43.505131" lon="12.9510614"><ele>331.0</ele><time>2026-04-19T11:56:42.997Z</time></trkpt><trkpt lat="43.5050689" lon="12.9509427"><ele>331.0</ele><time>2026-04-19T11:56:43.99Z</time></trkpt><trkpt lat="43.5050126" lon="12.9508117"><ele>331.0</ele><time>2026-04-19T11:56:44.989Z</time></trkpt><trkpt lat="43.5049607" lon="12.9506764"><ele>331.0</ele><time>2026-04-19T11:56:45.986Z</time></trkpt><trkpt lat="43.5049029" lon="12.9505402"><ele>335.0</ele><time>2026-04-19T11:56:46.991Z</time></trkpt><trkpt lat="43.5048479" lon="12.9503943"><ele>339.0</ele><time>2026-04-19T11:56:47.991Z</time></trkpt><trkpt lat="43.5047964" lon="12.950242"><ele>343.0</ele><time>2026-04-19T11:56:48.991Z</time></trkpt><trkpt lat="43.504759" lon="12.9500876"><ele>347.0</ele><time>2026-04-19T11:56:49.989Z</time></trkpt><trkpt lat="43.5047251" lon="12.9499226"><ele>348.25</ele><time>2026-04-19T11:56:50.99Z</time></trkpt><trkpt lat="43.5046975" lon="12.9497515"><ele>349.5</ele><time>2026-04-19T11:56:51.988Z</time></trkpt><trkpt lat="43.5046754" lon="12.9495813"><ele>350.75</ele><time>2026-04-19T11:56:52.995Z</time></trkpt><trkpt lat="43.5046575" lon="12.9494154"><ele>352.0</ele><time>2026-04-19T11:56:53.991Z</time></trkpt><trkpt lat="43.5046388" lon="12.9492606"><ele>352.0</ele><time>2026-04-19T11:56:54.985Z</time></trkpt><trkpt lat="43.5046015" lon="12.9491184"><ele>352.0</ele><time>2026-04-19T11:56:55.99Z</time></trkpt><trkpt lat="43.5045433" lon="12.9489859"><ele>352.0</ele><time>2026-04-19T11:56:56.992Z</time></trkpt><trkpt lat="43.50447" lon="12.9488663"><ele>352.0</ele><time>2026-04-19T11:56:57.994Z</time></trkpt><trkpt lat="43.5043941" lon="12.9487716"><ele>352.0</ele><time>2026-04-19T11:56:58.989Z</time></trkpt><trkpt lat="43.5043248" lon="12.9486983"><ele>352.0</ele><time>2026-04-19T11:56:59.993Z</time></trkpt><trkpt lat="43.504276" lon="12.9486383"><ele>352.0</ele><time>2026-04-19T11:57:00.988Z</time></trkpt><trkpt lat="43.5042526" lon="12.9485509"><ele>352.0</ele><time>2026-04-19T11:57:02.985Z</time></trkpt><trkpt lat="43.5043318" lon="12.948488"><ele>352.0</ele><time>2026-04-19T11:57:05.989Z</time></trkpt><trkpt lat="43.5044562" lon="12.9485298"><ele>352.0</ele><time>2026-04-19T11:57:07.992Z</time></trkpt><trkpt lat="43.5045267" lon="12.9485488"><ele>352.0</ele><time>2026-04-19T11:57:08.989Z</time></trkpt><trkpt lat="43.5045935" lon="12.9485423"><ele>352.6</ele><time>2026-04-19T11:57:09.989Z</time></trkpt><trkpt lat="43.5046667" lon="12.9484361"><ele>353.20000000000005</ele><time>2026-04-19T11:57:11.988Z</time></trkpt><trkpt lat="43.5046262" lon="12.9482997"><ele>353.8</ele><time>2026-04-19T11:57:13.986Z</time></trkpt><trkpt lat="43.5045077" lon="12.94828"><ele>354.4</ele><time>2026-04-19T11:57:15.991Z</time></trkpt><trkpt lat="43.5044311" lon="12.9483171"><ele>355.0</ele><time>2026-04-19T11:57:16.993Z</time></trkpt><trkpt lat="43.5043618" lon="12.948369"><ele>354.4</ele><time>2026-04-19T11:57:17.991Z</time></trkpt><trkpt lat="43.5042837" lon="12.9484179"><ele>353.8</ele><time>2026-04-19T11:57:18.99Z</time></trkpt><trkpt lat="43.5041937" lon="12.9484564"><ele>353.20000000000005</ele><time>2026-04-19T11:57:19.992Z</time></trkpt><trkpt lat="43.5041025" lon="12.9484892"><ele>352.6</ele><time>2026-04-19T11:57:20.994Z</time></trkpt><trkpt lat="43.5040087" lon="12.9485197"><ele>352.0</ele><time>2026-04-19T11:57:21.994Z</time></trkpt><trkpt lat="43.503911" lon="12.9485417"><ele>352.0</ele><time>2026-04-19T11:57:22.996Z</time></trkpt><trkpt lat="43.5038001" lon="12.9485371"><ele>352.0</ele><time>2026-04-19T11:57:23.999Z</time></trkpt><trkpt lat="43.5036836" lon="12.948553"><ele>352.0</ele><time>2026-04-19T11:57:24.994Z</time></trkpt><trkpt lat="43.5035541" lon="12.9485669"><ele>352.0</ele><time>2026-04-19T11:57:25.987Z</time></trkpt><trkpt lat="43.5034402" lon="12.9485736"><ele>351.5</ele><time>2026-04-19T11:57:26.99Z</time></trkpt><trkpt lat="43.5033432" lon="12.9485712"><ele>351.0</ele><time>2026-04-19T11:57:27.992Z</time></trkpt><trkpt lat="43.5032498" lon="12.9485711"><ele>350.5</ele><time>2026-04-19T11:57:28.993Z</time></trkpt><trkpt lat="43.5031698" lon="12.9485531"><ele>350.0</ele><time>2026-04-19T11:57:29.991Z</time></trkpt><trkpt lat="43.5031" lon="12.9485232"><ele>349.5</ele><time>2026-04-19T11:57:30.988Z</time></trkpt><trkpt lat="43.503038" lon="12.9484916"><ele>349.0</ele><time>2026-04-19T11:57:31.988Z</time></trkpt><trkpt lat="43.5029243" lon="12.9484399"><ele>348.0</ele><time>2026-04-19T11:57:33.988Z</time></trkpt><trkpt lat="43.5028626" lon="12.9484103"><ele>347.0</ele><time>2026-04-19T11:57:34.992Z</time></trkpt><trkpt lat="43.5027802" lon="12.9483954"><ele>346.0</ele><time>2026-04-19T11:57:35.991Z</time></trkpt><trkpt lat="43.5026787" lon="12.9483841"><ele>345.0</ele><time>2026-04-19T11:57:36.987Z</time></trkpt><trkpt lat="43.5025675" lon="12.9483771"><ele>344.0</ele><time>2026-04-19T11:57:37.986Z</time></trkpt><trkpt lat="43.5024414" lon="12.9483725"><ele>346.75</ele><time>2026-04-19T11:57:38.992Z</time></trkpt><trkpt lat="43.5023033" lon="12.9483641"><ele>349.5</ele><time>2026-04-19T11:57:39.989Z</time></trkpt><trkpt lat="43.5021689" lon="12.948348"><ele>352.25</ele><time>2026-04-19T11:57:40.987Z</time></trkpt><trkpt lat="43.5020435" lon="12.94834"><ele>355.0</ele><time>2026-04-19T11:57:41.989Z</time></trkpt><trkpt lat="43.5019123" lon="12.9483069"><ele>355.0</ele><time>2026-04-19T11:57:42.985Z</time></trkpt><trkpt lat="43.5017862" lon="12.9482484"><ele>355.0</ele><time>2026-04-19T11:57:43.992Z</time></trkpt><trkpt lat="43.5016534" lon="12.9481887"><ele>355.0</ele><time>2026-04-19T11:57:44.992Z</time></trkpt><trkpt lat="43.5015308" lon="12.9481141"><ele>355.0</ele><time>2026-04-19T11:57:45.99Z</time></trkpt><trkpt lat="43.5014235" lon="12.9480355"><ele>355.0</ele><time>2026-04-19T11:57:46.992Z</time></trkpt><trkpt lat="43.5013215" lon="12.9479668"><ele>355.0</ele><time>2026-04-19T11:57:47.992Z</time></trkpt><trkpt lat="43.5012192" lon="12.9478777"><ele>355.0</ele><time>2026-04-19T11:57:48.989Z</time></trkpt><trkpt lat="43.5011179" lon="12.9477812"><ele>355.0</ele><time>2026-04-19T11:57:49.99Z</time></trkpt><trkpt lat="43.5010231" lon="12.947672"><ele>354.25</ele><time>2026-04-19T11:57:50.988Z</time></trkpt><trkpt lat="43.5009181" lon="12.9475814"><ele>353.5</ele><time>2026-04-19T11:57:51.987Z</time></trkpt><trkpt lat="43.5008045" lon="12.9475037"><ele>352.75</ele><time>2026-04-19T11:57:52.994Z</time></trkpt><trkpt lat="43.5006922" lon="12.9474344"><ele>352.0</ele><time>2026-04-19T11:57:53.991Z</time></trkpt><trkpt lat="43.5006053" lon="12.9473629"><ele>353.0</ele><time>2026-04-19T11:57:54.989Z</time></trkpt><trkpt lat="43.500526" lon="12.9473012"><ele>354.0</ele><time>2026-04-19T11:57:55.988Z</time></trkpt><trkpt lat="43.5004448" lon="12.9472506"><ele>355.0</ele><time>2026-04-19T11:57:56.997Z</time></trkpt><trkpt lat="43.5003684" lon="12.9472261"><ele>356.0</ele><time>2026-04-19T11:57:57.993Z</time></trkpt><trkpt lat="43.5002906" lon="12.9472343"><ele>357.0</ele><time>2026-04-19T11:57:58.984Z</time></trkpt><trkpt lat="43.5002264" lon="12.9472394"><ele>358.0</ele><time>2026-04-19T11:57:59.991Z</time></trkpt><trkpt lat="43.5001535" lon="12.9472314"><ele>358.0</ele><time>2026-04-19T11:58:00.993Z</time></trkpt><trkpt lat="43.5000771" lon="12.9472121"><ele>358.0</ele><time>2026-04-19T11:58:01.985Z</time></trkpt><trkpt lat="43.5000048" lon="12.9471393"><ele>358.0</ele><time>2026-04-19T11:58:02.994Z</time></trkpt><trkpt lat="43.4999364" lon="12.9470537"><ele>358.0</ele><time>2026-04-19T11:58:03.982Z</time></trkpt><trkpt lat="43.4998741" lon="12.9469583"><ele>358.0</ele><time>2026-04-19T11:58:04.992Z</time></trkpt><trkpt lat="43.4998161" lon="12.9468509"><ele>358.0</ele><time>2026-04-19T11:58:05.989Z</time></trkpt><trkpt lat="43.499763" lon="12.9467572"><ele>358.0</ele><time>2026-04-19T11:58:06.991Z</time></trkpt><trkpt lat="43.4997148" lon="12.9466799"><ele>358.0</ele><time>2026-04-19T11:58:07.995Z</time></trkpt><trkpt lat="43.4996651" lon="12.9466181"><ele>358.0</ele><time>2026-04-19T11:58:08.992Z</time></trkpt><trkpt lat="43.4995486" lon="12.9465808"><ele>358.0</ele><time>2026-04-19T11:58:11Z</time></trkpt><trkpt lat="43.499471" lon="12.9466794"><ele>361.3333333333333</ele><time>2026-04-19T11:58:12.985Z</time></trkpt><trkpt lat="43.4994788" lon="12.9468418"><ele>364.66666666666663</ele><time>2026-04-19T11:58:14.984Z</time></trkpt><trkpt lat="43.4994882" lon="12.9469386"><ele>368.0</ele><time>2026-04-19T11:58:15.986Z</time></trkpt><trkpt lat="43.4994916" lon="12.9470428"><ele>371.3333333333333</ele><time>2026-04-19T11:58:16.989Z</time></trkpt><trkpt lat="43.4994942" lon="12.9471576"><ele>374.6666666666667</ele><time>2026-04-19T11:58:17.991Z</time></trkpt><trkpt lat="43.4994995" lon="12.9472763"><ele>378.0</ele><time>2026-04-19T11:58:18.995Z</time></trkpt><trkpt lat="43.4995031" lon="12.9473893"><ele>378.0</ele><time>2026-04-19T11:58:19.992Z</time></trkpt><trkpt lat="43.4995049" lon="12.9475071"><ele>378.0</ele><time>2026-04-19T11:58:20.986Z</time></trkpt><trkpt lat="43.4995058" lon="12.9476323"><ele>378.0</ele><time>2026-04-19T11:58:21.998Z</time></trkpt><trkpt lat="43.4994973" lon="12.9477654"><ele>378.0</ele><time>2026-04-19T11:58:22.994Z</time></trkpt><trkpt lat="43.4994844" lon="12.9478959"><ele>378.0</ele><time>2026-04-19T11:58:23.993Z</time></trkpt><trkpt lat="43.4994554" lon="12.9480176"><ele>377.3333333333333</ele><time>2026-04-19T11:58:24.988Z</time></trkpt><trkpt lat="43.499421" lon="12.9481279"><ele>376.6666666666667</ele><time>2026-04-19T11:58:25.991Z</time></trkpt><trkpt lat="43.4993795" lon="12.9482186"><ele>376.0</ele><time>2026-04-19T11:58:26.989Z</time></trkpt><trkpt lat="43.4993251" lon="12.9482926"><ele>375.33333333333337</ele><time>2026-04-19T11:58:27.989Z</time></trkpt><trkpt lat="43.4992605" lon="12.9483622"><ele>374.6666666666667</ele><time>2026-04-19T11:58:28.989Z</time></trkpt><trkpt lat="43.4991854" lon="12.9484052"><ele>374.0</ele><time>2026-04-19T11:58:29.991Z</time></trkpt><trkpt lat="43.4991096" lon="12.948461"><ele>373.2</ele><time>2026-04-19T11:58:31Z</time></trkpt><trkpt lat="43.4990399" lon="12.9484995"><ele>372.4</ele><time>2026-04-19T11:58:31.99Z</time></trkpt><trkpt lat="43.4989618" lon="12.9485557"><ele>371.6</ele><time>2026-04-19T11:58:32.99Z</time></trkpt><trkpt lat="43.4988855" lon="12.948608"><ele>370.8</ele><time>2026-04-19T11:58:33.991Z</time></trkpt><trkpt lat="43.498802" lon="12.9486596"><ele>370.0</ele><time>2026-04-19T11:58:34.991Z</time></trkpt><trkpt lat="43.498705" lon="12.9487314"><ele>367.0</ele><time>2026-04-19T11:58:35.988Z</time></trkpt><trkpt lat="43.498608" lon="12.9488063"><ele>364.0</ele><time>2026-04-19T11:58:36.999Z</time></trkpt><trkpt lat="43.498518" lon="12.9488726"><ele>361.0</ele><time>2026-04-19T11:58:37.992Z</time></trkpt><trkpt lat="43.4984364" lon="12.9489179"><ele>358.0</ele><time>2026-04-19T11:58:38.986Z</time></trkpt><trkpt lat="43.4983236" lon="12.9490043"><ele>355.0</ele><time>2026-04-19T11:58:39.989Z</time></trkpt><trkpt lat="43.4982178" lon="12.9490753"><ele>355.0</ele><time>2026-04-19T11:58:40.984Z</time></trkpt><trkpt lat="43.4981093" lon="12.9491414"><ele>355.0</ele><time>2026-04-19T11:58:41.994Z</time></trkpt><trkpt lat="43.4980033" lon="12.9491934"><ele>355.0</ele><time>2026-04-19T11:58:42.988Z</time></trkpt><trkpt lat="43.4978969" lon="12.9492421"><ele>355.0</ele><time>2026-04-19T11:58:43.989Z</time></trkpt><trkpt lat="43.4977834" lon="12.9492945"><ele>353.16666666666663</ele><time>2026-04-19T11:58:44.997Z</time></trkpt><trkpt lat="43.4976833" lon="12.9493357"><ele>351.3333333333333</ele><time>2026-04-19T11:58:45.999Z</time></trkpt><trkpt lat="43.4975942" lon="12.9493935"><ele>349.5</ele><time>2026-04-19T11:58:46.983Z</time></trkpt><trkpt lat="43.4975275" lon="12.9494534"><ele>347.6666666666667</ele><time>2026-04-19T11:58:47.992Z</time></trkpt><trkpt lat="43.4974826" lon="12.9495535"><ele>345.83333333333337</ele><time>2026-04-19T11:58:48.99Z</time></trkpt><trkpt lat="43.4974598" lon="12.9496528"><ele>344.0</ele><time>2026-04-19T11:58:49.989Z</time></trkpt><trkpt lat="43.4974654" lon="12.9497734"><ele>344.0</ele><time>2026-04-19T11:58:50.994Z</time></trkpt><trkpt lat="43.4974646" lon="12.9498644"><ele>344.0</ele><time>2026-04-19T11:58:51.994Z</time></trkpt><trkpt lat="43.4974934" lon="12.9499951"><ele>344.0</ele><time>2026-04-19T11:58:52.989Z</time></trkpt><trkpt lat="43.49751" lon="12.9501172"><ele>344.0</ele><time>2026-04-19T11:58:53.993Z</time></trkpt><trkpt lat="43.4975044" lon="12.9502422"><ele>344.0</ele><time>2026-04-19T11:58:54.992Z</time></trkpt><trkpt lat="43.4974907" lon="12.950387"><ele>343.4</ele><time>2026-04-19T11:58:55.988Z</time></trkpt><trkpt lat="43.4974696" lon="12.9505279"><ele>342.79999999999995</ele><time>2026-04-19T11:58:56.992Z</time></trkpt><trkpt lat="43.4974401" lon="12.9506615"><ele>342.20000000000005</ele><time>2026-04-19T11:58:57.988Z</time></trkpt><trkpt lat="43.4974151" lon="12.9507988"><ele>341.6</ele><time>2026-04-19T11:58:58.984Z</time></trkpt><trkpt lat="43.4973839" lon="12.9509184"><ele>341.0</ele><time>2026-04-19T11:58:59.994Z</time></trkpt><trkpt lat="43.497349" lon="12.9510255"><ele>341.0</ele><time>2026-04-19T11:59:00.993Z</time></trkpt><trkpt lat="43.4973103" lon="12.9511296"><ele>341.0</ele><time>2026-04-19T11:59:01.991Z</time></trkpt><trkpt lat="43.4972829" lon="12.9512298"><ele>341.0</ele><time>2026-04-19T11:59:02.989Z</time></trkpt><trkpt lat="43.4972518" lon="12.9513212"><ele>341.0</ele><time>2026-04-19T11:59:03.99Z</time></trkpt><trkpt lat="43.4972206" lon="12.9514397"><ele>341.0</ele><time>2026-04-19T11:59:04.994Z</time></trkpt><trkpt lat="43.4971923" lon="12.9515474"><ele>341.0</ele><time>2026-04-19T11:59:05.992Z</time></trkpt><trkpt lat="43.4971607" lon="12.95166"><ele>340.1666666666667</ele><time>2026-04-19T11:59:06.985Z</time></trkpt><trkpt lat="43.4971298" lon="12.9517692"><ele>339.33333333333337</ele><time>2026-04-19T11:59:07.997Z</time></trkpt><trkpt lat="43.4970993" lon="12.9518757"><ele>338.5</ele><time>2026-04-19T11:59:08.99Z</time></trkpt><trkpt lat="43.4970729" lon="12.9519695"><ele>337.6666666666667</ele><time>2026-04-19T11:59:09.998Z</time></trkpt><trkpt lat="43.4970295" lon="12.9520647"><ele>336.8333333333333</ele><time>2026-04-19T11:59:10.988Z</time></trkpt><trkpt lat="43.4969715" lon="12.9521636"><ele>336.0</ele><time>2026-04-19T11:59:11.988Z</time></trkpt><trkpt lat="43.4969136" lon="12.9522512"><ele>338.4</ele><time>2026-04-19T11:59:12.992Z</time></trkpt><trkpt lat="43.4968498" lon="12.9523446"><ele>340.8</ele><time>2026-04-19T11:59:13.992Z</time></trkpt><trkpt lat="43.4967813" lon="12.9524538"><ele>343.2</ele><time>2026-04-19T11:59:14.995Z</time></trkpt><trkpt lat="43.4967141" lon="12.9525696"><ele>345.59999999999997</ele><time>2026-04-19T11:59:15.991Z</time></trkpt><trkpt lat="43.4966515" lon="12.9526799"><ele>348.0</ele><time>2026-04-19T11:59:16.99Z</time></trkpt><trkpt lat="43.4965894" lon="12.9527933"><ele>348.0</ele><time>2026-04-19T11:59:17.993Z</time></trkpt><trkpt lat="43.4965375" lon="12.952918"><ele>348.0</ele><time>2026-04-19T11:59:18.992Z</time></trkpt><trkpt lat="43.4964963" lon="12.953049"><ele>348.0</ele><time>2026-04-19T11:59:19.991Z</time></trkpt><trkpt lat="43.4964664" lon="12.9531807"><ele>348.0</ele><time>2026-04-19T11:59:20.994Z</time></trkpt><trkpt lat="43.4964351" lon="12.9533166"><ele>348.0</ele><time>2026-04-19T11:59:21.987Z</time></trkpt><trkpt lat="43.4964038" lon="12.953455"><ele>347.2</ele><time>2026-04-19T11:59:22.988Z</time></trkpt><trkpt lat="43.496375" lon="12.9535945"><ele>346.4</ele><time>2026-04-19T11:59:23.989Z</time></trkpt><trkpt lat="43.4963466" lon="12.953728"><ele>345.59999999999997</ele><time>2026-04-19T11:59:24.993Z</time></trkpt><trkpt lat="43.496318" lon="12.9538557"><ele>344.79999999999995</ele><time>2026-04-19T11:59:25.989Z</time></trkpt><trkpt lat="43.4962918" lon="12.9539828"><ele>344.0</ele><time>2026-04-19T11:59:26.991Z</time></trkpt><trkpt lat="43.4962673" lon="12.954108"><ele>349.0</ele><time>2026-04-19T11:59:27.991Z</time></trkpt><trkpt lat="43.4962427" lon="12.9542296"><ele>354.0</ele><time>2026-04-19T11:59:28.994Z</time></trkpt><trkpt lat="43.4962122" lon="12.9543424"><ele>359.0</ele><time>2026-04-19T11:59:29.99Z</time></trkpt><trkpt lat="43.4961743" lon="12.9544466"><ele>364.0</ele><time>2026-04-19T11:59:30.988Z</time></trkpt><trkpt lat="43.496135" lon="12.9545474"><ele>369.0</ele><time>2026-04-19T11:59:31.991Z</time></trkpt><trkpt lat="43.49605" lon="12.9546446"><ele>369.0</ele><time>2026-04-19T11:59:33.993Z</time></trkpt><trkpt lat="43.4959467" lon="12.9546701"><ele>369.0</ele><time>2026-04-19T11:59:35.99Z</time></trkpt><trkpt lat="43.4958251" lon="12.9547601"><ele>369.0</ele><time>2026-04-19T11:59:37.991Z</time></trkpt><trkpt lat="43.4957628" lon="12.9548457"><ele>369.0</ele><time>2026-04-19T11:59:38.99Z</time></trkpt><trkpt lat="43.4957068" lon="12.9549407"><ele>369.0</ele><time>2026-04-19T11:59:39.988Z</time></trkpt><trkpt lat="43.4956544" lon="12.9550456"><ele>368.6</ele><time>2026-04-19T11:59:40.99Z</time></trkpt><trkpt lat="43.4956035" lon="12.9551547"><ele>368.2</ele><time>2026-04-19T11:59:41.991Z</time></trkpt><trkpt lat="43.4955539" lon="12.9552521"><ele>367.8</ele><time>2026-04-19T11:59:42.994Z</time></trkpt><trkpt lat="43.4954966" lon="12.9553546"><ele>367.40000000000003</ele><time>2026-04-19T11:59:43.989Z</time></trkpt><trkpt lat="43.4954319" lon="12.9554545"><ele>367.0</ele><time>2026-04-19T11:59:44.994Z</time></trkpt><trkpt lat="43.4953613" lon="12.9555479"><ele>366.8</ele><time>2026-04-19T11:59:45.993Z</time></trkpt><trkpt lat="43.4952846" lon="12.9556375"><ele>366.6</ele><time>2026-04-19T11:59:46.993Z</time></trkpt><trkpt lat="43.4952057" lon="12.9557228"><ele>366.40000000000003</ele><time>2026-04-19T11:59:47.993Z</time></trkpt><trkpt lat="43.4951301" lon="12.9558135"><ele>366.20000000000005</ele><time>2026-04-19T11:59:48.992Z</time></trkpt><trkpt lat="43.4950525" lon="12.9559063"><ele>366.0</ele><time>2026-04-19T11:59:49.986Z</time></trkpt><trkpt lat="43.4949712" lon="12.9559963"><ele>364.8333333333333</ele><time>2026-04-19T11:59:50.989Z</time></trkpt><trkpt lat="43.4948851" lon="12.9560735"><ele>363.6666666666667</ele><time>2026-04-19T11:59:51.998Z</time></trkpt><trkpt lat="43.4947996" lon="12.9561386"><ele>362.5</ele><time>2026-04-19T11:59:52.991Z</time></trkpt><trkpt lat="43.4947159" lon="12.956195"><ele>361.33333333333337</ele><time>2026-04-19T11:59:53.996Z</time></trkpt><trkpt lat="43.4946445" lon="12.9562505"><ele>360.1666666666667</ele><time>2026-04-19T11:59:54.993Z</time></trkpt><trkpt lat="43.4945854" lon="12.9562964"><ele>359.0</ele><time>2026-04-19T11:59:55.993Z</time></trkpt><trkpt lat="43.4945013" lon="12.9563063"><ele>359.0</ele><time>2026-04-19T11:59:57.991Z</time></trkpt><trkpt lat="43.4944242" lon="12.9562386"><ele>359.0</ele><time>2026-04-19T11:59:59.995Z</time></trkpt><trkpt lat="43.4943474" lon="12.9560828"><ele>359.0</ele><time>2026-04-19T12:00:01.997Z</time></trkpt><trkpt lat="43.4943135" lon="12.9559867"><ele>359.0</ele><time>2026-04-19T12:00:02.993Z</time></trkpt><trkpt lat="43.4942874" lon="12.9558758"><ele>359.0</ele><time>2026-04-19T12:00:03.992Z</time></trkpt><trkpt lat="43.4942658" lon="12.9557667"><ele>361.1666666666667</ele><time>2026-04-19T12:00:04.997Z</time></trkpt><trkpt lat="43.4942375" lon="12.9556629"><ele>363.33333333333337</ele><time>2026-04-19T12:00:05.989Z</time></trkpt><trkpt lat="43.4942022" lon="12.9555654"><ele>365.5</ele><time>2026-04-19T12:00:06.987Z</time></trkpt><trkpt lat="43.4941679" lon="12.9554826"><ele>367.6666666666667</ele><time>2026-04-19T12:00:07.999Z</time></trkpt><trkpt lat="43.4941315" lon="12.9554045"><ele>369.8333333333333</ele><time>2026-04-19T12:00:08.996Z</time></trkpt><trkpt lat="43.4940818" lon="12.9552912"><ele>372.0</ele><time>2026-04-19T12:00:10.991Z</time></trkpt><trkpt lat="43.4941181" lon="12.9553702"><ele>372.0</ele><time>2026-04-19T12:00:19.99Z</time></trkpt><trkpt lat="43.4941638" lon="12.9554823"><ele>372.0</ele><time>2026-04-19T12:00:21.989Z</time></trkpt><trkpt lat="43.4941975" lon="12.9555822"><ele>372.0</ele><time>2026-04-19T12:00:22.989Z</time></trkpt><trkpt lat="43.4942332" lon="12.9556844"><ele>372.0</ele><time>2026-04-19T12:00:23.993Z</time></trkpt><trkpt lat="43.4942599" lon="12.9557842"><ele>372.0</ele><time>2026-04-19T12:00:24.993Z</time></trkpt><trkpt lat="43.4942816" lon="12.9558876"><ele>372.0</ele><time>2026-04-19T12:00:25.991Z</time></trkpt><trkpt lat="43.4943024" lon="12.9559928"><ele>369.8333333333333</ele><time>2026-04-19T12:00:26.99Z</time></trkpt><trkpt lat="43.4943339" lon="12.9560926"><ele>367.6666666666667</ele><time>2026-04-19T12:00:27.991Z</time></trkpt><trkpt lat="43.4943698" lon="12.9561836"><ele>365.5</ele><time>2026-04-19T12:00:28.99Z</time></trkpt><trkpt lat="43.4944298" lon="12.9562988"><ele>363.33333333333337</ele><time>2026-04-19T12:00:30.994Z</time></trkpt><trkpt lat="43.4944529" lon="12.9563966"><ele>361.1666666666667</ele><time>2026-04-19T12:00:32.988Z</time></trkpt><trkpt lat="43.4944258" lon="12.9564859"><ele>359.0</ele><time>2026-04-19T12:00:34.99Z</time></trkpt><trkpt lat="43.4943471" lon="12.9565721"><ele>359.0</ele><time>2026-04-19T12:00:36.987Z</time></trkpt><trkpt lat="43.4942928" lon="12.9566282"><ele>359.0</ele><time>2026-04-19T12:00:37.989Z</time></trkpt><trkpt lat="43.4942385" lon="12.9566807"><ele>359.0</ele><time>2026-04-19T12:00:38.986Z</time></trkpt><trkpt lat="43.494136" lon="12.9567719"><ele>359.0</ele><time>2026-04-19T12:00:40.994Z</time></trkpt><trkpt lat="43.494039" lon="12.9568453"><ele>359.0</ele><time>2026-04-19T12:00:42.994Z</time></trkpt><trkpt lat="43.4939426" lon="12.9569098"><ele>355.4</ele><time>2026-04-19T12:00:44.993Z</time></trkpt><trkpt lat="43.4938385" lon="12.9569682"><ele>351.79999999999995</ele><time>2026-04-19T12:00:46.996Z</time></trkpt><trkpt lat="43.493745" lon="12.9570121"><ele>348.20000000000005</ele><time>2026-04-19T12:00:48.998Z</time></trkpt><trkpt lat="43.4936484" lon="12.9570545"><ele>344.6</ele><time>2026-04-19T12:00:50.992Z</time></trkpt><trkpt lat="43.4935533" lon="12.9570734"><ele>341.0</ele><time>2026-04-19T12:00:52.992Z</time></trkpt><trkpt lat="43.4934576" lon="12.9570653"><ele>339.6</ele><time>2026-04-19T12:00:54.99Z</time></trkpt><trkpt lat="43.4933607" lon="12.9570178"><ele>338.20000000000005</ele><time>2026-04-19T12:00:56.988Z</time></trkpt><trkpt lat="43.4932613" lon="12.9569628"><ele>336.79999999999995</ele><time>2026-04-19T12:00:58.99Z</time></trkpt><trkpt lat="43.4931723" lon="12.9568854"><ele>335.4</ele><time>2026-04-19T12:01:00.998Z</time></trkpt><trkpt lat="43.4930784" lon="12.9567761"><ele>334.0</ele><time>2026-04-19T12:01:02.988Z</time></trkpt><trkpt lat="43.492992" lon="12.9566752"><ele>333.16666666666663</ele><time>2026-04-19T12:01:04.993Z</time></trkpt><trkpt lat="43.4929199" lon="12.9565605"><ele>332.3333333333333</ele><time>2026-04-19T12:01:06.989Z</time></trkpt><trkpt lat="43.492864" lon="12.9564602"><ele>331.5</ele><time>2026-04-19T12:01:08.991Z</time></trkpt><trkpt lat="43.4928198" lon="12.9563885"><ele>330.6666666666667</ele><time>2026-04-19T12:01:10.992Z</time></trkpt><trkpt lat="43.4927829" lon="12.9562967"><ele>329.83333333333337</ele><time>2026-04-19T12:01:14.993Z</time></trkpt><trkpt lat="43.4927534" lon="12.956202"><ele>329.0</ele><time>2026-04-19T12:01:28.989Z</time></trkpt><trkpt lat="43.4927759" lon="12.9560925"><ele>329.0</ele><time>2026-04-19T12:01:32.989Z</time></trkpt><trkpt lat="43.4928332" lon="12.9560529"><ele>329.0</ele><time>2026-04-19T12:01:47.988Z</time></trkpt><trkpt lat="43.4928399" lon="12.9559606"><ele>329.0</ele><time>2026-04-19T12:01:51.989Z</time></trkpt><trkpt lat="43.4927686" lon="12.9560107"><ele>329.0</ele><time>2026-04-19T12:01:55.991Z</time></trkpt><trkpt lat="43.4927552" lon="12.9561141"><ele>329.0</ele><time>2026-04-19T12:01:58Z</time></trkpt><trkpt lat="43.4927552" lon="12.9562105"><ele>329.0</ele><time>2026-04-19T12:01:59.988Z</time></trkpt><trkpt lat="43.4927632" lon="12.9563205"><ele>329.0</ele><time>2026-04-19T12:02:01.989Z</time></trkpt><trkpt lat="43.4928385" lon="12.9564526"><ele>329.0</ele><time>2026-04-19T12:02:03.988Z</time></trkpt><trkpt lat="43.4929149" lon="12.9565884"><ele>329.0</ele><time>2026-04-19T12:02:05.994Z</time></trkpt><trkpt lat="43.4929602" lon="12.9566577"><ele>329.0</ele><time>2026-04-19T12:02:06.993Z</time></trkpt><trkpt lat="43.4930077" lon="12.9567215"><ele>329.0</ele><time>2026-04-19T12:02:07.991Z</time></trkpt><trkpt lat="43.4930553" lon="12.9567792"><ele>329.0</ele><time>2026-04-19T12:02:08.988Z</time></trkpt><trkpt lat="43.4930993" lon="12.9568415"><ele>329.0</ele><time>2026-04-19T12:02:09.992Z</time></trkpt><trkpt lat="43.4931501" lon="12.9568956"><ele>329.0</ele><time>2026-04-19T12:02:10.994Z</time></trkpt><trkpt lat="43.4932538" lon="12.9569775"><ele>329.83333333333337</ele><time>2026-04-19T12:02:12.986Z</time></trkpt><trkpt lat="43.4933686" lon="12.9570403"><ele>330.6666666666667</ele><time>2026-04-19T12:02:14.992Z</time></trkpt><trkpt lat="43.4934309" lon="12.9570613"><ele>331.5</ele><time>2026-04-19T12:02:15.991Z</time></trkpt><trkpt lat="43.4935528" lon="12.957071"><ele>332.3333333333333</ele><time>2026-04-19T12:02:17.993Z</time></trkpt><trkpt lat="43.4936162" lon="12.9570633"><ele>333.16666666666663</ele><time>2026-04-19T12:02:18.996Z</time></trkpt><trkpt lat="43.4936803" lon="12.9570453"><ele>334.0</ele><time>2026-04-19T12:02:19.988Z</time></trkpt><trkpt lat="43.4937473" lon="12.9570177"><ele>335.0</ele><time>2026-04-19T12:02:20.99Z</time></trkpt><trkpt lat="43.4938115" lon="12.956986"><ele>336.0</ele><time>2026-04-19T12:02:21.99Z</time></trkpt><trkpt lat="43.4938763" lon="12.956952"><ele>337.0</ele><time>2026-04-19T12:02:22.995Z</time></trkpt><trkpt lat="43.4939427" lon="12.9569173"><ele>338.0</ele><time>2026-04-19T12:02:24Z</time></trkpt><trkpt lat="43.494002" lon="12.9568778"><ele>339.0</ele><time>2026-04-19T12:02:24.99Z</time></trkpt><trkpt lat="43.4940659" lon="12.9568301"><ele>340.0</ele><time>2026-04-19T12:02:25.992Z</time></trkpt><trkpt lat="43.4941325" lon="12.9567758"><ele>341.0</ele><time>2026-04-19T12:02:26.994Z</time></trkpt><trkpt lat="43.4942028" lon="12.9567166"><ele>344.0</ele><time>2026-04-19T12:02:27.991Z</time></trkpt><trkpt lat="43.4942664" lon="12.9566602"><ele>347.0</ele><time>2026-04-19T12:02:28.989Z</time></trkpt><trkpt lat="43.4943291" lon="12.9566028"><ele>350.0</ele><time>2026-04-19T12:02:29.984Z</time></trkpt><trkpt lat="43.4943851" lon="12.9565495"><ele>353.0</ele><time>2026-04-19T12:02:30.985Z</time></trkpt><trkpt lat="43.4944654" lon="12.9564467"><ele>356.0</ele><time>2026-04-19T12:02:32.989Z</time></trkpt><trkpt lat="43.494471" lon="12.9563508"><ele>359.0</ele><time>2026-04-19T12:02:34.994Z</time></trkpt><trkpt lat="43.4944103" lon="12.9562427"><ele>359.0</ele><time>2026-04-19T12:02:36.987Z</time></trkpt><trkpt lat="43.4943373" lon="12.9560891"><ele>359.0</ele><time>2026-04-19T12:02:38.994Z</time></trkpt><trkpt lat="43.4943075" lon="12.9559908"><ele>359.0</ele><time>2026-04-19T12:02:39.989Z</time></trkpt><trkpt lat="43.4942842" lon="12.9558821"><ele>359.0</ele><time>2026-04-19T12:02:40.995Z</time></trkpt><trkpt lat="43.4942606" lon="12.9557802"><ele>359.0</ele><time>2026-04-19T12:02:41.984Z</time></trkpt><trkpt lat="43.4942335" lon="12.9556852"><ele>359.0</ele><time>2026-04-19T12:02:42.994Z</time></trkpt><trkpt lat="43.4942017" lon="12.955597"><ele>360.8571428571429</ele><time>2026-04-19T12:02:43.986Z</time></trkpt><trkpt lat="43.4941646" lon="12.9555114"><ele>362.7142857142857</ele><time>2026-04-19T12:02:44.991Z</time></trkpt><trkpt lat="43.4941301" lon="12.9554324"><ele>364.57142857142856</ele><time>2026-04-19T12:02:45.993Z</time></trkpt><trkpt lat="43.4940915" lon="12.9553513"><ele>366.42857142857144</ele><time>2026-04-19T12:02:46.998Z</time></trkpt><trkpt lat="43.4940649" lon="12.9552677"><ele>368.2857142857143</ele><time>2026-04-19T12:02:48Z</time></trkpt><trkpt lat="43.4940473" lon="12.9551739"><ele>370.14285714285717</ele><time>2026-04-19T12:02:48.997Z</time></trkpt><trkpt lat="43.4940709" lon="12.9550775"><ele>372.0</ele><time>2026-04-19T12:02:49.994Z</time></trkpt><trkpt lat="43.4941038" lon="12.9549714"><ele>372.5</ele><time>2026-04-19T12:02:50.99Z</time></trkpt><trkpt lat="43.4941401" lon="12.9548698"><ele>373.0</ele><time>2026-04-19T12:02:52Z</time></trkpt><trkpt lat="43.4941892" lon="12.9547761"><ele>373.5</ele><time>2026-04-19T12:02:52.993Z</time></trkpt><trkpt lat="43.4942394" lon="12.9546776"><ele>374.0</ele><time>2026-04-19T12:02:53.995Z</time></trkpt><trkpt lat="43.4942863" lon="12.9545748"><ele>374.5</ele><time>2026-04-19T12:02:54.995Z</time></trkpt><trkpt lat="43.4943317" lon="12.9544661"><ele>375.0</ele><time>2026-04-19T12:02:55.992Z</time></trkpt><trkpt lat="43.4943801" lon="12.9543597"><ele>375.0</ele><time>2026-04-19T12:02:56.99Z</time></trkpt><trkpt lat="43.4944316" lon="12.9542493"><ele>375.0</ele><time>2026-04-19T12:02:57.992Z</time></trkpt><trkpt lat="43.4944763" lon="12.9541317"><ele>375.0</ele><time>2026-04-19T12:02:58.994Z</time></trkpt><trkpt lat="43.4945124" lon="12.9540157"><ele>375.0</ele><time>2026-04-19T12:02:59.992Z</time></trkpt><trkpt lat="43.4945479" lon="12.9539064"><ele>375.0</ele><time>2026-04-19T12:03:00.991Z</time></trkpt><trkpt lat="43.4945754" lon="12.9538106"><ele>375.0</ele><time>2026-04-19T12:03:01.986Z</time></trkpt><trkpt lat="43.494595" lon="12.9537255"><ele>376.8</ele><time>2026-04-19T12:03:02.986Z</time></trkpt><trkpt lat="43.4945943" lon="12.9535976"><ele>378.6</ele><time>2026-04-19T12:03:04.992Z</time></trkpt><trkpt lat="43.4946026" lon="12.9534823"><ele>380.4</ele><time>2026-04-19T12:03:06.987Z</time></trkpt><trkpt lat="43.4946326" lon="12.9533407"><ele>382.2</ele><time>2026-04-19T12:03:08.995Z</time></trkpt><trkpt lat="43.4946758" lon="12.9531801"><ele>384.0</ele><time>2026-04-19T12:03:11Z</time></trkpt><trkpt lat="43.4947047" lon="12.9530961"><ele>385.3333333333333</ele><time>2026-04-19T12:03:11.985Z</time></trkpt><trkpt lat="43.4947417" lon="12.9530014"><ele>386.66666666666663</ele><time>2026-04-19T12:03:12.988Z</time></trkpt><trkpt lat="43.4947825" lon="12.9529015"><ele>388.0</ele><time>2026-04-19T12:03:13.991Z</time></trkpt><trkpt lat="43.4948243" lon="12.9527899"><ele>389.3333333333333</ele><time>2026-04-19T12:03:14.988Z</time></trkpt><trkpt lat="43.4948685" lon="12.9526731"><ele>390.66666666666663</ele><time>2026-04-19T12:03:15.994Z</time></trkpt><trkpt lat="43.4949104" lon="12.952554"><ele>392.0</ele><time>2026-04-19T12:03:16.988Z</time></trkpt><trkpt lat="43.4949555" lon="12.9524359"><ele>393.6</ele><time>2026-04-19T12:03:17.99Z</time></trkpt><trkpt lat="43.4950022" lon="12.9523163"><ele>395.20000000000005</ele><time>2026-04-19T12:03:18.995Z</time></trkpt><trkpt lat="43.4950487" lon="12.9521999"><ele>396.8</ele><time>2026-04-19T12:03:19.993Z</time></trkpt><trkpt lat="43.4950972" lon="12.9520799"><ele>398.4</ele><time>2026-04-19T12:03:20.991Z</time></trkpt><trkpt lat="43.4951456" lon="12.951954"><ele>400.0</ele><time>2026-04-19T12:03:21.992Z</time></trkpt><trkpt lat="43.4951845" lon="12.9518198"><ele>402.4</ele><time>2026-04-19T12:03:22.992Z</time></trkpt><trkpt lat="43.4952216" lon="12.9516857"><ele>404.8</ele><time>2026-04-19T12:03:23.994Z</time></trkpt><trkpt lat="43.4952543" lon="12.9515543"><ele>407.20000000000005</ele><time>2026-04-19T12:03:24.989Z</time></trkpt><trkpt lat="43.4952893" lon="12.9514168"><ele>409.6</ele><time>2026-04-19T12:03:25.994Z</time></trkpt><trkpt lat="43.4953207" lon="12.9512864"><ele>412.0</ele><time>2026-04-19T12:03:26.989Z</time></trkpt><trkpt lat="43.4953521" lon="12.9511475"><ele>412.00000000000006</ele><time>2026-04-19T12:03:27.996Z</time></trkpt><trkpt lat="43.4953839" lon="12.9510107"><ele>412.0</ele><time>2026-04-19T12:03:28.987Z</time></trkpt><trkpt lat="43.4954085" lon="12.9508783"><ele>412.0</ele><time>2026-04-19T12:03:29.984Z</time></trkpt><trkpt lat="43.4954282" lon="12.9507541"><ele>412.0</ele><time>2026-04-19T12:03:30.983Z</time></trkpt><trkpt lat="43.4954437" lon="12.9506432"><ele>412.00000000000006</ele><time>2026-04-19T12:03:31.99Z</time></trkpt><trkpt lat="43.4954536" lon="12.9505457"><ele>412.0</ele><time>2026-04-19T12:03:32.987Z</time></trkpt><trkpt lat="43.4954784" lon="12.9504249"><ele>410.50000000000006</ele><time>2026-04-19T12:03:35Z</time></trkpt><trkpt lat="43.4954997" lon="12.9503085"><ele>409.0</ele><time>2026-04-19T12:06:07.99Z</time></trkpt><trkpt lat="43.4955198" lon="12.950204"><ele>407.5</ele><time>2026-04-19T12:06:08.985Z</time></trkpt><trkpt lat="43.4955411" lon="12.9501063"><ele>406.0</ele><time>2026-04-19T12:06:09.988Z</time></trkpt><trkpt lat="43.4955576" lon="12.9500062"><ele>404.50000000000006</ele><time>2026-04-19T12:06:10.982Z</time></trkpt><trkpt lat="43.4955629" lon="12.9499041"><ele>403.0</ele><time>2026-04-19T12:06:11.988Z</time></trkpt><trkpt lat="43.4955663" lon="12.9498034"><ele>403.0</ele><time>2026-04-19T12:06:12.984Z</time></trkpt><trkpt lat="43.4955737" lon="12.9497145"><ele>403.0</ele><time>2026-04-19T12:06:13.986Z</time></trkpt><trkpt lat="43.4955286" lon="12.9495757"><ele>403.0</ele><time>2026-04-19T12:06:15.982Z</time></trkpt><trkpt lat="43.4954473" lon="12.9494678"><ele>403.0</ele><time>2026-04-19T12:06:17.992Z</time></trkpt><trkpt lat="43.4953285" lon="12.9494634"><ele>403.0</ele><time>2026-04-19T12:06:19.989Z</time></trkpt><trkpt lat="43.4952199" lon="12.9495554"><ele>406.4</ele><time>2026-04-19T12:06:21.992Z</time></trkpt><trkpt lat="43.4951722" lon="12.9496262"><ele>409.79999999999995</ele><time>2026-04-19T12:06:22.992Z</time></trkpt><trkpt lat="43.4951266" lon="12.949733"><ele>413.2</ele><time>2026-04-19T12:06:23.99Z</time></trkpt><trkpt lat="43.4950788" lon="12.9498561"><ele>416.6</ele><time>2026-04-19T12:06:24.989Z</time></trkpt><trkpt lat="43.4950416" lon="12.9499905"><ele>420.0</ele><time>2026-04-19T12:06:25.991Z</time></trkpt><trkpt lat="43.4950084" lon="12.9501241"><ele>420.0</ele><time>2026-04-19T12:06:26.99Z</time></trkpt><trkpt lat="43.4949657" lon="12.950262"><ele>420.0</ele><time>2026-04-19T12:06:27.99Z</time></trkpt><trkpt lat="43.4949236" lon="12.9503836"><ele>420.0</ele><time>2026-04-19T12:06:28.996Z</time></trkpt><trkpt lat="43.4948602" lon="12.9504996"><ele>420.0</ele><time>2026-04-19T12:06:29.981Z</time></trkpt><trkpt lat="43.4947882" lon="12.9505981"><ele>420.0</ele><time>2026-04-19T12:06:30.988Z</time></trkpt><trkpt lat="43.4946971" lon="12.9507007"><ele>420.0</ele><time>2026-04-19T12:06:31.99Z</time></trkpt><trkpt lat="43.4945904" lon="12.9508059"><ele>420.0</ele><time>2026-04-19T12:06:32.997Z</time></trkpt><trkpt lat="43.4944748" lon="12.9509039"><ele>420.0</ele><time>2026-04-19T12:06:33.988Z</time></trkpt><trkpt lat="43.4943631" lon="12.9510012"><ele>420.0</ele><time>2026-04-19T12:06:34.996Z</time></trkpt><trkpt lat="43.4942382" lon="12.9511114"><ele>421.2</ele><time>2026-04-19T12:06:35.987Z</time></trkpt><trkpt lat="43.4941149" lon="12.9512004"><ele>422.4</ele><time>2026-04-19T12:06:36.992Z</time></trkpt><trkpt lat="43.4940131" lon="12.9512769"><ele>423.6</ele><time>2026-04-19T12:06:37.984Z</time></trkpt><trkpt lat="43.4939328" lon="12.9513291"><ele>424.8</ele><time>2026-04-19T12:06:38.988Z</time></trkpt><trkpt lat="43.4938526" lon="12.951362"><ele>426.0</ele><time>2026-04-19T12:06:39.991Z</time></trkpt><trkpt lat="43.493771" lon="12.9512674"><ele>426.0</ele><time>2026-04-19T12:06:41.99Z</time></trkpt><trkpt lat="43.4937738" lon="12.9510977"><ele>426.0</ele><time>2026-04-19T12:06:43.991Z</time></trkpt><trkpt lat="43.4938142" lon="12.9510107"><ele>426.0</ele><time>2026-04-19T12:06:44.995Z</time></trkpt><trkpt lat="43.4938741" lon="12.9509221"><ele>426.0</ele><time>2026-04-19T12:06:45.991Z</time></trkpt><trkpt lat="43.4939384" lon="12.950825"><ele>426.0</ele><time>2026-04-19T12:06:46.989Z</time></trkpt><trkpt lat="43.4940022" lon="12.9507157"><ele>430.0</ele><time>2026-04-19T12:06:47.995Z</time></trkpt><trkpt lat="43.4940631" lon="12.9505882"><ele>434.0</ele><time>2026-04-19T12:06:48.986Z</time></trkpt><trkpt lat="43.494118" lon="12.9504431"><ele>438.0</ele><time>2026-04-19T12:06:49.992Z</time></trkpt><trkpt lat="43.4941629" lon="12.950291"><ele>442.0</ele><time>2026-04-19T12:06:50.989Z</time></trkpt><trkpt lat="43.4941716" lon="12.9501381"><ele>445.5</ele><time>2026-04-19T12:06:51.987Z</time></trkpt><trkpt lat="43.4941682" lon="12.9499888"><ele>449.0</ele><time>2026-04-19T12:06:52.985Z</time></trkpt><trkpt lat="43.4941772" lon="12.949831"><ele>452.5</ele><time>2026-04-19T12:06:53.984Z</time></trkpt><trkpt lat="43.4941905" lon="12.9496583"><ele>456.0</ele><time>2026-04-19T12:06:54.991Z</time></trkpt><trkpt lat="43.4942099" lon="12.9494954"><ele>456.0</ele><time>2026-04-19T12:06:55.988Z</time></trkpt><trkpt lat="43.4942224" lon="12.9493433"><ele>456.0</ele><time>2026-04-19T12:06:56.984Z</time></trkpt><trkpt lat="43.4942217" lon="12.9491902"><ele>456.0</ele><time>2026-04-19T12:06:57.989Z</time></trkpt><trkpt lat="43.4942026" lon="12.9490441"><ele>456.0</ele><time>2026-04-19T12:06:58.992Z</time></trkpt><trkpt lat="43.4941691" lon="12.9489027"><ele>456.0</ele><time>2026-04-19T12:06:59.988Z</time></trkpt><trkpt lat="43.4941342" lon="12.9487654"><ele>456.8</ele><time>2026-04-19T12:07:00.989Z</time></trkpt><trkpt lat="43.4940847" lon="12.9486269"><ele>457.6</ele><time>2026-04-19T12:07:01.989Z</time></trkpt><trkpt lat="43.4940452" lon="12.9484991"><ele>458.4</ele><time>2026-04-19T12:07:02.991Z</time></trkpt><trkpt lat="43.4940216" lon="12.948358"><ele>459.2</ele><time>2026-04-19T12:07:03.988Z</time></trkpt><trkpt lat="43.4940126" lon="12.9482081"><ele>460.0</ele><time>2026-04-19T12:07:04.988Z</time></trkpt><trkpt lat="43.4940135" lon="12.9480547"><ele>460.0</ele><time>2026-04-19T12:07:05.989Z</time></trkpt><trkpt lat="43.4940135" lon="12.9479138"><ele>460.0</ele><time>2026-04-19T12:07:06.991Z</time></trkpt><trkpt lat="43.4940096" lon="12.9477722"><ele>460.0</ele><time>2026-04-19T12:07:07.997Z</time></trkpt><trkpt lat="43.4940207" lon="12.9476677"><ele>460.0</ele><time>2026-04-19T12:07:08.993Z</time></trkpt><trkpt lat="43.4939814" lon="12.9475432"><ele>460.0</ele><time>2026-04-19T12:07:09.995Z</time></trkpt><trkpt lat="43.4939318" lon="12.9474157"><ele>459.75</ele><time>2026-04-19T12:07:10.991Z</time></trkpt><trkpt lat="43.4938686" lon="12.9472619"><ele>459.5</ele><time>2026-04-19T12:07:11.991Z</time></trkpt><trkpt lat="43.4938136" lon="12.9471009"><ele>459.25</ele><time>2026-04-19T12:07:12.993Z</time></trkpt><trkpt lat="43.4937568" lon="12.9469158"><ele>459.0</ele><time>2026-04-19T12:07:13.994Z</time></trkpt><trkpt lat="43.4937062" lon="12.9467311"><ele>476.33333333333337</ele><time>2026-04-19T12:07:14.988Z</time></trkpt><trkpt lat="43.4936533" lon="12.9465389"><ele>493.6666666666667</ele><time>2026-04-19T12:07:15.992Z</time></trkpt><trkpt lat="43.4936011" lon="12.946352"><ele>511.0</ele><time>2026-04-19T12:07:16.996Z</time></trkpt><trkpt lat="43.4935314" lon="12.9461552"><ele>511.0</ele><time>2026-04-19T12:07:17.988Z</time></trkpt><trkpt lat="43.4934688" lon="12.9459797"><ele>511.0</ele><time>2026-04-19T12:07:18.994Z</time></trkpt><trkpt lat="43.4934193" lon="12.9458171"><ele>511.0</ele><time>2026-04-19T12:07:19.99Z</time></trkpt><trkpt lat="43.4933739" lon="12.9456612"><ele>511.0</ele><time>2026-04-19T12:07:20.986Z</time></trkpt><trkpt lat="43.4933447" lon="12.9455"><ele>508.5</ele><time>2026-04-19T12:07:21.984Z</time></trkpt><trkpt lat="43.4933353" lon="12.9453314"><ele>506.0</ele><time>2026-04-19T12:07:22.989Z</time></trkpt><trkpt lat="43.4933321" lon="12.9451705"><ele>503.5</ele><time>2026-04-19T12:07:23.995Z</time></trkpt><trkpt lat="43.4933558" lon="12.9449871"><ele>501.0</ele><time>2026-04-19T12:07:24.993Z</time></trkpt><trkpt lat="43.4933605" lon="12.9447911"><ele>501.25</ele><time>2026-04-19T12:07:25.983Z</time></trkpt><trkpt lat="43.4933608" lon="12.9445985"><ele>501.5</ele><time>2026-04-19T12:07:26.989Z</time></trkpt><trkpt lat="43.4933709" lon="12.9444206"><ele>501.75</ele><time>2026-04-19T12:07:27.988Z</time></trkpt><trkpt lat="43.4933834" lon="12.9442807"><ele>502.0</ele><time>2026-04-19T12:07:28.985Z</time></trkpt><trkpt lat="43.493413" lon="12.9441704"><ele>502.0</ele><time>2026-04-19T12:07:29.989Z</time></trkpt><trkpt lat="43.4934792" lon="12.9440995"><ele>502.00000000000006</ele><time>2026-04-19T12:07:30.987Z</time></trkpt><trkpt lat="43.4935546" lon="12.9440325"><ele>502.00000000000006</ele><time>2026-04-19T12:07:31.989Z</time></trkpt><trkpt lat="43.4936332" lon="12.9439614"><ele>502.0</ele><time>2026-04-19T12:07:32.992Z</time></trkpt><trkpt lat="43.4937234" lon="12.9438695"><ele>502.0</ele><time>2026-04-19T12:07:33.99Z</time></trkpt><trkpt lat="43.4937972" lon="12.9437472"><ele>497.8</ele><time>2026-04-19T12:07:34.981Z</time></trkpt><trkpt lat="43.4938677" lon="12.9436165"><ele>493.6</ele><time>2026-04-19T12:07:35.992Z</time></trkpt><trkpt lat="43.4939335" lon="12.9435146"><ele>489.40000000000003</ele><time>2026-04-19T12:07:36.992Z</time></trkpt><trkpt lat="43.4940165" lon="12.9434544"><ele>485.20000000000005</ele><time>2026-04-19T12:07:37.985Z</time></trkpt><trkpt lat="43.4941041" lon="12.9434362"><ele>481.0</ele><time>2026-04-19T12:07:38.988Z</time></trkpt><trkpt lat="43.494187" lon="12.9434289"><ele>481.0</ele><time>2026-04-19T12:07:39.991Z</time></trkpt><trkpt lat="43.4942729" lon="12.9435071"><ele>481.0</ele><time>2026-04-19T12:07:40.991Z</time></trkpt><trkpt lat="43.4943618" lon="12.9436384"><ele>481.0</ele><time>2026-04-19T12:07:41.987Z</time></trkpt><trkpt lat="43.4944445" lon="12.9437679"><ele>481.0</ele><time>2026-04-19T12:07:42.994Z</time></trkpt><trkpt lat="43.4945023" lon="12.943906"><ele>481.0</ele><time>2026-04-19T12:07:43.988Z</time></trkpt><trkpt lat="43.4945645" lon="12.9440288"><ele>481.0</ele><time>2026-04-19T12:07:44.988Z</time></trkpt><trkpt lat="43.4946463" lon="12.9441404"><ele>481.0</ele><time>2026-04-19T12:07:45.993Z</time></trkpt><trkpt lat="43.4947406" lon="12.9442456"><ele>481.0</ele><time>2026-04-19T12:07:46.988Z</time></trkpt><trkpt lat="43.4948428" lon="12.9443443"><ele>477.0</ele><time>2026-04-19T12:07:47.99Z</time></trkpt><trkpt lat="43.4949956" lon="12.9443714"><ele>473.0</ele><time>2026-04-19T12:07:48.986Z</time></trkpt><trkpt lat="43.4951377" lon="12.9443916"><ele>469.0</ele><time>2026-04-19T12:07:49.992Z</time></trkpt><trkpt lat="43.4952642" lon="12.9444144"><ele>465.0</ele><time>2026-04-19T12:07:50.985Z</time></trkpt><trkpt lat="43.4953919" lon="12.9444479"><ele>470.0</ele><time>2026-04-19T12:07:51.986Z</time></trkpt><trkpt lat="43.495505" lon="12.9445172"><ele>475.0</ele><time>2026-04-19T12:07:52.983Z</time></trkpt><trkpt lat="43.4956143" lon="12.9446122"><ele>480.0</ele><time>2026-04-19T12:07:53.989Z</time></trkpt><trkpt lat="43.4956988" lon="12.9447419"><ele>485.0</ele><time>2026-04-19T12:07:54.983Z</time></trkpt><trkpt lat="43.4957789" lon="12.944878"><ele>485.0</ele><time>2026-04-19T12:07:55.986Z</time></trkpt><trkpt lat="43.4958645" lon="12.944996"><ele>485.0</ele><time>2026-04-19T12:07:56.987Z</time></trkpt><trkpt lat="43.4959627" lon="12.9450878"><ele>485.0</ele><time>2026-04-19T12:07:57.991Z</time></trkpt><trkpt lat="43.4960767" lon="12.9451689"><ele>485.0</ele><time>2026-04-19T12:07:58.986Z</time></trkpt><trkpt lat="43.4961923" lon="12.9452344"><ele>477.5</ele><time>2026-04-19T12:07:59.995Z</time></trkpt><trkpt lat="43.4963168" lon="12.9452823"><ele>470.0</ele><time>2026-04-19T12:08:00.992Z</time></trkpt><trkpt lat="43.4964483" lon="12.9453043"><ele>462.5</ele><time>2026-04-19T12:08:01.993Z</time></trkpt><trkpt lat="43.4965807" lon="12.9453117"><ele>455.0</ele><time>2026-04-19T12:08:02.989Z</time></trkpt><trkpt lat="43.4967123" lon="12.9452905"><ele>455.0</ele><time>2026-04-19T12:08:03.99Z</time></trkpt><trkpt lat="43.4968374" lon="12.945247"><ele>455.0</ele><time>2026-04-19T12:08:04.987Z</time></trkpt><trkpt lat="43.496949" lon="12.9452024"><ele>455.0</ele><time>2026-04-19T12:08:05.992Z</time></trkpt><trkpt lat="43.4970399" lon="12.9451653"><ele>455.0</ele><time>2026-04-19T12:08:06.991Z</time></trkpt><trkpt lat="43.4971208" lon="12.9451174"><ele>455.0</ele><time>2026-04-19T12:08:07.989Z</time></trkpt><trkpt lat="43.4971889" lon="12.9450607"><ele>457.8</ele><time>2026-04-19T12:08:08.984Z</time></trkpt><trkpt lat="43.497238" lon="12.9450015"><ele>460.6</ele><time>2026-04-19T12:08:09.988Z</time></trkpt><trkpt lat="43.4972778" lon="12.9449256"><ele>463.4</ele><time>2026-04-19T12:08:10.987Z</time></trkpt><trkpt lat="43.4972235" lon="12.9447381"><ele>466.2</ele><time>2026-04-19T12:08:12.988Z</time></trkpt><trkpt lat="43.4971667" lon="12.9446177"><ele>469.0</ele><time>2026-04-19T12:08:13.988Z</time></trkpt><trkpt lat="43.4971019" lon="12.944483"><ele>474.2</ele><time>2026-04-19T12:08:14.991Z</time></trkpt><trkpt lat="43.4970312" lon="12.9443623"><ele>479.4</ele><time>2026-04-19T12:08:15.986Z</time></trkpt><trkpt lat="43.4969577" lon="12.9442619"><ele>484.6</ele><time>2026-04-19T12:08:16.984Z</time></trkpt><trkpt lat="43.4968673" lon="12.9441662"><ele>489.8</ele><time>2026-04-19T12:08:17.989Z</time></trkpt><trkpt lat="43.4967795" lon="12.9440569"><ele>495.0</ele><time>2026-04-19T12:08:18.987Z</time></trkpt><trkpt lat="43.4967014" lon="12.9439276"><ele>497.4</ele><time>2026-04-19T12:08:19.992Z</time></trkpt><trkpt lat="43.4966371" lon="12.943783"><ele>499.8</ele><time>2026-04-19T12:08:20.987Z</time></trkpt><trkpt lat="43.4966105" lon="12.9436474"><ele>502.20000000000005</ele><time>2026-04-19T12:08:21.991Z</time></trkpt><trkpt lat="43.4966093" lon="12.9435117"><ele>504.6</ele><time>2026-04-19T12:08:22.992Z</time></trkpt><trkpt lat="43.4966356" lon="12.9433721"><ele>507.0</ele><time>2026-04-19T12:08:23.989Z</time></trkpt><trkpt lat="43.4966924" lon="12.9432459"><ele>507.0</ele><time>2026-04-19T12:08:24.998Z</time></trkpt><trkpt lat="43.4967498" lon="12.9431302"><ele>507.00000000000006</ele><time>2026-04-19T12:08:25.989Z</time></trkpt><trkpt lat="43.4967654" lon="12.9429955"><ele>507.00000000000006</ele><time>2026-04-19T12:08:26.988Z</time></trkpt><trkpt lat="43.4967787" lon="12.9428548"><ele>507.0</ele><time>2026-04-19T12:08:27.99Z</time></trkpt><trkpt lat="43.4967889" lon="12.9427154"><ele>507.0</ele><time>2026-04-19T12:08:28.992Z</time></trkpt><trkpt lat="43.4967573" lon="12.9425357"><ele>508.0</ele><time>2026-04-19T12:08:29.991Z</time></trkpt><trkpt lat="43.4967306" lon="12.9423404"><ele>509.0</ele><time>2026-04-19T12:08:30.99Z</time></trkpt><trkpt lat="43.4967048" lon="12.942148"><ele>510.0</ele><time>2026-04-19T12:08:31.994Z</time></trkpt><trkpt lat="43.4966897" lon="12.9419679"><ele>511.0</ele><time>2026-04-19T12:08:32.992Z</time></trkpt><trkpt lat="43.4966774" lon="12.9417794"><ele>510.75</ele><time>2026-04-19T12:08:33.987Z</time></trkpt><trkpt lat="43.4966654" lon="12.9415894"><ele>510.5</ele><time>2026-04-19T12:08:34.982Z</time></trkpt><trkpt lat="43.4966574" lon="12.9414097"><ele>510.25</ele><time>2026-04-19T12:08:35.99Z</time></trkpt><trkpt lat="43.4966497" lon="12.9412221"><ele>510.0</ele><time>2026-04-19T12:08:36.987Z</time></trkpt><trkpt lat="43.4966468" lon="12.9410501"><ele>510.0</ele><time>2026-04-19T12:08:37.986Z</time></trkpt><trkpt lat="43.4966283" lon="12.9408945"><ele>510.0</ele><time>2026-04-19T12:08:38.991Z</time></trkpt><trkpt lat="43.496632" lon="12.940748"><ele>510.0</ele><time>2026-04-19T12:08:39.984Z</time></trkpt><trkpt lat="43.4966393" lon="12.9406231"><ele>510.0</ele><time>2026-04-19T12:08:40.989Z</time></trkpt><trkpt lat="43.4966491" lon="12.9405111"><ele>510.0</ele><time>2026-04-19T12:08:41.983Z</time></trkpt><trkpt lat="43.4966429" lon="12.9404058"><ele>509.8</ele><time>2026-04-19T12:08:42.985Z</time></trkpt><trkpt lat="43.4966492" lon="12.9403144"><ele>509.6</ele><time>2026-04-19T12:08:43.99Z</time></trkpt><trkpt lat="43.4966493" lon="12.9401337"><ele>509.4</ele><time>2026-04-19T12:08:45.993Z</time></trkpt><trkpt lat="43.4966445" lon="12.9400227"><ele>509.2</ele><time>2026-04-19T12:08:46.991Z</time></trkpt><trkpt lat="43.4966345" lon="12.9398812"><ele>509.0</ele><time>2026-04-19T12:08:47.988Z</time></trkpt><trkpt lat="43.4966406" lon="12.9397287"><ele>510.0</ele><time>2026-04-19T12:08:48.99Z</time></trkpt><trkpt lat="43.4966839" lon="12.9395799"><ele>511.0</ele><time>2026-04-19T12:08:49.988Z</time></trkpt><trkpt lat="43.4967538" lon="12.9394612"><ele>512.0</ele><time>2026-04-19T12:08:50.988Z</time></trkpt><trkpt lat="43.4968307" lon="12.9393696"><ele>513.0</ele><time>2026-04-19T12:08:51.985Z</time></trkpt><trkpt lat="43.4969214" lon="12.9393109"><ele>514.0</ele><time>2026-04-19T12:08:52.989Z</time></trkpt><trkpt lat="43.4970142" lon="12.9392626"><ele>514.3333333333334</ele><time>2026-04-19T12:08:53.995Z</time></trkpt><trkpt lat="43.4970953" lon="12.9392536"><ele>514.6666666666667</ele><time>2026-04-19T12:08:54.984Z</time></trkpt><trkpt lat="43.497165" lon="12.9392442"><ele>515.0</ele><time>2026-04-19T12:08:55.984Z</time></trkpt><trkpt lat="43.4972605" lon="12.9391851"><ele>515.3333333333334</ele><time>2026-04-19T12:08:57.993Z</time></trkpt><trkpt lat="43.4972719" lon="12.9390963"><ele>515.6666666666666</ele><time>2026-04-19T12:08:59.989Z</time></trkpt><trkpt lat="43.4971752" lon="12.9390251"><ele>516.0</ele><time>2026-04-19T12:09:01.984Z</time></trkpt><trkpt lat="43.4971175" lon="12.9389893"><ele>518.8</ele><time>2026-04-19T12:09:02.988Z</time></trkpt><trkpt lat="43.4970443" lon="12.9389411"><ele>521.6</ele><time>2026-04-19T12:09:03.995Z</time></trkpt><trkpt lat="43.4969361" lon="12.9388787"><ele>524.4</ele><time>2026-04-19T12:09:04.988Z</time></trkpt><trkpt lat="43.4968401" lon="12.9388068"><ele>527.2</ele><time>2026-04-19T12:09:05.988Z</time></trkpt><trkpt lat="43.4967372" lon="12.9387247"><ele>530.0</ele><time>2026-04-19T12:09:06.986Z</time></trkpt><trkpt lat="43.4966417" lon="12.9386291"><ele>530.0</ele><time>2026-04-19T12:09:07.985Z</time></trkpt><trkpt lat="43.496553" lon="12.9385242"><ele>530.0</ele><time>2026-04-19T12:09:08.989Z</time></trkpt><trkpt lat="43.4964767" lon="12.9383979"><ele>530.0</ele><time>2026-04-19T12:09:09.989Z</time></trkpt><trkpt lat="43.4964233" lon="12.9382681"><ele>530.0</ele><time>2026-04-19T12:09:10.99Z</time></trkpt><trkpt lat="43.4963773" lon="12.9381302"><ele>533.6</ele><time>2026-04-19T12:09:11.992Z</time></trkpt><trkpt lat="43.4963395" lon="12.9379883"><ele>537.2</ele><time>2026-04-19T12:09:12.99Z</time></trkpt><trkpt lat="43.4963227" lon="12.9378443"><ele>540.8</ele><time>2026-04-19T12:09:13.992Z</time></trkpt><trkpt lat="43.4963224" lon="12.937703"><ele>544.4</ele><time>2026-04-19T12:09:14.993Z</time></trkpt><trkpt lat="43.4963081" lon="12.9375957"><ele>548.0</ele><time>2026-04-19T12:09:15.987Z</time></trkpt><trkpt lat="43.4962941" lon="12.9374516"><ele>549.0</ele><time>2026-04-19T12:09:16.991Z</time></trkpt><trkpt lat="43.4962793" lon="12.9373309"><ele>550.0</ele><time>2026-04-19T12:09:17.988Z</time></trkpt><trkpt lat="43.4962717" lon="12.9371998"><ele>551.0</ele><time>2026-04-19T12:09:18.99Z</time></trkpt><trkpt lat="43.49629" lon="12.9370694"><ele>552.0</ele><time>2026-04-19T12:09:19.989Z</time></trkpt><trkpt lat="43.4962939" lon="12.9369298"><ele>553.0</ele><time>2026-04-19T12:09:20.988Z</time></trkpt><trkpt lat="43.4963081" lon="12.9368107"><ele>553.0</ele><time>2026-04-19T12:09:21.992Z</time></trkpt><trkpt lat="43.496306" lon="12.9367197"><ele>553.0</ele><time>2026-04-19T12:09:22.988Z</time></trkpt><trkpt lat="43.4962981" lon="12.9366035"><ele>553.0</ele><time>2026-04-19T12:09:24.986Z</time></trkpt><trkpt lat="43.4962383" lon="12.9365287"><ele>553.0</ele><time>2026-04-19T12:09:26.984Z</time></trkpt><trkpt lat="43.4961769" lon="12.9364821"><ele>553.0</ele><time>2026-04-19T12:09:27.988Z</time></trkpt><trkpt lat="43.4960978" lon="12.9364338"><ele>553.0</ele><time>2026-04-19T12:09:28.995Z</time></trkpt><trkpt lat="43.4960197" lon="12.9363757"><ele>552.5</ele><time>2026-04-19T12:09:29.987Z</time></trkpt><trkpt lat="43.4959174" lon="12.9362958"><ele>552.0</ele><time>2026-04-19T12:09:30.979Z</time></trkpt><trkpt lat="43.4958112" lon="12.9362011"><ele>551.5</ele><time>2026-04-19T12:09:31.983Z</time></trkpt><trkpt lat="43.4957038" lon="12.9360976"><ele>551.0</ele><time>2026-04-19T12:09:32.983Z</time></trkpt><trkpt lat="43.4956065" lon="12.935988"><ele>553.75</ele><time>2026-04-19T12:09:33.989Z</time></trkpt><trkpt lat="43.4955182" lon="12.9358727"><ele>556.5</ele><time>2026-04-19T12:09:34.989Z</time></trkpt><trkpt lat="43.4954419" lon="12.9357579"><ele>559.25</ele><time>2026-04-19T12:09:35.987Z</time></trkpt><trkpt lat="43.4953687" lon="12.9356402"><ele>562.0</ele><time>2026-04-19T12:09:36.988Z</time></trkpt><trkpt lat="43.495309" lon="12.9355212"><ele>562.0</ele><time>2026-04-19T12:09:37.987Z</time></trkpt><trkpt lat="43.4952528" lon="12.9353944"><ele>562.0</ele><time>2026-04-19T12:09:38.998Z</time></trkpt><trkpt lat="43.4951957" lon="12.9352674"><ele>562.0</ele><time>2026-04-19T12:09:39.986Z</time></trkpt><trkpt lat="43.4951477" lon="12.9351168"><ele>562.0</ele><time>2026-04-19T12:09:40.993Z</time></trkpt><trkpt lat="43.4951089" lon="12.9349397"><ele>558.0</ele><time>2026-04-19T12:09:41.99Z</time></trkpt><trkpt lat="43.4950775" lon="12.9347592"><ele>554.0</ele><time>2026-04-19T12:09:42.986Z</time></trkpt><trkpt lat="43.4950763" lon="12.9345575"><ele>550.0</ele><time>2026-04-19T12:09:43.986Z</time></trkpt><trkpt lat="43.4951171" lon="12.9343695"><ele>546.0</ele><time>2026-04-19T12:09:44.992Z</time></trkpt><trkpt lat="43.4951716" lon="12.9341669"><ele>546.0</ele><time>2026-04-19T12:09:45.995Z</time></trkpt><trkpt lat="43.4952295" lon="12.9339651"><ele>546.0</ele><time>2026-04-19T12:09:46.988Z</time></trkpt><trkpt lat="43.4952753" lon="12.9337377"><ele>546.0</ele><time>2026-04-19T12:09:47.985Z</time></trkpt><trkpt lat="43.4953106" lon="12.9335094"><ele>549.3333333333334</ele><time>2026-04-19T12:09:48.993Z</time></trkpt><trkpt lat="43.4953407" lon="12.9333004"><ele>552.6666666666667</ele><time>2026-04-19T12:09:49.986Z</time></trkpt><trkpt lat="43.4953683" lon="12.9330937"><ele>556.0</ele><time>2026-04-19T12:09:50.988Z</time></trkpt><trkpt lat="43.4954038" lon="12.9328977"><ele>556.0</ele><time>2026-04-19T12:09:52Z</time></trkpt><trkpt lat="43.4954163" lon="12.9327066"><ele>556.0</ele><time>2026-04-19T12:09:52.991Z</time></trkpt><trkpt lat="43.4954199" lon="12.9325143"><ele>556.0</ele><time>2026-04-19T12:09:53.993Z</time></trkpt><trkpt lat="43.4953322" lon="12.9322982"><ele>555.3333333333334</ele><time>2026-04-19T12:09:54.99Z</time></trkpt><trkpt lat="43.4952605" lon="12.932083"><ele>554.6666666666666</ele><time>2026-04-19T12:09:55.988Z</time></trkpt><trkpt lat="43.4951908" lon="12.9318572"><ele>554.0</ele><time>2026-04-19T12:09:56.984Z</time></trkpt><trkpt lat="43.4951078" lon="12.9316284"><ele>548.3333333333333</ele><time>2026-04-19T12:09:57.989Z</time></trkpt><trkpt lat="43.4950313" lon="12.9314027"><ele>542.6666666666666</ele><time>2026-04-19T12:09:58.986Z</time></trkpt><trkpt lat="43.4949532" lon="12.9311776"><ele>537.0</ele><time>2026-04-19T12:09:59.985Z</time></trkpt><trkpt lat="43.4948631" lon="12.9309509"><ele>531.0</ele><time>2026-04-19T12:10:00.988Z</time></trkpt><trkpt lat="43.4947786" lon="12.9307171"><ele>525.0</ele><time>2026-04-19T12:10:01.99Z</time></trkpt><trkpt lat="43.4946849" lon="12.9304819"><ele>519.0</ele><time>2026-04-19T12:10:02.982Z</time></trkpt><trkpt lat="43.4946013" lon="12.9302596"><ele>523.0</ele><time>2026-04-19T12:10:03.991Z</time></trkpt><trkpt lat="43.4945211" lon="12.9300497"><ele>527.0</ele><time>2026-04-19T12:10:04.988Z</time></trkpt><trkpt lat="43.4944395" lon="12.9298508"><ele>531.0</ele><time>2026-04-19T12:10:05.988Z</time></trkpt><trkpt lat="43.4943418" lon="12.9296696"><ele>531.0</ele><time>2026-04-19T12:10:06.996Z</time></trkpt><trkpt lat="43.4942441" lon="12.9295264"><ele>531.0</ele><time>2026-04-19T12:10:07.988Z</time></trkpt><trkpt lat="43.4941406" lon="12.9294306"><ele>531.0</ele><time>2026-04-19T12:10:08.995Z</time></trkpt><trkpt lat="43.4940301" lon="12.9293644"><ele>531.0</ele><time>2026-04-19T12:10:09.993Z</time></trkpt><trkpt lat="43.4938942" lon="12.9293505"><ele>531.0</ele><time>2026-04-19T12:10:10.989Z</time></trkpt><trkpt lat="43.4937667" lon="12.9293509"><ele>531.0</ele><time>2026-04-19T12:10:11.991Z</time></trkpt><trkpt lat="43.493642" lon="12.9293903"><ele>531.0</ele><time>2026-04-19T12:10:12.992Z</time></trkpt><trkpt lat="43.4934463" lon="12.9296274"><ele>529.3333333333334</ele><time>2026-04-19T12:10:13.991Z</time></trkpt><trkpt lat="43.4932967" lon="12.9297717"><ele>527.6666666666667</ele><time>2026-04-19T12:10:14.99Z</time></trkpt><trkpt lat="43.493147" lon="12.9299172"><ele>526.0</ele><time>2026-04-19T12:10:15.991Z</time></trkpt><trkpt lat="43.4929915" lon="12.9301231"><ele>526.3333333333334</ele><time>2026-04-19T12:10:16.989Z</time></trkpt><trkpt lat="43.4928338" lon="12.9303033"><ele>526.6666666666666</ele><time>2026-04-19T12:10:17.991Z</time></trkpt><trkpt lat="43.4926582" lon="12.9304459"><ele>527.0</ele><time>2026-04-19T12:10:18.998Z</time></trkpt><trkpt lat="43.4924746" lon="12.9305769"><ele>527.0</ele><time>2026-04-19T12:10:19.991Z</time></trkpt><trkpt lat="43.4923042" lon="12.9306593"><ele>527.0</ele><time>2026-04-19T12:10:20.99Z</time></trkpt><trkpt lat="43.4921379" lon="12.9307031"><ele>527.0</ele><time>2026-04-19T12:10:21.996Z</time></trkpt><trkpt lat="43.4919827" lon="12.9307142"><ele>527.5</ele><time>2026-04-19T12:10:22.981Z</time></trkpt><trkpt lat="43.4918333" lon="12.9307109"><ele>528.0</ele><time>2026-04-19T12:10:23.993Z</time></trkpt><trkpt lat="43.4916936" lon="12.9307656"><ele>528.5</ele><time>2026-04-19T12:10:24.986Z</time></trkpt><trkpt lat="43.4915525" lon="12.9308525"><ele>529.0</ele><time>2026-04-19T12:10:25.988Z</time></trkpt><trkpt lat="43.4914152" lon="12.9309437"><ele>529.0</ele><time>2026-04-19T12:10:26.986Z</time></trkpt><trkpt lat="43.4913103" lon="12.9311286"><ele>529.0</ele><time>2026-04-19T12:10:27.999Z</time></trkpt><trkpt lat="43.4911959" lon="12.9313282"><ele>529.0</ele><time>2026-04-19T12:10:28.991Z</time></trkpt><trkpt lat="43.4910827" lon="12.9315542"><ele>518.6666666666667</ele><time>2026-04-19T12:10:29.99Z</time></trkpt><trkpt lat="43.4909852" lon="12.9317964"><ele>508.33333333333337</ele><time>2026-04-19T12:10:30.995Z</time></trkpt><trkpt lat="43.4909182" lon="12.9320648"><ele>498.0</ele><time>2026-04-19T12:10:31.989Z</time></trkpt><trkpt lat="43.4908658" lon="12.9323409"><ele>503.66666666666663</ele><time>2026-04-19T12:10:32.991Z</time></trkpt><trkpt lat="43.4907874" lon="12.9325896"><ele>509.3333333333333</ele><time>2026-04-19T12:10:33.992Z</time></trkpt><trkpt lat="43.4907092" lon="12.9328291"><ele>515.0</ele><time>2026-04-19T12:10:34.988Z</time></trkpt><trkpt lat="43.4906125" lon="12.933041"><ele>515.0</ele><time>2026-04-19T12:10:35.994Z</time></trkpt><trkpt lat="43.4905134" lon="12.9332396"><ele>515.0</ele><time>2026-04-19T12:10:36.987Z</time></trkpt><trkpt lat="43.4903967" lon="12.9334"><ele>515.0</ele><time>2026-04-19T12:10:37.992Z</time></trkpt><trkpt lat="43.4902658" lon="12.9335341"><ele>510.66666666666663</ele><time>2026-04-19T12:10:38.993Z</time></trkpt><trkpt lat="43.4901344" lon="12.9336788"><ele>506.33333333333337</ele><time>2026-04-19T12:10:39.992Z</time></trkpt><trkpt lat="43.490004" lon="12.9338033"><ele>502.0</ele><time>2026-04-19T12:10:40.99Z</time></trkpt><trkpt lat="43.4898756" lon="12.9339154"><ele>502.0</ele><time>2026-04-19T12:10:41.994Z</time></trkpt><trkpt lat="43.4897629" lon="12.9340286"><ele>502.0</ele><time>2026-04-19T12:10:42.989Z</time></trkpt><trkpt lat="43.489668" lon="12.9341319"><ele>502.0</ele><time>2026-04-19T12:10:43.988Z</time></trkpt><trkpt lat="43.4895848" lon="12.934209"><ele>502.0</ele><time>2026-04-19T12:10:44.989Z</time></trkpt><trkpt lat="43.489497" lon="12.9342631"><ele>498.0</ele><time>2026-04-19T12:10:45.99Z</time></trkpt><trkpt lat="43.4894049" lon="12.934298"><ele>494.00000000000006</ele><time>2026-04-19T12:10:46.993Z</time></trkpt><trkpt lat="43.4893564" lon="12.9342312"><ele>490.00000000000006</ele><time>2026-04-19T12:10:47.99Z</time></trkpt><trkpt lat="43.4894222" lon="12.9339909"><ele>486.0</ele><time>2026-04-19T12:10:48.996Z</time></trkpt><trkpt lat="43.4894532" lon="12.9338706"><ele>482.0</ele><time>2026-04-19T12:10:49.987Z</time></trkpt><trkpt lat="43.4895194" lon="12.9337614"><ele>488.66666666666663</ele><time>2026-04-19T12:10:50.988Z</time></trkpt><trkpt lat="43.4896183" lon="12.9336899"><ele>495.33333333333337</ele><time>2026-04-19T12:10:51.99Z</time></trkpt><trkpt lat="43.4898198" lon="12.9336351"><ele>502.0</ele><time>2026-04-19T12:10:52.991Z</time></trkpt><trkpt lat="43.4899457" lon="12.9335512"><ele>502.0</ele><time>2026-04-19T12:10:53.985Z</time></trkpt><trkpt lat="43.4900516" lon="12.9334432"><ele>502.0</ele><time>2026-04-19T12:10:54.986Z</time></trkpt><trkpt lat="43.490162" lon="12.9333216"><ele>502.0</ele><time>2026-04-19T12:10:55.988Z</time></trkpt><trkpt lat="43.4902604" lon="12.9331787"><ele>502.0</ele><time>2026-04-19T12:10:56.989Z</time></trkpt><trkpt lat="43.4903354" lon="12.9330143"><ele>500.6666666666667</ele><time>2026-04-19T12:10:57.985Z</time></trkpt><trkpt lat="43.4904044" lon="12.9328284"><ele>499.33333333333337</ele><time>2026-04-19T12:10:58.99Z</time></trkpt><trkpt lat="43.4904583" lon="12.9326178"><ele>498.0</ele><time>2026-04-19T12:10:59.992Z</time></trkpt><trkpt lat="43.4904958" lon="12.9323957"><ele>498.0</ele><time>2026-04-19T12:11:00.988Z</time></trkpt><trkpt lat="43.4905332" lon="12.9321724"><ele>498.0</ele><time>2026-04-19T12:11:01.99Z</time></trkpt><trkpt lat="43.4905808" lon="12.9319414"><ele>498.0</ele><time>2026-04-19T12:11:02.991Z</time></trkpt><trkpt lat="43.4906172" lon="12.9317183"><ele>494.0</ele><time>2026-04-19T12:11:03.989Z</time></trkpt><trkpt lat="43.4906596" lon="12.9315095"><ele>490.0</ele><time>2026-04-19T12:11:04.987Z</time></trkpt><trkpt lat="43.4906901" lon="12.9312923"><ele>486.0</ele><time>2026-04-19T12:11:05.985Z</time></trkpt><trkpt lat="43.4907278" lon="12.9310801"><ele>481.66666666666663</ele><time>2026-04-19T12:11:06.987Z</time></trkpt><trkpt lat="43.4907638" lon="12.9308745"><ele>477.3333333333333</ele><time>2026-04-19T12:11:07.982Z</time></trkpt><trkpt lat="43.4908025" lon="12.9306713"><ele>473.0</ele><time>2026-04-19T12:11:08.988Z</time></trkpt><trkpt lat="43.4908401" lon="12.9304749"><ele>473.0</ele><time>2026-04-19T12:11:09.99Z</time></trkpt><trkpt lat="43.4908748" lon="12.9302897"><ele>473.0</ele><time>2026-04-19T12:11:10.992Z</time></trkpt><trkpt lat="43.4909037" lon="12.9301181"><ele>473.0</ele><time>2026-04-19T12:11:11.986Z</time></trkpt><trkpt lat="43.4909252" lon="12.929957"><ele>473.0</ele><time>2026-04-19T12:11:12.992Z</time></trkpt><trkpt lat="43.4909434" lon="12.9298107"><ele>471.3333333333333</ele><time>2026-04-19T12:11:13.992Z</time></trkpt><trkpt lat="43.4909515" lon="12.9296858"><ele>469.66666666666663</ele><time>2026-04-19T12:11:14.988Z</time></trkpt><trkpt lat="43.4909638" lon="12.9295889"><ele>468.0</ele><time>2026-04-19T12:11:15.986Z</time></trkpt><trkpt lat="43.4909446" lon="12.9294844"><ele>466.33333333333337</ele><time>2026-04-19T12:11:17.997Z</time></trkpt><trkpt lat="43.4908834" lon="12.9295347"><ele>464.6666666666667</ele><time>2026-04-19T12:11:20.99Z</time></trkpt><trkpt lat="43.4908741" lon="12.9296986"><ele>463.0</ele><time>2026-04-19T12:11:22.993Z</time></trkpt><trkpt lat="43.4908508" lon="12.9298088"><ele>463.0</ele><time>2026-04-19T12:11:23.988Z</time></trkpt><trkpt lat="43.4908177" lon="12.9299344"><ele>463.0</ele><time>2026-04-19T12:11:24.988Z</time></trkpt><trkpt lat="43.4907726" lon="12.9300796"><ele>463.0</ele><time>2026-04-19T12:11:25.987Z</time></trkpt><trkpt lat="43.4907273" lon="12.930239"><ele>463.0</ele><time>2026-04-19T12:11:26.988Z</time></trkpt><trkpt lat="43.4906737" lon="12.9304065"><ele>466.33333333333337</ele><time>2026-04-19T12:11:27.988Z</time></trkpt><trkpt lat="43.4906173" lon="12.9305872"><ele>469.66666666666663</ele><time>2026-04-19T12:11:28.99Z</time></trkpt><trkpt lat="43.4905525" lon="12.9307858"><ele>473.0</ele><time>2026-04-19T12:11:29.989Z</time></trkpt><trkpt lat="43.4904879" lon="12.9309777"><ele>476.25</ele><time>2026-04-19T12:11:30.992Z</time></trkpt><trkpt lat="43.4904257" lon="12.9311591"><ele>479.5</ele><time>2026-04-19T12:11:31.994Z</time></trkpt><trkpt lat="43.4903677" lon="12.9313424"><ele>482.75</ele><time>2026-04-19T12:11:32.985Z</time></trkpt><trkpt lat="43.49031" lon="12.9315282"><ele>486.0</ele><time>2026-04-19T12:11:33.993Z</time></trkpt><trkpt lat="43.4902586" lon="12.9316906"><ele>479.20000000000005</ele><time>2026-04-19T12:11:34.988Z</time></trkpt><trkpt lat="43.4902182" lon="12.9318579"><ele>472.40000000000003</ele><time>2026-04-19T12:11:35.986Z</time></trkpt><trkpt lat="43.490203" lon="12.9320078"><ele>465.6</ele><time>2026-04-19T12:11:36.985Z</time></trkpt><trkpt lat="43.490196" lon="12.9321409"><ele>458.8</ele><time>2026-04-19T12:11:37.987Z</time></trkpt><trkpt lat="43.4901788" lon="12.9322431"><ele>452.0</ele><time>2026-04-19T12:11:38.992Z</time></trkpt><trkpt lat="43.4901425" lon="12.932317"><ele>452.0</ele><time>2026-04-19T12:11:39.993Z</time></trkpt><trkpt lat="43.4900593" lon="12.9322392"><ele>452.00000000000006</ele><time>2026-04-19T12:11:41.984Z</time></trkpt><trkpt lat="43.4900586" lon="12.9321397"><ele>452.00000000000006</ele><time>2026-04-19T12:11:42.989Z</time></trkpt><trkpt lat="43.4900833" lon="12.9320028"><ele>452.0</ele><time>2026-04-19T12:11:43.986Z</time></trkpt><trkpt lat="43.4901145" lon="12.9318467"><ele>452.0</ele><time>2026-04-19T12:11:44.984Z</time></trkpt><trkpt lat="43.4901441" lon="12.931691"><ele>449.6</ele><time>2026-04-19T12:11:45.988Z</time></trkpt><trkpt lat="43.4901716" lon="12.931546"><ele>447.20000000000005</ele><time>2026-04-19T12:11:46.986Z</time></trkpt><trkpt lat="43.4901997" lon="12.9314039"><ele>444.8</ele><time>2026-04-19T12:11:47.981Z</time></trkpt><trkpt lat="43.4902212" lon="12.931285"><ele>442.4</ele><time>2026-04-19T12:11:48.99Z</time></trkpt><trkpt lat="43.4902225" lon="12.9311713"><ele>440.0</ele><time>2026-04-19T12:11:49.987Z</time></trkpt><trkpt lat="43.4901866" lon="12.9310849"><ele>440.0</ele><time>2026-04-19T12:11:50.992Z</time></trkpt><trkpt lat="43.4901223" lon="12.931072"><ele>440.0</ele><time>2026-04-19T12:11:51.992Z</time></trkpt><trkpt lat="43.49002" lon="12.9310605"><ele>440.0</ele><time>2026-04-19T12:11:53.99Z</time></trkpt><trkpt lat="43.4900206" lon="12.9312815"><ele>440.0</ele><time>2026-04-19T12:11:55Z</time></trkpt><trkpt lat="43.4900048" lon="12.9314772"><ele>440.0</ele><time>2026-04-19T12:11:55.987Z</time></trkpt><trkpt lat="43.4899838" lon="12.9316505"><ele>440.0</ele><time>2026-04-19T12:11:56.987Z</time></trkpt><trkpt lat="43.4899553" lon="12.9318223"><ele>440.0</ele><time>2026-04-19T12:11:57.991Z</time></trkpt><trkpt lat="43.4898867" lon="12.9319751"><ele>440.0</ele><time>2026-04-19T12:11:58.983Z</time></trkpt><trkpt lat="43.4898235" lon="12.9321287"><ele>440.25</ele><time>2026-04-19T12:11:59.992Z</time></trkpt><trkpt lat="43.4897608" lon="12.9322678"><ele>440.5</ele><time>2026-04-19T12:12:00.989Z</time></trkpt><trkpt lat="43.4896947" lon="12.9324072"><ele>440.75</ele><time>2026-04-19T12:12:01.991Z</time></trkpt><trkpt lat="43.489619" lon="12.9325477"><ele>441.0</ele><time>2026-04-19T12:12:02.99Z</time></trkpt><trkpt lat="43.4895214" lon="12.932668"><ele>441.0</ele><time>2026-04-19T12:12:03.982Z</time></trkpt><trkpt lat="43.4894075" lon="12.9327849"><ele>441.0</ele><time>2026-04-19T12:12:04.988Z</time></trkpt><trkpt lat="43.4892724" lon="12.9328617"><ele>441.0</ele><time>2026-04-19T12:12:05.993Z</time></trkpt><trkpt lat="43.4891334" lon="12.9329552"><ele>441.0</ele><time>2026-04-19T12:12:06.987Z</time></trkpt><trkpt lat="43.4889835" lon="12.9330589"><ele>441.0</ele><time>2026-04-19T12:12:07.988Z</time></trkpt><trkpt lat="43.4888419" lon="12.9331605"><ele>441.0</ele><time>2026-04-19T12:12:08.982Z</time></trkpt><trkpt lat="43.4887067" lon="12.9332709"><ele>441.0</ele><time>2026-04-19T12:12:09.991Z</time></trkpt><trkpt lat="43.4885772" lon="12.9333808"><ele>440.25</ele><time>2026-04-19T12:12:10.983Z</time></trkpt><trkpt lat="43.4884583" lon="12.9335119"><ele>439.5</ele><time>2026-04-19T12:12:11.993Z</time></trkpt><trkpt lat="43.4883411" lon="12.9336265"><ele>438.75</ele><time>2026-04-19T12:12:12.986Z</time></trkpt><trkpt lat="43.4882308" lon="12.9337425"><ele>438.0</ele><time>2026-04-19T12:12:13.986Z</time></trkpt><trkpt lat="43.4881022" lon="12.9337666"><ele>438.0</ele><time>2026-04-19T12:12:14.986Z</time></trkpt><trkpt lat="43.487966" lon="12.9338159"><ele>438.0</ele><time>2026-04-19T12:12:15.983Z</time></trkpt><trkpt lat="43.4878106" lon="12.9338284"><ele>438.0</ele><time>2026-04-19T12:12:16.99Z</time></trkpt><trkpt lat="43.4876538" lon="12.9338468"><ele>432.66666666666663</ele><time>2026-04-19T12:12:17.981Z</time></trkpt><trkpt lat="43.4874951" lon="12.9338787"><ele>427.3333333333333</ele><time>2026-04-19T12:12:18.984Z</time></trkpt><trkpt lat="43.4873301" lon="12.9339308"><ele>422.0</ele><time>2026-04-19T12:12:19.984Z</time></trkpt><trkpt lat="43.4871769" lon="12.9339967"><ele>421.3333333333333</ele><time>2026-04-19T12:12:20.988Z</time></trkpt><trkpt lat="43.4870117" lon="12.9340837"><ele>420.66666666666663</ele><time>2026-04-19T12:12:21.982Z</time></trkpt><trkpt lat="43.4868627" lon="12.9341826"><ele>420.0</ele><time>2026-04-19T12:12:22.988Z</time></trkpt><trkpt lat="43.4867156" lon="12.9342995"><ele>420.0</ele><time>2026-04-19T12:12:23.984Z</time></trkpt><trkpt lat="43.4865766" lon="12.9344178"><ele>420.0</ele><time>2026-04-19T12:12:24.984Z</time></trkpt><trkpt lat="43.4864436" lon="12.9345516"><ele>420.0</ele><time>2026-04-19T12:12:25.984Z</time></trkpt><trkpt lat="43.4863069" lon="12.9346763"><ele>410.33333333333337</ele><time>2026-04-19T12:12:26.984Z</time></trkpt><trkpt lat="43.4861661" lon="12.9347893"><ele>400.6666666666667</ele><time>2026-04-19T12:12:27.99Z</time></trkpt><trkpt lat="43.4860244" lon="12.9348792"><ele>391.0</ele><time>2026-04-19T12:12:28.989Z</time></trkpt><trkpt lat="43.4858772" lon="12.934917"><ele>391.0</ele><time>2026-04-19T12:12:29.986Z</time></trkpt><trkpt lat="43.4857422" lon="12.9349889"><ele>391.0</ele><time>2026-04-19T12:12:30.989Z</time></trkpt><trkpt lat="43.4856113" lon="12.9350813"><ele>391.0</ele><time>2026-04-19T12:12:31.989Z</time></trkpt><trkpt lat="43.4854756" lon="12.9352133"><ele>390.33333333333337</ele><time>2026-04-19T12:12:32.99Z</time></trkpt><trkpt lat="43.485348" lon="12.935343"><ele>389.66666666666663</ele><time>2026-04-19T12:12:33.984Z</time></trkpt><trkpt lat="43.4852143" lon="12.9354583"><ele>389.0</ele><time>2026-04-19T12:12:34.994Z</time></trkpt><trkpt lat="43.4850657" lon="12.9355524"><ele>389.0</ele><time>2026-04-19T12:12:35.986Z</time></trkpt><trkpt lat="43.4849149" lon="12.9356214"><ele>389.0</ele><time>2026-04-19T12:12:36.99Z</time></trkpt><trkpt lat="43.4847743" lon="12.9356814"><ele>389.0</ele><time>2026-04-19T12:12:37.993Z</time></trkpt><trkpt lat="43.4846461" lon="12.9357731"><ele>386.3333333333333</ele><time>2026-04-19T12:12:38.983Z</time></trkpt><trkpt lat="43.4845171" lon="12.9358985"><ele>383.66666666666663</ele><time>2026-04-19T12:12:39.988Z</time></trkpt><trkpt lat="43.4843901" lon="12.9360355"><ele>381.0</ele><time>2026-04-19T12:12:40.991Z</time></trkpt><trkpt lat="43.4842671" lon="12.9361554"><ele>381.0</ele><time>2026-04-19T12:12:41.994Z</time></trkpt><trkpt lat="43.4841457" lon="12.9362542"><ele>381.0</ele><time>2026-04-19T12:12:42.984Z</time></trkpt><trkpt lat="43.4840383" lon="12.9363414"><ele>381.0</ele><time>2026-04-19T12:12:43.983Z</time></trkpt><trkpt lat="43.4839357" lon="12.9364331"><ele>381.0</ele><time>2026-04-19T12:12:44.986Z</time></trkpt><trkpt lat="43.483873" lon="12.936538"><ele>381.0</ele><time>2026-04-19T12:12:45.985Z</time></trkpt><trkpt lat="43.483864" lon="12.9366626"><ele>381.0</ele><time>2026-04-19T12:12:46.992Z</time></trkpt><trkpt lat="43.4838133" lon="12.9367245"><ele>381.0</ele><time>2026-04-19T12:12:47.989Z</time></trkpt><trkpt lat="43.4837617" lon="12.936776"><ele>381.0</ele><time>2026-04-19T12:12:48.989Z</time></trkpt><trkpt lat="43.4837119" lon="12.9366876"><ele>381.0</ele><time>2026-04-19T12:12:49.994Z</time></trkpt><trkpt lat="43.483696" lon="12.9365323"><ele>381.0</ele><time>2026-04-19T12:12:51.989Z</time></trkpt><trkpt lat="43.4838617" lon="12.9363887"><ele>381.0</ele><time>2026-04-19T12:12:52.991Z</time></trkpt><trkpt lat="43.4839598" lon="12.9362532"><ele>381.0</ele><time>2026-04-19T12:12:53.991Z</time></trkpt><trkpt lat="43.4840598" lon="12.9361058"><ele>381.0</ele><time>2026-04-19T12:12:54.989Z</time></trkpt><trkpt lat="43.4841585" lon="12.9359491"><ele>381.0</ele><time>2026-04-19T12:12:55.985Z</time></trkpt><trkpt lat="43.4842099" lon="12.9358074"><ele>377.5</ele><time>2026-04-19T12:12:56.987Z</time></trkpt><trkpt lat="43.4842638" lon="12.935675"><ele>374.0</ele><time>2026-04-19T12:12:57.99Z</time></trkpt><trkpt lat="43.4843043" lon="12.9355519"><ele>370.5</ele><time>2026-04-19T12:12:58.988Z</time></trkpt><trkpt lat="43.4843054" lon="12.9354399"><ele>367.0</ele><time>2026-04-19T12:12:59.988Z</time></trkpt><trkpt lat="43.484273" lon="12.9353579"><ele>363.5</ele><time>2026-04-19T12:13:00.983Z</time></trkpt><trkpt lat="43.4842107" lon="12.9353327"><ele>360.0</ele><time>2026-04-19T12:13:01.987Z</time></trkpt><trkpt lat="43.4841404" lon="12.9353696"><ele>360.0</ele><time>2026-04-19T12:13:02.987Z</time></trkpt><trkpt lat="43.4840774" lon="12.9354338"><ele>360.0</ele><time>2026-04-19T12:13:03.985Z</time></trkpt><trkpt lat="43.4840333" lon="12.9356006"><ele>360.0</ele><time>2026-04-19T12:13:04.991Z</time></trkpt><trkpt lat="43.483984" lon="12.9357901"><ele>360.0</ele><time>2026-04-19T12:13:05.989Z</time></trkpt><trkpt lat="43.4838801" lon="12.9359159"><ele>355.6666666666667</ele><time>2026-04-19T12:13:06.985Z</time></trkpt><trkpt lat="43.4837426" lon="12.9360069"><ele>351.33333333333337</ele><time>2026-04-19T12:13:07.984Z</time></trkpt><trkpt lat="43.4835904" lon="12.9360891"><ele>347.0</ele><time>2026-04-19T12:13:08.985Z</time></trkpt><trkpt lat="43.4834473" lon="12.93617"><ele>347.0</ele><time>2026-04-19T12:13:09.989Z</time></trkpt><trkpt lat="43.4833021" lon="12.9362506"><ele>347.0</ele><time>2026-04-19T12:13:10.991Z</time></trkpt><trkpt lat="43.4831651" lon="12.9363166"><ele>347.0</ele><time>2026-04-19T12:13:11.984Z</time></trkpt><trkpt lat="43.483038" lon="12.9364095"><ele>347.0</ele><time>2026-04-19T12:13:12.991Z</time></trkpt><trkpt lat="43.4829234" lon="12.9365303"><ele>342.5</ele><time>2026-04-19T12:13:13.988Z</time></trkpt><trkpt lat="43.4828345" lon="12.9366936"><ele>338.0</ele><time>2026-04-19T12:13:14.989Z</time></trkpt><trkpt lat="43.4827543" lon="12.936852"><ele>333.5</ele><time>2026-04-19T12:13:15.998Z</time></trkpt><trkpt lat="43.4826631" lon="12.9370067"><ele>329.0</ele><time>2026-04-19T12:13:16.991Z</time></trkpt><trkpt lat="43.4825609" lon="12.9371571"><ele>329.0</ele><time>2026-04-19T12:13:17.99Z</time></trkpt><trkpt lat="43.4824653" lon="12.9372977"><ele>329.0</ele><time>2026-04-19T12:13:18.993Z</time></trkpt><trkpt lat="43.4823932" lon="12.9374701"><ele>329.0</ele><time>2026-04-19T12:13:19.989Z</time></trkpt><trkpt lat="43.4823561" lon="12.9376441"><ele>329.0</ele><time>2026-04-19T12:13:20.993Z</time></trkpt><trkpt lat="43.4823339" lon="12.9378177"><ele>329.75</ele><time>2026-04-19T12:13:21.986Z</time></trkpt><trkpt lat="43.4823295" lon="12.9380091"><ele>330.5</ele><time>2026-04-19T12:13:22.982Z</time></trkpt><trkpt lat="43.4823142" lon="12.9381995"><ele>331.25</ele><time>2026-04-19T12:13:23.994Z</time></trkpt><trkpt lat="43.4822822" lon="12.9383836"><ele>332.0</ele><time>2026-04-19T12:13:24.989Z</time></trkpt><trkpt lat="43.4822444" lon="12.9385424"><ele>332.0</ele><time>2026-04-19T12:13:25.988Z</time></trkpt><trkpt lat="43.482201" lon="12.9386996"><ele>332.0</ele><time>2026-04-19T12:13:26.991Z</time></trkpt><trkpt lat="43.4821572" lon="12.9388562"><ele>332.0</ele><time>2026-04-19T12:13:27.993Z</time></trkpt><trkpt lat="43.4821274" lon="12.9390152"><ele>332.0</ele><time>2026-04-19T12:13:28.981Z</time></trkpt><trkpt lat="43.4821136" lon="12.9391607"><ele>330.0</ele><time>2026-04-19T12:13:29.985Z</time></trkpt><trkpt lat="43.4821188" lon="12.9393075"><ele>328.0</ele><time>2026-04-19T12:13:30.987Z</time></trkpt><trkpt lat="43.4821504" lon="12.9394458"><ele>326.0</ele><time>2026-04-19T12:13:31.983Z</time></trkpt><trkpt lat="43.4821953" lon="12.9395589"><ele>324.0</ele><time>2026-04-19T12:13:32.988Z</time></trkpt><trkpt lat="43.4822372" lon="12.9396734"><ele>322.0</ele><time>2026-04-19T12:13:33.997Z</time></trkpt><trkpt lat="43.482247" lon="12.9397866"><ele>322.0</ele><time>2026-04-19T12:13:34.998Z</time></trkpt><trkpt lat="43.4822367" lon="12.9398844"><ele>322.0</ele><time>2026-04-19T12:13:35.996Z</time></trkpt><trkpt lat="43.4822037" lon="12.9399703"><ele>322.0</ele><time>2026-04-19T12:13:36.99Z</time></trkpt><trkpt lat="43.4821524" lon="12.9400476"><ele>322.0</ele><time>2026-04-19T12:13:37.999Z</time></trkpt><trkpt lat="43.4821079" lon="12.9401289"><ele>322.0</ele><time>2026-04-19T12:13:38.99Z</time></trkpt><trkpt lat="43.482052" lon="12.9401903"><ele>322.0</ele><time>2026-04-19T12:13:39.993Z</time></trkpt><trkpt lat="43.4819441" lon="12.9402012"><ele>320.66666666666663</ele><time>2026-04-19T12:13:41.987Z</time></trkpt><trkpt lat="43.481858" lon="12.9401124"><ele>319.3333333333333</ele><time>2026-04-19T12:13:43.989Z</time></trkpt><trkpt lat="43.4818156" lon="12.9400408"><ele>318.0</ele><time>2026-04-19T12:13:44.989Z</time></trkpt><trkpt lat="43.4817663" lon="12.9399776"><ele>316.6666666666667</ele><time>2026-04-19T12:13:45.984Z</time></trkpt><trkpt lat="43.481702" lon="12.9399118"><ele>315.33333333333337</ele><time>2026-04-19T12:13:46.993Z</time></trkpt><trkpt lat="43.4816387" lon="12.9398586"><ele>314.0</ele><time>2026-04-19T12:13:47.991Z</time></trkpt><trkpt lat="43.4815484" lon="12.9398299"><ele>314.8</ele><time>2026-04-19T12:13:48.993Z</time></trkpt><trkpt lat="43.4814219" lon="12.9397922"><ele>315.59999999999997</ele><time>2026-04-19T12:13:49.984Z</time></trkpt><trkpt lat="43.4813197" lon="12.9397594"><ele>316.4</ele><time>2026-04-19T12:13:50.994Z</time></trkpt><trkpt lat="43.4812179" lon="12.939755"><ele>317.2</ele><time>2026-04-19T12:13:51.991Z</time></trkpt><trkpt lat="43.4811179" lon="12.939751"><ele>318.0</ele><time>2026-04-19T12:13:52.984Z</time></trkpt><trkpt lat="43.4810175" lon="12.9397615"><ele>318.0</ele><time>2026-04-19T12:13:53.987Z</time></trkpt><trkpt lat="43.4809043" lon="12.9398465"><ele>318.0</ele><time>2026-04-19T12:13:54.988Z</time></trkpt><trkpt lat="43.4808003" lon="12.9399283"><ele>318.0</ele><time>2026-04-19T12:13:55.99Z</time></trkpt><trkpt lat="43.4807085" lon="12.9400477"><ele>318.0</ele><time>2026-04-19T12:13:56.988Z</time></trkpt><trkpt lat="43.4806175" lon="12.9401608"><ele>319.2</ele><time>2026-04-19T12:13:57.988Z</time></trkpt><trkpt lat="43.4805456" lon="12.9402577"><ele>320.4</ele><time>2026-04-19T12:13:58.984Z</time></trkpt><trkpt lat="43.4804886" lon="12.9403493"><ele>321.59999999999997</ele><time>2026-04-19T12:13:59.984Z</time></trkpt><trkpt lat="43.4804571" lon="12.940442"><ele>322.8</ele><time>2026-04-19T12:14:00.989Z</time></trkpt><trkpt lat="43.4804527" lon="12.9406191"><ele>324.0</ele><time>2026-04-19T12:14:02.988Z</time></trkpt><trkpt lat="43.480468" lon="12.94071"><ele>324.0</ele><time>2026-04-19T12:14:03.989Z</time></trkpt><trkpt lat="43.4804807" lon="12.9408079"><ele>324.0</ele><time>2026-04-19T12:14:04.986Z</time></trkpt><trkpt lat="43.480479" lon="12.9409113"><ele>324.0</ele><time>2026-04-19T12:14:05.999Z</time></trkpt><trkpt lat="43.4804673" lon="12.9410167"><ele>324.0</ele><time>2026-04-19T12:14:06.989Z</time></trkpt><trkpt lat="43.4804201" lon="12.9410806"><ele>324.0</ele><time>2026-04-19T12:14:07.989Z</time></trkpt><trkpt lat="43.480355" lon="12.9411386"><ele>324.0</ele><time>2026-04-19T12:14:08.986Z</time></trkpt><trkpt lat="43.4802707" lon="12.941182"><ele>326.2</ele><time>2026-04-19T12:14:09.99Z</time></trkpt><trkpt lat="43.4801891" lon="12.9412063"><ele>328.4</ele><time>2026-04-19T12:14:10.992Z</time></trkpt><trkpt lat="43.4800909" lon="12.9412194"><ele>330.6</ele><time>2026-04-19T12:14:11.988Z</time></trkpt><trkpt lat="43.4799911" lon="12.9412421"><ele>332.8</ele><time>2026-04-19T12:14:12.987Z</time></trkpt><trkpt lat="43.4798957" lon="12.9413084"><ele>335.0</ele><time>2026-04-19T12:14:13.991Z</time></trkpt><trkpt lat="43.4798006" lon="12.9413761"><ele>335.0</ele><time>2026-04-19T12:14:14.991Z</time></trkpt><trkpt lat="43.4796899" lon="12.9414691"><ele>335.0</ele><time>2026-04-19T12:14:15.994Z</time></trkpt><trkpt lat="43.4795788" lon="12.9415692"><ele>335.0</ele><time>2026-04-19T12:14:16.986Z</time></trkpt><trkpt lat="43.4794719" lon="12.9416541"><ele>335.0</ele><time>2026-04-19T12:14:17.994Z</time></trkpt><trkpt lat="43.4793751" lon="12.9417273"><ele>335.6</ele><time>2026-04-19T12:14:18.989Z</time></trkpt><trkpt lat="43.4792841" lon="12.9417909"><ele>336.2</ele><time>2026-04-19T12:14:19.984Z</time></trkpt><trkpt lat="43.4791936" lon="12.9418249"><ele>336.79999999999995</ele><time>2026-04-19T12:14:20.989Z</time></trkpt><trkpt lat="43.4791021" lon="12.9418208"><ele>337.4</ele><time>2026-04-19T12:14:21.991Z</time></trkpt><trkpt lat="43.4790183" lon="12.9417663"><ele>338.0</ele><time>2026-04-19T12:14:22.989Z</time></trkpt><trkpt lat="43.4789333" lon="12.9417115"><ele>338.0</ele><time>2026-04-19T12:14:23.99Z</time></trkpt><trkpt lat="43.4788695" lon="12.9416124"><ele>338.0</ele><time>2026-04-19T12:14:24.992Z</time></trkpt><trkpt lat="43.47884" lon="12.9414223"><ele>338.0</ele><time>2026-04-19T12:14:26.001Z</time></trkpt><trkpt lat="43.478792" lon="12.9412701"><ele>338.0</ele><time>2026-04-19T12:14:26.991Z</time></trkpt><trkpt lat="43.478737" lon="12.9411087"><ele>341.0</ele><time>2026-04-19T12:14:27.99Z</time></trkpt><trkpt lat="43.4786755" lon="12.9409533"><ele>344.0</ele><time>2026-04-19T12:14:28.993Z</time></trkpt><trkpt lat="43.478586" lon="12.9408192"><ele>347.0</ele><time>2026-04-19T12:14:29.985Z</time></trkpt><trkpt lat="43.4784834" lon="12.9406982"><ele>350.0</ele><time>2026-04-19T12:14:30.983Z</time></trkpt><trkpt lat="43.4783865" lon="12.940588"><ele>350.0</ele><time>2026-04-19T12:14:31.989Z</time></trkpt><trkpt lat="43.4782841" lon="12.9404982"><ele>350.0</ele><time>2026-04-19T12:14:32.989Z</time></trkpt><trkpt lat="43.4781824" lon="12.9404287"><ele>350.0</ele><time>2026-04-19T12:14:33.988Z</time></trkpt><trkpt lat="43.4780886" lon="12.9403729"><ele>350.0</ele><time>2026-04-19T12:14:34.983Z</time></trkpt><trkpt lat="43.4780016" lon="12.9403231"><ele>350.0</ele><time>2026-04-19T12:14:35.983Z</time></trkpt><trkpt lat="43.4779063" lon="12.9402846"><ele>351.8</ele><time>2026-04-19T12:14:36.982Z</time></trkpt><trkpt lat="43.477798" lon="12.9403408"><ele>353.6</ele><time>2026-04-19T12:14:37.984Z</time></trkpt><trkpt lat="43.4777111" lon="12.9403864"><ele>355.4</ele><time>2026-04-19T12:14:38.987Z</time></trkpt><trkpt lat="43.4776193" lon="12.9404367"><ele>357.2</ele><time>2026-04-19T12:14:39.984Z</time></trkpt><trkpt lat="43.4775335" lon="12.9405013"><ele>359.0</ele><time>2026-04-19T12:14:40.994Z</time></trkpt><trkpt lat="43.4774456" lon="12.9405718"><ele>359.0</ele><time>2026-04-19T12:14:41.989Z</time></trkpt><trkpt lat="43.4773499" lon="12.9406301"><ele>359.0</ele><time>2026-04-19T12:14:42.994Z</time></trkpt><trkpt lat="43.477257" lon="12.9406874"><ele>359.0</ele><time>2026-04-19T12:14:43.992Z</time></trkpt><trkpt lat="43.4771543" lon="12.9407318"><ele>359.0</ele><time>2026-04-19T12:14:44.988Z</time></trkpt><trkpt lat="43.4770411" lon="12.9407604"><ele>359.0</ele><time>2026-04-19T12:14:45.986Z</time></trkpt><trkpt lat="43.4769222" lon="12.9407698"><ele>358.75</ele><time>2026-04-19T12:14:46.99Z</time></trkpt><trkpt lat="43.4767965" lon="12.940774"><ele>358.5</ele><time>2026-04-19T12:14:47.984Z</time></trkpt><trkpt lat="43.4766624" lon="12.9407848"><ele>358.25</ele><time>2026-04-19T12:14:48.988Z</time></trkpt><trkpt lat="43.4765359" lon="12.9408054"><ele>358.0</ele><time>2026-04-19T12:14:49.99Z</time></trkpt><trkpt lat="43.4764121" lon="12.940843"><ele>360.75</ele><time>2026-04-19T12:14:50.989Z</time></trkpt><trkpt lat="43.4762769" lon="12.9409012"><ele>363.5</ele><time>2026-04-19T12:14:51.995Z</time></trkpt><trkpt lat="43.4761521" lon="12.9409746"><ele>366.25</ele><time>2026-04-19T12:14:52.987Z</time></trkpt><trkpt lat="43.4760188" lon="12.9410445"><ele>369.0</ele><time>2026-04-19T12:14:53.986Z</time></trkpt><trkpt lat="43.4758909" lon="12.9410857"><ele>369.75</ele><time>2026-04-19T12:14:54.988Z</time></trkpt><trkpt lat="43.4757561" lon="12.941099"><ele>370.5</ele><time>2026-04-19T12:14:55.991Z</time></trkpt><trkpt lat="43.4756202" lon="12.9411143"><ele>371.25</ele><time>2026-04-19T12:14:56.991Z</time></trkpt><trkpt lat="43.4754887" lon="12.9411332"><ele>372.0</ele><time>2026-04-19T12:14:57.987Z</time></trkpt><trkpt lat="43.4753546" lon="12.9411821"><ele>372.0</ele><time>2026-04-19T12:14:58.987Z</time></trkpt><trkpt lat="43.475225" lon="12.941248"><ele>372.0</ele><time>2026-04-19T12:14:59.989Z</time></trkpt><trkpt lat="43.475091" lon="12.9413255"><ele>372.0</ele><time>2026-04-19T12:15:00.987Z</time></trkpt><trkpt lat="43.4749562" lon="12.9414001"><ele>372.0</ele><time>2026-04-19T12:15:01.988Z</time></trkpt><trkpt lat="43.474821" lon="12.941482"><ele>372.0</ele><time>2026-04-19T12:15:02.989Z</time></trkpt><trkpt lat="43.4746898" lon="12.9415747"><ele>372.0</ele><time>2026-04-19T12:15:03.989Z</time></trkpt><trkpt lat="43.4745495" lon="12.941713"><ele>372.0</ele><time>2026-04-19T12:15:04.992Z</time></trkpt><trkpt lat="43.4744303" lon="12.9418315"><ele>374.25</ele><time>2026-04-19T12:15:05.988Z</time></trkpt><trkpt lat="43.4743232" lon="12.9419404"><ele>376.5</ele><time>2026-04-19T12:15:06.993Z</time></trkpt><trkpt lat="43.4742253" lon="12.9420705"><ele>378.75</ele><time>2026-04-19T12:15:07.989Z</time></trkpt><trkpt lat="43.4741619" lon="12.9421881"><ele>381.0</ele><time>2026-04-19T12:15:08.987Z</time></trkpt><trkpt lat="43.4741186" lon="12.9423152"><ele>381.0</ele><time>2026-04-19T12:15:09.992Z</time></trkpt><trkpt lat="43.4740998" lon="12.9424641"><ele>381.0</ele><time>2026-04-19T12:15:10.987Z</time></trkpt><trkpt lat="43.4740899" lon="12.9426191"><ele>381.0</ele><time>2026-04-19T12:15:11.991Z</time></trkpt><trkpt lat="43.4740848" lon="12.9427789"><ele>381.0</ele><time>2026-04-19T12:15:12.985Z</time></trkpt><trkpt lat="43.4740649" lon="12.9429432"><ele>383.0</ele><time>2026-04-19T12:15:13.998Z</time></trkpt><trkpt lat="43.4740255" lon="12.9431026"><ele>385.0</ele><time>2026-04-19T12:15:14.989Z</time></trkpt><trkpt lat="43.4739752" lon="12.9432477"><ele>387.0</ele><time>2026-04-19T12:15:15.988Z</time></trkpt><trkpt lat="43.4739269" lon="12.9433859"><ele>389.0</ele><time>2026-04-19T12:15:16.98Z</time></trkpt><trkpt lat="43.4738902" lon="12.9435317"><ele>390.6</ele><time>2026-04-19T12:15:17.984Z</time></trkpt><trkpt lat="43.4738711" lon="12.9436786"><ele>392.2</ele><time>2026-04-19T12:15:18.988Z</time></trkpt><trkpt lat="43.4738664" lon="12.9438201"><ele>393.8</ele><time>2026-04-19T12:15:19.99Z</time></trkpt><trkpt lat="43.4738789" lon="12.9439664"><ele>395.40000000000003</ele><time>2026-04-19T12:15:20.984Z</time></trkpt><trkpt lat="43.4739027" lon="12.9441109"><ele>397.0</ele><time>2026-04-19T12:15:21.983Z</time></trkpt><trkpt lat="43.4739374" lon="12.9442539"><ele>397.5</ele><time>2026-04-19T12:15:22.983Z</time></trkpt><trkpt lat="43.4739823" lon="12.9444012"><ele>398.0</ele><time>2026-04-19T12:15:23.984Z</time></trkpt><trkpt lat="43.4740314" lon="12.9445512"><ele>398.5</ele><time>2026-04-19T12:15:24.997Z</time></trkpt><trkpt lat="43.4740783" lon="12.9446956"><ele>399.0</ele><time>2026-04-19T12:15:25.998Z</time></trkpt><trkpt lat="43.4741457" lon="12.9448143"><ele>399.0</ele><time>2026-04-19T12:15:26.99Z</time></trkpt><trkpt lat="43.4742256" lon="12.944914"><ele>399.0</ele><time>2026-04-19T12:15:27.983Z</time></trkpt><trkpt lat="43.4743211" lon="12.9450031"><ele>399.0</ele><time>2026-04-19T12:15:28.985Z</time></trkpt><trkpt lat="43.4744207" lon="12.945101"><ele>399.0</ele><time>2026-04-19T12:15:29.986Z</time></trkpt><trkpt lat="43.4745247" lon="12.9451685"><ele>402.2</ele><time>2026-04-19T12:15:30.99Z</time></trkpt><trkpt lat="43.4746302" lon="12.9452696"><ele>405.4</ele><time>2026-04-19T12:15:31.985Z</time></trkpt><trkpt lat="43.4747249" lon="12.9453598"><ele>408.6</ele><time>2026-04-19T12:15:32.995Z</time></trkpt><trkpt lat="43.4747784" lon="12.9454881"><ele>411.8</ele><time>2026-04-19T12:15:33.991Z</time></trkpt><trkpt lat="43.4748023" lon="12.9455923"><ele>415.0</ele><time>2026-04-19T12:15:34.991Z</time></trkpt><trkpt lat="43.4748069" lon="12.9457135"><ele>415.0</ele><time>2026-04-19T12:15:35.982Z</time></trkpt><trkpt lat="43.4747881" lon="12.9458185"><ele>415.0</ele><time>2026-04-19T12:15:36.994Z</time></trkpt><trkpt lat="43.4747341" lon="12.9459011"><ele>415.0</ele><time>2026-04-19T12:15:37.985Z</time></trkpt><trkpt lat="43.474666" lon="12.9459827"><ele>415.0</ele><time>2026-04-19T12:15:38.987Z</time></trkpt><trkpt lat="43.4745931" lon="12.9460616"><ele>415.0</ele><time>2026-04-19T12:15:39.991Z</time></trkpt><trkpt lat="43.4744828" lon="12.9461189"><ele>415.5</ele><time>2026-04-19T12:15:40.988Z</time></trkpt><trkpt lat="43.4743658" lon="12.9462192"><ele>416.0</ele><time>2026-04-19T12:15:41.987Z</time></trkpt><trkpt lat="43.4742646" lon="12.946332"><ele>416.5</ele><time>2026-04-19T12:15:42.996Z</time></trkpt><trkpt lat="43.4741693" lon="12.9464375"><ele>417.0</ele><time>2026-04-19T12:15:43.99Z</time></trkpt><trkpt lat="43.4740928" lon="12.9465721"><ele>417.0</ele><time>2026-04-19T12:15:44.986Z</time></trkpt><trkpt lat="43.4740025" lon="12.9466811"><ele>417.0</ele><time>2026-04-19T12:15:45.99Z</time></trkpt><trkpt lat="43.4739116" lon="12.9467694"><ele>417.0</ele><time>2026-04-19T12:15:46.989Z</time></trkpt><trkpt lat="43.4738169" lon="12.9468118"><ele>417.0</ele><time>2026-04-19T12:15:47.989Z</time></trkpt><trkpt lat="43.4737253" lon="12.9468177"><ele>417.0</ele><time>2026-04-19T12:15:48.992Z</time></trkpt><trkpt lat="43.4736348" lon="12.9467981"><ele>417.20000000000005</ele><time>2026-04-19T12:15:50Z</time></trkpt><trkpt lat="43.4735389" lon="12.9467754"><ele>417.4</ele><time>2026-04-19T12:15:50.996Z</time></trkpt><trkpt lat="43.4734223" lon="12.9467801"><ele>417.6</ele><time>2026-04-19T12:15:51.99Z</time></trkpt><trkpt lat="43.473315" lon="12.946773"><ele>417.79999999999995</ele><time>2026-04-19T12:15:52.987Z</time></trkpt><trkpt lat="43.4732147" lon="12.9467331"><ele>418.0</ele><time>2026-04-19T12:15:53.983Z</time></trkpt><trkpt lat="43.4731301" lon="12.9466497"><ele>418.0</ele><time>2026-04-19T12:15:54.996Z</time></trkpt><trkpt lat="43.4730622" lon="12.9465558"><ele>418.0</ele><time>2026-04-19T12:15:55.991Z</time></trkpt><trkpt lat="43.4729941" lon="12.9464687"><ele>418.0</ele><time>2026-04-19T12:15:56.991Z</time></trkpt><trkpt lat="43.472912" lon="12.946414"><ele>418.0</ele><time>2026-04-19T12:15:57.985Z</time></trkpt><trkpt lat="43.4728258" lon="12.9463539"><ele>418.0</ele><time>2026-04-19T12:15:58.983Z</time></trkpt><trkpt lat="43.4726998" lon="12.9463873"><ele>421.25</ele><time>2026-04-19T12:15:59.993Z</time></trkpt><trkpt lat="43.4725823" lon="12.9464001"><ele>424.5</ele><time>2026-04-19T12:16:00.988Z</time></trkpt><trkpt lat="43.4724623" lon="12.9464315"><ele>427.75</ele><time>2026-04-19T12:16:01.991Z</time></trkpt><trkpt lat="43.4723358" lon="12.9464724"><ele>431.0</ele><time>2026-04-19T12:16:02.998Z</time></trkpt><trkpt lat="43.472217" lon="12.9465101"><ele>432.25</ele><time>2026-04-19T12:16:03.99Z</time></trkpt><trkpt lat="43.4720991" lon="12.9465387"><ele>433.5</ele><time>2026-04-19T12:16:04.991Z</time></trkpt><trkpt lat="43.4719768" lon="12.9464819"><ele>434.75</ele><time>2026-04-19T12:16:05.999Z</time></trkpt><trkpt lat="43.471856" lon="12.9464356"><ele>436.0</ele><time>2026-04-19T12:16:06.985Z</time></trkpt><trkpt lat="43.4717365" lon="12.9463732"><ele>436.0</ele><time>2026-04-19T12:16:07.99Z</time></trkpt><trkpt lat="43.4716284" lon="12.946336"><ele>436.0</ele><time>2026-04-19T12:16:08.985Z</time></trkpt><trkpt lat="43.4715141" lon="12.9463225"><ele>436.0</ele><time>2026-04-19T12:16:09.993Z</time></trkpt><trkpt lat="43.4714012" lon="12.9463421"><ele>436.0</ele><time>2026-04-19T12:16:10.991Z</time></trkpt><trkpt lat="43.4712886" lon="12.9464029"><ele>435.25</ele><time>2026-04-19T12:16:11.984Z</time></trkpt><trkpt lat="43.4711793" lon="12.9464908"><ele>434.5</ele><time>2026-04-19T12:16:12.992Z</time></trkpt><trkpt lat="43.4710622" lon="12.9465803"><ele>433.75</ele><time>2026-04-19T12:16:13.99Z</time></trkpt><trkpt lat="43.4709364" lon="12.9466767"><ele>433.0</ele><time>2026-04-19T12:16:15Z</time></trkpt><trkpt lat="43.4708137" lon="12.946774"><ele>434.79999999999995</ele><time>2026-04-19T12:16:15.989Z</time></trkpt><trkpt lat="43.4707038" lon="12.9468624"><ele>436.59999999999997</ele><time>2026-04-19T12:16:16.986Z</time></trkpt><trkpt lat="43.4706189" lon="12.9469435"><ele>438.40000000000003</ele><time>2026-04-19T12:16:17.988Z</time></trkpt><trkpt lat="43.4705432" lon="12.9470211"><ele>440.20000000000005</ele><time>2026-04-19T12:16:18.987Z</time></trkpt><trkpt lat="43.4704757" lon="12.947112"><ele>442.0</ele><time>2026-04-19T12:16:19.986Z</time></trkpt><trkpt lat="43.470396" lon="12.9472099"><ele>442.0</ele><time>2026-04-19T12:16:20.99Z</time></trkpt><trkpt lat="43.4703131" lon="12.9473033"><ele>442.0</ele><time>2026-04-19T12:16:21.998Z</time></trkpt><trkpt lat="43.4702355" lon="12.9474012"><ele>442.0</ele><time>2026-04-19T12:16:22.995Z</time></trkpt><trkpt lat="43.4701408" lon="12.9475076"><ele>442.0</ele><time>2026-04-19T12:16:23.99Z</time></trkpt><trkpt lat="43.4700396" lon="12.947606"><ele>444.0</ele><time>2026-04-19T12:16:24.989Z</time></trkpt><trkpt lat="43.4699197" lon="12.9476901"><ele>446.0</ele><time>2026-04-19T12:16:25.992Z</time></trkpt><trkpt lat="43.4697913" lon="12.9477542"><ele>448.0</ele><time>2026-04-19T12:16:26.991Z</time></trkpt><trkpt lat="43.4696586" lon="12.9478184"><ele>450.0</ele><time>2026-04-19T12:16:27.986Z</time></trkpt><trkpt lat="43.4695258" lon="12.9478733"><ele>450.0</ele><time>2026-04-19T12:16:28.983Z</time></trkpt><trkpt lat="43.4694192" lon="12.94794"><ele>450.0</ele><time>2026-04-19T12:16:29.992Z</time></trkpt><trkpt lat="43.4693245" lon="12.9480321"><ele>450.0</ele><time>2026-04-19T12:16:30.987Z</time></trkpt><trkpt lat="43.4692602" lon="12.9481444"><ele>450.0</ele><time>2026-04-19T12:16:31.993Z</time></trkpt><trkpt lat="43.4692065" lon="12.9482611"><ele>450.0</ele><time>2026-04-19T12:16:33Z</time></trkpt><trkpt lat="43.4692083" lon="12.9484254"><ele>452.2</ele><time>2026-04-19T12:16:33.989Z</time></trkpt><trkpt lat="43.4692169" lon="12.9485841"><ele>454.4</ele><time>2026-04-19T12:16:34.989Z</time></trkpt><trkpt lat="43.469221" lon="12.9487384"><ele>456.6</ele><time>2026-04-19T12:16:35.992Z</time></trkpt><trkpt lat="43.469227" lon="12.9488628"><ele>458.8</ele><time>2026-04-19T12:16:36.984Z</time></trkpt><trkpt lat="43.4692133" lon="12.9489744"><ele>461.0</ele><time>2026-04-19T12:16:37.995Z</time></trkpt><trkpt lat="43.4691687" lon="12.9490554"><ele>461.0</ele><time>2026-04-19T12:16:38.993Z</time></trkpt><trkpt lat="43.4690291" lon="12.949087"><ele>461.0</ele><time>2026-04-19T12:16:40.988Z</time></trkpt><trkpt lat="43.468934" lon="12.9490654"><ele>461.0</ele><time>2026-04-19T12:16:41.994Z</time></trkpt><trkpt lat="43.4688377" lon="12.9490242"><ele>461.0</ele><time>2026-04-19T12:16:42.986Z</time></trkpt><trkpt lat="43.46873" lon="12.9489855"><ele>462.4</ele><time>2026-04-19T12:16:43.993Z</time></trkpt><trkpt lat="43.4686301" lon="12.9489311"><ele>463.8</ele><time>2026-04-19T12:16:44.992Z</time></trkpt><trkpt lat="43.4685346" lon="12.948859"><ele>465.19999999999993</ele><time>2026-04-19T12:16:45.991Z</time></trkpt><trkpt lat="43.4684442" lon="12.9487853"><ele>466.59999999999997</ele><time>2026-04-19T12:16:46.984Z</time></trkpt><trkpt lat="43.4683477" lon="12.9487129"><ele>468.0</ele><time>2026-04-19T12:16:47.981Z</time></trkpt><trkpt lat="43.4682425" lon="12.9486636"><ele>468.0</ele><time>2026-04-19T12:16:48.989Z</time></trkpt><trkpt lat="43.4681289" lon="12.9486433"><ele>467.99999999999994</ele><time>2026-04-19T12:16:49.995Z</time></trkpt><trkpt lat="43.468026" lon="12.948659"><ele>467.99999999999994</ele><time>2026-04-19T12:16:50.988Z</time></trkpt><trkpt lat="43.4679194" lon="12.9486928"><ele>468.0</ele><time>2026-04-19T12:16:51.994Z</time></trkpt><trkpt lat="43.4678239" lon="12.9487714"><ele>468.0</ele><time>2026-04-19T12:16:52.988Z</time></trkpt><trkpt lat="43.4677351" lon="12.9488447"><ele>469.79999999999995</ele><time>2026-04-19T12:16:53.983Z</time></trkpt><trkpt lat="43.4676264" lon="12.9488944"><ele>471.59999999999997</ele><time>2026-04-19T12:16:54.991Z</time></trkpt><trkpt lat="43.4675228" lon="12.9489241"><ele>473.40000000000003</ele><time>2026-04-19T12:16:55.996Z</time></trkpt><trkpt lat="43.4674099" lon="12.9489264"><ele>475.20000000000005</ele><time>2026-04-19T12:16:56.992Z</time></trkpt><trkpt lat="43.4672961" lon="12.9489221"><ele>477.0</ele><time>2026-04-19T12:16:57.99Z</time></trkpt><trkpt lat="43.4671733" lon="12.9489148"><ele>477.8</ele><time>2026-04-19T12:16:58.991Z</time></trkpt><trkpt lat="43.4670511" lon="12.9489147"><ele>478.6</ele><time>2026-04-19T12:16:59.985Z</time></trkpt><trkpt lat="43.4669397" lon="12.9489122"><ele>479.40000000000003</ele><time>2026-04-19T12:17:00.992Z</time></trkpt><trkpt lat="43.4668419" lon="12.9489044"><ele>480.20000000000005</ele><time>2026-04-19T12:17:01.993Z</time></trkpt><trkpt lat="43.4667729" lon="12.9489319"><ele>481.0</ele><time>2026-04-19T12:17:02.997Z</time></trkpt><trkpt lat="43.4667081" lon="12.9490389"><ele>481.00000000000006</ele><time>2026-04-19T12:17:04.994Z</time></trkpt><trkpt lat="43.4667494" lon="12.9491674"><ele>481.0</ele><time>2026-04-19T12:17:06.987Z</time></trkpt><trkpt lat="43.4668153" lon="12.9492048"><ele>481.0</ele><time>2026-04-19T12:17:07.99Z</time></trkpt><trkpt lat="43.4668903" lon="12.9492241"><ele>481.0</ele><time>2026-04-19T12:17:08.991Z</time></trkpt><trkpt lat="43.4669772" lon="12.9492268"><ele>481.00000000000006</ele><time>2026-04-19T12:17:09.995Z</time></trkpt><trkpt lat="43.4670721" lon="12.9492323"><ele>481.0</ele><time>2026-04-19T12:17:10.991Z</time></trkpt><trkpt lat="43.4671755" lon="12.9492421"><ele>484.4</ele><time>2026-04-19T12:17:11.995Z</time></trkpt><trkpt lat="43.4672701" lon="12.9492594"><ele>487.8</ele><time>2026-04-19T12:17:12.994Z</time></trkpt><trkpt lat="43.4673481" lon="12.949281"><ele>491.19999999999993</ele><time>2026-04-19T12:17:13.998Z</time></trkpt><trkpt lat="43.4674123" lon="12.9494167"><ele>494.59999999999997</ele><time>2026-04-19T12:17:15.986Z</time></trkpt><trkpt lat="43.4673464" lon="12.9495309"><ele>498.0</ele><time>2026-04-19T12:17:17.993Z</time></trkpt><trkpt lat="43.4672661" lon="12.9495262"><ele>498.0</ele><time>2026-04-19T12:17:18.991Z</time></trkpt><trkpt lat="43.4671843" lon="12.9495115"><ele>497.99999999999994</ele><time>2026-04-19T12:17:19.979Z</time></trkpt><trkpt lat="43.4671007" lon="12.9494869"><ele>497.99999999999994</ele><time>2026-04-19T12:17:20.991Z</time></trkpt><trkpt lat="43.4670017" lon="12.9494751"><ele>498.0</ele><time>2026-04-19T12:17:21.985Z</time></trkpt><trkpt lat="43.466888" lon="12.949476"><ele>498.0</ele><time>2026-04-19T12:17:22.996Z</time></trkpt><trkpt lat="43.4667631" lon="12.9494894"><ele>498.0</ele><time>2026-04-19T12:17:23.992Z</time></trkpt><trkpt lat="43.4666294" lon="12.9495071"><ele>498.0</ele><time>2026-04-19T12:17:24.995Z</time></trkpt><trkpt lat="43.4665033" lon="12.9495173"><ele>498.0</ele><time>2026-04-19T12:17:25.992Z</time></trkpt><trkpt lat="43.4663737" lon="12.9495278"><ele>498.0</ele><time>2026-04-19T12:17:26.985Z</time></trkpt><trkpt lat="43.466241" lon="12.9495321"><ele>496.4</ele><time>2026-04-19T12:17:27.985Z</time></trkpt><trkpt lat="43.4661136" lon="12.9495373"><ele>494.79999999999995</ele><time>2026-04-19T12:17:29Z</time></trkpt><trkpt lat="43.4659945" lon="12.9495395"><ele>493.2</ele><time>2026-04-19T12:17:29.989Z</time></trkpt><trkpt lat="43.4658903" lon="12.9495472"><ele>491.6</ele><time>2026-04-19T12:17:30.994Z</time></trkpt><trkpt lat="43.4658057" lon="12.9495571"><ele>490.0</ele><time>2026-04-19T12:17:31.991Z</time></trkpt><trkpt lat="43.4656941" lon="12.9495582"><ele>490.00000000000006</ele><time>2026-04-19T12:17:33.985Z</time></trkpt><trkpt lat="43.4655886" lon="12.9495349"><ele>490.0</ele><time>2026-04-19T12:17:35.996Z</time></trkpt><trkpt lat="43.4655325" lon="12.9494927"><ele>490.0</ele><time>2026-04-19T12:17:36.993Z</time></trkpt><trkpt lat="43.4654727" lon="12.9494386"><ele>490.0</ele><time>2026-04-19T12:17:37.993Z</time></trkpt><trkpt lat="43.46539" lon="12.9493632"><ele>490.00000000000006</ele><time>2026-04-19T12:17:38.995Z</time></trkpt><trkpt lat="43.4653102" lon="12.9492678"><ele>490.0</ele><time>2026-04-19T12:17:40Z</time></trkpt><trkpt lat="43.4652194" lon="12.9491523"><ele>490.25</ele><time>2026-04-19T12:17:40.993Z</time></trkpt><trkpt lat="43.4651082" lon="12.9490354"><ele>490.5</ele><time>2026-04-19T12:17:41.984Z</time></trkpt><trkpt lat="43.4649972" lon="12.9489199"><ele>490.75</ele><time>2026-04-19T12:17:43Z</time></trkpt><trkpt lat="43.4648726" lon="12.9488245"><ele>491.0</ele><time>2026-04-19T12:17:43.99Z</time></trkpt><trkpt lat="43.464746" lon="12.9487364"><ele>491.0</ele><time>2026-04-19T12:17:44.988Z</time></trkpt><trkpt lat="43.4646194" lon="12.9486639"><ele>491.0</ele><time>2026-04-19T12:17:45.99Z</time></trkpt><trkpt lat="43.4645049" lon="12.9485972"><ele>491.0</ele><time>2026-04-19T12:17:46.99Z</time></trkpt><trkpt lat="43.464401" lon="12.9485272"><ele>491.0</ele><time>2026-04-19T12:17:47.995Z</time></trkpt><trkpt lat="43.464307" lon="12.9484501"><ele>492.5</ele><time>2026-04-19T12:17:48.988Z</time></trkpt><trkpt lat="43.4642115" lon="12.9483666"><ele>494.0</ele><time>2026-04-19T12:17:49.989Z</time></trkpt><trkpt lat="43.4641104" lon="12.9482802"><ele>495.5</ele><time>2026-04-19T12:17:50.99Z</time></trkpt><trkpt lat="43.4639999" lon="12.9481968"><ele>497.0</ele><time>2026-04-19T12:17:51.987Z</time></trkpt><trkpt lat="43.4638983" lon="12.9481127"><ele>497.0</ele><time>2026-04-19T12:17:52.989Z</time></trkpt><trkpt lat="43.4637973" lon="12.9480216"><ele>497.0</ele><time>2026-04-19T12:17:53.99Z</time></trkpt><trkpt lat="43.4637059" lon="12.9479091"><ele>497.0</ele><time>2026-04-19T12:17:54.986Z</time></trkpt><trkpt lat="43.4636174" lon="12.9477807"><ele>497.0</ele><time>2026-04-19T12:17:55.993Z</time></trkpt><trkpt lat="43.463526" lon="12.9476496"><ele>495.75</ele><time>2026-04-19T12:17:56.988Z</time></trkpt><trkpt lat="43.4634121" lon="12.9475294"><ele>494.5</ele><time>2026-04-19T12:17:57.989Z</time></trkpt><trkpt lat="43.4632908" lon="12.9474421"><ele>493.25</ele><time>2026-04-19T12:17:58.994Z</time></trkpt><trkpt lat="43.4631664" lon="12.9473693"><ele>492.0</ele><time>2026-04-19T12:17:59.989Z</time></trkpt><trkpt lat="43.4630516" lon="12.9472923"><ele>492.0</ele><time>2026-04-19T12:18:00.989Z</time></trkpt><trkpt lat="43.4629489" lon="12.94719"><ele>492.0</ele><time>2026-04-19T12:18:01.984Z</time></trkpt><trkpt lat="43.4628528" lon="12.9470785"><ele>492.0</ele><time>2026-04-19T12:18:02.991Z</time></trkpt><trkpt lat="43.4627514" lon="12.9469506"><ele>492.0</ele><time>2026-04-19T12:18:03.993Z</time></trkpt><trkpt lat="43.4626422" lon="12.9468327"><ele>490.25</ele><time>2026-04-19T12:18:04.99Z</time></trkpt><trkpt lat="43.4625273" lon="12.9467241"><ele>488.5</ele><time>2026-04-19T12:18:05.994Z</time></trkpt><trkpt lat="43.4624053" lon="12.9466191"><ele>486.75</ele><time>2026-04-19T12:18:06.992Z</time></trkpt><trkpt lat="43.4622982" lon="12.9465034"><ele>485.0</ele><time>2026-04-19T12:18:07.996Z</time></trkpt><trkpt lat="43.4622024" lon="12.946381"><ele>485.0</ele><time>2026-04-19T12:18:08.985Z</time></trkpt><trkpt lat="43.4621178" lon="12.9462488"><ele>485.0</ele><time>2026-04-19T12:18:09.996Z</time></trkpt><trkpt lat="43.4620369" lon="12.9461148"><ele>485.0</ele><time>2026-04-19T12:18:10.995Z</time></trkpt><trkpt lat="43.4619573" lon="12.9460037"><ele>485.0</ele><time>2026-04-19T12:18:11.99Z</time></trkpt><trkpt lat="43.4618717" lon="12.9459198"><ele>485.4</ele><time>2026-04-19T12:18:12.991Z</time></trkpt><trkpt lat="43.4617748" lon="12.9458723"><ele>485.8</ele><time>2026-04-19T12:18:13.989Z</time></trkpt><trkpt lat="43.4616742" lon="12.9458577"><ele>486.20000000000005</ele><time>2026-04-19T12:18:14.986Z</time></trkpt><trkpt lat="43.4615771" lon="12.9458595"><ele>486.6</ele><time>2026-04-19T12:18:15.993Z</time></trkpt><trkpt lat="43.4615018" lon="12.9459863"><ele>487.0</ele><time>2026-04-19T12:18:16.993Z</time></trkpt><trkpt lat="43.461438" lon="12.9460852"><ele>485.6</ele><time>2026-04-19T12:18:17.99Z</time></trkpt><trkpt lat="43.4613738" lon="12.9462012"><ele>484.20000000000005</ele><time>2026-04-19T12:18:18.984Z</time></trkpt><trkpt lat="43.4613067" lon="12.9463331"><ele>482.8</ele><time>2026-04-19T12:18:19.989Z</time></trkpt><trkpt lat="43.4612377" lon="12.9464452"><ele>481.4</ele><time>2026-04-19T12:18:20.994Z</time></trkpt><trkpt lat="43.4611726" lon="12.9465752"><ele>480.0</ele><time>2026-04-19T12:18:21.986Z</time></trkpt><trkpt lat="43.461104" lon="12.9466978"><ele>474.8</ele><time>2026-04-19T12:18:22.999Z</time></trkpt><trkpt lat="43.461032" lon="12.9468006"><ele>469.6</ele><time>2026-04-19T12:18:23.994Z</time></trkpt><trkpt lat="43.4609321" lon="12.9468415"><ele>464.4</ele><time>2026-04-19T12:18:24.988Z</time></trkpt><trkpt lat="43.4608375" lon="12.9468626"><ele>459.2</ele><time>2026-04-19T12:18:25.999Z</time></trkpt><trkpt lat="43.4606973" lon="12.9468532"><ele>454.0</ele><time>2026-04-19T12:18:26.984Z</time></trkpt><trkpt lat="43.4605808" lon="12.9468021"><ele>454.0</ele><time>2026-04-19T12:18:27.991Z</time></trkpt><trkpt lat="43.4604498" lon="12.9467667"><ele>454.0</ele><time>2026-04-19T12:18:28.986Z</time></trkpt><trkpt lat="43.4603082" lon="12.9467334"><ele>454.0</ele><time>2026-04-19T12:18:29.981Z</time></trkpt><trkpt lat="43.460181" lon="12.9467233"><ele>454.0</ele><time>2026-04-19T12:18:30.986Z</time></trkpt><trkpt lat="43.4600425" lon="12.946729"><ele>453.25</ele><time>2026-04-19T12:18:31.994Z</time></trkpt><trkpt lat="43.4599035" lon="12.9467558"><ele>452.5</ele><time>2026-04-19T12:18:32.993Z</time></trkpt><trkpt lat="43.459779" lon="12.9468051"><ele>451.75</ele><time>2026-04-19T12:18:33.986Z</time></trkpt><trkpt lat="43.4596534" lon="12.9468754"><ele>451.0</ele><time>2026-04-19T12:18:34.998Z</time></trkpt><trkpt lat="43.459532" lon="12.946939"><ele>453.0</ele><time>2026-04-19T12:18:35.985Z</time></trkpt><trkpt lat="43.4594042" lon="12.9469758"><ele>455.0</ele><time>2026-04-19T12:18:36.998Z</time></trkpt><trkpt lat="43.4592775" lon="12.9469925"><ele>457.0</ele><time>2026-04-19T12:18:37.999Z</time></trkpt><trkpt lat="43.4591426" lon="12.9470082"><ele>459.0</ele><time>2026-04-19T12:18:38.987Z</time></trkpt><trkpt lat="43.4590132" lon="12.9470366"><ele>459.0</ele><time>2026-04-19T12:18:39.99Z</time></trkpt><trkpt lat="43.458894" lon="12.9470608"><ele>459.0</ele><time>2026-04-19T12:18:41Z</time></trkpt><trkpt lat="43.4587741" lon="12.9470916"><ele>459.0</ele><time>2026-04-19T12:18:41.992Z</time></trkpt><trkpt lat="43.4586661" lon="12.9471164"><ele>459.0</ele><time>2026-04-19T12:18:42.995Z</time></trkpt><trkpt lat="43.4585608" lon="12.9471337"><ele>460.0</ele><time>2026-04-19T12:18:43.99Z</time></trkpt><trkpt lat="43.4584581" lon="12.9471541"><ele>461.0</ele><time>2026-04-19T12:18:44.987Z</time></trkpt><trkpt lat="43.4583587" lon="12.9471757"><ele>462.0</ele><time>2026-04-19T12:18:45.993Z</time></trkpt><trkpt lat="43.458265" lon="12.9471724"><ele>463.0</ele><time>2026-04-19T12:18:46.996Z</time></trkpt><trkpt lat="43.4581677" lon="12.9471504"><ele>464.0</ele><time>2026-04-19T12:18:47.993Z</time></trkpt><trkpt lat="43.4580667" lon="12.947117"><ele>464.0</ele><time>2026-04-19T12:18:48.981Z</time></trkpt><trkpt lat="43.4579833" lon="12.9470141"><ele>464.0</ele><time>2026-04-19T12:18:49.997Z</time></trkpt><trkpt lat="43.4579048" lon="12.9469071"><ele>464.0</ele><time>2026-04-19T12:18:50.993Z</time></trkpt><trkpt lat="43.4578315" lon="12.9467723"><ele>464.0</ele><time>2026-04-19T12:18:51.996Z</time></trkpt><trkpt lat="43.4577545" lon="12.9466346"><ele>462.5</ele><time>2026-04-19T12:18:52.989Z</time></trkpt><trkpt lat="43.4576702" lon="12.946493"><ele>461.0</ele><time>2026-04-19T12:18:53.992Z</time></trkpt><trkpt lat="43.4575777" lon="12.9463637"><ele>459.5</ele><time>2026-04-19T12:18:54.993Z</time></trkpt><trkpt lat="43.457475" lon="12.9462505"><ele>458.0</ele><time>2026-04-19T12:18:55.989Z</time></trkpt><trkpt lat="43.4573781" lon="12.9461466"><ele>458.0</ele><time>2026-04-19T12:18:56.991Z</time></trkpt><trkpt lat="43.4572781" lon="12.9460525"><ele>457.99999999999994</ele><time>2026-04-19T12:18:57.991Z</time></trkpt><trkpt lat="43.4571793" lon="12.9459654"><ele>457.99999999999994</ele><time>2026-04-19T12:18:58.992Z</time></trkpt><trkpt lat="43.4570903" lon="12.9458868"><ele>458.0</ele><time>2026-04-19T12:18:59.998Z</time></trkpt><trkpt lat="43.4570107" lon="12.945826"><ele>458.0</ele><time>2026-04-19T12:19:00.989Z</time></trkpt><trkpt lat="43.4569397" lon="12.945796"><ele>457.25</ele><time>2026-04-19T12:19:01.991Z</time></trkpt><trkpt lat="43.4568256" lon="12.9458019"><ele>456.5</ele><time>2026-04-19T12:19:03.994Z</time></trkpt><trkpt lat="43.4568453" lon="12.9460222"><ele>455.75</ele><time>2026-04-19T12:19:05.991Z</time></trkpt><trkpt lat="43.4568753" lon="12.9461456"><ele>455.0</ele><time>2026-04-19T12:19:06.984Z</time></trkpt><trkpt lat="43.4569887" lon="12.9462944"><ele>453.8</ele><time>2026-04-19T12:19:07.98Z</time></trkpt><trkpt lat="43.4570567" lon="12.9464165"><ele>452.6</ele><time>2026-04-19T12:19:08.987Z</time></trkpt><trkpt lat="43.4571075" lon="12.9465478"><ele>451.4</ele><time>2026-04-19T12:19:09.997Z</time></trkpt><trkpt lat="43.4571144" lon="12.9466739"><ele>450.2</ele><time>2026-04-19T12:19:10.996Z</time></trkpt><trkpt lat="43.4570983" lon="12.9468124"><ele>449.0</ele><time>2026-04-19T12:19:11.995Z</time></trkpt><trkpt lat="43.4570207" lon="12.946878"><ele>449.0</ele><time>2026-04-19T12:19:12.993Z</time></trkpt><trkpt lat="43.4569425" lon="12.9469077"><ele>449.0</ele><time>2026-04-19T12:19:13.991Z</time></trkpt><trkpt lat="43.4568621" lon="12.946921"><ele>449.0</ele><time>2026-04-19T12:19:14.991Z</time></trkpt><trkpt lat="43.4567585" lon="12.9468092"><ele>449.0</ele><time>2026-04-19T12:19:15.989Z</time></trkpt><trkpt lat="43.4566775" lon="12.9466882"><ele>449.0</ele><time>2026-04-19T12:19:16.984Z</time></trkpt><trkpt lat="43.4566014" lon="12.946535"><ele>447.75</ele><time>2026-04-19T12:19:17.985Z</time></trkpt><trkpt lat="43.4565128" lon="12.9463971"><ele>446.5</ele><time>2026-04-19T12:19:18.99Z</time></trkpt><trkpt lat="43.4563994" lon="12.9462859"><ele>445.25</ele><time>2026-04-19T12:19:19.985Z</time></trkpt><trkpt lat="43.4562583" lon="12.9462138"><ele>444.0</ele><time>2026-04-19T12:19:20.986Z</time></trkpt><trkpt lat="43.4561067" lon="12.9461604"><ele>440.0</ele><time>2026-04-19T12:19:21.99Z</time></trkpt><trkpt lat="43.4559458" lon="12.946113"><ele>436.0</ele><time>2026-04-19T12:19:22.986Z</time></trkpt><trkpt lat="43.4557795" lon="12.9460641"><ele>432.0</ele><time>2026-04-19T12:19:23.986Z</time></trkpt><trkpt lat="43.4555972" lon="12.9460038"><ele>430.66666666666663</ele><time>2026-04-19T12:19:24.985Z</time></trkpt><trkpt lat="43.4554138" lon="12.9459421"><ele>429.3333333333333</ele><time>2026-04-19T12:19:25.993Z</time></trkpt><trkpt lat="43.4552394" lon="12.9458897"><ele>428.0</ele><time>2026-04-19T12:19:27Z</time></trkpt><trkpt lat="43.4550761" lon="12.945832"><ele>428.0</ele><time>2026-04-19T12:19:27.99Z</time></trkpt><trkpt lat="43.4549194" lon="12.9457783"><ele>428.0</ele><time>2026-04-19T12:19:28.989Z</time></trkpt><trkpt lat="43.4547714" lon="12.9457046"><ele>428.0</ele><time>2026-04-19T12:19:29.987Z</time></trkpt><trkpt lat="43.4546418" lon="12.9456109"><ele>420.66666666666663</ele><time>2026-04-19T12:19:30.987Z</time></trkpt><trkpt lat="43.4545275" lon="12.9454983"><ele>413.33333333333337</ele><time>2026-04-19T12:19:31.983Z</time></trkpt><trkpt lat="43.4544092" lon="12.9453767"><ele>406.0</ele><time>2026-04-19T12:19:32.988Z</time></trkpt><trkpt lat="43.4542948" lon="12.945213"><ele>406.0</ele><time>2026-04-19T12:19:33.998Z</time></trkpt><trkpt lat="43.4541776" lon="12.9450808"><ele>406.0</ele><time>2026-04-19T12:19:34.983Z</time></trkpt><trkpt lat="43.4540614" lon="12.9449356"><ele>406.0</ele><time>2026-04-19T12:19:35.992Z</time></trkpt><trkpt lat="43.4539637" lon="12.9447716"><ele>401.33333333333337</ele><time>2026-04-19T12:19:36.989Z</time></trkpt><trkpt lat="43.4538771" lon="12.9445908"><ele>396.66666666666663</ele><time>2026-04-19T12:19:37.992Z</time></trkpt><trkpt lat="43.4537917" lon="12.944414"><ele>392.0</ele><time>2026-04-19T12:19:38.989Z</time></trkpt><trkpt lat="43.4536962" lon="12.9442548"><ele>396.25</ele><time>2026-04-19T12:19:39.994Z</time></trkpt><trkpt lat="43.4535885" lon="12.9441236"><ele>400.5</ele><time>2026-04-19T12:19:40.988Z</time></trkpt><trkpt lat="43.4534864" lon="12.9440269"><ele>404.75</ele><time>2026-04-19T12:19:41.984Z</time></trkpt><trkpt lat="43.4533868" lon="12.9439696"><ele>409.0</ele><time>2026-04-19T12:19:42.983Z</time></trkpt><trkpt lat="43.453275" lon="12.9439542"><ele>409.0</ele><time>2026-04-19T12:19:43.987Z</time></trkpt><trkpt lat="43.453156" lon="12.9439957"><ele>409.0</ele><time>2026-04-19T12:19:44.982Z</time></trkpt><trkpt lat="43.4530413" lon="12.944087"><ele>409.0</ele><time>2026-04-19T12:19:45.995Z</time></trkpt><trkpt lat="43.4529244" lon="12.9441793"><ele>409.0</ele><time>2026-04-19T12:19:46.988Z</time></trkpt><trkpt lat="43.4528131" lon="12.9442601"><ele>406.75</ele><time>2026-04-19T12:19:47.985Z</time></trkpt><trkpt lat="43.4526909" lon="12.9442971"><ele>404.5</ele><time>2026-04-19T12:19:48.991Z</time></trkpt><trkpt lat="43.452581" lon="12.9441984"><ele>402.25</ele><time>2026-04-19T12:19:49.994Z</time></trkpt><trkpt lat="43.4524611" lon="12.9441252"><ele>400.0</ele><time>2026-04-19T12:19:50.984Z</time></trkpt><trkpt lat="43.4523455" lon="12.9440078"><ele>400.0</ele><time>2026-04-19T12:19:51.998Z</time></trkpt><trkpt lat="43.4522211" lon="12.943925"><ele>400.0</ele><time>2026-04-19T12:19:52.984Z</time></trkpt><trkpt lat="43.4521052" lon="12.9438966"><ele>400.0</ele><time>2026-04-19T12:19:53.992Z</time></trkpt><trkpt lat="43.4519869" lon="12.9439234"><ele>400.0</ele><time>2026-04-19T12:19:54.997Z</time></trkpt><trkpt lat="43.4518753" lon="12.9439891"><ele>398.5</ele><time>2026-04-19T12:19:55.988Z</time></trkpt><trkpt lat="43.4517513" lon="12.9440782"><ele>397.0</ele><time>2026-04-19T12:19:56.988Z</time></trkpt><trkpt lat="43.4516203" lon="12.9441714"><ele>395.5</ele><time>2026-04-19T12:19:57.987Z</time></trkpt><trkpt lat="43.4515005" lon="12.9442635"><ele>394.0</ele><time>2026-04-19T12:19:58.99Z</time></trkpt><trkpt lat="43.4513795" lon="12.9443474"><ele>389.75</ele><time>2026-04-19T12:19:59.985Z</time></trkpt><trkpt lat="43.4512555" lon="12.9443552"><ele>385.5</ele><time>2026-04-19T12:20:00.983Z</time></trkpt><trkpt lat="43.4511213" lon="12.9443574"><ele>381.25</ele><time>2026-04-19T12:20:01.996Z</time></trkpt><trkpt lat="43.450971" lon="12.94434"><ele>377.0</ele><time>2026-04-19T12:20:02.994Z</time></trkpt><trkpt lat="43.4508181" lon="12.9443219"><ele>377.0</ele><time>2026-04-19T12:20:03.994Z</time></trkpt><trkpt lat="43.4506607" lon="12.9443268"><ele>377.0</ele><time>2026-04-19T12:20:04.993Z</time></trkpt><trkpt lat="43.4505054" lon="12.9443227"><ele>377.0</ele><time>2026-04-19T12:20:05.996Z</time></trkpt><trkpt lat="43.4503579" lon="12.9443097"><ele>378.5</ele><time>2026-04-19T12:20:06.996Z</time></trkpt><trkpt lat="43.4502166" lon="12.9442683"><ele>380.0</ele><time>2026-04-19T12:20:07.986Z</time></trkpt><trkpt lat="43.4500726" lon="12.9442271"><ele>381.5</ele><time>2026-04-19T12:20:08.994Z</time></trkpt><trkpt lat="43.4499413" lon="12.9441204"><ele>383.0</ele><time>2026-04-19T12:20:09.999Z</time></trkpt><trkpt lat="43.4498088" lon="12.944012"><ele>383.0</ele><time>2026-04-19T12:20:10.982Z</time></trkpt><trkpt lat="43.4496951" lon="12.943853"><ele>383.0</ele><time>2026-04-19T12:20:11.987Z</time></trkpt><trkpt lat="43.4495775" lon="12.9437138"><ele>383.0</ele><time>2026-04-19T12:20:12.993Z</time></trkpt><trkpt lat="43.449459" lon="12.9435782"><ele>382.0</ele><time>2026-04-19T12:20:13.99Z</time></trkpt><trkpt lat="43.4493471" lon="12.9434335"><ele>381.0</ele><time>2026-04-19T12:20:14.991Z</time></trkpt><trkpt lat="43.4492445" lon="12.9432999"><ele>380.0</ele><time>2026-04-19T12:20:15.989Z</time></trkpt><trkpt lat="43.4491529" lon="12.943149"><ele>379.0</ele><time>2026-04-19T12:20:16.985Z</time></trkpt><trkpt lat="43.4490823" lon="12.9429853"><ele>379.0</ele><time>2026-04-19T12:20:17.994Z</time></trkpt><trkpt lat="43.4490151" lon="12.942811"><ele>379.0</ele><time>2026-04-19T12:20:18.991Z</time></trkpt><trkpt lat="43.4489463" lon="12.9426424"><ele>379.0</ele><time>2026-04-19T12:20:19.996Z</time></trkpt><trkpt lat="43.4488836" lon="12.9424666"><ele>379.0</ele><time>2026-04-19T12:20:20.987Z</time></trkpt><trkpt lat="43.4488232" lon="12.9422897"><ele>378.0</ele><time>2026-04-19T12:20:21.983Z</time></trkpt><trkpt lat="43.448762" lon="12.9421159"><ele>377.0</ele><time>2026-04-19T12:20:22.989Z</time></trkpt><trkpt lat="43.4487003" lon="12.9419568"><ele>376.0</ele><time>2026-04-19T12:20:23.982Z</time></trkpt><trkpt lat="43.4486215" lon="12.9418101"><ele>375.0</ele><time>2026-04-19T12:20:24.983Z</time></trkpt><trkpt lat="43.4485507" lon="12.9416837"><ele>376.3333333333333</ele><time>2026-04-19T12:20:25.994Z</time></trkpt><trkpt lat="43.4484858" lon="12.941575"><ele>377.6666666666667</ele><time>2026-04-19T12:20:26.999Z</time></trkpt><trkpt lat="43.4484241" lon="12.9415086"><ele>379.0</ele><time>2026-04-19T12:20:27.977Z</time></trkpt><trkpt lat="43.4483582" lon="12.9414518"><ele>380.33333333333337</ele><time>2026-04-19T12:20:28.982Z</time></trkpt><trkpt lat="43.4482945" lon="12.9414224"><ele>381.6666666666667</ele><time>2026-04-19T12:20:29.996Z</time></trkpt><trkpt lat="43.448216" lon="12.9414118"><ele>383.0</ele><time>2026-04-19T12:20:30.983Z</time></trkpt><trkpt lat="43.4481422" lon="12.9414158"><ele>383.0</ele><time>2026-04-19T12:20:31.991Z</time></trkpt><trkpt lat="43.4480625" lon="12.9414547"><ele>383.0</ele><time>2026-04-19T12:20:32.996Z</time></trkpt><trkpt lat="43.4480545" lon="12.9417939"><ele>383.0</ele><time>2026-04-19T12:20:33.982Z</time></trkpt><trkpt lat="43.4480188" lon="12.9419695"><ele>380.33333333333337</ele><time>2026-04-19T12:20:34.99Z</time></trkpt><trkpt lat="43.4480231" lon="12.9421794"><ele>377.6666666666667</ele><time>2026-04-19T12:20:35.992Z</time></trkpt><trkpt lat="43.4480263" lon="12.9423989"><ele>375.0</ele><time>2026-04-19T12:20:36.993Z</time></trkpt><trkpt lat="43.4480335" lon="12.9425941"><ele>373.75</ele><time>2026-04-19T12:20:37.99Z</time></trkpt><trkpt lat="43.4480295" lon="12.9427796"><ele>372.5</ele><time>2026-04-19T12:20:38.991Z</time></trkpt><trkpt lat="43.4480076" lon="12.9429449"><ele>371.25</ele><time>2026-04-19T12:20:39.997Z</time></trkpt><trkpt lat="43.4479481" lon="12.9431214"><ele>370.0</ele><time>2026-04-19T12:20:40.995Z</time></trkpt><trkpt lat="43.4478809" lon="12.9432878"><ele>377.5</ele><time>2026-04-19T12:20:41.992Z</time></trkpt><trkpt lat="43.4478177" lon="12.9434812"><ele>385.0</ele><time>2026-04-19T12:20:42.989Z</time></trkpt><trkpt lat="43.4477728" lon="12.9436635"><ele>392.5</ele><time>2026-04-19T12:20:43.987Z</time></trkpt><trkpt lat="43.4477325" lon="12.9438376"><ele>400.0</ele><time>2026-04-19T12:20:44.988Z</time></trkpt><trkpt lat="43.4477242" lon="12.9440037"><ele>400.0</ele><time>2026-04-19T12:20:45.99Z</time></trkpt><trkpt lat="43.4477844" lon="12.944163"><ele>400.0</ele><time>2026-04-19T12:20:46.993Z</time></trkpt><trkpt lat="43.4478269" lon="12.944333"><ele>400.0</ele><time>2026-04-19T12:20:47.991Z</time></trkpt><trkpt lat="43.447879" lon="12.9445084"><ele>400.0</ele><time>2026-04-19T12:20:48.992Z</time></trkpt><trkpt lat="43.4479888" lon="12.9446774"><ele>396.8</ele><time>2026-04-19T12:20:49.984Z</time></trkpt><trkpt lat="43.4480539" lon="12.9448258"><ele>393.6</ele><time>2026-04-19T12:20:50.984Z</time></trkpt><trkpt lat="43.4480993" lon="12.9449833"><ele>390.4</ele><time>2026-04-19T12:20:52Z</time></trkpt><trkpt lat="43.4481174" lon="12.945114"><ele>387.2</ele><time>2026-04-19T12:20:52.993Z</time></trkpt><trkpt lat="43.4480774" lon="12.9452341"><ele>384.0</ele><time>2026-04-19T12:20:53.986Z</time></trkpt><trkpt lat="43.4480277" lon="12.945329"><ele>384.0</ele><time>2026-04-19T12:20:54.988Z</time></trkpt><trkpt lat="43.4479454" lon="12.9453841"><ele>384.0</ele><time>2026-04-19T12:20:55.991Z</time></trkpt><trkpt lat="43.447852" lon="12.9453779"><ele>384.0</ele><time>2026-04-19T12:20:56.988Z</time></trkpt><trkpt lat="43.447766" lon="12.9453561"><ele>384.0</ele><time>2026-04-19T12:20:57.986Z</time></trkpt><trkpt lat="43.4476864" lon="12.9452328"><ele>384.0</ele><time>2026-04-19T12:20:58.99Z</time></trkpt><trkpt lat="43.4476216" lon="12.9450928"><ele>386.75</ele><time>2026-04-19T12:20:59.986Z</time></trkpt><trkpt lat="43.4475621" lon="12.9449308"><ele>389.5</ele><time>2026-04-19T12:21:00.99Z</time></trkpt><trkpt lat="43.447513" lon="12.9447368"><ele>392.25</ele><time>2026-04-19T12:21:01.987Z</time></trkpt><trkpt lat="43.4474659" lon="12.9445592"><ele>395.0</ele><time>2026-04-19T12:21:02.994Z</time></trkpt><trkpt lat="43.4474197" lon="12.9444028"><ele>395.0</ele><time>2026-04-19T12:21:03.992Z</time></trkpt><trkpt lat="43.4473616" lon="12.9442452"><ele>395.0</ele><time>2026-04-19T12:21:04.99Z</time></trkpt><trkpt lat="43.4472881" lon="12.9441128"><ele>395.0</ele><time>2026-04-19T12:21:05.994Z</time></trkpt><trkpt lat="43.4471874" lon="12.9440068"><ele>395.0</ele><time>2026-04-19T12:21:06.992Z</time></trkpt><trkpt lat="43.4470757" lon="12.9439211"><ele>398.66666666666663</ele><time>2026-04-19T12:21:07.99Z</time></trkpt><trkpt lat="43.4469494" lon="12.9438417"><ele>402.33333333333337</ele><time>2026-04-19T12:21:08.991Z</time></trkpt><trkpt lat="43.4468118" lon="12.9437449"><ele>406.0</ele><time>2026-04-19T12:21:09.99Z</time></trkpt><trkpt lat="43.4466707" lon="12.9436428"><ele>406.0</ele><time>2026-04-19T12:21:10.988Z</time></trkpt><trkpt lat="43.446532" lon="12.9435258"><ele>406.0</ele><time>2026-04-19T12:21:11.989Z</time></trkpt><trkpt lat="43.4464113" lon="12.9434052"><ele>406.0</ele><time>2026-04-19T12:21:12.979Z</time></trkpt><trkpt lat="43.4462903" lon="12.943299"><ele>409.25</ele><time>2026-04-19T12:21:13.984Z</time></trkpt><trkpt lat="43.4461596" lon="12.9432348"><ele>412.5</ele><time>2026-04-19T12:21:14.988Z</time></trkpt><trkpt lat="43.4460151" lon="12.9432006"><ele>415.75</ele><time>2026-04-19T12:21:15.983Z</time></trkpt><trkpt lat="43.4458651" lon="12.9431894"><ele>419.0</ele><time>2026-04-19T12:21:16.988Z</time></trkpt><trkpt lat="43.4457103" lon="12.9431893"><ele>419.0</ele><time>2026-04-19T12:21:17.991Z</time></trkpt><trkpt lat="43.4455547" lon="12.9431855"><ele>419.0</ele><time>2026-04-19T12:21:18.991Z</time></trkpt><trkpt lat="43.4453895" lon="12.9431796"><ele>419.0</ele><time>2026-04-19T12:21:19.986Z</time></trkpt><trkpt lat="43.4452231" lon="12.9431711"><ele>421.3333333333333</ele><time>2026-04-19T12:21:20.986Z</time></trkpt><trkpt lat="43.4450548" lon="12.9431574"><ele>423.66666666666663</ele><time>2026-04-19T12:21:21.98Z</time></trkpt><trkpt lat="43.4448965" lon="12.9431402"><ele>426.0</ele><time>2026-04-19T12:21:22.99Z</time></trkpt><trkpt lat="43.4447412" lon="12.9431186"><ele>427.75</ele><time>2026-04-19T12:21:23.991Z</time></trkpt><trkpt lat="43.4445881" lon="12.9430922"><ele>429.5</ele><time>2026-04-19T12:21:24.993Z</time></trkpt><trkpt lat="43.4444371" lon="12.9430614"><ele>431.25</ele><time>2026-04-19T12:21:25.994Z</time></trkpt><trkpt lat="43.4442991" lon="12.9430317"><ele>433.0</ele><time>2026-04-19T12:21:26.991Z</time></trkpt><trkpt lat="43.4441733" lon="12.943013"><ele>433.0</ele><time>2026-04-19T12:21:27.987Z</time></trkpt><trkpt lat="43.4440723" lon="12.9429986"><ele>432.99999999999994</ele><time>2026-04-19T12:21:28.989Z</time></trkpt><trkpt lat="43.4439764" lon="12.9429963"><ele>432.99999999999994</ele><time>2026-04-19T12:21:29.988Z</time></trkpt><trkpt lat="43.4438811" lon="12.9430107"><ele>433.0</ele><time>2026-04-19T12:21:30.984Z</time></trkpt><trkpt lat="43.4437734" lon="12.9430371"><ele>433.0</ele><time>2026-04-19T12:21:31.993Z</time></trkpt><trkpt lat="43.4436569" lon="12.943083"><ele>432.0</ele><time>2026-04-19T12:21:32.994Z</time></trkpt><trkpt lat="43.4435193" lon="12.943165"><ele>431.0</ele><time>2026-04-19T12:21:33.99Z</time></trkpt><trkpt lat="43.4434" lon="12.9432585"><ele>430.0</ele><time>2026-04-19T12:21:34.993Z</time></trkpt><trkpt lat="43.443292" lon="12.9433573"><ele>429.0</ele><time>2026-04-19T12:21:35.984Z</time></trkpt><trkpt lat="43.4431949" lon="12.9434705"><ele>428.0</ele><time>2026-04-19T12:21:36.988Z</time></trkpt><trkpt lat="43.4431111" lon="12.943604"><ele>427.0</ele><time>2026-04-19T12:21:37.992Z</time></trkpt><trkpt lat="43.44304" lon="12.9437327"><ele>426.0</ele><time>2026-04-19T12:21:38.987Z</time></trkpt><trkpt lat="43.4429719" lon="12.9438565"><ele>425.0</ele><time>2026-04-19T12:21:39.985Z</time></trkpt><trkpt lat="43.4429063" lon="12.9439713"><ele>424.99999999999994</ele><time>2026-04-19T12:21:40.994Z</time></trkpt><trkpt lat="43.4428347" lon="12.9440294"><ele>425.0</ele><time>2026-04-19T12:21:41.991Z</time></trkpt><trkpt lat="43.4427662" lon="12.9440317"><ele>425.0</ele><time>2026-04-19T12:21:42.987Z</time></trkpt><trkpt lat="43.4427153" lon="12.9439802"><ele>425.0</ele><time>2026-04-19T12:21:43.985Z</time></trkpt><trkpt lat="43.4426919" lon="12.9438854"><ele>424.99999999999994</ele><time>2026-04-19T12:21:44.994Z</time></trkpt><trkpt lat="43.4426687" lon="12.943788"><ele>425.0</ele><time>2026-04-19T12:21:45.981Z</time></trkpt><trkpt lat="43.4427037" lon="12.9435855"><ele>425.0</ele><time>2026-04-19T12:21:46.986Z</time></trkpt><trkpt lat="43.4427161" lon="12.9433879"><ele>425.0</ele><time>2026-04-19T12:21:47.978Z</time></trkpt><trkpt lat="43.4427251" lon="12.9431801"><ele>425.0</ele><time>2026-04-19T12:21:48.996Z</time></trkpt><trkpt lat="43.4427207" lon="12.9429637"><ele>422.3333333333333</ele><time>2026-04-19T12:21:49.998Z</time></trkpt><trkpt lat="43.4426917" lon="12.9427347"><ele>419.66666666666663</ele><time>2026-04-19T12:21:50.986Z</time></trkpt><trkpt lat="43.4426374" lon="12.9425078"><ele>417.0</ele><time>2026-04-19T12:21:51.989Z</time></trkpt><trkpt lat="43.4425568" lon="12.9422829"><ele>417.33333333333337</ele><time>2026-04-19T12:21:52.989Z</time></trkpt><trkpt lat="43.4424532" lon="12.9420586"><ele>417.6666666666667</ele><time>2026-04-19T12:21:53.996Z</time></trkpt><trkpt lat="43.4423382" lon="12.9418437"><ele>418.0</ele><time>2026-04-19T12:21:54.982Z</time></trkpt><trkpt lat="43.4422074" lon="12.9416517"><ele>412.33333333333337</ele><time>2026-04-19T12:21:55.995Z</time></trkpt><trkpt lat="43.4420605" lon="12.9414721"><ele>406.66666666666663</ele><time>2026-04-19T12:21:56.987Z</time></trkpt><trkpt lat="43.4419073" lon="12.9413155"><ele>401.0</ele><time>2026-04-19T12:21:57.986Z</time></trkpt><trkpt lat="43.4417572" lon="12.9411743"><ele>401.0</ele><time>2026-04-19T12:21:58.989Z</time></trkpt><trkpt lat="43.4416021" lon="12.9410515"><ele>401.0</ele><time>2026-04-19T12:21:59.991Z</time></trkpt><trkpt lat="43.4414489" lon="12.9409297"><ele>401.0</ele><time>2026-04-19T12:22:00.987Z</time></trkpt><trkpt lat="43.4413029" lon="12.9407971"><ele>400.3333333333333</ele><time>2026-04-19T12:22:01.992Z</time></trkpt><trkpt lat="43.4411599" lon="12.9406578"><ele>399.66666666666663</ele><time>2026-04-19T12:22:02.985Z</time></trkpt><trkpt lat="43.4410163" lon="12.9405326"><ele>399.0</ele><time>2026-04-19T12:22:03.984Z</time></trkpt><trkpt lat="43.440867" lon="12.9404318"><ele>399.0</ele><time>2026-04-19T12:22:04.993Z</time></trkpt><trkpt lat="43.4407159" lon="12.9403567"><ele>399.0</ele><time>2026-04-19T12:22:05.992Z</time></trkpt><trkpt lat="43.4405709" lon="12.9402877"><ele>399.0</ele><time>2026-04-19T12:22:06.992Z</time></trkpt><trkpt lat="43.4404381" lon="12.9402136"><ele>399.25</ele><time>2026-04-19T12:22:07.987Z</time></trkpt><trkpt lat="43.4403043" lon="12.9401409"><ele>399.5</ele><time>2026-04-19T12:22:08.996Z</time></trkpt><trkpt lat="43.4401669" lon="12.9400861"><ele>399.75</ele><time>2026-04-19T12:22:09.992Z</time></trkpt><trkpt lat="43.4400357" lon="12.9400545"><ele>400.0</ele><time>2026-04-19T12:22:10.989Z</time></trkpt><trkpt lat="43.4399066" lon="12.9400283"><ele>400.0</ele><time>2026-04-19T12:22:11.995Z</time></trkpt><trkpt lat="43.4397712" lon="12.9399973"><ele>400.0</ele><time>2026-04-19T12:22:12.99Z</time></trkpt><trkpt lat="43.4396367" lon="12.9399626"><ele>400.0</ele><time>2026-04-19T12:22:14Z</time></trkpt><trkpt lat="43.4395102" lon="12.9399295"><ele>400.0</ele><time>2026-04-19T12:22:14.995Z</time></trkpt><trkpt lat="43.4393827" lon="12.9398968"><ele>399.5</ele><time>2026-04-19T12:22:15.988Z</time></trkpt><trkpt lat="43.4392529" lon="12.9398616"><ele>399.0</ele><time>2026-04-19T12:22:16.993Z</time></trkpt><trkpt lat="43.4391286" lon="12.939829"><ele>398.5</ele><time>2026-04-19T12:22:17.982Z</time></trkpt><trkpt lat="43.4390078" lon="12.9397674"><ele>398.0</ele><time>2026-04-19T12:22:18.994Z</time></trkpt><trkpt lat="43.4388921" lon="12.9397032"><ele>396.0</ele><time>2026-04-19T12:22:19.991Z</time></trkpt><trkpt lat="43.4387859" lon="12.9396239"><ele>394.0</ele><time>2026-04-19T12:22:20.991Z</time></trkpt><trkpt lat="43.4386792" lon="12.9395466"><ele>392.0</ele><time>2026-04-19T12:22:21.989Z</time></trkpt><trkpt lat="43.438576" lon="12.939468"><ele>390.0</ele><time>2026-04-19T12:22:22.989Z</time></trkpt><trkpt lat="43.4384724" lon="12.9393981"><ele>390.0</ele><time>2026-04-19T12:22:23.994Z</time></trkpt><trkpt lat="43.4383654" lon="12.9393192"><ele>390.0</ele><time>2026-04-19T12:22:24.987Z</time></trkpt><trkpt lat="43.4382547" lon="12.9392472"><ele>390.0</ele><time>2026-04-19T12:22:25.992Z</time></trkpt><trkpt lat="43.4381524" lon="12.9391476"><ele>390.0</ele><time>2026-04-19T12:22:26.992Z</time></trkpt><trkpt lat="43.4380637" lon="12.9390315"><ele>391.4</ele><time>2026-04-19T12:22:27.99Z</time></trkpt><trkpt lat="43.4379907" lon="12.9389056"><ele>392.8</ele><time>2026-04-19T12:22:28.986Z</time></trkpt><trkpt lat="43.4379266" lon="12.9387836"><ele>394.20000000000005</ele><time>2026-04-19T12:22:29.991Z</time></trkpt><trkpt lat="43.437864" lon="12.9386732"><ele>395.6</ele><time>2026-04-19T12:22:30.988Z</time></trkpt><trkpt lat="43.4377813" lon="12.9385842"><ele>397.0</ele><time>2026-04-19T12:22:31.982Z</time></trkpt><trkpt lat="43.4376769" lon="12.9385495"><ele>394.20000000000005</ele><time>2026-04-19T12:22:32.985Z</time></trkpt><trkpt lat="43.437575" lon="12.9385299"><ele>391.4</ele><time>2026-04-19T12:22:33.994Z</time></trkpt><trkpt lat="43.4374786" lon="12.9385538"><ele>388.6</ele><time>2026-04-19T12:22:34.987Z</time></trkpt><trkpt lat="43.4373845" lon="12.9385984"><ele>385.79999999999995</ele><time>2026-04-19T12:22:35.983Z</time></trkpt><trkpt lat="43.437285" lon="12.9386526"><ele>383.0</ele><time>2026-04-19T12:22:36.99Z</time></trkpt><trkpt lat="43.4371861" lon="12.9387004"><ele>380.4</ele><time>2026-04-19T12:22:37.986Z</time></trkpt><trkpt lat="43.4370915" lon="12.9387478"><ele>377.79999999999995</ele><time>2026-04-19T12:22:38.984Z</time></trkpt><trkpt lat="43.4369981" lon="12.9387825"><ele>375.2</ele><time>2026-04-19T12:22:39.983Z</time></trkpt><trkpt lat="43.4369012" lon="12.9387708"><ele>372.6</ele><time>2026-04-19T12:22:40.99Z</time></trkpt><trkpt lat="43.4368129" lon="12.9387376"><ele>370.0</ele><time>2026-04-19T12:22:41.986Z</time></trkpt><trkpt lat="43.4367257" lon="12.9386698"><ele>370.0</ele><time>2026-04-19T12:22:42.983Z</time></trkpt><trkpt lat="43.4366445" lon="12.9385888"><ele>370.0</ele><time>2026-04-19T12:22:43.992Z</time></trkpt><trkpt lat="43.4365661" lon="12.9385004"><ele>370.0</ele><time>2026-04-19T12:22:44.998Z</time></trkpt><trkpt lat="43.4364772" lon="12.9384188"><ele>370.0</ele><time>2026-04-19T12:22:45.986Z</time></trkpt><trkpt lat="43.4363913" lon="12.9383311"><ele>370.0</ele><time>2026-04-19T12:22:46.991Z</time></trkpt><trkpt lat="43.4363008" lon="12.9382343"><ele>369.0</ele><time>2026-04-19T12:22:47.992Z</time></trkpt><trkpt lat="43.4362034" lon="12.9381329"><ele>368.0</ele><time>2026-04-19T12:22:48.986Z</time></trkpt><trkpt lat="43.4361004" lon="12.9380371"><ele>367.0</ele><time>2026-04-19T12:22:49.982Z</time></trkpt><trkpt lat="43.4360045" lon="12.9379387"><ele>366.0</ele><time>2026-04-19T12:22:50.994Z</time></trkpt><trkpt lat="43.4359102" lon="12.9378351"><ele>366.0</ele><time>2026-04-19T12:22:51.989Z</time></trkpt><trkpt lat="43.4358168" lon="12.9377241"><ele>366.0</ele><time>2026-04-19T12:22:52.996Z</time></trkpt><trkpt lat="43.4357287" lon="12.9376106"><ele>366.0</ele><time>2026-04-19T12:22:53.991Z</time></trkpt><trkpt lat="43.4356495" lon="12.9374976"><ele>366.0</ele><time>2026-04-19T12:22:54.997Z</time></trkpt><trkpt lat="43.4355787" lon="12.9373716"><ele>364.4</ele><time>2026-04-19T12:22:55.985Z</time></trkpt><trkpt lat="43.435521" lon="12.9372339"><ele>362.8</ele><time>2026-04-19T12:22:56.979Z</time></trkpt><trkpt lat="43.4354634" lon="12.9371049"><ele>361.2</ele><time>2026-04-19T12:22:57.991Z</time></trkpt><trkpt lat="43.4353883" lon="12.9369954"><ele>359.59999999999997</ele><time>2026-04-19T12:22:58.988Z</time></trkpt><trkpt lat="43.4352917" lon="12.9369175"><ele>358.0</ele><time>2026-04-19T12:22:59.994Z</time></trkpt><trkpt lat="43.435183" lon="12.9368898"><ele>358.0</ele><time>2026-04-19T12:23:00.99Z</time></trkpt><trkpt lat="43.4350692" lon="12.9369098"><ele>358.0</ele><time>2026-04-19T12:23:01.985Z</time></trkpt><trkpt lat="43.4349574" lon="12.936976"><ele>358.0</ele><time>2026-04-19T12:23:02.989Z</time></trkpt><trkpt lat="43.434843" lon="12.9370426"><ele>358.0</ele><time>2026-04-19T12:23:03.989Z</time></trkpt><trkpt lat="43.434739" lon="12.9371016"><ele>356.25</ele><time>2026-04-19T12:23:04.99Z</time></trkpt><trkpt lat="43.4346297" lon="12.93715"><ele>354.5</ele><time>2026-04-19T12:23:05.987Z</time></trkpt><trkpt lat="43.4345281" lon="12.9371834"><ele>352.75</ele><time>2026-04-19T12:23:06.982Z</time></trkpt><trkpt lat="43.4344265" lon="12.9371019"><ele>351.0</ele><time>2026-04-19T12:23:07.991Z</time></trkpt><trkpt lat="43.4343086" lon="12.9370715"><ele>351.0</ele><time>2026-04-19T12:23:08.989Z</time></trkpt><trkpt lat="43.4341923" lon="12.9370498"><ele>351.0</ele><time>2026-04-19T12:23:09.998Z</time></trkpt><trkpt lat="43.4340765" lon="12.9370364"><ele>351.0</ele><time>2026-04-19T12:23:10.991Z</time></trkpt><trkpt lat="43.4339675" lon="12.9370271"><ele>351.0</ele><time>2026-04-19T12:23:11.993Z</time></trkpt><trkpt lat="43.4338717" lon="12.9369907"><ele>351.0</ele><time>2026-04-19T12:23:12.985Z</time></trkpt><trkpt lat="43.4337942" lon="12.9369215"><ele>349.4</ele><time>2026-04-19T12:23:13.99Z</time></trkpt><trkpt lat="43.4337384" lon="12.9368247"><ele>347.8</ele><time>2026-04-19T12:23:14.991Z</time></trkpt><trkpt lat="43.4336925" lon="12.9367266"><ele>346.2</ele><time>2026-04-19T12:23:15.998Z</time></trkpt><trkpt lat="43.4336792" lon="12.9365935"><ele>344.59999999999997</ele><time>2026-04-19T12:23:16.99Z</time></trkpt><trkpt lat="43.4336719" lon="12.936444"><ele>343.0</ele><time>2026-04-19T12:23:17.992Z</time></trkpt><trkpt lat="43.4336563" lon="12.936302"><ele>343.0</ele><time>2026-04-19T12:23:18.995Z</time></trkpt><trkpt lat="43.4336331" lon="12.936174"><ele>343.0</ele><time>2026-04-19T12:23:19.981Z</time></trkpt><trkpt lat="43.4335942" lon="12.9360621"><ele>343.0</ele><time>2026-04-19T12:23:20.981Z</time></trkpt><trkpt lat="43.4335236" lon="12.9359852"><ele>343.0</ele><time>2026-04-19T12:23:21.991Z</time></trkpt><trkpt lat="43.4334396" lon="12.9359421"><ele>343.0</ele><time>2026-04-19T12:23:22.983Z</time></trkpt><trkpt lat="43.4333753" lon="12.9359143"><ele>343.0</ele><time>2026-04-19T12:23:23.982Z</time></trkpt><trkpt lat="43.4333044" lon="12.9358814"><ele>342.66666666666663</ele><time>2026-04-19T12:23:24.992Z</time></trkpt><trkpt lat="43.433221" lon="12.9358668"><ele>342.3333333333333</ele><time>2026-04-19T12:23:25.985Z</time></trkpt><trkpt lat="43.4331424" lon="12.9358433"><ele>342.0</ele><time>2026-04-19T12:23:26.988Z</time></trkpt><trkpt lat="43.4330672" lon="12.9358365"><ele>341.6666666666667</ele><time>2026-04-19T12:23:27.992Z</time></trkpt><trkpt lat="43.4329918" lon="12.9358239"><ele>341.33333333333337</ele><time>2026-04-19T12:23:28.998Z</time></trkpt><trkpt lat="43.4329154" lon="12.9358147"><ele>341.0</ele><time>2026-04-19T12:23:29.99Z</time></trkpt><trkpt lat="43.43284" lon="12.9357999"><ele>341.0</ele><time>2026-04-19T12:23:30.988Z</time></trkpt><trkpt lat="43.4327632" lon="12.935794"><ele>341.0</ele><time>2026-04-19T12:23:31.99Z</time></trkpt><trkpt lat="43.4326824" lon="12.9357918"><ele>341.0</ele><time>2026-04-19T12:23:32.983Z</time></trkpt><trkpt lat="43.4326087" lon="12.9357817"><ele>341.0</ele><time>2026-04-19T12:23:33.987Z</time></trkpt><trkpt lat="43.432528" lon="12.9357733"><ele>341.0</ele><time>2026-04-19T12:23:34.993Z</time></trkpt><trkpt lat="43.4324555" lon="12.9357301"><ele>341.0</ele><time>2026-04-19T12:23:35.979Z</time></trkpt><trkpt lat="43.4323867" lon="12.9356678"><ele>341.0</ele><time>2026-04-19T12:23:36.988Z</time></trkpt><trkpt lat="43.4323335" lon="12.9355394"><ele>341.0</ele><time>2026-04-19T12:23:37.982Z</time></trkpt><trkpt lat="43.432263" lon="12.935434"><ele>341.0</ele><time>2026-04-19T12:23:38.982Z</time></trkpt><trkpt lat="43.4321811" lon="12.935344"><ele>341.0</ele><time>2026-04-19T12:23:39.988Z</time></trkpt><trkpt lat="43.4320857" lon="12.9352722"><ele>341.0</ele><time>2026-04-19T12:23:40.987Z</time></trkpt><trkpt lat="43.4319627" lon="12.9353457"><ele>337.8</ele><time>2026-04-19T12:23:41.99Z</time></trkpt><trkpt lat="43.431861" lon="12.9353849"><ele>334.6</ele><time>2026-04-19T12:23:42.991Z</time></trkpt><trkpt lat="43.4317627" lon="12.935441"><ele>331.4</ele><time>2026-04-19T12:23:44Z</time></trkpt><trkpt lat="43.4316673" lon="12.9354889"><ele>328.2</ele><time>2026-04-19T12:23:44.996Z</time></trkpt><trkpt lat="43.4315678" lon="12.9355076"><ele>325.0</ele><time>2026-04-19T12:23:45.99Z</time></trkpt><trkpt lat="43.4314782" lon="12.9354936"><ele>325.0</ele><time>2026-04-19T12:23:46.99Z</time></trkpt><trkpt lat="43.4313978" lon="12.9354428"><ele>325.0</ele><time>2026-04-19T12:23:47.987Z</time></trkpt><trkpt lat="43.4313205" lon="12.9353784"><ele>325.0</ele><time>2026-04-19T12:23:48.991Z</time></trkpt><trkpt lat="43.4312641" lon="12.9352753"><ele>325.0</ele><time>2026-04-19T12:23:49.981Z</time></trkpt><trkpt lat="43.431202" lon="12.9351754"><ele>325.0</ele><time>2026-04-19T12:23:50.99Z</time></trkpt><trkpt lat="43.4311398" lon="12.9350782"><ele>325.66666666666663</ele><time>2026-04-19T12:23:51.989Z</time></trkpt><trkpt lat="43.4310828" lon="12.9349809"><ele>326.3333333333333</ele><time>2026-04-19T12:23:52.989Z</time></trkpt><trkpt lat="43.4310211" lon="12.934905"><ele>327.0</ele><time>2026-04-19T12:23:53.989Z</time></trkpt><trkpt lat="43.4309613" lon="12.934824"><ele>327.6666666666667</ele><time>2026-04-19T12:23:54.984Z</time></trkpt><trkpt lat="43.4308931" lon="12.9347605"><ele>328.33333333333337</ele><time>2026-04-19T12:23:55.988Z</time></trkpt><trkpt lat="43.4308122" lon="12.9347206"><ele>329.0</ele><time>2026-04-19T12:23:56.991Z</time></trkpt><trkpt lat="43.4307329" lon="12.9346903"><ele>329.0</ele><time>2026-04-19T12:23:57.989Z</time></trkpt><trkpt lat="43.4306612" lon="12.9346638"><ele>329.0</ele><time>2026-04-19T12:23:59Z</time></trkpt><trkpt lat="43.4305898" lon="12.9346327"><ele>329.0</ele><time>2026-04-19T12:23:59.989Z</time></trkpt><trkpt lat="43.4305238" lon="12.9346024"><ele>329.0</ele><time>2026-04-19T12:24:01Z</time></trkpt><trkpt lat="43.430461" lon="12.9345741"><ele>329.0</ele><time>2026-04-19T12:24:01.99Z</time></trkpt><trkpt lat="43.4303958" lon="12.9345468"><ele>329.0</ele><time>2026-04-19T12:24:03Z</time></trkpt><trkpt lat="43.430337" lon="12.934596"><ele>329.0</ele><time>2026-04-19T12:24:03.987Z</time></trkpt><trkpt lat="43.4302837" lon="12.9347542"><ele>329.0</ele><time>2026-04-19T12:24:05.999Z</time></trkpt><trkpt lat="43.4304201" lon="12.934865"><ele>329.0</ele><time>2026-04-19T12:24:07.994Z</time></trkpt><trkpt lat="43.4305032" lon="12.9348546"><ele>329.0</ele><time>2026-04-19T12:24:08.991Z</time></trkpt><trkpt lat="43.4305691" lon="12.9348601"><ele>329.0</ele><time>2026-04-19T12:24:09.982Z</time></trkpt><trkpt lat="43.4306781" lon="12.9348992"><ele>329.0</ele><time>2026-04-19T12:24:11.988Z</time></trkpt><trkpt lat="43.4307433" lon="12.9349414"><ele>327.5</ele><time>2026-04-19T12:24:12.996Z</time></trkpt><trkpt lat="43.4307938" lon="12.9350701"><ele>326.0</ele><time>2026-04-19T12:24:15Z</time></trkpt><trkpt lat="43.4307863" lon="12.9351665"><ele>324.5</ele><time>2026-04-19T12:24:15.988Z</time></trkpt><trkpt lat="43.4306813" lon="12.935249"><ele>323.0</ele><time>2026-04-19T12:24:17.996Z</time></trkpt><trkpt lat="43.430619" lon="12.935271"><ele>321.5</ele><time>2026-04-19T12:24:18.982Z</time></trkpt><trkpt lat="43.4305533" lon="12.9352891"><ele>320.0</ele><time>2026-04-19T12:24:19.989Z</time></trkpt><trkpt lat="43.4304861" lon="12.935313"><ele>317.57142857142856</ele><time>2026-04-19T12:24:20.989Z</time></trkpt><trkpt lat="43.4304216" lon="12.9353286"><ele>315.14285714285717</ele><time>2026-04-19T12:24:21.993Z</time></trkpt><trkpt lat="43.4303527" lon="12.9353324"><ele>312.7142857142857</ele><time>2026-04-19T12:24:22.991Z</time></trkpt><trkpt lat="43.4302845" lon="12.9353385"><ele>310.2857142857143</ele><time>2026-04-19T12:24:23.988Z</time></trkpt><trkpt lat="43.4302201" lon="12.9353359"><ele>307.85714285714283</ele><time>2026-04-19T12:24:25Z</time></trkpt><trkpt lat="43.430133" lon="12.9353129"><ele>305.42857142857144</ele><time>2026-04-19T12:24:26.992Z</time></trkpt><trkpt lat="43.4300574" lon="12.9352962"><ele>303.0</ele><time>2026-04-19T12:24:28.997Z</time></trkpt><trkpt lat="43.4299792" lon="12.9353495"><ele>303.0</ele><time>2026-04-19T12:24:31.995Z</time></trkpt><trkpt lat="43.4299977" lon="12.9354353"><ele>303.0</ele><time>2026-04-19T12:24:33.981Z</time></trkpt><trkpt lat="43.4300713" lon="12.935512"><ele>303.0</ele><time>2026-04-19T12:24:36.984Z</time></trkpt><trkpt lat="43.4301269" lon="12.9355574"><ele>303.0</ele><time>2026-04-19T12:24:38.98Z</time></trkpt><trkpt lat="43.4301906" lon="12.9356211"><ele>303.0</ele><time>2026-04-19T12:24:40.981Z</time></trkpt><trkpt lat="43.4302563" lon="12.9357066"><ele>303.0</ele><time>2026-04-19T12:24:42.982Z</time></trkpt><trkpt lat="43.4303362" lon="12.9357997"><ele>303.0</ele><time>2026-04-19T12:24:44.983Z</time></trkpt><trkpt lat="43.4303861" lon="12.9358723"><ele>303.0</ele><time>2026-04-19T12:24:45.98Z</time></trkpt><trkpt lat="43.4304254" lon="12.9359448"><ele>303.0</ele><time>2026-04-19T12:24:46.984Z</time></trkpt><trkpt lat="43.4304722" lon="12.9360157"><ele>303.0</ele><time>2026-04-19T12:24:47.987Z</time></trkpt><trkpt lat="43.4305219" lon="12.9360822"><ele>303.0</ele><time>2026-04-19T12:24:48.983Z</time></trkpt><trkpt lat="43.4305739" lon="12.936138"><ele>303.0</ele><time>2026-04-19T12:24:49.986Z</time></trkpt><trkpt lat="43.4306301" lon="12.9361804"><ele>303.0</ele><time>2026-04-19T12:24:50.999Z</time></trkpt><trkpt lat="43.4306929" lon="12.9362143"><ele>302.0</ele><time>2026-04-19T12:24:51.985Z</time></trkpt><trkpt lat="43.4307682" lon="12.9362616"><ele>301.0</ele><time>2026-04-19T12:24:52.988Z</time></trkpt><trkpt lat="43.4308378" lon="12.9363149"><ele>300.0</ele><time>2026-04-19T12:24:53.992Z</time></trkpt><trkpt lat="43.4309034" lon="12.9363691"><ele>299.0</ele><time>2026-04-19T12:24:54.982Z</time></trkpt><trkpt lat="43.4309702" lon="12.9363981"><ele>298.0</ele><time>2026-04-19T12:24:55.984Z</time></trkpt><trkpt lat="43.4311081" lon="12.9363995"><ele>297.0</ele><time>2026-04-19T12:24:57.992Z</time></trkpt><trkpt lat="43.4311968" lon="12.9363388"><ele>297.0</ele><time>2026-04-19T12:24:58.989Z</time></trkpt><trkpt lat="43.4312814" lon="12.9362842"><ele>297.0</ele><time>2026-04-19T12:24:59.988Z</time></trkpt><trkpt lat="43.4313673" lon="12.9362533"><ele>297.0</ele><time>2026-04-19T12:25:00.986Z</time></trkpt><trkpt lat="43.4314515" lon="12.9362528"><ele>297.0</ele><time>2026-04-19T12:25:01.99Z</time></trkpt><trkpt lat="43.4315373" lon="12.936261"><ele>297.0</ele><time>2026-04-19T12:25:02.986Z</time></trkpt><trkpt lat="43.4316231" lon="12.9362736"><ele>297.0</ele><time>2026-04-19T12:25:03.989Z</time></trkpt><trkpt lat="43.4316956" lon="12.9363007"><ele>297.6666666666667</ele><time>2026-04-19T12:25:04.988Z</time></trkpt><trkpt lat="43.4317635" lon="12.9363387"><ele>298.3333333333333</ele><time>2026-04-19T12:25:05.993Z</time></trkpt><trkpt lat="43.4318289" lon="12.9363702"><ele>299.0</ele><time>2026-04-19T12:25:06.989Z</time></trkpt><trkpt lat="43.4318812" lon="12.9364402"><ele>299.66666666666663</ele><time>2026-04-19T12:25:07.984Z</time></trkpt><trkpt lat="43.4318792" lon="12.9365412"><ele>300.3333333333333</ele><time>2026-04-19T12:25:08.99Z</time></trkpt><trkpt lat="43.4318178" lon="12.9366932"><ele>301.0</ele><time>2026-04-19T12:25:10.984Z</time></trkpt><trkpt lat="43.4316388" lon="12.9365849"><ele>301.0</ele><time>2026-04-19T12:25:12.988Z</time></trkpt><trkpt lat="43.4315399" lon="12.9364915"><ele>301.0</ele><time>2026-04-19T12:25:13.985Z</time></trkpt><trkpt lat="43.4314296" lon="12.936446"><ele>301.0</ele><time>2026-04-19T12:25:14.987Z</time></trkpt><trkpt lat="43.4313403" lon="12.936425"><ele>301.0</ele><time>2026-04-19T12:25:15.994Z</time></trkpt><trkpt lat="43.4312468" lon="12.9364335"><ele>301.0</ele><time>2026-04-19T12:25:16.988Z</time></trkpt><trkpt lat="43.4311324" lon="12.9365604"><ele>300.2</ele><time>2026-04-19T12:25:17.986Z</time></trkpt><trkpt lat="43.4310244" lon="12.9365937"><ele>299.40000000000003</ele><time>2026-04-19T12:25:18.984Z</time></trkpt><trkpt lat="43.4309188" lon="12.9366304"><ele>298.6</ele><time>2026-04-19T12:25:19.987Z</time></trkpt><trkpt lat="43.4308008" lon="12.9366001"><ele>297.8</ele><time>2026-04-19T12:25:20.987Z</time></trkpt><trkpt lat="43.4307044" lon="12.9365818"><ele>297.0</ele><time>2026-04-19T12:25:21.988Z</time></trkpt><trkpt lat="43.4306058" lon="12.9365781"><ele>297.0</ele><time>2026-04-19T12:25:22.988Z</time></trkpt><trkpt lat="43.4305054" lon="12.9365801"><ele>297.0</ele><time>2026-04-19T12:25:23.985Z</time></trkpt><trkpt lat="43.4304066" lon="12.9365745"><ele>297.0</ele><time>2026-04-19T12:25:24.989Z</time></trkpt><trkpt lat="43.4303204" lon="12.9365481"><ele>297.0</ele><time>2026-04-19T12:25:25.991Z</time></trkpt><trkpt lat="43.4302285" lon="12.9364964"><ele>297.0</ele><time>2026-04-19T12:25:26.981Z</time></trkpt><trkpt lat="43.4301233" lon="12.9364387"><ele>294.6</ele><time>2026-04-19T12:25:27.989Z</time></trkpt><trkpt lat="43.4300312" lon="12.9363685"><ele>292.2</ele><time>2026-04-19T12:25:28.988Z</time></trkpt><trkpt lat="43.4299407" lon="12.9362792"><ele>289.8</ele><time>2026-04-19T12:25:29.989Z</time></trkpt><trkpt lat="43.4298537" lon="12.9362028"><ele>287.4</ele><time>2026-04-19T12:25:30.978Z</time></trkpt><trkpt lat="43.4297583" lon="12.9361532"><ele>285.0</ele><time>2026-04-19T12:25:31.989Z</time></trkpt><trkpt lat="43.4296241" lon="12.9361912"><ele>282.3333333333333</ele><time>2026-04-19T12:25:32.988Z</time></trkpt><trkpt lat="43.4294825" lon="12.9362241"><ele>279.66666666666663</ele><time>2026-04-19T12:25:33.984Z</time></trkpt><trkpt lat="43.4293119" lon="12.9362917"><ele>277.0</ele><time>2026-04-19T12:25:34.99Z</time></trkpt><trkpt lat="43.4291564" lon="12.9363309"><ele>277.0</ele><time>2026-04-19T12:25:35.99Z</time></trkpt><trkpt lat="43.4290042" lon="12.9363772"><ele>277.0</ele><time>2026-04-19T12:25:36.985Z</time></trkpt><trkpt lat="43.4288447" lon="12.9363942"><ele>277.0</ele><time>2026-04-19T12:25:37.981Z</time></trkpt><trkpt lat="43.4286685" lon="12.9363979"><ele>276.3333333333333</ele><time>2026-04-19T12:25:38.985Z</time></trkpt><trkpt lat="43.4284771" lon="12.9364098"><ele>275.6666666666667</ele><time>2026-04-19T12:25:39.987Z</time></trkpt><trkpt lat="43.4282905" lon="12.9364202"><ele>275.0</ele><time>2026-04-19T12:25:40.991Z</time></trkpt><trkpt lat="43.4281129" lon="12.9364341"><ele>272.33333333333337</ele><time>2026-04-19T12:25:41.993Z</time></trkpt><trkpt lat="43.4279418" lon="12.9364522"><ele>269.6666666666667</ele><time>2026-04-19T12:25:42.976Z</time></trkpt><trkpt lat="43.4277687" lon="12.9364697"><ele>267.0</ele><time>2026-04-19T12:25:43.984Z</time></trkpt><trkpt lat="43.4276116" lon="12.9364992"><ele>267.0</ele><time>2026-04-19T12:25:44.986Z</time></trkpt><trkpt lat="43.4274565" lon="12.9365527"><ele>267.0</ele><time>2026-04-19T12:25:45.989Z</time></trkpt><trkpt lat="43.4273282" lon="12.9366156"><ele>267.0</ele><time>2026-04-19T12:25:46.989Z</time></trkpt><trkpt lat="43.4271912" lon="12.9366719"><ele>267.0</ele><time>2026-04-19T12:25:47.981Z</time></trkpt><trkpt lat="43.4270486" lon="12.9367218"><ele>263.75</ele><time>2026-04-19T12:25:48.984Z</time></trkpt><trkpt lat="43.4269382" lon="12.9366945"><ele>260.5</ele><time>2026-04-19T12:25:49.99Z</time></trkpt><trkpt lat="43.4268221" lon="12.9366151"><ele>257.25</ele><time>2026-04-19T12:25:50.99Z</time></trkpt><trkpt lat="43.426708" lon="12.9365531"><ele>254.0</ele><time>2026-04-19T12:25:51.986Z</time></trkpt><trkpt lat="43.4266213" lon="12.9364458"><ele>254.0</ele><time>2026-04-19T12:25:52.986Z</time></trkpt><trkpt lat="43.4265794" lon="12.9362879"><ele>254.0</ele><time>2026-04-19T12:25:53.992Z</time></trkpt><trkpt lat="43.4265701" lon="12.9361474"><ele>254.0</ele><time>2026-04-19T12:25:54.984Z</time></trkpt><trkpt lat="43.4266708" lon="12.9360323"><ele>254.0</ele><time>2026-04-19T12:25:55.983Z</time></trkpt><trkpt lat="43.4270031" lon="12.9358981"><ele>252.33333333333334</ele><time>2026-04-19T12:25:56.987Z</time></trkpt><trkpt lat="43.427141" lon="12.9357485"><ele>250.66666666666669</ele><time>2026-04-19T12:25:57.983Z</time></trkpt><trkpt lat="43.4272771" lon="12.9356036"><ele>249.0</ele><time>2026-04-19T12:25:58.985Z</time></trkpt><trkpt lat="43.4273998" lon="12.9354262"><ele>251.33333333333331</ele><time>2026-04-19T12:25:59.98Z</time></trkpt><trkpt lat="43.4275116" lon="12.9352525"><ele>253.66666666666666</ele><time>2026-04-19T12:26:01Z</time></trkpt><trkpt lat="43.4276182" lon="12.9350541"><ele>256.0</ele><time>2026-04-19T12:26:01.986Z</time></trkpt><trkpt lat="43.4277089" lon="12.9348516"><ele>256.0</ele><time>2026-04-19T12:26:02.99Z</time></trkpt><trkpt lat="43.427772" lon="12.9346596"><ele>256.0</ele><time>2026-04-19T12:26:03.994Z</time></trkpt><trkpt lat="43.4278031" lon="12.9344543"><ele>256.0</ele><time>2026-04-19T12:26:04.991Z</time></trkpt><trkpt lat="43.4278104" lon="12.9342441"><ele>252.66666666666666</ele><time>2026-04-19T12:26:05.986Z</time></trkpt><trkpt lat="43.4277974" lon="12.9340207"><ele>249.33333333333331</ele><time>2026-04-19T12:26:06.996Z</time></trkpt><trkpt lat="43.4277816" lon="12.9338125"><ele>246.0</ele><time>2026-04-19T12:26:07.994Z</time></trkpt><trkpt lat="43.4277681" lon="12.9336106"><ele>246.0</ele><time>2026-04-19T12:26:08.994Z</time></trkpt><trkpt lat="43.4277533" lon="12.9334044"><ele>246.0</ele><time>2026-04-19T12:26:09.997Z</time></trkpt><trkpt lat="43.4277491" lon="12.9332198"><ele>246.0</ele><time>2026-04-19T12:26:10.983Z</time></trkpt><trkpt lat="43.4277425" lon="12.933044"><ele>246.0</ele><time>2026-04-19T12:26:11.992Z</time></trkpt><trkpt lat="43.4277313" lon="12.9328917"><ele>245.20000000000002</ele><time>2026-04-19T12:26:12.989Z</time></trkpt><trkpt lat="43.4277359" lon="12.932745"><ele>244.40000000000003</ele><time>2026-04-19T12:26:13.988Z</time></trkpt><trkpt lat="43.42774" lon="12.9326211"><ele>243.6</ele><time>2026-04-19T12:26:15Z</time></trkpt><trkpt lat="43.4277422" lon="12.9324946"><ele>242.8</ele><time>2026-04-19T12:26:16Z</time></trkpt><trkpt lat="43.4277118" lon="12.9324168"><ele>242.0</ele><time>2026-04-19T12:26:17.99Z</time></trkpt><trkpt lat="43.4276107" lon="12.9323841"><ele>241.39999999999998</ele><time>2026-04-19T12:26:19.981Z</time></trkpt><trkpt lat="43.42754" lon="12.9324058"><ele>240.79999999999998</ele><time>2026-04-19T12:26:20.982Z</time></trkpt><trkpt lat="43.427456" lon="12.9324514"><ele>240.2</ele><time>2026-04-19T12:26:21.996Z</time></trkpt><trkpt lat="43.4273458" lon="12.932483"><ele>239.6</ele><time>2026-04-19T12:26:22.99Z</time></trkpt><trkpt lat="43.4272146" lon="12.9324883"><ele>239.0</ele><time>2026-04-19T12:26:24Z</time></trkpt><trkpt lat="43.4270857" lon="12.9324844"><ele>238.33333333333334</ele><time>2026-04-19T12:26:25Z</time></trkpt><trkpt lat="43.426943" lon="12.9324654"><ele>237.66666666666669</ele><time>2026-04-19T12:26:25.99Z</time></trkpt><trkpt lat="43.426795" lon="12.9324366"><ele>237.0</ele><time>2026-04-19T12:26:26.992Z</time></trkpt><trkpt lat="43.4266312" lon="12.932409"><ele>237.0</ele><time>2026-04-19T12:26:28Z</time></trkpt><trkpt lat="43.4264718" lon="12.932387"><ele>237.0</ele><time>2026-04-19T12:26:28.991Z</time></trkpt><trkpt lat="43.4263113" lon="12.9323846"><ele>237.0</ele><time>2026-04-19T12:26:29.992Z</time></trkpt><trkpt lat="43.4261413" lon="12.9324238"><ele>237.33333333333331</ele><time>2026-04-19T12:26:31.006Z</time></trkpt><trkpt lat="43.4259679" lon="12.9324765"><ele>237.66666666666666</ele><time>2026-04-19T12:26:31.981Z</time></trkpt><trkpt lat="43.4257791" lon="12.9325485"><ele>238.0</ele><time>2026-04-19T12:26:32.998Z</time></trkpt><trkpt lat="43.4255917" lon="12.932608"><ele>238.0</ele><time>2026-04-19T12:26:33.99Z</time></trkpt><trkpt lat="43.425385" lon="12.9326457"><ele>238.0</ele><time>2026-04-19T12:26:34.988Z</time></trkpt><trkpt lat="43.4251813" lon="12.9326568"><ele>238.0</ele><time>2026-04-19T12:26:35.983Z</time></trkpt><trkpt lat="43.4249841" lon="12.9326447"><ele>238.0</ele><time>2026-04-19T12:26:36.983Z</time></trkpt><trkpt lat="43.4247819" lon="12.9326054"><ele>238.0</ele><time>2026-04-19T12:26:37.995Z</time></trkpt><trkpt lat="43.4245716" lon="12.9325177"><ele>238.0</ele><time>2026-04-19T12:26:38.986Z</time></trkpt><trkpt lat="43.4243527" lon="12.9323431"><ele>241.0</ele><time>2026-04-19T12:26:39.988Z</time></trkpt><trkpt lat="43.4241251" lon="12.9322004"><ele>244.0</ele><time>2026-04-19T12:26:40.984Z</time></trkpt><trkpt lat="43.4238996" lon="12.9320689"><ele>239.5</ele><time>2026-04-19T12:26:41.992Z</time></trkpt><trkpt lat="43.423655" lon="12.9319327"><ele>235.0</ele><time>2026-04-19T12:26:42.991Z</time></trkpt><trkpt lat="43.4233964" lon="12.9318095"><ele>238.5</ele><time>2026-04-19T12:26:43.981Z</time></trkpt><trkpt lat="43.4231342" lon="12.9316859"><ele>242.0</ele><time>2026-04-19T12:26:44.986Z</time></trkpt><trkpt lat="43.4228703" lon="12.9315668"><ele>242.0</ele><time>2026-04-19T12:26:45.988Z</time></trkpt><trkpt lat="43.4226098" lon="12.9314572"><ele>242.0</ele><time>2026-04-19T12:26:46.988Z</time></trkpt><trkpt lat="43.4223458" lon="12.9313757"><ele>240.5</ele><time>2026-04-19T12:26:47.993Z</time></trkpt><trkpt lat="43.4220682" lon="12.9313192"><ele>239.0</ele><time>2026-04-19T12:26:48.991Z</time></trkpt><trkpt lat="43.4217958" lon="12.9312682"><ele>239.0</ele><time>2026-04-19T12:26:49.987Z</time></trkpt><trkpt lat="43.4215112" lon="12.9312189"><ele>239.0</ele><time>2026-04-19T12:26:50.982Z</time></trkpt><trkpt lat="43.4212281" lon="12.9311725"><ele>236.5</ele><time>2026-04-19T12:26:51.987Z</time></trkpt><trkpt lat="43.4209552" lon="12.9311313"><ele>234.0</ele><time>2026-04-19T12:26:52.992Z</time></trkpt><trkpt lat="43.4206912" lon="12.9310932"><ele>233.0</ele><time>2026-04-19T12:26:53.988Z</time></trkpt><trkpt lat="43.4204354" lon="12.9310547"><ele>232.0</ele><time>2026-04-19T12:26:54.98Z</time></trkpt><trkpt lat="43.4201804" lon="12.9310143"><ele>232.0</ele><time>2026-04-19T12:26:55.981Z</time></trkpt><trkpt lat="43.4199329" lon="12.930967"><ele>232.0</ele><time>2026-04-19T12:26:56.986Z</time></trkpt><trkpt lat="43.4196698" lon="12.9309477"><ele>231.5</ele><time>2026-04-19T12:26:57.995Z</time></trkpt><trkpt lat="43.4194144" lon="12.9309"><ele>231.0</ele><time>2026-04-19T12:26:58.991Z</time></trkpt><trkpt lat="43.4191601" lon="12.9308578"><ele>234.5</ele><time>2026-04-19T12:26:59.992Z</time></trkpt><trkpt lat="43.4189006" lon="12.9308314"><ele>238.0</ele><time>2026-04-19T12:27:00.989Z</time></trkpt><trkpt lat="43.4186401" lon="12.930793"><ele>238.0</ele><time>2026-04-19T12:27:01.99Z</time></trkpt><trkpt lat="43.418381" lon="12.9307591"><ele>238.0</ele><time>2026-04-19T12:27:02.992Z</time></trkpt><trkpt lat="43.4181238" lon="12.9307037"><ele>236.0</ele><time>2026-04-19T12:27:03.985Z</time></trkpt><trkpt lat="43.4178669" lon="12.9306498"><ele>234.0</ele><time>2026-04-19T12:27:04.984Z</time></trkpt><trkpt lat="43.4176126" lon="12.930593"><ele>234.0</ele><time>2026-04-19T12:27:05.992Z</time></trkpt><trkpt lat="43.4173594" lon="12.9305468"><ele>234.0</ele><time>2026-04-19T12:27:06.987Z</time></trkpt><trkpt lat="43.4171116" lon="12.9304896"><ele>233.0</ele><time>2026-04-19T12:27:07.992Z</time></trkpt><trkpt lat="43.4168727" lon="12.9304341"><ele>232.0</ele><time>2026-04-19T12:27:08.991Z</time></trkpt><trkpt lat="43.4166385" lon="12.9303899"><ele>232.0</ele><time>2026-04-19T12:27:09.991Z</time></trkpt><trkpt lat="43.4164185" lon="12.9303393"><ele>232.0</ele><time>2026-04-19T12:27:10.987Z</time></trkpt><trkpt lat="43.4161996" lon="12.9302908"><ele>232.0</ele><time>2026-04-19T12:27:11.986Z</time></trkpt><trkpt lat="43.4159811" lon="12.9302504"><ele>231.66666666666666</ele><time>2026-04-19T12:27:12.988Z</time></trkpt><trkpt lat="43.415764" lon="12.930197"><ele>231.33333333333331</ele><time>2026-04-19T12:27:13.993Z</time></trkpt><trkpt lat="43.4155505" lon="12.9301288"><ele>231.0</ele><time>2026-04-19T12:27:14.982Z</time></trkpt><trkpt lat="43.4153347" lon="12.9300634"><ele>234.0</ele><time>2026-04-19T12:27:15.984Z</time></trkpt><trkpt lat="43.4151262" lon="12.929996"><ele>237.0</ele><time>2026-04-19T12:27:16.986Z</time></trkpt><trkpt lat="43.4149231" lon="12.9299215"><ele>240.0</ele><time>2026-04-19T12:27:17.984Z</time></trkpt><trkpt lat="43.4147214" lon="12.929855"><ele>238.33333333333331</ele><time>2026-04-19T12:27:18.993Z</time></trkpt><trkpt lat="43.414539" lon="12.9298086"><ele>236.66666666666666</ele><time>2026-04-19T12:27:19.989Z</time></trkpt><trkpt lat="43.4143619" lon="12.9297497"><ele>235.0</ele><time>2026-04-19T12:27:20.99Z</time></trkpt><trkpt lat="43.414183" lon="12.929688"><ele>235.0</ele><time>2026-04-19T12:27:21.989Z</time></trkpt><trkpt lat="43.4140076" lon="12.9296342"><ele>235.0</ele><time>2026-04-19T12:27:22.995Z</time></trkpt><trkpt lat="43.4138364" lon="12.9295773"><ele>235.0</ele><time>2026-04-19T12:27:23.986Z</time></trkpt><trkpt lat="43.4136574" lon="12.9295244"><ele>233.66666666666666</ele><time>2026-04-19T12:27:24.99Z</time></trkpt><trkpt lat="43.4134724" lon="12.9294864"><ele>232.33333333333331</ele><time>2026-04-19T12:27:25.983Z</time></trkpt><trkpt lat="43.413288" lon="12.929462"><ele>231.0</ele><time>2026-04-19T12:27:26.988Z</time></trkpt><trkpt lat="43.413098" lon="12.9294486"><ele>230.66666666666669</ele><time>2026-04-19T12:27:27.992Z</time></trkpt><trkpt lat="43.4129063" lon="12.9294393"><ele>230.33333333333334</ele><time>2026-04-19T12:27:28.995Z</time></trkpt><trkpt lat="43.4127205" lon="12.9294324"><ele>230.0</ele><time>2026-04-19T12:27:29.99Z</time></trkpt><trkpt lat="43.4125327" lon="12.9294217"><ele>230.0</ele><time>2026-04-19T12:27:30.988Z</time></trkpt><trkpt lat="43.4123509" lon="12.9294113"><ele>230.0</ele><time>2026-04-19T12:27:31.983Z</time></trkpt><trkpt lat="43.4121742" lon="12.9294011"><ele>230.0</ele><time>2026-04-19T12:27:32.997Z</time></trkpt><trkpt lat="43.4120027" lon="12.929382"><ele>230.33333333333334</ele><time>2026-04-19T12:27:33.979Z</time></trkpt><trkpt lat="43.4118326" lon="12.9293693"><ele>230.66666666666669</ele><time>2026-04-19T12:27:34.988Z</time></trkpt><trkpt lat="43.4116723" lon="12.9293599"><ele>231.0</ele><time>2026-04-19T12:27:35.991Z</time></trkpt><trkpt lat="43.411541" lon="12.929334"><ele>231.0</ele><time>2026-04-19T12:27:36.984Z</time></trkpt><trkpt lat="43.411403" lon="12.9293266"><ele>231.0</ele><time>2026-04-19T12:27:37.987Z</time></trkpt><trkpt lat="43.4112554" lon="12.9293393"><ele>231.0</ele><time>2026-04-19T12:27:38.987Z</time></trkpt><trkpt lat="43.4111072" lon="12.9293638"><ele>231.0</ele><time>2026-04-19T12:27:39.991Z</time></trkpt><trkpt lat="43.4109577" lon="12.9294071"><ele>231.33333333333331</ele><time>2026-04-19T12:27:40.987Z</time></trkpt><trkpt lat="43.4108027" lon="12.9294556"><ele>231.66666666666666</ele><time>2026-04-19T12:27:41.987Z</time></trkpt><trkpt lat="43.4106406" lon="12.9295131"><ele>232.0</ele><time>2026-04-19T12:27:42.986Z</time></trkpt><trkpt lat="43.4104884" lon="12.9295696"><ele>233.66666666666666</ele><time>2026-04-19T12:27:43.985Z</time></trkpt><trkpt lat="43.4103269" lon="12.9296366"><ele>235.33333333333331</ele><time>2026-04-19T12:27:44.98Z</time></trkpt><trkpt lat="43.4101751" lon="12.9297201"><ele>237.0</ele><time>2026-04-19T12:27:45.989Z</time></trkpt><trkpt lat="43.4100446" lon="12.9297882"><ele>237.0</ele><time>2026-04-19T12:27:46.991Z</time></trkpt><trkpt lat="43.4099163" lon="12.9298789"><ele>237.0</ele><time>2026-04-19T12:27:47.987Z</time></trkpt><trkpt lat="43.4097822" lon="12.9299678"><ele>237.0</ele><time>2026-04-19T12:27:48.984Z</time></trkpt><trkpt lat="43.4096476" lon="12.9300736"><ele>237.0</ele><time>2026-04-19T12:27:49.993Z</time></trkpt><trkpt lat="43.4095339" lon="12.9301879"><ele>237.5</ele><time>2026-04-19T12:27:50.996Z</time></trkpt><trkpt lat="43.4094343" lon="12.9302974"><ele>238.0</ele><time>2026-04-19T12:27:51.983Z</time></trkpt><trkpt lat="43.4093412" lon="12.9304157"><ele>238.5</ele><time>2026-04-19T12:27:52.981Z</time></trkpt><trkpt lat="43.4092435" lon="12.9305701"><ele>239.0</ele><time>2026-04-19T12:27:53.983Z</time></trkpt><trkpt lat="43.4091613" lon="12.9307269"><ele>239.0</ele><time>2026-04-19T12:27:54.994Z</time></trkpt><trkpt lat="43.409088" lon="12.9308837"><ele>239.0</ele><time>2026-04-19T12:27:55.989Z</time></trkpt><trkpt lat="43.4090151" lon="12.9310742"><ele>239.0</ele><time>2026-04-19T12:27:56.996Z</time></trkpt><trkpt lat="43.4089427" lon="12.9312843"><ele>240.0</ele><time>2026-04-19T12:27:57.993Z</time></trkpt><trkpt lat="43.4088748" lon="12.9314891"><ele>241.0</ele><time>2026-04-19T12:27:58.987Z</time></trkpt><trkpt lat="43.4088047" lon="12.9316786"><ele>242.0</ele><time>2026-04-19T12:27:59.99Z</time></trkpt><trkpt lat="43.4087293" lon="12.9318809"><ele>242.0</ele><time>2026-04-19T12:28:00.983Z</time></trkpt><trkpt lat="43.4086596" lon="12.9320809"><ele>242.0</ele><time>2026-04-19T12:28:01.988Z</time></trkpt><trkpt lat="43.4085943" lon="12.9322907"><ele>242.0</ele><time>2026-04-19T12:28:02.991Z</time></trkpt><trkpt lat="43.4085241" lon="12.9324852"><ele>239.0</ele><time>2026-04-19T12:28:03.991Z</time></trkpt><trkpt lat="43.4084496" lon="12.9326529"><ele>236.0</ele><time>2026-04-19T12:28:04.989Z</time></trkpt><trkpt lat="43.4083769" lon="12.9328034"><ele>233.0</ele><time>2026-04-19T12:28:05.984Z</time></trkpt><trkpt lat="43.4083235" lon="12.9329069"><ele>230.0</ele><time>2026-04-19T12:28:06.988Z</time></trkpt><trkpt lat="43.4082748" lon="12.9330165"><ele>230.00000000000003</ele><time>2026-04-19T12:28:07.989Z</time></trkpt><trkpt lat="43.4082247" lon="12.9331216"><ele>230.0</ele><time>2026-04-19T12:28:08.989Z</time></trkpt><trkpt lat="43.4081848" lon="12.9332165"><ele>230.0</ele><time>2026-04-19T12:28:09.982Z</time></trkpt><trkpt lat="43.408151" lon="12.9332917"><ele>230.0</ele><time>2026-04-19T12:28:10.986Z</time></trkpt><trkpt lat="43.4080881" lon="12.9334062"><ele>230.00000000000003</ele><time>2026-04-19T12:28:12.987Z</time></trkpt><trkpt lat="43.4080304" lon="12.9335087"><ele>230.0</ele><time>2026-04-19T12:28:14.981Z</time></trkpt><trkpt lat="43.4079872" lon="12.9335992"><ele>229.33333333333334</ele><time>2026-04-19T12:28:16.989Z</time></trkpt><trkpt lat="43.4079517" lon="12.9336948"><ele>228.66666666666669</ele><time>2026-04-19T12:28:19.992Z</time></trkpt><trkpt lat="43.4079139" lon="12.9337819"><ele>228.0</ele><time>2026-04-19T12:28:22.983Z</time></trkpt><trkpt lat="43.4078625" lon="12.9338486"><ele>227.33333333333331</ele><time>2026-04-19T12:28:26.997Z</time></trkpt><trkpt lat="43.4078047" lon="12.9340004"><ele>226.66666666666666</ele><time>2026-04-19T12:28:30.98Z</time></trkpt><trkpt lat="43.4077603" lon="12.9340848"><ele>226.0</ele><time>2026-04-19T12:28:31.984Z</time></trkpt><trkpt lat="43.4077057" lon="12.9341746"><ele>227.25</ele><time>2026-04-19T12:28:32.986Z</time></trkpt><trkpt lat="43.4076387" lon="12.9342809"><ele>228.5</ele><time>2026-04-19T12:28:33.995Z</time></trkpt><trkpt lat="43.4075603" lon="12.9344352"><ele>229.75</ele><time>2026-04-19T12:28:34.996Z</time></trkpt><trkpt lat="43.4074889" lon="12.9345615"><ele>231.0</ele><time>2026-04-19T12:28:35.998Z</time></trkpt><trkpt lat="43.4074139" lon="12.934716"><ele>231.0</ele><time>2026-04-19T12:28:36.992Z</time></trkpt><trkpt lat="43.4073295" lon="12.9348781"><ele>231.0</ele><time>2026-04-19T12:28:37.997Z</time></trkpt><trkpt lat="43.407236" lon="12.9350401"><ele>231.0</ele><time>2026-04-19T12:28:38.99Z</time></trkpt><trkpt lat="43.4071338" lon="12.9352051"><ele>230.66666666666669</ele><time>2026-04-19T12:28:39.992Z</time></trkpt><trkpt lat="43.4070365" lon="12.9353752"><ele>230.33333333333334</ele><time>2026-04-19T12:28:40.987Z</time></trkpt><trkpt lat="43.4069397" lon="12.9355484"><ele>230.0</ele><time>2026-04-19T12:28:41.993Z</time></trkpt><trkpt lat="43.4068421" lon="12.9357353"><ele>231.0</ele><time>2026-04-19T12:28:43Z</time></trkpt><trkpt lat="43.4067446" lon="12.9359105"><ele>232.0</ele><time>2026-04-19T12:28:43.995Z</time></trkpt><trkpt lat="43.4066528" lon="12.9360792"><ele>233.0</ele><time>2026-04-19T12:28:44.989Z</time></trkpt><trkpt lat="43.4065814" lon="12.9362439"><ele>233.0</ele><time>2026-04-19T12:28:45.988Z</time></trkpt><trkpt lat="43.4065245" lon="12.9364316"><ele>233.0</ele><time>2026-04-19T12:28:46.983Z</time></trkpt><trkpt lat="43.406504" lon="12.9366237"><ele>233.0</ele><time>2026-04-19T12:28:47.987Z</time></trkpt><trkpt lat="43.4065244" lon="12.9368173"><ele>233.0</ele><time>2026-04-19T12:28:48.985Z</time></trkpt><trkpt lat="43.4065723" lon="12.9370085"><ele>232.66666666666669</ele><time>2026-04-19T12:28:49.987Z</time></trkpt><trkpt lat="43.4066373" lon="12.937199"><ele>232.33333333333331</ele><time>2026-04-19T12:28:50.989Z</time></trkpt><trkpt lat="43.4067015" lon="12.9373928"><ele>232.0</ele><time>2026-04-19T12:28:51.984Z</time></trkpt><trkpt lat="43.4067625" lon="12.9375897"><ele>231.0</ele><time>2026-04-19T12:28:52.981Z</time></trkpt><trkpt lat="43.4068114" lon="12.9377895"><ele>230.0</ele><time>2026-04-19T12:28:53.987Z</time></trkpt><trkpt lat="43.4068427" lon="12.9379961"><ele>229.0</ele><time>2026-04-19T12:28:54.99Z</time></trkpt><trkpt lat="43.4068565" lon="12.9382142"><ele>228.66666666666666</ele><time>2026-04-19T12:28:55.979Z</time></trkpt><trkpt lat="43.4068604" lon="12.9384349"><ele>228.33333333333331</ele><time>2026-04-19T12:28:56.987Z</time></trkpt><trkpt lat="43.406855" lon="12.9386633"><ele>228.0</ele><time>2026-04-19T12:28:57.988Z</time></trkpt><trkpt lat="43.4068545" lon="12.9389037"><ele>228.0</ele><time>2026-04-19T12:28:58.989Z</time></trkpt><trkpt lat="43.4068524" lon="12.9391455"><ele>228.0</ele><time>2026-04-19T12:28:59.984Z</time></trkpt><trkpt lat="43.4068443" lon="12.9393885"><ele>228.0</ele><time>2026-04-19T12:29:00.981Z</time></trkpt><trkpt lat="43.4068346" lon="12.9396332"><ele>230.66666666666669</ele><time>2026-04-19T12:29:01.99Z</time></trkpt><trkpt lat="43.4068174" lon="12.9398715"><ele>233.33333333333334</ele><time>2026-04-19T12:29:02.99Z</time></trkpt><trkpt lat="43.406785" lon="12.9401031"><ele>236.0</ele><time>2026-04-19T12:29:03.991Z</time></trkpt><trkpt lat="43.4067343" lon="12.9403427"><ele>238.66666666666669</ele><time>2026-04-19T12:29:04.981Z</time></trkpt><trkpt lat="43.4066695" lon="12.9405616"><ele>241.33333333333331</ele><time>2026-04-19T12:29:05.988Z</time></trkpt><trkpt lat="43.4065842" lon="12.9407579"><ele>244.0</ele><time>2026-04-19T12:29:06.985Z</time></trkpt><trkpt lat="43.4064874" lon="12.9409497"><ele>240.33333333333331</ele><time>2026-04-19T12:29:07.984Z</time></trkpt><trkpt lat="43.4063428" lon="12.9411209"><ele>236.66666666666669</ele><time>2026-04-19T12:29:08.99Z</time></trkpt><trkpt lat="43.4062034" lon="12.9412784"><ele>233.0</ele><time>2026-04-19T12:29:09.98Z</time></trkpt><trkpt lat="43.4060687" lon="12.9414349"><ele>233.0</ele><time>2026-04-19T12:29:10.996Z</time></trkpt><trkpt lat="43.4059468" lon="12.9415629"><ele>233.0</ele><time>2026-04-19T12:29:11.98Z</time></trkpt><trkpt lat="43.4058384" lon="12.9417101"><ele>233.0</ele><time>2026-04-19T12:29:12.991Z</time></trkpt><trkpt lat="43.4057378" lon="12.9418468"><ele>233.0</ele><time>2026-04-19T12:29:13.993Z</time></trkpt><trkpt lat="43.4056612" lon="12.9419795"><ele>235.5</ele><time>2026-04-19T12:29:14.998Z</time></trkpt><trkpt lat="43.4056065" lon="12.9421392"><ele>238.0</ele><time>2026-04-19T12:29:15.982Z</time></trkpt><trkpt lat="43.405565" lon="12.9422846"><ele>240.5</ele><time>2026-04-19T12:29:16.987Z</time></trkpt><trkpt lat="43.4055702" lon="12.9424506"><ele>243.0</ele><time>2026-04-19T12:29:17.986Z</time></trkpt><trkpt lat="43.4055646" lon="12.9426009"><ele>244.5</ele><time>2026-04-19T12:29:18.999Z</time></trkpt><trkpt lat="43.4055905" lon="12.9427481"><ele>246.0</ele><time>2026-04-19T12:29:19.984Z</time></trkpt><trkpt lat="43.4056082" lon="12.942912"><ele>247.5</ele><time>2026-04-19T12:29:20.991Z</time></trkpt><trkpt lat="43.4056301" lon="12.943087"><ele>249.0</ele><time>2026-04-19T12:29:21.984Z</time></trkpt><trkpt lat="43.4056514" lon="12.9432691"><ele>249.0</ele><time>2026-04-19T12:29:22.982Z</time></trkpt><trkpt lat="43.4056782" lon="12.9434573"><ele>249.0</ele><time>2026-04-19T12:29:23.989Z</time></trkpt><trkpt lat="43.4057108" lon="12.9436478"><ele>249.0</ele><time>2026-04-19T12:29:24.988Z</time></trkpt><trkpt lat="43.4057543" lon="12.94387"><ele>249.0</ele><time>2026-04-19T12:29:25.991Z</time></trkpt><trkpt lat="43.4057973" lon="12.9440757"><ele>248.66666666666669</ele><time>2026-04-19T12:29:26.984Z</time></trkpt><trkpt lat="43.4058262" lon="12.9442922"><ele>248.33333333333334</ele><time>2026-04-19T12:29:27.985Z</time></trkpt><trkpt lat="43.4058645" lon="12.944488"><ele>248.0</ele><time>2026-04-19T12:29:28.985Z</time></trkpt><trkpt lat="43.4058646" lon="12.9447062"><ele>248.0</ele><time>2026-04-19T12:29:29.989Z</time></trkpt><trkpt lat="43.4058546" lon="12.9449269"><ele>248.0</ele><time>2026-04-19T12:29:30.989Z</time></trkpt><trkpt lat="43.4058146" lon="12.9451293"><ele>248.0</ele><time>2026-04-19T12:29:31.984Z</time></trkpt><trkpt lat="43.4057659" lon="12.9453155"><ele>248.75</ele><time>2026-04-19T12:29:32.978Z</time></trkpt><trkpt lat="43.405712" lon="12.9454898"><ele>249.5</ele><time>2026-04-19T12:29:33.985Z</time></trkpt><trkpt lat="43.4055987" lon="12.945634"><ele>250.25</ele><time>2026-04-19T12:29:34.992Z</time></trkpt><trkpt lat="43.4054933" lon="12.9457928"><ele>251.0</ele><time>2026-04-19T12:29:36Z</time></trkpt><trkpt lat="43.4053698" lon="12.9459284"><ele>247.0</ele><time>2026-04-19T12:29:36.985Z</time></trkpt><trkpt lat="43.4053208" lon="12.9461192"><ele>243.0</ele><time>2026-04-19T12:29:38.001Z</time></trkpt><trkpt lat="43.4052454" lon="12.9462987"><ele>239.0</ele><time>2026-04-19T12:29:38.982Z</time></trkpt><trkpt lat="43.4051979" lon="12.9464762"><ele>235.0</ele><time>2026-04-19T12:29:39.984Z</time></trkpt><trkpt lat="43.4051471" lon="12.9466596"><ele>241.0</ele><time>2026-04-19T12:29:40.99Z</time></trkpt><trkpt lat="43.4050923" lon="12.9468256"><ele>247.0</ele><time>2026-04-19T12:29:41.989Z</time></trkpt><trkpt lat="43.4050371" lon="12.9469989"><ele>253.0</ele><time>2026-04-19T12:29:42.978Z</time></trkpt><trkpt lat="43.4049853" lon="12.9471877"><ele>259.0</ele><time>2026-04-19T12:29:43.992Z</time></trkpt><trkpt lat="43.4049246" lon="12.9473747"><ele>254.75</ele><time>2026-04-19T12:29:44.987Z</time></trkpt><trkpt lat="43.4048538" lon="12.9475479"><ele>250.5</ele><time>2026-04-19T12:29:45.979Z</time></trkpt><trkpt lat="43.4047778" lon="12.9477055"><ele>246.25</ele><time>2026-04-19T12:29:46.98Z</time></trkpt><trkpt lat="43.404674" lon="12.9478439"><ele>242.0</ele><time>2026-04-19T12:29:47.988Z</time></trkpt><trkpt lat="43.4045663" lon="12.9479855"><ele>242.0</ele><time>2026-04-19T12:29:48.988Z</time></trkpt><trkpt lat="43.4044426" lon="12.9481199"><ele>242.0</ele><time>2026-04-19T12:29:49.982Z</time></trkpt><trkpt lat="43.4043085" lon="12.948237"><ele>242.0</ele><time>2026-04-19T12:29:50.988Z</time></trkpt><trkpt lat="43.4041698" lon="12.9483482"><ele>245.33333333333334</ele><time>2026-04-19T12:29:51.978Z</time></trkpt><trkpt lat="43.4040048" lon="12.9484201"><ele>248.66666666666669</ele><time>2026-04-19T12:29:52.987Z</time></trkpt><trkpt lat="43.4038397" lon="12.9484978"><ele>252.0</ele><time>2026-04-19T12:29:53.988Z</time></trkpt><trkpt lat="43.4036815" lon="12.9485788"><ele>252.0</ele><time>2026-04-19T12:29:54.984Z</time></trkpt><trkpt lat="43.4035272" lon="12.9486695"><ele>252.0</ele><time>2026-04-19T12:29:55.986Z</time></trkpt><trkpt lat="43.403389" lon="12.9487418"><ele>252.0</ele><time>2026-04-19T12:29:56.984Z</time></trkpt><trkpt lat="43.4032373" lon="12.9487961"><ele>252.0</ele><time>2026-04-19T12:29:57.988Z</time></trkpt><trkpt lat="43.4031172" lon="12.948794"><ele>252.0</ele><time>2026-04-19T12:29:58.982Z</time></trkpt><trkpt lat="43.402984" lon="12.9487827"><ele>252.0</ele><time>2026-04-19T12:29:59.983Z</time></trkpt><trkpt lat="43.4028734" lon="12.9487999"><ele>252.0</ele><time>2026-04-19T12:30:00.983Z</time></trkpt><trkpt lat="43.402742" lon="12.9488454"><ele>254.25</ele><time>2026-04-19T12:30:01.986Z</time></trkpt><trkpt lat="43.4026247" lon="12.9489298"><ele>256.5</ele><time>2026-04-19T12:30:02.991Z</time></trkpt><trkpt lat="43.4025051" lon="12.9490463"><ele>258.75</ele><time>2026-04-19T12:30:03.983Z</time></trkpt><trkpt lat="43.4024057" lon="12.9492091"><ele>261.0</ele><time>2026-04-19T12:30:04.979Z</time></trkpt><trkpt lat="43.4022946" lon="12.9493748"><ele>262.6666666666667</ele><time>2026-04-19T12:30:05.993Z</time></trkpt><trkpt lat="43.4021787" lon="12.9495335"><ele>264.33333333333337</ele><time>2026-04-19T12:30:06.992Z</time></trkpt><trkpt lat="43.4020734" lon="12.949708"><ele>266.0</ele><time>2026-04-19T12:30:07.989Z</time></trkpt><trkpt lat="43.4020021" lon="12.9499058"><ele>266.0</ele><time>2026-04-19T12:30:08.998Z</time></trkpt><trkpt lat="43.4019803" lon="12.9501528"><ele>266.0</ele><time>2026-04-19T12:30:09.991Z</time></trkpt><trkpt lat="43.4019287" lon="12.9503799"><ele>266.0</ele><time>2026-04-19T12:30:10.986Z</time></trkpt><trkpt lat="43.4018794" lon="12.950618"><ele>266.0</ele><time>2026-04-19T12:30:11.992Z</time></trkpt><trkpt lat="43.4018301" lon="12.9508629"><ele>266.0</ele><time>2026-04-19T12:30:12.994Z</time></trkpt><trkpt lat="43.4017887" lon="12.9511209"><ele>266.0</ele><time>2026-04-19T12:30:13.981Z</time></trkpt><trkpt lat="43.4017405" lon="12.9513698"><ele>266.0</ele><time>2026-04-19T12:30:14.992Z</time></trkpt><trkpt lat="43.4016866" lon="12.9516064"><ele>266.0</ele><time>2026-04-19T12:30:15.984Z</time></trkpt><trkpt lat="43.4016566" lon="12.9518486"><ele>266.0</ele><time>2026-04-19T12:30:16.985Z</time></trkpt><trkpt lat="43.4016527" lon="12.9521045"><ele>266.0</ele><time>2026-04-19T12:30:17.977Z</time></trkpt><trkpt lat="43.4016435" lon="12.9523605"><ele>266.0</ele><time>2026-04-19T12:30:18.993Z</time></trkpt><trkpt lat="43.4016416" lon="12.95262"><ele>266.0</ele><time>2026-04-19T12:30:19.986Z</time></trkpt><trkpt lat="43.401653" lon="12.9528917"><ele>266.0</ele><time>2026-04-19T12:30:20.985Z</time></trkpt><trkpt lat="43.4016693" lon="12.9531546"><ele>266.0</ele><time>2026-04-19T12:30:21.975Z</time></trkpt><trkpt lat="43.4016898" lon="12.9534231"><ele>266.0</ele><time>2026-04-19T12:30:22.993Z</time></trkpt><trkpt lat="43.4017109" lon="12.9536908"><ele>266.0</ele><time>2026-04-19T12:30:23.989Z</time></trkpt><trkpt lat="43.4017187" lon="12.9539567"><ele>266.0</ele><time>2026-04-19T12:30:24.983Z</time></trkpt><trkpt lat="43.4017197" lon="12.9542132"><ele>266.0</ele><time>2026-04-19T12:30:25.979Z</time></trkpt><trkpt lat="43.4017085" lon="12.9544472"><ele>266.0</ele><time>2026-04-19T12:30:26.988Z</time></trkpt><trkpt lat="43.4016993" lon="12.9546602"><ele>266.0</ele><time>2026-04-19T12:30:27.989Z</time></trkpt><trkpt lat="43.4016926" lon="12.9548609"><ele>266.0</ele><time>2026-04-19T12:30:28.985Z</time></trkpt><trkpt lat="43.4016843" lon="12.9550664"><ele>266.0</ele><time>2026-04-19T12:30:29.986Z</time></trkpt><trkpt lat="43.4016717" lon="12.9552665"><ele>266.0</ele><time>2026-04-19T12:30:30.991Z</time></trkpt><trkpt lat="43.4016635" lon="12.9554497"><ele>266.0</ele><time>2026-04-19T12:30:31.976Z</time></trkpt><trkpt lat="43.4016722" lon="12.9556324"><ele>266.0</ele><time>2026-04-19T12:30:32.988Z</time></trkpt><trkpt lat="43.4017167" lon="12.9557905"><ele>266.0</ele><time>2026-04-19T12:30:33.99Z</time></trkpt><trkpt lat="43.4017846" lon="12.9559399"><ele>266.0</ele><time>2026-04-19T12:30:34.989Z</time></trkpt><trkpt lat="43.4018491" lon="12.9560742"><ele>266.0</ele><time>2026-04-19T12:30:35.98Z</time></trkpt><trkpt lat="43.4018966" lon="12.9562156"><ele>266.0</ele><time>2026-04-19T12:30:36.993Z</time></trkpt><trkpt lat="43.4019293" lon="12.9563677"><ele>266.0</ele><time>2026-04-19T12:30:37.989Z</time></trkpt><trkpt lat="43.4018852" lon="12.9565352"><ele>266.0</ele><time>2026-04-19T12:30:38.988Z</time></trkpt><trkpt lat="43.4018582" lon="12.9566982"><ele>266.0</ele><time>2026-04-19T12:30:39.991Z</time></trkpt><trkpt lat="43.4018145" lon="12.9568907"><ele>266.0</ele><time>2026-04-19T12:30:40.983Z</time></trkpt><trkpt lat="43.4017904" lon="12.9570984"><ele>266.0</ele><time>2026-04-19T12:30:41.986Z</time></trkpt><trkpt lat="43.4017628" lon="12.9573287"><ele>266.0</ele><time>2026-04-19T12:30:42.984Z</time></trkpt><trkpt lat="43.4017464" lon="12.9575809"><ele>266.0</ele><time>2026-04-19T12:30:43.989Z</time></trkpt><trkpt lat="43.4017506" lon="12.9578388"><ele>266.0</ele><time>2026-04-19T12:30:44.988Z</time></trkpt><trkpt lat="43.4017562" lon="12.9580861"><ele>266.0</ele><time>2026-04-19T12:30:45.989Z</time></trkpt><trkpt lat="43.4017468" lon="12.9583333"><ele>266.0</ele><time>2026-04-19T12:30:46.989Z</time></trkpt><trkpt lat="43.4017314" lon="12.9585735"><ele>266.0</ele><time>2026-04-19T12:30:47.988Z</time></trkpt><trkpt lat="43.401689" lon="12.9587982"><ele>266.0</ele><time>2026-04-19T12:30:48.982Z</time></trkpt><trkpt lat="43.4016513" lon="12.9590188"><ele>266.0</ele><time>2026-04-19T12:30:49.985Z</time></trkpt><trkpt lat="43.4016129" lon="12.9592059"><ele>266.0</ele><time>2026-04-19T12:30:50.989Z</time></trkpt><trkpt lat="43.4015486" lon="12.9593885"><ele>266.0</ele><time>2026-04-19T12:30:51.99Z</time></trkpt><trkpt lat="43.401463" lon="12.9595653"><ele>266.0</ele><time>2026-04-19T12:30:52.998Z</time></trkpt><trkpt lat="43.4013825" lon="12.9597244"><ele>266.0</ele><time>2026-04-19T12:30:53.988Z</time></trkpt><trkpt lat="43.4012959" lon="12.959873"><ele>266.0</ele><time>2026-04-19T12:30:54.989Z</time></trkpt><trkpt lat="43.4012173" lon="12.960013"><ele>266.0</ele><time>2026-04-19T12:30:55.983Z</time></trkpt><trkpt lat="43.4011187" lon="12.9601423"><ele>266.0</ele><time>2026-04-19T12:30:56.987Z</time></trkpt><trkpt lat="43.4009719" lon="12.9602408"><ele>266.0</ele><time>2026-04-19T12:30:57.988Z</time></trkpt><trkpt lat="43.4008515" lon="12.9603547"><ele>266.0</ele><time>2026-04-19T12:30:58.988Z</time></trkpt><trkpt lat="43.4007181" lon="12.9604874"><ele>266.0</ele><time>2026-04-19T12:30:59.981Z</time></trkpt><trkpt lat="43.4006256" lon="12.9606421"><ele>266.0</ele><time>2026-04-19T12:31:00.993Z</time></trkpt><trkpt lat="43.4005657" lon="12.9608289"><ele>266.0</ele><time>2026-04-19T12:31:01.981Z</time></trkpt><trkpt lat="43.4005004" lon="12.9610035"><ele>266.0</ele><time>2026-04-19T12:31:02.982Z</time></trkpt><trkpt lat="43.4004333" lon="12.9611846"><ele>266.0</ele><time>2026-04-19T12:31:03.999Z</time></trkpt><trkpt lat="43.4003823" lon="12.9613658"><ele>266.0</ele><time>2026-04-19T12:31:04.994Z</time></trkpt><trkpt lat="43.4003448" lon="12.9615407"><ele>264.5</ele><time>2026-04-19T12:31:05.988Z</time></trkpt><trkpt lat="43.4003483" lon="12.9617141"><ele>263.0</ele><time>2026-04-19T12:31:06.982Z</time></trkpt><trkpt lat="43.4003484" lon="12.9618955"><ele>261.5</ele><time>2026-04-19T12:31:07.987Z</time></trkpt><trkpt lat="43.4003989" lon="12.9620666"><ele>260.0</ele><time>2026-04-19T12:31:08.982Z</time></trkpt><trkpt lat="43.4004363" lon="12.9622439"><ele>260.0</ele><time>2026-04-19T12:31:09.992Z</time></trkpt><trkpt lat="43.40048" lon="12.9624332"><ele>260.0</ele><time>2026-04-19T12:31:10.988Z</time></trkpt><trkpt lat="43.4005223" lon="12.9626227"><ele>260.0</ele><time>2026-04-19T12:31:11.988Z</time></trkpt><trkpt lat="43.4005603" lon="12.9628275"><ele>260.0</ele><time>2026-04-19T12:31:12.99Z</time></trkpt><trkpt lat="43.4005672" lon="12.9630303"><ele>248.66666666666669</ele><time>2026-04-19T12:31:13.984Z</time></trkpt><trkpt lat="43.4005661" lon="12.9632626"><ele>237.33333333333331</ele><time>2026-04-19T12:31:14.98Z</time></trkpt><trkpt lat="43.4005637" lon="12.9634803"><ele>226.0</ele><time>2026-04-19T12:31:15.988Z</time></trkpt><trkpt lat="43.4005354" lon="12.9636893"><ele>223.0</ele><time>2026-04-19T12:31:16.993Z</time></trkpt><trkpt lat="43.4005152" lon="12.9639047"><ele>220.0</ele><time>2026-04-19T12:31:17.982Z</time></trkpt><trkpt lat="43.4004905" lon="12.9641057"><ele>217.0</ele><time>2026-04-19T12:31:18.981Z</time></trkpt><trkpt lat="43.4004527" lon="12.964299"><ele>231.0</ele><time>2026-04-19T12:31:19.986Z</time></trkpt><trkpt lat="43.4004361" lon="12.9644669"><ele>245.0</ele><time>2026-04-19T12:31:20.995Z</time></trkpt><trkpt lat="43.400421" lon="12.9646275"><ele>259.0</ele><time>2026-04-19T12:31:21.99Z</time></trkpt><trkpt lat="43.4004054" lon="12.9647807"><ele>273.0</ele><time>2026-04-19T12:31:22.987Z</time></trkpt><trkpt lat="43.4004021" lon="12.9649311"><ele>275.4</ele><time>2026-04-19T12:31:23.988Z</time></trkpt><trkpt lat="43.4004266" lon="12.9650912"><ele>277.8</ele><time>2026-04-19T12:31:24.991Z</time></trkpt><trkpt lat="43.4004375" lon="12.9652356"><ele>280.2</ele><time>2026-04-19T12:31:25.989Z</time></trkpt><trkpt lat="43.4004859" lon="12.9653682"><ele>282.6</ele><time>2026-04-19T12:31:26.986Z</time></trkpt><trkpt lat="43.4005311" lon="12.9654737"><ele>285.0</ele><time>2026-04-19T12:31:27.989Z</time></trkpt><trkpt lat="43.40057" lon="12.9655532"><ele>279.4</ele><time>2026-04-19T12:31:28.986Z</time></trkpt><trkpt lat="43.4006395" lon="12.9656277"><ele>273.8</ele><time>2026-04-19T12:31:29.985Z</time></trkpt><trkpt lat="43.4007103" lon="12.9656949"><ele>268.2</ele><time>2026-04-19T12:31:30.989Z</time></trkpt><trkpt lat="43.4007839" lon="12.9657653"><ele>262.6</ele><time>2026-04-19T12:31:31.985Z</time></trkpt><trkpt lat="43.4009036" lon="12.9658525"><ele>257.0</ele><time>2026-04-19T12:31:32.979Z</time></trkpt><trkpt lat="43.4010368" lon="12.9659562"><ele>257.0</ele><time>2026-04-19T12:31:33.989Z</time></trkpt><trkpt lat="43.4011623" lon="12.9660676"><ele>257.0</ele><time>2026-04-19T12:31:34.986Z</time></trkpt><trkpt lat="43.401297" lon="12.966191"><ele>257.0</ele><time>2026-04-19T12:31:35.99Z</time></trkpt><trkpt lat="43.4014184" lon="12.9662824"><ele>247.75</ele><time>2026-04-19T12:31:36.991Z</time></trkpt><trkpt lat="43.4015338" lon="12.9663903"><ele>238.5</ele><time>2026-04-19T12:31:38Z</time></trkpt><trkpt lat="43.4016385" lon="12.9664888"><ele>229.25</ele><time>2026-04-19T12:31:38.979Z</time></trkpt><trkpt lat="43.401736" lon="12.9665785"><ele>220.0</ele><time>2026-04-19T12:31:39.992Z</time></trkpt><trkpt lat="43.4018264" lon="12.9666559"><ele>222.0</ele><time>2026-04-19T12:31:40.99Z</time></trkpt><trkpt lat="43.4019168" lon="12.9667461"><ele>224.0</ele><time>2026-04-19T12:31:41.984Z</time></trkpt><trkpt lat="43.4020024" lon="12.966813"><ele>226.0</ele><time>2026-04-19T12:31:42.989Z</time></trkpt><trkpt lat="43.4020916" lon="12.9668765"><ele>228.0</ele><time>2026-04-19T12:31:43.993Z</time></trkpt><trkpt lat="43.4021702" lon="12.9669379"><ele>230.0</ele><time>2026-04-19T12:31:44.981Z</time></trkpt><trkpt lat="43.402207" lon="12.9670159"><ele>226.00000000000003</ele><time>2026-04-19T12:31:45.985Z</time></trkpt><trkpt lat="43.4022473" lon="12.9671159"><ele>222.0</ele><time>2026-04-19T12:31:47.989Z</time></trkpt><trkpt lat="43.4022566" lon="12.9672064"><ele>218.0</ele><time>2026-04-19T12:31:53.983Z</time></trkpt><trkpt lat="43.4023257" lon="12.9672702"><ele>214.0</ele><time>2026-04-19T12:32:46.99Z</time></trkpt><trkpt lat="43.4023924" lon="12.967338"><ele>210.00000000000003</ele><time>2026-04-19T12:32:51.991Z</time></trkpt><trkpt lat="43.4023736" lon="12.9674273"><ele>206.0</ele><time>2026-04-19T12:32:52.98Z</time></trkpt><trkpt lat="43.4023849" lon="12.9675345"><ele>206.00000000000003</ele><time>2026-04-19T12:32:53.982Z</time></trkpt><trkpt lat="43.4024056" lon="12.9676334"><ele>206.0</ele><time>2026-04-19T12:32:54.987Z</time></trkpt><trkpt lat="43.4024256" lon="12.9677487"><ele>206.0</ele><time>2026-04-19T12:32:56Z</time></trkpt><trkpt lat="43.4024465" lon="12.9678525"><ele>206.0</ele><time>2026-04-19T12:32:56.99Z</time></trkpt><trkpt lat="43.4024697" lon="12.9679503"><ele>206.00000000000003</ele><time>2026-04-19T12:32:57.979Z</time></trkpt><trkpt lat="43.4024916" lon="12.9680519"><ele>206.0</ele><time>2026-04-19T12:32:58.985Z</time></trkpt><trkpt lat="43.4024935" lon="12.9681484"><ele>206.0</ele><time>2026-04-19T12:32:59.987Z</time></trkpt><trkpt lat="43.4024965" lon="12.968243"><ele>206.0</ele><time>2026-04-19T12:33:00.983Z</time></trkpt><trkpt lat="43.4024924" lon="12.9683362"><ele>206.0</ele><time>2026-04-19T12:33:01.988Z</time></trkpt><trkpt lat="43.4024942" lon="12.9684248"><ele>206.0</ele><time>2026-04-19T12:33:03Z</time></trkpt><trkpt lat="43.4024883" lon="12.9685982"><ele>206.0</ele><time>2026-04-19T12:33:04.977Z</time></trkpt><trkpt lat="43.4024569" lon="12.9687785"><ele>206.20000000000002</ele><time>2026-04-19T12:33:06.984Z</time></trkpt><trkpt lat="43.4024401" lon="12.9688829"><ele>206.4</ele><time>2026-04-19T12:33:07.988Z</time></trkpt><trkpt lat="43.4024049" lon="12.969004"><ele>206.6</ele><time>2026-04-19T12:33:08.976Z</time></trkpt><trkpt lat="43.402361" lon="12.9691324"><ele>206.8</ele><time>2026-04-19T12:33:09.98Z</time></trkpt><trkpt lat="43.40231" lon="12.969271"><ele>207.0</ele><time>2026-04-19T12:33:10.982Z</time></trkpt><trkpt lat="43.4022507" lon="12.9694213"><ele>207.0</ele><time>2026-04-19T12:33:11.99Z</time></trkpt><trkpt lat="43.4021819" lon="12.9695783"><ele>207.0</ele><time>2026-04-19T12:33:12.992Z</time></trkpt><trkpt lat="43.4021121" lon="12.9697299"><ele>207.0</ele><time>2026-04-19T12:33:13.992Z</time></trkpt><trkpt lat="43.402038" lon="12.9698989"><ele>207.0</ele><time>2026-04-19T12:33:14.983Z</time></trkpt><trkpt lat="43.4019631" lon="12.9700628"><ele>207.0</ele><time>2026-04-19T12:33:15.983Z</time></trkpt><trkpt lat="43.4018792" lon="12.9702395"><ele>207.0</ele><time>2026-04-19T12:33:16.99Z</time></trkpt><trkpt lat="43.4018007" lon="12.970389"><ele>207.0</ele><time>2026-04-19T12:33:17.992Z</time></trkpt><trkpt lat="43.4017162" lon="12.9705796"><ele>207.0</ele><time>2026-04-19T12:33:18.995Z</time></trkpt><trkpt lat="43.4016217" lon="12.9707832"><ele>207.0</ele><time>2026-04-19T12:33:19.979Z</time></trkpt><trkpt lat="43.4015393" lon="12.9709619"><ele>207.0</ele><time>2026-04-19T12:33:20.997Z</time></trkpt><trkpt lat="43.4014711" lon="12.9711406"><ele>207.0</ele><time>2026-04-19T12:33:21.981Z</time></trkpt><trkpt lat="43.4013991" lon="12.9712899"><ele>207.0</ele><time>2026-04-19T12:33:22.982Z</time></trkpt><trkpt lat="43.4013466" lon="12.9714334"><ele>207.0</ele><time>2026-04-19T12:33:23.99Z</time></trkpt><trkpt lat="43.4012995" lon="12.9715664"><ele>207.0</ele><time>2026-04-19T12:33:24.981Z</time></trkpt><trkpt lat="43.4012599" lon="12.9717067"><ele>207.0</ele><time>2026-04-19T12:33:25.992Z</time></trkpt><trkpt lat="43.4012353" lon="12.9718475"><ele>207.0</ele><time>2026-04-19T12:33:26.986Z</time></trkpt><trkpt lat="43.4012221" lon="12.9719832"><ele>207.0</ele><time>2026-04-19T12:33:27.993Z</time></trkpt><trkpt lat="43.4012125" lon="12.9721234"><ele>207.0</ele><time>2026-04-19T12:33:28.984Z</time></trkpt><trkpt lat="43.4012426" lon="12.9722677"><ele>207.0</ele><time>2026-04-19T12:33:29.975Z</time></trkpt><trkpt lat="43.4012687" lon="12.9724246"><ele>206.25</ele><time>2026-04-19T12:33:30.983Z</time></trkpt><trkpt lat="43.4013036" lon="12.9725876"><ele>205.5</ele><time>2026-04-19T12:33:31.974Z</time></trkpt><trkpt lat="43.4013403" lon="12.9727522"><ele>204.75</ele><time>2026-04-19T12:33:32.983Z</time></trkpt><trkpt lat="43.4013799" lon="12.9729148"><ele>204.0</ele><time>2026-04-19T12:33:33.982Z</time></trkpt><trkpt lat="43.4014179" lon="12.9730725"><ele>204.0</ele><time>2026-04-19T12:33:34.988Z</time></trkpt><trkpt lat="43.401458" lon="12.9732331"><ele>204.0</ele><time>2026-04-19T12:33:35.985Z</time></trkpt><trkpt lat="43.401501" lon="12.973395"><ele>204.0</ele><time>2026-04-19T12:33:36.983Z</time></trkpt><trkpt lat="43.4015352" lon="12.9735412"><ele>204.0</ele><time>2026-04-19T12:33:37.977Z</time></trkpt><trkpt lat="43.4015599" lon="12.973676"><ele>206.0</ele><time>2026-04-19T12:33:38.975Z</time></trkpt><trkpt lat="43.401593" lon="12.9738119"><ele>208.0</ele><time>2026-04-19T12:33:39.985Z</time></trkpt><trkpt lat="43.4016172" lon="12.9739331"><ele>209.99999999999997</ele><time>2026-04-19T12:33:40.989Z</time></trkpt><trkpt lat="43.4016653" lon="12.9740606"><ele>212.0</ele><time>2026-04-19T12:33:41.988Z</time></trkpt><trkpt lat="43.401703" lon="12.9741686"><ele>214.0</ele><time>2026-04-19T12:33:42.99Z</time></trkpt><trkpt lat="43.4017513" lon="12.974276"><ele>214.6</ele><time>2026-04-19T12:33:43.978Z</time></trkpt><trkpt lat="43.4018195" lon="12.9743945"><ele>215.2</ele><time>2026-04-19T12:33:44.981Z</time></trkpt><trkpt lat="43.4019338" lon="12.9744204"><ele>215.79999999999998</ele><time>2026-04-19T12:33:45.989Z</time></trkpt><trkpt lat="43.402019" lon="12.9744623"><ele>216.39999999999998</ele><time>2026-04-19T12:33:46.983Z</time></trkpt><trkpt lat="43.4020981" lon="12.9744851"><ele>217.0</ele><time>2026-04-19T12:33:47.982Z</time></trkpt><trkpt lat="43.4021704" lon="12.9745012"><ele>213.66666666666666</ele><time>2026-04-19T12:33:48.982Z</time></trkpt><trkpt lat="43.4022646" lon="12.9745224"><ele>210.33333333333331</ele><time>2026-04-19T12:33:50.982Z</time></trkpt><trkpt lat="43.4023307" lon="12.9745242"><ele>207.0</ele><time>2026-04-19T12:35:38.981Z</time></trkpt><trkpt lat="43.4023981" lon="12.9745024"><ele>203.66666666666669</ele><time>2026-04-19T12:35:41Z</time></trkpt><trkpt lat="43.4024646" lon="12.9745115"><ele>200.33333333333334</ele><time>2026-04-19T12:35:41.98Z</time></trkpt><trkpt lat="43.4025472" lon="12.9745192"><ele>197.0</ele><time>2026-04-19T12:35:42.98Z</time></trkpt><trkpt lat="43.4026249" lon="12.974529"><ele>197.0</ele><time>2026-04-19T12:35:43.989Z</time></trkpt><trkpt lat="43.4027479" lon="12.9745423"><ele>197.0</ele><time>2026-04-19T12:35:44.973Z</time></trkpt><trkpt lat="43.402862" lon="12.9745606"><ele>197.0</ele><time>2026-04-19T12:35:45.981Z</time></trkpt><trkpt lat="43.4030002" lon="12.9745785"><ele>197.0</ele><time>2026-04-19T12:35:46.977Z</time></trkpt><trkpt lat="43.4031283" lon="12.9745919"><ele>196.75</ele><time>2026-04-19T12:35:47.975Z</time></trkpt><trkpt lat="43.4032556" lon="12.9746126"><ele>196.5</ele><time>2026-04-19T12:35:48.999Z</time></trkpt><trkpt lat="43.4034085" lon="12.9746347"><ele>196.25</ele><time>2026-04-19T12:35:49.989Z</time></trkpt><trkpt lat="43.4035589" lon="12.9746647"><ele>196.0</ele><time>2026-04-19T12:35:50.982Z</time></trkpt><trkpt lat="43.4037038" lon="12.9747049"><ele>200.0</ele><time>2026-04-19T12:35:51.976Z</time></trkpt><trkpt lat="43.4038432" lon="12.9747409"><ele>204.0</ele><time>2026-04-19T12:35:52.984Z</time></trkpt><trkpt lat="43.4039651" lon="12.9748041"><ele>208.0</ele><time>2026-04-19T12:35:53.994Z</time></trkpt><trkpt lat="43.404092" lon="12.9748711"><ele>212.0</ele><time>2026-04-19T12:35:54.979Z</time></trkpt><trkpt lat="43.404198" lon="12.9749775"><ele>207.0</ele><time>2026-04-19T12:35:55.973Z</time></trkpt><trkpt lat="43.4043006" lon="12.975086"><ele>202.0</ele><time>2026-04-19T12:35:56.983Z</time></trkpt><trkpt lat="43.4043805" lon="12.9752142"><ele>197.0</ele><time>2026-04-19T12:35:57.992Z</time></trkpt><trkpt lat="43.4044662" lon="12.9753432"><ele>192.0</ele><time>2026-04-19T12:35:58.976Z</time></trkpt><trkpt lat="43.4045339" lon="12.9754741"><ele>192.0</ele><time>2026-04-19T12:35:59.978Z</time></trkpt><trkpt lat="43.4045922" lon="12.9756133"><ele>192.0</ele><time>2026-04-19T12:36:00.973Z</time></trkpt><trkpt lat="43.4046386" lon="12.9757684"><ele>192.0</ele><time>2026-04-19T12:36:01.975Z</time></trkpt><trkpt lat="43.4046888" lon="12.9759187"><ele>192.0</ele><time>2026-04-19T12:36:02.993Z</time></trkpt><trkpt lat="43.4047203" lon="12.9762432"><ele>193.39999999999998</ele><time>2026-04-19T12:36:04.98Z</time></trkpt><trkpt lat="43.4047448" lon="12.9764102"><ele>194.79999999999998</ele><time>2026-04-19T12:36:05.988Z</time></trkpt><trkpt lat="43.4047652" lon="12.9765632"><ele>196.2</ele><time>2026-04-19T12:36:06.993Z</time></trkpt><trkpt lat="43.4047786" lon="12.9766971"><ele>197.6</ele><time>2026-04-19T12:36:07.984Z</time></trkpt><trkpt lat="43.4047862" lon="12.9768325"><ele>199.0</ele><time>2026-04-19T12:36:08.984Z</time></trkpt><trkpt lat="43.4048069" lon="12.9769613"><ele>198.99999999999997</ele><time>2026-04-19T12:36:09.987Z</time></trkpt><trkpt lat="43.4048151" lon="12.9770729"><ele>199.0</ele><time>2026-04-19T12:36:10.981Z</time></trkpt><trkpt lat="43.4048325" lon="12.9771736"><ele>199.0</ele><time>2026-04-19T12:36:11.979Z</time></trkpt><trkpt lat="43.4048527" lon="12.9772831"><ele>199.0</ele><time>2026-04-19T12:36:12.986Z</time></trkpt><trkpt lat="43.4048714" lon="12.9773885"><ele>198.99999999999997</ele><time>2026-04-19T12:36:13.985Z</time></trkpt><trkpt lat="43.404895" lon="12.9774868"><ele>199.0</ele><time>2026-04-19T12:36:14.987Z</time></trkpt><trkpt lat="43.4049297" lon="12.9775747"><ele>197.49999999999997</ele><time>2026-04-19T12:36:16Z</time></trkpt><trkpt lat="43.404969" lon="12.9776598"><ele>196.0</ele><time>2026-04-19T12:36:16.976Z</time></trkpt><trkpt lat="43.4050071" lon="12.9777485"><ele>194.5</ele><time>2026-04-19T12:36:17.986Z</time></trkpt><trkpt lat="43.4050542" lon="12.9778422"><ele>193.0</ele><time>2026-04-19T12:36:18.984Z</time></trkpt><trkpt lat="43.4051096" lon="12.9779396"><ele>191.5</ele><time>2026-04-19T12:36:19.996Z</time></trkpt><trkpt lat="43.4051621" lon="12.9780445"><ele>190.0</ele><time>2026-04-19T12:36:20.983Z</time></trkpt><trkpt lat="43.40522" lon="12.9781511"><ele>190.0</ele><time>2026-04-19T12:36:21.987Z</time></trkpt><trkpt lat="43.4052769" lon="12.9782613"><ele>190.0</ele><time>2026-04-19T12:36:22.982Z</time></trkpt><trkpt lat="43.4053303" lon="12.9783603"><ele>190.0</ele><time>2026-04-19T12:36:23.982Z</time></trkpt><trkpt lat="43.4053832" lon="12.9784627"><ele>190.0</ele><time>2026-04-19T12:36:24.974Z</time></trkpt><trkpt lat="43.4054398" lon="12.9785583"><ele>190.0</ele><time>2026-04-19T12:36:25.986Z</time></trkpt><trkpt lat="43.405485" lon="12.9786539"><ele>189.2</ele><time>2026-04-19T12:36:26.987Z</time></trkpt><trkpt lat="43.4055381" lon="12.9787405"><ele>188.4</ele><time>2026-04-19T12:36:27.989Z</time></trkpt><trkpt lat="43.4055945" lon="12.9788389"><ele>187.60000000000002</ele><time>2026-04-19T12:36:28.975Z</time></trkpt><trkpt lat="43.405646" lon="12.9789398"><ele>186.8</ele><time>2026-04-19T12:36:29.981Z</time></trkpt><trkpt lat="43.4057155" lon="12.9790418"><ele>186.0</ele><time>2026-04-19T12:36:30.985Z</time></trkpt><trkpt lat="43.405767" lon="12.9791459"><ele>185.83333333333334</ele><time>2026-04-19T12:36:32Z</time></trkpt><trkpt lat="43.4058178" lon="12.979251"><ele>185.66666666666666</ele><time>2026-04-19T12:36:32.989Z</time></trkpt><trkpt lat="43.4058721" lon="12.9793464"><ele>185.5</ele><time>2026-04-19T12:36:33.977Z</time></trkpt><trkpt lat="43.4059181" lon="12.9794387"><ele>185.33333333333331</ele><time>2026-04-19T12:36:34.976Z</time></trkpt><trkpt lat="43.4059609" lon="12.9795278"><ele>185.16666666666666</ele><time>2026-04-19T12:36:35.977Z</time></trkpt><trkpt lat="43.4059917" lon="12.97961"><ele>185.0</ele><time>2026-04-19T12:36:36.985Z</time></trkpt><trkpt lat="43.406031" lon="12.9797236"><ele>185.0</ele><time>2026-04-19T12:36:38.994Z</time></trkpt></trkseg></trk></gpx>